<?xml version='1.0' encoding='UTF-8'?><gpx version="1.1" creator="JPX - https://github.com/jenetics/jpx" xmlns="http://www.topografix.com/GPX/1/1"><trk><trkseg><trkpt lat="45.49767" lon="8.7234083"><ele>149.0</ele><time>2026-04-19T08:11:48.013Z</time></trkpt><trkpt lat="45.49764" lon="8.7235233"><ele>149.0</ele><time>2026-04-19T08:11:59.012Z</time></trkpt><trkpt lat="45.497625" lon="8.7236483"><ele>149.0</ele><time>2026-04-19T08:12:02.013Z</time></trkpt><trkpt lat="45.4975917" lon="8.7237483"><ele>149.0</ele><time>2026-04-19T08:12:05.012Z</time></trkpt><trkpt lat="45.4975533" lon="8.7238633"><ele>149.0</ele><time>2026-04-19T08:12:08.013Z</time></trkpt><trkpt lat="45.4975167" lon="8.7239417"><ele>149.0</ele><time>2026-04-19T08:12:10.013Z</time></trkpt><trkpt lat="45.4974633" lon="8.7240233"><ele>149.6</ele><time>2026-04-19T08:12:12.013Z</time></trkpt><trkpt lat="45.497415" lon="8.7241117"><ele>150.2</ele><time>2026-04-19T08:12:14.012Z</time></trkpt><trkpt lat="45.4973633" lon="8.7242033"><ele>150.79999999999998</ele><time>2026-04-19T08:12:16.012Z</time></trkpt><trkpt lat="45.497285" lon="8.7243267"><ele>151.4</ele><time>2026-04-19T08:12:18.012Z</time></trkpt><trkpt lat="45.4972133" lon="8.7244617"><ele>152.0</ele><time>2026-04-19T08:12:20.012Z</time></trkpt><trkpt lat="45.4971467" lon="8.7246033"><ele>151.2</ele><time>2026-04-19T08:12:22.013Z</time></trkpt><trkpt lat="45.4970833" lon="8.7247333"><ele>150.39999999999998</ele><time>2026-04-19T08:12:24.013Z</time></trkpt><trkpt lat="45.497015" lon="8.7248667"><ele>149.60000000000002</ele><time>2026-04-19T08:12:26.013Z</time></trkpt><trkpt lat="45.49694" lon="8.7249933"><ele>148.8</ele><time>2026-04-19T08:12:28.013Z</time></trkpt><trkpt lat="45.4969017" lon="8.72507"><ele>148.0</ele><time>2026-04-19T08:12:29.013Z</time></trkpt><trkpt lat="45.4968533" lon="8.725155"><ele>148.66666666666669</ele><time>2026-04-19T08:12:30.012Z</time></trkpt><trkpt lat="45.496805" lon="8.7252417"><ele>149.33333333333334</ele><time>2026-04-19T08:12:31.013Z</time></trkpt><trkpt lat="45.4967567" lon="8.725335"><ele>150.0</ele><time>2026-04-19T08:12:32.013Z</time></trkpt><trkpt lat="45.4967033" lon="8.725435"><ele>150.66666666666666</ele><time>2026-04-19T08:12:33.013Z</time></trkpt><trkpt lat="45.4966517" lon="8.7255467"><ele>151.33333333333331</ele><time>2026-04-19T08:12:34.013Z</time></trkpt><trkpt lat="45.4965967" lon="8.7256633"><ele>152.0</ele><time>2026-04-19T08:12:35.012Z</time></trkpt><trkpt lat="45.4965417" lon="8.7257783"><ele>152.0</ele><time>2026-04-19T08:12:36.013Z</time></trkpt><trkpt lat="45.4964867" lon="8.7258933"><ele>152.0</ele><time>2026-04-19T08:12:37.013Z</time></trkpt><trkpt lat="45.4964333" lon="8.7260167"><ele>152.0</ele><time>2026-04-19T08:12:38.013Z</time></trkpt><trkpt lat="45.4963717" lon="8.7261383"><ele>152.0</ele><time>2026-04-19T08:12:39.012Z</time></trkpt><trkpt lat="45.4963033" lon="8.7262633"><ele>152.0</ele><time>2026-04-19T08:12:40.012Z</time></trkpt><trkpt lat="45.49624" lon="8.7263883"><ele>152.0</ele><time>2026-04-19T08:12:41.013Z</time></trkpt><trkpt lat="45.4961783" lon="8.7265267"><ele>152.0</ele><time>2026-04-19T08:12:42.012Z</time></trkpt><trkpt lat="45.49611" lon="8.726655"><ele>152.0</ele><time>2026-04-19T08:12:43.012Z</time></trkpt><trkpt lat="45.49604" lon="8.7267917"><ele>152.0</ele><time>2026-04-19T08:12:44.012Z</time></trkpt><trkpt lat="45.4959733" lon="8.7269283"><ele>152.75</ele><time>2026-04-19T08:12:45.012Z</time></trkpt><trkpt lat="45.4959067" lon="8.7270683"><ele>153.5</ele><time>2026-04-19T08:12:46.013Z</time></trkpt><trkpt lat="45.4958333" lon="8.7272117"><ele>154.25</ele><time>2026-04-19T08:12:47.013Z</time></trkpt><trkpt lat="45.4957733" lon="8.7273533"><ele>155.0</ele><time>2026-04-19T08:12:48.013Z</time></trkpt><trkpt lat="45.4956883" lon="8.7274867"><ele>155.0</ele><time>2026-04-19T08:12:49.013Z</time></trkpt><trkpt lat="45.4956183" lon="8.72762"><ele>155.0</ele><time>2026-04-19T08:12:50.013Z</time></trkpt><trkpt lat="45.4955533" lon="8.727755"><ele>155.0</ele><time>2026-04-19T08:12:51.012Z</time></trkpt><trkpt lat="45.4954717" lon="8.7278833"><ele>155.0</ele><time>2026-04-19T08:12:52.013Z</time></trkpt><trkpt lat="45.4954083" lon="8.7280167"><ele>155.25</ele><time>2026-04-19T08:12:53.013Z</time></trkpt><trkpt lat="45.495335" lon="8.72815"><ele>155.5</ele><time>2026-04-19T08:12:54.013Z</time></trkpt><trkpt lat="45.4952583" lon="8.72828"><ele>155.75</ele><time>2026-04-19T08:12:55.013Z</time></trkpt><trkpt lat="45.4951883" lon="8.7284183"><ele>156.0</ele><time>2026-04-19T08:12:56.012Z</time></trkpt><trkpt lat="45.4951217" lon="8.7285617"><ele>156.25</ele><time>2026-04-19T08:12:57.013Z</time></trkpt><trkpt lat="45.49505" lon="8.7287133"><ele>156.5</ele><time>2026-04-19T08:12:58.013Z</time></trkpt><trkpt lat="45.4949833" lon="8.7288583"><ele>156.75</ele><time>2026-04-19T08:12:59.013Z</time></trkpt><trkpt lat="45.4949017" lon="8.7289983"><ele>157.0</ele><time>2026-04-19T08:13:00.012Z</time></trkpt><trkpt lat="45.4948317" lon="8.7291433"><ele>157.0</ele><time>2026-04-19T08:13:01.012Z</time></trkpt><trkpt lat="45.494755" lon="8.7292883"><ele>157.0</ele><time>2026-04-19T08:13:02.012Z</time></trkpt><trkpt lat="45.4946833" lon="8.7294267"><ele>157.0</ele><time>2026-04-19T08:13:03.013Z</time></trkpt><trkpt lat="45.4946083" lon="8.72957"><ele>157.0</ele><time>2026-04-19T08:13:04.012Z</time></trkpt><trkpt lat="45.4945367" lon="8.7297017"><ele>157.25</ele><time>2026-04-19T08:13:05.013Z</time></trkpt><trkpt lat="45.494465" lon="8.7298317"><ele>157.5</ele><time>2026-04-19T08:13:06.013Z</time></trkpt><trkpt lat="45.4944017" lon="8.7299617"><ele>157.75</ele><time>2026-04-19T08:13:07.013Z</time></trkpt><trkpt lat="45.4943333" lon="8.7301"><ele>158.0</ele><time>2026-04-19T08:13:08.012Z</time></trkpt><trkpt lat="45.494255" lon="8.7302367"><ele>158.0</ele><time>2026-04-19T08:13:09.012Z</time></trkpt><trkpt lat="45.4941833" lon="8.7303633"><ele>158.0</ele><time>2026-04-19T08:13:10.013Z</time></trkpt><trkpt lat="45.4941217" lon="8.7304883"><ele>158.0</ele><time>2026-04-19T08:13:11.012Z</time></trkpt><trkpt lat="45.4940633" lon="8.7306017"><ele>158.0</ele><time>2026-04-19T08:13:12.012Z</time></trkpt><trkpt lat="45.4940083" lon="8.73071"><ele>158.0</ele><time>2026-04-19T08:13:13.013Z</time></trkpt><trkpt lat="45.4939583" lon="8.7308017"><ele>158.0</ele><time>2026-04-19T08:13:14.013Z</time></trkpt><trkpt lat="45.4939117" lon="8.7308983"><ele>158.0</ele><time>2026-04-19T08:13:15.013Z</time></trkpt><trkpt lat="45.4938667" lon="8.73099"><ele>158.0</ele><time>2026-04-19T08:13:16.012Z</time></trkpt><trkpt lat="45.4938217" lon="8.7310883"><ele>158.0</ele><time>2026-04-19T08:13:17.013Z</time></trkpt><trkpt lat="45.4937683" lon="8.73118"><ele>158.0</ele><time>2026-04-19T08:13:18.013Z</time></trkpt><trkpt lat="45.493715" lon="8.731285"><ele>158.0</ele><time>2026-04-19T08:13:19.012Z</time></trkpt><trkpt lat="45.49366" lon="8.73139"><ele>158.60000000000002</ele><time>2026-04-19T08:13:20.012Z</time></trkpt><trkpt lat="45.4936083" lon="8.731505"><ele>159.20000000000002</ele><time>2026-04-19T08:13:21.013Z</time></trkpt><trkpt lat="45.493545" lon="8.73162"><ele>159.8</ele><time>2026-04-19T08:13:22.013Z</time></trkpt><trkpt lat="45.4934783" lon="8.7317367"><ele>160.4</ele><time>2026-04-19T08:13:23.013Z</time></trkpt><trkpt lat="45.4934083" lon="8.7318667"><ele>161.0</ele><time>2026-04-19T08:13:24.013Z</time></trkpt><trkpt lat="45.4933267" lon="8.7320133"><ele>158.66666666666666</ele><time>2026-04-19T08:13:25.013Z</time></trkpt><trkpt lat="45.4932433" lon="8.732185"><ele>156.33333333333334</ele><time>2026-04-19T08:13:26.012Z</time></trkpt><trkpt lat="45.4931567" lon="8.7323717"><ele>154.0</ele><time>2026-04-19T08:13:27.013Z</time></trkpt><trkpt lat="45.4930717" lon="8.7325517"><ele>154.5</ele><time>2026-04-19T08:13:28.013Z</time></trkpt><trkpt lat="45.4929833" lon="8.7327267"><ele>155.0</ele><time>2026-04-19T08:13:29.013Z</time></trkpt><trkpt lat="45.4928967" lon="8.7328833"><ele>155.5</ele><time>2026-04-19T08:13:30.012Z</time></trkpt><trkpt lat="45.4928133" lon="8.73305"><ele>156.0</ele><time>2026-04-19T08:13:31.012Z</time></trkpt><trkpt lat="45.4927267" lon="8.733225"><ele>156.0</ele><time>2026-04-19T08:13:32.012Z</time></trkpt><trkpt lat="45.4926367" lon="8.7334"><ele>156.0</ele><time>2026-04-19T08:13:33.012Z</time></trkpt><trkpt lat="45.4925517" lon="8.7335733"><ele>156.0</ele><time>2026-04-19T08:13:34.013Z</time></trkpt><trkpt lat="45.4924667" lon="8.7337567"><ele>155.33333333333334</ele><time>2026-04-19T08:13:35.012Z</time></trkpt><trkpt lat="45.49237" lon="8.73394"><ele>154.66666666666669</ele><time>2026-04-19T08:13:36.013Z</time></trkpt><trkpt lat="45.4922817" lon="8.734125"><ele>154.0</ele><time>2026-04-19T08:13:37.013Z</time></trkpt><trkpt lat="45.49219" lon="8.7343067"><ele>155.25</ele><time>2026-04-19T08:13:38.013Z</time></trkpt><trkpt lat="45.4921033" lon="8.73448"><ele>156.5</ele><time>2026-04-19T08:13:39.012Z</time></trkpt><trkpt lat="45.4920117" lon="8.7346417"><ele>157.75</ele><time>2026-04-19T08:13:40.012Z</time></trkpt><trkpt lat="45.4919267" lon="8.7348183"><ele>159.0</ele><time>2026-04-19T08:13:41.012Z</time></trkpt><trkpt lat="45.4918433" lon="8.734995"><ele>159.0</ele><time>2026-04-19T08:13:42.013Z</time></trkpt><trkpt lat="45.491755" lon="8.73517"><ele>159.0</ele><time>2026-04-19T08:13:43.013Z</time></trkpt><trkpt lat="45.4916717" lon="8.735335"><ele>159.0</ele><time>2026-04-19T08:13:44.012Z</time></trkpt><trkpt lat="45.49159" lon="8.7354883"><ele>159.0</ele><time>2026-04-19T08:13:45.013Z</time></trkpt><trkpt lat="45.4915217" lon="8.7356317"><ele>158.0</ele><time>2026-04-19T08:13:46.013Z</time></trkpt><trkpt lat="45.4914517" lon="8.735785"><ele>157.0</ele><time>2026-04-19T08:13:47.012Z</time></trkpt><trkpt lat="45.4913717" lon="8.73594"><ele>156.0</ele><time>2026-04-19T08:13:48.013Z</time></trkpt><trkpt lat="45.4913033" lon="8.7360883"><ele>155.0</ele><time>2026-04-19T08:13:49.012Z</time></trkpt><trkpt lat="45.49123" lon="8.73622"><ele>154.4</ele><time>2026-04-19T08:13:50.013Z</time></trkpt><trkpt lat="45.49116" lon="8.736345"><ele>153.8</ele><time>2026-04-19T08:13:51.013Z</time></trkpt><trkpt lat="45.49109" lon="8.7364483"><ele>153.2</ele><time>2026-04-19T08:13:52.013Z</time></trkpt><trkpt lat="45.4910183" lon="8.7365417"><ele>152.6</ele><time>2026-04-19T08:13:53.012Z</time></trkpt><trkpt lat="45.490965" lon="8.7366217"><ele>152.0</ele><time>2026-04-19T08:13:54.013Z</time></trkpt><trkpt lat="45.490915" lon="8.7367017"><ele>152.0</ele><time>2026-04-19T08:13:55.013Z</time></trkpt><trkpt lat="45.4908733" lon="8.7367717"><ele>152.0</ele><time>2026-04-19T08:13:56.013Z</time></trkpt><trkpt lat="45.4908067" lon="8.7368883"><ele>152.0</ele><time>2026-04-19T08:13:58.013Z</time></trkpt><trkpt lat="45.4907733" lon="8.73698"><ele>152.0</ele><time>2026-04-19T08:14:00.012Z</time></trkpt><trkpt lat="45.4906917" lon="8.7370667"><ele>152.0</ele><time>2026-04-19T08:14:58.012Z</time></trkpt><trkpt lat="45.4906267" lon="8.7371"><ele>152.0</ele><time>2026-04-19T08:14:59.011Z</time></trkpt><trkpt lat="45.4905733" lon="8.7371517"><ele>152.6</ele><time>2026-04-19T08:15:00.011Z</time></trkpt><trkpt lat="45.4905233" lon="8.7372083"><ele>153.2</ele><time>2026-04-19T08:15:01.012Z</time></trkpt><trkpt lat="45.490435" lon="8.7373117"><ele>153.8</ele><time>2026-04-19T08:15:03.012Z</time></trkpt><trkpt lat="45.49035" lon="8.7373933"><ele>154.4</ele><time>2026-04-19T08:15:05.012Z</time></trkpt><trkpt lat="45.4902833" lon="8.7374667"><ele>155.0</ele><time>2026-04-19T08:15:07.012Z</time></trkpt><trkpt lat="45.4901833" lon="8.737555"><ele>155.0</ele><time>2026-04-19T08:15:09.011Z</time></trkpt><trkpt lat="45.4901167" lon="8.73765"><ele>155.0</ele><time>2026-04-19T08:15:11.012Z</time></trkpt><trkpt lat="45.4900667" lon="8.73771"><ele>155.0</ele><time>2026-04-19T08:15:13.011Z</time></trkpt><trkpt lat="45.4900267" lon="8.7377817"><ele>155.0</ele><time>2026-04-19T08:15:15.012Z</time></trkpt><trkpt lat="45.4899417" lon="8.7378517"><ele>155.0</ele><time>2026-04-19T08:15:18.012Z</time></trkpt><trkpt lat="45.4898817" lon="8.7379033"><ele>155.0</ele><time>2026-04-19T08:15:20.011Z</time></trkpt><trkpt lat="45.4898267" lon="8.7379533"><ele>155.6</ele><time>2026-04-19T08:15:23.012Z</time></trkpt><trkpt lat="45.4897367" lon="8.7380433"><ele>156.2</ele><time>2026-04-19T08:17:22.011Z</time></trkpt><trkpt lat="45.4896783" lon="8.7381"><ele>156.8</ele><time>2026-04-19T08:17:24.012Z</time></trkpt><trkpt lat="45.4896033" lon="8.7382033"><ele>157.4</ele><time>2026-04-19T08:17:26.012Z</time></trkpt><trkpt lat="45.489535" lon="8.7383017"><ele>158.0</ele><time>2026-04-19T08:17:28.012Z</time></trkpt><trkpt lat="45.4894633" lon="8.7383817"><ele>156.8</ele><time>2026-04-19T08:17:30.011Z</time></trkpt><trkpt lat="45.4893833" lon="8.7384667"><ele>155.60000000000002</ele><time>2026-04-19T08:17:32.011Z</time></trkpt><trkpt lat="45.4893117" lon="8.7385433"><ele>154.39999999999998</ele><time>2026-04-19T08:17:34.012Z</time></trkpt><trkpt lat="45.4892567" lon="8.7386033"><ele>153.2</ele><time>2026-04-19T08:17:35.012Z</time></trkpt><trkpt lat="45.489205" lon="8.7386767"><ele>152.0</ele><time>2026-04-19T08:17:36.011Z</time></trkpt><trkpt lat="45.4891167" lon="8.7388017"><ele>152.0</ele><time>2026-04-19T08:17:38.012Z</time></trkpt><trkpt lat="45.4890667" lon="8.7388617"><ele>152.0</ele><time>2026-04-19T08:17:39.012Z</time></trkpt><trkpt lat="45.4890133" lon="8.73892"><ele>152.0</ele><time>2026-04-19T08:17:40.012Z</time></trkpt><trkpt lat="45.48896" lon="8.73898"><ele>152.0</ele><time>2026-04-19T08:17:41.011Z</time></trkpt><trkpt lat="45.4888583" lon="8.7391033"><ele>152.0</ele><time>2026-04-19T08:17:43.012Z</time></trkpt><trkpt lat="45.4888017" lon="8.739165"><ele>152.0</ele><time>2026-04-19T08:17:44.011Z</time></trkpt><trkpt lat="45.4887383" lon="8.7392317"><ele>152.0</ele><time>2026-04-19T08:17:45.012Z</time></trkpt><trkpt lat="45.4886767" lon="8.7393017"><ele>152.0</ele><time>2026-04-19T08:17:46.012Z</time></trkpt><trkpt lat="45.4886183" lon="8.7393667"><ele>152.0</ele><time>2026-04-19T08:17:47.012Z</time></trkpt><trkpt lat="45.48856" lon="8.7394283"><ele>152.0</ele><time>2026-04-19T08:17:48.012Z</time></trkpt><trkpt lat="45.4884983" lon="8.7394983"><ele>152.0</ele><time>2026-04-19T08:17:49.012Z</time></trkpt><trkpt lat="45.488435" lon="8.7395767"><ele>152.0</ele><time>2026-04-19T08:17:50.012Z</time></trkpt><trkpt lat="45.4883617" lon="8.7396567"><ele>152.0</ele><time>2026-04-19T08:17:51.012Z</time></trkpt><trkpt lat="45.4883033" lon="8.7397367"><ele>152.0</ele><time>2026-04-19T08:17:52.012Z</time></trkpt><trkpt lat="45.4882283" lon="8.7398067"><ele>152.0</ele><time>2026-04-19T08:17:53.011Z</time></trkpt><trkpt lat="45.4881583" lon="8.73989"><ele>152.0</ele><time>2026-04-19T08:17:54.011Z</time></trkpt><trkpt lat="45.488085" lon="8.7399617"><ele>152.0</ele><time>2026-04-19T08:17:55.012Z</time></trkpt><trkpt lat="45.48802" lon="8.7400417"><ele>152.0</ele><time>2026-04-19T08:17:56.012Z</time></trkpt><trkpt lat="45.4879433" lon="8.7401133"><ele>152.0</ele><time>2026-04-19T08:17:57.012Z</time></trkpt><trkpt lat="45.487875" lon="8.7401917"><ele>152.0</ele><time>2026-04-19T08:17:58.012Z</time></trkpt><trkpt lat="45.4878067" lon="8.7402733"><ele>152.0</ele><time>2026-04-19T08:17:59.012Z</time></trkpt><trkpt lat="45.4877317" lon="8.7403667"><ele>152.0</ele><time>2026-04-19T08:18:00.012Z</time></trkpt><trkpt lat="45.487655" lon="8.7404583"><ele>152.0</ele><time>2026-04-19T08:18:01.012Z</time></trkpt><trkpt lat="45.48758" lon="8.7405533"><ele>152.0</ele><time>2026-04-19T08:18:02.012Z</time></trkpt><trkpt lat="45.4875067" lon="8.74065"><ele>152.0</ele><time>2026-04-19T08:18:03.012Z</time></trkpt><trkpt lat="45.4874233" lon="8.7407417"><ele>152.0</ele><time>2026-04-19T08:18:04.012Z</time></trkpt><trkpt lat="45.487335" lon="8.7408167"><ele>152.0</ele><time>2026-04-19T08:18:05.012Z</time></trkpt><trkpt lat="45.4872617" lon="8.7408933"><ele>152.0</ele><time>2026-04-19T08:18:06.012Z</time></trkpt><trkpt lat="45.4871917" lon="8.7409817"><ele>152.4</ele><time>2026-04-19T08:18:07.012Z</time></trkpt><trkpt lat="45.48711" lon="8.7410783"><ele>152.79999999999998</ele><time>2026-04-19T08:18:08.011Z</time></trkpt><trkpt lat="45.4870267" lon="8.7411767"><ele>153.2</ele><time>2026-04-19T08:18:09.012Z</time></trkpt><trkpt lat="45.4869417" lon="8.7412717"><ele>153.6</ele><time>2026-04-19T08:18:10.011Z</time></trkpt><trkpt lat="45.486865" lon="8.7413717"><ele>154.0</ele><time>2026-04-19T08:18:11.011Z</time></trkpt><trkpt lat="45.48678" lon="8.7414517"><ele>154.4</ele><time>2026-04-19T08:18:12.012Z</time></trkpt><trkpt lat="45.4867017" lon="8.74154"><ele>154.8</ele><time>2026-04-19T08:18:13.011Z</time></trkpt><trkpt lat="45.48663" lon="8.7416317"><ele>155.2</ele><time>2026-04-19T08:18:14.011Z</time></trkpt><trkpt lat="45.4865633" lon="8.741735"><ele>155.6</ele><time>2026-04-19T08:18:15.012Z</time></trkpt><trkpt lat="45.48647" lon="8.74183"><ele>156.0</ele><time>2026-04-19T08:18:16.012Z</time></trkpt><trkpt lat="45.4863767" lon="8.741925"><ele>156.25</ele><time>2026-04-19T08:18:17.012Z</time></trkpt><trkpt lat="45.4862733" lon="8.7420317"><ele>156.5</ele><time>2026-04-19T08:18:18.011Z</time></trkpt><trkpt lat="45.48617" lon="8.742145"><ele>156.75</ele><time>2026-04-19T08:18:19.01Z</time></trkpt><trkpt lat="45.4860717" lon="8.74227"><ele>157.0</ele><time>2026-04-19T08:18:20.011Z</time></trkpt><trkpt lat="45.48597" lon="8.74239"><ele>156.5</ele><time>2026-04-19T08:18:21.011Z</time></trkpt><trkpt lat="45.4858567" lon="8.7425017"><ele>156.0</ele><time>2026-04-19T08:18:22.01Z</time></trkpt><trkpt lat="45.485745" lon="8.7426133"><ele>155.5</ele><time>2026-04-19T08:18:23.01Z</time></trkpt><trkpt lat="45.4856283" lon="8.7427367"><ele>155.0</ele><time>2026-04-19T08:18:24.01Z</time></trkpt><trkpt lat="45.4855083" lon="8.74288"><ele>155.0</ele><time>2026-04-19T08:18:25.011Z</time></trkpt><trkpt lat="45.4853767" lon="8.7430333"><ele>155.0</ele><time>2026-04-19T08:18:26.011Z</time></trkpt><trkpt lat="45.48526" lon="8.7431933"><ele>155.0</ele><time>2026-04-19T08:18:27.01Z</time></trkpt><trkpt lat="45.4851367" lon="8.74335"><ele>155.0</ele><time>2026-04-19T08:18:28.01Z</time></trkpt><trkpt lat="45.485015" lon="8.7434933"><ele>155.0</ele><time>2026-04-19T08:18:29.01Z</time></trkpt><trkpt lat="45.484895" lon="8.74364"><ele>155.0</ele><time>2026-04-19T08:18:30.01Z</time></trkpt><trkpt lat="45.48478" lon="8.7437733"><ele>155.0</ele><time>2026-04-19T08:18:31.011Z</time></trkpt><trkpt lat="45.4846567" lon="8.74391"><ele>155.0</ele><time>2026-04-19T08:18:32.011Z</time></trkpt><trkpt lat="45.484535" lon="8.74405"><ele>155.0</ele><time>2026-04-19T08:18:33.01Z</time></trkpt><trkpt lat="45.4844217" lon="8.7441917"><ele>155.0</ele><time>2026-04-19T08:18:34.011Z</time></trkpt><trkpt lat="45.4842933" lon="8.7443267"><ele>155.0</ele><time>2026-04-19T08:18:35.011Z</time></trkpt><trkpt lat="45.484175" lon="8.74446"><ele>155.0</ele><time>2026-04-19T08:18:36.01Z</time></trkpt><trkpt lat="45.484065" lon="8.7445917"><ele>154.66666666666666</ele><time>2026-04-19T08:18:37.011Z</time></trkpt><trkpt lat="45.4839517" lon="8.7447333"><ele>154.33333333333334</ele><time>2026-04-19T08:18:38.01Z</time></trkpt><trkpt lat="45.483825" lon="8.74486"><ele>154.0</ele><time>2026-04-19T08:18:39.011Z</time></trkpt><trkpt lat="45.4837067" lon="8.7449967"><ele>152.33333333333334</ele><time>2026-04-19T08:18:40.01Z</time></trkpt><trkpt lat="45.483585" lon="8.7451367"><ele>150.66666666666666</ele><time>2026-04-19T08:18:41.01Z</time></trkpt><trkpt lat="45.483465" lon="8.7452833"><ele>149.0</ele><time>2026-04-19T08:18:42.01Z</time></trkpt><trkpt lat="45.4833417" lon="8.7454233"><ele>148.66666666666666</ele><time>2026-04-19T08:18:43.01Z</time></trkpt><trkpt lat="45.4832167" lon="8.745565"><ele>148.33333333333334</ele><time>2026-04-19T08:18:44.01Z</time></trkpt><trkpt lat="45.4830883" lon="8.745685"><ele>148.0</ele><time>2026-04-19T08:18:45.01Z</time></trkpt><trkpt lat="45.4829617" lon="8.745815"><ele>147.66666666666669</ele><time>2026-04-19T08:18:46.011Z</time></trkpt><trkpt lat="45.4828367" lon="8.74595"><ele>147.33333333333334</ele><time>2026-04-19T08:18:47.011Z</time></trkpt><trkpt lat="45.48272" lon="8.7460967"><ele>147.0</ele><time>2026-04-19T08:18:48.011Z</time></trkpt><trkpt lat="45.4825933" lon="8.7462333"><ele>147.0</ele><time>2026-04-19T08:18:49.01Z</time></trkpt><trkpt lat="45.4824767" lon="8.7463783"><ele>147.0</ele><time>2026-04-19T08:18:50.011Z</time></trkpt><trkpt lat="45.4823567" lon="8.7465183"><ele>147.0</ele><time>2026-04-19T08:18:51.011Z</time></trkpt><trkpt lat="45.48223" lon="8.7466517"><ele>147.0</ele><time>2026-04-19T08:18:52.011Z</time></trkpt><trkpt lat="45.48211" lon="8.7467933"><ele>147.0</ele><time>2026-04-19T08:18:53.01Z</time></trkpt><trkpt lat="45.48197" lon="8.7469267"><ele>147.0</ele><time>2026-04-19T08:18:54.011Z</time></trkpt><trkpt lat="45.48186" lon="8.747075"><ele>147.33333333333334</ele><time>2026-04-19T08:18:55.01Z</time></trkpt><trkpt lat="45.48173" lon="8.74721"><ele>147.66666666666669</ele><time>2026-04-19T08:18:56.011Z</time></trkpt><trkpt lat="45.4816033" lon="8.7473483"><ele>148.0</ele><time>2026-04-19T08:18:57.01Z</time></trkpt><trkpt lat="45.4814833" lon="8.747485"><ele>148.0</ele><time>2026-04-19T08:18:58.011Z</time></trkpt><trkpt lat="45.48136" lon="8.7476233"><ele>148.0</ele><time>2026-04-19T08:18:59.011Z</time></trkpt><trkpt lat="45.4812283" lon="8.747765"><ele>148.0</ele><time>2026-04-19T08:19:00.01Z</time></trkpt><trkpt lat="45.4811017" lon="8.747905"><ele>148.0</ele><time>2026-04-19T08:19:01.011Z</time></trkpt><trkpt lat="45.48097" lon="8.7480417"><ele>148.0</ele><time>2026-04-19T08:19:02.01Z</time></trkpt><trkpt lat="45.4808433" lon="8.7481833"><ele>148.0</ele><time>2026-04-19T08:19:03.011Z</time></trkpt><trkpt lat="45.4806883" lon="8.7483333"><ele>148.0</ele><time>2026-04-19T08:19:04.01Z</time></trkpt><trkpt lat="45.4805567" lon="8.7484783"><ele>148.0</ele><time>2026-04-19T08:19:05.011Z</time></trkpt><trkpt lat="45.4804283" lon="8.7486083"><ele>148.0</ele><time>2026-04-19T08:19:06.01Z</time></trkpt><trkpt lat="45.480285" lon="8.7487317"><ele>148.25</ele><time>2026-04-19T08:19:07.011Z</time></trkpt><trkpt lat="45.480185" lon="8.7488583"><ele>148.5</ele><time>2026-04-19T08:19:08.01Z</time></trkpt><trkpt lat="45.4800867" lon="8.748995"><ele>148.75</ele><time>2026-04-19T08:19:09.011Z</time></trkpt><trkpt lat="45.4799817" lon="8.74912"><ele>149.0</ele><time>2026-04-19T08:19:10.01Z</time></trkpt><trkpt lat="45.479875" lon="8.7492533"><ele>149.25</ele><time>2026-04-19T08:19:11.01Z</time></trkpt><trkpt lat="45.47977" lon="8.7493833"><ele>149.5</ele><time>2026-04-19T08:19:12.011Z</time></trkpt><trkpt lat="45.4796567" lon="8.7495167"><ele>149.75</ele><time>2026-04-19T08:19:13.011Z</time></trkpt><trkpt lat="45.4795367" lon="8.749645"><ele>150.0</ele><time>2026-04-19T08:19:14.01Z</time></trkpt><trkpt lat="45.479415" lon="8.74977"><ele>150.0</ele><time>2026-04-19T08:19:15.011Z</time></trkpt><trkpt lat="45.4792933" lon="8.74991"><ele>150.0</ele><time>2026-04-19T08:19:16.011Z</time></trkpt><trkpt lat="45.4791733" lon="8.7500567"><ele>150.0</ele><time>2026-04-19T08:19:17.011Z</time></trkpt><trkpt lat="45.479055" lon="8.7501917"><ele>150.0</ele><time>2026-04-19T08:19:18.011Z</time></trkpt><trkpt lat="45.4789217" lon="8.7503383"><ele>150.0</ele><time>2026-04-19T08:19:19.011Z</time></trkpt><trkpt lat="45.4788067" lon="8.750495"><ele>150.0</ele><time>2026-04-19T08:19:20.011Z</time></trkpt><trkpt lat="45.4786883" lon="8.7506367"><ele>150.0</ele><time>2026-04-19T08:19:21.01Z</time></trkpt><trkpt lat="45.478575" lon="8.75079"><ele>150.0</ele><time>2026-04-19T08:19:22.011Z</time></trkpt><trkpt lat="45.47845" lon="8.7509383"><ele>150.0</ele><time>2026-04-19T08:19:23.011Z</time></trkpt><trkpt lat="45.4783233" lon="8.7510783"><ele>150.0</ele><time>2026-04-19T08:19:24.01Z</time></trkpt><trkpt lat="45.4781967" lon="8.75121"><ele>150.0</ele><time>2026-04-19T08:19:25.011Z</time></trkpt><trkpt lat="45.4780667" lon="8.7513367"><ele>150.0</ele><time>2026-04-19T08:19:26.01Z</time></trkpt><trkpt lat="45.4779367" lon="8.751475"><ele>150.0</ele><time>2026-04-19T08:19:27.011Z</time></trkpt><trkpt lat="45.4778083" lon="8.7516117"><ele>150.0</ele><time>2026-04-19T08:19:28.01Z</time></trkpt><trkpt lat="45.4776983" lon="8.7517617"><ele>150.0</ele><time>2026-04-19T08:19:29.011Z</time></trkpt><trkpt lat="45.477575" lon="8.7519083"><ele>149.0</ele><time>2026-04-19T08:19:30.01Z</time></trkpt><trkpt lat="45.47745" lon="8.7520533"><ele>148.0</ele><time>2026-04-19T08:19:31.011Z</time></trkpt><trkpt lat="45.4773317" lon="8.7521967"><ele>147.0</ele><time>2026-04-19T08:19:32.011Z</time></trkpt><trkpt lat="45.4772233" lon="8.7523367"><ele>147.0</ele><time>2026-04-19T08:19:33.011Z</time></trkpt><trkpt lat="45.4771033" lon="8.75247"><ele>147.0</ele><time>2026-04-19T08:19:34.011Z</time></trkpt><trkpt lat="45.4769933" lon="8.7525967"><ele>147.0</ele><time>2026-04-19T08:19:35.011Z</time></trkpt><trkpt lat="45.47689" lon="8.7527167"><ele>147.0</ele><time>2026-04-19T08:19:36.01Z</time></trkpt><trkpt lat="45.47679" lon="8.7528333"><ele>148.25</ele><time>2026-04-19T08:19:37.011Z</time></trkpt><trkpt lat="45.4767" lon="8.7529467"><ele>149.5</ele><time>2026-04-19T08:19:38.011Z</time></trkpt><trkpt lat="45.4766117" lon="8.7530517"><ele>150.75</ele><time>2026-04-19T08:19:39.01Z</time></trkpt><trkpt lat="45.4765117" lon="8.75316"><ele>152.0</ele><time>2026-04-19T08:19:40.01Z</time></trkpt><trkpt lat="45.4764217" lon="8.753255"><ele>152.0</ele><time>2026-04-19T08:19:41.01Z</time></trkpt><trkpt lat="45.476325" lon="8.7533467"><ele>152.0</ele><time>2026-04-19T08:19:42.011Z</time></trkpt><trkpt lat="45.4762333" lon="8.7534533"><ele>152.0</ele><time>2026-04-19T08:19:43.011Z</time></trkpt><trkpt lat="45.4761367" lon="8.7535583"><ele>152.0</ele><time>2026-04-19T08:19:44.01Z</time></trkpt><trkpt lat="45.476045" lon="8.7536617"><ele>152.0</ele><time>2026-04-19T08:19:45.01Z</time></trkpt><trkpt lat="45.475955" lon="8.75378"><ele>152.0</ele><time>2026-04-19T08:19:46.01Z</time></trkpt><trkpt lat="45.47587" lon="8.7538917"><ele>152.0</ele><time>2026-04-19T08:19:47.01Z</time></trkpt><trkpt lat="45.475775" lon="8.7540033"><ele>152.0</ele><time>2026-04-19T08:19:48.01Z</time></trkpt><trkpt lat="45.475665" lon="8.7541033"><ele>152.0</ele><time>2026-04-19T08:19:49.01Z</time></trkpt><trkpt lat="45.4755667" lon="8.7542"><ele>152.0</ele><time>2026-04-19T08:19:50.011Z</time></trkpt><trkpt lat="45.4754733" lon="8.754285"><ele>152.0</ele><time>2026-04-19T08:19:51.011Z</time></trkpt><trkpt lat="45.4753817" lon="8.7543683"><ele>152.0</ele><time>2026-04-19T08:19:52.01Z</time></trkpt><trkpt lat="45.4753133" lon="8.75445"><ele>152.0</ele><time>2026-04-19T08:19:53.01Z</time></trkpt><trkpt lat="45.47525" lon="8.7545183"><ele>151.5</ele><time>2026-04-19T08:19:54.011Z</time></trkpt><trkpt lat="45.4751833" lon="8.7545817"><ele>151.0</ele><time>2026-04-19T08:19:55.011Z</time></trkpt><trkpt lat="45.4751167" lon="8.754665"><ele>150.5</ele><time>2026-04-19T08:19:56.011Z</time></trkpt><trkpt lat="45.4750433" lon="8.7547417"><ele>150.0</ele><time>2026-04-19T08:19:57.011Z</time></trkpt><trkpt lat="45.4749817" lon="8.75481"><ele>149.5</ele><time>2026-04-19T08:19:58.01Z</time></trkpt><trkpt lat="45.47493" lon="8.7548783"><ele>149.0</ele><time>2026-04-19T08:19:59.01Z</time></trkpt><trkpt lat="45.4748817" lon="8.754945"><ele>149.0</ele><time>2026-04-19T08:20:00.011Z</time></trkpt><trkpt lat="45.4748483" lon="8.7550233"><ele>149.0</ele><time>2026-04-19T08:20:01.01Z</time></trkpt><trkpt lat="45.47483" lon="8.755205"><ele>149.0</ele><time>2026-04-19T08:20:03.01Z</time></trkpt><trkpt lat="45.47484" lon="8.7553283"><ele>149.0</ele><time>2026-04-19T08:20:04.011Z</time></trkpt><trkpt lat="45.4748483" lon="8.75546"><ele>149.0</ele><time>2026-04-19T08:20:05.01Z</time></trkpt><trkpt lat="45.4748617" lon="8.7555883"><ele>149.33333333333331</ele><time>2026-04-19T08:20:06.01Z</time></trkpt><trkpt lat="45.4748667" lon="8.755715"><ele>149.66666666666666</ele><time>2026-04-19T08:20:07.01Z</time></trkpt><trkpt lat="45.4748467" lon="8.7558083"><ele>150.0</ele><time>2026-04-19T08:20:08.01Z</time></trkpt><trkpt lat="45.4747733" lon="8.7559167"><ele>150.33333333333334</ele><time>2026-04-19T08:20:10.01Z</time></trkpt><trkpt lat="45.4746983" lon="8.7559267"><ele>150.66666666666669</ele><time>2026-04-19T08:20:11.01Z</time></trkpt><trkpt lat="45.474625" lon="8.755915"><ele>151.0</ele><time>2026-04-19T08:20:12.011Z</time></trkpt><trkpt lat="45.4745333" lon="8.755905"><ele>151.0</ele><time>2026-04-19T08:20:13.01Z</time></trkpt><trkpt lat="45.4744233" lon="8.7559067"><ele>151.0</ele><time>2026-04-19T08:20:14.011Z</time></trkpt><trkpt lat="45.47431" lon="8.7559083"><ele>151.0</ele><time>2026-04-19T08:20:15.01Z</time></trkpt><trkpt lat="45.4741983" lon="8.7559183"><ele>151.0</ele><time>2026-04-19T08:20:16.01Z</time></trkpt><trkpt lat="45.4740783" lon="8.75592"><ele>151.0</ele><time>2026-04-19T08:20:17.011Z</time></trkpt><trkpt lat="45.473965" lon="8.7559283"><ele>151.0</ele><time>2026-04-19T08:20:18.01Z</time></trkpt><trkpt lat="45.4738717" lon="8.7559283"><ele>151.0</ele><time>2026-04-19T08:20:19.011Z</time></trkpt><trkpt lat="45.47378" lon="8.7559317"><ele>151.0</ele><time>2026-04-19T08:20:20.01Z</time></trkpt><trkpt lat="45.4737" lon="8.75592"><ele>151.0</ele><time>2026-04-19T08:20:21.011Z</time></trkpt><trkpt lat="45.4736333" lon="8.7559117"><ele>151.0</ele><time>2026-04-19T08:20:22.011Z</time></trkpt><trkpt lat="45.4735667" lon="8.7559183"><ele>150.66666666666669</ele><time>2026-04-19T08:20:23.011Z</time></trkpt><trkpt lat="45.4734983" lon="8.7559067"><ele>150.33333333333334</ele><time>2026-04-19T08:20:24.01Z</time></trkpt><trkpt lat="45.4734067" lon="8.7558867"><ele>150.0</ele><time>2026-04-19T08:20:26.01Z</time></trkpt><trkpt lat="45.47333" lon="8.7558783"><ele>149.66666666666666</ele><time>2026-04-19T08:20:37.011Z</time></trkpt><trkpt lat="45.4732433" lon="8.755915"><ele>149.33333333333331</ele><time>2026-04-19T08:20:39.011Z</time></trkpt><trkpt lat="45.473195" lon="8.7559767"><ele>149.0</ele><time>2026-04-19T08:20:40.01Z</time></trkpt><trkpt lat="45.473145" lon="8.7560717"><ele>148.83333333333331</ele><time>2026-04-19T08:20:41.01Z</time></trkpt><trkpt lat="45.4730917" lon="8.75617"><ele>148.66666666666666</ele><time>2026-04-19T08:20:42.01Z</time></trkpt><trkpt lat="45.473035" lon="8.7562533"><ele>148.5</ele><time>2026-04-19T08:20:43.011Z</time></trkpt><trkpt lat="45.4729867" lon="8.7563317"><ele>148.33333333333334</ele><time>2026-04-19T08:20:44.011Z</time></trkpt><trkpt lat="45.4729383" lon="8.7564083"><ele>148.16666666666669</ele><time>2026-04-19T08:20:45.011Z</time></trkpt><trkpt lat="45.4728833" lon="8.7565017"><ele>148.0</ele><time>2026-04-19T08:20:46.01Z</time></trkpt><trkpt lat="45.4728267" lon="8.75661"><ele>147.4</ele><time>2026-04-19T08:20:47.011Z</time></trkpt><trkpt lat="45.4727567" lon="8.7567233"><ele>146.8</ele><time>2026-04-19T08:20:48.01Z</time></trkpt><trkpt lat="45.47268" lon="8.75684"><ele>146.2</ele><time>2026-04-19T08:20:49.011Z</time></trkpt><trkpt lat="45.4726083" lon="8.7569517"><ele>145.6</ele><time>2026-04-19T08:20:50.011Z</time></trkpt><trkpt lat="45.47254" lon="8.75706"><ele>145.0</ele><time>2026-04-19T08:20:51.01Z</time></trkpt><trkpt lat="45.4724783" lon="8.75716"><ele>144.85714285714286</ele><time>2026-04-19T08:20:52.011Z</time></trkpt><trkpt lat="45.4724233" lon="8.75725"><ele>144.71428571428572</ele><time>2026-04-19T08:20:53.011Z</time></trkpt><trkpt lat="45.4723733" lon="8.7573333"><ele>144.57142857142858</ele><time>2026-04-19T08:20:54.01Z</time></trkpt><trkpt lat="45.4723183" lon="8.75742"><ele>144.42857142857144</ele><time>2026-04-19T08:20:55.011Z</time></trkpt><trkpt lat="45.47227" lon="8.757495"><ele>144.28571428571428</ele><time>2026-04-19T08:20:56.01Z</time></trkpt><trkpt lat="45.4722333" lon="8.7575717"><ele>144.14285714285717</ele><time>2026-04-19T08:20:57.01Z</time></trkpt><trkpt lat="45.4722233" lon="8.7576633"><ele>144.0</ele><time>2026-04-19T08:20:58.011Z</time></trkpt><trkpt lat="45.472235" lon="8.7577683"><ele>143.6</ele><time>2026-04-19T08:20:59.01Z</time></trkpt><trkpt lat="45.4722633" lon="8.7579017"><ele>143.2</ele><time>2026-04-19T08:21:00.01Z</time></trkpt><trkpt lat="45.4723017" lon="8.7580417"><ele>142.79999999999998</ele><time>2026-04-19T08:21:01.01Z</time></trkpt><trkpt lat="45.472355" lon="8.758185"><ele>142.4</ele><time>2026-04-19T08:21:02.01Z</time></trkpt><trkpt lat="45.472405" lon="8.7583383"><ele>142.0</ele><time>2026-04-19T08:21:03.01Z</time></trkpt><trkpt lat="45.472455" lon="8.7585217"><ele>141.75</ele><time>2026-04-19T08:21:04.011Z</time></trkpt><trkpt lat="45.4724983" lon="8.758695"><ele>141.5</ele><time>2026-04-19T08:21:05.01Z</time></trkpt><trkpt lat="45.47254" lon="8.7588867"><ele>141.25</ele><time>2026-04-19T08:21:06.011Z</time></trkpt><trkpt lat="45.4725833" lon="8.7590983"><ele>141.0</ele><time>2026-04-19T08:21:07.011Z</time></trkpt><trkpt lat="45.4726267" lon="8.7592967"><ele>141.0</ele><time>2026-04-19T08:21:08.011Z</time></trkpt><trkpt lat="45.4726683" lon="8.7594767"><ele>141.0</ele><time>2026-04-19T08:21:09.01Z</time></trkpt><trkpt lat="45.4727067" lon="8.7596467"><ele>141.0</ele><time>2026-04-19T08:21:10.011Z</time></trkpt><trkpt lat="45.472745" lon="8.7598233"><ele>141.0</ele><time>2026-04-19T08:21:11.01Z</time></trkpt><trkpt lat="45.4727917" lon="8.7599967"><ele>141.0</ele><time>2026-04-19T08:21:12.01Z</time></trkpt><trkpt lat="45.47284" lon="8.7601717"><ele>141.0</ele><time>2026-04-19T08:21:13.011Z</time></trkpt><trkpt lat="45.472885" lon="8.76034"><ele>141.0</ele><time>2026-04-19T08:21:14.01Z</time></trkpt><trkpt lat="45.472925" lon="8.7605017"><ele>141.0</ele><time>2026-04-19T08:21:15.01Z</time></trkpt><trkpt lat="45.4729583" lon="8.7606583"><ele>141.4</ele><time>2026-04-19T08:21:16.011Z</time></trkpt><trkpt lat="45.4729867" lon="8.760805"><ele>141.8</ele><time>2026-04-19T08:21:17.011Z</time></trkpt><trkpt lat="45.4730117" lon="8.7609367"><ele>142.20000000000002</ele><time>2026-04-19T08:21:18.011Z</time></trkpt><trkpt lat="45.4730433" lon="8.7610717"><ele>142.6</ele><time>2026-04-19T08:21:19.011Z</time></trkpt><trkpt lat="45.473075" lon="8.7612117"><ele>143.0</ele><time>2026-04-19T08:21:20.011Z</time></trkpt><trkpt lat="45.473115" lon="8.76136"><ele>143.0</ele><time>2026-04-19T08:21:21.011Z</time></trkpt><trkpt lat="45.473155" lon="8.7615317"><ele>143.0</ele><time>2026-04-19T08:21:22.011Z</time></trkpt><trkpt lat="45.4731917" lon="8.7616717"><ele>143.0</ele><time>2026-04-19T08:21:23.011Z</time></trkpt><trkpt lat="45.473215" lon="8.7617917"><ele>143.0</ele><time>2026-04-19T08:21:24.011Z</time></trkpt><trkpt lat="45.473235" lon="8.7619"><ele>143.0</ele><time>2026-04-19T08:21:25.01Z</time></trkpt><trkpt lat="45.4732583" lon="8.7619917"><ele>142.0</ele><time>2026-04-19T08:21:26.01Z</time></trkpt><trkpt lat="45.4732883" lon="8.7621417"><ele>141.0</ele><time>2026-04-19T08:21:28.011Z</time></trkpt><trkpt lat="45.4732483" lon="8.762255"><ele>140.0</ele><time>2026-04-19T08:21:30.011Z</time></trkpt><trkpt lat="45.4731933" lon="8.7623267"><ele>139.0</ele><time>2026-04-19T08:21:31.01Z</time></trkpt><trkpt lat="45.4731067" lon="8.7624"><ele>138.0</ele><time>2026-04-19T08:21:32.01Z</time></trkpt><trkpt lat="45.4730267" lon="8.76248"><ele>138.75</ele><time>2026-04-19T08:21:33.011Z</time></trkpt><trkpt lat="45.4729217" lon="8.7625833"><ele>139.5</ele><time>2026-04-19T08:21:34.01Z</time></trkpt><trkpt lat="45.47281" lon="8.762695"><ele>140.25</ele><time>2026-04-19T08:21:35.011Z</time></trkpt><trkpt lat="45.4727133" lon="8.762805"><ele>141.0</ele><time>2026-04-19T08:21:36.011Z</time></trkpt><trkpt lat="45.4726317" lon="8.7629033"><ele>141.0</ele><time>2026-04-19T08:21:37.011Z</time></trkpt><trkpt lat="45.472545" lon="8.7630167"><ele>141.0</ele><time>2026-04-19T08:21:38.011Z</time></trkpt><trkpt lat="45.4724517" lon="8.76313"><ele>141.0</ele><time>2026-04-19T08:21:39.011Z</time></trkpt><trkpt lat="45.472365" lon="8.763235"><ele>141.0</ele><time>2026-04-19T08:21:40.011Z</time></trkpt><trkpt lat="45.472295" lon="8.7633317"><ele>141.0</ele><time>2026-04-19T08:21:41.01Z</time></trkpt><trkpt lat="45.4722167" lon="8.7634267"><ele>141.0</ele><time>2026-04-19T08:21:42.01Z</time></trkpt><trkpt lat="45.472135" lon="8.76353"><ele>141.0</ele><time>2026-04-19T08:21:43.011Z</time></trkpt><trkpt lat="45.472065" lon="8.763625"><ele>141.0</ele><time>2026-04-19T08:21:44.01Z</time></trkpt><trkpt lat="45.472" lon="8.7637067"><ele>141.0</ele><time>2026-04-19T08:21:45.011Z</time></trkpt><trkpt lat="45.47194" lon="8.7637867"><ele>141.0</ele><time>2026-04-19T08:21:46.01Z</time></trkpt><trkpt lat="45.4718683" lon="8.76384"><ele>141.0</ele><time>2026-04-19T08:21:47.011Z</time></trkpt><trkpt lat="45.4717967" lon="8.7638917"><ele>141.0</ele><time>2026-04-19T08:21:48.01Z</time></trkpt><trkpt lat="45.4717167" lon="8.7639283"><ele>141.0</ele><time>2026-04-19T08:21:49.01Z</time></trkpt><trkpt lat="45.4716317" lon="8.7639667"><ele>141.0</ele><time>2026-04-19T08:21:50.011Z</time></trkpt><trkpt lat="45.471545" lon="8.7640117"><ele>141.0</ele><time>2026-04-19T08:21:51.01Z</time></trkpt><trkpt lat="45.4714517" lon="8.7640667"><ele>141.0</ele><time>2026-04-19T08:21:52.011Z</time></trkpt><trkpt lat="45.4713483" lon="8.7641167"><ele>141.0</ele><time>2026-04-19T08:21:53.011Z</time></trkpt><trkpt lat="45.4712283" lon="8.764165"><ele>141.0</ele><time>2026-04-19T08:21:54.01Z</time></trkpt><trkpt lat="45.47111" lon="8.764215"><ele>141.0</ele><time>2026-04-19T08:21:55.011Z</time></trkpt><trkpt lat="45.470995" lon="8.7642717"><ele>141.75</ele><time>2026-04-19T08:21:56.011Z</time></trkpt><trkpt lat="45.4708883" lon="8.7643267"><ele>142.5</ele><time>2026-04-19T08:21:57.01Z</time></trkpt><trkpt lat="45.470765" lon="8.764385"><ele>143.25</ele><time>2026-04-19T08:21:58.011Z</time></trkpt><trkpt lat="45.47065" lon="8.7644367"><ele>144.0</ele><time>2026-04-19T08:21:59.011Z</time></trkpt><trkpt lat="45.4705467" lon="8.764475"><ele>143.8</ele><time>2026-04-19T08:22:00.011Z</time></trkpt><trkpt lat="45.4704567" lon="8.7645333"><ele>143.60000000000002</ele><time>2026-04-19T08:22:01.011Z</time></trkpt><trkpt lat="45.470365" lon="8.764595"><ele>143.4</ele><time>2026-04-19T08:22:02.011Z</time></trkpt><trkpt lat="45.4702667" lon="8.7646583"><ele>143.20000000000002</ele><time>2026-04-19T08:22:03.01Z</time></trkpt><trkpt lat="45.4701583" lon="8.7647283"><ele>143.0</ele><time>2026-04-19T08:22:04.011Z</time></trkpt><trkpt lat="45.4700467" lon="8.7647967"><ele>143.0</ele><time>2026-04-19T08:22:05.011Z</time></trkpt><trkpt lat="45.4699417" lon="8.7648767"><ele>143.0</ele><time>2026-04-19T08:22:06.01Z</time></trkpt><trkpt lat="45.4698367" lon="8.7649733"><ele>143.0</ele><time>2026-04-19T08:22:07.011Z</time></trkpt><trkpt lat="45.4697083" lon="8.7650717"><ele>143.0</ele><time>2026-04-19T08:22:08.011Z</time></trkpt><trkpt lat="45.469585" lon="8.7651867"><ele>142.25</ele><time>2026-04-19T08:22:09.01Z</time></trkpt><trkpt lat="45.4694533" lon="8.7652983"><ele>141.5</ele><time>2026-04-19T08:22:10.01Z</time></trkpt><trkpt lat="45.4693233" lon="8.7654167"><ele>140.75</ele><time>2026-04-19T08:22:11.01Z</time></trkpt><trkpt lat="45.4692083" lon="8.7655133"><ele>140.0</ele><time>2026-04-19T08:22:12.011Z</time></trkpt><trkpt lat="45.4691083" lon="8.7656067"><ele>140.0</ele><time>2026-04-19T08:22:13.011Z</time></trkpt><trkpt lat="45.4690183" lon="8.765685"><ele>140.0</ele><time>2026-04-19T08:22:14.01Z</time></trkpt><trkpt lat="45.4689467" lon="8.7657517"><ele>140.0</ele><time>2026-04-19T08:22:15.011Z</time></trkpt><trkpt lat="45.4688833" lon="8.7658"><ele>140.0</ele><time>2026-04-19T08:22:16.01Z</time></trkpt><trkpt lat="45.46882" lon="8.7658317"><ele>140.0</ele><time>2026-04-19T08:22:17.011Z</time></trkpt><trkpt lat="45.4687283" lon="8.7657967"><ele>140.0</ele><time>2026-04-19T08:22:19.011Z</time></trkpt><trkpt lat="45.4686867" lon="8.7657033"><ele>140.4</ele><time>2026-04-19T08:22:20.01Z</time></trkpt><trkpt lat="45.46865" lon="8.76558"><ele>140.8</ele><time>2026-04-19T08:22:21.011Z</time></trkpt><trkpt lat="45.4686267" lon="8.765425"><ele>141.2</ele><time>2026-04-19T08:22:22.011Z</time></trkpt><trkpt lat="45.4686067" lon="8.7652717"><ele>141.6</ele><time>2026-04-19T08:22:23.011Z</time></trkpt><trkpt lat="45.4685867" lon="8.7651533"><ele>142.0</ele><time>2026-04-19T08:22:24.01Z</time></trkpt><trkpt lat="45.4685717" lon="8.765055"><ele>142.0</ele><time>2026-04-19T08:22:25.009Z</time></trkpt><trkpt lat="45.46853" lon="8.7649267"><ele>142.0</ele><time>2026-04-19T08:22:27.01Z</time></trkpt><trkpt lat="45.4684467" lon="8.7648967"><ele>142.0</ele><time>2026-04-19T08:22:29.01Z</time></trkpt><trkpt lat="45.4683633" lon="8.7650233"><ele>142.0</ele><time>2026-04-19T08:22:31.009Z</time></trkpt><trkpt lat="45.4683133" lon="8.7651267"><ele>142.0</ele><time>2026-04-19T08:22:32.009Z</time></trkpt><trkpt lat="45.46825" lon="8.7652133"><ele>142.0</ele><time>2026-04-19T08:22:33.009Z</time></trkpt><trkpt lat="45.4681717" lon="8.7652733"><ele>142.0</ele><time>2026-04-19T08:22:34.009Z</time></trkpt><trkpt lat="45.4680867" lon="8.76529"><ele>142.0</ele><time>2026-04-19T08:22:35.01Z</time></trkpt><trkpt lat="45.4679767" lon="8.7652933"><ele>142.0</ele><time>2026-04-19T08:22:36.01Z</time></trkpt><trkpt lat="45.467875" lon="8.76531"><ele>142.0</ele><time>2026-04-19T08:22:37.009Z</time></trkpt><trkpt lat="45.4677767" lon="8.7653283"><ele>141.2</ele><time>2026-04-19T08:22:38.009Z</time></trkpt><trkpt lat="45.4676767" lon="8.7653567"><ele>140.39999999999998</ele><time>2026-04-19T08:22:39.01Z</time></trkpt><trkpt lat="45.467565" lon="8.7653667"><ele>139.60000000000002</ele><time>2026-04-19T08:22:40.01Z</time></trkpt><trkpt lat="45.4674483" lon="8.765385"><ele>138.8</ele><time>2026-04-19T08:22:41.009Z</time></trkpt><trkpt lat="45.4673483" lon="8.7654183"><ele>138.0</ele><time>2026-04-19T08:22:42.009Z</time></trkpt><trkpt lat="45.4672633" lon="8.7655083"><ele>138.0</ele><time>2026-04-19T08:22:43.01Z</time></trkpt><trkpt lat="45.4671983" lon="8.765635"><ele>138.0</ele><time>2026-04-19T08:22:44.009Z</time></trkpt><trkpt lat="45.46716" lon="8.7657617"><ele>138.0</ele><time>2026-04-19T08:22:45.01Z</time></trkpt><trkpt lat="45.4671583" lon="8.7659217"><ele>138.0</ele><time>2026-04-19T08:22:46.01Z</time></trkpt><trkpt lat="45.4671767" lon="8.766085"><ele>138.0</ele><time>2026-04-19T08:22:47.01Z</time></trkpt><trkpt lat="45.4672117" lon="8.766255"><ele>137.0</ele><time>2026-04-19T08:22:48.01Z</time></trkpt><trkpt lat="45.4672483" lon="8.7664333"><ele>136.0</ele><time>2026-04-19T08:22:49.009Z</time></trkpt><trkpt lat="45.4672667" lon="8.7666033"><ele>135.0</ele><time>2026-04-19T08:22:50.009Z</time></trkpt><trkpt lat="45.4672883" lon="8.76679"><ele>134.0</ele><time>2026-04-19T08:22:51.009Z</time></trkpt><trkpt lat="45.46731" lon="8.7669667"><ele>134.0</ele><time>2026-04-19T08:22:52.009Z</time></trkpt><trkpt lat="45.4673217" lon="8.7671483"><ele>134.0</ele><time>2026-04-19T08:22:53.009Z</time></trkpt><trkpt lat="45.467335" lon="8.7673333"><ele>134.0</ele><time>2026-04-19T08:22:54.009Z</time></trkpt><trkpt lat="45.46734" lon="8.7675117"><ele>134.0</ele><time>2026-04-19T08:22:55.01Z</time></trkpt><trkpt lat="45.46732" lon="8.767695"><ele>134.25</ele><time>2026-04-19T08:22:56.01Z</time></trkpt><trkpt lat="45.4672767" lon="8.7678533"><ele>134.5</ele><time>2026-04-19T08:22:57.009Z</time></trkpt><trkpt lat="45.4672217" lon="8.768015"><ele>134.75</ele><time>2026-04-19T08:22:58.01Z</time></trkpt><trkpt lat="45.467155" lon="8.768205"><ele>135.0</ele><time>2026-04-19T08:22:59.01Z</time></trkpt><trkpt lat="45.4670733" lon="8.7684367"><ele>137.0</ele><time>2026-04-19T08:23:00.01Z</time></trkpt><trkpt lat="45.4669883" lon="8.7687"><ele>139.0</ele><time>2026-04-19T08:23:01.01Z</time></trkpt><trkpt lat="45.4669017" lon="8.7689567"><ele>141.0</ele><time>2026-04-19T08:23:02.01Z</time></trkpt><trkpt lat="45.4668217" lon="8.7691883"><ele>141.33333333333334</ele><time>2026-04-19T08:23:03.01Z</time></trkpt><trkpt lat="45.4667617" lon="8.769415"><ele>141.66666666666669</ele><time>2026-04-19T08:23:04.01Z</time></trkpt><trkpt lat="45.46671" lon="8.76961"><ele>142.0</ele><time>2026-04-19T08:23:05.009Z</time></trkpt><trkpt lat="45.4666533" lon="8.7697917"><ele>142.0</ele><time>2026-04-19T08:23:06.009Z</time></trkpt><trkpt lat="45.4666117" lon="8.7699583"><ele>142.0</ele><time>2026-04-19T08:23:07.009Z</time></trkpt><trkpt lat="45.4665733" lon="8.770105"><ele>142.0</ele><time>2026-04-19T08:23:08.01Z</time></trkpt><trkpt lat="45.4665317" lon="8.770215"><ele>142.0</ele><time>2026-04-19T08:23:09.01Z</time></trkpt><trkpt lat="45.466485" lon="8.7702933"><ele>142.0</ele><time>2026-04-19T08:23:10.009Z</time></trkpt><trkpt lat="45.4664217" lon="8.77036"><ele>142.0</ele><time>2026-04-19T08:23:11.009Z</time></trkpt><trkpt lat="45.4663283" lon="8.77041"><ele>142.0</ele><time>2026-04-19T08:23:12.009Z</time></trkpt><trkpt lat="45.4662067" lon="8.77044"><ele>142.0</ele><time>2026-04-19T08:23:13.01Z</time></trkpt><trkpt lat="45.466075" lon="8.7704833"><ele>142.0</ele><time>2026-04-19T08:23:14.009Z</time></trkpt><trkpt lat="45.4659417" lon="8.7705367"><ele>142.0</ele><time>2026-04-19T08:23:15.01Z</time></trkpt><trkpt lat="45.465825" lon="8.7705917"><ele>142.0</ele><time>2026-04-19T08:23:16.009Z</time></trkpt><trkpt lat="45.46573" lon="8.7706367"><ele>142.0</ele><time>2026-04-19T08:23:17.01Z</time></trkpt><trkpt lat="45.4656483" lon="8.7706733"><ele>142.0</ele><time>2026-04-19T08:23:18.01Z</time></trkpt><trkpt lat="45.465575" lon="8.7707033"><ele>142.0</ele><time>2026-04-19T08:23:19.009Z</time></trkpt><trkpt lat="45.46551" lon="8.7707217"><ele>141.79999999999998</ele><time>2026-04-19T08:23:20.009Z</time></trkpt><trkpt lat="45.46541" lon="8.7706533"><ele>141.6</ele><time>2026-04-19T08:23:22.01Z</time></trkpt><trkpt lat="45.465385" lon="8.7705583"><ele>141.39999999999998</ele><time>2026-04-19T08:23:23.01Z</time></trkpt><trkpt lat="45.4653517" lon="8.770445"><ele>141.2</ele><time>2026-04-19T08:23:24.01Z</time></trkpt><trkpt lat="45.4653317" lon="8.7702967"><ele>141.0</ele><time>2026-04-19T08:23:25.009Z</time></trkpt><trkpt lat="45.4652983" lon="8.770105"><ele>140.33333333333334</ele><time>2026-04-19T08:23:26.01Z</time></trkpt><trkpt lat="45.4652567" lon="8.7698967"><ele>139.66666666666669</ele><time>2026-04-19T08:23:27.01Z</time></trkpt><trkpt lat="45.4652017" lon="8.7696883"><ele>139.0</ele><time>2026-04-19T08:23:28.01Z</time></trkpt><trkpt lat="45.4651483" lon="8.7694567"><ele>138.66666666666669</ele><time>2026-04-19T08:23:29.01Z</time></trkpt><trkpt lat="45.4651017" lon="8.7692317"><ele>138.33333333333334</ele><time>2026-04-19T08:23:30.01Z</time></trkpt><trkpt lat="45.4650533" lon="8.7689933"><ele>138.0</ele><time>2026-04-19T08:23:31.009Z</time></trkpt><trkpt lat="45.4650033" lon="8.7687633"><ele>138.33333333333334</ele><time>2026-04-19T08:23:32.009Z</time></trkpt><trkpt lat="45.4649517" lon="8.768525"><ele>138.66666666666669</ele><time>2026-04-19T08:23:33.009Z</time></trkpt><trkpt lat="45.4648933" lon="8.768295"><ele>139.0</ele><time>2026-04-19T08:23:34.009Z</time></trkpt><trkpt lat="45.4648383" lon="8.7680617"><ele>139.0</ele><time>2026-04-19T08:23:35.009Z</time></trkpt><trkpt lat="45.46479" lon="8.76783"><ele>139.0</ele><time>2026-04-19T08:23:36.009Z</time></trkpt><trkpt lat="45.4647433" lon="8.7676"><ele>139.0</ele><time>2026-04-19T08:23:37.01Z</time></trkpt><trkpt lat="45.4646883" lon="8.7673683"><ele>138.66666666666669</ele><time>2026-04-19T08:23:38.009Z</time></trkpt><trkpt lat="45.4646333" lon="8.76714"><ele>138.33333333333334</ele><time>2026-04-19T08:23:39.01Z</time></trkpt><trkpt lat="45.4645867" lon="8.7669117"><ele>138.0</ele><time>2026-04-19T08:23:40.01Z</time></trkpt><trkpt lat="45.464535" lon="8.7666867"><ele>138.5</ele><time>2026-04-19T08:23:41.01Z</time></trkpt><trkpt lat="45.4644883" lon="8.7664917"><ele>139.0</ele><time>2026-04-19T08:23:42.01Z</time></trkpt><trkpt lat="45.4644467" lon="8.7663083"><ele>139.5</ele><time>2026-04-19T08:23:43.009Z</time></trkpt><trkpt lat="45.464405" lon="8.766145"><ele>140.0</ele><time>2026-04-19T08:23:44.009Z</time></trkpt><trkpt lat="45.4643717" lon="8.765995"><ele>140.0</ele><time>2026-04-19T08:23:45.01Z</time></trkpt><trkpt lat="45.4643467" lon="8.7658533"><ele>140.0</ele><time>2026-04-19T08:23:46.009Z</time></trkpt><trkpt lat="45.46432" lon="8.7657283"><ele>140.0</ele><time>2026-04-19T08:23:47.01Z</time></trkpt><trkpt lat="45.46429" lon="8.7656283"><ele>140.0</ele><time>2026-04-19T08:23:48.01Z</time></trkpt><trkpt lat="45.4642533" lon="8.765545"><ele>140.0</ele><time>2026-04-19T08:23:49.01Z</time></trkpt><trkpt lat="45.4641633" lon="8.7654483"><ele>140.0</ele><time>2026-04-19T08:23:51.01Z</time></trkpt><trkpt lat="45.4640967" lon="8.7654483"><ele>140.0</ele><time>2026-04-19T08:23:52.009Z</time></trkpt><trkpt lat="45.4640067" lon="8.7655017"><ele>140.0</ele><time>2026-04-19T08:23:53.01Z</time></trkpt><trkpt lat="45.4639083" lon="8.765565"><ele>140.0</ele><time>2026-04-19T08:23:54.01Z</time></trkpt><trkpt lat="45.4638083" lon="8.76561"><ele>140.0</ele><time>2026-04-19T08:23:55.01Z</time></trkpt><trkpt lat="45.463715" lon="8.7656417"><ele>140.16666666666666</ele><time>2026-04-19T08:23:56.01Z</time></trkpt><trkpt lat="45.46364" lon="8.7656767"><ele>140.33333333333331</ele><time>2026-04-19T08:23:57.01Z</time></trkpt><trkpt lat="45.4635683" lon="8.7657117"><ele>140.5</ele><time>2026-04-19T08:23:58.01Z</time></trkpt><trkpt lat="45.4634717" lon="8.7657433"><ele>140.66666666666666</ele><time>2026-04-19T08:24:00.01Z</time></trkpt><trkpt lat="45.4634133" lon="8.76569"><ele>140.83333333333334</ele><time>2026-04-19T08:24:02.009Z</time></trkpt><trkpt lat="45.4634117" lon="8.7655883"><ele>141.0</ele><time>2026-04-19T08:24:04.01Z</time></trkpt><trkpt lat="45.46344" lon="8.7654517"><ele>141.0</ele><time>2026-04-19T08:24:06.01Z</time></trkpt><trkpt lat="45.46343" lon="8.7653517"><ele>141.0</ele><time>2026-04-19T08:24:08.01Z</time></trkpt><trkpt lat="45.4633233" lon="8.76536"><ele>141.0</ele><time>2026-04-19T08:24:10.01Z</time></trkpt><trkpt lat="45.4632517" lon="8.7653967"><ele>141.0</ele><time>2026-04-19T08:24:11.01Z</time></trkpt><trkpt lat="45.463165" lon="8.765445"><ele>141.0</ele><time>2026-04-19T08:24:12.009Z</time></trkpt><trkpt lat="45.4630733" lon="8.7655"><ele>141.0</ele><time>2026-04-19T08:24:13.009Z</time></trkpt><trkpt lat="45.46297" lon="8.765545"><ele>140.25</ele><time>2026-04-19T08:24:14.009Z</time></trkpt><trkpt lat="45.4628567" lon="8.7655983"><ele>139.5</ele><time>2026-04-19T08:24:15.009Z</time></trkpt><trkpt lat="45.46273" lon="8.7656467"><ele>138.75</ele><time>2026-04-19T08:24:16.01Z</time></trkpt><trkpt lat="45.4626017" lon="8.7656983"><ele>138.0</ele><time>2026-04-19T08:24:17.01Z</time></trkpt><trkpt lat="45.462475" lon="8.765745"><ele>138.0</ele><time>2026-04-19T08:24:18.01Z</time></trkpt><trkpt lat="45.4623483" lon="8.765805"><ele>138.0</ele><time>2026-04-19T08:24:19.009Z</time></trkpt><trkpt lat="45.4622283" lon="8.7658533"><ele>138.0</ele><time>2026-04-19T08:24:20.01Z</time></trkpt><trkpt lat="45.4621167" lon="8.76591"><ele>138.0</ele><time>2026-04-19T08:24:21.009Z</time></trkpt><trkpt lat="45.4620133" lon="8.7659517"><ele>137.8</ele><time>2026-04-19T08:24:22.01Z</time></trkpt><trkpt lat="45.461915" lon="8.7659983"><ele>137.60000000000002</ele><time>2026-04-19T08:24:23.01Z</time></trkpt><trkpt lat="45.4618117" lon="8.7660333"><ele>137.39999999999998</ele><time>2026-04-19T08:24:24.009Z</time></trkpt><trkpt lat="45.4617183" lon="8.7660733"><ele>137.2</ele><time>2026-04-19T08:24:25.009Z</time></trkpt><trkpt lat="45.4616483" lon="8.7661083"><ele>137.0</ele><time>2026-04-19T08:24:26.01Z</time></trkpt><trkpt lat="45.4615483" lon="8.7661917"><ele>137.0</ele><time>2026-04-19T08:24:28.009Z</time></trkpt><trkpt lat="45.4615217" lon="8.7663833"><ele>137.0</ele><time>2026-04-19T08:24:30.01Z</time></trkpt><trkpt lat="45.4615267" lon="8.7665433"><ele>137.0</ele><time>2026-04-19T08:24:31.009Z</time></trkpt><trkpt lat="45.461525" lon="8.76673"><ele>137.0</ele><time>2026-04-19T08:24:32.01Z</time></trkpt><trkpt lat="45.46153" lon="8.7669333"><ele>137.0</ele><time>2026-04-19T08:24:33.01Z</time></trkpt><trkpt lat="45.46153" lon="8.7671433"><ele>137.0</ele><time>2026-04-19T08:24:34.01Z</time></trkpt><trkpt lat="45.4615333" lon="8.7673567"><ele>137.0</ele><time>2026-04-19T08:24:35.009Z</time></trkpt><trkpt lat="45.46153" lon="8.7675633"><ele>137.0</ele><time>2026-04-19T08:24:36.01Z</time></trkpt><trkpt lat="45.4615267" lon="8.7677633"><ele>137.0</ele><time>2026-04-19T08:24:37.009Z</time></trkpt><trkpt lat="45.46153" lon="8.7679567"><ele>137.0</ele><time>2026-04-19T08:24:38.01Z</time></trkpt><trkpt lat="45.4615283" lon="8.7681333"><ele>137.0</ele><time>2026-04-19T08:24:39.01Z</time></trkpt><trkpt lat="45.4615233" lon="8.76831"><ele>137.0</ele><time>2026-04-19T08:24:40.009Z</time></trkpt><trkpt lat="45.4615233" lon="8.7684867"><ele>137.25</ele><time>2026-04-19T08:24:41.009Z</time></trkpt><trkpt lat="45.4615183" lon="8.7686683"><ele>137.5</ele><time>2026-04-19T08:24:42.009Z</time></trkpt><trkpt lat="45.461515" lon="8.7688567"><ele>137.75</ele><time>2026-04-19T08:24:43.009Z</time></trkpt><trkpt lat="45.4615117" lon="8.7690567"><ele>138.0</ele><time>2026-04-19T08:24:44.01Z</time></trkpt><trkpt lat="45.4615083" lon="8.769265"><ele>137.75</ele><time>2026-04-19T08:24:45.01Z</time></trkpt><trkpt lat="45.4615233" lon="8.7694633"><ele>137.5</ele><time>2026-04-19T08:24:46.01Z</time></trkpt><trkpt lat="45.4615217" lon="8.769645"><ele>137.25</ele><time>2026-04-19T08:24:47.009Z</time></trkpt><trkpt lat="45.4615267" lon="8.76982"><ele>137.0</ele><time>2026-04-19T08:24:48.009Z</time></trkpt><trkpt lat="45.46153" lon="8.7699917"><ele>137.0</ele><time>2026-04-19T08:24:49.01Z</time></trkpt><trkpt lat="45.4615217" lon="8.7701633"><ele>137.0</ele><time>2026-04-19T08:24:50.01Z</time></trkpt><trkpt lat="45.4615167" lon="8.770345"><ele>137.0</ele><time>2026-04-19T08:24:51.009Z</time></trkpt><trkpt lat="45.4615167" lon="8.7705333"><ele>137.0</ele><time>2026-04-19T08:24:52.01Z</time></trkpt><trkpt lat="45.4615183" lon="8.7707233"><ele>137.0</ele><time>2026-04-19T08:24:53.01Z</time></trkpt><trkpt lat="45.4615183" lon="8.7709167"><ele>137.0</ele><time>2026-04-19T08:24:54.009Z</time></trkpt><trkpt lat="45.46151" lon="8.77111"><ele>137.0</ele><time>2026-04-19T08:24:55.01Z</time></trkpt><trkpt lat="45.4615167" lon="8.771305"><ele>137.0</ele><time>2026-04-19T08:24:56.01Z</time></trkpt><trkpt lat="45.461515" lon="8.7714933"><ele>136.75</ele><time>2026-04-19T08:24:57.01Z</time></trkpt><trkpt lat="45.4615283" lon="8.7716917"><ele>136.5</ele><time>2026-04-19T08:24:58.01Z</time></trkpt><trkpt lat="45.4615317" lon="8.77189"><ele>136.25</ele><time>2026-04-19T08:24:59.01Z</time></trkpt><trkpt lat="45.4615333" lon="8.7720783"><ele>136.0</ele><time>2026-04-19T08:25:00.01Z</time></trkpt><trkpt lat="45.4615333" lon="8.7722783"><ele>136.0</ele><time>2026-04-19T08:25:01.009Z</time></trkpt><trkpt lat="45.461535" lon="8.7724833"><ele>136.0</ele><time>2026-04-19T08:25:02.01Z</time></trkpt><trkpt lat="45.461525" lon="8.7726983"><ele>136.0</ele><time>2026-04-19T08:25:03.009Z</time></trkpt><trkpt lat="45.4615317" lon="8.7729017"><ele>136.0</ele><time>2026-04-19T08:25:04.01Z</time></trkpt><trkpt lat="45.4615283" lon="8.7730983"><ele>135.5</ele><time>2026-04-19T08:25:05.01Z</time></trkpt><trkpt lat="45.4615267" lon="8.7732933"><ele>135.0</ele><time>2026-04-19T08:25:06.009Z</time></trkpt><trkpt lat="45.4615233" lon="8.773485"><ele>134.5</ele><time>2026-04-19T08:25:07.01Z</time></trkpt><trkpt lat="45.461525" lon="8.7736633"><ele>134.0</ele><time>2026-04-19T08:25:08.01Z</time></trkpt><trkpt lat="45.46153" lon="8.7738283"><ele>134.8</ele><time>2026-04-19T08:25:09.01Z</time></trkpt><trkpt lat="45.4615283" lon="8.7739917"><ele>135.60000000000002</ele><time>2026-04-19T08:25:10.009Z</time></trkpt><trkpt lat="45.4615267" lon="8.7741283"><ele>136.4</ele><time>2026-04-19T08:25:11.01Z</time></trkpt><trkpt lat="45.4615333" lon="8.77425"><ele>137.20000000000002</ele><time>2026-04-19T08:25:12.009Z</time></trkpt><trkpt lat="45.4615367" lon="8.7743733"><ele>138.0</ele><time>2026-04-19T08:25:13.01Z</time></trkpt><trkpt lat="45.4615183" lon="8.7745"><ele>138.20000000000002</ele><time>2026-04-19T08:25:14.01Z</time></trkpt><trkpt lat="45.4614917" lon="8.77463"><ele>138.4</ele><time>2026-04-19T08:25:15.01Z</time></trkpt><trkpt lat="45.4614417" lon="8.7747383"><ele>138.60000000000002</ele><time>2026-04-19T08:25:16.01Z</time></trkpt><trkpt lat="45.46136" lon="8.7748183"><ele>138.8</ele><time>2026-04-19T08:25:17.01Z</time></trkpt><trkpt lat="45.4612633" lon="8.7748667"><ele>139.0</ele><time>2026-04-19T08:25:18.01Z</time></trkpt><trkpt lat="45.4611633" lon="8.7748817"><ele>138.5</ele><time>2026-04-19T08:25:19.009Z</time></trkpt><trkpt lat="45.4610533" lon="8.7749"><ele>138.0</ele><time>2026-04-19T08:25:20.01Z</time></trkpt><trkpt lat="45.460935" lon="8.7749433"><ele>137.5</ele><time>2026-04-19T08:25:21.01Z</time></trkpt><trkpt lat="45.46081" lon="8.77499"><ele>137.0</ele><time>2026-04-19T08:25:22.009Z</time></trkpt><trkpt lat="45.4606833" lon="8.7750417"><ele>137.0</ele><time>2026-04-19T08:25:23.01Z</time></trkpt><trkpt lat="45.4605533" lon="8.775085"><ele>137.0</ele><time>2026-04-19T08:25:24.009Z</time></trkpt><trkpt lat="45.46042" lon="8.7751533"><ele>137.0</ele><time>2026-04-19T08:25:25.01Z</time></trkpt><trkpt lat="45.46028" lon="8.775205"><ele>137.0</ele><time>2026-04-19T08:25:26.009Z</time></trkpt><trkpt lat="45.46013" lon="8.775255"><ele>137.0</ele><time>2026-04-19T08:25:27.01Z</time></trkpt><trkpt lat="45.4599917" lon="8.77531"><ele>137.0</ele><time>2026-04-19T08:25:28.01Z</time></trkpt><trkpt lat="45.459855" lon="8.7753583"><ele>137.0</ele><time>2026-04-19T08:25:29.01Z</time></trkpt><trkpt lat="45.4597183" lon="8.7754167"><ele>137.0</ele><time>2026-04-19T08:25:30.01Z</time></trkpt><trkpt lat="45.45958" lon="8.7754817"><ele>137.0</ele><time>2026-04-19T08:25:31.01Z</time></trkpt><trkpt lat="45.45944" lon="8.77554"><ele>137.0</ele><time>2026-04-19T08:25:32.01Z</time></trkpt><trkpt lat="45.4593017" lon="8.7755983"><ele>137.0</ele><time>2026-04-19T08:25:33.01Z</time></trkpt><trkpt lat="45.4591483" lon="8.7756483"><ele>137.0</ele><time>2026-04-19T08:25:34.01Z</time></trkpt><trkpt lat="45.458995" lon="8.7757083"><ele>137.0</ele><time>2026-04-19T08:25:35.01Z</time></trkpt><trkpt lat="45.4588533" lon="8.775775"><ele>137.0</ele><time>2026-04-19T08:25:36.01Z</time></trkpt><trkpt lat="45.458705" lon="8.77584"><ele>137.0</ele><time>2026-04-19T08:25:37.009Z</time></trkpt><trkpt lat="45.458555" lon="8.77589"><ele>136.33333333333331</ele><time>2026-04-19T08:25:38.01Z</time></trkpt><trkpt lat="45.4584017" lon="8.7759533"><ele>135.66666666666666</ele><time>2026-04-19T08:25:39.01Z</time></trkpt><trkpt lat="45.4582483" lon="8.776015"><ele>135.0</ele><time>2026-04-19T08:25:40.01Z</time></trkpt><trkpt lat="45.4580967" lon="8.7760783"><ele>134.66666666666666</ele><time>2026-04-19T08:25:41.009Z</time></trkpt><trkpt lat="45.4579467" lon="8.7761333"><ele>134.33333333333331</ele><time>2026-04-19T08:25:42.01Z</time></trkpt><trkpt lat="45.4577983" lon="8.7761867"><ele>134.0</ele><time>2026-04-19T08:25:43.01Z</time></trkpt><trkpt lat="45.45765" lon="8.776245"><ele>134.0</ele><time>2026-04-19T08:25:44.009Z</time></trkpt><trkpt lat="45.4574983" lon="8.7763"><ele>134.0</ele><time>2026-04-19T08:25:45.01Z</time></trkpt><trkpt lat="45.4573417" lon="8.7763683"><ele>134.0</ele><time>2026-04-19T08:25:46.009Z</time></trkpt><trkpt lat="45.457185" lon="8.77643"><ele>134.33333333333331</ele><time>2026-04-19T08:25:47.01Z</time></trkpt><trkpt lat="45.45703" lon="8.7764817"><ele>134.66666666666666</ele><time>2026-04-19T08:25:48.01Z</time></trkpt><trkpt lat="45.4568867" lon="8.7765367"><ele>135.0</ele><time>2026-04-19T08:25:49.009Z</time></trkpt><trkpt lat="45.4567367" lon="8.7765933"><ele>135.0</ele><time>2026-04-19T08:25:50.01Z</time></trkpt><trkpt lat="45.4565867" lon="8.7766517"><ele>135.0</ele><time>2026-04-19T08:25:51.01Z</time></trkpt><trkpt lat="45.4564483" lon="8.776705"><ele>135.0</ele><time>2026-04-19T08:25:52.009Z</time></trkpt><trkpt lat="45.45631" lon="8.77677"><ele>135.0</ele><time>2026-04-19T08:25:53.01Z</time></trkpt><trkpt lat="45.4561717" lon="8.776835"><ele>134.75</ele><time>2026-04-19T08:25:54.009Z</time></trkpt><trkpt lat="45.456035" lon="8.7768983"><ele>134.5</ele><time>2026-04-19T08:25:55.01Z</time></trkpt><trkpt lat="45.4558933" lon="8.7769433"><ele>134.25</ele><time>2026-04-19T08:25:56.01Z</time></trkpt><trkpt lat="45.4557517" lon="8.7769917"><ele>134.0</ele><time>2026-04-19T08:25:57.01Z</time></trkpt><trkpt lat="45.4556167" lon="8.777025"><ele>134.0</ele><time>2026-04-19T08:25:58.009Z</time></trkpt><trkpt lat="45.4554767" lon="8.7770717"><ele>134.0</ele><time>2026-04-19T08:25:59.01Z</time></trkpt><trkpt lat="45.45534" lon="8.7771367"><ele>134.0</ele><time>2026-04-19T08:26:00.009Z</time></trkpt><trkpt lat="45.4551917" lon="8.77719"><ele>134.0</ele><time>2026-04-19T08:26:01.009Z</time></trkpt><trkpt lat="45.4550567" lon="8.777255"><ele>134.25</ele><time>2026-04-19T08:26:02.01Z</time></trkpt><trkpt lat="45.4549233" lon="8.777325"><ele>134.5</ele><time>2026-04-19T08:26:03.009Z</time></trkpt><trkpt lat="45.4547783" lon="8.7773417"><ele>134.75</ele><time>2026-04-19T08:26:04.01Z</time></trkpt><trkpt lat="45.454635" lon="8.777385"><ele>135.0</ele><time>2026-04-19T08:26:05.009Z</time></trkpt><trkpt lat="45.454505" lon="8.777445"><ele>134.6</ele><time>2026-04-19T08:26:06.009Z</time></trkpt><trkpt lat="45.4544017" lon="8.7775133"><ele>134.2</ele><time>2026-04-19T08:26:07.009Z</time></trkpt><trkpt lat="45.4542967" lon="8.777565"><ele>133.8</ele><time>2026-04-19T08:26:08.01Z</time></trkpt><trkpt lat="45.4542" lon="8.7776183"><ele>133.4</ele><time>2026-04-19T08:26:09.01Z</time></trkpt><trkpt lat="45.4540983" lon="8.7776667"><ele>133.0</ele><time>2026-04-19T08:26:10.01Z</time></trkpt><trkpt lat="45.45401" lon="8.7777233"><ele>133.0</ele><time>2026-04-19T08:26:11.01Z</time></trkpt><trkpt lat="45.45394" lon="8.77782"><ele>133.0</ele><time>2026-04-19T08:26:12.009Z</time></trkpt><trkpt lat="45.4538883" lon="8.7779333"><ele>133.0</ele><time>2026-04-19T08:26:13.01Z</time></trkpt><trkpt lat="45.4538517" lon="8.7780583"><ele>133.0</ele><time>2026-04-19T08:26:14.01Z</time></trkpt><trkpt lat="45.4538183" lon="8.7781883"><ele>133.0</ele><time>2026-04-19T08:26:15.01Z</time></trkpt><trkpt lat="45.4537933" lon="8.7783217"><ele>132.8</ele><time>2026-04-19T08:26:16.009Z</time></trkpt><trkpt lat="45.45378" lon="8.7784583"><ele>132.60000000000002</ele><time>2026-04-19T08:26:17.009Z</time></trkpt><trkpt lat="45.453775" lon="8.7786"><ele>132.39999999999998</ele><time>2026-04-19T08:26:18.009Z</time></trkpt><trkpt lat="45.453765" lon="8.7787533"><ele>132.2</ele><time>2026-04-19T08:26:19.009Z</time></trkpt><trkpt lat="45.453755" lon="8.7789117"><ele>132.0</ele><time>2026-04-19T08:26:20.01Z</time></trkpt><trkpt lat="45.4537467" lon="8.779085"><ele>132.0</ele><time>2026-04-19T08:26:21.01Z</time></trkpt><trkpt lat="45.453735" lon="8.7792683"><ele>132.0</ele><time>2026-04-19T08:26:22.01Z</time></trkpt><trkpt lat="45.4537283" lon="8.779465"><ele>132.0</ele><time>2026-04-19T08:26:23.009Z</time></trkpt><trkpt lat="45.4537117" lon="8.779675"><ele>132.0</ele><time>2026-04-19T08:26:24.009Z</time></trkpt><trkpt lat="45.453695" lon="8.7798983"><ele>132.66666666666666</ele><time>2026-04-19T08:26:25.01Z</time></trkpt><trkpt lat="45.4536767" lon="8.7801183"><ele>133.33333333333331</ele><time>2026-04-19T08:26:26.01Z</time></trkpt><trkpt lat="45.4536633" lon="8.78033"><ele>134.0</ele><time>2026-04-19T08:26:27.009Z</time></trkpt><trkpt lat="45.4536533" lon="8.78054"><ele>134.0</ele><time>2026-04-19T08:26:28.009Z</time></trkpt><trkpt lat="45.4536483" lon="8.7807417"><ele>134.0</ele><time>2026-04-19T08:26:29.01Z</time></trkpt><trkpt lat="45.4536467" lon="8.7809467"><ele>134.0</ele><time>2026-04-19T08:26:30.009Z</time></trkpt><trkpt lat="45.4536567" lon="8.7811517"><ele>134.0</ele><time>2026-04-19T08:26:31.01Z</time></trkpt><trkpt lat="45.45366" lon="8.78133"><ele>133.8</ele><time>2026-04-19T08:26:32.009Z</time></trkpt><trkpt lat="45.453665" lon="8.7815033"><ele>133.60000000000002</ele><time>2026-04-19T08:26:33.009Z</time></trkpt><trkpt lat="45.4536667" lon="8.7816733"><ele>133.4</ele><time>2026-04-19T08:26:34.009Z</time></trkpt><trkpt lat="45.45367" lon="8.7818167"><ele>133.20000000000002</ele><time>2026-04-19T08:26:35.009Z</time></trkpt><trkpt lat="45.4536767" lon="8.7819583"><ele>133.0</ele><time>2026-04-19T08:26:36.009Z</time></trkpt><trkpt lat="45.4536867" lon="8.7821183"><ele>133.0</ele><time>2026-04-19T08:26:37.01Z</time></trkpt><trkpt lat="45.4536933" lon="8.7822933"><ele>133.0</ele><time>2026-04-19T08:26:38.01Z</time></trkpt><trkpt lat="45.4537167" lon="8.7824533"><ele>133.0</ele><time>2026-04-19T08:26:39.009Z</time></trkpt><trkpt lat="45.453715" lon="8.782635"><ele>133.0</ele><time>2026-04-19T08:26:40.009Z</time></trkpt><trkpt lat="45.453695" lon="8.7827967"><ele>133.0</ele><time>2026-04-19T08:26:41.01Z</time></trkpt><trkpt lat="45.45366" lon="8.7829333"><ele>133.0</ele><time>2026-04-19T08:26:42.01Z</time></trkpt><trkpt lat="45.4536133" lon="8.78308"><ele>133.0</ele><time>2026-04-19T08:26:43.01Z</time></trkpt><trkpt lat="45.4535533" lon="8.783215"><ele>133.0</ele><time>2026-04-19T08:26:44.01Z</time></trkpt><trkpt lat="45.4534967" lon="8.7833567"><ele>133.0</ele><time>2026-04-19T08:26:45.01Z</time></trkpt><trkpt lat="45.4534483" lon="8.7835017"><ele>133.16666666666669</ele><time>2026-04-19T08:26:46.009Z</time></trkpt><trkpt lat="45.453415" lon="8.78363"><ele>133.33333333333334</ele><time>2026-04-19T08:26:47.01Z</time></trkpt><trkpt lat="45.4533933" lon="8.7837333"><ele>133.5</ele><time>2026-04-19T08:26:48.01Z</time></trkpt><trkpt lat="45.4533567" lon="8.7838183"><ele>133.66666666666666</ele><time>2026-04-19T08:26:49.009Z</time></trkpt><trkpt lat="45.45327" lon="8.7838617"><ele>133.83333333333331</ele><time>2026-04-19T08:26:51.009Z</time></trkpt><trkpt lat="45.4531767" lon="8.7838767"><ele>134.0</ele><time>2026-04-19T08:26:53.009Z</time></trkpt><trkpt lat="45.4530617" lon="8.7839167"><ele>134.0</ele><time>2026-04-19T08:26:55.009Z</time></trkpt><trkpt lat="45.4530033" lon="8.7839533"><ele>134.0</ele><time>2026-04-19T08:26:56.009Z</time></trkpt><trkpt lat="45.4529367" lon="8.783995"><ele>134.0</ele><time>2026-04-19T08:26:57.008Z</time></trkpt><trkpt lat="45.45286" lon="8.784045"><ele>134.0</ele><time>2026-04-19T08:26:58.008Z</time></trkpt><trkpt lat="45.4527767" lon="8.7841067"><ele>134.0</ele><time>2026-04-19T08:26:59.009Z</time></trkpt><trkpt lat="45.4526867" lon="8.784165"><ele>134.0</ele><time>2026-04-19T08:27:00.009Z</time></trkpt><trkpt lat="45.4525967" lon="8.78422"><ele>133.6</ele><time>2026-04-19T08:27:01.009Z</time></trkpt><trkpt lat="45.4525117" lon="8.784275"><ele>133.2</ele><time>2026-04-19T08:27:02.008Z</time></trkpt><trkpt lat="45.4524267" lon="8.78433"><ele>132.79999999999998</ele><time>2026-04-19T08:27:03.009Z</time></trkpt><trkpt lat="45.4523483" lon="8.784385"><ele>132.4</ele><time>2026-04-19T08:27:04.009Z</time></trkpt><trkpt lat="45.4522617" lon="8.7844417"><ele>132.0</ele><time>2026-04-19T08:27:05.009Z</time></trkpt><trkpt lat="45.45218" lon="8.784495"><ele>132.0</ele><time>2026-04-19T08:27:06.008Z</time></trkpt><trkpt lat="45.452105" lon="8.7845367"><ele>132.0</ele><time>2026-04-19T08:27:07.009Z</time></trkpt><trkpt lat="45.4520367" lon="8.7845833"><ele>132.0</ele><time>2026-04-19T08:27:08.009Z</time></trkpt><trkpt lat="45.4519717" lon="8.7846283"><ele>132.0</ele><time>2026-04-19T08:27:09.009Z</time></trkpt><trkpt lat="45.451915" lon="8.7846717"><ele>132.0</ele><time>2026-04-19T08:27:10.009Z</time></trkpt><trkpt lat="45.4518517" lon="8.78471"><ele>132.0</ele><time>2026-04-19T08:27:11.009Z</time></trkpt><trkpt lat="45.4517933" lon="8.7847483"><ele>132.0</ele><time>2026-04-19T08:27:12.009Z</time></trkpt><trkpt lat="45.45173" lon="8.7847867"><ele>132.0</ele><time>2026-04-19T08:27:13.008Z</time></trkpt><trkpt lat="45.4516683" lon="8.7848267"><ele>132.0</ele><time>2026-04-19T08:27:14.009Z</time></trkpt><trkpt lat="45.4516083" lon="8.78487"><ele>132.0</ele><time>2026-04-19T08:27:15.009Z</time></trkpt><trkpt lat="45.4515467" lon="8.78492"><ele>132.0</ele><time>2026-04-19T08:27:16.009Z</time></trkpt><trkpt lat="45.451495" lon="8.7849867"><ele>132.0</ele><time>2026-04-19T08:27:17.009Z</time></trkpt><trkpt lat="45.45144" lon="8.785055"><ele>132.0</ele><time>2026-04-19T08:27:18.009Z</time></trkpt><trkpt lat="45.4513867" lon="8.7851267"><ele>132.0</ele><time>2026-04-19T08:27:19.008Z</time></trkpt><trkpt lat="45.4513367" lon="8.785195"><ele>131.85714285714286</ele><time>2026-04-19T08:27:20.008Z</time></trkpt><trkpt lat="45.4512817" lon="8.7852667"><ele>131.71428571428572</ele><time>2026-04-19T08:27:21.009Z</time></trkpt><trkpt lat="45.4512283" lon="8.7853383"><ele>131.57142857142858</ele><time>2026-04-19T08:27:22.009Z</time></trkpt><trkpt lat="45.4511733" lon="8.7854133"><ele>131.42857142857144</ele><time>2026-04-19T08:27:23.009Z</time></trkpt><trkpt lat="45.4511167" lon="8.7854883"><ele>131.2857142857143</ele><time>2026-04-19T08:27:24.009Z</time></trkpt><trkpt lat="45.451065" lon="8.7855617"><ele>131.14285714285714</ele><time>2026-04-19T08:27:25.009Z</time></trkpt><trkpt lat="45.4510133" lon="8.7856333"><ele>131.0</ele><time>2026-04-19T08:27:26.009Z</time></trkpt><trkpt lat="45.45096" lon="8.7857117"><ele>131.0</ele><time>2026-04-19T08:27:27.009Z</time></trkpt><trkpt lat="45.4509083" lon="8.7857883"><ele>131.0</ele><time>2026-04-19T08:27:28.008Z</time></trkpt><trkpt lat="45.450855" lon="8.78586"><ele>131.0</ele><time>2026-04-19T08:27:29.009Z</time></trkpt><trkpt lat="45.45079" lon="8.7859283"><ele>131.0</ele><time>2026-04-19T08:27:30.008Z</time></trkpt><trkpt lat="45.4507317" lon="8.786005"><ele>131.0</ele><time>2026-04-19T08:27:31.008Z</time></trkpt><trkpt lat="45.4506733" lon="8.78608"><ele>131.0</ele><time>2026-04-19T08:27:32.008Z</time></trkpt><trkpt lat="45.45061" lon="8.78616"><ele>131.0</ele><time>2026-04-19T08:27:33.009Z</time></trkpt><trkpt lat="45.4505533" lon="8.786235"><ele>131.0</ele><time>2026-04-19T08:27:34.008Z</time></trkpt><trkpt lat="45.4505017" lon="8.7863133"><ele>131.0</ele><time>2026-04-19T08:27:35.009Z</time></trkpt><trkpt lat="45.4504483" lon="8.78639"><ele>131.0</ele><time>2026-04-19T08:27:36.009Z</time></trkpt><trkpt lat="45.450385" lon="8.7864583"><ele>131.0</ele><time>2026-04-19T08:27:37.009Z</time></trkpt><trkpt lat="45.450325" lon="8.78654"><ele>131.0</ele><time>2026-04-19T08:27:38.009Z</time></trkpt><trkpt lat="45.45026" lon="8.7866267"><ele>131.33333333333331</ele><time>2026-04-19T08:27:39.009Z</time></trkpt><trkpt lat="45.45021" lon="8.7867067"><ele>131.66666666666666</ele><time>2026-04-19T08:27:40.009Z</time></trkpt><trkpt lat="45.450155" lon="8.7867883"><ele>132.0</ele><time>2026-04-19T08:27:41.009Z</time></trkpt><trkpt lat="45.450095" lon="8.7868717"><ele>132.33333333333334</ele><time>2026-04-19T08:27:42.008Z</time></trkpt><trkpt lat="45.4500283" lon="8.786955"><ele>132.66666666666669</ele><time>2026-04-19T08:27:43.008Z</time></trkpt><trkpt lat="45.4499633" lon="8.7870383"><ele>133.0</ele><time>2026-04-19T08:27:44.008Z</time></trkpt><trkpt lat="45.4499" lon="8.7871317"><ele>133.0</ele><time>2026-04-19T08:27:45.009Z</time></trkpt><trkpt lat="45.4498333" lon="8.787225"><ele>133.0</ele><time>2026-04-19T08:27:46.009Z</time></trkpt><trkpt lat="45.4497683" lon="8.78732"><ele>133.0</ele><time>2026-04-19T08:27:47.009Z</time></trkpt><trkpt lat="45.4497033" lon="8.7874017"><ele>133.0</ele><time>2026-04-19T08:27:48.008Z</time></trkpt><trkpt lat="45.449635" lon="8.787485"><ele>133.0</ele><time>2026-04-19T08:27:49.008Z</time></trkpt><trkpt lat="45.449575" lon="8.7875683"><ele>133.0</ele><time>2026-04-19T08:27:50.008Z</time></trkpt><trkpt lat="45.44951" lon="8.78766"><ele>132.8</ele><time>2026-04-19T08:27:51.009Z</time></trkpt><trkpt lat="45.4494467" lon="8.7877583"><ele>132.60000000000002</ele><time>2026-04-19T08:27:52.008Z</time></trkpt><trkpt lat="45.44937" lon="8.78786"><ele>132.39999999999998</ele><time>2026-04-19T08:27:53.009Z</time></trkpt><trkpt lat="45.4492833" lon="8.787965"><ele>132.2</ele><time>2026-04-19T08:27:54.008Z</time></trkpt><trkpt lat="45.4492033" lon="8.7880717"><ele>132.0</ele><time>2026-04-19T08:27:55.008Z</time></trkpt><trkpt lat="45.44911" lon="8.7881783"><ele>132.0</ele><time>2026-04-19T08:27:56.008Z</time></trkpt><trkpt lat="45.4490233" lon="8.7882867"><ele>132.0</ele><time>2026-04-19T08:27:57.008Z</time></trkpt><trkpt lat="45.4489467" lon="8.788405"><ele>132.0</ele><time>2026-04-19T08:27:58.008Z</time></trkpt><trkpt lat="45.448865" lon="8.7885183"><ele>132.0</ele><time>2026-04-19T08:27:59.009Z</time></trkpt><trkpt lat="45.4487817" lon="8.7886267"><ele>132.0</ele><time>2026-04-19T08:28:00.009Z</time></trkpt><trkpt lat="45.44871" lon="8.7887317"><ele>132.0</ele><time>2026-04-19T08:28:01.009Z</time></trkpt><trkpt lat="45.448635" lon="8.7888333"><ele>132.0</ele><time>2026-04-19T08:28:02.009Z</time></trkpt><trkpt lat="45.4485617" lon="8.788935"><ele>132.0</ele><time>2026-04-19T08:28:03.008Z</time></trkpt><trkpt lat="45.4484867" lon="8.7890233"><ele>132.0</ele><time>2026-04-19T08:28:04.008Z</time></trkpt><trkpt lat="45.4484167" lon="8.78911"><ele>132.0</ele><time>2026-04-19T08:28:05.009Z</time></trkpt><trkpt lat="45.4483367" lon="8.7891983"><ele>132.0</ele><time>2026-04-19T08:28:06.009Z</time></trkpt><trkpt lat="45.4482633" lon="8.7892933"><ele>132.0</ele><time>2026-04-19T08:28:07.009Z</time></trkpt><trkpt lat="45.4481917" lon="8.7893883"><ele>132.0</ele><time>2026-04-19T08:28:08.008Z</time></trkpt><trkpt lat="45.4481233" lon="8.7894867"><ele>132.0</ele><time>2026-04-19T08:28:09.009Z</time></trkpt><trkpt lat="45.4480583" lon="8.7895783"><ele>131.83333333333334</ele><time>2026-04-19T08:28:10.009Z</time></trkpt><trkpt lat="45.447995" lon="8.7896583"><ele>131.66666666666666</ele><time>2026-04-19T08:28:11.008Z</time></trkpt><trkpt lat="45.44793" lon="8.789745"><ele>131.5</ele><time>2026-04-19T08:28:12.009Z</time></trkpt><trkpt lat="45.4478583" lon="8.78982"><ele>131.33333333333331</ele><time>2026-04-19T08:28:13.009Z</time></trkpt><trkpt lat="45.447785" lon="8.789895"><ele>131.16666666666666</ele><time>2026-04-19T08:28:14.009Z</time></trkpt><trkpt lat="45.447705" lon="8.7899567"><ele>131.0</ele><time>2026-04-19T08:28:15.008Z</time></trkpt><trkpt lat="45.4476283" lon="8.7900183"><ele>131.5</ele><time>2026-04-19T08:28:16.009Z</time></trkpt><trkpt lat="45.447555" lon="8.7900583"><ele>132.0</ele><time>2026-04-19T08:28:17.009Z</time></trkpt><trkpt lat="45.447485" lon="8.7901083"><ele>132.5</ele><time>2026-04-19T08:28:18.009Z</time></trkpt><trkpt lat="45.4474117" lon="8.7901533"><ele>133.0</ele><time>2026-04-19T08:28:19.008Z</time></trkpt><trkpt lat="45.4473417" lon="8.7902017"><ele>133.5</ele><time>2026-04-19T08:28:20.009Z</time></trkpt><trkpt lat="45.4472667" lon="8.790245"><ele>134.0</ele><time>2026-04-19T08:28:21.008Z</time></trkpt><trkpt lat="45.44719" lon="8.790285"><ele>133.66666666666666</ele><time>2026-04-19T08:28:22.009Z</time></trkpt><trkpt lat="45.4471267" lon="8.7903133"><ele>133.33333333333331</ele><time>2026-04-19T08:28:23.009Z</time></trkpt><trkpt lat="45.44705" lon="8.79032"><ele>133.0</ele><time>2026-04-19T08:28:25.009Z</time></trkpt><trkpt lat="45.44698" lon="8.790235"><ele>132.66666666666666</ele><time>2026-04-19T08:28:29.008Z</time></trkpt><trkpt lat="45.4469217" lon="8.7900983"><ele>132.33333333333334</ele><time>2026-04-19T08:28:31.008Z</time></trkpt><trkpt lat="45.4469" lon="8.789995"><ele>132.0</ele><time>2026-04-19T08:28:32.008Z</time></trkpt><trkpt lat="45.4468783" lon="8.789895"><ele>132.0</ele><time>2026-04-19T08:28:33.008Z</time></trkpt><trkpt lat="45.4468067" lon="8.7897433"><ele>132.0</ele><time>2026-04-19T08:28:35.009Z</time></trkpt><trkpt lat="45.4467283" lon="8.7897133"><ele>132.0</ele><time>2026-04-19T08:28:36.008Z</time></trkpt><trkpt lat="45.4466433" lon="8.7897133"><ele>132.0</ele><time>2026-04-19T08:28:37.009Z</time></trkpt><trkpt lat="45.44655" lon="8.7896967"><ele>132.0</ele><time>2026-04-19T08:28:38.009Z</time></trkpt><trkpt lat="45.4464433" lon="8.78967"><ele>132.0</ele><time>2026-04-19T08:28:39.008Z</time></trkpt><trkpt lat="45.44634" lon="8.78963"><ele>132.0</ele><time>2026-04-19T08:28:40.009Z</time></trkpt><trkpt lat="45.4462333" lon="8.789575"><ele>132.0</ele><time>2026-04-19T08:28:41.009Z</time></trkpt><trkpt lat="45.4460983" lon="8.7895167"><ele>132.0</ele><time>2026-04-19T08:28:42.009Z</time></trkpt><trkpt lat="45.4459583" lon="8.789475"><ele>131.5</ele><time>2026-04-19T08:28:43.009Z</time></trkpt><trkpt lat="45.4458167" lon="8.7894217"><ele>131.0</ele><time>2026-04-19T08:28:44.009Z</time></trkpt><trkpt lat="45.4456833" lon="8.7893683"><ele>130.5</ele><time>2026-04-19T08:28:45.009Z</time></trkpt><trkpt lat="45.4455533" lon="8.789305"><ele>130.0</ele><time>2026-04-19T08:28:46.009Z</time></trkpt><trkpt lat="45.44542" lon="8.7892517"><ele>129.75</ele><time>2026-04-19T08:28:47.008Z</time></trkpt><trkpt lat="45.4452817" lon="8.7891817"><ele>129.5</ele><time>2026-04-19T08:28:48.008Z</time></trkpt><trkpt lat="45.4451483" lon="8.7891017"><ele>129.25</ele><time>2026-04-19T08:28:49.008Z</time></trkpt><trkpt lat="45.4450117" lon="8.7890367"><ele>129.0</ele><time>2026-04-19T08:28:50.009Z</time></trkpt><trkpt lat="45.44487" lon="8.788975"><ele>129.0</ele><time>2026-04-19T08:28:51.009Z</time></trkpt><trkpt lat="45.4447267" lon="8.78891"><ele>129.0</ele><time>2026-04-19T08:28:52.009Z</time></trkpt><trkpt lat="45.4445767" lon="8.78884"><ele>129.0</ele><time>2026-04-19T08:28:53.009Z</time></trkpt><trkpt lat="45.4444283" lon="8.788765"><ele>129.0</ele><time>2026-04-19T08:28:54.009Z</time></trkpt><trkpt lat="45.4442733" lon="8.7887133"><ele>129.0</ele><time>2026-04-19T08:28:55.009Z</time></trkpt><trkpt lat="45.4441133" lon="8.78864"><ele>129.0</ele><time>2026-04-19T08:28:56.009Z</time></trkpt><trkpt lat="45.44396" lon="8.7885767"><ele>129.33333333333334</ele><time>2026-04-19T08:28:57.008Z</time></trkpt><trkpt lat="45.443805" lon="8.7885083"><ele>129.66666666666669</ele><time>2026-04-19T08:28:58.008Z</time></trkpt><trkpt lat="45.4436467" lon="8.7884433"><ele>130.0</ele><time>2026-04-19T08:28:59.008Z</time></trkpt><trkpt lat="45.4434867" lon="8.7883767"><ele>130.0</ele><time>2026-04-19T08:29:00.009Z</time></trkpt><trkpt lat="45.4433233" lon="8.7883017"><ele>130.0</ele><time>2026-04-19T08:29:01.009Z</time></trkpt><trkpt lat="45.4431617" lon="8.7882317"><ele>130.0</ele><time>2026-04-19T08:29:02.009Z</time></trkpt><trkpt lat="45.442995" lon="8.7881583"><ele>130.66666666666669</ele><time>2026-04-19T08:29:03.009Z</time></trkpt><trkpt lat="45.442825" lon="8.7880767"><ele>131.33333333333334</ele><time>2026-04-19T08:29:04.009Z</time></trkpt><trkpt lat="45.4426483" lon="8.7880017"><ele>132.0</ele><time>2026-04-19T08:29:05.009Z</time></trkpt><trkpt lat="45.4424767" lon="8.7879267"><ele>132.0</ele><time>2026-04-19T08:29:06.009Z</time></trkpt><trkpt lat="45.44231" lon="8.7878667"><ele>132.0</ele><time>2026-04-19T08:29:07.008Z</time></trkpt><trkpt lat="45.4421533" lon="8.7877917"><ele>132.0</ele><time>2026-04-19T08:29:08.009Z</time></trkpt><trkpt lat="45.44199" lon="8.7877283"><ele>131.66666666666666</ele><time>2026-04-19T08:29:09.009Z</time></trkpt><trkpt lat="45.4418233" lon="8.787655"><ele>131.33333333333331</ele><time>2026-04-19T08:29:10.008Z</time></trkpt><trkpt lat="45.441655" lon="8.7875867"><ele>131.0</ele><time>2026-04-19T08:29:11.009Z</time></trkpt><trkpt lat="45.4414833" lon="8.7875083"><ele>131.0</ele><time>2026-04-19T08:29:12.008Z</time></trkpt><trkpt lat="45.4413117" lon="8.7874317"><ele>131.0</ele><time>2026-04-19T08:29:13.009Z</time></trkpt><trkpt lat="45.4411467" lon="8.78736"><ele>131.0</ele><time>2026-04-19T08:29:14.009Z</time></trkpt><trkpt lat="45.4409817" lon="8.787295"><ele>130.66666666666666</ele><time>2026-04-19T08:29:15.009Z</time></trkpt><trkpt lat="45.440815" lon="8.7872233"><ele>130.33333333333334</ele><time>2026-04-19T08:29:16.009Z</time></trkpt><trkpt lat="45.4406517" lon="8.7871583"><ele>130.0</ele><time>2026-04-19T08:29:17.009Z</time></trkpt><trkpt lat="45.4404983" lon="8.7870967"><ele>129.66666666666669</ele><time>2026-04-19T08:29:18.009Z</time></trkpt><trkpt lat="45.440345" lon="8.7870283"><ele>129.33333333333334</ele><time>2026-04-19T08:29:19.009Z</time></trkpt><trkpt lat="45.4401817" lon="8.7869567"><ele>129.0</ele><time>2026-04-19T08:29:20.009Z</time></trkpt><trkpt lat="45.4400233" lon="8.7868967"><ele>129.0</ele><time>2026-04-19T08:29:21.008Z</time></trkpt><trkpt lat="45.4398683" lon="8.7868333"><ele>129.0</ele><time>2026-04-19T08:29:22.008Z</time></trkpt><trkpt lat="45.4397267" lon="8.7867667"><ele>129.0</ele><time>2026-04-19T08:29:23.009Z</time></trkpt><trkpt lat="45.4395867" lon="8.7866917"><ele>129.33333333333334</ele><time>2026-04-19T08:29:24.008Z</time></trkpt><trkpt lat="45.4394533" lon="8.786625"><ele>129.66666666666669</ele><time>2026-04-19T08:29:25.009Z</time></trkpt><trkpt lat="45.4393033" lon="8.786565"><ele>130.0</ele><time>2026-04-19T08:29:26.009Z</time></trkpt><trkpt lat="45.4391467" lon="8.7865017"><ele>130.0</ele><time>2026-04-19T08:29:27.009Z</time></trkpt><trkpt lat="45.4390033" lon="8.78643"><ele>130.0</ele><time>2026-04-19T08:29:28.009Z</time></trkpt><trkpt lat="45.4388533" lon="8.7863583"><ele>130.0</ele><time>2026-04-19T08:29:29.008Z</time></trkpt><trkpt lat="45.4386933" lon="8.7862733"><ele>131.0</ele><time>2026-04-19T08:29:30.009Z</time></trkpt><trkpt lat="45.4385367" lon="8.7861983"><ele>132.0</ele><time>2026-04-19T08:29:31.008Z</time></trkpt><trkpt lat="45.43837" lon="8.786135"><ele>133.0</ele><time>2026-04-19T08:29:32.009Z</time></trkpt><trkpt lat="45.438205" lon="8.786055"><ele>133.0</ele><time>2026-04-19T08:29:33.009Z</time></trkpt><trkpt lat="45.4380417" lon="8.7859967"><ele>133.0</ele><time>2026-04-19T08:29:34.008Z</time></trkpt><trkpt lat="45.437875" lon="8.7859217"><ele>133.0</ele><time>2026-04-19T08:29:35.009Z</time></trkpt><trkpt lat="45.4377133" lon="8.7858533"><ele>133.0</ele><time>2026-04-19T08:29:36.009Z</time></trkpt><trkpt lat="45.4375417" lon="8.785775"><ele>133.0</ele><time>2026-04-19T08:29:37.008Z</time></trkpt><trkpt lat="45.4373867" lon="8.7856917"><ele>133.0</ele><time>2026-04-19T08:29:38.009Z</time></trkpt><trkpt lat="45.4372467" lon="8.7856233"><ele>133.0</ele><time>2026-04-19T08:29:39.008Z</time></trkpt><trkpt lat="45.4371383" lon="8.7855683"><ele>133.0</ele><time>2026-04-19T08:29:40.009Z</time></trkpt><trkpt lat="45.4370467" lon="8.785535"><ele>133.0</ele><time>2026-04-19T08:29:41.008Z</time></trkpt><trkpt lat="45.4369783" lon="8.7855133"><ele>133.0</ele><time>2026-04-19T08:29:42.009Z</time></trkpt><trkpt lat="45.43689" lon="8.7854883"><ele>133.0</ele><time>2026-04-19T08:29:44.008Z</time></trkpt><trkpt lat="45.4368233" lon="8.7854517"><ele>133.0</ele><time>2026-04-19T08:30:18.008Z</time></trkpt><trkpt lat="45.4367033" lon="8.785375"><ele>132.75</ele><time>2026-04-19T08:30:20.009Z</time></trkpt><trkpt lat="45.4366033" lon="8.7853317"><ele>132.5</ele><time>2026-04-19T08:30:21.009Z</time></trkpt><trkpt lat="45.4364967" lon="8.7852867"><ele>132.25</ele><time>2026-04-19T08:30:22.009Z</time></trkpt><trkpt lat="45.4363917" lon="8.7852317"><ele>132.0</ele><time>2026-04-19T08:30:23.008Z</time></trkpt><trkpt lat="45.436265" lon="8.78518"><ele>133.0</ele><time>2026-04-19T08:30:24.009Z</time></trkpt><trkpt lat="45.4361367" lon="8.78513"><ele>134.0</ele><time>2026-04-19T08:30:25.009Z</time></trkpt><trkpt lat="45.435985" lon="8.7850717"><ele>135.0</ele><time>2026-04-19T08:30:26.009Z</time></trkpt><trkpt lat="45.4358367" lon="8.7850083"><ele>136.0</ele><time>2026-04-19T08:30:27.009Z</time></trkpt><trkpt lat="45.4356717" lon="8.7849433"><ele>136.0</ele><time>2026-04-19T08:30:28.009Z</time></trkpt><trkpt lat="45.43551" lon="8.7848567"><ele>136.0</ele><time>2026-04-19T08:30:29.009Z</time></trkpt><trkpt lat="45.43534" lon="8.7847833"><ele>136.0</ele><time>2026-04-19T08:30:30.008Z</time></trkpt><trkpt lat="45.4351633" lon="8.784715"><ele>134.0</ele><time>2026-04-19T08:30:31.008Z</time></trkpt><trkpt lat="45.434995" lon="8.78464"><ele>132.0</ele><time>2026-04-19T08:30:32.008Z</time></trkpt><trkpt lat="45.4348233" lon="8.784565"><ele>130.0</ele><time>2026-04-19T08:30:33.009Z</time></trkpt><trkpt lat="45.4346467" lon="8.7844883"><ele>129.66666666666669</ele><time>2026-04-19T08:30:34.008Z</time></trkpt><trkpt lat="45.4344767" lon="8.784415"><ele>129.33333333333334</ele><time>2026-04-19T08:30:35.009Z</time></trkpt><trkpt lat="45.4343033" lon="8.7843433"><ele>129.0</ele><time>2026-04-19T08:30:36.008Z</time></trkpt><trkpt lat="45.4341283" lon="8.7842633"><ele>128.66666666666666</ele><time>2026-04-19T08:30:37.009Z</time></trkpt><trkpt lat="45.43396" lon="8.7841817"><ele>128.33333333333331</ele><time>2026-04-19T08:30:38.009Z</time></trkpt><trkpt lat="45.43378" lon="8.784105"><ele>128.0</ele><time>2026-04-19T08:30:39.009Z</time></trkpt><trkpt lat="45.4335983" lon="8.7840233"><ele>128.0</ele><time>2026-04-19T08:30:40.009Z</time></trkpt><trkpt lat="45.4334183" lon="8.7839467"><ele>128.0</ele><time>2026-04-19T08:30:41.008Z</time></trkpt><trkpt lat="45.433235" lon="8.7838667"><ele>128.0</ele><time>2026-04-19T08:30:42.009Z</time></trkpt><trkpt lat="45.4330617" lon="8.78379"><ele>128.33333333333331</ele><time>2026-04-19T08:30:43.008Z</time></trkpt><trkpt lat="45.43289" lon="8.783715"><ele>128.66666666666666</ele><time>2026-04-19T08:30:44.009Z</time></trkpt><trkpt lat="45.4327167" lon="8.7836367"><ele>129.0</ele><time>2026-04-19T08:30:45.009Z</time></trkpt><trkpt lat="45.4325367" lon="8.7835517"><ele>129.0</ele><time>2026-04-19T08:30:46.008Z</time></trkpt><trkpt lat="45.43236" lon="8.7834683"><ele>129.0</ele><time>2026-04-19T08:30:47.009Z</time></trkpt><trkpt lat="45.4321967" lon="8.7833817"><ele>129.0</ele><time>2026-04-19T08:30:48.008Z</time></trkpt><trkpt lat="45.432025" lon="8.7833133"><ele>129.0</ele><time>2026-04-19T08:30:49.009Z</time></trkpt><trkpt lat="45.4318533" lon="8.78324"><ele>129.0</ele><time>2026-04-19T08:30:50.008Z</time></trkpt><trkpt lat="45.43167" lon="8.7831667"><ele>129.0</ele><time>2026-04-19T08:30:51.009Z</time></trkpt><trkpt lat="45.4314817" lon="8.7830933"><ele>130.0</ele><time>2026-04-19T08:30:52.009Z</time></trkpt><trkpt lat="45.4313033" lon="8.7830133"><ele>131.0</ele><time>2026-04-19T08:30:53.009Z</time></trkpt><trkpt lat="45.431125" lon="8.782935"><ele>132.0</ele><time>2026-04-19T08:30:54.008Z</time></trkpt><trkpt lat="45.4309517" lon="8.78285"><ele>132.0</ele><time>2026-04-19T08:30:55.009Z</time></trkpt><trkpt lat="45.430775" lon="8.78277"><ele>132.0</ele><time>2026-04-19T08:30:56.009Z</time></trkpt><trkpt lat="45.4305917" lon="8.7826983"><ele>132.0</ele><time>2026-04-19T08:30:57.008Z</time></trkpt><trkpt lat="45.4304117" lon="8.7826183"><ele>132.0</ele><time>2026-04-19T08:30:58.008Z</time></trkpt><trkpt lat="45.430225" lon="8.7825417"><ele>132.0</ele><time>2026-04-19T08:30:59.008Z</time></trkpt><trkpt lat="45.4300433" lon="8.78246"><ele>132.0</ele><time>2026-04-19T08:31:00.008Z</time></trkpt><trkpt lat="45.4298583" lon="8.7823883"><ele>132.0</ele><time>2026-04-19T08:31:01.008Z</time></trkpt><trkpt lat="45.429665" lon="8.7823117"><ele>132.0</ele><time>2026-04-19T08:31:02.009Z</time></trkpt><trkpt lat="45.429485" lon="8.7822367"><ele>132.0</ele><time>2026-04-19T08:31:03.009Z</time></trkpt><trkpt lat="45.4293033" lon="8.782155"><ele>131.0</ele><time>2026-04-19T08:31:04.009Z</time></trkpt><trkpt lat="45.4291233" lon="8.7820667"><ele>130.0</ele><time>2026-04-19T08:31:05.009Z</time></trkpt><trkpt lat="45.4289367" lon="8.7819867"><ele>129.0</ele><time>2026-04-19T08:31:06.008Z</time></trkpt><trkpt lat="45.4287533" lon="8.7819117"><ele>128.33333333333334</ele><time>2026-04-19T08:31:07.009Z</time></trkpt><trkpt lat="45.4285717" lon="8.7818383"><ele>127.66666666666667</ele><time>2026-04-19T08:31:08.009Z</time></trkpt><trkpt lat="45.42838" lon="8.7817667"><ele>127.0</ele><time>2026-04-19T08:31:09.008Z</time></trkpt><trkpt lat="45.428195" lon="8.781695"><ele>127.0</ele><time>2026-04-19T08:31:10.008Z</time></trkpt><trkpt lat="45.4280233" lon="8.7816117"><ele>127.0</ele><time>2026-04-19T08:31:11.009Z</time></trkpt><trkpt lat="45.4278483" lon="8.781525"><ele>127.0</ele><time>2026-04-19T08:31:12.009Z</time></trkpt><trkpt lat="45.4276783" lon="8.7814533"><ele>127.0</ele><time>2026-04-19T08:31:13.009Z</time></trkpt><trkpt lat="45.4275083" lon="8.7813817"><ele>127.0</ele><time>2026-04-19T08:31:14.009Z</time></trkpt><trkpt lat="45.427335" lon="8.7813117"><ele>127.0</ele><time>2026-04-19T08:31:15.009Z</time></trkpt><trkpt lat="45.4271567" lon="8.781235"><ele>127.0</ele><time>2026-04-19T08:31:16.008Z</time></trkpt><trkpt lat="45.4269767" lon="8.7811567"><ele>127.0</ele><time>2026-04-19T08:31:17.008Z</time></trkpt><trkpt lat="45.4268067" lon="8.7810833"><ele>127.0</ele><time>2026-04-19T08:31:18.009Z</time></trkpt><trkpt lat="45.426645" lon="8.7810167"><ele>126.66666666666667</ele><time>2026-04-19T08:31:19.008Z</time></trkpt><trkpt lat="45.42648" lon="8.7809617"><ele>126.33333333333334</ele><time>2026-04-19T08:31:20.008Z</time></trkpt><trkpt lat="45.4263117" lon="8.7809017"><ele>126.0</ele><time>2026-04-19T08:31:21.009Z</time></trkpt><trkpt lat="45.4261517" lon="8.7808283"><ele>125.66666666666666</ele><time>2026-04-19T08:31:22.008Z</time></trkpt><trkpt lat="45.4259983" lon="8.7807617"><ele>125.33333333333333</ele><time>2026-04-19T08:31:23.009Z</time></trkpt><trkpt lat="45.42584" lon="8.7806783"><ele>125.0</ele><time>2026-04-19T08:31:24.009Z</time></trkpt><trkpt lat="45.4256883" lon="8.7806017"><ele>125.0</ele><time>2026-04-19T08:31:25.007Z</time></trkpt><trkpt lat="45.42554" lon="8.7805483"><ele>125.0</ele><time>2026-04-19T08:31:26.007Z</time></trkpt><trkpt lat="45.4253983" lon="8.7805033"><ele>125.0</ele><time>2026-04-19T08:31:27.008Z</time></trkpt><trkpt lat="45.425265" lon="8.7804517"><ele>125.0</ele><time>2026-04-19T08:31:28.008Z</time></trkpt><trkpt lat="45.4251617" lon="8.7804083"><ele>125.0</ele><time>2026-04-19T08:31:29.008Z</time></trkpt><trkpt lat="45.425065" lon="8.7803633"><ele>125.0</ele><time>2026-04-19T08:31:30.008Z</time></trkpt><trkpt lat="45.42498" lon="8.7803233"><ele>125.0</ele><time>2026-04-19T08:31:31.008Z</time></trkpt><trkpt lat="45.424895" lon="8.78028"><ele>125.0</ele><time>2026-04-19T08:31:32.008Z</time></trkpt><trkpt lat="45.4248" lon="8.7802483"><ele>125.0</ele><time>2026-04-19T08:31:33.007Z</time></trkpt><trkpt lat="45.4247083" lon="8.780215"><ele>124.99999999999999</ele><time>2026-04-19T08:31:34.008Z</time></trkpt><trkpt lat="45.424625" lon="8.7801917"><ele>125.0</ele><time>2026-04-19T08:31:35.008Z</time></trkpt><trkpt lat="45.4245583" lon="8.78016"><ele>125.0</ele><time>2026-04-19T08:31:36.008Z</time></trkpt><trkpt lat="45.4244617" lon="8.780125"><ele>125.0</ele><time>2026-04-19T08:31:38.008Z</time></trkpt><trkpt lat="45.42439" lon="8.7800917"><ele>124.99999999999999</ele><time>2026-04-19T08:31:40.008Z</time></trkpt><trkpt lat="45.4243083" lon="8.78016"><ele>125.0</ele><time>2026-04-19T08:31:42.007Z</time></trkpt><trkpt lat="45.4242683" lon="8.7802417"><ele>125.0</ele><time>2026-04-19T08:31:43.008Z</time></trkpt><trkpt lat="45.424235" lon="8.7803467"><ele>125.0</ele><time>2026-04-19T08:31:44.008Z</time></trkpt><trkpt lat="45.4241883" lon="8.78043"><ele>125.0</ele><time>2026-04-19T08:31:45.008Z</time></trkpt><trkpt lat="45.4240983" lon="8.78046"><ele>125.0</ele><time>2026-04-19T08:31:46.008Z</time></trkpt><trkpt lat="45.4239817" lon="8.780455"><ele>125.0</ele><time>2026-04-19T08:31:47.007Z</time></trkpt><trkpt lat="45.42385" lon="8.780435"><ele>125.0</ele><time>2026-04-19T08:31:48.008Z</time></trkpt><trkpt lat="45.4237167" lon="8.780425"><ele>125.0</ele><time>2026-04-19T08:31:49.008Z</time></trkpt><trkpt lat="45.4236083" lon="8.780445"><ele>125.0</ele><time>2026-04-19T08:31:50.007Z</time></trkpt><trkpt lat="45.4235083" lon="8.7804817"><ele>125.0</ele><time>2026-04-19T08:31:51.008Z</time></trkpt><trkpt lat="45.423425" lon="8.78055"><ele>125.0</ele><time>2026-04-19T08:31:52.008Z</time></trkpt><trkpt lat="45.4233667" lon="8.7806467"><ele>125.0</ele><time>2026-04-19T08:31:53.008Z</time></trkpt><trkpt lat="45.4233183" lon="8.7807867"><ele>125.0</ele><time>2026-04-19T08:31:54.007Z</time></trkpt><trkpt lat="45.4232867" lon="8.7809433"><ele>125.0</ele><time>2026-04-19T08:31:55.008Z</time></trkpt><trkpt lat="45.4232517" lon="8.7811083"><ele>125.0</ele><time>2026-04-19T08:31:56.008Z</time></trkpt><trkpt lat="45.4232267" lon="8.78128"><ele>125.0</ele><time>2026-04-19T08:31:57.007Z</time></trkpt><trkpt lat="45.4231917" lon="8.7814567"><ele>125.0</ele><time>2026-04-19T08:31:58.007Z</time></trkpt><trkpt lat="45.423165" lon="8.781635"><ele>125.0</ele><time>2026-04-19T08:31:59.008Z</time></trkpt><trkpt lat="45.4231383" lon="8.7818383"><ele>125.0</ele><time>2026-04-19T08:32:00.007Z</time></trkpt><trkpt lat="45.4230967" lon="8.7820267"><ele>125.0</ele><time>2026-04-19T08:32:01.008Z</time></trkpt><trkpt lat="45.4230467" lon="8.78222"><ele>125.0</ele><time>2026-04-19T08:32:02.008Z</time></trkpt><trkpt lat="45.4229833" lon="8.7823983"><ele>125.0</ele><time>2026-04-19T08:32:03.007Z</time></trkpt><trkpt lat="45.4229083" lon="8.7825767"><ele>125.0</ele><time>2026-04-19T08:32:04.008Z</time></trkpt><trkpt lat="45.4228317" lon="8.7827567"><ele>124.66666666666666</ele><time>2026-04-19T08:32:05.008Z</time></trkpt><trkpt lat="45.4227583" lon="8.782955"><ele>124.33333333333334</ele><time>2026-04-19T08:32:06.008Z</time></trkpt><trkpt lat="45.42269" lon="8.7831517"><ele>124.0</ele><time>2026-04-19T08:32:07.008Z</time></trkpt><trkpt lat="45.4226167" lon="8.78334"><ele>124.33333333333334</ele><time>2026-04-19T08:32:08.008Z</time></trkpt><trkpt lat="45.4225283" lon="8.783535"><ele>124.66666666666666</ele><time>2026-04-19T08:32:09.008Z</time></trkpt><trkpt lat="45.4224417" lon="8.7837283"><ele>125.0</ele><time>2026-04-19T08:32:10.008Z</time></trkpt><trkpt lat="45.4223533" lon="8.78393"><ele>125.0</ele><time>2026-04-19T08:32:11.008Z</time></trkpt><trkpt lat="45.4222583" lon="8.7841233"><ele>125.0</ele><time>2026-04-19T08:32:12.007Z</time></trkpt><trkpt lat="45.4221483" lon="8.7843217"><ele>125.0</ele><time>2026-04-19T08:32:13.008Z</time></trkpt><trkpt lat="45.42204" lon="8.7845"><ele>125.0</ele><time>2026-04-19T08:32:14.007Z</time></trkpt><trkpt lat="45.4219383" lon="8.7846683"><ele>125.0</ele><time>2026-04-19T08:32:15.008Z</time></trkpt><trkpt lat="45.42184" lon="8.7848333"><ele>125.0</ele><time>2026-04-19T08:32:16.008Z</time></trkpt><trkpt lat="45.4217367" lon="8.785"><ele>125.0</ele><time>2026-04-19T08:32:17.007Z</time></trkpt><trkpt lat="45.4216283" lon="8.78516"><ele>125.0</ele><time>2026-04-19T08:32:18.008Z</time></trkpt><trkpt lat="45.4215233" lon="8.7853133"><ele>125.0</ele><time>2026-04-19T08:32:19.007Z</time></trkpt><trkpt lat="45.4214117" lon="8.7854683"><ele>124.66666666666666</ele><time>2026-04-19T08:32:20.008Z</time></trkpt><trkpt lat="45.4212867" lon="8.7856117"><ele>124.33333333333334</ele><time>2026-04-19T08:32:21.008Z</time></trkpt><trkpt lat="45.4211733" lon="8.78577"><ele>124.0</ele><time>2026-04-19T08:32:22.007Z</time></trkpt><trkpt lat="45.42105" lon="8.78592"><ele>124.0</ele><time>2026-04-19T08:32:23.007Z</time></trkpt><trkpt lat="45.420915" lon="8.7860667"><ele>124.0</ele><time>2026-04-19T08:32:24.007Z</time></trkpt><trkpt lat="45.4207783" lon="8.786205"><ele>124.0</ele><time>2026-04-19T08:32:25.008Z</time></trkpt><trkpt lat="45.42063" lon="8.78634"><ele>124.0</ele><time>2026-04-19T08:32:26.008Z</time></trkpt><trkpt lat="45.4204883" lon="8.7864683"><ele>124.0</ele><time>2026-04-19T08:32:27.007Z</time></trkpt><trkpt lat="45.4203617" lon="8.7865783"><ele>124.0</ele><time>2026-04-19T08:32:28.007Z</time></trkpt><trkpt lat="45.4202417" lon="8.786685"><ele>123.5</ele><time>2026-04-19T08:32:29.008Z</time></trkpt><trkpt lat="45.42013" lon="8.7867967"><ele>123.0</ele><time>2026-04-19T08:32:30.008Z</time></trkpt><trkpt lat="45.4200233" lon="8.7869017"><ele>122.5</ele><time>2026-04-19T08:32:31.008Z</time></trkpt><trkpt lat="45.4199167" lon="8.787005"><ele>122.0</ele><time>2026-04-19T08:32:32.007Z</time></trkpt><trkpt lat="45.4198033" lon="8.7871017"><ele>122.0</ele><time>2026-04-19T08:32:33.008Z</time></trkpt><trkpt lat="45.4196983" lon="8.7871933"><ele>122.0</ele><time>2026-04-19T08:32:34.008Z</time></trkpt><trkpt lat="45.41959" lon="8.7872817"><ele>122.0</ele><time>2026-04-19T08:32:35.007Z</time></trkpt><trkpt lat="45.419495" lon="8.7873717"><ele>122.0</ele><time>2026-04-19T08:32:36.007Z</time></trkpt><trkpt lat="45.4194033" lon="8.78746"><ele>122.0</ele><time>2026-04-19T08:32:37.008Z</time></trkpt><trkpt lat="45.4193183" lon="8.7875417"><ele>121.99999999999999</ele><time>2026-04-19T08:32:38.007Z</time></trkpt><trkpt lat="45.4192333" lon="8.78762"><ele>121.99999999999999</ele><time>2026-04-19T08:32:39.008Z</time></trkpt><trkpt lat="45.41915" lon="8.787695"><ele>122.0</ele><time>2026-04-19T08:32:40.008Z</time></trkpt><trkpt lat="45.4190783" lon="8.7877567"><ele>122.0</ele><time>2026-04-19T08:32:41.007Z</time></trkpt><trkpt lat="45.4190117" lon="8.787815"><ele>122.0</ele><time>2026-04-19T08:32:42.007Z</time></trkpt><trkpt lat="45.418955" lon="8.78787"><ele>121.99999999999999</ele><time>2026-04-19T08:32:43.008Z</time></trkpt><trkpt lat="45.41891" lon="8.7879333"><ele>121.99999999999999</ele><time>2026-04-19T08:32:44.007Z</time></trkpt><trkpt lat="45.41888" lon="8.788075"><ele>122.0</ele><time>2026-04-19T08:32:46.008Z</time></trkpt><trkpt lat="45.418945" lon="8.788255"><ele>122.0</ele><time>2026-04-19T08:32:48.008Z</time></trkpt><trkpt lat="45.419005" lon="8.7883933"><ele>122.5</ele><time>2026-04-19T08:32:49.008Z</time></trkpt><trkpt lat="45.419075" lon="8.7885483"><ele>123.0</ele><time>2026-04-19T08:32:50.007Z</time></trkpt><trkpt lat="45.41914" lon="8.788715"><ele>123.5</ele><time>2026-04-19T08:32:51.007Z</time></trkpt><trkpt lat="45.41921" lon="8.7888867"><ele>124.0</ele><time>2026-04-19T08:32:52.007Z</time></trkpt><trkpt lat="45.4192817" lon="8.7890767"><ele>124.0</ele><time>2026-04-19T08:32:53.008Z</time></trkpt><trkpt lat="45.4193517" lon="8.7892817"><ele>124.0</ele><time>2026-04-19T08:32:54.008Z</time></trkpt><trkpt lat="45.4194183" lon="8.7894883"><ele>124.0</ele><time>2026-04-19T08:32:55.007Z</time></trkpt><trkpt lat="45.4194817" lon="8.7896933"><ele>123.66666666666667</ele><time>2026-04-19T08:32:56.007Z</time></trkpt><trkpt lat="45.4195433" lon="8.7898883"><ele>123.33333333333334</ele><time>2026-04-19T08:32:57.007Z</time></trkpt><trkpt lat="45.41961" lon="8.790085"><ele>123.0</ele><time>2026-04-19T08:32:58.007Z</time></trkpt><trkpt lat="45.4196767" lon="8.790285"><ele>123.0</ele><time>2026-04-19T08:32:59.007Z</time></trkpt><trkpt lat="45.41975" lon="8.7904817"><ele>123.0</ele><time>2026-04-19T08:33:00.007Z</time></trkpt><trkpt lat="45.4198133" lon="8.7906783"><ele>123.0</ele><time>2026-04-19T08:33:01.007Z</time></trkpt><trkpt lat="45.4198883" lon="8.7908917"><ele>123.33333333333334</ele><time>2026-04-19T08:33:02.008Z</time></trkpt><trkpt lat="45.41995" lon="8.79109"><ele>123.66666666666667</ele><time>2026-04-19T08:33:03.008Z</time></trkpt><trkpt lat="45.4200117" lon="8.7912883"><ele>124.0</ele><time>2026-04-19T08:33:04.007Z</time></trkpt><trkpt lat="45.420075" lon="8.7914867"><ele>124.0</ele><time>2026-04-19T08:33:05.008Z</time></trkpt><trkpt lat="45.4201383" lon="8.791685"><ele>124.0</ele><time>2026-04-19T08:33:06.007Z</time></trkpt><trkpt lat="45.4202117" lon="8.7918817"><ele>124.0</ele><time>2026-04-19T08:33:07.008Z</time></trkpt><trkpt lat="45.4202767" lon="8.7920833"><ele>123.66666666666667</ele><time>2026-04-19T08:33:08.008Z</time></trkpt><trkpt lat="45.420345" lon="8.79227"><ele>123.33333333333334</ele><time>2026-04-19T08:33:09.007Z</time></trkpt><trkpt lat="45.420405" lon="8.7924633"><ele>123.0</ele><time>2026-04-19T08:33:10.007Z</time></trkpt><trkpt lat="45.42048" lon="8.7926667"><ele>123.0</ele><time>2026-04-19T08:33:11.008Z</time></trkpt><trkpt lat="45.4205417" lon="8.7928467"><ele>123.0</ele><time>2026-04-19T08:33:12.008Z</time></trkpt><trkpt lat="45.4206017" lon="8.7930167"><ele>123.0</ele><time>2026-04-19T08:33:13.007Z</time></trkpt><trkpt lat="45.420655" lon="8.7931717"><ele>123.0</ele><time>2026-04-19T08:33:14.007Z</time></trkpt><trkpt lat="45.420705" lon="8.79332"><ele>123.0</ele><time>2026-04-19T08:33:15.007Z</time></trkpt><trkpt lat="45.4207483" lon="8.79346"><ele>123.0</ele><time>2026-04-19T08:33:16.008Z</time></trkpt><trkpt lat="45.420795" lon="8.793575"><ele>123.0</ele><time>2026-04-19T08:33:17.008Z</time></trkpt><trkpt lat="45.4208283" lon="8.7936867"><ele>123.0</ele><time>2026-04-19T08:33:18.008Z</time></trkpt><trkpt lat="45.4208583" lon="8.7937867"><ele>123.0</ele><time>2026-04-19T08:33:19.007Z</time></trkpt><trkpt lat="45.4208967" lon="8.7938667"><ele>123.0</ele><time>2026-04-19T08:33:20.008Z</time></trkpt><trkpt lat="45.4209583" lon="8.7939883"><ele>123.2</ele><time>2026-04-19T08:33:22.007Z</time></trkpt><trkpt lat="45.4209333" lon="8.7940817"><ele>123.4</ele><time>2026-04-19T08:33:24.008Z</time></trkpt><trkpt lat="45.4208083" lon="8.7941433"><ele>123.60000000000001</ele><time>2026-04-19T08:33:26.008Z</time></trkpt><trkpt lat="45.4207" lon="8.79415"><ele>123.80000000000001</ele><time>2026-04-19T08:33:27.007Z</time></trkpt><trkpt lat="45.4205767" lon="8.7941633"><ele>124.0</ele><time>2026-04-19T08:33:28.008Z</time></trkpt><trkpt lat="45.420445" lon="8.7941933"><ele>124.0</ele><time>2026-04-19T08:33:29.007Z</time></trkpt><trkpt lat="45.4203167" lon="8.79423"><ele>124.0</ele><time>2026-04-19T08:33:30.007Z</time></trkpt><trkpt lat="45.4201883" lon="8.794265"><ele>124.0</ele><time>2026-04-19T08:33:31.008Z</time></trkpt><trkpt lat="45.420055" lon="8.7943067"><ele>124.0</ele><time>2026-04-19T08:33:32.008Z</time></trkpt><trkpt lat="45.4199217" lon="8.7943717"><ele>124.0</ele><time>2026-04-19T08:33:33.008Z</time></trkpt><trkpt lat="45.4197783" lon="8.7944283"><ele>124.0</ele><time>2026-04-19T08:33:34.008Z</time></trkpt><trkpt lat="45.4196417" lon="8.7944917"><ele>124.0</ele><time>2026-04-19T08:33:35.008Z</time></trkpt><trkpt lat="45.4195067" lon="8.7945433"><ele>124.0</ele><time>2026-04-19T08:33:36.007Z</time></trkpt><trkpt lat="45.419375" lon="8.7946067"><ele>124.0</ele><time>2026-04-19T08:33:37.008Z</time></trkpt><trkpt lat="45.419255" lon="8.7946717"><ele>124.0</ele><time>2026-04-19T08:33:38.007Z</time></trkpt><trkpt lat="45.4191283" lon="8.79472"><ele>124.0</ele><time>2026-04-19T08:33:39.008Z</time></trkpt><trkpt lat="45.4190033" lon="8.7947667"><ele>124.0</ele><time>2026-04-19T08:33:40.008Z</time></trkpt><trkpt lat="45.41888" lon="8.7948083"><ele>123.6</ele><time>2026-04-19T08:33:41.007Z</time></trkpt><trkpt lat="45.4187683" lon="8.7948567"><ele>123.2</ele><time>2026-04-19T08:33:42.008Z</time></trkpt><trkpt lat="45.4186667" lon="8.7949067"><ele>122.79999999999998</ele><time>2026-04-19T08:33:43.008Z</time></trkpt><trkpt lat="45.4185767" lon="8.7949383"><ele>122.39999999999999</ele><time>2026-04-19T08:33:44.008Z</time></trkpt><trkpt lat="45.4185" lon="8.7949633"><ele>122.0</ele><time>2026-04-19T08:33:45.008Z</time></trkpt><trkpt lat="45.418395" lon="8.795005"><ele>122.0</ele><time>2026-04-19T08:33:47.007Z</time></trkpt><trkpt lat="45.41834" lon="8.7951117"><ele>121.99999999999999</ele><time>2026-04-19T08:33:50.007Z</time></trkpt><trkpt lat="45.4183583" lon="8.7952817"><ele>121.99999999999999</ele><time>2026-04-19T08:33:52.008Z</time></trkpt><trkpt lat="45.4184067" lon="8.7953933"><ele>122.0</ele><time>2026-04-19T08:33:53.008Z</time></trkpt><trkpt lat="45.4184567" lon="8.7955233"><ele>122.0</ele><time>2026-04-19T08:33:54.008Z</time></trkpt><trkpt lat="45.4185117" lon="8.7956533"><ele>122.25</ele><time>2026-04-19T08:33:55.007Z</time></trkpt><trkpt lat="45.4185667" lon="8.79579"><ele>122.5</ele><time>2026-04-19T08:33:56.007Z</time></trkpt><trkpt lat="45.4186283" lon="8.795935"><ele>122.75</ele><time>2026-04-19T08:33:57.008Z</time></trkpt><trkpt lat="45.41869" lon="8.7960983"><ele>123.0</ele><time>2026-04-19T08:33:58.008Z</time></trkpt><trkpt lat="45.41875" lon="8.7962567"><ele>123.25</ele><time>2026-04-19T08:33:59.007Z</time></trkpt><trkpt lat="45.4188067" lon="8.7964233"><ele>123.5</ele><time>2026-04-19T08:34:00.008Z</time></trkpt><trkpt lat="45.4188683" lon="8.79659"><ele>123.75</ele><time>2026-04-19T08:34:01.008Z</time></trkpt><trkpt lat="45.4189233" lon="8.796765"><ele>124.0</ele><time>2026-04-19T08:34:02.007Z</time></trkpt><trkpt lat="45.4189883" lon="8.7969417"><ele>124.25</ele><time>2026-04-19T08:34:03.008Z</time></trkpt><trkpt lat="45.4190517" lon="8.7971233"><ele>124.5</ele><time>2026-04-19T08:34:04.008Z</time></trkpt><trkpt lat="45.419115" lon="8.7973033"><ele>124.75</ele><time>2026-04-19T08:34:05.008Z</time></trkpt><trkpt lat="45.419175" lon="8.797475"><ele>125.0</ele><time>2026-04-19T08:34:06.008Z</time></trkpt><trkpt lat="45.4192367" lon="8.79766"><ele>125.0</ele><time>2026-04-19T08:34:07.007Z</time></trkpt><trkpt lat="45.4193017" lon="8.7978433"><ele>125.0</ele><time>2026-04-19T08:34:08.008Z</time></trkpt><trkpt lat="45.4193783" lon="8.7980217"><ele>125.0</ele><time>2026-04-19T08:34:09.008Z</time></trkpt><trkpt lat="45.41944" lon="8.7982133"><ele>125.0</ele><time>2026-04-19T08:34:10.007Z</time></trkpt><trkpt lat="45.4195133" lon="8.798395"><ele>125.0</ele><time>2026-04-19T08:34:11.008Z</time></trkpt><trkpt lat="45.4195783" lon="8.798585"><ele>125.0</ele><time>2026-04-19T08:34:12.008Z</time></trkpt><trkpt lat="45.4196483" lon="8.7987783"><ele>125.0</ele><time>2026-04-19T08:34:13.008Z</time></trkpt><trkpt lat="45.4197083" lon="8.7989683"><ele>125.0</ele><time>2026-04-19T08:34:14.007Z</time></trkpt><trkpt lat="45.4197767" lon="8.7991533"><ele>124.75</ele><time>2026-04-19T08:34:15.008Z</time></trkpt><trkpt lat="45.41984" lon="8.7993483"><ele>124.5</ele><time>2026-04-19T08:34:16.007Z</time></trkpt><trkpt lat="45.4199017" lon="8.7995383"><ele>124.25</ele><time>2026-04-19T08:34:17.007Z</time></trkpt><trkpt lat="45.41996" lon="8.7997233"><ele>124.0</ele><time>2026-04-19T08:34:18.008Z</time></trkpt><trkpt lat="45.4200317" lon="8.7999133"><ele>124.0</ele><time>2026-04-19T08:34:19.008Z</time></trkpt><trkpt lat="45.420105" lon="8.800115"><ele>124.0</ele><time>2026-04-19T08:34:20.007Z</time></trkpt><trkpt lat="45.4201717" lon="8.8002983"><ele>124.0</ele><time>2026-04-19T08:34:21.008Z</time></trkpt><trkpt lat="45.4202383" lon="8.80049"><ele>124.0</ele><time>2026-04-19T08:34:22.008Z</time></trkpt><trkpt lat="45.4203017" lon="8.800675"><ele>124.0</ele><time>2026-04-19T08:34:23.008Z</time></trkpt><trkpt lat="45.4203583" lon="8.8008367"><ele>124.0</ele><time>2026-04-19T08:34:24.008Z</time></trkpt><trkpt lat="45.420415" lon="8.8009883"><ele>124.0</ele><time>2026-04-19T08:34:25.007Z</time></trkpt><trkpt lat="45.4204633" lon="8.801135"><ele>124.0</ele><time>2026-04-19T08:34:26.008Z</time></trkpt><trkpt lat="45.4205083" lon="8.8012767"><ele>124.0</ele><time>2026-04-19T08:34:27.007Z</time></trkpt><trkpt lat="45.42055" lon="8.80141"><ele>124.0</ele><time>2026-04-19T08:34:28.008Z</time></trkpt><trkpt lat="45.4205883" lon="8.8015417"><ele>124.0</ele><time>2026-04-19T08:34:29.007Z</time></trkpt><trkpt lat="45.42063" lon="8.801695"><ele>124.0</ele><time>2026-04-19T08:34:30.008Z</time></trkpt><trkpt lat="45.4206683" lon="8.8018517"><ele>123.6</ele><time>2026-04-19T08:34:31.007Z</time></trkpt><trkpt lat="45.4207033" lon="8.802"><ele>123.2</ele><time>2026-04-19T08:34:32.008Z</time></trkpt><trkpt lat="45.4207417" lon="8.8021483"><ele>122.79999999999998</ele><time>2026-04-19T08:34:33.008Z</time></trkpt><trkpt lat="45.420765" lon="8.802295"><ele>122.39999999999999</ele><time>2026-04-19T08:34:34.007Z</time></trkpt><trkpt lat="45.42078" lon="8.80243"><ele>122.0</ele><time>2026-04-19T08:34:35.007Z</time></trkpt><trkpt lat="45.420805" lon="8.802565"><ele>121.6</ele><time>2026-04-19T08:34:36.008Z</time></trkpt><trkpt lat="45.4208267" lon="8.8026933"><ele>121.19999999999999</ele><time>2026-04-19T08:34:37.008Z</time></trkpt><trkpt lat="45.42084" lon="8.8028083"><ele>120.8</ele><time>2026-04-19T08:34:38.007Z</time></trkpt><trkpt lat="45.4208567" lon="8.802915"><ele>120.4</ele><time>2026-04-19T08:34:39.008Z</time></trkpt><trkpt lat="45.4208467" lon="8.8030567"><ele>120.0</ele><time>2026-04-19T08:34:41.008Z</time></trkpt><trkpt lat="45.4207383" lon="8.80315"><ele>120.0</ele><time>2026-04-19T08:34:43.008Z</time></trkpt><trkpt lat="45.4206517" lon="8.8031733"><ele>120.0</ele><time>2026-04-19T08:34:44.008Z</time></trkpt><trkpt lat="45.4205583" lon="8.8031967"><ele>120.0</ele><time>2026-04-19T08:34:45.008Z</time></trkpt><trkpt lat="45.4204517" lon="8.803225"><ele>120.0</ele><time>2026-04-19T08:34:46.008Z</time></trkpt><trkpt lat="45.42033" lon="8.8032783"><ele>120.0</ele><time>2026-04-19T08:34:47.008Z</time></trkpt><trkpt lat="45.420215" lon="8.8033233"><ele>120.25</ele><time>2026-04-19T08:34:48.007Z</time></trkpt><trkpt lat="45.4201033" lon="8.803365"><ele>120.5</ele><time>2026-04-19T08:34:49.008Z</time></trkpt><trkpt lat="45.4199867" lon="8.803405"><ele>120.75</ele><time>2026-04-19T08:34:50.008Z</time></trkpt><trkpt lat="45.41986" lon="8.8034517"><ele>121.0</ele><time>2026-04-19T08:34:51.008Z</time></trkpt><trkpt lat="45.4197367" lon="8.8034983"><ele>121.0</ele><time>2026-04-19T08:34:52.008Z</time></trkpt><trkpt lat="45.4196017" lon="8.80354"><ele>121.0</ele><time>2026-04-19T08:34:53.008Z</time></trkpt><trkpt lat="45.4194683" lon="8.8035733"><ele>121.0</ele><time>2026-04-19T08:34:54.008Z</time></trkpt><trkpt lat="45.4193317" lon="8.8036033"><ele>121.0</ele><time>2026-04-19T08:34:55.008Z</time></trkpt><trkpt lat="45.4191967" lon="8.803615"><ele>121.0</ele><time>2026-04-19T08:34:56.008Z</time></trkpt><trkpt lat="45.4190717" lon="8.803625"><ele>121.0</ele><time>2026-04-19T08:34:57.008Z</time></trkpt><trkpt lat="45.41895" lon="8.8036317"><ele>121.0</ele><time>2026-04-19T08:34:58.007Z</time></trkpt><trkpt lat="45.4188333" lon="8.8036267"><ele>121.0</ele><time>2026-04-19T08:34:59.008Z</time></trkpt><trkpt lat="45.4187083" lon="8.8036117"><ele>122.25</ele><time>2026-04-19T08:35:00.007Z</time></trkpt><trkpt lat="45.418585" lon="8.8035933"><ele>123.5</ele><time>2026-04-19T08:35:01.007Z</time></trkpt><trkpt lat="45.4184567" lon="8.80357"><ele>124.75</ele><time>2026-04-19T08:35:02.008Z</time></trkpt><trkpt lat="45.41833" lon="8.8035567"><ele>126.0</ele><time>2026-04-19T08:35:03.008Z</time></trkpt><trkpt lat="45.418205" lon="8.8035467"><ele>126.0</ele><time>2026-04-19T08:35:04.007Z</time></trkpt><trkpt lat="45.418085" lon="8.8035433"><ele>126.0</ele><time>2026-04-19T08:35:05.007Z</time></trkpt><trkpt lat="45.4179633" lon="8.803525"><ele>126.0</ele><time>2026-04-19T08:35:06.008Z</time></trkpt><trkpt lat="45.417845" lon="8.8035033"><ele>126.0</ele><time>2026-04-19T08:35:07.008Z</time></trkpt><trkpt lat="45.4177217" lon="8.8034767"><ele>125.75</ele><time>2026-04-19T08:35:08.008Z</time></trkpt><trkpt lat="45.4176017" lon="8.803445"><ele>125.5</ele><time>2026-04-19T08:35:09.008Z</time></trkpt><trkpt lat="45.4174833" lon="8.8034183"><ele>125.25</ele><time>2026-04-19T08:35:10.008Z</time></trkpt><trkpt lat="45.4173567" lon="8.803395"><ele>125.0</ele><time>2026-04-19T08:35:11.008Z</time></trkpt><trkpt lat="45.4172483" lon="8.8033767"><ele>125.0</ele><time>2026-04-19T08:35:12.008Z</time></trkpt><trkpt lat="45.4171317" lon="8.8033817"><ele>125.0</ele><time>2026-04-19T08:35:13.007Z</time></trkpt><trkpt lat="45.4170117" lon="8.803375"><ele>125.0</ele><time>2026-04-19T08:35:14.007Z</time></trkpt><trkpt lat="45.4168917" lon="8.8033783"><ele>125.0</ele><time>2026-04-19T08:35:15.007Z</time></trkpt><trkpt lat="45.4167733" lon="8.803365"><ele>125.0</ele><time>2026-04-19T08:35:16.007Z</time></trkpt><trkpt lat="45.4166517" lon="8.80335"><ele>125.0</ele><time>2026-04-19T08:35:17.008Z</time></trkpt><trkpt lat="45.416525" lon="8.80334"><ele>125.0</ele><time>2026-04-19T08:35:18.007Z</time></trkpt><trkpt lat="45.4163983" lon="8.80333"><ele>125.0</ele><time>2026-04-19T08:35:19.007Z</time></trkpt><trkpt lat="45.4162717" lon="8.803325"><ele>124.8</ele><time>2026-04-19T08:35:20.008Z</time></trkpt><trkpt lat="45.4161533" lon="8.8033167"><ele>124.6</ele><time>2026-04-19T08:35:21.008Z</time></trkpt><trkpt lat="45.41605" lon="8.803305"><ele>124.4</ele><time>2026-04-19T08:35:22.008Z</time></trkpt><trkpt lat="45.4159533" lon="8.8032933"><ele>124.2</ele><time>2026-04-19T08:35:23.007Z</time></trkpt><trkpt lat="45.41586" lon="8.8032883"><ele>124.0</ele><time>2026-04-19T08:35:24.008Z</time></trkpt><trkpt lat="45.4157783" lon="8.8032833"><ele>124.00000000000001</ele><time>2026-04-19T08:35:25.008Z</time></trkpt><trkpt lat="45.4157083" lon="8.8032667"><ele>124.0</ele><time>2026-04-19T08:35:26.008Z</time></trkpt><trkpt lat="45.41564" lon="8.80325"><ele>124.0</ele><time>2026-04-19T08:35:27.008Z</time></trkpt><trkpt lat="45.4155267" lon="8.8032183"><ele>124.0</ele><time>2026-04-19T08:35:29.008Z</time></trkpt><trkpt lat="45.41546" lon="8.8032317"><ele>124.00000000000001</ele><time>2026-04-19T08:35:30.008Z</time></trkpt><trkpt lat="45.4153783" lon="8.80326"><ele>124.0</ele><time>2026-04-19T08:35:31.007Z</time></trkpt><trkpt lat="45.41528" lon="8.8032867"><ele>123.75</ele><time>2026-04-19T08:35:32.008Z</time></trkpt><trkpt lat="45.415175" lon="8.8033"><ele>123.5</ele><time>2026-04-19T08:35:33.008Z</time></trkpt><trkpt lat="45.4150667" lon="8.8032867"><ele>123.25</ele><time>2026-04-19T08:35:34.008Z</time></trkpt><trkpt lat="45.4149433" lon="8.8032617"><ele>123.0</ele><time>2026-04-19T08:35:35.007Z</time></trkpt><trkpt lat="45.4148183" lon="8.8032417"><ele>123.0</ele><time>2026-04-19T08:35:36.008Z</time></trkpt><trkpt lat="45.4146967" lon="8.8032033"><ele>123.0</ele><time>2026-04-19T08:35:37.007Z</time></trkpt><trkpt lat="45.4145783" lon="8.8031983"><ele>123.0</ele><time>2026-04-19T08:35:38.008Z</time></trkpt><trkpt lat="45.414455" lon="8.80321"><ele>123.0</ele><time>2026-04-19T08:35:39.007Z</time></trkpt><trkpt lat="45.414325" lon="8.803225"><ele>123.25</ele><time>2026-04-19T08:35:40.007Z</time></trkpt><trkpt lat="45.4142133" lon="8.8032633"><ele>123.5</ele><time>2026-04-19T08:35:41.008Z</time></trkpt><trkpt lat="45.4140967" lon="8.803305"><ele>123.75</ele><time>2026-04-19T08:35:42.008Z</time></trkpt><trkpt lat="45.4139667" lon="8.8033683"><ele>124.0</ele><time>2026-04-19T08:35:43.008Z</time></trkpt><trkpt lat="45.41384" lon="8.803435"><ele>124.0</ele><time>2026-04-19T08:35:44.007Z</time></trkpt><trkpt lat="45.4137117" lon="8.8034983"><ele>124.0</ele><time>2026-04-19T08:35:45.007Z</time></trkpt><trkpt lat="45.413595" lon="8.8035517"><ele>124.0</ele><time>2026-04-19T08:35:46.007Z</time></trkpt><trkpt lat="45.4134667" lon="8.8036083"><ele>124.0</ele><time>2026-04-19T08:35:47.008Z</time></trkpt><trkpt lat="45.4133333" lon="8.803655"><ele>124.0</ele><time>2026-04-19T08:35:48.007Z</time></trkpt><trkpt lat="45.4131933" lon="8.8037217"><ele>124.0</ele><time>2026-04-19T08:35:49.008Z</time></trkpt><trkpt lat="45.4130633" lon="8.8037883"><ele>124.0</ele><time>2026-04-19T08:35:50.007Z</time></trkpt><trkpt lat="45.41293" lon="8.8038583"><ele>124.0</ele><time>2026-04-19T08:35:51.008Z</time></trkpt><trkpt lat="45.4127983" lon="8.803935"><ele>123.75</ele><time>2026-04-19T08:35:52.007Z</time></trkpt><trkpt lat="45.4126533" lon="8.8039983"><ele>123.5</ele><time>2026-04-19T08:35:53.007Z</time></trkpt><trkpt lat="45.4125267" lon="8.80406"><ele>123.25</ele><time>2026-04-19T08:35:54.007Z</time></trkpt><trkpt lat="45.412395" lon="8.804105"><ele>123.0</ele><time>2026-04-19T08:35:55.008Z</time></trkpt><trkpt lat="45.4122683" lon="8.804145"><ele>122.75</ele><time>2026-04-19T08:35:56.007Z</time></trkpt><trkpt lat="45.41213" lon="8.8041933"><ele>122.5</ele><time>2026-04-19T08:35:57.007Z</time></trkpt><trkpt lat="45.4120033" lon="8.8042517"><ele>122.25</ele><time>2026-04-19T08:35:58.006Z</time></trkpt><trkpt lat="45.4118817" lon="8.80432"><ele>122.0</ele><time>2026-04-19T08:35:59.007Z</time></trkpt><trkpt lat="45.411755" lon="8.8043767"><ele>122.0</ele><time>2026-04-19T08:36:00.006Z</time></trkpt><trkpt lat="45.4116167" lon="8.8044467"><ele>122.0</ele><time>2026-04-19T08:36:01.006Z</time></trkpt><trkpt lat="45.4114917" lon="8.8045233"><ele>122.0</ele><time>2026-04-19T08:36:02.007Z</time></trkpt><trkpt lat="45.41135" lon="8.8045883"><ele>122.0</ele><time>2026-04-19T08:36:03.007Z</time></trkpt><trkpt lat="45.411215" lon="8.8046567"><ele>121.5</ele><time>2026-04-19T08:36:04.007Z</time></trkpt><trkpt lat="45.4110833" lon="8.804715"><ele>121.0</ele><time>2026-04-19T08:36:05.006Z</time></trkpt><trkpt lat="45.410955" lon="8.8047967"><ele>120.5</ele><time>2026-04-19T08:36:06.006Z</time></trkpt><trkpt lat="45.4108283" lon="8.8048717"><ele>120.0</ele><time>2026-04-19T08:36:07.006Z</time></trkpt><trkpt lat="45.410695" lon="8.8049667"><ele>120.0</ele><time>2026-04-19T08:36:08.007Z</time></trkpt><trkpt lat="45.4105667" lon="8.8050717"><ele>120.0</ele><time>2026-04-19T08:36:09.006Z</time></trkpt><trkpt lat="45.410445" lon="8.805185"><ele>120.0</ele><time>2026-04-19T08:36:10.007Z</time></trkpt><trkpt lat="45.4103317" lon="8.8052967"><ele>120.0</ele><time>2026-04-19T08:36:11.007Z</time></trkpt><trkpt lat="45.4102017" lon="8.805395"><ele>120.25</ele><time>2026-04-19T08:36:12.007Z</time></trkpt><trkpt lat="45.4100817" lon="8.8054817"><ele>120.5</ele><time>2026-04-19T08:36:13.006Z</time></trkpt><trkpt lat="45.4099633" lon="8.805575"><ele>120.75</ele><time>2026-04-19T08:36:14.006Z</time></trkpt><trkpt lat="45.4098517" lon="8.805655"><ele>121.0</ele><time>2026-04-19T08:36:15.006Z</time></trkpt><trkpt lat="45.4097317" lon="8.805735"><ele>120.6</ele><time>2026-04-19T08:36:16.007Z</time></trkpt><trkpt lat="45.4096133" lon="8.8058033"><ele>120.19999999999999</ele><time>2026-04-19T08:36:17.007Z</time></trkpt><trkpt lat="45.40951" lon="8.8058667"><ele>119.80000000000001</ele><time>2026-04-19T08:36:18.006Z</time></trkpt><trkpt lat="45.4094183" lon="8.8059267"><ele>119.4</ele><time>2026-04-19T08:36:19.007Z</time></trkpt><trkpt lat="45.4093367" lon="8.806025"><ele>119.0</ele><time>2026-04-19T08:36:20.007Z</time></trkpt><trkpt lat="45.4092633" lon="8.8061417"><ele>119.0</ele><time>2026-04-19T08:36:21.007Z</time></trkpt><trkpt lat="45.4091983" lon="8.8062817"><ele>119.0</ele><time>2026-04-19T08:36:22.006Z</time></trkpt><trkpt lat="45.4091133" lon="8.8064017"><ele>119.0</ele><time>2026-04-19T08:36:23.007Z</time></trkpt><trkpt lat="45.409" lon="8.80651"><ele>119.0</ele><time>2026-04-19T08:36:24.006Z</time></trkpt><trkpt lat="45.4088767" lon="8.8066183"><ele>119.25</ele><time>2026-04-19T08:36:25.007Z</time></trkpt><trkpt lat="45.4087467" lon="8.8067233"><ele>119.5</ele><time>2026-04-19T08:36:26.007Z</time></trkpt><trkpt lat="45.4086283" lon="8.8068317"><ele>119.75</ele><time>2026-04-19T08:36:27.007Z</time></trkpt><trkpt lat="45.40851" lon="8.8069533"><ele>120.0</ele><time>2026-04-19T08:36:28.006Z</time></trkpt><trkpt lat="45.408395" lon="8.8070617"><ele>120.25</ele><time>2026-04-19T08:36:29.007Z</time></trkpt><trkpt lat="45.4082867" lon="8.8071767"><ele>120.5</ele><time>2026-04-19T08:36:30.006Z</time></trkpt><trkpt lat="45.4081833" lon="8.8073017"><ele>120.75</ele><time>2026-04-19T08:36:31.006Z</time></trkpt><trkpt lat="45.4080833" lon="8.8074233"><ele>121.0</ele><time>2026-04-19T08:36:32.006Z</time></trkpt><trkpt lat="45.407975" lon="8.8075467"><ele>120.5</ele><time>2026-04-19T08:36:33.006Z</time></trkpt><trkpt lat="45.407865" lon="8.8076533"><ele>120.0</ele><time>2026-04-19T08:36:34.006Z</time></trkpt><trkpt lat="45.4077483" lon="8.807745"><ele>119.5</ele><time>2026-04-19T08:36:35.007Z</time></trkpt><trkpt lat="45.4076217" lon="8.807855"><ele>119.0</ele><time>2026-04-19T08:36:36.006Z</time></trkpt><trkpt lat="45.4074933" lon="8.8079767"><ele>118.66666666666666</ele><time>2026-04-19T08:36:37.007Z</time></trkpt><trkpt lat="45.40736" lon="8.8080933"><ele>118.33333333333334</ele><time>2026-04-19T08:36:38.007Z</time></trkpt><trkpt lat="45.4072267" lon="8.8082033"><ele>118.0</ele><time>2026-04-19T08:36:39.007Z</time></trkpt><trkpt lat="45.4071083" lon="8.808325"><ele>118.75</ele><time>2026-04-19T08:36:40.007Z</time></trkpt><trkpt lat="45.406995" lon="8.8084383"><ele>119.5</ele><time>2026-04-19T08:36:41.007Z</time></trkpt><trkpt lat="45.4068783" lon="8.8085517"><ele>120.25</ele><time>2026-04-19T08:36:42.007Z</time></trkpt><trkpt lat="45.406755" lon="8.8086617"><ele>121.0</ele><time>2026-04-19T08:36:43.007Z</time></trkpt><trkpt lat="45.4066367" lon="8.8087667"><ele>121.25</ele><time>2026-04-19T08:36:44.007Z</time></trkpt><trkpt lat="45.4065083" lon="8.8088733"><ele>121.5</ele><time>2026-04-19T08:36:45.006Z</time></trkpt><trkpt lat="45.4063817" lon="8.808985"><ele>121.75</ele><time>2026-04-19T08:36:46.007Z</time></trkpt><trkpt lat="45.4062533" lon="8.8090833"><ele>122.0</ele><time>2026-04-19T08:36:47.007Z</time></trkpt><trkpt lat="45.406115" lon="8.8091667"><ele>122.0</ele><time>2026-04-19T08:36:48.007Z</time></trkpt><trkpt lat="45.4059683" lon="8.8092117"><ele>122.0</ele><time>2026-04-19T08:36:49.007Z</time></trkpt><trkpt lat="45.405825" lon="8.8092567"><ele>122.0</ele><time>2026-04-19T08:36:50.007Z</time></trkpt><trkpt lat="45.4056817" lon="8.80931"><ele>122.0</ele><time>2026-04-19T08:36:51.007Z</time></trkpt><trkpt lat="45.4055417" lon="8.8093483"><ele>122.5</ele><time>2026-04-19T08:36:52.007Z</time></trkpt><trkpt lat="45.4054083" lon="8.8093817"><ele>123.0</ele><time>2026-04-19T08:36:53.006Z</time></trkpt><trkpt lat="45.4052783" lon="8.809415"><ele>123.5</ele><time>2026-04-19T08:36:54.006Z</time></trkpt><trkpt lat="45.4051667" lon="8.8094583"><ele>124.0</ele><time>2026-04-19T08:36:55.006Z</time></trkpt><trkpt lat="45.4050517" lon="8.80949"><ele>124.0</ele><time>2026-04-19T08:36:56.006Z</time></trkpt><trkpt lat="45.4049433" lon="8.8095183"><ele>124.0</ele><time>2026-04-19T08:36:57.007Z</time></trkpt><trkpt lat="45.4048283" lon="8.8095483"><ele>124.0</ele><time>2026-04-19T08:36:58.006Z</time></trkpt><trkpt lat="45.4047133" lon="8.80958"><ele>124.0</ele><time>2026-04-19T08:36:59.006Z</time></trkpt><trkpt lat="45.40461" lon="8.809605"><ele>124.0</ele><time>2026-04-19T08:37:00.007Z</time></trkpt><trkpt lat="45.404515" lon="8.8096283"><ele>123.83333333333334</ele><time>2026-04-19T08:37:01.006Z</time></trkpt><trkpt lat="45.4044283" lon="8.8096483"><ele>123.66666666666667</ele><time>2026-04-19T08:37:02.006Z</time></trkpt><trkpt lat="45.4043367" lon="8.809675"><ele>123.5</ele><time>2026-04-19T08:37:03.007Z</time></trkpt><trkpt lat="45.4042567" lon="8.80971"><ele>123.33333333333334</ele><time>2026-04-19T08:37:04.007Z</time></trkpt><trkpt lat="45.4041783" lon="8.8097433"><ele>123.16666666666667</ele><time>2026-04-19T08:37:05.006Z</time></trkpt><trkpt lat="45.404095" lon="8.809765"><ele>123.0</ele><time>2026-04-19T08:37:06.007Z</time></trkpt><trkpt lat="45.4040083" lon="8.8097883"><ele>123.0</ele><time>2026-04-19T08:37:07.007Z</time></trkpt><trkpt lat="45.4039217" lon="8.809805"><ele>123.0</ele><time>2026-04-19T08:37:08.007Z</time></trkpt><trkpt lat="45.4038367" lon="8.8098267"><ele>123.0</ele><time>2026-04-19T08:37:09.007Z</time></trkpt><trkpt lat="45.4037533" lon="8.80984"><ele>123.0</ele><time>2026-04-19T08:37:10.006Z</time></trkpt><trkpt lat="45.4036767" lon="8.809865"><ele>123.0</ele><time>2026-04-19T08:37:11.006Z</time></trkpt><trkpt lat="45.4035867" lon="8.8098967"><ele>123.0</ele><time>2026-04-19T08:37:12.007Z</time></trkpt><trkpt lat="45.4035017" lon="8.8099317"><ele>122.80000000000001</ele><time>2026-04-19T08:37:13.007Z</time></trkpt><trkpt lat="45.403425" lon="8.8099517"><ele>122.60000000000001</ele><time>2026-04-19T08:37:14.007Z</time></trkpt><trkpt lat="45.4033433" lon="8.8099883"><ele>122.39999999999999</ele><time>2026-04-19T08:37:15.006Z</time></trkpt><trkpt lat="45.4032517" lon="8.8100183"><ele>122.19999999999999</ele><time>2026-04-19T08:37:16.006Z</time></trkpt><trkpt lat="45.4031617" lon="8.8100483"><ele>122.0</ele><time>2026-04-19T08:37:17.007Z</time></trkpt><trkpt lat="45.4030633" lon="8.810085"><ele>121.75</ele><time>2026-04-19T08:37:18.007Z</time></trkpt><trkpt lat="45.4029417" lon="8.8101067"><ele>121.5</ele><time>2026-04-19T08:37:19.006Z</time></trkpt><trkpt lat="45.4028267" lon="8.81012"><ele>121.25</ele><time>2026-04-19T08:37:20.007Z</time></trkpt><trkpt lat="45.4027117" lon="8.81015"><ele>121.0</ele><time>2026-04-19T08:37:21.007Z</time></trkpt><trkpt lat="45.40259" lon="8.8101867"><ele>121.0</ele><time>2026-04-19T08:37:22.006Z</time></trkpt><trkpt lat="45.4024733" lon="8.8102233"><ele>121.0</ele><time>2026-04-19T08:37:23.006Z</time></trkpt><trkpt lat="45.4023667" lon="8.8102667"><ele>121.0</ele><time>2026-04-19T08:37:24.007Z</time></trkpt><trkpt lat="45.40228" lon="8.81031"><ele>121.0</ele><time>2026-04-19T08:37:25.007Z</time></trkpt><trkpt lat="45.40219" lon="8.8103383"><ele>121.0</ele><time>2026-04-19T08:37:26.007Z</time></trkpt><trkpt lat="45.40211" lon="8.8103633"><ele>120.6</ele><time>2026-04-19T08:37:27.007Z</time></trkpt><trkpt lat="45.4020417" lon="8.8103833"><ele>120.19999999999999</ele><time>2026-04-19T08:37:28.007Z</time></trkpt><trkpt lat="45.4019367" lon="8.8104183"><ele>119.80000000000001</ele><time>2026-04-19T08:37:30.006Z</time></trkpt><trkpt lat="45.4018533" lon="8.8104883"><ele>119.4</ele><time>2026-04-19T08:37:32.006Z</time></trkpt><trkpt lat="45.4018117" lon="8.8106267"><ele>119.0</ele><time>2026-04-19T08:37:34.007Z</time></trkpt><trkpt lat="45.4017367" lon="8.8107683"><ele>119.0</ele><time>2026-04-19T08:37:36.006Z</time></trkpt><trkpt lat="45.4016283" lon="8.8108817"><ele>119.0</ele><time>2026-04-19T08:37:38.007Z</time></trkpt><trkpt lat="45.4015433" lon="8.8109133"><ele>119.0</ele><time>2026-04-19T08:37:39.007Z</time></trkpt><trkpt lat="45.4014533" lon="8.8109483"><ele>119.0</ele><time>2026-04-19T08:37:40.006Z</time></trkpt><trkpt lat="45.4013683" lon="8.8110017"><ele>119.0</ele><time>2026-04-19T08:37:41.007Z</time></trkpt><trkpt lat="45.4012817" lon="8.8110717"><ele>118.2</ele><time>2026-04-19T08:37:42.007Z</time></trkpt><trkpt lat="45.40121" lon="8.8111717"><ele>117.4</ele><time>2026-04-19T08:37:43.007Z</time></trkpt><trkpt lat="45.401155" lon="8.8113017"><ele>116.6</ele><time>2026-04-19T08:37:44.005Z</time></trkpt><trkpt lat="45.4011083" lon="8.81144"><ele>115.8</ele><time>2026-04-19T08:37:45.006Z</time></trkpt><trkpt lat="45.4010717" lon="8.8115783"><ele>115.0</ele><time>2026-04-19T08:37:46.006Z</time></trkpt><trkpt lat="45.4010417" lon="8.8117217"><ele>114.0</ele><time>2026-04-19T08:37:47.007Z</time></trkpt><trkpt lat="45.4010183" lon="8.8118583"><ele>113.0</ele><time>2026-04-19T08:37:48.007Z</time></trkpt><trkpt lat="45.4009883" lon="8.8120033"><ele>112.0</ele><time>2026-04-19T08:37:49.006Z</time></trkpt><trkpt lat="45.40094" lon="8.8121483"><ele>111.0</ele><time>2026-04-19T08:37:50.007Z</time></trkpt><trkpt lat="45.4008917" lon="8.8122933"><ele>110.0</ele><time>2026-04-19T08:37:51.006Z</time></trkpt><trkpt lat="45.400845" lon="8.8124267"><ele>110.0</ele><time>2026-04-19T08:37:52.006Z</time></trkpt><trkpt lat="45.4008233" lon="8.8125767"><ele>110.0</ele><time>2026-04-19T08:37:53.006Z</time></trkpt><trkpt lat="45.40084" lon="8.8127267"><ele>110.0</ele><time>2026-04-19T08:37:54.006Z</time></trkpt><trkpt lat="45.400875" lon="8.812885"><ele>110.0</ele><time>2026-04-19T08:37:55.007Z</time></trkpt><trkpt lat="45.4009167" lon="8.8130283"><ele>110.0</ele><time>2026-04-19T08:37:56.007Z</time></trkpt><trkpt lat="45.400975" lon="8.8131633"><ele>109.83333333333333</ele><time>2026-04-19T08:37:57.007Z</time></trkpt><trkpt lat="45.4010317" lon="8.8132733"><ele>109.66666666666666</ele><time>2026-04-19T08:37:58.007Z</time></trkpt><trkpt lat="45.40108" lon="8.81337"><ele>109.5</ele><time>2026-04-19T08:37:59.007Z</time></trkpt><trkpt lat="45.4011283" lon="8.8134567"><ele>109.33333333333334</ele><time>2026-04-19T08:38:00.006Z</time></trkpt><trkpt lat="45.4011767" lon="8.8135567"><ele>109.16666666666667</ele><time>2026-04-19T08:38:01.007Z</time></trkpt><trkpt lat="45.4012267" lon="8.8136817"><ele>109.0</ele><time>2026-04-19T08:38:02.007Z</time></trkpt><trkpt lat="45.4012783" lon="8.8138117"><ele>108.0</ele><time>2026-04-19T08:38:03.006Z</time></trkpt><trkpt lat="45.4013333" lon="8.8139417"><ele>107.0</ele><time>2026-04-19T08:38:04.006Z</time></trkpt><trkpt lat="45.401375" lon="8.8140917"><ele>106.0</ele><time>2026-04-19T08:38:05.007Z</time></trkpt><trkpt lat="45.4014167" lon="8.814245"><ele>105.0</ele><time>2026-04-19T08:38:06.007Z</time></trkpt><trkpt lat="45.4014567" lon="8.8144033"><ele>104.4</ele><time>2026-04-19T08:38:07.006Z</time></trkpt><trkpt lat="45.4015" lon="8.8145633"><ele>103.8</ele><time>2026-04-19T08:38:08.007Z</time></trkpt><trkpt lat="45.4015183" lon="8.81469"><ele>103.19999999999999</ele><time>2026-04-19T08:38:09.006Z</time></trkpt><trkpt lat="45.4015317" lon="8.8148067"><ele>102.6</ele><time>2026-04-19T08:38:10.007Z</time></trkpt><trkpt lat="45.4015433" lon="8.8149283"><ele>102.0</ele><time>2026-04-19T08:38:11.006Z</time></trkpt><trkpt lat="45.4015483" lon="8.8150383"><ele>102.0</ele><time>2026-04-19T08:38:12.007Z</time></trkpt><trkpt lat="45.4015367" lon="8.81515"><ele>102.0</ele><time>2026-04-19T08:38:13.006Z</time></trkpt><trkpt lat="45.40152" lon="8.8152617"><ele>102.0</ele><time>2026-04-19T08:38:14.007Z</time></trkpt><trkpt lat="45.4014983" lon="8.8153667"><ele>102.0</ele><time>2026-04-19T08:38:15.006Z</time></trkpt><trkpt lat="45.4014733" lon="8.815475"><ele>102.0</ele><time>2026-04-19T08:38:16.007Z</time></trkpt><trkpt lat="45.401455" lon="8.8155683"><ele>102.0</ele><time>2026-04-19T08:38:17.006Z</time></trkpt><trkpt lat="45.401425" lon="8.81565"><ele>102.0</ele><time>2026-04-19T08:38:18.006Z</time></trkpt><trkpt lat="45.4014017" lon="8.815745"><ele>101.8</ele><time>2026-04-19T08:38:19.006Z</time></trkpt><trkpt lat="45.4014067" lon="8.8158533"><ele>101.6</ele><time>2026-04-19T08:38:20.007Z</time></trkpt><trkpt lat="45.401415" lon="8.8159433"><ele>101.39999999999999</ele><time>2026-04-19T08:38:21.007Z</time></trkpt><trkpt lat="45.4013683" lon="8.81611"><ele>101.19999999999999</ele><time>2026-04-19T08:38:23.006Z</time></trkpt><trkpt lat="45.4012883" lon="8.8161967"><ele>101.0</ele><time>2026-04-19T08:38:24.006Z</time></trkpt><trkpt lat="45.4011717" lon="8.81628"><ele>100.66666666666666</ele><time>2026-04-19T08:38:25.007Z</time></trkpt><trkpt lat="45.401045" lon="8.816365"><ele>100.33333333333334</ele><time>2026-04-19T08:38:26.007Z</time></trkpt><trkpt lat="45.40091" lon="8.8164633"><ele>100.0</ele><time>2026-04-19T08:38:27.007Z</time></trkpt><trkpt lat="45.40077" lon="8.8165817"><ele>100.0</ele><time>2026-04-19T08:38:28.006Z</time></trkpt><trkpt lat="45.40062" lon="8.8167033"><ele>100.0</ele><time>2026-04-19T08:38:29.007Z</time></trkpt><trkpt lat="45.4004667" lon="8.81683"><ele>100.0</ele><time>2026-04-19T08:38:30.007Z</time></trkpt><trkpt lat="45.40032" lon="8.8169383"><ele>99.66666666666667</ele><time>2026-04-19T08:38:31.006Z</time></trkpt><trkpt lat="45.4001783" lon="8.8170633"><ele>99.33333333333334</ele><time>2026-04-19T08:38:32.007Z</time></trkpt><trkpt lat="45.4000467" lon="8.817175"><ele>99.0</ele><time>2026-04-19T08:38:33.007Z</time></trkpt><trkpt lat="45.399935" lon="8.8172767"><ele>99.0</ele><time>2026-04-19T08:38:34.007Z</time></trkpt><trkpt lat="45.399825" lon="8.81738"><ele>99.0</ele><time>2026-04-19T08:38:35.007Z</time></trkpt><trkpt lat="45.3997217" lon="8.8174733"><ele>99.0</ele><time>2026-04-19T08:38:36.006Z</time></trkpt><trkpt lat="45.3996233" lon="8.81757"><ele>99.0</ele><time>2026-04-19T08:38:37.007Z</time></trkpt><trkpt lat="45.3995233" lon="8.8176467"><ele>100.0</ele><time>2026-04-19T08:38:38.007Z</time></trkpt><trkpt lat="45.39943" lon="8.8177117"><ele>101.0</ele><time>2026-04-19T08:38:39.006Z</time></trkpt><trkpt lat="45.3993383" lon="8.8177733"><ele>102.0</ele><time>2026-04-19T08:38:40.006Z</time></trkpt><trkpt lat="45.39924" lon="8.81783"><ele>103.0</ele><time>2026-04-19T08:38:41.007Z</time></trkpt><trkpt lat="45.3991233" lon="8.8178667"><ele>104.0</ele><time>2026-04-19T08:38:42.007Z</time></trkpt><trkpt lat="45.3989883" lon="8.817885"><ele>104.0</ele><time>2026-04-19T08:38:43.007Z</time></trkpt><trkpt lat="45.39886" lon="8.8178917"><ele>104.0</ele><time>2026-04-19T08:38:44.007Z</time></trkpt><trkpt lat="45.3987317" lon="8.8179"><ele>104.0</ele><time>2026-04-19T08:38:45.006Z</time></trkpt><trkpt lat="45.3986183" lon="8.817905"><ele>104.0</ele><time>2026-04-19T08:38:46.007Z</time></trkpt><trkpt lat="45.398525" lon="8.8179017"><ele>103.33333333333333</ele><time>2026-04-19T08:38:47.007Z</time></trkpt><trkpt lat="45.3984283" lon="8.8178917"><ele>102.66666666666666</ele><time>2026-04-19T08:38:48.007Z</time></trkpt><trkpt lat="45.3983467" lon="8.817885"><ele>102.0</ele><time>2026-04-19T08:38:49.007Z</time></trkpt><trkpt lat="45.39826" lon="8.8178817"><ele>101.33333333333334</ele><time>2026-04-19T08:38:50.006Z</time></trkpt><trkpt lat="45.3981767" lon="8.817885"><ele>100.66666666666667</ele><time>2026-04-19T08:38:51.006Z</time></trkpt><trkpt lat="45.398085" lon="8.8179017"><ele>100.0</ele><time>2026-04-19T08:38:52.006Z</time></trkpt><trkpt lat="45.3979967" lon="8.8179367"><ele>100.00000000000001</ele><time>2026-04-19T08:38:53.006Z</time></trkpt><trkpt lat="45.3979117" lon="8.8179783"><ele>100.0</ele><time>2026-04-19T08:38:54.006Z</time></trkpt><trkpt lat="45.3978217" lon="8.81802"><ele>100.0</ele><time>2026-04-19T08:38:55.007Z</time></trkpt><trkpt lat="45.3977367" lon="8.8180617"><ele>100.0</ele><time>2026-04-19T08:38:56.006Z</time></trkpt><trkpt lat="45.3976633" lon="8.8180917"><ele>100.00000000000001</ele><time>2026-04-19T08:38:57.006Z</time></trkpt><trkpt lat="45.3975933" lon="8.8181183"><ele>100.0</ele><time>2026-04-19T08:38:58.007Z</time></trkpt><trkpt lat="45.3975233" lon="8.8181483"><ele>100.00000000000001</ele><time>2026-04-19T08:38:59.006Z</time></trkpt><trkpt lat="45.3974533" lon="8.8181717"><ele>100.0</ele><time>2026-04-19T08:39:00.006Z</time></trkpt><trkpt lat="45.3973817" lon="8.8181867"><ele>100.0</ele><time>2026-04-19T08:39:01.006Z</time></trkpt><trkpt lat="45.3973067" lon="8.8182083"><ele>100.0</ele><time>2026-04-19T08:39:02.006Z</time></trkpt><trkpt lat="45.3972367" lon="8.818255"><ele>100.00000000000001</ele><time>2026-04-19T08:39:03.007Z</time></trkpt><trkpt lat="45.39717" lon="8.8183117"><ele>100.0</ele><time>2026-04-19T08:39:04.007Z</time></trkpt><trkpt lat="45.3970933" lon="8.8183933"><ele>99.6</ele><time>2026-04-19T08:39:05.007Z</time></trkpt><trkpt lat="45.3970267" lon="8.8184883"><ele>99.2</ele><time>2026-04-19T08:39:06.007Z</time></trkpt><trkpt lat="45.3969617" lon="8.8186133"><ele>98.80000000000001</ele><time>2026-04-19T08:39:07.006Z</time></trkpt><trkpt lat="45.396895" lon="8.8187517"><ele>98.4</ele><time>2026-04-19T08:39:08.007Z</time></trkpt><trkpt lat="45.39683" lon="8.8189033"><ele>98.0</ele><time>2026-04-19T08:39:09.006Z</time></trkpt><trkpt lat="45.396775" lon="8.81906"><ele>98.0</ele><time>2026-04-19T08:39:10.007Z</time></trkpt><trkpt lat="45.396715" lon="8.819225"><ele>98.0</ele><time>2026-04-19T08:39:11.007Z</time></trkpt><trkpt lat="45.3966533" lon="8.8193933"><ele>98.0</ele><time>2026-04-19T08:39:12.007Z</time></trkpt><trkpt lat="45.3965817" lon="8.8195483"><ele>98.0</ele><time>2026-04-19T08:39:13.007Z</time></trkpt><trkpt lat="45.39652" lon="8.8197033"><ele>98.0</ele><time>2026-04-19T08:39:14.007Z</time></trkpt><trkpt lat="45.3964667" lon="8.8198567"><ele>98.0</ele><time>2026-04-19T08:39:15.007Z</time></trkpt><trkpt lat="45.3963967" lon="8.8200033"><ele>98.0</ele><time>2026-04-19T08:39:16.007Z</time></trkpt><trkpt lat="45.396325" lon="8.8201383"><ele>98.0</ele><time>2026-04-19T08:39:17.006Z</time></trkpt><trkpt lat="45.39626" lon="8.82027"><ele>97.80000000000001</ele><time>2026-04-19T08:39:18.007Z</time></trkpt><trkpt lat="45.3961983" lon="8.8203833"><ele>97.6</ele><time>2026-04-19T08:39:19.007Z</time></trkpt><trkpt lat="45.3961517" lon="8.8204917"><ele>97.4</ele><time>2026-04-19T08:39:20.007Z</time></trkpt><trkpt lat="45.39613" lon="8.8206117"><ele>97.19999999999999</ele><time>2026-04-19T08:39:21.007Z</time></trkpt><trkpt lat="45.3961317" lon="8.8207417"><ele>97.0</ele><time>2026-04-19T08:39:22.007Z</time></trkpt><trkpt lat="45.3961567" lon="8.8208917"><ele>97.6</ele><time>2026-04-19T08:39:23.006Z</time></trkpt><trkpt lat="45.3961817" lon="8.8210483"><ele>98.19999999999999</ele><time>2026-04-19T08:39:24.006Z</time></trkpt><trkpt lat="45.3961883" lon="8.8212067"><ele>98.8</ele><time>2026-04-19T08:39:25.007Z</time></trkpt><trkpt lat="45.3961817" lon="8.82136"><ele>99.4</ele><time>2026-04-19T08:39:26.006Z</time></trkpt><trkpt lat="45.3961617" lon="8.8214967"><ele>100.0</ele><time>2026-04-19T08:39:27.007Z</time></trkpt><trkpt lat="45.3961183" lon="8.8216267"><ele>100.0</ele><time>2026-04-19T08:39:28.007Z</time></trkpt><trkpt lat="45.396065" lon="8.821715"><ele>100.0</ele><time>2026-04-19T08:39:29.007Z</time></trkpt><trkpt lat="45.3959983" lon="8.82179"><ele>100.0</ele><time>2026-04-19T08:39:30.006Z</time></trkpt><trkpt lat="45.395905" lon="8.8218433"><ele>100.0</ele><time>2026-04-19T08:39:31.007Z</time></trkpt><trkpt lat="45.3957967" lon="8.8218917"><ele>100.0</ele><time>2026-04-19T08:39:32.006Z</time></trkpt><trkpt lat="45.3956867" lon="8.8219317"><ele>100.00000000000001</ele><time>2026-04-19T08:39:33.007Z</time></trkpt><trkpt lat="45.3955933" lon="8.821975"><ele>100.0</ele><time>2026-04-19T08:39:34.007Z</time></trkpt><trkpt lat="45.3955133" lon="8.822"><ele>100.0</ele><time>2026-04-19T08:39:35.006Z</time></trkpt><trkpt lat="45.39545" lon="8.8220433"><ele>100.0</ele><time>2026-04-19T08:39:36.007Z</time></trkpt><trkpt lat="45.39541" lon="8.8221167"><ele>100.00000000000001</ele><time>2026-04-19T08:39:37.006Z</time></trkpt><trkpt lat="45.39539" lon="8.8222083"><ele>100.0</ele><time>2026-04-19T08:39:38.006Z</time></trkpt><trkpt lat="45.3953767" lon="8.8223083"><ele>100.0</ele><time>2026-04-19T08:39:39.006Z</time></trkpt><trkpt lat="45.39535" lon="8.8224367"><ele>100.0</ele><time>2026-04-19T08:39:41.007Z</time></trkpt><trkpt lat="45.39526" lon="8.82253"><ele>100.0</ele><time>2026-04-19T08:39:43.006Z</time></trkpt><trkpt lat="45.3952" lon="8.8225667"><ele>100.0</ele><time>2026-04-19T08:39:44.007Z</time></trkpt><trkpt lat="45.39514" lon="8.82262"><ele>100.0</ele><time>2026-04-19T08:39:45.006Z</time></trkpt><trkpt lat="45.3950367" lon="8.8227133"><ele>100.0</ele><time>2026-04-19T08:39:47.006Z</time></trkpt><trkpt lat="45.3949783" lon="8.822765"><ele>100.0</ele><time>2026-04-19T08:39:48.006Z</time></trkpt><trkpt lat="45.3949117" lon="8.822825"><ele>100.0</ele><time>2026-04-19T08:39:49.006Z</time></trkpt><trkpt lat="45.39483" lon="8.8229017"><ele>100.0</ele><time>2026-04-19T08:39:50.006Z</time></trkpt><trkpt lat="45.394735" lon="8.8229833"><ele>100.0</ele><time>2026-04-19T08:39:51.007Z</time></trkpt><trkpt lat="45.3946433" lon="8.82307"><ele>99.75</ele><time>2026-04-19T08:39:52.006Z</time></trkpt><trkpt lat="45.3945467" lon="8.8231633"><ele>99.5</ele><time>2026-04-19T08:39:53.006Z</time></trkpt><trkpt lat="45.3944483" lon="8.8232633"><ele>99.25</ele><time>2026-04-19T08:39:54.007Z</time></trkpt><trkpt lat="45.3943517" lon="8.8233433"><ele>99.0</ele><time>2026-04-19T08:39:55.007Z</time></trkpt><trkpt lat="45.39426" lon="8.8234283"><ele>99.0</ele><time>2026-04-19T08:39:56.006Z</time></trkpt><trkpt lat="45.39417" lon="8.8234983"><ele>99.0</ele><time>2026-04-19T08:39:57.007Z</time></trkpt><trkpt lat="45.3940883" lon="8.8235467"><ele>99.0</ele><time>2026-04-19T08:39:58.007Z</time></trkpt><trkpt lat="45.3940167" lon="8.823595"><ele>99.0</ele><time>2026-04-19T08:39:59.007Z</time></trkpt><trkpt lat="45.3939533" lon="8.8236417"><ele>99.0</ele><time>2026-04-19T08:40:00.006Z</time></trkpt><trkpt lat="45.3938817" lon="8.823785"><ele>99.0</ele><time>2026-04-19T08:40:02.006Z</time></trkpt><trkpt lat="45.393875" lon="8.8238883"><ele>99.0</ele><time>2026-04-19T08:40:03.007Z</time></trkpt><trkpt lat="45.393895" lon="8.8240117"><ele>99.0</ele><time>2026-04-19T08:40:04.006Z</time></trkpt><trkpt lat="45.3939383" lon="8.8241667"><ele>99.0</ele><time>2026-04-19T08:40:05.006Z</time></trkpt><trkpt lat="45.3939817" lon="8.8243183"><ele>99.0</ele><time>2026-04-19T08:40:06.006Z</time></trkpt><trkpt lat="45.39402" lon="8.8244417"><ele>98.66666666666667</ele><time>2026-04-19T08:40:07.006Z</time></trkpt><trkpt lat="45.3940467" lon="8.8245467"><ele>98.33333333333334</ele><time>2026-04-19T08:40:08.007Z</time></trkpt><trkpt lat="45.3940667" lon="8.8246883"><ele>98.0</ele><time>2026-04-19T08:40:10.007Z</time></trkpt><trkpt lat="45.3940183" lon="8.8247767"><ele>97.66666666666667</ele><time>2026-04-19T08:40:12.006Z</time></trkpt><trkpt lat="45.3939367" lon="8.824805"><ele>97.33333333333334</ele><time>2026-04-19T08:40:13.007Z</time></trkpt><trkpt lat="45.3938383" lon="8.82485"><ele>97.0</ele><time>2026-04-19T08:40:14.006Z</time></trkpt><trkpt lat="45.3937383" lon="8.8249"><ele>97.0</ele><time>2026-04-19T08:40:15.006Z</time></trkpt><trkpt lat="45.393625" lon="8.8249567"><ele>97.0</ele><time>2026-04-19T08:40:16.006Z</time></trkpt><trkpt lat="45.3935033" lon="8.82501"><ele>97.0</ele><time>2026-04-19T08:40:17.006Z</time></trkpt><trkpt lat="45.393385" lon="8.825075"><ele>97.0</ele><time>2026-04-19T08:40:18.007Z</time></trkpt><trkpt lat="45.3932667" lon="8.8251417"><ele>97.0</ele><time>2026-04-19T08:40:19.006Z</time></trkpt><trkpt lat="45.3931367" lon="8.8252017"><ele>97.0</ele><time>2026-04-19T08:40:20.006Z</time></trkpt><trkpt lat="45.3930167" lon="8.82527"><ele>97.0</ele><time>2026-04-19T08:40:21.007Z</time></trkpt><trkpt lat="45.3928967" lon="8.8253333"><ele>97.0</ele><time>2026-04-19T08:40:22.007Z</time></trkpt><trkpt lat="45.3927717" lon="8.825385"><ele>97.0</ele><time>2026-04-19T08:40:23.007Z</time></trkpt><trkpt lat="45.3926433" lon="8.8254367"><ele>97.0</ele><time>2026-04-19T08:40:24.007Z</time></trkpt><trkpt lat="45.3925233" lon="8.8255"><ele>97.0</ele><time>2026-04-19T08:40:25.006Z</time></trkpt><trkpt lat="45.3924083" lon="8.8255633"><ele>97.0</ele><time>2026-04-19T08:40:26.007Z</time></trkpt><trkpt lat="45.3922917" lon="8.8256267"><ele>97.0</ele><time>2026-04-19T08:40:27.007Z</time></trkpt><trkpt lat="45.3921767" lon="8.8256867"><ele>97.0</ele><time>2026-04-19T08:40:28.007Z</time></trkpt><trkpt lat="45.3920633" lon="8.8257467"><ele>97.0</ele><time>2026-04-19T08:40:29.005Z</time></trkpt><trkpt lat="45.39196" lon="8.825805"><ele>97.0</ele><time>2026-04-19T08:40:30.006Z</time></trkpt><trkpt lat="45.3918517" lon="8.8258667"><ele>97.0</ele><time>2026-04-19T08:40:31.005Z</time></trkpt><trkpt lat="45.3917417" lon="8.8259283"><ele>97.0</ele><time>2026-04-19T08:40:32.005Z</time></trkpt><trkpt lat="45.3916233" lon="8.8259917"><ele>97.0</ele><time>2026-04-19T08:40:33.005Z</time></trkpt><trkpt lat="45.3914983" lon="8.8260517"><ele>97.0</ele><time>2026-04-19T08:40:34.006Z</time></trkpt><trkpt lat="45.391385" lon="8.82613"><ele>97.5</ele><time>2026-04-19T08:40:35.006Z</time></trkpt><trkpt lat="45.391275" lon="8.826205"><ele>98.0</ele><time>2026-04-19T08:40:36.006Z</time></trkpt><trkpt lat="45.3911683" lon="8.8262733"><ele>98.5</ele><time>2026-04-19T08:40:37.006Z</time></trkpt><trkpt lat="45.3910483" lon="8.8263433"><ele>99.0</ele><time>2026-04-19T08:40:38.005Z</time></trkpt><trkpt lat="45.390935" lon="8.826415"><ele>99.0</ele><time>2026-04-19T08:40:39.005Z</time></trkpt><trkpt lat="45.3908283" lon="8.82649"><ele>99.0</ele><time>2026-04-19T08:40:40.006Z</time></trkpt><trkpt lat="45.39072" lon="8.8265617"><ele>99.0</ele><time>2026-04-19T08:40:41.006Z</time></trkpt><trkpt lat="45.3906067" lon="8.82663"><ele>99.0</ele><time>2026-04-19T08:40:42.005Z</time></trkpt><trkpt lat="45.3905033" lon="8.8266983"><ele>98.6</ele><time>2026-04-19T08:40:43.005Z</time></trkpt><trkpt lat="45.39041" lon="8.8267667"><ele>98.2</ele><time>2026-04-19T08:40:44.005Z</time></trkpt><trkpt lat="45.3903133" lon="8.8268267"><ele>97.8</ele><time>2026-04-19T08:40:45.005Z</time></trkpt><trkpt lat="45.39023" lon="8.8268917"><ele>97.39999999999999</ele><time>2026-04-19T08:40:46.006Z</time></trkpt><trkpt lat="45.39015" lon="8.8269483"><ele>97.0</ele><time>2026-04-19T08:40:47.005Z</time></trkpt><trkpt lat="45.39007" lon="8.8270017"><ele>97.00000000000001</ele><time>2026-04-19T08:40:48.006Z</time></trkpt><trkpt lat="45.3900017" lon="8.82705"><ele>97.0</ele><time>2026-04-19T08:40:49.006Z</time></trkpt><trkpt lat="45.3899417" lon="8.8270867"><ele>97.0</ele><time>2026-04-19T08:40:50.005Z</time></trkpt><trkpt lat="45.3898817" lon="8.827125"><ele>97.0</ele><time>2026-04-19T08:40:51.005Z</time></trkpt><trkpt lat="45.3898217" lon="8.8271667"><ele>97.00000000000001</ele><time>2026-04-19T08:40:52.005Z</time></trkpt><trkpt lat="45.3897567" lon="8.8272783"><ele>97.0</ele><time>2026-04-19T08:40:54.006Z</time></trkpt><trkpt lat="45.3897583" lon="8.8274017"><ele>97.00000000000001</ele><time>2026-04-19T08:40:56.006Z</time></trkpt><trkpt lat="45.389765" lon="8.8275267"><ele>97.0</ele><time>2026-04-19T08:40:58.006Z</time></trkpt><trkpt lat="45.3897467" lon="8.8276333"><ele>97.0</ele><time>2026-04-19T08:41:00.006Z</time></trkpt><trkpt lat="45.3897117" lon="8.827725"><ele>97.0</ele><time>2026-04-19T08:41:02.005Z</time></trkpt><trkpt lat="45.38967" lon="8.82783"><ele>97.00000000000001</ele><time>2026-04-19T08:41:04.006Z</time></trkpt><trkpt lat="45.3896217" lon="8.8279317"><ele>97.0</ele><time>2026-04-19T08:41:06.006Z</time></trkpt><trkpt lat="45.3895617" lon="8.8280767"><ele>97.16666666666667</ele><time>2026-04-19T08:41:08.005Z</time></trkpt><trkpt lat="45.3895183" lon="8.828155"><ele>97.33333333333334</ele><time>2026-04-19T08:41:09.005Z</time></trkpt><trkpt lat="45.3894667" lon="8.8282183"><ele>97.5</ele><time>2026-04-19T08:41:10.006Z</time></trkpt><trkpt lat="45.3894" lon="8.82828"><ele>97.66666666666666</ele><time>2026-04-19T08:41:11.006Z</time></trkpt><trkpt lat="45.3893333" lon="8.8283383"><ele>97.83333333333333</ele><time>2026-04-19T08:41:12.006Z</time></trkpt><trkpt lat="45.3892617" lon="8.8284133"><ele>98.0</ele><time>2026-04-19T08:41:13.006Z</time></trkpt><trkpt lat="45.3891767" lon="8.8284867"><ele>98.0</ele><time>2026-04-19T08:41:14.005Z</time></trkpt><trkpt lat="45.3890817" lon="8.82856"><ele>98.0</ele><time>2026-04-19T08:41:15.006Z</time></trkpt><trkpt lat="45.389" lon="8.82863"><ele>98.0</ele><time>2026-04-19T08:41:16.006Z</time></trkpt><trkpt lat="45.3889133" lon="8.8287033"><ele>98.0</ele><time>2026-04-19T08:41:17.006Z</time></trkpt><trkpt lat="45.38883" lon="8.8287567"><ele>98.0</ele><time>2026-04-19T08:41:18.005Z</time></trkpt><trkpt lat="45.3887567" lon="8.8288133"><ele>98.0</ele><time>2026-04-19T08:41:19.006Z</time></trkpt><trkpt lat="45.3886733" lon="8.82887"><ele>98.0</ele><time>2026-04-19T08:41:20.005Z</time></trkpt><trkpt lat="45.388595" lon="8.82895"><ele>98.0</ele><time>2026-04-19T08:41:21.006Z</time></trkpt><trkpt lat="45.3884917" lon="8.8290267"><ele>98.0</ele><time>2026-04-19T08:41:22.006Z</time></trkpt><trkpt lat="45.3883717" lon="8.8290717"><ele>98.0</ele><time>2026-04-19T08:41:23.006Z</time></trkpt><trkpt lat="45.3882583" lon="8.829125"><ele>98.0</ele><time>2026-04-19T08:41:24.005Z</time></trkpt><trkpt lat="45.388155" lon="8.829175"><ele>98.0</ele><time>2026-04-19T08:41:25.006Z</time></trkpt><trkpt lat="45.3880417" lon="8.8292233"><ele>98.0</ele><time>2026-04-19T08:41:26.006Z</time></trkpt><trkpt lat="45.3879333" lon="8.8292783"><ele>98.0</ele><time>2026-04-19T08:41:27.006Z</time></trkpt><trkpt lat="45.3878317" lon="8.8293433"><ele>98.0</ele><time>2026-04-19T08:41:28.005Z</time></trkpt><trkpt lat="45.3877367" lon="8.82939"><ele>98.0</ele><time>2026-04-19T08:41:29.005Z</time></trkpt><trkpt lat="45.3876583" lon="8.8294467"><ele>98.0</ele><time>2026-04-19T08:41:30.005Z</time></trkpt><trkpt lat="45.38757" lon="8.8295233"><ele>98.0</ele><time>2026-04-19T08:41:31.005Z</time></trkpt><trkpt lat="45.3875" lon="8.8296217"><ele>98.0</ele><time>2026-04-19T08:41:32.005Z</time></trkpt><trkpt lat="45.3874367" lon="8.829735"><ele>97.99999999999999</ele><time>2026-04-19T08:41:33.006Z</time></trkpt><trkpt lat="45.38739" lon="8.8298583"><ele>98.0</ele><time>2026-04-19T08:41:34.005Z</time></trkpt><trkpt lat="45.3873383" lon="8.8299717"><ele>98.0</ele><time>2026-04-19T08:41:35.005Z</time></trkpt><trkpt lat="45.387285" lon="8.8300517"><ele>98.0</ele><time>2026-04-19T08:41:36.006Z</time></trkpt><trkpt lat="45.3872267" lon="8.8301067"><ele>97.99999999999999</ele><time>2026-04-19T08:41:37.006Z</time></trkpt><trkpt lat="45.3871483" lon="8.8301517"><ele>98.0</ele><time>2026-04-19T08:41:38.006Z</time></trkpt><trkpt lat="45.3870567" lon="8.8301917"><ele>98.2</ele><time>2026-04-19T08:41:39.006Z</time></trkpt><trkpt lat="45.386955" lon="8.830225"><ele>98.4</ele><time>2026-04-19T08:41:40.005Z</time></trkpt><trkpt lat="45.3868417" lon="8.8302767"><ele>98.60000000000001</ele><time>2026-04-19T08:41:41.005Z</time></trkpt><trkpt lat="45.3867367" lon="8.8303317"><ele>98.80000000000001</ele><time>2026-04-19T08:41:42.006Z</time></trkpt><trkpt lat="45.3866333" lon="8.8303783"><ele>99.0</ele><time>2026-04-19T08:41:43.005Z</time></trkpt><trkpt lat="45.386545" lon="8.8304317"><ele>99.0</ele><time>2026-04-19T08:41:44.006Z</time></trkpt><trkpt lat="45.3864633" lon="8.8304817"><ele>99.0</ele><time>2026-04-19T08:41:45.005Z</time></trkpt><trkpt lat="45.3863817" lon="8.830555"><ele>99.0</ele><time>2026-04-19T08:41:46.005Z</time></trkpt><trkpt lat="45.38628" lon="8.8306317"><ele>99.0</ele><time>2026-04-19T08:41:47.006Z</time></trkpt><trkpt lat="45.3861817" lon="8.83071"><ele>99.0</ele><time>2026-04-19T08:41:48.006Z</time></trkpt><trkpt lat="45.3860917" lon="8.830785"><ele>98.80000000000001</ele><time>2026-04-19T08:41:49.005Z</time></trkpt><trkpt lat="45.3859983" lon="8.8308533"><ele>98.60000000000001</ele><time>2026-04-19T08:41:50.005Z</time></trkpt><trkpt lat="45.3859083" lon="8.8309033"><ele>98.4</ele><time>2026-04-19T08:41:51.005Z</time></trkpt><trkpt lat="45.3858333" lon="8.8309483"><ele>98.2</ele><time>2026-04-19T08:41:52.005Z</time></trkpt><trkpt lat="45.3857483" lon="8.8309933"><ele>98.0</ele><time>2026-04-19T08:41:53.006Z</time></trkpt><trkpt lat="45.3856567" lon="8.8310317"><ele>97.99999999999999</ele><time>2026-04-19T08:41:54.006Z</time></trkpt><trkpt lat="45.3855783" lon="8.8310867"><ele>98.0</ele><time>2026-04-19T08:41:55.006Z</time></trkpt><trkpt lat="45.3855133" lon="8.8311483"><ele>98.0</ele><time>2026-04-19T08:41:56.005Z</time></trkpt><trkpt lat="45.385465" lon="8.8312317"><ele>98.0</ele><time>2026-04-19T08:41:57.006Z</time></trkpt><trkpt lat="45.3854183" lon="8.831335"><ele>97.99999999999999</ele><time>2026-04-19T08:41:58.005Z</time></trkpt><trkpt lat="45.3853617" lon="8.8314383"><ele>98.0</ele><time>2026-04-19T08:41:59.005Z</time></trkpt><trkpt lat="45.385305" lon="8.8315483"><ele>98.0</ele><time>2026-04-19T08:42:00.006Z</time></trkpt><trkpt lat="45.3852567" lon="8.8316617"><ele>98.0</ele><time>2026-04-19T08:42:01.006Z</time></trkpt><trkpt lat="45.385205" lon="8.8317833"><ele>98.0</ele><time>2026-04-19T08:42:02.006Z</time></trkpt><trkpt lat="45.3851533" lon="8.8319233"><ele>98.0</ele><time>2026-04-19T08:42:03.006Z</time></trkpt><trkpt lat="45.3850917" lon="8.8320667"><ele>98.0</ele><time>2026-04-19T08:42:04.006Z</time></trkpt><trkpt lat="45.3850267" lon="8.8322017"><ele>98.0</ele><time>2026-04-19T08:42:05.006Z</time></trkpt><trkpt lat="45.384975" lon="8.83233"><ele>98.0</ele><time>2026-04-19T08:42:06.006Z</time></trkpt><trkpt lat="45.3849233" lon="8.8324467"><ele>98.0</ele><time>2026-04-19T08:42:07.006Z</time></trkpt><trkpt lat="45.384865" lon="8.8325617"><ele>98.0</ele><time>2026-04-19T08:42:08.006Z</time></trkpt><trkpt lat="45.3848017" lon="8.8326817"><ele>98.0</ele><time>2026-04-19T08:42:09.005Z</time></trkpt><trkpt lat="45.3847333" lon="8.832785"><ele>98.80000000000001</ele><time>2026-04-19T08:42:10.005Z</time></trkpt><trkpt lat="45.3846533" lon="8.8328733"><ele>99.6</ele><time>2026-04-19T08:42:11.006Z</time></trkpt><trkpt lat="45.3845683" lon="8.8329517"><ele>100.4</ele><time>2026-04-19T08:42:12.006Z</time></trkpt><trkpt lat="45.3844733" lon="8.83303"><ele>101.19999999999999</ele><time>2026-04-19T08:42:13.006Z</time></trkpt><trkpt lat="45.384385" lon="8.8331167"><ele>102.0</ele><time>2026-04-19T08:42:14.006Z</time></trkpt><trkpt lat="45.3843067" lon="8.833195"><ele>102.0</ele><time>2026-04-19T08:42:15.006Z</time></trkpt><trkpt lat="45.3842283" lon="8.83328"><ele>102.0</ele><time>2026-04-19T08:42:16.005Z</time></trkpt><trkpt lat="45.38415" lon="8.8333683"><ele>102.0</ele><time>2026-04-19T08:42:17.006Z</time></trkpt><trkpt lat="45.3840783" lon="8.8334667"><ele>102.0</ele><time>2026-04-19T08:42:18.006Z</time></trkpt><trkpt lat="45.3840033" lon="8.8335783"><ele>102.0</ele><time>2026-04-19T08:42:19.005Z</time></trkpt><trkpt lat="45.3839283" lon="8.83371"><ele>102.0</ele><time>2026-04-19T08:42:20.006Z</time></trkpt><trkpt lat="45.383855" lon="8.8338433"><ele>102.0</ele><time>2026-04-19T08:42:21.005Z</time></trkpt><trkpt lat="45.3837967" lon="8.8339733"><ele>102.0</ele><time>2026-04-19T08:42:22.005Z</time></trkpt><trkpt lat="45.3837467" lon="8.8340917"><ele>102.0</ele><time>2026-04-19T08:42:23.005Z</time></trkpt><trkpt lat="45.3836917" lon="8.834215"><ele>102.0</ele><time>2026-04-19T08:42:24.006Z</time></trkpt><trkpt lat="45.383635" lon="8.83433"><ele>101.6</ele><time>2026-04-19T08:42:25.006Z</time></trkpt><trkpt lat="45.3835683" lon="8.8344683"><ele>101.19999999999999</ele><time>2026-04-19T08:42:26.006Z</time></trkpt><trkpt lat="45.3835117" lon="8.8346"><ele>100.8</ele><time>2026-04-19T08:42:27.005Z</time></trkpt><trkpt lat="45.383455" lon="8.834725"><ele>100.4</ele><time>2026-04-19T08:42:28.006Z</time></trkpt><trkpt lat="45.3834017" lon="8.8348617"><ele>100.0</ele><time>2026-04-19T08:42:29.006Z</time></trkpt><trkpt lat="45.3833517" lon="8.8349867"><ele>100.0</ele><time>2026-04-19T08:42:30.005Z</time></trkpt><trkpt lat="45.3832983" lon="8.8351067"><ele>100.0</ele><time>2026-04-19T08:42:31.005Z</time></trkpt><trkpt lat="45.3832433" lon="8.8352017"><ele>100.0</ele><time>2026-04-19T08:42:32.006Z</time></trkpt><trkpt lat="45.38318" lon="8.83529"><ele>100.0</ele><time>2026-04-19T08:42:33.006Z</time></trkpt><trkpt lat="45.383125" lon="8.8353583"><ele>100.0</ele><time>2026-04-19T08:42:34.006Z</time></trkpt><trkpt lat="45.3830033" lon="8.8354067"><ele>100.2</ele><time>2026-04-19T08:42:36.005Z</time></trkpt><trkpt lat="45.382915" lon="8.8354217"><ele>100.4</ele><time>2026-04-19T08:42:37.006Z</time></trkpt><trkpt lat="45.3828117" lon="8.835435"><ele>100.6</ele><time>2026-04-19T08:42:38.005Z</time></trkpt><trkpt lat="45.3826917" lon="8.8354417"><ele>100.8</ele><time>2026-04-19T08:42:39.005Z</time></trkpt><trkpt lat="45.38256" lon="8.83547"><ele>101.0</ele><time>2026-04-19T08:42:40.005Z</time></trkpt><trkpt lat="45.3824333" lon="8.8354967"><ele>101.0</ele><time>2026-04-19T08:42:41.006Z</time></trkpt><trkpt lat="45.3823" lon="8.8355267"><ele>101.0</ele><time>2026-04-19T08:42:42.005Z</time></trkpt><trkpt lat="45.38218" lon="8.8355417"><ele>101.0</ele><time>2026-04-19T08:42:43.005Z</time></trkpt><trkpt lat="45.3820717" lon="8.83556"><ele>101.0</ele><time>2026-04-19T08:42:44.006Z</time></trkpt><trkpt lat="45.3819567" lon="8.835585"><ele>101.19999999999999</ele><time>2026-04-19T08:42:45.005Z</time></trkpt><trkpt lat="45.3818517" lon="8.835605"><ele>101.39999999999999</ele><time>2026-04-19T08:42:46.005Z</time></trkpt><trkpt lat="45.3817367" lon="8.8356267"><ele>101.6</ele><time>2026-04-19T08:42:47.006Z</time></trkpt><trkpt lat="45.3816333" lon="8.8356333"><ele>101.8</ele><time>2026-04-19T08:42:48.006Z</time></trkpt><trkpt lat="45.3815267" lon="8.835645"><ele>102.0</ele><time>2026-04-19T08:42:49.005Z</time></trkpt><trkpt lat="45.381415" lon="8.8356533"><ele>100.8</ele><time>2026-04-19T08:42:50.006Z</time></trkpt><trkpt lat="45.3813167" lon="8.8356567"><ele>99.6</ele><time>2026-04-19T08:42:51.006Z</time></trkpt><trkpt lat="45.38122" lon="8.83564"><ele>98.39999999999999</ele><time>2026-04-19T08:42:52.005Z</time></trkpt><trkpt lat="45.3811217" lon="8.8356183"><ele>97.19999999999999</ele><time>2026-04-19T08:42:53.006Z</time></trkpt><trkpt lat="45.3810283" lon="8.83558"><ele>96.0</ele><time>2026-04-19T08:42:54.006Z</time></trkpt><trkpt lat="45.3809367" lon="8.8355183"><ele>96.0</ele><time>2026-04-19T08:42:55.005Z</time></trkpt><trkpt lat="45.3808567" lon="8.8354717"><ele>96.0</ele><time>2026-04-19T08:42:56.005Z</time></trkpt><trkpt lat="45.38076" lon="8.8354233"><ele>96.0</ele><time>2026-04-19T08:42:57.005Z</time></trkpt><trkpt lat="45.3806667" lon="8.8354"><ele>96.0</ele><time>2026-04-19T08:42:58.006Z</time></trkpt><trkpt lat="45.3805683" lon="8.8354"><ele>96.0</ele><time>2026-04-19T08:42:59.006Z</time></trkpt><trkpt lat="45.38046" lon="8.8354017"><ele>96.19999999999999</ele><time>2026-04-19T08:43:00.006Z</time></trkpt><trkpt lat="45.380355" lon="8.8354033"><ele>96.39999999999999</ele><time>2026-04-19T08:43:01.006Z</time></trkpt><trkpt lat="45.380245" lon="8.8354"><ele>96.6</ele><time>2026-04-19T08:43:02.006Z</time></trkpt><trkpt lat="45.3801333" lon="8.835395"><ele>96.8</ele><time>2026-04-19T08:43:03.005Z</time></trkpt><trkpt lat="45.3800183" lon="8.8353883"><ele>97.0</ele><time>2026-04-19T08:43:04.005Z</time></trkpt><trkpt lat="45.3799033" lon="8.8353883"><ele>97.0</ele><time>2026-04-19T08:43:05.006Z</time></trkpt><trkpt lat="45.3797867" lon="8.8353883"><ele>97.0</ele><time>2026-04-19T08:43:06.006Z</time></trkpt><trkpt lat="45.37968" lon="8.8353883"><ele>97.0</ele><time>2026-04-19T08:43:07.005Z</time></trkpt><trkpt lat="45.379565" lon="8.8353767"><ele>97.0</ele><time>2026-04-19T08:43:08.006Z</time></trkpt><trkpt lat="45.3794467" lon="8.835365"><ele>96.8</ele><time>2026-04-19T08:43:09.005Z</time></trkpt><trkpt lat="45.3793283" lon="8.8353483"><ele>96.6</ele><time>2026-04-19T08:43:10.005Z</time></trkpt><trkpt lat="45.3792183" lon="8.8353267"><ele>96.39999999999999</ele><time>2026-04-19T08:43:11.005Z</time></trkpt><trkpt lat="45.37912" lon="8.8353033"><ele>96.19999999999999</ele><time>2026-04-19T08:43:12.006Z</time></trkpt><trkpt lat="45.3790333" lon="8.835275"><ele>96.0</ele><time>2026-04-19T08:43:13.005Z</time></trkpt><trkpt lat="45.378955" lon="8.8352517"><ele>96.0</ele><time>2026-04-19T08:43:14.006Z</time></trkpt><trkpt lat="45.37889" lon="8.8352167"><ele>96.0</ele><time>2026-04-19T08:43:15.006Z</time></trkpt><trkpt lat="45.3787983" lon="8.83513"><ele>96.0</ele><time>2026-04-19T08:43:17.006Z</time></trkpt><trkpt lat="45.37876" lon="8.8349717"><ele>96.0</ele><time>2026-04-19T08:43:19.006Z</time></trkpt><trkpt lat="45.3787467" lon="8.834865"><ele>96.0</ele><time>2026-04-19T08:43:20.005Z</time></trkpt><trkpt lat="45.3787317" lon="8.8347367"><ele>96.19999999999999</ele><time>2026-04-19T08:43:21.005Z</time></trkpt><trkpt lat="45.3787133" lon="8.8346033"><ele>96.39999999999999</ele><time>2026-04-19T08:43:22.005Z</time></trkpt><trkpt lat="45.3786933" lon="8.834455"><ele>96.6</ele><time>2026-04-19T08:43:23.005Z</time></trkpt><trkpt lat="45.3786717" lon="8.8342833"><ele>96.8</ele><time>2026-04-19T08:43:24.006Z</time></trkpt><trkpt lat="45.3786583" lon="8.83411"><ele>97.0</ele><time>2026-04-19T08:43:25.005Z</time></trkpt><trkpt lat="45.3786267" lon="8.833925"><ele>96.5</ele><time>2026-04-19T08:43:26.006Z</time></trkpt><trkpt lat="45.3786017" lon="8.8337383"><ele>96.0</ele><time>2026-04-19T08:43:27.006Z</time></trkpt><trkpt lat="45.3785783" lon="8.8335567"><ele>95.5</ele><time>2026-04-19T08:43:28.005Z</time></trkpt><trkpt lat="45.3785517" lon="8.8333717"><ele>95.0</ele><time>2026-04-19T08:43:29.005Z</time></trkpt><trkpt lat="45.3785133" lon="8.8331867"><ele>95.0</ele><time>2026-04-19T08:43:30.006Z</time></trkpt><trkpt lat="45.3784717" lon="8.8330083"><ele>95.0</ele><time>2026-04-19T08:43:31.006Z</time></trkpt><trkpt lat="45.3784333" lon="8.8328267"><ele>95.0</ele><time>2026-04-19T08:43:32.006Z</time></trkpt><trkpt lat="45.3783967" lon="8.8326467"><ele>95.0</ele><time>2026-04-19T08:43:33.005Z</time></trkpt><trkpt lat="45.3783583" lon="8.832455"><ele>95.25</ele><time>2026-04-19T08:43:34.005Z</time></trkpt><trkpt lat="45.3783217" lon="8.8322683"><ele>95.5</ele><time>2026-04-19T08:43:35.005Z</time></trkpt><trkpt lat="45.37828" lon="8.8320883"><ele>95.75</ele><time>2026-04-19T08:43:36.006Z</time></trkpt><trkpt lat="45.3782467" lon="8.8318967"><ele>96.0</ele><time>2026-04-19T08:43:37.006Z</time></trkpt><trkpt lat="45.37822" lon="8.8316933"><ele>96.25</ele><time>2026-04-19T08:43:38.006Z</time></trkpt><trkpt lat="45.3781833" lon="8.8314983"><ele>96.5</ele><time>2026-04-19T08:43:39.006Z</time></trkpt><trkpt lat="45.3781483" lon="8.831305"><ele>96.75</ele><time>2026-04-19T08:43:40.005Z</time></trkpt><trkpt lat="45.3781183" lon="8.8311133"><ele>97.0</ele><time>2026-04-19T08:43:41.006Z</time></trkpt><trkpt lat="45.3780883" lon="8.8309067"><ele>97.0</ele><time>2026-04-19T08:43:42.006Z</time></trkpt><trkpt lat="45.3780517" lon="8.83072"><ele>97.0</ele><time>2026-04-19T08:43:43.005Z</time></trkpt><trkpt lat="45.37802" lon="8.8305167"><ele>97.0</ele><time>2026-04-19T08:43:44.006Z</time></trkpt><trkpt lat="45.377995" lon="8.8303117"><ele>97.0</ele><time>2026-04-19T08:43:45.005Z</time></trkpt><trkpt lat="45.3779633" lon="8.8301133"><ele>98.25</ele><time>2026-04-19T08:43:46.006Z</time></trkpt><trkpt lat="45.3779233" lon="8.82992"><ele>99.5</ele><time>2026-04-19T08:43:47.006Z</time></trkpt><trkpt lat="45.3778833" lon="8.8297367"><ele>100.75</ele><time>2026-04-19T08:43:48.005Z</time></trkpt><trkpt lat="45.3778317" lon="8.8295683"><ele>102.0</ele><time>2026-04-19T08:43:49.005Z</time></trkpt><trkpt lat="45.37778" lon="8.8294133"><ele>103.0</ele><time>2026-04-19T08:43:50.005Z</time></trkpt><trkpt lat="45.37774" lon="8.82929"><ele>104.0</ele><time>2026-04-19T08:43:51.005Z</time></trkpt><trkpt lat="45.37771" lon="8.8291767"><ele>105.0</ele><time>2026-04-19T08:43:52.005Z</time></trkpt><trkpt lat="45.3776817" lon="8.8290783"><ele>106.0</ele><time>2026-04-19T08:43:53.006Z</time></trkpt><trkpt lat="45.3776333" lon="8.8290067"><ele>107.0</ele><time>2026-04-19T08:43:54.006Z</time></trkpt><trkpt lat="45.3775717" lon="8.8289483"><ele>108.0</ele><time>2026-04-19T08:43:55.006Z</time></trkpt><trkpt lat="45.3774917" lon="8.8289283"><ele>108.0</ele><time>2026-04-19T08:43:56.005Z</time></trkpt><trkpt lat="45.377405" lon="8.8289367"><ele>108.00000000000001</ele><time>2026-04-19T08:43:57.006Z</time></trkpt><trkpt lat="45.37731" lon="8.828955"><ele>108.00000000000001</ele><time>2026-04-19T08:43:58.005Z</time></trkpt><trkpt lat="45.3772133" lon="8.8289517"><ele>108.0</ele><time>2026-04-19T08:43:59.006Z</time></trkpt><trkpt lat="45.3771117" lon="8.8289383"><ele>108.0</ele><time>2026-04-19T08:44:00.006Z</time></trkpt><trkpt lat="45.3770133" lon="8.8288833"><ele>107.80000000000001</ele><time>2026-04-19T08:44:01.006Z</time></trkpt><trkpt lat="45.376915" lon="8.828805"><ele>107.60000000000001</ele><time>2026-04-19T08:44:02.006Z</time></trkpt><trkpt lat="45.3768317" lon="8.8287133"><ele>107.39999999999999</ele><time>2026-04-19T08:44:03.005Z</time></trkpt><trkpt lat="45.3767467" lon="8.8286133"><ele>107.19999999999999</ele><time>2026-04-19T08:44:04.006Z</time></trkpt><trkpt lat="45.3766683" lon="8.8284817"><ele>107.0</ele><time>2026-04-19T08:44:05.006Z</time></trkpt><trkpt lat="45.376585" lon="8.8283417"><ele>108.0</ele><time>2026-04-19T08:44:06.005Z</time></trkpt><trkpt lat="45.376495" lon="8.8282033"><ele>109.0</ele><time>2026-04-19T08:44:07.006Z</time></trkpt><trkpt lat="45.37638" lon="8.8280667"><ele>110.0</ele><time>2026-04-19T08:44:08.006Z</time></trkpt><trkpt lat="45.3762683" lon="8.8279233"><ele>111.0</ele><time>2026-04-19T08:44:09.006Z</time></trkpt><trkpt lat="45.3761533" lon="8.8277883"><ele>111.0</ele><time>2026-04-19T08:44:10.006Z</time></trkpt><trkpt lat="45.3760367" lon="8.8276517"><ele>111.0</ele><time>2026-04-19T08:44:11.006Z</time></trkpt><trkpt lat="45.3759267" lon="8.8275067"><ele>111.0</ele><time>2026-04-19T08:44:12.006Z</time></trkpt><trkpt lat="45.3758233" lon="8.8273667"><ele>111.0</ele><time>2026-04-19T08:44:13.005Z</time></trkpt><trkpt lat="45.3757183" lon="8.82725"><ele>111.0</ele><time>2026-04-19T08:44:14.006Z</time></trkpt><trkpt lat="45.3756233" lon="8.8271567"><ele>111.0</ele><time>2026-04-19T08:44:15.005Z</time></trkpt><trkpt lat="45.3755267" lon="8.8270683"><ele>111.0</ele><time>2026-04-19T08:44:16.005Z</time></trkpt><trkpt lat="45.375425" lon="8.8269817"><ele>111.0</ele><time>2026-04-19T08:44:17.005Z</time></trkpt><trkpt lat="45.3753283" lon="8.8269067"><ele>111.33333333333333</ele><time>2026-04-19T08:44:18.006Z</time></trkpt><trkpt lat="45.3752333" lon="8.8268483"><ele>111.66666666666666</ele><time>2026-04-19T08:44:19.005Z</time></trkpt><trkpt lat="45.3751467" lon="8.8267883"><ele>112.0</ele><time>2026-04-19T08:44:20.006Z</time></trkpt><trkpt lat="45.3750717" lon="8.82673"><ele>112.33333333333333</ele><time>2026-04-19T08:44:21.006Z</time></trkpt><trkpt lat="45.375005" lon="8.8266767"><ele>112.66666666666666</ele><time>2026-04-19T08:44:22.005Z</time></trkpt><trkpt lat="45.3749467" lon="8.8266283"><ele>113.0</ele><time>2026-04-19T08:44:23.005Z</time></trkpt><trkpt lat="45.3748817" lon="8.8265867"><ele>112.99999999999999</ele><time>2026-04-19T08:44:24.005Z</time></trkpt><trkpt lat="45.3748267" lon="8.826535"><ele>113.0</ele><time>2026-04-19T08:44:25.005Z</time></trkpt><trkpt lat="45.3747667" lon="8.8264933"><ele>113.0</ele><time>2026-04-19T08:44:26.005Z</time></trkpt><trkpt lat="45.3746517" lon="8.826445"><ele>113.0</ele><time>2026-04-19T08:44:28.006Z</time></trkpt><trkpt lat="45.37459" lon="8.8264633"><ele>112.99999999999999</ele><time>2026-04-19T08:44:29.006Z</time></trkpt><trkpt lat="45.3745383" lon="8.826515"><ele>113.0</ele><time>2026-04-19T08:44:30.006Z</time></trkpt><trkpt lat="45.374475" lon="8.826595"><ele>113.25</ele><time>2026-04-19T08:44:31.006Z</time></trkpt><trkpt lat="45.3743967" lon="8.82668"><ele>113.5</ele><time>2026-04-19T08:44:32.005Z</time></trkpt><trkpt lat="45.3742967" lon="8.826785"><ele>113.75</ele><time>2026-04-19T08:44:33.005Z</time></trkpt><trkpt lat="45.3741983" lon="8.826895"><ele>114.0</ele><time>2026-04-19T08:44:34.006Z</time></trkpt><trkpt lat="45.3741" lon="8.826995"><ele>113.5</ele><time>2026-04-19T08:44:35.005Z</time></trkpt><trkpt lat="45.373995" lon="8.8271"><ele>113.0</ele><time>2026-04-19T08:44:36.005Z</time></trkpt><trkpt lat="45.37389" lon="8.8271967"><ele>112.5</ele><time>2026-04-19T08:44:37.006Z</time></trkpt><trkpt lat="45.373785" lon="8.8273083"><ele>112.0</ele><time>2026-04-19T08:44:38.006Z</time></trkpt><trkpt lat="45.3736717" lon="8.8274183"><ele>111.75</ele><time>2026-04-19T08:44:39.005Z</time></trkpt><trkpt lat="45.37355" lon="8.8275333"><ele>111.5</ele><time>2026-04-19T08:44:40.005Z</time></trkpt><trkpt lat="45.3734283" lon="8.8276517"><ele>111.25</ele><time>2026-04-19T08:44:41.005Z</time></trkpt><trkpt lat="45.37331" lon="8.82776"><ele>111.0</ele><time>2026-04-19T08:44:42.006Z</time></trkpt><trkpt lat="45.3731967" lon="8.82787"><ele>111.0</ele><time>2026-04-19T08:44:43.006Z</time></trkpt><trkpt lat="45.3730817" lon="8.8279867"><ele>111.0</ele><time>2026-04-19T08:44:44.006Z</time></trkpt><trkpt lat="45.37297" lon="8.8281"><ele>111.0</ele><time>2026-04-19T08:44:45.005Z</time></trkpt><trkpt lat="45.3728683" lon="8.8282017"><ele>111.0</ele><time>2026-04-19T08:44:46.006Z</time></trkpt><trkpt lat="45.372785" lon="8.8282983"><ele>111.0</ele><time>2026-04-19T08:44:47.006Z</time></trkpt><trkpt lat="45.3727267" lon="8.828395"><ele>111.0</ele><time>2026-04-19T08:44:48.006Z</time></trkpt><trkpt lat="45.3726783" lon="8.8285"><ele>111.0</ele><time>2026-04-19T08:44:49.005Z</time></trkpt><trkpt lat="45.37264" lon="8.8286167"><ele>111.0</ele><time>2026-04-19T08:44:50.006Z</time></trkpt><trkpt lat="45.372595" lon="8.8287233"><ele>111.0</ele><time>2026-04-19T08:44:51.006Z</time></trkpt><trkpt lat="45.3725217" lon="8.8288133"><ele>111.0</ele><time>2026-04-19T08:44:52.005Z</time></trkpt><trkpt lat="45.3724217" lon="8.828865"><ele>111.0</ele><time>2026-04-19T08:44:53.005Z</time></trkpt><trkpt lat="45.372305" lon="8.8289183"><ele>111.0</ele><time>2026-04-19T08:44:54.006Z</time></trkpt><trkpt lat="45.372165" lon="8.8289733"><ele>111.0</ele><time>2026-04-19T08:44:55.004Z</time></trkpt><trkpt lat="45.3720133" lon="8.8290367"><ele>111.0</ele><time>2026-04-19T08:44:56.005Z</time></trkpt><trkpt lat="45.3718617" lon="8.8291217"><ele>111.0</ele><time>2026-04-19T08:44:57.004Z</time></trkpt><trkpt lat="45.37171" lon="8.8291983"><ele>111.0</ele><time>2026-04-19T08:44:58.005Z</time></trkpt><trkpt lat="45.3715583" lon="8.829285"><ele>111.0</ele><time>2026-04-19T08:44:59.005Z</time></trkpt><trkpt lat="45.37139" lon="8.8293767"><ele>111.0</ele><time>2026-04-19T08:45:00.004Z</time></trkpt><trkpt lat="45.3712233" lon="8.8294567"><ele>111.0</ele><time>2026-04-19T08:45:01.004Z</time></trkpt><trkpt lat="45.371055" lon="8.8295467"><ele>111.0</ele><time>2026-04-19T08:45:02.005Z</time></trkpt><trkpt lat="45.3708933" lon="8.8296317"><ele>111.0</ele><time>2026-04-19T08:45:03.005Z</time></trkpt><trkpt lat="45.3707317" lon="8.8297117"><ele>111.0</ele><time>2026-04-19T08:45:04.004Z</time></trkpt><trkpt lat="45.3705783" lon="8.82979"><ele>111.0</ele><time>2026-04-19T08:45:05.005Z</time></trkpt><trkpt lat="45.3704133" lon="8.8298833"><ele>111.0</ele><time>2026-04-19T08:45:06.004Z</time></trkpt><trkpt lat="45.3702483" lon="8.8299683"><ele>111.0</ele><time>2026-04-19T08:45:07.005Z</time></trkpt><trkpt lat="45.3700783" lon="8.8300483"><ele>111.0</ele><time>2026-04-19T08:45:08.005Z</time></trkpt><trkpt lat="45.36991" lon="8.830135"><ele>111.0</ele><time>2026-04-19T08:45:09.004Z</time></trkpt><trkpt lat="45.369745" lon="8.83022"><ele>111.0</ele><time>2026-04-19T08:45:10.004Z</time></trkpt><trkpt lat="45.3695983" lon="8.8302983"><ele>111.25</ele><time>2026-04-19T08:45:11.004Z</time></trkpt><trkpt lat="45.36946" lon="8.83039"><ele>111.5</ele><time>2026-04-19T08:45:12.004Z</time></trkpt><trkpt lat="45.369325" lon="8.8304633"><ele>111.75</ele><time>2026-04-19T08:45:13.005Z</time></trkpt><trkpt lat="45.369205" lon="8.8305217"><ele>112.0</ele><time>2026-04-19T08:45:14.005Z</time></trkpt><trkpt lat="45.369085" lon="8.830585"><ele>112.0</ele><time>2026-04-19T08:45:15.004Z</time></trkpt><trkpt lat="45.3689767" lon="8.8306417"><ele>112.0</ele><time>2026-04-19T08:45:16.005Z</time></trkpt><trkpt lat="45.368865" lon="8.8306967"><ele>112.0</ele><time>2026-04-19T08:45:17.005Z</time></trkpt><trkpt lat="45.36876" lon="8.8307567"><ele>112.0</ele><time>2026-04-19T08:45:18.005Z</time></trkpt><trkpt lat="45.3686467" lon="8.8308117"><ele>111.8</ele><time>2026-04-19T08:45:19.004Z</time></trkpt><trkpt lat="45.3685483" lon="8.8308683"><ele>111.6</ele><time>2026-04-19T08:45:20.004Z</time></trkpt><trkpt lat="45.3684483" lon="8.8309283"><ele>111.39999999999999</ele><time>2026-04-19T08:45:21.005Z</time></trkpt><trkpt lat="45.3683467" lon="8.83099"><ele>111.19999999999999</ele><time>2026-04-19T08:45:22.005Z</time></trkpt><trkpt lat="45.3682417" lon="8.83106"><ele>111.0</ele><time>2026-04-19T08:45:23.005Z</time></trkpt><trkpt lat="45.3681333" lon="8.8311117"><ele>110.75</ele><time>2026-04-19T08:45:24.004Z</time></trkpt><trkpt lat="45.3680233" lon="8.8311883"><ele>110.5</ele><time>2026-04-19T08:45:25.004Z</time></trkpt><trkpt lat="45.3679033" lon="8.8312683"><ele>110.25</ele><time>2026-04-19T08:45:26.005Z</time></trkpt><trkpt lat="45.3677667" lon="8.8313417"><ele>110.0</ele><time>2026-04-19T08:45:27.005Z</time></trkpt><trkpt lat="45.3676283" lon="8.8314167"><ele>110.0</ele><time>2026-04-19T08:45:28.004Z</time></trkpt><trkpt lat="45.3674867" lon="8.8314967"><ele>110.0</ele><time>2026-04-19T08:45:29.005Z</time></trkpt><trkpt lat="45.367355" lon="8.831585"><ele>110.0</ele><time>2026-04-19T08:45:30.005Z</time></trkpt><trkpt lat="45.367225" lon="8.8316633"><ele>110.0</ele><time>2026-04-19T08:45:31.004Z</time></trkpt><trkpt lat="45.3670917" lon="8.8317367"><ele>110.25</ele><time>2026-04-19T08:45:32.005Z</time></trkpt><trkpt lat="45.36696" lon="8.83181"><ele>110.5</ele><time>2026-04-19T08:45:33.005Z</time></trkpt><trkpt lat="45.3668217" lon="8.8318883"><ele>110.75</ele><time>2026-04-19T08:45:34.004Z</time></trkpt><trkpt lat="45.3666867" lon="8.831965"><ele>111.0</ele><time>2026-04-19T08:45:35.005Z</time></trkpt><trkpt lat="45.366545" lon="8.8320483"><ele>111.0</ele><time>2026-04-19T08:45:36.005Z</time></trkpt><trkpt lat="45.3664083" lon="8.8321333"><ele>111.0</ele><time>2026-04-19T08:45:37.005Z</time></trkpt><trkpt lat="45.3662817" lon="8.8322"><ele>111.0</ele><time>2026-04-19T08:45:38.005Z</time></trkpt><trkpt lat="45.36615" lon="8.832275"><ele>111.0</ele><time>2026-04-19T08:45:39.004Z</time></trkpt><trkpt lat="45.3660233" lon="8.8323533"><ele>111.25</ele><time>2026-04-19T08:45:40.005Z</time></trkpt><trkpt lat="45.3658983" lon="8.832425"><ele>111.5</ele><time>2026-04-19T08:45:41.004Z</time></trkpt><trkpt lat="45.3657833" lon="8.83249"><ele>111.75</ele><time>2026-04-19T08:45:42.005Z</time></trkpt><trkpt lat="45.3656767" lon="8.832535"><ele>112.0</ele><time>2026-04-19T08:45:43.005Z</time></trkpt><trkpt lat="45.3655783" lon="8.83259"><ele>111.8</ele><time>2026-04-19T08:45:44.004Z</time></trkpt><trkpt lat="45.36549" lon="8.8326467"><ele>111.6</ele><time>2026-04-19T08:45:45.005Z</time></trkpt><trkpt lat="45.3654" lon="8.8326883"><ele>111.39999999999999</ele><time>2026-04-19T08:45:46.005Z</time></trkpt><trkpt lat="45.3653067" lon="8.8327633"><ele>111.19999999999999</ele><time>2026-04-19T08:45:47.005Z</time></trkpt><trkpt lat="45.3651883" lon="8.8328267"><ele>111.0</ele><time>2026-04-19T08:45:48.005Z</time></trkpt><trkpt lat="45.3650617" lon="8.8329"><ele>111.0</ele><time>2026-04-19T08:45:49.005Z</time></trkpt><trkpt lat="45.364935" lon="8.8329883"><ele>111.0</ele><time>2026-04-19T08:45:50.005Z</time></trkpt><trkpt lat="45.3647967" lon="8.8330717"><ele>111.0</ele><time>2026-04-19T08:45:51.004Z</time></trkpt><trkpt lat="45.364655" lon="8.8331567"><ele>111.0</ele><time>2026-04-19T08:45:52.005Z</time></trkpt><trkpt lat="45.3645117" lon="8.8332333"><ele>110.75</ele><time>2026-04-19T08:45:53.005Z</time></trkpt><trkpt lat="45.3643683" lon="8.8333133"><ele>110.5</ele><time>2026-04-19T08:45:54.004Z</time></trkpt><trkpt lat="45.364235" lon="8.83339"><ele>110.25</ele><time>2026-04-19T08:45:55.005Z</time></trkpt><trkpt lat="45.3641083" lon="8.8334633"><ele>110.0</ele><time>2026-04-19T08:45:56.005Z</time></trkpt><trkpt lat="45.36398" lon="8.8335567"><ele>110.0</ele><time>2026-04-19T08:45:57.004Z</time></trkpt><trkpt lat="45.3638433" lon="8.83366"><ele>110.0</ele><time>2026-04-19T08:45:58.004Z</time></trkpt><trkpt lat="45.363705" lon="8.8337683"><ele>110.0</ele><time>2026-04-19T08:45:59.005Z</time></trkpt><trkpt lat="45.3635667" lon="8.8338667"><ele>110.0</ele><time>2026-04-19T08:46:00.005Z</time></trkpt><trkpt lat="45.3634283" lon="8.8339483"><ele>110.0</ele><time>2026-04-19T08:46:01.005Z</time></trkpt><trkpt lat="45.3632767" lon="8.83403"><ele>110.0</ele><time>2026-04-19T08:46:02.004Z</time></trkpt><trkpt lat="45.3631267" lon="8.8341167"><ele>110.0</ele><time>2026-04-19T08:46:03.004Z</time></trkpt><trkpt lat="45.3629767" lon="8.8342"><ele>110.0</ele><time>2026-04-19T08:46:04.005Z</time></trkpt><trkpt lat="45.362825" lon="8.8342883"><ele>110.0</ele><time>2026-04-19T08:46:05.004Z</time></trkpt><trkpt lat="45.362675" lon="8.8343833"><ele>110.0</ele><time>2026-04-19T08:46:06.005Z</time></trkpt><trkpt lat="45.3625317" lon="8.8344817"><ele>110.0</ele><time>2026-04-19T08:46:07.005Z</time></trkpt><trkpt lat="45.3623833" lon="8.83459"><ele>110.0</ele><time>2026-04-19T08:46:08.005Z</time></trkpt><trkpt lat="45.3622317" lon="8.8346967"><ele>110.33333333333333</ele><time>2026-04-19T08:46:09.005Z</time></trkpt><trkpt lat="45.3620867" lon="8.8348"><ele>110.66666666666666</ele><time>2026-04-19T08:46:10.005Z</time></trkpt><trkpt lat="45.36193" lon="8.8349083"><ele>111.0</ele><time>2026-04-19T08:46:11.004Z</time></trkpt><trkpt lat="45.361775" lon="8.8350133"><ele>111.0</ele><time>2026-04-19T08:46:12.005Z</time></trkpt><trkpt lat="45.361625" lon="8.8351167"><ele>111.0</ele><time>2026-04-19T08:46:13.005Z</time></trkpt><trkpt lat="45.361485" lon="8.83522"><ele>111.0</ele><time>2026-04-19T08:46:14.005Z</time></trkpt><trkpt lat="45.3613433" lon="8.8353333"><ele>110.66666666666666</ele><time>2026-04-19T08:46:15.004Z</time></trkpt><trkpt lat="45.36121" lon="8.8354533"><ele>110.33333333333333</ele><time>2026-04-19T08:46:16.005Z</time></trkpt><trkpt lat="45.36108" lon="8.8355567"><ele>110.0</ele><time>2026-04-19T08:46:17.004Z</time></trkpt><trkpt lat="45.360945" lon="8.8356433"><ele>110.0</ele><time>2026-04-19T08:46:18.004Z</time></trkpt><trkpt lat="45.3608233" lon="8.83573"><ele>110.0</ele><time>2026-04-19T08:46:19.005Z</time></trkpt><trkpt lat="45.3607167" lon="8.8358117"><ele>110.0</ele><time>2026-04-19T08:46:20.005Z</time></trkpt><trkpt lat="45.3606183" lon="8.8358817"><ele>110.0</ele><time>2026-04-19T08:46:21.005Z</time></trkpt><trkpt lat="45.3605333" lon="8.83594"><ele>109.99999999999999</ele><time>2026-04-19T08:46:22.005Z</time></trkpt><trkpt lat="45.36046" lon="8.8359633"><ele>110.0</ele><time>2026-04-19T08:46:23.004Z</time></trkpt><trkpt lat="45.360385" lon="8.835955"><ele>110.0</ele><time>2026-04-19T08:46:24.005Z</time></trkpt><trkpt lat="45.3603133" lon="8.83591"><ele>110.0</ele><time>2026-04-19T08:46:25.004Z</time></trkpt><trkpt lat="45.3602483" lon="8.835845"><ele>109.99999999999999</ele><time>2026-04-19T08:46:26.005Z</time></trkpt><trkpt lat="45.36018" lon="8.8358317"><ele>110.0</ele><time>2026-04-19T08:46:27.005Z</time></trkpt><trkpt lat="45.3601017" lon="8.83584"><ele>110.0</ele><time>2026-04-19T08:46:28.005Z</time></trkpt><trkpt lat="45.3600167" lon="8.83588"><ele>110.0</ele><time>2026-04-19T08:46:29.005Z</time></trkpt><trkpt lat="45.3599233" lon="8.83595"><ele>110.0</ele><time>2026-04-19T08:46:30.004Z</time></trkpt><trkpt lat="45.35982" lon="8.8360167"><ele>110.0</ele><time>2026-04-19T08:46:31.004Z</time></trkpt><trkpt lat="45.3597167" lon="8.83608"><ele>110.0</ele><time>2026-04-19T08:46:32.004Z</time></trkpt><trkpt lat="45.35961" lon="8.8361367"><ele>109.75</ele><time>2026-04-19T08:46:33.005Z</time></trkpt><trkpt lat="45.3594983" lon="8.8361983"><ele>109.5</ele><time>2026-04-19T08:46:34.005Z</time></trkpt><trkpt lat="45.3593867" lon="8.8362583"><ele>109.25</ele><time>2026-04-19T08:46:35.004Z</time></trkpt><trkpt lat="45.3592733" lon="8.8363183"><ele>109.0</ele><time>2026-04-19T08:46:36.005Z</time></trkpt><trkpt lat="45.3591467" lon="8.8363933"><ele>109.0</ele><time>2026-04-19T08:46:37.004Z</time></trkpt><trkpt lat="45.3590217" lon="8.8364683"><ele>109.0</ele><time>2026-04-19T08:46:38.004Z</time></trkpt><trkpt lat="45.3588967" lon="8.8365367"><ele>109.0</ele><time>2026-04-19T08:46:39.005Z</time></trkpt><trkpt lat="45.35876" lon="8.83661"><ele>109.0</ele><time>2026-04-19T08:46:40.004Z</time></trkpt><trkpt lat="45.358625" lon="8.83669"><ele>109.0</ele><time>2026-04-19T08:46:41.004Z</time></trkpt><trkpt lat="45.358485" lon="8.8367583"><ele>109.0</ele><time>2026-04-19T08:46:42.005Z</time></trkpt><trkpt lat="45.3583467" lon="8.8368383"><ele>109.0</ele><time>2026-04-19T08:46:43.004Z</time></trkpt><trkpt lat="45.3582033" lon="8.836915"><ele>109.0</ele><time>2026-04-19T08:46:44.004Z</time></trkpt><trkpt lat="45.35805" lon="8.836995"><ele>109.0</ele><time>2026-04-19T08:46:45.005Z</time></trkpt><trkpt lat="45.3578983" lon="8.83707"><ele>109.0</ele><time>2026-04-19T08:46:46.004Z</time></trkpt><trkpt lat="45.357755" lon="8.83714"><ele>109.33333333333334</ele><time>2026-04-19T08:46:47.005Z</time></trkpt><trkpt lat="45.3576067" lon="8.8372183"><ele>109.66666666666666</ele><time>2026-04-19T08:46:48.004Z</time></trkpt><trkpt lat="45.3574633" lon="8.837295"><ele>110.0</ele><time>2026-04-19T08:46:49.004Z</time></trkpt><trkpt lat="45.357325" lon="8.837365"><ele>109.75</ele><time>2026-04-19T08:46:50.004Z</time></trkpt><trkpt lat="45.3571883" lon="8.8374383"><ele>109.5</ele><time>2026-04-19T08:46:51.005Z</time></trkpt><trkpt lat="45.3570533" lon="8.8375083"><ele>109.25</ele><time>2026-04-19T08:46:52.004Z</time></trkpt><trkpt lat="45.35694" lon="8.837565"><ele>109.0</ele><time>2026-04-19T08:46:53.004Z</time></trkpt><trkpt lat="45.3568317" lon="8.8376317"><ele>109.00000000000001</ele><time>2026-04-19T08:46:54.005Z</time></trkpt><trkpt lat="45.3567333" lon="8.8376783"><ele>109.0</ele><time>2026-04-19T08:46:55.005Z</time></trkpt><trkpt lat="45.35664" lon="8.8377217"><ele>109.0</ele><time>2026-04-19T08:46:56.005Z</time></trkpt><trkpt lat="45.3565717" lon="8.8377817"><ele>109.0</ele><time>2026-04-19T08:46:57.005Z</time></trkpt><trkpt lat="45.35652" lon="8.83786"><ele>109.00000000000001</ele><time>2026-04-19T08:46:58.005Z</time></trkpt><trkpt lat="45.35649" lon="8.8379533"><ele>109.0</ele><time>2026-04-19T08:46:59.005Z</time></trkpt><trkpt lat="45.3564783" lon="8.8380517"><ele>109.0</ele><time>2026-04-19T08:47:00.005Z</time></trkpt><trkpt lat="45.3564867" lon="8.838175"><ele>109.0</ele><time>2026-04-19T08:47:01.004Z</time></trkpt><trkpt lat="45.356515" lon="8.8383167"><ele>109.0</ele><time>2026-04-19T08:47:02.005Z</time></trkpt><trkpt lat="45.356555" lon="8.83846"><ele>109.0</ele><time>2026-04-19T08:47:03.004Z</time></trkpt><trkpt lat="45.3566" lon="8.8386117"><ele>109.0</ele><time>2026-04-19T08:47:04.004Z</time></trkpt><trkpt lat="45.3566367" lon="8.8387617"><ele>108.6</ele><time>2026-04-19T08:47:05.005Z</time></trkpt><trkpt lat="45.3566633" lon="8.83891"><ele>108.2</ele><time>2026-04-19T08:47:06.004Z</time></trkpt><trkpt lat="45.3566717" lon="8.839055"><ele>107.79999999999998</ele><time>2026-04-19T08:47:07.005Z</time></trkpt><trkpt lat="45.35665" lon="8.8391933"><ele>107.39999999999999</ele><time>2026-04-19T08:47:08.005Z</time></trkpt><trkpt lat="45.356605" lon="8.8392983"><ele>107.0</ele><time>2026-04-19T08:47:09.005Z</time></trkpt><trkpt lat="45.3565417" lon="8.839395"><ele>106.75</ele><time>2026-04-19T08:47:10.005Z</time></trkpt><trkpt lat="45.3564667" lon="8.8394767"><ele>106.5</ele><time>2026-04-19T08:47:11.005Z</time></trkpt><trkpt lat="45.35636" lon="8.839545"><ele>106.25</ele><time>2026-04-19T08:47:12.005Z</time></trkpt><trkpt lat="45.3562333" lon="8.8396"><ele>106.0</ele><time>2026-04-19T08:47:13.004Z</time></trkpt><trkpt lat="45.3561" lon="8.8396617"><ele>106.0</ele><time>2026-04-19T08:47:14.005Z</time></trkpt><trkpt lat="45.3559717" lon="8.8397317"><ele>106.0</ele><time>2026-04-19T08:47:15.004Z</time></trkpt><trkpt lat="45.3558533" lon="8.8397867"><ele>106.0</ele><time>2026-04-19T08:47:16.005Z</time></trkpt><trkpt lat="45.3557333" lon="8.8398417"><ele>106.0</ele><time>2026-04-19T08:47:17.004Z</time></trkpt><trkpt lat="45.3556267" lon="8.8399217"><ele>106.5</ele><time>2026-04-19T08:47:18.005Z</time></trkpt><trkpt lat="45.3555167" lon="8.8399867"><ele>107.0</ele><time>2026-04-19T08:47:19.005Z</time></trkpt><trkpt lat="45.35541" lon="8.8400717"><ele>107.5</ele><time>2026-04-19T08:47:20.005Z</time></trkpt><trkpt lat="45.3552983" lon="8.8401633"><ele>108.0</ele><time>2026-04-19T08:47:21.004Z</time></trkpt><trkpt lat="45.3551867" lon="8.8402683"><ele>108.0</ele><time>2026-04-19T08:47:22.004Z</time></trkpt><trkpt lat="45.3550767" lon="8.8403783"><ele>108.0</ele><time>2026-04-19T08:47:23.005Z</time></trkpt><trkpt lat="45.3549517" lon="8.8404833"><ele>108.0</ele><time>2026-04-19T08:47:24.004Z</time></trkpt><trkpt lat="45.354835" lon="8.84058"><ele>108.0</ele><time>2026-04-19T08:47:25.004Z</time></trkpt><trkpt lat="45.354705" lon="8.8406633"><ele>108.25</ele><time>2026-04-19T08:47:26.005Z</time></trkpt><trkpt lat="45.3545733" lon="8.840735"><ele>108.5</ele><time>2026-04-19T08:47:27.004Z</time></trkpt><trkpt lat="45.3544383" lon="8.840805"><ele>108.75</ele><time>2026-04-19T08:47:28.004Z</time></trkpt><trkpt lat="45.3543067" lon="8.8408767"><ele>109.0</ele><time>2026-04-19T08:47:29.005Z</time></trkpt><trkpt lat="45.3541667" lon="8.8409583"><ele>109.0</ele><time>2026-04-19T08:47:30.005Z</time></trkpt><trkpt lat="45.3540233" lon="8.8410417"><ele>109.0</ele><time>2026-04-19T08:47:31.004Z</time></trkpt><trkpt lat="45.3538617" lon="8.84115"><ele>109.0</ele><time>2026-04-19T08:47:32.004Z</time></trkpt><trkpt lat="45.3536967" lon="8.8412867"><ele>108.66666666666667</ele><time>2026-04-19T08:47:33.004Z</time></trkpt><trkpt lat="45.3535367" lon="8.841425"><ele>108.33333333333334</ele><time>2026-04-19T08:47:34.004Z</time></trkpt><trkpt lat="45.35338" lon="8.841555"><ele>108.0</ele><time>2026-04-19T08:47:35.005Z</time></trkpt><trkpt lat="45.35323" lon="8.8416767"><ele>108.33333333333334</ele><time>2026-04-19T08:47:36.005Z</time></trkpt><trkpt lat="45.353065" lon="8.84182"><ele>108.66666666666667</ele><time>2026-04-19T08:47:37.004Z</time></trkpt><trkpt lat="45.3529083" lon="8.84196"><ele>109.0</ele><time>2026-04-19T08:47:38.005Z</time></trkpt><trkpt lat="45.35276" lon="8.8420817"><ele>109.0</ele><time>2026-04-19T08:47:39.005Z</time></trkpt><trkpt lat="45.3526267" lon="8.8421867"><ele>109.0</ele><time>2026-04-19T08:47:40.004Z</time></trkpt><trkpt lat="45.3525017" lon="8.8423083"><ele>109.0</ele><time>2026-04-19T08:47:41.004Z</time></trkpt><trkpt lat="45.35236" lon="8.8424183"><ele>109.0</ele><time>2026-04-19T08:47:42.004Z</time></trkpt><trkpt lat="45.3522217" lon="8.8425383"><ele>109.0</ele><time>2026-04-19T08:47:43.004Z</time></trkpt><trkpt lat="45.3520833" lon="8.8426533"><ele>109.0</ele><time>2026-04-19T08:47:44.004Z</time></trkpt><trkpt lat="45.3519383" lon="8.842765"><ele>108.66666666666667</ele><time>2026-04-19T08:47:45.005Z</time></trkpt><trkpt lat="45.3517817" lon="8.8428867"><ele>108.33333333333334</ele><time>2026-04-19T08:47:46.004Z</time></trkpt><trkpt lat="45.3516067" lon="8.8430233"><ele>108.0</ele><time>2026-04-19T08:47:47.005Z</time></trkpt><trkpt lat="45.3514233" lon="8.8431817"><ele>108.0</ele><time>2026-04-19T08:47:48.005Z</time></trkpt><trkpt lat="45.3512183" lon="8.8433433"><ele>108.0</ele><time>2026-04-19T08:47:49.005Z</time></trkpt><trkpt lat="45.3510167" lon="8.84352"><ele>108.0</ele><time>2026-04-19T08:47:50.005Z</time></trkpt><trkpt lat="45.3507933" lon="8.8437117"><ele>108.0</ele><time>2026-04-19T08:47:51.005Z</time></trkpt><trkpt lat="45.3505817" lon="8.84389"><ele>108.33333333333334</ele><time>2026-04-19T08:47:52.005Z</time></trkpt><trkpt lat="45.3503917" lon="8.8440583"><ele>108.66666666666667</ele><time>2026-04-19T08:47:53.004Z</time></trkpt><trkpt lat="45.3502167" lon="8.8441967"><ele>109.0</ele><time>2026-04-19T08:47:54.005Z</time></trkpt><trkpt lat="45.3500667" lon="8.8443233"><ele>109.0</ele><time>2026-04-19T08:47:55.005Z</time></trkpt><trkpt lat="45.3499267" lon="8.8444433"><ele>109.0</ele><time>2026-04-19T08:47:56.005Z</time></trkpt><trkpt lat="45.3498033" lon="8.84456"><ele>109.0</ele><time>2026-04-19T08:47:57.004Z</time></trkpt><trkpt lat="45.3496817" lon="8.8446783"><ele>109.0</ele><time>2026-04-19T08:47:58.004Z</time></trkpt><trkpt lat="45.3495633" lon="8.844775"><ele>109.0</ele><time>2026-04-19T08:47:59.005Z</time></trkpt><trkpt lat="45.3494333" lon="8.84487"><ele>109.0</ele><time>2026-04-19T08:48:00.004Z</time></trkpt><trkpt lat="45.3492817" lon="8.8449633"><ele>109.0</ele><time>2026-04-19T08:48:01.005Z</time></trkpt><trkpt lat="45.3491283" lon="8.8450483"><ele>109.0</ele><time>2026-04-19T08:48:02.005Z</time></trkpt><trkpt lat="45.3489717" lon="8.8451367"><ele>109.0</ele><time>2026-04-19T08:48:03.005Z</time></trkpt><trkpt lat="45.348815" lon="8.845225"><ele>109.0</ele><time>2026-04-19T08:48:04.004Z</time></trkpt><trkpt lat="45.3486633" lon="8.8453117"><ele>108.66666666666667</ele><time>2026-04-19T08:48:05.005Z</time></trkpt><trkpt lat="45.3485167" lon="8.84541"><ele>108.33333333333334</ele><time>2026-04-19T08:48:06.005Z</time></trkpt><trkpt lat="45.3483717" lon="8.8455083"><ele>108.0</ele><time>2026-04-19T08:48:07.004Z</time></trkpt><trkpt lat="45.3482233" lon="8.8456117"><ele>108.0</ele><time>2026-04-19T08:48:08.005Z</time></trkpt><trkpt lat="45.3480667" lon="8.8457033"><ele>108.0</ele><time>2026-04-19T08:48:09.004Z</time></trkpt><trkpt lat="45.3479467" lon="8.845785"><ele>108.0</ele><time>2026-04-19T08:48:10.005Z</time></trkpt><trkpt lat="45.3478467" lon="8.845845"><ele>108.0</ele><time>2026-04-19T08:48:11.004Z</time></trkpt><trkpt lat="45.3477583" lon="8.8459017"><ele>108.16666666666667</ele><time>2026-04-19T08:48:12.005Z</time></trkpt><trkpt lat="45.347685" lon="8.8459467"><ele>108.33333333333334</ele><time>2026-04-19T08:48:13.005Z</time></trkpt><trkpt lat="45.3476217" lon="8.84599"><ele>108.5</ele><time>2026-04-19T08:48:14.004Z</time></trkpt><trkpt lat="45.3475567" lon="8.8460267"><ele>108.66666666666667</ele><time>2026-04-19T08:48:15.004Z</time></trkpt><trkpt lat="45.3474983" lon="8.8460633"><ele>108.83333333333334</ele><time>2026-04-19T08:48:16.005Z</time></trkpt><trkpt lat="45.34739" lon="8.846125"><ele>109.0</ele><time>2026-04-19T08:48:18.004Z</time></trkpt><trkpt lat="45.3472867" lon="8.8461817"><ele>108.6</ele><time>2026-04-19T08:48:20.005Z</time></trkpt><trkpt lat="45.3471917" lon="8.8462433"><ele>108.2</ele><time>2026-04-19T08:48:22.004Z</time></trkpt><trkpt lat="45.34709" lon="8.8463133"><ele>107.79999999999998</ele><time>2026-04-19T08:48:24.005Z</time></trkpt><trkpt lat="45.3469933" lon="8.8463733"><ele>107.39999999999999</ele><time>2026-04-19T08:48:26.004Z</time></trkpt><trkpt lat="45.3468983" lon="8.84644"><ele>107.0</ele><time>2026-04-19T08:48:28.004Z</time></trkpt><trkpt lat="45.3468017" lon="8.8464933"><ele>107.0</ele><time>2026-04-19T08:48:30.004Z</time></trkpt><trkpt lat="45.3467033" lon="8.846545"><ele>106.99999999999999</ele><time>2026-04-19T08:48:32.004Z</time></trkpt><trkpt lat="45.346585" lon="8.846615"><ele>106.99999999999999</ele><time>2026-04-19T08:48:34.004Z</time></trkpt><trkpt lat="45.3465067" lon="8.8466583"><ele>107.0</ele><time>2026-04-19T08:48:35.004Z</time></trkpt><trkpt lat="45.346425" lon="8.8467133"><ele>107.0</ele><time>2026-04-19T08:48:36.004Z</time></trkpt><trkpt lat="45.3463317" lon="8.8467667"><ele>107.25</ele><time>2026-04-19T08:48:37.005Z</time></trkpt><trkpt lat="45.3462283" lon="8.846825"><ele>107.5</ele><time>2026-04-19T08:48:38.004Z</time></trkpt><trkpt lat="45.3461283" lon="8.84689"><ele>107.75</ele><time>2026-04-19T08:48:39.004Z</time></trkpt><trkpt lat="45.3460217" lon="8.8469583"><ele>108.0</ele><time>2026-04-19T08:48:40.005Z</time></trkpt><trkpt lat="45.345915" lon="8.847025"><ele>108.0</ele><time>2026-04-19T08:48:41.005Z</time></trkpt><trkpt lat="45.3458033" lon="8.8470917"><ele>108.0</ele><time>2026-04-19T08:48:42.005Z</time></trkpt><trkpt lat="45.3457" lon="8.8471617"><ele>108.0</ele><time>2026-04-19T08:48:43.005Z</time></trkpt><trkpt lat="45.345585" lon="8.847225"><ele>108.0</ele><time>2026-04-19T08:48:44.005Z</time></trkpt><trkpt lat="45.3454733" lon="8.847295"><ele>108.0</ele><time>2026-04-19T08:48:45.005Z</time></trkpt><trkpt lat="45.3453533" lon="8.847365"><ele>108.0</ele><time>2026-04-19T08:48:46.005Z</time></trkpt><trkpt lat="45.3452333" lon="8.8474367"><ele>108.0</ele><time>2026-04-19T08:48:47.005Z</time></trkpt><trkpt lat="45.345115" lon="8.8475017"><ele>108.0</ele><time>2026-04-19T08:48:48.005Z</time></trkpt><trkpt lat="45.3450033" lon="8.8475717"><ele>107.75</ele><time>2026-04-19T08:48:49.005Z</time></trkpt><trkpt lat="45.3448867" lon="8.8476417"><ele>107.5</ele><time>2026-04-19T08:48:50.004Z</time></trkpt><trkpt lat="45.3447733" lon="8.8477033"><ele>107.25</ele><time>2026-04-19T08:48:51.005Z</time></trkpt><trkpt lat="45.344655" lon="8.8477733"><ele>107.0</ele><time>2026-04-19T08:48:52.005Z</time></trkpt><trkpt lat="45.3445433" lon="8.8478367"><ele>107.0</ele><time>2026-04-19T08:48:53.004Z</time></trkpt><trkpt lat="45.3444333" lon="8.8479017"><ele>107.0</ele><time>2026-04-19T08:48:54.004Z</time></trkpt><trkpt lat="45.3443267" lon="8.8479583"><ele>107.0</ele><time>2026-04-19T08:48:55.005Z</time></trkpt><trkpt lat="45.3442183" lon="8.84802"><ele>107.0</ele><time>2026-04-19T08:48:56.005Z</time></trkpt><trkpt lat="45.3441117" lon="8.848085"><ele>107.0</ele><time>2026-04-19T08:48:57.004Z</time></trkpt><trkpt lat="45.3439983" lon="8.8481483"><ele>107.0</ele><time>2026-04-19T08:48:58.005Z</time></trkpt><trkpt lat="45.3438883" lon="8.8482183"><ele>107.0</ele><time>2026-04-19T08:48:59.004Z</time></trkpt><trkpt lat="45.3437733" lon="8.8482733"><ele>107.0</ele><time>2026-04-19T08:49:00.005Z</time></trkpt><trkpt lat="45.34366" lon="8.8483433"><ele>107.0</ele><time>2026-04-19T08:49:01.005Z</time></trkpt><trkpt lat="45.34354" lon="8.8483967"><ele>107.0</ele><time>2026-04-19T08:49:02.005Z</time></trkpt><trkpt lat="45.343425" lon="8.848455"><ele>107.0</ele><time>2026-04-19T08:49:03.005Z</time></trkpt><trkpt lat="45.34331" lon="8.8485117"><ele>107.0</ele><time>2026-04-19T08:49:04.005Z</time></trkpt><trkpt lat="45.3432" lon="8.8485717"><ele>107.0</ele><time>2026-04-19T08:49:05.004Z</time></trkpt><trkpt lat="45.3430833" lon="8.8486267"><ele>107.0</ele><time>2026-04-19T08:49:06.004Z</time></trkpt><trkpt lat="45.342965" lon="8.84868"><ele>107.0</ele><time>2026-04-19T08:49:07.004Z</time></trkpt><trkpt lat="45.34285" lon="8.8487383"><ele>107.0</ele><time>2026-04-19T08:49:08.005Z</time></trkpt><trkpt lat="45.3427317" lon="8.8488083"><ele>107.25</ele><time>2026-04-19T08:49:09.005Z</time></trkpt><trkpt lat="45.3426133" lon="8.84888"><ele>107.5</ele><time>2026-04-19T08:49:10.005Z</time></trkpt><trkpt lat="45.3424883" lon="8.8489533"><ele>107.75</ele><time>2026-04-19T08:49:11.004Z</time></trkpt><trkpt lat="45.34236" lon="8.849025"><ele>108.0</ele><time>2026-04-19T08:49:12.005Z</time></trkpt><trkpt lat="45.3422317" lon="8.8490983"><ele>108.0</ele><time>2026-04-19T08:49:13.005Z</time></trkpt><trkpt lat="45.3421" lon="8.8491633"><ele>108.0</ele><time>2026-04-19T08:49:14.005Z</time></trkpt><trkpt lat="45.3419683" lon="8.8492367"><ele>108.0</ele><time>2026-04-19T08:49:15.005Z</time></trkpt><trkpt lat="45.3418383" lon="8.8493017"><ele>108.0</ele><time>2026-04-19T08:49:16.005Z</time></trkpt><trkpt lat="45.3417117" lon="8.8493667"><ele>107.75</ele><time>2026-04-19T08:49:17.005Z</time></trkpt><trkpt lat="45.34158" lon="8.8494367"><ele>107.5</ele><time>2026-04-19T08:49:18.005Z</time></trkpt><trkpt lat="45.3414433" lon="8.8495067"><ele>107.25</ele><time>2026-04-19T08:49:19.005Z</time></trkpt><trkpt lat="45.341305" lon="8.8495683"><ele>107.0</ele><time>2026-04-19T08:49:20.004Z</time></trkpt><trkpt lat="45.34117" lon="8.8496317"><ele>107.0</ele><time>2026-04-19T08:49:21.005Z</time></trkpt><trkpt lat="45.3410333" lon="8.8496883"><ele>107.0</ele><time>2026-04-19T08:49:22.005Z</time></trkpt><trkpt lat="45.3408983" lon="8.8497383"><ele>107.0</ele><time>2026-04-19T08:49:23.004Z</time></trkpt><trkpt lat="45.3407683" lon="8.8498"><ele>107.0</ele><time>2026-04-19T08:49:24.005Z</time></trkpt><trkpt lat="45.34064" lon="8.8498617"><ele>107.25</ele><time>2026-04-19T08:49:25.005Z</time></trkpt><trkpt lat="45.340515" lon="8.84992"><ele>107.5</ele><time>2026-04-19T08:49:26.004Z</time></trkpt><trkpt lat="45.340395" lon="8.8499733"><ele>107.75</ele><time>2026-04-19T08:49:27.003Z</time></trkpt><trkpt lat="45.3402717" lon="8.850045"><ele>108.0</ele><time>2026-04-19T08:49:28.004Z</time></trkpt><trkpt lat="45.3401433" lon="8.85011"><ele>107.75</ele><time>2026-04-19T08:49:29.003Z</time></trkpt><trkpt lat="45.340015" lon="8.8501717"><ele>107.5</ele><time>2026-04-19T08:49:30.003Z</time></trkpt><trkpt lat="45.3398867" lon="8.85023"><ele>107.25</ele><time>2026-04-19T08:49:31.004Z</time></trkpt><trkpt lat="45.33976" lon="8.850295"><ele>107.0</ele><time>2026-04-19T08:49:32.003Z</time></trkpt><trkpt lat="45.3396417" lon="8.85035"><ele>106.75</ele><time>2026-04-19T08:49:33.004Z</time></trkpt><trkpt lat="45.3395217" lon="8.8504067"><ele>106.5</ele><time>2026-04-19T08:49:34.004Z</time></trkpt><trkpt lat="45.3394017" lon="8.8504683"><ele>106.25</ele><time>2026-04-19T08:49:35.004Z</time></trkpt><trkpt lat="45.3392867" lon="8.85054"><ele>106.0</ele><time>2026-04-19T08:49:36.004Z</time></trkpt><trkpt lat="45.33917" lon="8.8505983"><ele>106.0</ele><time>2026-04-19T08:49:37.004Z</time></trkpt><trkpt lat="45.3390467" lon="8.8506433"><ele>106.0</ele><time>2026-04-19T08:49:38.003Z</time></trkpt><trkpt lat="45.338925" lon="8.8506933"><ele>106.0</ele><time>2026-04-19T08:49:39.004Z</time></trkpt><trkpt lat="45.3388083" lon="8.8507383"><ele>106.0</ele><time>2026-04-19T08:49:40.003Z</time></trkpt><trkpt lat="45.338685" lon="8.8507767"><ele>106.5</ele><time>2026-04-19T08:49:41.003Z</time></trkpt><trkpt lat="45.3385567" lon="8.8508017"><ele>107.0</ele><time>2026-04-19T08:49:42.004Z</time></trkpt><trkpt lat="45.338425" lon="8.85081"><ele>107.5</ele><time>2026-04-19T08:49:43.004Z</time></trkpt><trkpt lat="45.3382967" lon="8.8508267"><ele>108.0</ele><time>2026-04-19T08:49:44.003Z</time></trkpt><trkpt lat="45.3381717" lon="8.8508433"><ele>108.0</ele><time>2026-04-19T08:49:45.004Z</time></trkpt><trkpt lat="45.3380333" lon="8.8508483"><ele>108.0</ele><time>2026-04-19T08:49:46.003Z</time></trkpt><trkpt lat="45.3378933" lon="8.850855"><ele>108.0</ele><time>2026-04-19T08:49:47.004Z</time></trkpt><trkpt lat="45.3377633" lon="8.8508617"><ele>108.0</ele><time>2026-04-19T08:49:48.003Z</time></trkpt><trkpt lat="45.337625" lon="8.8508683"><ele>108.0</ele><time>2026-04-19T08:49:49.004Z</time></trkpt><trkpt lat="45.3374933" lon="8.8508733"><ele>108.0</ele><time>2026-04-19T08:49:50.003Z</time></trkpt><trkpt lat="45.3373667" lon="8.8508733"><ele>108.0</ele><time>2026-04-19T08:49:51.003Z</time></trkpt><trkpt lat="45.33723" lon="8.8508883"><ele>108.0</ele><time>2026-04-19T08:49:52.004Z</time></trkpt><trkpt lat="45.3370917" lon="8.85089"><ele>107.75</ele><time>2026-04-19T08:49:53.004Z</time></trkpt><trkpt lat="45.33696" lon="8.8508917"><ele>107.5</ele><time>2026-04-19T08:49:54.003Z</time></trkpt><trkpt lat="45.3368267" lon="8.85089"><ele>107.25</ele><time>2026-04-19T08:49:55.003Z</time></trkpt><trkpt lat="45.336685" lon="8.8508917"><ele>107.0</ele><time>2026-04-19T08:49:56.003Z</time></trkpt><trkpt lat="45.3365483" lon="8.850905"><ele>107.0</ele><time>2026-04-19T08:49:57.003Z</time></trkpt><trkpt lat="45.3364183" lon="8.8509217"><ele>107.0</ele><time>2026-04-19T08:49:58.004Z</time></trkpt><trkpt lat="45.33629" lon="8.8509517"><ele>107.0</ele><time>2026-04-19T08:49:59.003Z</time></trkpt><trkpt lat="45.336165" lon="8.8509767"><ele>107.0</ele><time>2026-04-19T08:50:00.003Z</time></trkpt><trkpt lat="45.3360367" lon="8.8510117"><ele>107.0</ele><time>2026-04-19T08:50:01.004Z</time></trkpt><trkpt lat="45.3359083" lon="8.851055"><ele>107.0</ele><time>2026-04-19T08:50:02.003Z</time></trkpt><trkpt lat="45.335785" lon="8.8510967"><ele>107.0</ele><time>2026-04-19T08:50:03.004Z</time></trkpt><trkpt lat="45.33566" lon="8.851135"><ele>107.0</ele><time>2026-04-19T08:50:04.004Z</time></trkpt><trkpt lat="45.335535" lon="8.85118"><ele>107.0</ele><time>2026-04-19T08:50:05.004Z</time></trkpt><trkpt lat="45.3354117" lon="8.8512317"><ele>107.0</ele><time>2026-04-19T08:50:06.004Z</time></trkpt><trkpt lat="45.335285" lon="8.8513017"><ele>107.0</ele><time>2026-04-19T08:50:07.004Z</time></trkpt><trkpt lat="45.3351733" lon="8.8513883"><ele>107.0</ele><time>2026-04-19T08:50:08.003Z</time></trkpt><trkpt lat="45.3350633" lon="8.8514967"><ele>107.0</ele><time>2026-04-19T08:50:09.004Z</time></trkpt><trkpt lat="45.3349683" lon="8.85162"><ele>107.0</ele><time>2026-04-19T08:50:10.004Z</time></trkpt><trkpt lat="45.33487" lon="8.8517583"><ele>107.0</ele><time>2026-04-19T08:50:11.004Z</time></trkpt><trkpt lat="45.3347833" lon="8.8518783"><ele>107.0</ele><time>2026-04-19T08:50:12.003Z</time></trkpt><trkpt lat="45.334695" lon="8.8519917"><ele>107.25</ele><time>2026-04-19T08:50:13.004Z</time></trkpt><trkpt lat="45.334605" lon="8.8521267"><ele>107.5</ele><time>2026-04-19T08:50:14.004Z</time></trkpt><trkpt lat="45.3345117" lon="8.8522383"><ele>107.75</ele><time>2026-04-19T08:50:15.004Z</time></trkpt><trkpt lat="45.3344217" lon="8.85237"><ele>108.0</ele><time>2026-04-19T08:50:16.004Z</time></trkpt><trkpt lat="45.3343367" lon="8.8524917"><ele>108.0</ele><time>2026-04-19T08:50:17.004Z</time></trkpt><trkpt lat="45.3342517" lon="8.852625"><ele>108.0</ele><time>2026-04-19T08:50:18.004Z</time></trkpt><trkpt lat="45.3341567" lon="8.8527433"><ele>108.0</ele><time>2026-04-19T08:50:19.004Z</time></trkpt><trkpt lat="45.3340683" lon="8.8528583"><ele>108.0</ele><time>2026-04-19T08:50:20.003Z</time></trkpt><trkpt lat="45.333995" lon="8.8529733"><ele>108.0</ele><time>2026-04-19T08:50:21.003Z</time></trkpt><trkpt lat="45.333925" lon="8.8530717"><ele>108.00000000000001</ele><time>2026-04-19T08:50:22.003Z</time></trkpt><trkpt lat="45.3338583" lon="8.8531467"><ele>108.00000000000001</ele><time>2026-04-19T08:50:23.004Z</time></trkpt><trkpt lat="45.33374" lon="8.8532533"><ele>108.0</ele><time>2026-04-19T08:50:25.004Z</time></trkpt><trkpt lat="45.3336717" lon="8.8532917"><ele>108.0</ele><time>2026-04-19T08:50:26.004Z</time></trkpt><trkpt lat="45.33361" lon="8.85331"><ele>108.0</ele><time>2026-04-19T08:50:27.004Z</time></trkpt><trkpt lat="45.3335417" lon="8.8533017"><ele>108.0</ele><time>2026-04-19T08:50:28.004Z</time></trkpt><trkpt lat="45.3334817" lon="8.8532683"><ele>108.0</ele><time>2026-04-19T08:50:29.004Z</time></trkpt><trkpt lat="45.3334167" lon="8.85321"><ele>108.0</ele><time>2026-04-19T08:50:30.004Z</time></trkpt><trkpt lat="45.3333583" lon="8.8531133"><ele>108.0</ele><time>2026-04-19T08:50:31.004Z</time></trkpt><trkpt lat="45.3332917" lon="8.852995"><ele>108.0</ele><time>2026-04-19T08:50:32.004Z</time></trkpt><trkpt lat="45.33322" lon="8.8528617"><ele>108.0</ele><time>2026-04-19T08:50:33.003Z</time></trkpt><trkpt lat="45.333145" lon="8.8527283"><ele>108.0</ele><time>2026-04-19T08:50:34.004Z</time></trkpt><trkpt lat="45.3330667" lon="8.852585"><ele>108.0</ele><time>2026-04-19T08:50:35.004Z</time></trkpt><trkpt lat="45.33299" lon="8.8524317"><ele>108.0</ele><time>2026-04-19T08:50:36.004Z</time></trkpt><trkpt lat="45.3329083" lon="8.852285"><ele>108.25</ele><time>2026-04-19T08:50:37.003Z</time></trkpt><trkpt lat="45.332825" lon="8.852155"><ele>108.5</ele><time>2026-04-19T08:50:38.003Z</time></trkpt><trkpt lat="45.3327417" lon="8.852015"><ele>108.75</ele><time>2026-04-19T08:50:39.003Z</time></trkpt><trkpt lat="45.33265" lon="8.851875"><ele>109.0</ele><time>2026-04-19T08:50:40.003Z</time></trkpt><trkpt lat="45.332555" lon="8.851745"><ele>109.0</ele><time>2026-04-19T08:50:41.004Z</time></trkpt><trkpt lat="45.332455" lon="8.851615"><ele>109.0</ele><time>2026-04-19T08:50:42.004Z</time></trkpt><trkpt lat="45.3323583" lon="8.8514883"><ele>109.0</ele><time>2026-04-19T08:50:43.004Z</time></trkpt><trkpt lat="45.3322583" lon="8.85137"><ele>109.0</ele><time>2026-04-19T08:50:44.004Z</time></trkpt><trkpt lat="45.33216" lon="8.8512433"><ele>108.5</ele><time>2026-04-19T08:50:45.003Z</time></trkpt><trkpt lat="45.3320567" lon="8.851115"><ele>108.0</ele><time>2026-04-19T08:50:46.004Z</time></trkpt><trkpt lat="45.3319517" lon="8.85099"><ele>107.5</ele><time>2026-04-19T08:50:47.004Z</time></trkpt><trkpt lat="45.33184" lon="8.8508733"><ele>107.0</ele><time>2026-04-19T08:50:48.003Z</time></trkpt><trkpt lat="45.3317333" lon="8.8507367"><ele>107.0</ele><time>2026-04-19T08:50:49.004Z</time></trkpt><trkpt lat="45.3316183" lon="8.8506067"><ele>107.0</ele><time>2026-04-19T08:50:50.004Z</time></trkpt><trkpt lat="45.3314933" lon="8.8504717"><ele>107.0</ele><time>2026-04-19T08:50:51.004Z</time></trkpt><trkpt lat="45.331365" lon="8.85035"><ele>106.75</ele><time>2026-04-19T08:50:52.003Z</time></trkpt><trkpt lat="45.331255" lon="8.85022"><ele>106.5</ele><time>2026-04-19T08:50:53.003Z</time></trkpt><trkpt lat="45.33114" lon="8.8501083"><ele>106.25</ele><time>2026-04-19T08:50:54.004Z</time></trkpt><trkpt lat="45.3310267" lon="8.8499667"><ele>106.0</ele><time>2026-04-19T08:50:55.003Z</time></trkpt><trkpt lat="45.3309167" lon="8.8498333"><ele>106.25</ele><time>2026-04-19T08:50:56.004Z</time></trkpt><trkpt lat="45.330805" lon="8.8496983"><ele>106.5</ele><time>2026-04-19T08:50:57.004Z</time></trkpt><trkpt lat="45.3306967" lon="8.8495667"><ele>106.75</ele><time>2026-04-19T08:50:58.004Z</time></trkpt><trkpt lat="45.3306117" lon="8.8494133"><ele>107.0</ele><time>2026-04-19T08:50:59.004Z</time></trkpt><trkpt lat="45.33053" lon="8.849265"><ele>107.0</ele><time>2026-04-19T08:51:00.004Z</time></trkpt><trkpt lat="45.3304567" lon="8.84912"><ele>107.0</ele><time>2026-04-19T08:51:01.004Z</time></trkpt><trkpt lat="45.3303883" lon="8.84898"><ele>107.0</ele><time>2026-04-19T08:51:02.004Z</time></trkpt><trkpt lat="45.3303267" lon="8.8488467"><ele>107.0</ele><time>2026-04-19T08:51:03.003Z</time></trkpt><trkpt lat="45.3302783" lon="8.848715"><ele>106.99999999999999</ele><time>2026-04-19T08:51:04.004Z</time></trkpt><trkpt lat="45.3302417" lon="8.8485883"><ele>107.0</ele><time>2026-04-19T08:51:05.003Z</time></trkpt><trkpt lat="45.33023" lon="8.8484967"><ele>107.0</ele><time>2026-04-19T08:51:06.003Z</time></trkpt><trkpt lat="45.3302267" lon="8.848345"><ele>107.0</ele><time>2026-04-19T08:51:08.004Z</time></trkpt><trkpt lat="45.3302333" lon="8.84825"><ele>106.99999999999999</ele><time>2026-04-19T08:51:09.003Z</time></trkpt><trkpt lat="45.3302333" lon="8.848135"><ele>107.0</ele><time>2026-04-19T08:51:10.004Z</time></trkpt><trkpt lat="45.330215" lon="8.8480083"><ele>106.8</ele><time>2026-04-19T08:51:11.004Z</time></trkpt><trkpt lat="45.330175" lon="8.8478767"><ele>106.6</ele><time>2026-04-19T08:51:12.004Z</time></trkpt><trkpt lat="45.3301117" lon="8.84776"><ele>106.39999999999999</ele><time>2026-04-19T08:51:13.004Z</time></trkpt><trkpt lat="45.33005" lon="8.8476433"><ele>106.19999999999999</ele><time>2026-04-19T08:51:14.003Z</time></trkpt><trkpt lat="45.329995" lon="8.8475233"><ele>106.0</ele><time>2026-04-19T08:51:15.004Z</time></trkpt><trkpt lat="45.3299583" lon="8.84739"><ele>106.0</ele><time>2026-04-19T08:51:16.004Z</time></trkpt><trkpt lat="45.32994" lon="8.8472417"><ele>106.0</ele><time>2026-04-19T08:51:17.004Z</time></trkpt><trkpt lat="45.3299233" lon="8.84708"><ele>106.0</ele><time>2026-04-19T08:51:18.003Z</time></trkpt><trkpt lat="45.3299033" lon="8.8469133"><ele>106.0</ele><time>2026-04-19T08:51:19.003Z</time></trkpt><trkpt lat="45.32988" lon="8.8467383"><ele>105.75</ele><time>2026-04-19T08:51:20.004Z</time></trkpt><trkpt lat="45.3298483" lon="8.8465633"><ele>105.5</ele><time>2026-04-19T08:51:21.004Z</time></trkpt><trkpt lat="45.329815" lon="8.8463817"><ele>105.25</ele><time>2026-04-19T08:51:22.003Z</time></trkpt><trkpt lat="45.3297667" lon="8.8462"><ele>105.0</ele><time>2026-04-19T08:51:23.003Z</time></trkpt><trkpt lat="45.3297133" lon="8.84602"><ele>105.25</ele><time>2026-04-19T08:51:24.004Z</time></trkpt><trkpt lat="45.329665" lon="8.8458383"><ele>105.5</ele><time>2026-04-19T08:51:25.003Z</time></trkpt><trkpt lat="45.3296067" lon="8.8456583"><ele>105.75</ele><time>2026-04-19T08:51:26.004Z</time></trkpt><trkpt lat="45.3295433" lon="8.8454867"><ele>106.0</ele><time>2026-04-19T08:51:27.003Z</time></trkpt><trkpt lat="45.329475" lon="8.8453067"><ele>106.0</ele><time>2026-04-19T08:51:28.003Z</time></trkpt><trkpt lat="45.329415" lon="8.84513"><ele>106.0</ele><time>2026-04-19T08:51:29.004Z</time></trkpt><trkpt lat="45.32935" lon="8.8449583"><ele>106.0</ele><time>2026-04-19T08:51:30.004Z</time></trkpt><trkpt lat="45.3292783" lon="8.84479"><ele>106.0</ele><time>2026-04-19T08:51:31.003Z</time></trkpt><trkpt lat="45.3292183" lon="8.8446183"><ele>105.75</ele><time>2026-04-19T08:51:32.004Z</time></trkpt><trkpt lat="45.3291567" lon="8.84446"><ele>105.5</ele><time>2026-04-19T08:51:33.003Z</time></trkpt><trkpt lat="45.3290983" lon="8.8443017"><ele>105.25</ele><time>2026-04-19T08:51:34.004Z</time></trkpt><trkpt lat="45.3290417" lon="8.844145"><ele>105.0</ele><time>2026-04-19T08:51:35.004Z</time></trkpt><trkpt lat="45.3289867" lon="8.8439833"><ele>105.5</ele><time>2026-04-19T08:51:36.003Z</time></trkpt><trkpt lat="45.32893" lon="8.84382"><ele>106.0</ele><time>2026-04-19T08:51:37.003Z</time></trkpt><trkpt lat="45.32888" lon="8.84366"><ele>106.5</ele><time>2026-04-19T08:51:38.003Z</time></trkpt><trkpt lat="45.3288333" lon="8.8434933"><ele>107.0</ele><time>2026-04-19T08:51:39.004Z</time></trkpt><trkpt lat="45.328785" lon="8.8433217"><ele>107.5</ele><time>2026-04-19T08:51:40.004Z</time></trkpt><trkpt lat="45.32874" lon="8.843155"><ele>108.0</ele><time>2026-04-19T08:51:41.004Z</time></trkpt><trkpt lat="45.32869" lon="8.8430033"><ele>108.5</ele><time>2026-04-19T08:51:42.003Z</time></trkpt><trkpt lat="45.32865" lon="8.842835"><ele>109.0</ele><time>2026-04-19T08:51:43.004Z</time></trkpt><trkpt lat="45.3286217" lon="8.8426667"><ele>109.25</ele><time>2026-04-19T08:51:44.003Z</time></trkpt><trkpt lat="45.3285833" lon="8.8424967"><ele>109.5</ele><time>2026-04-19T08:51:45.004Z</time></trkpt><trkpt lat="45.3285433" lon="8.84233"><ele>109.75</ele><time>2026-04-19T08:51:46.004Z</time></trkpt><trkpt lat="45.3284983" lon="8.8421617"><ele>110.0</ele><time>2026-04-19T08:51:47.003Z</time></trkpt><trkpt lat="45.3284467" lon="8.842"><ele>110.0</ele><time>2026-04-19T08:51:48.004Z</time></trkpt><trkpt lat="45.32841" lon="8.841855"><ele>110.0</ele><time>2026-04-19T08:51:49.003Z</time></trkpt><trkpt lat="45.328385" lon="8.8417183"><ele>110.0</ele><time>2026-04-19T08:51:50.003Z</time></trkpt><trkpt lat="45.3283533" lon="8.8415867"><ele>110.0</ele><time>2026-04-19T08:51:51.003Z</time></trkpt><trkpt lat="45.32833" lon="8.84147"><ele>110.0</ele><time>2026-04-19T08:51:52.003Z</time></trkpt><trkpt lat="45.328295" lon="8.8413633"><ele>110.0</ele><time>2026-04-19T08:51:53.004Z</time></trkpt><trkpt lat="45.32827" lon="8.8412383"><ele>110.0</ele><time>2026-04-19T08:51:54.004Z</time></trkpt><trkpt lat="45.32826" lon="8.8410983"><ele>110.0</ele><time>2026-04-19T08:51:55.004Z</time></trkpt><trkpt lat="45.3282567" lon="8.8409567"><ele>110.0</ele><time>2026-04-19T08:51:56.004Z</time></trkpt><trkpt lat="45.328255" lon="8.84081"><ele>110.0</ele><time>2026-04-19T08:51:57.003Z</time></trkpt><trkpt lat="45.3282533" lon="8.8406567"><ele>110.0</ele><time>2026-04-19T08:51:58.003Z</time></trkpt><trkpt lat="45.3282317" lon="8.8405133"><ele>110.0</ele><time>2026-04-19T08:51:59.003Z</time></trkpt><trkpt lat="45.3281833" lon="8.8403833"><ele>110.0</ele><time>2026-04-19T08:52:00.003Z</time></trkpt><trkpt lat="45.328105" lon="8.8402833"><ele>110.0</ele><time>2026-04-19T08:52:01.004Z</time></trkpt><trkpt lat="45.32803" lon="8.8401933"><ele>110.0</ele><time>2026-04-19T08:52:02.003Z</time></trkpt><trkpt lat="45.32794" lon="8.840105"><ele>110.0</ele><time>2026-04-19T08:52:03.004Z</time></trkpt><trkpt lat="45.32786" lon="8.8400017"><ele>110.0</ele><time>2026-04-19T08:52:04.004Z</time></trkpt><trkpt lat="45.3277917" lon="8.839885"><ele>110.0</ele><time>2026-04-19T08:52:05.004Z</time></trkpt><trkpt lat="45.32773" lon="8.8397567"><ele>110.0</ele><time>2026-04-19T08:52:06.004Z</time></trkpt><trkpt lat="45.3276767" lon="8.83961"><ele>110.0</ele><time>2026-04-19T08:52:07.003Z</time></trkpt><trkpt lat="45.32764" lon="8.839455"><ele>110.25</ele><time>2026-04-19T08:52:08.003Z</time></trkpt><trkpt lat="45.327595" lon="8.8393"><ele>110.5</ele><time>2026-04-19T08:52:09.004Z</time></trkpt><trkpt lat="45.3275517" lon="8.8391333"><ele>110.75</ele><time>2026-04-19T08:52:10.004Z</time></trkpt><trkpt lat="45.32751" lon="8.8389617"><ele>111.0</ele><time>2026-04-19T08:52:11.003Z</time></trkpt><trkpt lat="45.3274683" lon="8.8387933"><ele>111.0</ele><time>2026-04-19T08:52:12.003Z</time></trkpt><trkpt lat="45.327425" lon="8.8386183"><ele>111.0</ele><time>2026-04-19T08:52:13.003Z</time></trkpt><trkpt lat="45.32738" lon="8.838445"><ele>111.0</ele><time>2026-04-19T08:52:14.003Z</time></trkpt><trkpt lat="45.3273333" lon="8.8382717"><ele>111.0</ele><time>2026-04-19T08:52:15.003Z</time></trkpt><trkpt lat="45.327285" lon="8.838095"><ele>111.0</ele><time>2026-04-19T08:52:16.004Z</time></trkpt><trkpt lat="45.3272383" lon="8.8379167"><ele>111.0</ele><time>2026-04-19T08:52:17.003Z</time></trkpt><trkpt lat="45.3271933" lon="8.837725"><ele>111.0</ele><time>2026-04-19T08:52:18.003Z</time></trkpt><trkpt lat="45.3271483" lon="8.837545"><ele>111.0</ele><time>2026-04-19T08:52:19.004Z</time></trkpt><trkpt lat="45.327105" lon="8.8373617"><ele>111.25</ele><time>2026-04-19T08:52:20.003Z</time></trkpt><trkpt lat="45.3270583" lon="8.8371717"><ele>111.5</ele><time>2026-04-19T08:52:21.004Z</time></trkpt><trkpt lat="45.3270133" lon="8.8369767"><ele>111.75</ele><time>2026-04-19T08:52:22.004Z</time></trkpt><trkpt lat="45.3269633" lon="8.8367833"><ele>112.0</ele><time>2026-04-19T08:52:23.004Z</time></trkpt><trkpt lat="45.32692" lon="8.8366033"><ele>112.0</ele><time>2026-04-19T08:52:24.003Z</time></trkpt><trkpt lat="45.326875" lon="8.8364117"><ele>112.0</ele><time>2026-04-19T08:52:25.003Z</time></trkpt><trkpt lat="45.3268383" lon="8.8362217"><ele>112.0</ele><time>2026-04-19T08:52:26.003Z</time></trkpt><trkpt lat="45.32679" lon="8.83603"><ele>112.0</ele><time>2026-04-19T08:52:27.003Z</time></trkpt><trkpt lat="45.3267367" lon="8.8358383"><ele>111.5</ele><time>2026-04-19T08:52:28.004Z</time></trkpt><trkpt lat="45.3266867" lon="8.835645"><ele>111.0</ele><time>2026-04-19T08:52:29.003Z</time></trkpt><trkpt lat="45.326635" lon="8.8354567"><ele>110.5</ele><time>2026-04-19T08:52:30.004Z</time></trkpt><trkpt lat="45.326585" lon="8.8352683"><ele>110.0</ele><time>2026-04-19T08:52:31.004Z</time></trkpt><trkpt lat="45.3265383" lon="8.835085"><ele>109.75</ele><time>2026-04-19T08:52:32.004Z</time></trkpt><trkpt lat="45.326495" lon="8.8348967"><ele>109.5</ele><time>2026-04-19T08:52:33.003Z</time></trkpt><trkpt lat="45.3264567" lon="8.8347233"><ele>109.25</ele><time>2026-04-19T08:52:34.004Z</time></trkpt><trkpt lat="45.32642" lon="8.8345683"><ele>109.0</ele><time>2026-04-19T08:52:35.003Z</time></trkpt><trkpt lat="45.3264" lon="8.8344117"><ele>109.0</ele><time>2026-04-19T08:52:36.003Z</time></trkpt><trkpt lat="45.3264017" lon="8.8342517"><ele>109.0</ele><time>2026-04-19T08:52:37.004Z</time></trkpt><trkpt lat="45.3264117" lon="8.8340967"><ele>109.0</ele><time>2026-04-19T08:52:38.004Z</time></trkpt><trkpt lat="45.3264217" lon="8.833945"><ele>109.0</ele><time>2026-04-19T08:52:39.003Z</time></trkpt><trkpt lat="45.3263933" lon="8.8337933"><ele>109.0</ele><time>2026-04-19T08:52:40.004Z</time></trkpt><trkpt lat="45.3263367" lon="8.8336633"><ele>109.0</ele><time>2026-04-19T08:52:41.003Z</time></trkpt><trkpt lat="45.3262567" lon="8.83356"><ele>109.0</ele><time>2026-04-19T08:52:42.003Z</time></trkpt><trkpt lat="45.3261667" lon="8.8334433"><ele>109.0</ele><time>2026-04-19T08:52:43.003Z</time></trkpt><trkpt lat="45.32608" lon="8.8333017"><ele>109.0</ele><time>2026-04-19T08:52:44.003Z</time></trkpt><trkpt lat="45.3260083" lon="8.8331567"><ele>109.4</ele><time>2026-04-19T08:52:45.003Z</time></trkpt><trkpt lat="45.3259383" lon="8.8330217"><ele>109.80000000000001</ele><time>2026-04-19T08:52:46.003Z</time></trkpt><trkpt lat="45.3258717" lon="8.8329067"><ele>110.19999999999999</ele><time>2026-04-19T08:52:47.003Z</time></trkpt><trkpt lat="45.3258083" lon="8.8327983"><ele>110.6</ele><time>2026-04-19T08:52:48.004Z</time></trkpt><trkpt lat="45.3257483" lon="8.8327083"><ele>111.0</ele><time>2026-04-19T08:52:49.003Z</time></trkpt><trkpt lat="45.3256883" lon="8.8326233"><ele>111.33333333333333</ele><time>2026-04-19T08:52:50.003Z</time></trkpt><trkpt lat="45.3256233" lon="8.8325583"><ele>111.66666666666666</ele><time>2026-04-19T08:52:51.004Z</time></trkpt><trkpt lat="45.3255567" lon="8.8324983"><ele>112.0</ele><time>2026-04-19T08:52:52.004Z</time></trkpt><trkpt lat="45.32549" lon="8.8324317"><ele>112.33333333333333</ele><time>2026-04-19T08:52:53.003Z</time></trkpt><trkpt lat="45.3254367" lon="8.83238"><ele>112.66666666666666</ele><time>2026-04-19T08:52:54.003Z</time></trkpt><trkpt lat="45.325355" lon="8.8323033"><ele>113.0</ele><time>2026-04-19T08:52:56.004Z</time></trkpt><trkpt lat="45.3253133" lon="8.83221"><ele>112.99999999999999</ele><time>2026-04-19T08:52:59.003Z</time></trkpt><trkpt lat="45.32526" lon="8.8321583"><ele>113.0</ele><time>2026-04-19T08:53:04.003Z</time></trkpt><trkpt lat="45.3252783" lon="8.832305"><ele>113.0</ele><time>2026-04-19T08:53:08.004Z</time></trkpt><trkpt lat="45.32533" lon="8.83238"><ele>113.0</ele><time>2026-04-19T08:53:09.004Z</time></trkpt><trkpt lat="45.3253967" lon="8.832455"><ele>112.99999999999999</ele><time>2026-04-19T08:53:10.003Z</time></trkpt><trkpt lat="45.325475" lon="8.8325383"><ele>113.0</ele><time>2026-04-19T08:53:11.003Z</time></trkpt><trkpt lat="45.3255667" lon="8.8326283"><ele>112.5</ele><time>2026-04-19T08:53:12.004Z</time></trkpt><trkpt lat="45.3256583" lon="8.83273"><ele>112.0</ele><time>2026-04-19T08:53:13.004Z</time></trkpt><trkpt lat="45.325745" lon="8.8328517"><ele>111.5</ele><time>2026-04-19T08:53:14.003Z</time></trkpt><trkpt lat="45.3258367" lon="8.832975"><ele>111.0</ele><time>2026-04-19T08:53:15.004Z</time></trkpt><trkpt lat="45.3259067" lon="8.83311"><ele>111.0</ele><time>2026-04-19T08:53:16.004Z</time></trkpt><trkpt lat="45.3259667" lon="8.8332467"><ele>111.0</ele><time>2026-04-19T08:53:17.004Z</time></trkpt><trkpt lat="45.3260067" lon="8.8333983"><ele>111.0</ele><time>2026-04-19T08:53:18.004Z</time></trkpt><trkpt lat="45.3260183" lon="8.8335567"><ele>111.0</ele><time>2026-04-19T08:53:19.004Z</time></trkpt><trkpt lat="45.32601" lon="8.8337233"><ele>110.6</ele><time>2026-04-19T08:53:20.004Z</time></trkpt><trkpt lat="45.32601" lon="8.833875"><ele>110.19999999999999</ele><time>2026-04-19T08:53:21.004Z</time></trkpt><trkpt lat="45.326045" lon="8.8340267"><ele>109.80000000000001</ele><time>2026-04-19T08:53:22.004Z</time></trkpt><trkpt lat="45.3261067" lon="8.8341567"><ele>109.4</ele><time>2026-04-19T08:53:23.004Z</time></trkpt><trkpt lat="45.3261883" lon="8.8342717"><ele>109.0</ele><time>2026-04-19T08:53:24.004Z</time></trkpt><trkpt lat="45.3262683" lon="8.8343917"><ele>109.0</ele><time>2026-04-19T08:53:25.004Z</time></trkpt><trkpt lat="45.32634" lon="8.8345267"><ele>109.0</ele><time>2026-04-19T08:53:26.004Z</time></trkpt><trkpt lat="45.3264" lon="8.8346967"><ele>109.0</ele><time>2026-04-19T08:53:27.003Z</time></trkpt><trkpt lat="45.326445" lon="8.8348683"><ele>109.0</ele><time>2026-04-19T08:53:28.003Z</time></trkpt><trkpt lat="45.326485" lon="8.8350583"><ele>109.25</ele><time>2026-04-19T08:53:29.003Z</time></trkpt><trkpt lat="45.3265267" lon="8.835255"><ele>109.5</ele><time>2026-04-19T08:53:30.004Z</time></trkpt><trkpt lat="45.3265717" lon="8.835435"><ele>109.75</ele><time>2026-04-19T08:53:31.004Z</time></trkpt><trkpt lat="45.326615" lon="8.8356233"><ele>110.0</ele><time>2026-04-19T08:53:32.004Z</time></trkpt><trkpt lat="45.326705" lon="8.8359967"><ele>110.5</ele><time>2026-04-19T08:53:34.003Z</time></trkpt><trkpt lat="45.32675" lon="8.8361883"><ele>111.0</ele><time>2026-04-19T08:53:35.003Z</time></trkpt><trkpt lat="45.3267983" lon="8.8363667"><ele>111.5</ele><time>2026-04-19T08:53:36.004Z</time></trkpt><trkpt lat="45.3268483" lon="8.8365483"><ele>112.0</ele><time>2026-04-19T08:53:37.004Z</time></trkpt><trkpt lat="45.3268983" lon="8.8367417"><ele>112.0</ele><time>2026-04-19T08:53:38.004Z</time></trkpt><trkpt lat="45.326945" lon="8.8369417"><ele>112.0</ele><time>2026-04-19T08:53:39.004Z</time></trkpt><trkpt lat="45.32699" lon="8.8371317"><ele>112.0</ele><time>2026-04-19T08:53:40.004Z</time></trkpt><trkpt lat="45.3270467" lon="8.83732"><ele>112.0</ele><time>2026-04-19T08:53:41.004Z</time></trkpt><trkpt lat="45.3270967" lon="8.8374933"><ele>111.75</ele><time>2026-04-19T08:53:42.004Z</time></trkpt><trkpt lat="45.3271433" lon="8.8376683"><ele>111.5</ele><time>2026-04-19T08:53:43.003Z</time></trkpt><trkpt lat="45.327185" lon="8.8378317"><ele>111.25</ele><time>2026-04-19T08:53:44.004Z</time></trkpt><trkpt lat="45.3272317" lon="8.8379717"><ele>111.0</ele><time>2026-04-19T08:53:45.003Z</time></trkpt><trkpt lat="45.3272617" lon="8.8381033"><ele>111.0</ele><time>2026-04-19T08:53:46.004Z</time></trkpt><trkpt lat="45.3272933" lon="8.8382367"><ele>111.0</ele><time>2026-04-19T08:53:47.003Z</time></trkpt><trkpt lat="45.3273167" lon="8.83835"><ele>111.0</ele><time>2026-04-19T08:53:48.004Z</time></trkpt><trkpt lat="45.327345" lon="8.8384367"><ele>111.0</ele><time>2026-04-19T08:53:49.003Z</time></trkpt><trkpt lat="45.3274233" lon="8.8385233"><ele>111.0</ele><time>2026-04-19T08:53:51.004Z</time></trkpt><trkpt lat="45.3275083" lon="8.83849"><ele>111.0</ele><time>2026-04-19T08:53:54.004Z</time></trkpt><trkpt lat="45.3275833" lon="8.8385483"><ele>111.0</ele><time>2026-04-19T08:53:57.002Z</time></trkpt><trkpt lat="45.3276083" lon="8.8386467"><ele>111.0</ele><time>2026-04-19T08:53:59.002Z</time></trkpt><trkpt lat="45.32764" lon="8.8387567"><ele>111.0</ele><time>2026-04-19T08:54:01.002Z</time></trkpt><trkpt lat="45.327685" lon="8.83885"><ele>111.0</ele><time>2026-04-19T08:54:03.003Z</time></trkpt><trkpt lat="45.32771" lon="8.8389617"><ele>111.0</ele><time>2026-04-19T08:54:05.003Z</time></trkpt><trkpt lat="45.3277033" lon="8.8390567"><ele>111.0</ele><time>2026-04-19T08:54:07.003Z</time></trkpt><trkpt lat="45.3277217" lon="8.8391567"><ele>110.8</ele><time>2026-04-19T09:16:04.997Z</time></trkpt><trkpt lat="45.327765" lon="8.83931"><ele>110.6</ele><time>2026-04-19T09:16:06.998Z</time></trkpt><trkpt lat="45.3277883" lon="8.8393983"><ele>110.4</ele><time>2026-04-19T09:16:07.998Z</time></trkpt><trkpt lat="45.3278383" lon="8.83955"><ele>110.2</ele><time>2026-04-19T09:16:09.998Z</time></trkpt><trkpt lat="45.3279083" lon="8.83964"><ele>110.0</ele><time>2026-04-19T09:16:11.998Z</time></trkpt><trkpt lat="45.3279483" lon="8.8395683"><ele>110.0</ele><time>2026-04-19T09:16:13.998Z</time></trkpt><trkpt lat="45.3279233" lon="8.8394017"><ele>110.0</ele><time>2026-04-19T09:16:15.998Z</time></trkpt><trkpt lat="45.3278867" lon="8.8392917"><ele>110.0</ele><time>2026-04-19T09:16:16.998Z</time></trkpt><trkpt lat="45.3278467" lon="8.8391717"><ele>110.0</ele><time>2026-04-19T09:16:17.997Z</time></trkpt><trkpt lat="45.3278117" lon="8.83905"><ele>110.0</ele><time>2026-04-19T09:16:18.997Z</time></trkpt><trkpt lat="45.327785" lon="8.8389333"><ele>109.99999999999999</ele><time>2026-04-19T09:16:19.997Z</time></trkpt><trkpt lat="45.327755" lon="8.8388133"><ele>110.0</ele><time>2026-04-19T09:16:20.998Z</time></trkpt><trkpt lat="45.32773" lon="8.8387017"><ele>110.0</ele><time>2026-04-19T09:16:21.998Z</time></trkpt><trkpt lat="45.327695" lon="8.8385883"><ele>110.0</ele><time>2026-04-19T09:16:22.997Z</time></trkpt><trkpt lat="45.3276667" lon="8.8384967"><ele>109.99999999999999</ele><time>2026-04-19T09:16:23.998Z</time></trkpt><trkpt lat="45.3276033" lon="8.838375"><ele>110.0</ele><time>2026-04-19T09:16:25.997Z</time></trkpt><trkpt lat="45.3274817" lon="8.8383583"><ele>110.0</ele><time>2026-04-19T09:16:27.997Z</time></trkpt><trkpt lat="45.3273967" lon="8.8383533"><ele>110.0</ele><time>2026-04-19T09:16:29.998Z</time></trkpt><trkpt lat="45.3273117" lon="8.83824"><ele>110.0</ele><time>2026-04-19T09:16:31.997Z</time></trkpt><trkpt lat="45.3272767" lon="8.8381317"><ele>110.0</ele><time>2026-04-19T09:16:32.998Z</time></trkpt><trkpt lat="45.3272367" lon="8.8379933"><ele>110.0</ele><time>2026-04-19T09:16:33.998Z</time></trkpt><trkpt lat="45.327205" lon="8.8378167"><ele>110.5</ele><time>2026-04-19T09:16:34.998Z</time></trkpt><trkpt lat="45.3271667" lon="8.83762"><ele>111.0</ele><time>2026-04-19T09:16:35.997Z</time></trkpt><trkpt lat="45.3271233" lon="8.83742"><ele>111.5</ele><time>2026-04-19T09:16:36.997Z</time></trkpt><trkpt lat="45.3270783" lon="8.837205"><ele>112.0</ele><time>2026-04-19T09:16:37.998Z</time></trkpt><trkpt lat="45.327025" lon="8.836995"><ele>112.0</ele><time>2026-04-19T09:16:38.998Z</time></trkpt><trkpt lat="45.3269733" lon="8.8367733"><ele>112.0</ele><time>2026-04-19T09:16:39.998Z</time></trkpt><trkpt lat="45.3269133" lon="8.83657"><ele>112.0</ele><time>2026-04-19T09:16:40.997Z</time></trkpt><trkpt lat="45.3268583" lon="8.8363867"><ele>112.0</ele><time>2026-04-19T09:16:41.998Z</time></trkpt><trkpt lat="45.3268183" lon="8.8362017"><ele>112.0</ele><time>2026-04-19T09:16:42.998Z</time></trkpt><trkpt lat="45.3267717" lon="8.836025"><ele>112.0</ele><time>2026-04-19T09:16:43.997Z</time></trkpt><trkpt lat="45.3267283" lon="8.8358417"><ele>112.0</ele><time>2026-04-19T09:16:44.997Z</time></trkpt><trkpt lat="45.326695" lon="8.835685"><ele>111.5</ele><time>2026-04-19T09:16:45.998Z</time></trkpt><trkpt lat="45.3266617" lon="8.8355333"><ele>111.0</ele><time>2026-04-19T09:16:46.997Z</time></trkpt><trkpt lat="45.3266283" lon="8.8353833"><ele>110.5</ele><time>2026-04-19T09:16:47.998Z</time></trkpt><trkpt lat="45.3265867" lon="8.835235"><ele>110.0</ele><time>2026-04-19T09:16:48.998Z</time></trkpt><trkpt lat="45.3265417" lon="8.8350683"><ele>109.75</ele><time>2026-04-19T09:16:49.997Z</time></trkpt><trkpt lat="45.326505" lon="8.8348933"><ele>109.5</ele><time>2026-04-19T09:16:50.998Z</time></trkpt><trkpt lat="45.3264633" lon="8.8347383"><ele>109.25</ele><time>2026-04-19T09:16:51.998Z</time></trkpt><trkpt lat="45.3264267" lon="8.8345867"><ele>109.0</ele><time>2026-04-19T09:16:52.997Z</time></trkpt><trkpt lat="45.3264033" lon="8.8344533"><ele>109.00000000000001</ele><time>2026-04-19T09:16:53.997Z</time></trkpt><trkpt lat="45.3263967" lon="8.8343317"><ele>109.0</ele><time>2026-04-19T09:16:54.997Z</time></trkpt><trkpt lat="45.3264033" lon="8.8342117"><ele>109.0</ele><time>2026-04-19T09:16:55.997Z</time></trkpt><trkpt lat="45.3264233" lon="8.83409"><ele>109.0</ele><time>2026-04-19T09:16:56.998Z</time></trkpt><trkpt lat="45.3264433" lon="8.83396"><ele>109.00000000000001</ele><time>2026-04-19T09:16:57.997Z</time></trkpt><trkpt lat="45.3264567" lon="8.833825"><ele>109.0</ele><time>2026-04-19T09:16:58.997Z</time></trkpt><trkpt lat="45.3264833" lon="8.8336983"><ele>109.2</ele><time>2026-04-19T09:16:59.998Z</time></trkpt><trkpt lat="45.3265233" lon="8.8335717"><ele>109.4</ele><time>2026-04-19T09:17:00.998Z</time></trkpt><trkpt lat="45.3265733" lon="8.8334367"><ele>109.6</ele><time>2026-04-19T09:17:01.997Z</time></trkpt><trkpt lat="45.3266483" lon="8.8333133"><ele>109.8</ele><time>2026-04-19T09:17:02.997Z</time></trkpt><trkpt lat="45.32673" lon="8.8331733"><ele>110.0</ele><time>2026-04-19T09:17:03.997Z</time></trkpt><trkpt lat="45.3268133" lon="8.83305"><ele>110.25</ele><time>2026-04-19T09:17:04.998Z</time></trkpt><trkpt lat="45.3268867" lon="8.8329233"><ele>110.5</ele><time>2026-04-19T09:17:05.998Z</time></trkpt><trkpt lat="45.32694" lon="8.8327683"><ele>110.75</ele><time>2026-04-19T09:17:06.997Z</time></trkpt><trkpt lat="45.327" lon="8.8326067"><ele>111.0</ele><time>2026-04-19T09:17:07.998Z</time></trkpt><trkpt lat="45.3270517" lon="8.832435"><ele>111.0</ele><time>2026-04-19T09:17:08.998Z</time></trkpt><trkpt lat="45.32711" lon="8.8322717"><ele>111.0</ele><time>2026-04-19T09:17:09.998Z</time></trkpt><trkpt lat="45.3271617" lon="8.8321017"><ele>111.0</ele><time>2026-04-19T09:17:10.998Z</time></trkpt><trkpt lat="45.3272083" lon="8.8319683"><ele>111.0</ele><time>2026-04-19T09:17:11.998Z</time></trkpt><trkpt lat="45.327275" lon="8.83186"><ele>111.0</ele><time>2026-04-19T09:17:12.997Z</time></trkpt><trkpt lat="45.327365" lon="8.8317533"><ele>111.0</ele><time>2026-04-19T09:17:13.998Z</time></trkpt><trkpt lat="45.327455" lon="8.83165"><ele>111.0</ele><time>2026-04-19T09:17:14.997Z</time></trkpt><trkpt lat="45.32757" lon="8.83158"><ele>111.0</ele><time>2026-04-19T09:17:15.998Z</time></trkpt><trkpt lat="45.3276817" lon="8.8315"><ele>111.0</ele><time>2026-04-19T09:17:16.998Z</time></trkpt><trkpt lat="45.3277817" lon="8.8314083"><ele>111.0</ele><time>2026-04-19T09:17:17.998Z</time></trkpt><trkpt lat="45.3278717" lon="8.8313133"><ele>111.0</ele><time>2026-04-19T09:17:18.997Z</time></trkpt><trkpt lat="45.3279617" lon="8.8312067"><ele>111.0</ele><time>2026-04-19T09:17:19.998Z</time></trkpt><trkpt lat="45.328045" lon="8.8310883"><ele>111.0</ele><time>2026-04-19T09:17:20.997Z</time></trkpt><trkpt lat="45.3281283" lon="8.8309767"><ele>111.0</ele><time>2026-04-19T09:17:21.998Z</time></trkpt><trkpt lat="45.3282133" lon="8.8308533"><ele>111.0</ele><time>2026-04-19T09:17:22.997Z</time></trkpt><trkpt lat="45.3282967" lon="8.8307267"><ele>111.0</ele><time>2026-04-19T09:17:23.997Z</time></trkpt><trkpt lat="45.3283783" lon="8.8306017"><ele>111.25</ele><time>2026-04-19T09:17:24.998Z</time></trkpt><trkpt lat="45.3284683" lon="8.8304867"><ele>111.5</ele><time>2026-04-19T09:17:25.998Z</time></trkpt><trkpt lat="45.328555" lon="8.83036"><ele>111.75</ele><time>2026-04-19T09:17:26.998Z</time></trkpt><trkpt lat="45.328645" lon="8.8302367"><ele>112.0</ele><time>2026-04-19T09:17:27.997Z</time></trkpt><trkpt lat="45.3287283" lon="8.8301267"><ele>112.19999999999999</ele><time>2026-04-19T09:17:28.998Z</time></trkpt><trkpt lat="45.3288183" lon="8.8299983"><ele>112.39999999999999</ele><time>2026-04-19T09:17:29.997Z</time></trkpt><trkpt lat="45.3288917" lon="8.8298817"><ele>112.60000000000001</ele><time>2026-04-19T09:17:30.998Z</time></trkpt><trkpt lat="45.32896" lon="8.8297583"><ele>112.80000000000001</ele><time>2026-04-19T09:17:31.997Z</time></trkpt><trkpt lat="45.3290217" lon="8.8296517"><ele>113.0</ele><time>2026-04-19T09:17:32.997Z</time></trkpt><trkpt lat="45.329075" lon="8.82955"><ele>112.83333333333333</ele><time>2026-04-19T09:17:33.998Z</time></trkpt><trkpt lat="45.329145" lon="8.8294517"><ele>112.66666666666666</ele><time>2026-04-19T09:17:34.997Z</time></trkpt><trkpt lat="45.32921" lon="8.82936"><ele>112.5</ele><time>2026-04-19T09:17:35.997Z</time></trkpt><trkpt lat="45.32927" lon="8.8292717"><ele>112.33333333333334</ele><time>2026-04-19T09:17:36.997Z</time></trkpt><trkpt lat="45.32932" lon="8.829185"><ele>112.16666666666667</ele><time>2026-04-19T09:17:37.997Z</time></trkpt><trkpt lat="45.3293817" lon="8.82911"><ele>112.0</ele><time>2026-04-19T09:17:38.998Z</time></trkpt><trkpt lat="45.329435" lon="8.8290283"><ele>112.0</ele><time>2026-04-19T09:17:39.997Z</time></trkpt><trkpt lat="45.329475" lon="8.828945"><ele>111.99999999999999</ele><time>2026-04-19T09:17:40.998Z</time></trkpt><trkpt lat="45.329525" lon="8.8287933"><ele>111.99999999999999</ele><time>2026-04-19T09:17:42.997Z</time></trkpt><trkpt lat="45.329485" lon="8.828635"><ele>112.0</ele><time>2026-04-19T09:17:44.998Z</time></trkpt><trkpt lat="45.3294517" lon="8.8285467"><ele>112.0</ele><time>2026-04-19T09:17:45.997Z</time></trkpt><trkpt lat="45.3294117" lon="8.8284567"><ele>112.19999999999999</ele><time>2026-04-19T09:17:46.997Z</time></trkpt><trkpt lat="45.3293733" lon="8.8283617"><ele>112.39999999999999</ele><time>2026-04-19T09:17:47.997Z</time></trkpt><trkpt lat="45.3292983" lon="8.8281683"><ele>112.60000000000001</ele><time>2026-04-19T09:17:49.998Z</time></trkpt><trkpt lat="45.3292533" lon="8.8280683"><ele>112.80000000000001</ele><time>2026-04-19T09:17:50.998Z</time></trkpt><trkpt lat="45.329205" lon="8.8279567"><ele>113.0</ele><time>2026-04-19T09:17:51.998Z</time></trkpt><trkpt lat="45.3291567" lon="8.82786"><ele>113.0</ele><time>2026-04-19T09:17:52.998Z</time></trkpt><trkpt lat="45.329125" lon="8.8277383"><ele>113.00000000000001</ele><time>2026-04-19T09:17:53.998Z</time></trkpt><trkpt lat="45.3290867" lon="8.8276217"><ele>113.00000000000001</ele><time>2026-04-19T09:17:54.998Z</time></trkpt><trkpt lat="45.3290483" lon="8.8275033"><ele>113.0</ele><time>2026-04-19T09:17:55.998Z</time></trkpt><trkpt lat="45.3290067" lon="8.8273617"><ele>113.0</ele><time>2026-04-19T09:17:56.998Z</time></trkpt><trkpt lat="45.328975" lon="8.8272033"><ele>113.0</ele><time>2026-04-19T09:17:57.998Z</time></trkpt><trkpt lat="45.3289383" lon="8.82704"><ele>113.0</ele><time>2026-04-19T09:17:58.997Z</time></trkpt><trkpt lat="45.3289033" lon="8.82688"><ele>113.0</ele><time>2026-04-19T09:17:59.998Z</time></trkpt><trkpt lat="45.3288733" lon="8.8267317"><ele>113.0</ele><time>2026-04-19T09:18:00.998Z</time></trkpt><trkpt lat="45.3288217" lon="8.8265833"><ele>113.0</ele><time>2026-04-19T09:18:01.998Z</time></trkpt><trkpt lat="45.328775" lon="8.8264383"><ele>113.00000000000001</ele><time>2026-04-19T09:18:02.998Z</time></trkpt><trkpt lat="45.3287433" lon="8.8263067"><ele>113.00000000000001</ele><time>2026-04-19T09:18:03.997Z</time></trkpt><trkpt lat="45.3287067" lon="8.8261683"><ele>113.0</ele><time>2026-04-19T09:18:04.998Z</time></trkpt><trkpt lat="45.3286783" lon="8.826035"><ele>113.0</ele><time>2026-04-19T09:18:05.998Z</time></trkpt><trkpt lat="45.3286417" lon="8.8259167"><ele>112.99999999999999</ele><time>2026-04-19T09:18:06.997Z</time></trkpt><trkpt lat="45.3286067" lon="8.82581"><ele>113.0</ele><time>2026-04-19T09:18:07.997Z</time></trkpt><trkpt lat="45.328575" lon="8.8257033"><ele>113.0</ele><time>2026-04-19T09:18:08.997Z</time></trkpt><trkpt lat="45.3285567" lon="8.8256033"><ele>113.0</ele><time>2026-04-19T09:18:09.997Z</time></trkpt><trkpt lat="45.3285383" lon="8.8254917"><ele>112.99999999999999</ele><time>2026-04-19T09:18:10.998Z</time></trkpt><trkpt lat="45.3285067" lon="8.82538"><ele>113.0</ele><time>2026-04-19T09:18:11.997Z</time></trkpt><trkpt lat="45.3284633" lon="8.8252833"><ele>113.0</ele><time>2026-04-19T09:18:12.998Z</time></trkpt><trkpt lat="45.32842" lon="8.82517"><ele>113.00000000000001</ele><time>2026-04-19T09:18:13.997Z</time></trkpt><trkpt lat="45.3283883" lon="8.8250317"><ele>113.00000000000001</ele><time>2026-04-19T09:18:14.997Z</time></trkpt><trkpt lat="45.3283667" lon="8.8248883"><ele>113.0</ele><time>2026-04-19T09:18:15.998Z</time></trkpt><trkpt lat="45.328345" lon="8.8247567"><ele>113.0</ele><time>2026-04-19T09:18:16.998Z</time></trkpt><trkpt lat="45.3283233" lon="8.824625"><ele>112.60000000000001</ele><time>2026-04-19T09:18:17.998Z</time></trkpt><trkpt lat="45.3283017" lon="8.8245233"><ele>112.20000000000002</ele><time>2026-04-19T09:18:18.998Z</time></trkpt><trkpt lat="45.328285" lon="8.8243967"><ele>111.8</ele><time>2026-04-19T09:18:20.997Z</time></trkpt><trkpt lat="45.3283467" lon="8.8243067"><ele>111.4</ele><time>2026-04-19T09:18:22.997Z</time></trkpt><trkpt lat="45.328425" lon="8.8242717"><ele>111.0</ele><time>2026-04-19T09:18:23.997Z</time></trkpt><trkpt lat="45.3285333" lon="8.824215"><ele>110.75</ele><time>2026-04-19T09:18:24.997Z</time></trkpt><trkpt lat="45.32865" lon="8.82413"><ele>110.5</ele><time>2026-04-19T09:18:25.998Z</time></trkpt><trkpt lat="45.3287617" lon="8.8240383"><ele>110.25</ele><time>2026-04-19T09:18:26.998Z</time></trkpt><trkpt lat="45.3288883" lon="8.8239317"><ele>110.0</ele><time>2026-04-19T09:18:27.998Z</time></trkpt><trkpt lat="45.329025" lon="8.8238233"><ele>110.0</ele><time>2026-04-19T09:18:28.998Z</time></trkpt><trkpt lat="45.3291683" lon="8.823725"><ele>110.0</ele><time>2026-04-19T09:18:29.997Z</time></trkpt><trkpt lat="45.32932" lon="8.8236533"><ele>110.0</ele><time>2026-04-19T09:18:30.998Z</time></trkpt><trkpt lat="45.329465" lon="8.823595"><ele>110.0</ele><time>2026-04-19T09:18:31.997Z</time></trkpt><trkpt lat="45.3296033" lon="8.8235383"><ele>110.0</ele><time>2026-04-19T09:18:32.998Z</time></trkpt><trkpt lat="45.3297667" lon="8.823485"><ele>110.0</ele><time>2026-04-19T09:18:33.998Z</time></trkpt><trkpt lat="45.32994" lon="8.8234283"><ele>110.33333333333333</ele><time>2026-04-19T09:18:34.998Z</time></trkpt><trkpt lat="45.3301017" lon="8.8233533"><ele>110.66666666666666</ele><time>2026-04-19T09:18:35.998Z</time></trkpt><trkpt lat="45.3302533" lon="8.8232817"><ele>111.0</ele><time>2026-04-19T09:18:36.998Z</time></trkpt><trkpt lat="45.3304033" lon="8.8232067"><ele>111.0</ele><time>2026-04-19T09:18:37.997Z</time></trkpt><trkpt lat="45.330555" lon="8.823115"><ele>111.0</ele><time>2026-04-19T09:18:38.997Z</time></trkpt><trkpt lat="45.33071" lon="8.8230317"><ele>111.0</ele><time>2026-04-19T09:18:39.997Z</time></trkpt><trkpt lat="45.3308617" lon="8.8229567"><ele>111.75</ele><time>2026-04-19T09:18:40.998Z</time></trkpt><trkpt lat="45.3309933" lon="8.8228833"><ele>112.5</ele><time>2026-04-19T09:18:41.998Z</time></trkpt><trkpt lat="45.3311217" lon="8.8228033"><ele>113.25</ele><time>2026-04-19T09:18:42.998Z</time></trkpt><trkpt lat="45.3312417" lon="8.82274"><ele>114.0</ele><time>2026-04-19T09:18:43.997Z</time></trkpt><trkpt lat="45.3313467" lon="8.8226817"><ele>113.66666666666667</ele><time>2026-04-19T09:18:44.998Z</time></trkpt><trkpt lat="45.33145" lon="8.8226133"><ele>113.33333333333334</ele><time>2026-04-19T09:18:45.997Z</time></trkpt><trkpt lat="45.3315333" lon="8.8225533"><ele>113.0</ele><time>2026-04-19T09:18:46.997Z</time></trkpt><trkpt lat="45.3316117" lon="8.822505"><ele>112.66666666666667</ele><time>2026-04-19T09:18:47.998Z</time></trkpt><trkpt lat="45.33169" lon="8.822465"><ele>112.33333333333334</ele><time>2026-04-19T09:18:48.998Z</time></trkpt><trkpt lat="45.3317533" lon="8.8224217"><ele>112.0</ele><time>2026-04-19T09:18:49.998Z</time></trkpt><trkpt lat="45.3318467" lon="8.8223683"><ele>112.00000000000001</ele><time>2026-04-19T09:18:51.998Z</time></trkpt><trkpt lat="45.3319083" lon="8.822395"><ele>112.0</ele><time>2026-04-19T09:18:53.997Z</time></trkpt><trkpt lat="45.3319633" lon="8.8225017"><ele>112.0</ele><time>2026-04-19T09:18:55.998Z</time></trkpt><trkpt lat="45.332015" lon="8.822595"><ele>112.0</ele><time>2026-04-19T09:18:57.998Z</time></trkpt><trkpt lat="45.3320833" lon="8.8226133"><ele>112.00000000000001</ele><time>2026-04-19T09:18:59.998Z</time></trkpt><trkpt lat="45.3321217" lon="8.8225117"><ele>112.0</ele><time>2026-04-19T09:19:01.997Z</time></trkpt><trkpt lat="45.3321333" lon="8.822365"><ele>112.00000000000001</ele><time>2026-04-19T09:19:03.998Z</time></trkpt><trkpt lat="45.3321283" lon="8.8222667"><ele>112.0</ele><time>2026-04-19T09:19:04.997Z</time></trkpt><trkpt lat="45.33212" lon="8.8221517"><ele>112.0</ele><time>2026-04-19T09:19:05.997Z</time></trkpt><trkpt lat="45.3321083" lon="8.8220317"><ele>112.0</ele><time>2026-04-19T09:19:06.997Z</time></trkpt><trkpt lat="45.3321033" lon="8.8219083"><ele>112.00000000000001</ele><time>2026-04-19T09:19:07.997Z</time></trkpt><trkpt lat="45.3321017" lon="8.8217667"><ele>112.0</ele><time>2026-04-19T09:19:08.998Z</time></trkpt><trkpt lat="45.3321017" lon="8.8216133"><ele>111.6</ele><time>2026-04-19T09:19:09.998Z</time></trkpt><trkpt lat="45.3321" lon="8.8214617"><ele>111.19999999999999</ele><time>2026-04-19T09:19:10.997Z</time></trkpt><trkpt lat="45.3321133" lon="8.8213133"><ele>110.8</ele><time>2026-04-19T09:19:11.998Z</time></trkpt><trkpt lat="45.3321317" lon="8.82116"><ele>110.4</ele><time>2026-04-19T09:19:12.998Z</time></trkpt><trkpt lat="45.3321617" lon="8.8210083"><ele>110.0</ele><time>2026-04-19T09:19:13.997Z</time></trkpt><trkpt lat="45.3322083" lon="8.82086"><ele>109.75</ele><time>2026-04-19T09:19:14.997Z</time></trkpt><trkpt lat="45.3322617" lon="8.8207117"><ele>109.5</ele><time>2026-04-19T09:19:15.998Z</time></trkpt><trkpt lat="45.3323133" lon="8.820565"><ele>109.25</ele><time>2026-04-19T09:19:16.998Z</time></trkpt><trkpt lat="45.3323683" lon="8.8204083"><ele>109.0</ele><time>2026-04-19T09:19:17.997Z</time></trkpt><trkpt lat="45.332425" lon="8.8202417"><ele>108.75</ele><time>2026-04-19T09:19:18.997Z</time></trkpt><trkpt lat="45.3324867" lon="8.8200733"><ele>108.5</ele><time>2026-04-19T09:19:19.998Z</time></trkpt><trkpt lat="45.3325467" lon="8.8199067"><ele>108.25</ele><time>2026-04-19T09:19:20.998Z</time></trkpt><trkpt lat="45.3326" lon="8.8197417"><ele>108.0</ele><time>2026-04-19T09:19:21.998Z</time></trkpt><trkpt lat="45.3326583" lon="8.8195717"><ele>108.0</ele><time>2026-04-19T09:19:22.997Z</time></trkpt><trkpt lat="45.3327117" lon="8.8193983"><ele>108.0</ele><time>2026-04-19T09:19:23.998Z</time></trkpt><trkpt lat="45.3327667" lon="8.8192267"><ele>108.0</ele><time>2026-04-19T09:19:24.997Z</time></trkpt><trkpt lat="45.3328283" lon="8.819045"><ele>108.0</ele><time>2026-04-19T09:19:25.997Z</time></trkpt><trkpt lat="45.3329" lon="8.8188533"><ele>108.33333333333334</ele><time>2026-04-19T09:19:26.997Z</time></trkpt><trkpt lat="45.332975" lon="8.8186617"><ele>108.66666666666667</ele><time>2026-04-19T09:19:27.997Z</time></trkpt><trkpt lat="45.333045" lon="8.8184617"><ele>109.0</ele><time>2026-04-19T09:19:28.997Z</time></trkpt><trkpt lat="45.333105" lon="8.8182617"><ele>109.0</ele><time>2026-04-19T09:19:29.996Z</time></trkpt><trkpt lat="45.3331617" lon="8.818055"><ele>109.0</ele><time>2026-04-19T09:19:30.997Z</time></trkpt><trkpt lat="45.3332233" lon="8.8178383"><ele>109.0</ele><time>2026-04-19T09:19:31.997Z</time></trkpt><trkpt lat="45.3332933" lon="8.8176367"><ele>109.33333333333334</ele><time>2026-04-19T09:19:32.997Z</time></trkpt><trkpt lat="45.33336" lon="8.81744"><ele>109.66666666666666</ele><time>2026-04-19T09:19:33.997Z</time></trkpt><trkpt lat="45.33343" lon="8.8172367"><ele>110.0</ele><time>2026-04-19T09:19:34.997Z</time></trkpt><trkpt lat="45.3335017" lon="8.8170267"><ele>110.0</ele><time>2026-04-19T09:19:35.997Z</time></trkpt><trkpt lat="45.3335667" lon="8.8168283"><ele>110.0</ele><time>2026-04-19T09:19:36.997Z</time></trkpt><trkpt lat="45.33363" lon="8.8166283"><ele>110.0</ele><time>2026-04-19T09:19:37.996Z</time></trkpt><trkpt lat="45.3337" lon="8.81642"><ele>110.0</ele><time>2026-04-19T09:19:38.997Z</time></trkpt><trkpt lat="45.3337767" lon="8.81621"><ele>110.0</ele><time>2026-04-19T09:19:39.996Z</time></trkpt><trkpt lat="45.3338633" lon="8.8160017"><ele>110.0</ele><time>2026-04-19T09:19:40.997Z</time></trkpt><trkpt lat="45.3339517" lon="8.8158133"><ele>110.0</ele><time>2026-04-19T09:19:41.996Z</time></trkpt><trkpt lat="45.3340533" lon="8.815625"><ele>110.0</ele><time>2026-04-19T09:19:42.997Z</time></trkpt><trkpt lat="45.334165" lon="8.8154517"><ele>110.0</ele><time>2026-04-19T09:19:43.997Z</time></trkpt><trkpt lat="45.334275" lon="8.8152833"><ele>109.66666666666666</ele><time>2026-04-19T09:19:44.997Z</time></trkpt><trkpt lat="45.334385" lon="8.81511"><ele>109.33333333333334</ele><time>2026-04-19T09:19:45.996Z</time></trkpt><trkpt lat="45.334495" lon="8.8149317"><ele>109.0</ele><time>2026-04-19T09:19:46.997Z</time></trkpt><trkpt lat="45.3346083" lon="8.8147517"><ele>109.0</ele><time>2026-04-19T09:19:47.997Z</time></trkpt><trkpt lat="45.3347217" lon="8.814575"><ele>109.0</ele><time>2026-04-19T09:19:48.997Z</time></trkpt><trkpt lat="45.33483" lon="8.8144"><ele>109.0</ele><time>2026-04-19T09:19:49.996Z</time></trkpt><trkpt lat="45.3349367" lon="8.8142217"><ele>109.0</ele><time>2026-04-19T09:19:50.996Z</time></trkpt><trkpt lat="45.3350483" lon="8.8140317"><ele>109.0</ele><time>2026-04-19T09:19:51.997Z</time></trkpt><trkpt lat="45.3351617" lon="8.8138533"><ele>109.0</ele><time>2026-04-19T09:19:52.996Z</time></trkpt><trkpt lat="45.3352767" lon="8.8136667"><ele>109.0</ele><time>2026-04-19T09:19:53.997Z</time></trkpt><trkpt lat="45.335395" lon="8.8134867"><ele>109.0</ele><time>2026-04-19T09:19:54.997Z</time></trkpt><trkpt lat="45.335505" lon="8.813305"><ele>109.0</ele><time>2026-04-19T09:19:55.997Z</time></trkpt><trkpt lat="45.335625" lon="8.8131267"><ele>109.0</ele><time>2026-04-19T09:19:56.996Z</time></trkpt><trkpt lat="45.3357383" lon="8.8129517"><ele>109.0</ele><time>2026-04-19T09:19:57.997Z</time></trkpt><trkpt lat="45.3358483" lon="8.8127717"><ele>109.0</ele><time>2026-04-19T09:19:58.996Z</time></trkpt><trkpt lat="45.3359617" lon="8.8125917"><ele>109.33333333333334</ele><time>2026-04-19T09:19:59.996Z</time></trkpt><trkpt lat="45.3360717" lon="8.8124067"><ele>109.66666666666666</ele><time>2026-04-19T09:20:00.997Z</time></trkpt><trkpt lat="45.3361767" lon="8.81222"><ele>110.0</ele><time>2026-04-19T09:20:01.996Z</time></trkpt><trkpt lat="45.336285" lon="8.8120283"><ele>110.0</ele><time>2026-04-19T09:20:02.997Z</time></trkpt><trkpt lat="45.3364" lon="8.8118467"><ele>110.0</ele><time>2026-04-19T09:20:03.996Z</time></trkpt><trkpt lat="45.3365133" lon="8.811665"><ele>110.0</ele><time>2026-04-19T09:20:04.997Z</time></trkpt><trkpt lat="45.3366267" lon="8.81149"><ele>110.0</ele><time>2026-04-19T09:20:05.997Z</time></trkpt><trkpt lat="45.3367417" lon="8.8113067"><ele>110.0</ele><time>2026-04-19T09:20:06.997Z</time></trkpt><trkpt lat="45.3368533" lon="8.8111167"><ele>110.0</ele><time>2026-04-19T09:20:07.997Z</time></trkpt><trkpt lat="45.33696" lon="8.8109317"><ele>110.0</ele><time>2026-04-19T09:20:08.997Z</time></trkpt><trkpt lat="45.3370617" lon="8.81076"><ele>110.0</ele><time>2026-04-19T09:20:09.996Z</time></trkpt><trkpt lat="45.3371667" lon="8.8105867"><ele>110.0</ele><time>2026-04-19T09:20:10.997Z</time></trkpt><trkpt lat="45.3372733" lon="8.81041"><ele>109.66666666666666</ele><time>2026-04-19T09:20:11.996Z</time></trkpt><trkpt lat="45.33738" lon="8.8102383"><ele>109.33333333333334</ele><time>2026-04-19T09:20:12.996Z</time></trkpt><trkpt lat="45.3374783" lon="8.81007"><ele>109.0</ele><time>2026-04-19T09:20:13.997Z</time></trkpt><trkpt lat="45.3375767" lon="8.8099017"><ele>109.66666666666667</ele><time>2026-04-19T09:20:14.997Z</time></trkpt><trkpt lat="45.3376733" lon="8.8097283"><ele>110.33333333333334</ele><time>2026-04-19T09:20:15.996Z</time></trkpt><trkpt lat="45.337775" lon="8.80954"><ele>111.0</ele><time>2026-04-19T09:20:16.997Z</time></trkpt><trkpt lat="45.3378667" lon="8.809355"><ele>110.66666666666666</ele><time>2026-04-19T09:20:17.996Z</time></trkpt><trkpt lat="45.33796" lon="8.8091633"><ele>110.33333333333333</ele><time>2026-04-19T09:20:18.996Z</time></trkpt><trkpt lat="45.3380483" lon="8.8089717"><ele>110.0</ele><time>2026-04-19T09:20:19.997Z</time></trkpt><trkpt lat="45.3381317" lon="8.8087833"><ele>110.0</ele><time>2026-04-19T09:20:20.997Z</time></trkpt><trkpt lat="45.3382117" lon="8.80859"><ele>110.0</ele><time>2026-04-19T09:20:21.997Z</time></trkpt><trkpt lat="45.3383" lon="8.8084"><ele>110.0</ele><time>2026-04-19T09:20:22.996Z</time></trkpt><trkpt lat="45.3383867" lon="8.808205"><ele>110.0</ele><time>2026-04-19T09:20:23.996Z</time></trkpt><trkpt lat="45.3384667" lon="8.808"><ele>110.0</ele><time>2026-04-19T09:20:24.997Z</time></trkpt><trkpt lat="45.3385483" lon="8.8077967"><ele>110.0</ele><time>2026-04-19T09:20:25.997Z</time></trkpt><trkpt lat="45.3386283" lon="8.8075833"><ele>110.0</ele><time>2026-04-19T09:20:26.997Z</time></trkpt><trkpt lat="45.3387033" lon="8.8073733"><ele>110.0</ele><time>2026-04-19T09:20:27.996Z</time></trkpt><trkpt lat="45.3387717" lon="8.8071667"><ele>110.0</ele><time>2026-04-19T09:20:28.996Z</time></trkpt><trkpt lat="45.3388467" lon="8.8069533"><ele>109.33333333333333</ele><time>2026-04-19T09:20:29.996Z</time></trkpt><trkpt lat="45.338925" lon="8.8067417"><ele>108.66666666666666</ele><time>2026-04-19T09:20:30.997Z</time></trkpt><trkpt lat="45.3390017" lon="8.8065183"><ele>108.0</ele><time>2026-04-19T09:20:31.997Z</time></trkpt><trkpt lat="45.3390733" lon="8.8062983"><ele>108.0</ele><time>2026-04-19T09:20:32.997Z</time></trkpt><trkpt lat="45.3391433" lon="8.8060717"><ele>108.0</ele><time>2026-04-19T09:20:33.997Z</time></trkpt><trkpt lat="45.3392233" lon="8.8058517"><ele>108.0</ele><time>2026-04-19T09:20:34.997Z</time></trkpt><trkpt lat="45.3392967" lon="8.80564"><ele>108.66666666666666</ele><time>2026-04-19T09:20:35.996Z</time></trkpt><trkpt lat="45.3393683" lon="8.8054233"><ele>109.33333333333333</ele><time>2026-04-19T09:20:36.997Z</time></trkpt><trkpt lat="45.3394383" lon="8.805215"><ele>110.0</ele><time>2026-04-19T09:20:37.997Z</time></trkpt><trkpt lat="45.339515" lon="8.8050267"><ele>110.25</ele><time>2026-04-19T09:20:38.997Z</time></trkpt><trkpt lat="45.33959" lon="8.8048517"><ele>110.5</ele><time>2026-04-19T09:20:39.997Z</time></trkpt><trkpt lat="45.3396617" lon="8.8046817"><ele>110.75</ele><time>2026-04-19T09:20:40.997Z</time></trkpt><trkpt lat="45.3397383" lon="8.8045267"><ele>111.0</ele><time>2026-04-19T09:20:41.997Z</time></trkpt><trkpt lat="45.33981" lon="8.8043883"><ele>110.5</ele><time>2026-04-19T09:20:42.997Z</time></trkpt><trkpt lat="45.339885" lon="8.8042783"><ele>110.0</ele><time>2026-04-19T09:20:43.997Z</time></trkpt><trkpt lat="45.3399717" lon="8.804165"><ele>109.5</ele><time>2026-04-19T09:20:44.997Z</time></trkpt><trkpt lat="45.3400633" lon="8.80405"><ele>109.0</ele><time>2026-04-19T09:20:45.997Z</time></trkpt><trkpt lat="45.3401433" lon="8.80394"><ele>109.0</ele><time>2026-04-19T09:20:46.997Z</time></trkpt><trkpt lat="45.3402117" lon="8.8038283"><ele>109.0</ele><time>2026-04-19T09:20:47.997Z</time></trkpt><trkpt lat="45.3402667" lon="8.8037033"><ele>109.0</ele><time>2026-04-19T09:20:48.997Z</time></trkpt><trkpt lat="45.3403183" lon="8.8035917"><ele>109.0</ele><time>2026-04-19T09:20:49.997Z</time></trkpt><trkpt lat="45.3403667" lon="8.8035017"><ele>109.0</ele><time>2026-04-19T09:20:50.996Z</time></trkpt><trkpt lat="45.3404433" lon="8.8034267"><ele>109.2</ele><time>2026-04-19T09:20:51.997Z</time></trkpt><trkpt lat="45.3405367" lon="8.803355"><ele>109.4</ele><time>2026-04-19T09:20:52.997Z</time></trkpt><trkpt lat="45.3406333" lon="8.8032933"><ele>109.6</ele><time>2026-04-19T09:20:53.996Z</time></trkpt><trkpt lat="45.3407267" lon="8.8032383"><ele>109.8</ele><time>2026-04-19T09:20:54.997Z</time></trkpt><trkpt lat="45.3408117" lon="8.8031633"><ele>110.0</ele><time>2026-04-19T09:20:55.996Z</time></trkpt><trkpt lat="45.34089" lon="8.8031"><ele>109.99999999999999</ele><time>2026-04-19T09:20:56.997Z</time></trkpt><trkpt lat="45.340965" lon="8.8030483"><ele>110.0</ele><time>2026-04-19T09:20:57.996Z</time></trkpt><trkpt lat="45.3410333" lon="8.802985"><ele>110.0</ele><time>2026-04-19T09:20:58.997Z</time></trkpt><trkpt lat="45.3411017" lon="8.8029317"><ele>110.0</ele><time>2026-04-19T09:20:59.996Z</time></trkpt><trkpt lat="45.3411667" lon="8.8029017"><ele>109.99999999999999</ele><time>2026-04-19T09:21:00.997Z</time></trkpt><trkpt lat="45.3412517" lon="8.802865"><ele>110.0</ele><time>2026-04-19T09:21:02.997Z</time></trkpt><trkpt lat="45.34133" lon="8.8027867"><ele>110.2</ele><time>2026-04-19T09:22:17.996Z</time></trkpt><trkpt lat="45.3413883" lon="8.8027417"><ele>110.4</ele><time>2026-04-19T09:22:18.996Z</time></trkpt><trkpt lat="45.3414667" lon="8.8026783"><ele>110.6</ele><time>2026-04-19T09:22:19.997Z</time></trkpt><trkpt lat="45.341555" lon="8.8026117"><ele>110.8</ele><time>2026-04-19T09:22:20.996Z</time></trkpt><trkpt lat="45.3416567" lon="8.8025333"><ele>111.0</ele><time>2026-04-19T09:22:21.997Z</time></trkpt><trkpt lat="45.3417667" lon="8.802445"><ele>111.0</ele><time>2026-04-19T09:22:22.996Z</time></trkpt><trkpt lat="45.3418717" lon="8.8023583"><ele>111.0</ele><time>2026-04-19T09:22:23.997Z</time></trkpt><trkpt lat="45.341965" lon="8.8022883"><ele>111.0</ele><time>2026-04-19T09:22:24.997Z</time></trkpt><trkpt lat="45.342045" lon="8.802225"><ele>111.0</ele><time>2026-04-19T09:22:25.996Z</time></trkpt><trkpt lat="45.34212" lon="8.80217"><ele>111.0</ele><time>2026-04-19T09:22:26.997Z</time></trkpt><trkpt lat="45.3421883" lon="8.8021217"><ele>111.4</ele><time>2026-04-19T09:22:27.997Z</time></trkpt><trkpt lat="45.3422467" lon="8.8020767"><ele>111.8</ele><time>2026-04-19T09:22:28.997Z</time></trkpt><trkpt lat="45.3423667" lon="8.80208"><ele>112.20000000000002</ele><time>2026-04-19T09:22:30.996Z</time></trkpt><trkpt lat="45.3424583" lon="8.80219"><ele>112.60000000000001</ele><time>2026-04-19T09:22:32.996Z</time></trkpt><trkpt lat="45.3425117" lon="8.802355"><ele>113.0</ele><time>2026-04-19T09:22:34.996Z</time></trkpt><trkpt lat="45.3425517" lon="8.8024467"><ele>112.99999999999999</ele><time>2026-04-19T09:22:35.997Z</time></trkpt><trkpt lat="45.342605" lon="8.8025267"><ele>113.0</ele><time>2026-04-19T09:22:36.996Z</time></trkpt><trkpt lat="45.34266" lon="8.8025867"><ele>113.0</ele><time>2026-04-19T09:22:37.997Z</time></trkpt><trkpt lat="45.342735" lon="8.8025917"><ele>113.0</ele><time>2026-04-19T09:22:38.997Z</time></trkpt><trkpt lat="45.3428033" lon="8.8025717"><ele>112.99999999999999</ele><time>2026-04-19T09:22:39.997Z</time></trkpt><trkpt lat="45.3428767" lon="8.8025283"><ele>113.0</ele><time>2026-04-19T09:22:40.996Z</time></trkpt><trkpt lat="45.3429533" lon="8.80247"><ele>113.0</ele><time>2026-04-19T09:22:41.997Z</time></trkpt><trkpt lat="45.3430367" lon="8.8023917"><ele>113.00000000000001</ele><time>2026-04-19T09:22:42.997Z</time></trkpt><trkpt lat="45.3431217" lon="8.8023117"><ele>113.00000000000001</ele><time>2026-04-19T09:22:43.997Z</time></trkpt><trkpt lat="45.34321" lon="8.8022383"><ele>113.0</ele><time>2026-04-19T09:22:44.997Z</time></trkpt><trkpt lat="45.3433017" lon="8.8021767"><ele>113.0</ele><time>2026-04-19T09:22:45.996Z</time></trkpt><trkpt lat="45.3433883" lon="8.802125"><ele>113.0</ele><time>2026-04-19T09:22:46.997Z</time></trkpt><trkpt lat="45.3434533" lon="8.8020817"><ele>113.00000000000001</ele><time>2026-04-19T09:22:47.997Z</time></trkpt><trkpt lat="45.34355" lon="8.8019933"><ele>113.00000000000001</ele><time>2026-04-19T09:22:49.997Z</time></trkpt><trkpt lat="45.3435567" lon="8.8018717"><ele>113.0</ele><time>2026-04-19T09:22:51.997Z</time></trkpt><trkpt lat="45.3434967" lon="8.8017883"><ele>113.0</ele><time>2026-04-19T09:22:52.997Z</time></trkpt><trkpt lat="45.343425" lon="8.8016867"><ele>112.99999999999999</ele><time>2026-04-19T09:22:53.996Z</time></trkpt><trkpt lat="45.343365" lon="8.80157"><ele>113.0</ele><time>2026-04-19T09:22:54.997Z</time></trkpt><trkpt lat="45.3433183" lon="8.801475"><ele>113.0</ele><time>2026-04-19T09:22:55.997Z</time></trkpt><trkpt lat="45.3432833" lon="8.801385"><ele>113.0</ele><time>2026-04-19T09:22:56.996Z</time></trkpt><trkpt lat="45.3432983" lon="8.8012333"><ele>112.99999999999999</ele><time>2026-04-19T09:22:58.997Z</time></trkpt><trkpt lat="45.3433517" lon="8.8011733"><ele>113.0</ele><time>2026-04-19T09:22:59.996Z</time></trkpt><trkpt lat="45.3434333" lon="8.80111"><ele>113.0</ele><time>2026-04-19T09:23:00.996Z</time></trkpt><trkpt lat="45.343535" lon="8.801045"><ele>113.0</ele><time>2026-04-19T09:23:01.996Z</time></trkpt><trkpt lat="45.3436433" lon="8.8009617"><ele>113.0</ele><time>2026-04-19T09:23:02.997Z</time></trkpt><trkpt lat="45.3437633" lon="8.8008667"><ele>113.0</ele><time>2026-04-19T09:23:03.996Z</time></trkpt><trkpt lat="45.34389" lon="8.80077"><ele>112.66666666666666</ele><time>2026-04-19T09:23:04.996Z</time></trkpt><trkpt lat="45.3440217" lon="8.80068"><ele>112.33333333333334</ele><time>2026-04-19T09:23:05.997Z</time></trkpt><trkpt lat="45.3441633" lon="8.800585"><ele>112.0</ele><time>2026-04-19T09:23:06.996Z</time></trkpt><trkpt lat="45.3442967" lon="8.800485"><ele>112.0</ele><time>2026-04-19T09:23:07.997Z</time></trkpt><trkpt lat="45.3444217" lon="8.8003767"><ele>112.0</ele><time>2026-04-19T09:23:08.997Z</time></trkpt><trkpt lat="45.3445367" lon="8.8002817"><ele>112.0</ele><time>2026-04-19T09:23:09.996Z</time></trkpt><trkpt lat="45.3446533" lon="8.80018"><ele>112.0</ele><time>2026-04-19T09:23:10.997Z</time></trkpt><trkpt lat="45.3447567" lon="8.8001"><ele>112.19999999999999</ele><time>2026-04-19T09:23:11.997Z</time></trkpt><trkpt lat="45.34486" lon="8.80003"><ele>112.39999999999999</ele><time>2026-04-19T09:23:12.996Z</time></trkpt><trkpt lat="45.34496" lon="8.7999517"><ele>112.60000000000001</ele><time>2026-04-19T09:23:13.995Z</time></trkpt><trkpt lat="45.34505" lon="8.7998817"><ele>112.80000000000001</ele><time>2026-04-19T09:23:14.996Z</time></trkpt><trkpt lat="45.3451333" lon="8.7998267"><ele>113.0</ele><time>2026-04-19T09:23:15.996Z</time></trkpt><trkpt lat="45.3452083" lon="8.799785"><ele>113.0</ele><time>2026-04-19T09:23:16.996Z</time></trkpt><trkpt lat="45.3452883" lon="8.7996817"><ele>113.00000000000001</ele><time>2026-04-19T09:23:18.995Z</time></trkpt><trkpt lat="45.3452717" lon="8.7995083"><ele>113.00000000000001</ele><time>2026-04-19T09:23:20.996Z</time></trkpt><trkpt lat="45.345235" lon="8.7994067"><ele>113.0</ele><time>2026-04-19T09:23:21.996Z</time></trkpt><trkpt lat="45.34519" lon="8.7992767"><ele>113.0</ele><time>2026-04-19T09:23:22.995Z</time></trkpt><trkpt lat="45.3451317" lon="8.7991283"><ele>112.75</ele><time>2026-04-19T09:23:23.996Z</time></trkpt><trkpt lat="45.3450683" lon="8.7989633"><ele>112.5</ele><time>2026-04-19T09:23:24.995Z</time></trkpt><trkpt lat="45.3449983" lon="8.7988083"><ele>112.25</ele><time>2026-04-19T09:23:25.995Z</time></trkpt><trkpt lat="45.3449233" lon="8.7986417"><ele>112.0</ele><time>2026-04-19T09:23:26.996Z</time></trkpt><trkpt lat="45.344855" lon="8.79848"><ele>112.5</ele><time>2026-04-19T09:23:27.995Z</time></trkpt><trkpt lat="45.3447917" lon="8.7983"><ele>113.0</ele><time>2026-04-19T09:23:28.995Z</time></trkpt><trkpt lat="45.34473" lon="8.7981217"><ele>113.5</ele><time>2026-04-19T09:23:29.995Z</time></trkpt><trkpt lat="45.3446567" lon="8.7979383"><ele>114.0</ele><time>2026-04-19T09:23:30.995Z</time></trkpt><trkpt lat="45.3445783" lon="8.7977633"><ele>113.0</ele><time>2026-04-19T09:23:31.996Z</time></trkpt><trkpt lat="45.3445083" lon="8.7975883"><ele>112.0</ele><time>2026-04-19T09:23:32.995Z</time></trkpt><trkpt lat="45.3444367" lon="8.7973983"><ele>111.0</ele><time>2026-04-19T09:23:33.996Z</time></trkpt><trkpt lat="45.3443667" lon="8.797205"><ele>110.0</ele><time>2026-04-19T09:23:34.995Z</time></trkpt><trkpt lat="45.344295" lon="8.797025"><ele>110.0</ele><time>2026-04-19T09:23:35.996Z</time></trkpt><trkpt lat="45.3442283" lon="8.796855"><ele>110.0</ele><time>2026-04-19T09:23:36.996Z</time></trkpt><trkpt lat="45.3441517" lon="8.7966917"><ele>110.0</ele><time>2026-04-19T09:23:37.995Z</time></trkpt><trkpt lat="45.3440883" lon="8.796545"><ele>110.0</ele><time>2026-04-19T09:23:38.996Z</time></trkpt><trkpt lat="45.3440333" lon="8.7964117"><ele>110.4</ele><time>2026-04-19T09:23:39.995Z</time></trkpt><trkpt lat="45.34399" lon="8.7962917"><ele>110.8</ele><time>2026-04-19T09:23:40.995Z</time></trkpt><trkpt lat="45.3439483" lon="8.7961917"><ele>111.19999999999999</ele><time>2026-04-19T09:23:41.996Z</time></trkpt><trkpt lat="45.3439167" lon="8.79611"><ele>111.6</ele><time>2026-04-19T09:23:42.996Z</time></trkpt><trkpt lat="45.343905" lon="8.79598"><ele>112.0</ele><time>2026-04-19T09:23:44.995Z</time></trkpt><trkpt lat="45.344" lon="8.7958683"><ele>112.00000000000001</ele><time>2026-04-19T09:23:46.995Z</time></trkpt><trkpt lat="45.3440867" lon="8.795815"><ele>112.0</ele><time>2026-04-19T09:23:47.996Z</time></trkpt><trkpt lat="45.34417" lon="8.7957617"><ele>112.0</ele><time>2026-04-19T09:23:48.996Z</time></trkpt><trkpt lat="45.3442433" lon="8.7957033"><ele>112.0</ele><time>2026-04-19T09:23:49.996Z</time></trkpt><trkpt lat="45.3443217" lon="8.79565"><ele>112.00000000000001</ele><time>2026-04-19T09:23:50.995Z</time></trkpt><trkpt lat="45.344395" lon="8.7955967"><ele>112.0</ele><time>2026-04-19T09:23:51.996Z</time></trkpt><trkpt lat="45.3444717" lon="8.7955317"><ele>112.0</ele><time>2026-04-19T09:23:52.995Z</time></trkpt><trkpt lat="45.34455" lon="8.795475"><ele>111.99999999999999</ele><time>2026-04-19T09:23:53.995Z</time></trkpt><trkpt lat="45.34463" lon="8.7954083"><ele>111.99999999999999</ele><time>2026-04-19T09:23:54.995Z</time></trkpt><trkpt lat="45.34471" lon="8.7953433"><ele>112.0</ele><time>2026-04-19T09:23:55.995Z</time></trkpt><trkpt lat="45.344795" lon="8.7952767"><ele>112.0</ele><time>2026-04-19T09:23:56.995Z</time></trkpt><trkpt lat="45.3448733" lon="8.7952083"><ele>112.19999999999999</ele><time>2026-04-19T09:23:57.995Z</time></trkpt><trkpt lat="45.3449617" lon="8.79514"><ele>112.39999999999999</ele><time>2026-04-19T09:23:58.996Z</time></trkpt><trkpt lat="45.3450517" lon="8.7950667"><ele>112.60000000000001</ele><time>2026-04-19T09:23:59.996Z</time></trkpt><trkpt lat="45.34514" lon="8.7949917"><ele>112.80000000000001</ele><time>2026-04-19T09:24:00.996Z</time></trkpt><trkpt lat="45.3452317" lon="8.7949167"><ele>113.0</ele><time>2026-04-19T09:24:01.996Z</time></trkpt><trkpt lat="45.3453167" lon="8.7948417"><ele>112.99999999999999</ele><time>2026-04-19T09:24:02.996Z</time></trkpt><trkpt lat="45.3453933" lon="8.7947767"><ele>113.0</ele><time>2026-04-19T09:24:03.995Z</time></trkpt><trkpt lat="45.34547" lon="8.794715"><ele>113.0</ele><time>2026-04-19T09:24:04.996Z</time></trkpt><trkpt lat="45.34554" lon="8.7946767"><ele>113.0</ele><time>2026-04-19T09:24:05.996Z</time></trkpt><trkpt lat="45.3456067" lon="8.794675"><ele>112.99999999999999</ele><time>2026-04-19T09:24:06.995Z</time></trkpt><trkpt lat="45.3456767" lon="8.7946783"><ele>113.0</ele><time>2026-04-19T09:24:07.996Z</time></trkpt><trkpt lat="45.345745" lon="8.7946717"><ele>113.0</ele><time>2026-04-19T09:24:08.996Z</time></trkpt><trkpt lat="45.3458283" lon="8.7946367"><ele>113.00000000000001</ele><time>2026-04-19T09:24:09.996Z</time></trkpt><trkpt lat="45.3459317" lon="8.79458"><ele>113.00000000000001</ele><time>2026-04-19T09:24:10.996Z</time></trkpt><trkpt lat="45.3460383" lon="8.7945083"><ele>113.0</ele><time>2026-04-19T09:24:11.996Z</time></trkpt><trkpt lat="45.346155" lon="8.7944383"><ele>113.0</ele><time>2026-04-19T09:24:12.995Z</time></trkpt><trkpt lat="45.34628" lon="8.7943617"><ele>113.0</ele><time>2026-04-19T09:24:13.995Z</time></trkpt><trkpt lat="45.3464117" lon="8.7942867"><ele>113.0</ele><time>2026-04-19T09:24:14.995Z</time></trkpt><trkpt lat="45.346555" lon="8.7942"><ele>113.0</ele><time>2026-04-19T09:24:15.995Z</time></trkpt><trkpt lat="45.3466883" lon="8.7941017"><ele>113.0</ele><time>2026-04-19T09:24:16.996Z</time></trkpt><trkpt lat="45.3468283" lon="8.7939983"><ele>113.0</ele><time>2026-04-19T09:24:17.996Z</time></trkpt><trkpt lat="45.3469683" lon="8.79391"><ele>113.0</ele><time>2026-04-19T09:24:18.995Z</time></trkpt><trkpt lat="45.347095" lon="8.7938383"><ele>113.0</ele><time>2026-04-19T09:24:19.996Z</time></trkpt><trkpt lat="45.34721" lon="8.7937683"><ele>113.0</ele><time>2026-04-19T09:24:20.996Z</time></trkpt><trkpt lat="45.347315" lon="8.7936867"><ele>113.0</ele><time>2026-04-19T09:24:21.995Z</time></trkpt><trkpt lat="45.3474233" lon="8.793605"><ele>113.00000000000001</ele><time>2026-04-19T09:24:22.995Z</time></trkpt><trkpt lat="45.347525" lon="8.7935467"><ele>113.00000000000001</ele><time>2026-04-19T09:24:23.996Z</time></trkpt><trkpt lat="45.3476133" lon="8.7935"><ele>113.0</ele><time>2026-04-19T09:24:24.996Z</time></trkpt><trkpt lat="45.3476933" lon="8.7934567"><ele>113.0</ele><time>2026-04-19T09:24:25.996Z</time></trkpt><trkpt lat="45.3477667" lon="8.7934117"><ele>112.99999999999999</ele><time>2026-04-19T09:24:26.996Z</time></trkpt><trkpt lat="45.3478217" lon="8.793365"><ele>113.0</ele><time>2026-04-19T09:24:27.996Z</time></trkpt><trkpt lat="45.3478683" lon="8.793285"><ele>113.0</ele><time>2026-04-19T09:24:28.996Z</time></trkpt><trkpt lat="45.3478983" lon="8.793175"><ele>113.0</ele><time>2026-04-19T09:24:29.995Z</time></trkpt><trkpt lat="45.3478933" lon="8.7930283"><ele>112.99999999999999</ele><time>2026-04-19T09:24:30.995Z</time></trkpt><trkpt lat="45.3478767" lon="8.7928517"><ele>113.0</ele><time>2026-04-19T09:24:31.996Z</time></trkpt><trkpt lat="45.347855" lon="8.7926717"><ele>113.75</ele><time>2026-04-19T09:24:32.996Z</time></trkpt><trkpt lat="45.3478317" lon="8.79249"><ele>114.5</ele><time>2026-04-19T09:24:33.996Z</time></trkpt><trkpt lat="45.3478067" lon="8.7923033"><ele>115.25</ele><time>2026-04-19T09:24:34.996Z</time></trkpt><trkpt lat="45.3477833" lon="8.7921183"><ele>116.0</ele><time>2026-04-19T09:24:35.995Z</time></trkpt><trkpt lat="45.3477633" lon="8.7919083"><ele>115.25</ele><time>2026-04-19T09:24:36.995Z</time></trkpt><trkpt lat="45.3477367" lon="8.7917117"><ele>114.5</ele><time>2026-04-19T09:24:37.996Z</time></trkpt><trkpt lat="45.34771" lon="8.7915"><ele>113.75</ele><time>2026-04-19T09:24:38.996Z</time></trkpt><trkpt lat="45.347685" lon="8.791285"><ele>113.0</ele><time>2026-04-19T09:24:39.996Z</time></trkpt><trkpt lat="45.347665" lon="8.7910867"><ele>112.33333333333333</ele><time>2026-04-19T09:24:40.996Z</time></trkpt><trkpt lat="45.34764" lon="8.790865"><ele>111.66666666666666</ele><time>2026-04-19T09:24:41.996Z</time></trkpt><trkpt lat="45.3476233" lon="8.7906433"><ele>111.0</ele><time>2026-04-19T09:24:42.996Z</time></trkpt><trkpt lat="45.3476" lon="8.790415"><ele>111.0</ele><time>2026-04-19T09:24:43.996Z</time></trkpt><trkpt lat="45.3475717" lon="8.79019"><ele>111.0</ele><time>2026-04-19T09:24:44.996Z</time></trkpt><trkpt lat="45.3475533" lon="8.7899617"><ele>111.0</ele><time>2026-04-19T09:24:45.996Z</time></trkpt><trkpt lat="45.3475233" lon="8.7897333"><ele>111.33333333333334</ele><time>2026-04-19T09:24:46.996Z</time></trkpt><trkpt lat="45.3475017" lon="8.789515"><ele>111.66666666666667</ele><time>2026-04-19T09:24:47.995Z</time></trkpt><trkpt lat="45.3474717" lon="8.7893017"><ele>112.0</ele><time>2026-04-19T09:24:48.995Z</time></trkpt><trkpt lat="45.3474483" lon="8.789085"><ele>112.0</ele><time>2026-04-19T09:24:49.996Z</time></trkpt><trkpt lat="45.3474233" lon="8.7888717"><ele>112.0</ele><time>2026-04-19T09:24:50.995Z</time></trkpt><trkpt lat="45.3474067" lon="8.7886667"><ele>112.0</ele><time>2026-04-19T09:24:51.996Z</time></trkpt><trkpt lat="45.347385" lon="8.7884683"><ele>112.0</ele><time>2026-04-19T09:24:52.995Z</time></trkpt><trkpt lat="45.3473683" lon="8.788285"><ele>112.0</ele><time>2026-04-19T09:24:53.996Z</time></trkpt><trkpt lat="45.347345" lon="8.7881233"><ele>111.99999999999999</ele><time>2026-04-19T09:24:54.995Z</time></trkpt><trkpt lat="45.3473217" lon="8.7879683"><ele>111.99999999999999</ele><time>2026-04-19T09:24:55.996Z</time></trkpt><trkpt lat="45.3473033" lon="8.78784"><ele>112.0</ele><time>2026-04-19T09:24:56.995Z</time></trkpt><trkpt lat="45.3472867" lon="8.787715"><ele>112.0</ele><time>2026-04-19T09:24:57.996Z</time></trkpt><trkpt lat="45.3472633" lon="8.7875983"><ele>112.16666666666667</ele><time>2026-04-19T09:24:58.996Z</time></trkpt><trkpt lat="45.3472483" lon="8.78748"><ele>112.33333333333334</ele><time>2026-04-19T09:24:59.996Z</time></trkpt><trkpt lat="45.34722" lon="8.787365"><ele>112.5</ele><time>2026-04-19T09:25:00.995Z</time></trkpt><trkpt lat="45.3471767" lon="8.7872683"><ele>112.66666666666666</ele><time>2026-04-19T09:25:01.996Z</time></trkpt><trkpt lat="45.34714" lon="8.787195"><ele>112.83333333333333</ele><time>2026-04-19T09:25:02.995Z</time></trkpt><trkpt lat="45.3470883" lon="8.7870683"><ele>113.0</ele><time>2026-04-19T09:25:04.996Z</time></trkpt><trkpt lat="45.347115" lon="8.78695"><ele>113.2</ele><time>2026-04-19T09:25:06.996Z</time></trkpt><trkpt lat="45.3471567" lon="8.78688"><ele>113.4</ele><time>2026-04-19T09:25:07.996Z</time></trkpt><trkpt lat="45.3472267" lon="8.7867867"><ele>113.60000000000001</ele><time>2026-04-19T09:25:08.996Z</time></trkpt><trkpt lat="45.3473083" lon="8.7866767"><ele>113.80000000000001</ele><time>2026-04-19T09:25:09.996Z</time></trkpt><trkpt lat="45.3473983" lon="8.7865567"><ele>114.0</ele><time>2026-04-19T09:25:10.996Z</time></trkpt><trkpt lat="45.34748" lon="8.786445"><ele>114.0</ele><time>2026-04-19T09:25:11.996Z</time></trkpt><trkpt lat="45.34757" lon="8.78632"><ele>114.0</ele><time>2026-04-19T09:25:12.996Z</time></trkpt><trkpt lat="45.34766" lon="8.786185"><ele>114.0</ele><time>2026-04-19T09:25:13.996Z</time></trkpt><trkpt lat="45.3477533" lon="8.7860383"><ele>114.0</ele><time>2026-04-19T09:25:14.995Z</time></trkpt><trkpt lat="45.3478483" lon="8.7858867"><ele>113.75</ele><time>2026-04-19T09:25:15.995Z</time></trkpt><trkpt lat="45.3479467" lon="8.785745"><ele>113.5</ele><time>2026-04-19T09:25:16.996Z</time></trkpt><trkpt lat="45.34804" lon="8.7856017"><ele>113.25</ele><time>2026-04-19T09:25:17.996Z</time></trkpt><trkpt lat="45.3481333" lon="8.7854633"><ele>113.0</ele><time>2026-04-19T09:25:18.995Z</time></trkpt><trkpt lat="45.3482267" lon="8.7853167"><ele>113.0</ele><time>2026-04-19T09:25:19.996Z</time></trkpt><trkpt lat="45.348325" lon="8.7851683"><ele>113.0</ele><time>2026-04-19T09:25:20.996Z</time></trkpt><trkpt lat="45.34842" lon="8.78502"><ele>113.0</ele><time>2026-04-19T09:25:21.996Z</time></trkpt><trkpt lat="45.3485267" lon="8.784865"><ele>113.0</ele><time>2026-04-19T09:25:22.995Z</time></trkpt><trkpt lat="45.3486267" lon="8.7847217"><ele>113.0</ele><time>2026-04-19T09:25:23.995Z</time></trkpt><trkpt lat="45.348715" lon="8.7845883"><ele>113.00000000000001</ele><time>2026-04-19T09:25:24.995Z</time></trkpt><trkpt lat="45.3487967" lon="8.78447"><ele>113.00000000000001</ele><time>2026-04-19T09:25:25.995Z</time></trkpt><trkpt lat="45.348865" lon="8.78436"><ele>113.0</ele><time>2026-04-19T09:25:26.995Z</time></trkpt><trkpt lat="45.3489383" lon="8.78428"><ele>113.0</ele><time>2026-04-19T09:25:27.996Z</time></trkpt><trkpt lat="45.3489917" lon="8.7842283"><ele>112.99999999999999</ele><time>2026-04-19T09:25:28.996Z</time></trkpt><trkpt lat="45.34906" lon="8.7842517"><ele>113.0</ele><time>2026-04-19T09:25:31.996Z</time></trkpt><trkpt lat="45.3491533" lon="8.7842033"><ele>113.0</ele><time>2026-04-19T09:25:35.996Z</time></trkpt><trkpt lat="45.3492417" lon="8.7841067"><ele>113.0</ele><time>2026-04-19T09:25:37.996Z</time></trkpt><trkpt lat="45.3492967" lon="8.7840383"><ele>112.99999999999999</ele><time>2026-04-19T09:25:38.996Z</time></trkpt><trkpt lat="45.34936" lon="8.7839517"><ele>113.0</ele><time>2026-04-19T09:25:39.996Z</time></trkpt><trkpt lat="45.3494333" lon="8.783855"><ele>113.0</ele><time>2026-04-19T09:25:40.995Z</time></trkpt><trkpt lat="45.3495117" lon="8.7837283"><ele>113.0</ele><time>2026-04-19T09:25:41.996Z</time></trkpt><trkpt lat="45.3496" lon="8.7835917"><ele>113.0</ele><time>2026-04-19T09:25:42.996Z</time></trkpt><trkpt lat="45.3496833" lon="8.7834533"><ele>113.0</ele><time>2026-04-19T09:25:43.995Z</time></trkpt><trkpt lat="45.3497867" lon="8.7833083"><ele>113.25</ele><time>2026-04-19T09:25:44.996Z</time></trkpt><trkpt lat="45.3498867" lon="8.78317"><ele>113.5</ele><time>2026-04-19T09:25:45.995Z</time></trkpt><trkpt lat="45.3499883" lon="8.7830167"><ele>113.75</ele><time>2026-04-19T09:25:46.996Z</time></trkpt><trkpt lat="45.350085" lon="8.78287"><ele>114.0</ele><time>2026-04-19T09:25:47.996Z</time></trkpt><trkpt lat="45.350185" lon="8.7827133"><ele>114.0</ele><time>2026-04-19T09:25:48.996Z</time></trkpt><trkpt lat="45.3502917" lon="8.7825533"><ele>114.0</ele><time>2026-04-19T09:25:49.996Z</time></trkpt><trkpt lat="45.350385" lon="8.78241"><ele>114.0</ele><time>2026-04-19T09:25:50.995Z</time></trkpt><trkpt lat="45.3504867" lon="8.7822567"><ele>114.0</ele><time>2026-04-19T09:25:51.995Z</time></trkpt><trkpt lat="45.3505883" lon="8.7821"><ele>114.0</ele><time>2026-04-19T09:25:52.996Z</time></trkpt><trkpt lat="45.3506917" lon="8.7819533"><ele>114.0</ele><time>2026-04-19T09:25:53.995Z</time></trkpt><trkpt lat="45.350795" lon="8.78181"><ele>114.0</ele><time>2026-04-19T09:25:54.996Z</time></trkpt><trkpt lat="45.3508967" lon="8.7816783"><ele>114.0</ele><time>2026-04-19T09:25:55.996Z</time></trkpt><trkpt lat="45.351" lon="8.781545"><ele>114.0</ele><time>2026-04-19T09:25:56.996Z</time></trkpt><trkpt lat="45.3510967" lon="8.7813933"><ele>114.0</ele><time>2026-04-19T09:25:57.995Z</time></trkpt><trkpt lat="45.3511917" lon="8.7812383"><ele>114.0</ele><time>2026-04-19T09:25:58.996Z</time></trkpt><trkpt lat="45.3512867" lon="8.781105"><ele>114.0</ele><time>2026-04-19T09:25:59.995Z</time></trkpt><trkpt lat="45.35138" lon="8.7809717"><ele>114.25</ele><time>2026-04-19T09:26:00.996Z</time></trkpt><trkpt lat="45.3514717" lon="8.7808383"><ele>114.5</ele><time>2026-04-19T09:26:01.996Z</time></trkpt><trkpt lat="45.351555" lon="8.7807017"><ele>114.75</ele><time>2026-04-19T09:26:02.995Z</time></trkpt><trkpt lat="45.3516283" lon="8.7805583"><ele>115.0</ele><time>2026-04-19T09:26:03.995Z</time></trkpt><trkpt lat="45.3516933" lon="8.78043"><ele>115.0</ele><time>2026-04-19T09:26:04.995Z</time></trkpt><trkpt lat="45.35176" lon="8.7802967"><ele>115.0</ele><time>2026-04-19T09:26:05.996Z</time></trkpt><trkpt lat="45.3518183" lon="8.780185"><ele>115.0</ele><time>2026-04-19T09:26:06.995Z</time></trkpt><trkpt lat="45.3518833" lon="8.7801083"><ele>115.0</ele><time>2026-04-19T09:26:07.995Z</time></trkpt><trkpt lat="45.351945" lon="8.7800583"><ele>115.0</ele><time>2026-04-19T09:26:08.996Z</time></trkpt><trkpt lat="45.3520517" lon="8.779985"><ele>114.83333333333334</ele><time>2026-04-19T09:26:10.996Z</time></trkpt><trkpt lat="45.3521417" lon="8.7799617"><ele>114.66666666666667</ele><time>2026-04-19T09:26:12.996Z</time></trkpt><trkpt lat="45.3522067" lon="8.7799383"><ele>114.5</ele><time>2026-04-19T09:26:14.996Z</time></trkpt><trkpt lat="45.3522633" lon="8.7798267"><ele>114.33333333333334</ele><time>2026-04-19T09:26:16.996Z</time></trkpt><trkpt lat="45.3522633" lon="8.7797217"><ele>114.16666666666667</ele><time>2026-04-19T09:26:17.996Z</time></trkpt><trkpt lat="45.35222" lon="8.779595"><ele>114.0</ele><time>2026-04-19T09:26:18.995Z</time></trkpt><trkpt lat="45.3521533" lon="8.7794567"><ele>113.75</ele><time>2026-04-19T09:26:19.995Z</time></trkpt><trkpt lat="45.3520867" lon="8.7792983"><ele>113.5</ele><time>2026-04-19T09:26:20.995Z</time></trkpt><trkpt lat="45.3520117" lon="8.77914"><ele>113.25</ele><time>2026-04-19T09:26:21.995Z</time></trkpt><trkpt lat="45.3519233" lon="8.77897"><ele>113.0</ele><time>2026-04-19T09:26:22.996Z</time></trkpt><trkpt lat="45.3518317" lon="8.7787833"><ele>113.0</ele><time>2026-04-19T09:26:23.996Z</time></trkpt><trkpt lat="45.351735" lon="8.7785883"><ele>113.0</ele><time>2026-04-19T09:26:24.996Z</time></trkpt><trkpt lat="45.35161" lon="8.7783883"><ele>113.0</ele><time>2026-04-19T09:26:25.995Z</time></trkpt><trkpt lat="45.3514733" lon="8.7781983"><ele>113.33333333333333</ele><time>2026-04-19T09:26:26.996Z</time></trkpt><trkpt lat="45.3513333" lon="8.7780217"><ele>113.66666666666666</ele><time>2026-04-19T09:26:27.996Z</time></trkpt><trkpt lat="45.351195" lon="8.777865"><ele>114.0</ele><time>2026-04-19T09:26:28.996Z</time></trkpt><trkpt lat="45.3510567" lon="8.7777317"><ele>113.75</ele><time>2026-04-19T09:26:29.996Z</time></trkpt><trkpt lat="45.350925" lon="8.7776117"><ele>113.5</ele><time>2026-04-19T09:26:30.996Z</time></trkpt><trkpt lat="45.3508" lon="8.7775233"><ele>113.25</ele><time>2026-04-19T09:26:31.995Z</time></trkpt><trkpt lat="45.350675" lon="8.7774367"><ele>113.0</ele><time>2026-04-19T09:26:32.996Z</time></trkpt><trkpt lat="45.3505633" lon="8.7773683"><ele>113.2</ele><time>2026-04-19T09:26:33.996Z</time></trkpt><trkpt lat="45.350455" lon="8.7773067"><ele>113.4</ele><time>2026-04-19T09:26:34.995Z</time></trkpt><trkpt lat="45.35037" lon="8.7772567"><ele>113.60000000000001</ele><time>2026-04-19T09:26:35.995Z</time></trkpt><trkpt lat="45.350315" lon="8.7772083"><ele>113.80000000000001</ele><time>2026-04-19T09:26:36.996Z</time></trkpt><trkpt lat="45.350275" lon="8.7770833"><ele>114.0</ele><time>2026-04-19T09:26:38.996Z</time></trkpt><trkpt lat="45.3502733" lon="8.7768867"><ele>114.5</ele><time>2026-04-19T09:26:40.996Z</time></trkpt><trkpt lat="45.35027" lon="8.7767367"><ele>115.0</ele><time>2026-04-19T09:26:41.996Z</time></trkpt><trkpt lat="45.3502683" lon="8.7765483"><ele>115.5</ele><time>2026-04-19T09:26:42.995Z</time></trkpt><trkpt lat="45.3502633" lon="8.77636"><ele>116.0</ele><time>2026-04-19T09:26:43.996Z</time></trkpt><trkpt lat="45.3502483" lon="8.7761717"><ele>115.75</ele><time>2026-04-19T09:26:44.995Z</time></trkpt><trkpt lat="45.350235" lon="8.7759867"><ele>115.5</ele><time>2026-04-19T09:26:45.996Z</time></trkpt><trkpt lat="45.3502267" lon="8.7758083"><ele>115.25</ele><time>2026-04-19T09:26:46.995Z</time></trkpt><trkpt lat="45.35022" lon="8.7756267"><ele>115.0</ele><time>2026-04-19T09:26:47.996Z</time></trkpt><trkpt lat="45.350215" lon="8.77543"><ele>115.0</ele><time>2026-04-19T09:26:48.996Z</time></trkpt><trkpt lat="45.350195" lon="8.7752317"><ele>115.0</ele><time>2026-04-19T09:26:49.995Z</time></trkpt><trkpt lat="45.35017" lon="8.7750283"><ele>115.0</ele><time>2026-04-19T09:26:50.996Z</time></trkpt><trkpt lat="45.35014" lon="8.7748267"><ele>115.0</ele><time>2026-04-19T09:26:51.995Z</time></trkpt><trkpt lat="45.3500983" lon="8.7746267"><ele>114.75</ele><time>2026-04-19T09:26:52.995Z</time></trkpt><trkpt lat="45.3500667" lon="8.774425"><ele>114.5</ele><time>2026-04-19T09:26:53.995Z</time></trkpt><trkpt lat="45.350045" lon="8.7742133"><ele>114.25</ele><time>2026-04-19T09:26:54.995Z</time></trkpt><trkpt lat="45.35002" lon="8.77401"><ele>114.0</ele><time>2026-04-19T09:26:55.995Z</time></trkpt><trkpt lat="45.3499967" lon="8.7737933"><ele>114.0</ele><time>2026-04-19T09:26:56.995Z</time></trkpt><trkpt lat="45.3499717" lon="8.7735833"><ele>114.0</ele><time>2026-04-19T09:26:57.995Z</time></trkpt><trkpt lat="45.3499417" lon="8.7733817"><ele>114.0</ele><time>2026-04-19T09:26:58.995Z</time></trkpt><trkpt lat="45.3499117" lon="8.773165"><ele>114.33333333333334</ele><time>2026-04-19T09:26:59.996Z</time></trkpt><trkpt lat="45.3498833" lon="8.7729217"><ele>114.66666666666667</ele><time>2026-04-19T09:27:00.994Z</time></trkpt><trkpt lat="45.3498583" lon="8.77268"><ele>115.0</ele><time>2026-04-19T09:27:01.995Z</time></trkpt><trkpt lat="45.3498317" lon="8.7724533"><ele>115.0</ele><time>2026-04-19T09:27:02.995Z</time></trkpt><trkpt lat="45.3497983" lon="8.7722317"><ele>115.0</ele><time>2026-04-19T09:27:03.995Z</time></trkpt><trkpt lat="45.3497717" lon="8.772025"><ele>115.0</ele><time>2026-04-19T09:27:04.995Z</time></trkpt><trkpt lat="45.3497483" lon="8.771815"><ele>115.25</ele><time>2026-04-19T09:27:05.994Z</time></trkpt><trkpt lat="45.3497283" lon="8.7716233"><ele>115.5</ele><time>2026-04-19T09:27:06.994Z</time></trkpt><trkpt lat="45.3497133" lon="8.7714383"><ele>115.75</ele><time>2026-04-19T09:27:07.994Z</time></trkpt><trkpt lat="45.3497017" lon="8.7712483"><ele>116.0</ele><time>2026-04-19T09:27:08.994Z</time></trkpt><trkpt lat="45.3496917" lon="8.7710333"><ele>115.5</ele><time>2026-04-19T09:27:09.995Z</time></trkpt><trkpt lat="45.34968" lon="8.7708233"><ele>115.0</ele><time>2026-04-19T09:27:10.995Z</time></trkpt><trkpt lat="45.34969" lon="8.770615"><ele>114.5</ele><time>2026-04-19T09:27:11.994Z</time></trkpt><trkpt lat="45.349705" lon="8.7704217"><ele>114.0</ele><time>2026-04-19T09:27:12.994Z</time></trkpt><trkpt lat="45.3497317" lon="8.7702283"><ele>113.5</ele><time>2026-04-19T09:27:13.994Z</time></trkpt><trkpt lat="45.3497733" lon="8.7700217"><ele>113.0</ele><time>2026-04-19T09:27:14.994Z</time></trkpt><trkpt lat="45.34982" lon="8.7698217"><ele>112.5</ele><time>2026-04-19T09:27:15.994Z</time></trkpt><trkpt lat="45.3498483" lon="8.7696267"><ele>112.0</ele><time>2026-04-19T09:27:16.995Z</time></trkpt><trkpt lat="45.34986" lon="8.76943"><ele>112.25</ele><time>2026-04-19T09:27:17.995Z</time></trkpt><trkpt lat="45.34987" lon="8.76924"><ele>112.5</ele><time>2026-04-19T09:27:18.994Z</time></trkpt><trkpt lat="45.3498867" lon="8.769065"><ele>112.75</ele><time>2026-04-19T09:27:19.995Z</time></trkpt><trkpt lat="45.3499033" lon="8.76891"><ele>113.0</ele><time>2026-04-19T09:27:20.994Z</time></trkpt><trkpt lat="45.3499283" lon="8.7687567"><ele>112.99999999999999</ele><time>2026-04-19T09:27:21.994Z</time></trkpt><trkpt lat="45.3499433" lon="8.7686283"><ele>113.0</ele><time>2026-04-19T09:27:22.994Z</time></trkpt><trkpt lat="45.3499533" lon="8.7685117"><ele>113.0</ele><time>2026-04-19T09:27:23.994Z</time></trkpt><trkpt lat="45.3499583" lon="8.76842"><ele>113.0</ele><time>2026-04-19T09:27:24.994Z</time></trkpt><trkpt lat="45.3499367" lon="8.7682983"><ele>112.99999999999999</ele><time>2026-04-19T09:27:26.994Z</time></trkpt><trkpt lat="45.34983" lon="8.76829"><ele>113.0</ele><time>2026-04-19T09:27:28.994Z</time></trkpt><trkpt lat="45.3497483" lon="8.7683283"><ele>113.0</ele><time>2026-04-19T09:27:29.994Z</time></trkpt><trkpt lat="45.3496433" lon="8.7683783"><ele>113.0</ele><time>2026-04-19T09:27:30.995Z</time></trkpt><trkpt lat="45.3495133" lon="8.7684383"><ele>113.0</ele><time>2026-04-19T09:27:31.995Z</time></trkpt><trkpt lat="45.3493767" lon="8.7685033"><ele>113.0</ele><time>2026-04-19T09:27:32.995Z</time></trkpt><trkpt lat="45.3492283" lon="8.7685683"><ele>113.0</ele><time>2026-04-19T09:27:33.995Z</time></trkpt><trkpt lat="45.3490733" lon="8.7686317"><ele>113.0</ele><time>2026-04-19T09:27:34.994Z</time></trkpt><trkpt lat="45.3488983" lon="8.7687"><ele>113.0</ele><time>2026-04-19T09:27:35.995Z</time></trkpt><trkpt lat="45.348705" lon="8.7687767"><ele>113.33333333333333</ele><time>2026-04-19T09:27:36.995Z</time></trkpt><trkpt lat="45.3485183" lon="8.76886"><ele>113.66666666666666</ele><time>2026-04-19T09:27:37.995Z</time></trkpt><trkpt lat="45.34834" lon="8.76895"><ele>114.0</ele><time>2026-04-19T09:27:38.995Z</time></trkpt><trkpt lat="45.34817" lon="8.7690333"><ele>114.0</ele><time>2026-04-19T09:27:39.995Z</time></trkpt><trkpt lat="45.3480017" lon="8.76911"><ele>114.0</ele><time>2026-04-19T09:27:40.994Z</time></trkpt><trkpt lat="45.3478433" lon="8.7691933"><ele>114.0</ele><time>2026-04-19T09:27:41.995Z</time></trkpt><trkpt lat="45.3476833" lon="8.7692717"><ele>114.0</ele><time>2026-04-19T09:27:42.995Z</time></trkpt><trkpt lat="45.3475217" lon="8.7693433"><ele>114.0</ele><time>2026-04-19T09:27:43.994Z</time></trkpt><trkpt lat="45.3473617" lon="8.76942"><ele>114.0</ele><time>2026-04-19T09:27:44.994Z</time></trkpt><trkpt lat="45.3472" lon="8.7694933"><ele>114.0</ele><time>2026-04-19T09:27:45.994Z</time></trkpt><trkpt lat="45.3470367" lon="8.769565"><ele>114.0</ele><time>2026-04-19T09:27:46.994Z</time></trkpt><trkpt lat="45.346875" lon="8.7696267"><ele>114.0</ele><time>2026-04-19T09:27:47.995Z</time></trkpt><trkpt lat="45.3467117" lon="8.7697067"><ele>114.0</ele><time>2026-04-19T09:27:48.994Z</time></trkpt><trkpt lat="45.34655" lon="8.7697667"><ele>114.0</ele><time>2026-04-19T09:27:49.995Z</time></trkpt><trkpt lat="45.346385" lon="8.7698317"><ele>114.0</ele><time>2026-04-19T09:27:50.994Z</time></trkpt><trkpt lat="45.34622" lon="8.7699"><ele>114.0</ele><time>2026-04-19T09:27:51.995Z</time></trkpt><trkpt lat="45.34605" lon="8.7699717"><ele>114.0</ele><time>2026-04-19T09:27:52.995Z</time></trkpt><trkpt lat="45.345875" lon="8.7700383"><ele>114.0</ele><time>2026-04-19T09:27:53.994Z</time></trkpt><trkpt lat="45.345705" lon="8.7701117"><ele>114.0</ele><time>2026-04-19T09:27:54.994Z</time></trkpt><trkpt lat="45.3455417" lon="8.7701867"><ele>114.0</ele><time>2026-04-19T09:27:55.995Z</time></trkpt><trkpt lat="45.3453883" lon="8.77026"><ele>114.0</ele><time>2026-04-19T09:27:56.995Z</time></trkpt><trkpt lat="45.34523" lon="8.770335"><ele>113.66666666666666</ele><time>2026-04-19T09:27:57.995Z</time></trkpt><trkpt lat="45.3450767" lon="8.7703933"><ele>113.33333333333333</ele><time>2026-04-19T09:27:58.994Z</time></trkpt><trkpt lat="45.3449217" lon="8.7704617"><ele>113.0</ele><time>2026-04-19T09:27:59.995Z</time></trkpt><trkpt lat="45.3447683" lon="8.77053"><ele>113.0</ele><time>2026-04-19T09:28:00.995Z</time></trkpt><trkpt lat="45.344615" lon="8.77059"><ele>113.0</ele><time>2026-04-19T09:28:01.995Z</time></trkpt><trkpt lat="45.3444667" lon="8.770655"><ele>113.0</ele><time>2026-04-19T09:28:02.994Z</time></trkpt><trkpt lat="45.3443167" lon="8.7707133"><ele>113.0</ele><time>2026-04-19T09:28:03.995Z</time></trkpt><trkpt lat="45.3441667" lon="8.770775"><ele>113.0</ele><time>2026-04-19T09:28:04.995Z</time></trkpt><trkpt lat="45.3440217" lon="8.7708383"><ele>113.0</ele><time>2026-04-19T09:28:05.995Z</time></trkpt><trkpt lat="45.34388" lon="8.770895"><ele>113.0</ele><time>2026-04-19T09:28:06.994Z</time></trkpt><trkpt lat="45.3437433" lon="8.77096"><ele>113.0</ele><time>2026-04-19T09:28:07.994Z</time></trkpt><trkpt lat="45.3436133" lon="8.77102"><ele>113.0</ele><time>2026-04-19T09:28:08.994Z</time></trkpt><trkpt lat="45.3435083" lon="8.7710633"><ele>113.0</ele><time>2026-04-19T09:28:09.994Z</time></trkpt><trkpt lat="45.343415" lon="8.771105"><ele>112.83333333333333</ele><time>2026-04-19T09:28:10.994Z</time></trkpt><trkpt lat="45.3433317" lon="8.771145"><ele>112.66666666666666</ele><time>2026-04-19T09:28:11.995Z</time></trkpt><trkpt lat="45.3432567" lon="8.77118"><ele>112.5</ele><time>2026-04-19T09:28:12.995Z</time></trkpt><trkpt lat="45.3431883" lon="8.771205"><ele>112.33333333333334</ele><time>2026-04-19T09:28:13.995Z</time></trkpt><trkpt lat="45.3431267" lon="8.7712283"><ele>112.16666666666667</ele><time>2026-04-19T09:28:14.995Z</time></trkpt><trkpt lat="45.343005" lon="8.7712233"><ele>112.0</ele><time>2026-04-19T09:28:16.995Z</time></trkpt><trkpt lat="45.342945" lon="8.7711717"><ele>112.0</ele><time>2026-04-19T09:28:17.995Z</time></trkpt><trkpt lat="45.3428733" lon="8.7710867"><ele>111.99999999999999</ele><time>2026-04-19T09:28:18.994Z</time></trkpt><trkpt lat="45.3427933" lon="8.771"><ele>111.99999999999999</ele><time>2026-04-19T09:28:19.995Z</time></trkpt><trkpt lat="45.3427083" lon="8.7709233"><ele>112.0</ele><time>2026-04-19T09:28:20.995Z</time></trkpt><trkpt lat="45.3426283" lon="8.770845"><ele>112.0</ele><time>2026-04-19T09:28:21.995Z</time></trkpt><trkpt lat="45.3425517" lon="8.7707683"><ele>112.0</ele><time>2026-04-19T09:28:22.995Z</time></trkpt><trkpt lat="45.3424883" lon="8.77071"><ele>111.99999999999999</ele><time>2026-04-19T09:28:23.995Z</time></trkpt><trkpt lat="45.3423933" lon="8.7706283"><ele>111.99999999999999</ele><time>2026-04-19T09:28:25.995Z</time></trkpt><trkpt lat="45.3424167" lon="8.7704933"><ele>112.0</ele><time>2026-04-19T09:28:28.995Z</time></trkpt><trkpt lat="45.342485" lon="8.77043"><ele>112.0</ele><time>2026-04-19T09:28:29.995Z</time></trkpt><trkpt lat="45.3425767" lon="8.770365"><ele>112.0</ele><time>2026-04-19T09:28:30.994Z</time></trkpt><trkpt lat="45.342685" lon="8.7702883"><ele>112.0</ele><time>2026-04-19T09:28:31.995Z</time></trkpt><trkpt lat="45.3428033" lon="8.7701867"><ele>112.0</ele><time>2026-04-19T09:28:32.994Z</time></trkpt><trkpt lat="45.3429233" lon="8.770085"><ele>112.0</ele><time>2026-04-19T09:28:33.995Z</time></trkpt><trkpt lat="45.34305" lon="8.7699733"><ele>112.25</ele><time>2026-04-19T09:28:34.995Z</time></trkpt><trkpt lat="45.3431767" lon="8.7698633"><ele>112.5</ele><time>2026-04-19T09:28:35.995Z</time></trkpt><trkpt lat="45.3432967" lon="8.7697633"><ele>112.75</ele><time>2026-04-19T09:28:36.994Z</time></trkpt><trkpt lat="45.343405" lon="8.769665"><ele>113.0</ele><time>2026-04-19T09:28:37.995Z</time></trkpt><trkpt lat="45.3435067" lon="8.7695683"><ele>113.0</ele><time>2026-04-19T09:28:38.995Z</time></trkpt><trkpt lat="45.3436167" lon="8.7694783"><ele>113.0</ele><time>2026-04-19T09:28:39.995Z</time></trkpt><trkpt lat="45.3437133" lon="8.7693817"><ele>113.0</ele><time>2026-04-19T09:28:40.995Z</time></trkpt><trkpt lat="45.3438117" lon="8.7692867"><ele>113.0</ele><time>2026-04-19T09:28:41.994Z</time></trkpt><trkpt lat="45.3439017" lon="8.7692067"><ele>112.99999999999999</ele><time>2026-04-19T09:28:42.995Z</time></trkpt><trkpt lat="45.3439817" lon="8.769135"><ele>113.0</ele><time>2026-04-19T09:28:43.995Z</time></trkpt><trkpt lat="45.3440433" lon="8.7690617"><ele>113.0</ele><time>2026-04-19T09:28:44.994Z</time></trkpt><trkpt lat="45.3440833" lon="8.7689817"><ele>113.0</ele><time>2026-04-19T09:28:45.994Z</time></trkpt><trkpt lat="45.3441217" lon="8.76891"><ele>112.99999999999999</ele><time>2026-04-19T09:28:46.995Z</time></trkpt><trkpt lat="45.34421" lon="8.7688317"><ele>113.0</ele><time>2026-04-19T09:28:48.994Z</time></trkpt><trkpt lat="45.3442933" lon="8.7688583"><ele>113.0</ele><time>2026-04-19T09:28:49.994Z</time></trkpt><trkpt lat="45.344395" lon="8.7688717"><ele>113.0</ele><time>2026-04-19T09:28:50.995Z</time></trkpt><trkpt lat="45.34451" lon="8.768865"><ele>113.0</ele><time>2026-04-19T09:28:51.995Z</time></trkpt><trkpt lat="45.3446367" lon="8.7688283"><ele>113.0</ele><time>2026-04-19T09:28:52.994Z</time></trkpt><trkpt lat="45.3447733" lon="8.7687833"><ele>113.0</ele><time>2026-04-19T09:28:53.995Z</time></trkpt><trkpt lat="45.3449233" lon="8.76874"><ele>113.0</ele><time>2026-04-19T09:28:54.995Z</time></trkpt><trkpt lat="45.34507" lon="8.7687067"><ele>113.0</ele><time>2026-04-19T09:28:55.994Z</time></trkpt><trkpt lat="45.34523" lon="8.7686767"><ele>113.0</ele><time>2026-04-19T09:28:56.994Z</time></trkpt><trkpt lat="45.3453883" lon="8.7686333"><ele>113.0</ele><time>2026-04-19T09:28:57.995Z</time></trkpt><trkpt lat="45.345535" lon="8.7685817"><ele>113.0</ele><time>2026-04-19T09:28:58.995Z</time></trkpt><trkpt lat="45.3456917" lon="8.76853"><ele>113.0</ele><time>2026-04-19T09:28:59.995Z</time></trkpt><trkpt lat="45.34585" lon="8.76847"><ele>113.0</ele><time>2026-04-19T09:29:00.995Z</time></trkpt><trkpt lat="45.3460067" lon="8.7684267"><ele>113.0</ele><time>2026-04-19T09:29:01.994Z</time></trkpt><trkpt lat="45.3461633" lon="8.7683783"><ele>113.0</ele><time>2026-04-19T09:29:02.995Z</time></trkpt><trkpt lat="45.3463233" lon="8.7683267"><ele>113.0</ele><time>2026-04-19T09:29:03.995Z</time></trkpt><trkpt lat="45.3464767" lon="8.768275"><ele>113.0</ele><time>2026-04-19T09:29:04.995Z</time></trkpt><trkpt lat="45.3466333" lon="8.7682267"><ele>113.0</ele><time>2026-04-19T09:29:05.994Z</time></trkpt><trkpt lat="45.346785" lon="8.7681733"><ele>113.0</ele><time>2026-04-19T09:29:06.994Z</time></trkpt><trkpt lat="45.346935" lon="8.7681267"><ele>113.0</ele><time>2026-04-19T09:29:07.995Z</time></trkpt><trkpt lat="45.3470967" lon="8.768075"><ele>113.25</ele><time>2026-04-19T09:29:08.995Z</time></trkpt><trkpt lat="45.3472417" lon="8.768025"><ele>113.5</ele><time>2026-04-19T09:29:09.995Z</time></trkpt><trkpt lat="45.3473883" lon="8.767965"><ele>113.75</ele><time>2026-04-19T09:29:10.994Z</time></trkpt><trkpt lat="45.34752" lon="8.76792"><ele>114.0</ele><time>2026-04-19T09:29:11.995Z</time></trkpt><trkpt lat="45.34765" lon="8.7678717"><ele>114.0</ele><time>2026-04-19T09:29:12.994Z</time></trkpt><trkpt lat="45.3477733" lon="8.7678117"><ele>114.0</ele><time>2026-04-19T09:29:13.995Z</time></trkpt><trkpt lat="45.3478967" lon="8.7677517"><ele>114.0</ele><time>2026-04-19T09:29:14.994Z</time></trkpt><trkpt lat="45.34802" lon="8.7677067"><ele>114.0</ele><time>2026-04-19T09:29:15.995Z</time></trkpt><trkpt lat="45.3481483" lon="8.76767"><ele>114.0</ele><time>2026-04-19T09:29:16.995Z</time></trkpt><trkpt lat="45.34828" lon="8.7676467"><ele>114.0</ele><time>2026-04-19T09:29:17.995Z</time></trkpt><trkpt lat="45.34839" lon="8.7676083"><ele>114.0</ele><time>2026-04-19T09:29:18.995Z</time></trkpt><trkpt lat="45.3485067" lon="8.7675533"><ele>114.0</ele><time>2026-04-19T09:29:19.995Z</time></trkpt><trkpt lat="45.3486133" lon="8.7674533"><ele>114.0</ele><time>2026-04-19T09:29:20.995Z</time></trkpt><trkpt lat="45.3487217" lon="8.7673433"><ele>114.0</ele><time>2026-04-19T09:29:21.995Z</time></trkpt><trkpt lat="45.3488317" lon="8.76724"><ele>114.0</ele><time>2026-04-19T09:29:22.994Z</time></trkpt><trkpt lat="45.3489533" lon="8.7671483"><ele>114.0</ele><time>2026-04-19T09:29:23.994Z</time></trkpt><trkpt lat="45.349065" lon="8.7670617"><ele>114.0</ele><time>2026-04-19T09:29:24.995Z</time></trkpt><trkpt lat="45.3491733" lon="8.76696"><ele>114.0</ele><time>2026-04-19T09:29:25.994Z</time></trkpt><trkpt lat="45.3492683" lon="8.76687"><ele>114.0</ele><time>2026-04-19T09:29:26.994Z</time></trkpt><trkpt lat="45.3493517" lon="8.7667783"><ele>114.0</ele><time>2026-04-19T09:29:27.994Z</time></trkpt><trkpt lat="45.34944" lon="8.7666817"><ele>114.0</ele><time>2026-04-19T09:29:28.994Z</time></trkpt><trkpt lat="45.349515" lon="8.7665983"><ele>114.0</ele><time>2026-04-19T09:29:29.995Z</time></trkpt><trkpt lat="45.3495833" lon="8.76652"><ele>114.0</ele><time>2026-04-19T09:29:30.995Z</time></trkpt><trkpt lat="45.3496433" lon="8.7664467"><ele>114.0</ele><time>2026-04-19T09:29:31.994Z</time></trkpt><trkpt lat="45.34969" lon="8.7663617"><ele>114.0</ele><time>2026-04-19T09:29:32.995Z</time></trkpt><trkpt lat="45.3497167" lon="8.7662383"><ele>114.0</ele><time>2026-04-19T09:29:33.995Z</time></trkpt><trkpt lat="45.349725" lon="8.7660483"><ele>114.0</ele><time>2026-04-19T09:29:34.995Z</time></trkpt><trkpt lat="45.34973" lon="8.7658417"><ele>114.0</ele><time>2026-04-19T09:29:35.995Z</time></trkpt><trkpt lat="45.3497317" lon="8.7656"><ele>114.0</ele><time>2026-04-19T09:29:36.995Z</time></trkpt><trkpt lat="45.349725" lon="8.76533"><ele>113.66666666666666</ele><time>2026-04-19T09:29:37.995Z</time></trkpt><trkpt lat="45.3497233" lon="8.76506"><ele>113.33333333333333</ele><time>2026-04-19T09:29:38.995Z</time></trkpt><trkpt lat="45.3497267" lon="8.76482"><ele>113.0</ele><time>2026-04-19T09:29:39.995Z</time></trkpt><trkpt lat="45.3497283" lon="8.7646117"><ele>113.0</ele><time>2026-04-19T09:29:40.994Z</time></trkpt><trkpt lat="45.3497317" lon="8.7644283"><ele>113.0</ele><time>2026-04-19T09:29:41.994Z</time></trkpt><trkpt lat="45.3497483" lon="8.764245"><ele>113.0</ele><time>2026-04-19T09:29:42.995Z</time></trkpt><trkpt lat="45.349775" lon="8.7640533"><ele>113.0</ele><time>2026-04-19T09:29:43.994Z</time></trkpt><trkpt lat="45.3498" lon="8.76387"><ele>113.0</ele><time>2026-04-19T09:29:44.994Z</time></trkpt><trkpt lat="45.34984" lon="8.7636683"><ele>113.0</ele><time>2026-04-19T09:29:45.994Z</time></trkpt><trkpt lat="45.3498783" lon="8.7634767"><ele>113.0</ele><time>2026-04-19T09:29:46.995Z</time></trkpt><trkpt lat="45.3499067" lon="8.76328"><ele>113.0</ele><time>2026-04-19T09:29:47.995Z</time></trkpt><trkpt lat="45.3499283" lon="8.7630833"><ele>113.0</ele><time>2026-04-19T09:29:48.995Z</time></trkpt><trkpt lat="45.3499367" lon="8.7628667"><ele>113.0</ele><time>2026-04-19T09:29:49.995Z</time></trkpt><trkpt lat="45.3499317" lon="8.7626283"><ele>113.0</ele><time>2026-04-19T09:29:50.995Z</time></trkpt><trkpt lat="45.3499333" lon="8.7623917"><ele>113.0</ele><time>2026-04-19T09:29:51.995Z</time></trkpt><trkpt lat="45.34993" lon="8.7621483"><ele>113.0</ele><time>2026-04-19T09:29:52.995Z</time></trkpt><trkpt lat="45.3499267" lon="8.7619183"><ele>113.0</ele><time>2026-04-19T09:29:53.995Z</time></trkpt><trkpt lat="45.34993" lon="8.7616983"><ele>113.25</ele><time>2026-04-19T09:29:54.995Z</time></trkpt><trkpt lat="45.3499317" lon="8.7614883"><ele>113.5</ele><time>2026-04-19T09:29:55.994Z</time></trkpt><trkpt lat="45.3499383" lon="8.7612717"><ele>113.75</ele><time>2026-04-19T09:29:56.995Z</time></trkpt><trkpt lat="45.34995" lon="8.7610667"><ele>114.0</ele><time>2026-04-19T09:29:57.995Z</time></trkpt><trkpt lat="45.3499533" lon="8.7608717"><ele>114.25</ele><time>2026-04-19T09:29:58.994Z</time></trkpt><trkpt lat="45.34994" lon="8.7606967"><ele>114.5</ele><time>2026-04-19T09:29:59.994Z</time></trkpt><trkpt lat="45.34991" lon="8.76053"><ele>114.75</ele><time>2026-04-19T09:30:00.995Z</time></trkpt><trkpt lat="45.3498617" lon="8.7603633"><ele>115.0</ele><time>2026-04-19T09:30:01.994Z</time></trkpt><trkpt lat="45.3497867" lon="8.7601783"><ele>114.66666666666667</ele><time>2026-04-19T09:30:02.995Z</time></trkpt><trkpt lat="45.3497033" lon="8.7599767"><ele>114.33333333333334</ele><time>2026-04-19T09:30:03.995Z</time></trkpt><trkpt lat="45.349635" lon="8.7597967"><ele>114.0</ele><time>2026-04-19T09:30:04.995Z</time></trkpt><trkpt lat="45.3495817" lon="8.7595983"><ele>114.0</ele><time>2026-04-19T09:30:05.995Z</time></trkpt><trkpt lat="45.34953" lon="8.7594117"><ele>114.0</ele><time>2026-04-19T09:30:06.994Z</time></trkpt><trkpt lat="45.34948" lon="8.7592067"><ele>114.0</ele><time>2026-04-19T09:30:07.995Z</time></trkpt><trkpt lat="45.3494183" lon="8.7590167"><ele>114.0</ele><time>2026-04-19T09:30:08.994Z</time></trkpt><trkpt lat="45.3493333" lon="8.75884"><ele>114.0</ele><time>2026-04-19T09:30:09.995Z</time></trkpt><trkpt lat="45.34923" lon="8.7586533"><ele>114.0</ele><time>2026-04-19T09:30:10.994Z</time></trkpt><trkpt lat="45.3491217" lon="8.7584733"><ele>114.0</ele><time>2026-04-19T09:30:11.995Z</time></trkpt><trkpt lat="45.3490117" lon="8.7582867"><ele>114.0</ele><time>2026-04-19T09:30:12.994Z</time></trkpt><trkpt lat="45.3489" lon="8.7581067"><ele>114.0</ele><time>2026-04-19T09:30:13.995Z</time></trkpt><trkpt lat="45.3487867" lon="8.7579117"><ele>114.0</ele><time>2026-04-19T09:30:14.995Z</time></trkpt><trkpt lat="45.348685" lon="8.7577383"><ele>114.0</ele><time>2026-04-19T09:30:15.994Z</time></trkpt><trkpt lat="45.3485983" lon="8.7575917"><ele>114.0</ele><time>2026-04-19T09:30:16.995Z</time></trkpt><trkpt lat="45.3485167" lon="8.75745"><ele>114.0</ele><time>2026-04-19T09:30:17.994Z</time></trkpt><trkpt lat="45.348445" lon="8.7573217"><ele>114.0</ele><time>2026-04-19T09:30:18.994Z</time></trkpt><trkpt lat="45.34838" lon="8.7572117"><ele>114.0</ele><time>2026-04-19T09:30:19.994Z</time></trkpt><trkpt lat="45.3483167" lon="8.7571117"><ele>114.0</ele><time>2026-04-19T09:30:20.995Z</time></trkpt><trkpt lat="45.348265" lon="8.7570267"><ele>114.0</ele><time>2026-04-19T09:30:21.994Z</time></trkpt><trkpt lat="45.3482233" lon="8.756955"><ele>114.0</ele><time>2026-04-19T09:30:22.995Z</time></trkpt><trkpt lat="45.3481867" lon="8.7568283"><ele>114.0</ele><time>2026-04-19T09:30:24.995Z</time></trkpt><trkpt lat="45.3482383" lon="8.75675"><ele>114.0</ele><time>2026-04-19T09:30:25.994Z</time></trkpt><trkpt lat="45.3483117" lon="8.7566417"><ele>114.0</ele><time>2026-04-19T09:30:26.995Z</time></trkpt><trkpt lat="45.3484017" lon="8.7565133"><ele>114.0</ele><time>2026-04-19T09:30:27.994Z</time></trkpt><trkpt lat="45.3484817" lon="8.756395"><ele>114.0</ele><time>2026-04-19T09:30:28.994Z</time></trkpt><trkpt lat="45.3485467" lon="8.7562833"><ele>114.0</ele><time>2026-04-19T09:30:29.995Z</time></trkpt><trkpt lat="45.3485933" lon="8.7561633"><ele>114.0</ele><time>2026-04-19T09:30:30.994Z</time></trkpt><trkpt lat="45.34861" lon="8.7560283"><ele>114.2</ele><time>2026-04-19T09:30:31.994Z</time></trkpt><trkpt lat="45.3486067" lon="8.7558983"><ele>114.4</ele><time>2026-04-19T09:30:32.995Z</time></trkpt><trkpt lat="45.3485783" lon="8.7557583"><ele>114.6</ele><time>2026-04-19T09:30:33.994Z</time></trkpt><trkpt lat="45.3485317" lon="8.7556233"><ele>114.8</ele><time>2026-04-19T09:30:34.995Z</time></trkpt><trkpt lat="45.3484833" lon="8.7554933"><ele>115.0</ele><time>2026-04-19T09:30:35.995Z</time></trkpt><trkpt lat="45.34843" lon="8.7553583"><ele>115.0</ele><time>2026-04-19T09:30:36.995Z</time></trkpt><trkpt lat="45.3483733" lon="8.75523"><ele>115.0</ele><time>2026-04-19T09:30:37.995Z</time></trkpt><trkpt lat="45.34831" lon="8.7551017"><ele>115.0</ele><time>2026-04-19T09:30:38.995Z</time></trkpt><trkpt lat="45.3482533" lon="8.754975"><ele>115.0</ele><time>2026-04-19T09:30:39.995Z</time></trkpt><trkpt lat="45.3481967" lon="8.754845"><ele>115.0</ele><time>2026-04-19T09:30:40.995Z</time></trkpt><trkpt lat="45.3481283" lon="8.754725"><ele>114.75</ele><time>2026-04-19T09:30:41.994Z</time></trkpt><trkpt lat="45.3480567" lon="8.7545933"><ele>114.5</ele><time>2026-04-19T09:30:42.994Z</time></trkpt><trkpt lat="45.3479933" lon="8.7544483"><ele>114.25</ele><time>2026-04-19T09:30:43.995Z</time></trkpt><trkpt lat="45.3479333" lon="8.7543183"><ele>114.0</ele><time>2026-04-19T09:30:44.995Z</time></trkpt><trkpt lat="45.3478717" lon="8.754185"><ele>114.80000000000001</ele><time>2026-04-19T09:30:45.995Z</time></trkpt><trkpt lat="45.347795" lon="8.75406"><ele>115.60000000000001</ele><time>2026-04-19T09:30:46.993Z</time></trkpt><trkpt lat="45.34772" lon="8.75393"><ele>116.4</ele><time>2026-04-19T09:30:47.994Z</time></trkpt><trkpt lat="45.347655" lon="8.7538017"><ele>117.2</ele><time>2026-04-19T09:30:48.993Z</time></trkpt><trkpt lat="45.3475967" lon="8.7536817"><ele>118.0</ele><time>2026-04-19T09:30:49.993Z</time></trkpt><trkpt lat="45.347535" lon="8.753565"><ele>117.83333333333334</ele><time>2026-04-19T09:30:50.994Z</time></trkpt><trkpt lat="45.34749" lon="8.7534583"><ele>117.66666666666667</ele><time>2026-04-19T09:30:51.994Z</time></trkpt><trkpt lat="45.3474483" lon="8.7533667"><ele>117.5</ele><time>2026-04-19T09:30:52.993Z</time></trkpt><trkpt lat="45.3474" lon="8.7532867"><ele>117.33333333333334</ele><time>2026-04-19T09:30:53.994Z</time></trkpt><trkpt lat="45.3473533" lon="8.7532017"><ele>117.16666666666667</ele><time>2026-04-19T09:30:54.994Z</time></trkpt><trkpt lat="45.3473333" lon="8.7531067"><ele>117.0</ele><time>2026-04-19T09:30:55.994Z</time></trkpt><trkpt lat="45.34733" lon="8.7530033"><ele>117.0</ele><time>2026-04-19T09:30:56.993Z</time></trkpt><trkpt lat="45.3473233" lon="8.7528967"><ele>116.99999999999999</ele><time>2026-04-19T09:30:57.994Z</time></trkpt><trkpt lat="45.3473233" lon="8.75279"><ele>116.99999999999999</ele><time>2026-04-19T09:30:58.993Z</time></trkpt><trkpt lat="45.3473233" lon="8.752695"><ele>117.0</ele><time>2026-04-19T09:30:59.994Z</time></trkpt><trkpt lat="45.347365" lon="8.75256"><ele>117.0</ele><time>2026-04-19T09:31:01.993Z</time></trkpt><trkpt lat="45.3474933" lon="8.752465"><ele>117.19999999999999</ele><time>2026-04-19T09:31:03.994Z</time></trkpt><trkpt lat="45.3475867" lon="8.7524283"><ele>117.39999999999999</ele><time>2026-04-19T09:31:04.994Z</time></trkpt><trkpt lat="45.3476867" lon="8.7523883"><ele>117.60000000000001</ele><time>2026-04-19T09:31:05.993Z</time></trkpt><trkpt lat="45.347795" lon="8.7523367"><ele>117.80000000000001</ele><time>2026-04-19T09:31:06.993Z</time></trkpt><trkpt lat="45.3479033" lon="8.752285"><ele>118.0</ele><time>2026-04-19T09:31:07.994Z</time></trkpt><trkpt lat="45.3480133" lon="8.7522317"><ele>117.5</ele><time>2026-04-19T09:31:08.993Z</time></trkpt><trkpt lat="45.3481283" lon="8.75219"><ele>117.0</ele><time>2026-04-19T09:31:09.994Z</time></trkpt><trkpt lat="45.3482483" lon="8.7521583"><ele>116.5</ele><time>2026-04-19T09:31:10.994Z</time></trkpt><trkpt lat="45.348375" lon="8.75214"><ele>116.0</ele><time>2026-04-19T09:31:11.994Z</time></trkpt><trkpt lat="45.3485067" lon="8.7521083"><ele>116.0</ele><time>2026-04-19T09:31:12.994Z</time></trkpt><trkpt lat="45.3486483" lon="8.7520883"><ele>116.0</ele><time>2026-04-19T09:31:13.994Z</time></trkpt><trkpt lat="45.34879" lon="8.7520567"><ele>116.0</ele><time>2026-04-19T09:31:14.993Z</time></trkpt><trkpt lat="45.348925" lon="8.7520233"><ele>116.0</ele><time>2026-04-19T09:31:15.994Z</time></trkpt><trkpt lat="45.3490583" lon="8.7519883"><ele>115.75</ele><time>2026-04-19T09:31:16.994Z</time></trkpt><trkpt lat="45.3492017" lon="8.75196"><ele>115.5</ele><time>2026-04-19T09:31:17.994Z</time></trkpt><trkpt lat="45.3493383" lon="8.75193"><ele>115.25</ele><time>2026-04-19T09:31:18.994Z</time></trkpt><trkpt lat="45.3494717" lon="8.7519033"><ele>115.0</ele><time>2026-04-19T09:31:19.993Z</time></trkpt><trkpt lat="45.3496" lon="8.75188"><ele>115.0</ele><time>2026-04-19T09:31:20.994Z</time></trkpt><trkpt lat="45.3497267" lon="8.7518533"><ele>115.0</ele><time>2026-04-19T09:31:21.994Z</time></trkpt><trkpt lat="45.3498483" lon="8.7518267"><ele>115.0</ele><time>2026-04-19T09:31:22.994Z</time></trkpt><trkpt lat="45.3499617" lon="8.7517983"><ele>115.0</ele><time>2026-04-19T09:31:23.994Z</time></trkpt><trkpt lat="45.3500717" lon="8.7517733"><ele>115.00000000000001</ele><time>2026-04-19T09:31:24.993Z</time></trkpt><trkpt lat="45.350165" lon="8.751735"><ele>115.0</ele><time>2026-04-19T09:31:25.994Z</time></trkpt><trkpt lat="45.3502317" lon="8.7517117"><ele>115.0</ele><time>2026-04-19T09:31:26.994Z</time></trkpt><trkpt lat="45.3502167" lon="8.75162"><ele>115.0</ele><time>2026-04-19T09:31:41.993Z</time></trkpt><trkpt lat="45.3501533" lon="8.7514983"><ele>115.00000000000001</ele><time>2026-04-19T09:31:43.994Z</time></trkpt><trkpt lat="45.3501267" lon="8.7513617"><ele>115.0</ele><time>2026-04-19T09:31:44.994Z</time></trkpt><trkpt lat="45.350095" lon="8.751185"><ele>115.0</ele><time>2026-04-19T09:31:45.993Z</time></trkpt><trkpt lat="45.3500667" lon="8.75099"><ele>115.0</ele><time>2026-04-19T09:31:46.994Z</time></trkpt><trkpt lat="45.35003" lon="8.7507867"><ele>115.0</ele><time>2026-04-19T09:31:47.993Z</time></trkpt><trkpt lat="45.349995" lon="8.7505733"><ele>115.0</ele><time>2026-04-19T09:31:48.994Z</time></trkpt><trkpt lat="45.349945" lon="8.7503583"><ele>115.0</ele><time>2026-04-19T09:31:49.994Z</time></trkpt><trkpt lat="45.3499033" lon="8.7501533"><ele>115.0</ele><time>2026-04-19T09:31:50.994Z</time></trkpt><trkpt lat="45.34987" lon="8.749965"><ele>115.0</ele><time>2026-04-19T09:31:51.993Z</time></trkpt><trkpt lat="45.34984" lon="8.7498033"><ele>115.0</ele><time>2026-04-19T09:31:52.993Z</time></trkpt><trkpt lat="45.34981" lon="8.7496667"><ele>115.00000000000001</ele><time>2026-04-19T09:31:53.993Z</time></trkpt><trkpt lat="45.349785" lon="8.7495583"><ele>115.0</ele><time>2026-04-19T09:31:54.994Z</time></trkpt><trkpt lat="45.34975" lon="8.7494617"><ele>115.0</ele><time>2026-04-19T09:31:55.993Z</time></trkpt><trkpt lat="45.3497017" lon="8.7494"><ele>115.0</ele><time>2026-04-19T09:31:56.993Z</time></trkpt><trkpt lat="45.3496267" lon="8.74937"><ele>115.00000000000001</ele><time>2026-04-19T09:31:57.994Z</time></trkpt><trkpt lat="45.3495417" lon="8.7493917"><ele>115.0</ele><time>2026-04-19T09:31:58.993Z</time></trkpt><trkpt lat="45.3494583" lon="8.7494267"><ele>115.0</ele><time>2026-04-19T09:31:59.993Z</time></trkpt><trkpt lat="45.3493767" lon="8.749425"><ele>115.0</ele><time>2026-04-19T09:32:00.993Z</time></trkpt><trkpt lat="45.3493017" lon="8.7493717"><ele>115.0</ele><time>2026-04-19T09:32:01.994Z</time></trkpt><trkpt lat="45.3492483" lon="8.749265"><ele>115.0</ele><time>2026-04-19T09:32:02.994Z</time></trkpt><trkpt lat="45.34921" lon="8.749095"><ele>115.0</ele><time>2026-04-19T09:32:03.994Z</time></trkpt><trkpt lat="45.3491733" lon="8.748905"><ele>115.0</ele><time>2026-04-19T09:32:04.993Z</time></trkpt><trkpt lat="45.3491333" lon="8.7487333"><ele>115.0</ele><time>2026-04-19T09:32:05.994Z</time></trkpt><trkpt lat="45.3490967" lon="8.7485717"><ele>115.0</ele><time>2026-04-19T09:32:06.994Z</time></trkpt><trkpt lat="45.3490467" lon="8.7484083"><ele>115.0</ele><time>2026-04-19T09:32:07.994Z</time></trkpt><trkpt lat="45.3489983" lon="8.74826"><ele>115.2</ele><time>2026-04-19T09:32:08.994Z</time></trkpt><trkpt lat="45.3489583" lon="8.7481267"><ele>115.4</ele><time>2026-04-19T09:32:09.994Z</time></trkpt><trkpt lat="45.3489217" lon="8.7480067"><ele>115.6</ele><time>2026-04-19T09:32:10.994Z</time></trkpt><trkpt lat="45.348895" lon="8.7478933"><ele>115.8</ele><time>2026-04-19T09:32:11.994Z</time></trkpt><trkpt lat="45.3488733" lon="8.7477883"><ele>116.0</ele><time>2026-04-19T09:32:12.993Z</time></trkpt><trkpt lat="45.348815" lon="8.7476483"><ele>116.19999999999999</ele><time>2026-04-19T09:32:14.994Z</time></trkpt><trkpt lat="45.348705" lon="8.7476617"><ele>116.39999999999999</ele><time>2026-04-19T09:32:16.993Z</time></trkpt><trkpt lat="45.34864" lon="8.7477383"><ele>116.6</ele><time>2026-04-19T09:32:17.994Z</time></trkpt><trkpt lat="45.3485667" lon="8.7478467"><ele>116.8</ele><time>2026-04-19T09:32:18.993Z</time></trkpt><trkpt lat="45.3484867" lon="8.7479717"><ele>117.0</ele><time>2026-04-19T09:32:19.994Z</time></trkpt><trkpt lat="45.3484083" lon="8.7481083"><ele>117.0</ele><time>2026-04-19T09:32:20.994Z</time></trkpt><trkpt lat="45.3483367" lon="8.748245"><ele>117.0</ele><time>2026-04-19T09:32:21.994Z</time></trkpt><trkpt lat="45.3482617" lon="8.748365"><ele>117.0</ele><time>2026-04-19T09:32:22.993Z</time></trkpt><trkpt lat="45.348185" lon="8.7484983"><ele>117.0</ele><time>2026-04-19T09:32:23.994Z</time></trkpt><trkpt lat="45.3481033" lon="8.7486183"><ele>117.0</ele><time>2026-04-19T09:32:24.994Z</time></trkpt><trkpt lat="45.3480267" lon="8.7487333"><ele>116.99999999999999</ele><time>2026-04-19T09:32:25.993Z</time></trkpt><trkpt lat="45.3479583" lon="8.7488467"><ele>116.99999999999999</ele><time>2026-04-19T09:32:26.993Z</time></trkpt><trkpt lat="45.3478967" lon="8.74895"><ele>117.0</ele><time>2026-04-19T09:32:27.994Z</time></trkpt><trkpt lat="45.34784" lon="8.7490383"><ele>117.0</ele><time>2026-04-19T09:32:28.994Z</time></trkpt><trkpt lat="45.347785" lon="8.7491183"><ele>117.0</ele><time>2026-04-19T09:32:29.993Z</time></trkpt><trkpt lat="45.347735" lon="8.7491833"><ele>117.0</ele><time>2026-04-19T09:32:30.994Z</time></trkpt><trkpt lat="45.34767" lon="8.7492983"><ele>117.0</ele><time>2026-04-19T09:32:32.994Z</time></trkpt><trkpt lat="45.3475917" lon="8.7493433"><ele>117.0</ele><time>2026-04-19T09:32:35.994Z</time></trkpt><trkpt lat="45.3475233" lon="8.7492533"><ele>117.0</ele><time>2026-04-19T09:32:37.994Z</time></trkpt><trkpt lat="45.3474817" lon="8.74917"><ele>117.0</ele><time>2026-04-19T09:32:38.994Z</time></trkpt><trkpt lat="45.34744" lon="8.7490717"><ele>117.0</ele><time>2026-04-19T09:32:39.993Z</time></trkpt><trkpt lat="45.3473967" lon="8.748965"><ele>117.0</ele><time>2026-04-19T09:32:40.994Z</time></trkpt><trkpt lat="45.34736" lon="8.7488633"><ele>117.0</ele><time>2026-04-19T09:32:41.994Z</time></trkpt><trkpt lat="45.34733" lon="8.7487567"><ele>117.0</ele><time>2026-04-19T09:32:42.993Z</time></trkpt><trkpt lat="45.347285" lon="8.7486583"><ele>117.0</ele><time>2026-04-19T09:32:43.994Z</time></trkpt><trkpt lat="45.34723" lon="8.7485517"><ele>117.0</ele><time>2026-04-19T09:32:44.994Z</time></trkpt><trkpt lat="45.34718" lon="8.7484367"><ele>116.83333333333333</ele><time>2026-04-19T09:32:45.994Z</time></trkpt><trkpt lat="45.3471317" lon="8.748325"><ele>116.66666666666666</ele><time>2026-04-19T09:32:46.993Z</time></trkpt><trkpt lat="45.347085" lon="8.74822"><ele>116.5</ele><time>2026-04-19T09:32:47.993Z</time></trkpt><trkpt lat="45.347035" lon="8.748115"><ele>116.33333333333333</ele><time>2026-04-19T09:32:48.993Z</time></trkpt><trkpt lat="45.34697" lon="8.74804"><ele>116.16666666666666</ele><time>2026-04-19T09:32:49.994Z</time></trkpt><trkpt lat="45.3469083" lon="8.74797"><ele>116.0</ele><time>2026-04-19T09:32:50.994Z</time></trkpt><trkpt lat="45.3468467" lon="8.7479033"><ele>115.99999999999999</ele><time>2026-04-19T09:32:51.993Z</time></trkpt><trkpt lat="45.3467883" lon="8.7478367"><ele>116.0</ele><time>2026-04-19T09:32:52.993Z</time></trkpt><trkpt lat="45.3467383" lon="8.7477817"><ele>116.0</ele><time>2026-04-19T09:32:53.994Z</time></trkpt><trkpt lat="45.3467133" lon="8.7476633"><ele>116.0</ele><time>2026-04-19T09:32:55.994Z</time></trkpt><trkpt lat="45.346745" lon="8.7475767"><ele>115.99999999999999</ele><time>2026-04-19T09:32:56.994Z</time></trkpt><trkpt lat="45.346795" lon="8.747485"><ele>116.0</ele><time>2026-04-19T09:32:57.994Z</time></trkpt><trkpt lat="45.3468883" lon="8.7473783"><ele>116.0</ele><time>2026-04-19T09:32:58.994Z</time></trkpt><trkpt lat="45.346995" lon="8.747265"><ele>116.0</ele><time>2026-04-19T09:32:59.994Z</time></trkpt><trkpt lat="45.3471083" lon="8.747145"><ele>116.0</ele><time>2026-04-19T09:33:00.994Z</time></trkpt><trkpt lat="45.3472233" lon="8.747015"><ele>116.0</ele><time>2026-04-19T09:33:01.993Z</time></trkpt><trkpt lat="45.3473283" lon="8.746885"><ele>116.75</ele><time>2026-04-19T09:33:02.994Z</time></trkpt><trkpt lat="45.3474417" lon="8.7467583"><ele>117.5</ele><time>2026-04-19T09:33:03.993Z</time></trkpt><trkpt lat="45.3475433" lon="8.746615"><ele>118.25</ele><time>2026-04-19T09:33:04.993Z</time></trkpt><trkpt lat="45.347645" lon="8.7464633"><ele>119.0</ele><time>2026-04-19T09:33:05.993Z</time></trkpt><trkpt lat="45.3477433" lon="8.746315"><ele>119.0</ele><time>2026-04-19T09:33:06.994Z</time></trkpt><trkpt lat="45.347845" lon="8.746165"><ele>119.0</ele><time>2026-04-19T09:33:07.994Z</time></trkpt><trkpt lat="45.3479567" lon="8.7459917"><ele>119.0</ele><time>2026-04-19T09:33:08.993Z</time></trkpt><trkpt lat="45.3480633" lon="8.7458333"><ele>119.0</ele><time>2026-04-19T09:33:09.993Z</time></trkpt><trkpt lat="45.348175" lon="8.7456617"><ele>119.0</ele><time>2026-04-19T09:33:10.994Z</time></trkpt><trkpt lat="45.348295" lon="8.7455033"><ele>119.0</ele><time>2026-04-19T09:33:11.994Z</time></trkpt><trkpt lat="45.348415" lon="8.74533"><ele>119.0</ele><time>2026-04-19T09:33:12.994Z</time></trkpt><trkpt lat="45.3485333" lon="8.7451583"><ele>119.0</ele><time>2026-04-19T09:33:13.993Z</time></trkpt><trkpt lat="45.348645" lon="8.7449783"><ele>119.0</ele><time>2026-04-19T09:33:14.994Z</time></trkpt><trkpt lat="45.3487483" lon="8.7447783"><ele>119.0</ele><time>2026-04-19T09:33:15.993Z</time></trkpt><trkpt lat="45.34885" lon="8.7445817"><ele>119.0</ele><time>2026-04-19T09:33:16.994Z</time></trkpt><trkpt lat="45.3489367" lon="8.7443683"><ele>119.0</ele><time>2026-04-19T09:33:17.993Z</time></trkpt><trkpt lat="45.349025" lon="8.7441483"><ele>119.33333333333333</ele><time>2026-04-19T09:33:18.994Z</time></trkpt><trkpt lat="45.3491067" lon="8.7439433"><ele>119.66666666666666</ele><time>2026-04-19T09:33:19.993Z</time></trkpt><trkpt lat="45.34919" lon="8.7437433"><ele>120.0</ele><time>2026-04-19T09:33:20.994Z</time></trkpt><trkpt lat="45.34926" lon="8.7435317"><ele>120.33333333333334</ele><time>2026-04-19T09:33:21.993Z</time></trkpt><trkpt lat="45.3493267" lon="8.7433"><ele>120.66666666666667</ele><time>2026-04-19T09:33:22.994Z</time></trkpt><trkpt lat="45.3493767" lon="8.7430567"><ele>121.0</ele><time>2026-04-19T09:33:23.993Z</time></trkpt><trkpt lat="45.349425" lon="8.7428033"><ele>120.33333333333334</ele><time>2026-04-19T09:33:24.993Z</time></trkpt><trkpt lat="45.3494617" lon="8.7425433"><ele>119.66666666666666</ele><time>2026-04-19T09:33:25.994Z</time></trkpt><trkpt lat="45.3494933" lon="8.74228"><ele>119.0</ele><time>2026-04-19T09:33:26.994Z</time></trkpt><trkpt lat="45.34952" lon="8.7420167"><ele>118.0</ele><time>2026-04-19T09:33:27.994Z</time></trkpt><trkpt lat="45.34955" lon="8.7417617"><ele>117.0</ele><time>2026-04-19T09:33:28.993Z</time></trkpt><trkpt lat="45.349575" lon="8.7415033"><ele>116.0</ele><time>2026-04-19T09:33:29.994Z</time></trkpt><trkpt lat="45.3495967" lon="8.7412567"><ele>116.66666666666666</ele><time>2026-04-19T09:33:30.994Z</time></trkpt><trkpt lat="45.349615" lon="8.7410133"><ele>117.33333333333334</ele><time>2026-04-19T09:33:31.993Z</time></trkpt><trkpt lat="45.3496383" lon="8.7407783"><ele>118.0</ele><time>2026-04-19T09:33:32.994Z</time></trkpt><trkpt lat="45.34967" lon="8.7405267"><ele>118.0</ele><time>2026-04-19T09:33:33.993Z</time></trkpt><trkpt lat="45.3497033" lon="8.7402817"><ele>118.0</ele><time>2026-04-19T09:33:34.994Z</time></trkpt><trkpt lat="45.3497283" lon="8.7400367"><ele>118.0</ele><time>2026-04-19T09:33:35.994Z</time></trkpt><trkpt lat="45.3497567" lon="8.7397967"><ele>119.0</ele><time>2026-04-19T09:33:36.994Z</time></trkpt><trkpt lat="45.3497917" lon="8.739565"><ele>120.0</ele><time>2026-04-19T09:33:37.994Z</time></trkpt><trkpt lat="45.34984" lon="8.7393317"><ele>121.0</ele><time>2026-04-19T09:33:38.993Z</time></trkpt><trkpt lat="45.3498867" lon="8.7391117"><ele>121.0</ele><time>2026-04-19T09:33:39.994Z</time></trkpt><trkpt lat="45.3499517" lon="8.738915"><ele>121.0</ele><time>2026-04-19T09:33:40.993Z</time></trkpt><trkpt lat="45.3500233" lon="8.738735"><ele>121.0</ele><time>2026-04-19T09:33:41.994Z</time></trkpt><trkpt lat="45.3501083" lon="8.7385483"><ele>119.66666666666667</ele><time>2026-04-19T09:33:42.994Z</time></trkpt><trkpt lat="45.3501983" lon="8.738365"><ele>118.33333333333334</ele><time>2026-04-19T09:33:43.993Z</time></trkpt><trkpt lat="45.3502833" lon="8.7381817"><ele>117.0</ele><time>2026-04-19T09:33:44.994Z</time></trkpt><trkpt lat="45.3503583" lon="8.7379967"><ele>117.0</ele><time>2026-04-19T09:33:45.994Z</time></trkpt><trkpt lat="45.3504267" lon="8.7378183"><ele>117.0</ele><time>2026-04-19T09:33:46.993Z</time></trkpt><trkpt lat="45.3504983" lon="8.7376367"><ele>117.0</ele><time>2026-04-19T09:33:47.994Z</time></trkpt><trkpt lat="45.350555" lon="8.7374467"><ele>117.0</ele><time>2026-04-19T09:33:48.993Z</time></trkpt><trkpt lat="45.3505983" lon="8.73725"><ele>117.25</ele><time>2026-04-19T09:33:49.993Z</time></trkpt><trkpt lat="45.35063" lon="8.7370517"><ele>117.5</ele><time>2026-04-19T09:33:50.993Z</time></trkpt><trkpt lat="45.350665" lon="8.7368533"><ele>117.75</ele><time>2026-04-19T09:33:51.994Z</time></trkpt><trkpt lat="45.3506917" lon="8.7366567"><ele>118.0</ele><time>2026-04-19T09:33:52.993Z</time></trkpt><trkpt lat="45.3507217" lon="8.73646"><ele>118.0</ele><time>2026-04-19T09:33:53.993Z</time></trkpt><trkpt lat="45.3507483" lon="8.7362683"><ele>118.0</ele><time>2026-04-19T09:33:54.994Z</time></trkpt><trkpt lat="45.3507717" lon="8.7360783"><ele>118.0</ele><time>2026-04-19T09:33:55.994Z</time></trkpt><trkpt lat="45.35079" lon="8.7358867"><ele>118.0</ele><time>2026-04-19T09:33:56.993Z</time></trkpt><trkpt lat="45.3508017" lon="8.7356983"><ele>118.0</ele><time>2026-04-19T09:33:57.993Z</time></trkpt><trkpt lat="45.3508133" lon="8.73552"><ele>118.0</ele><time>2026-04-19T09:33:58.993Z</time></trkpt><trkpt lat="45.35081" lon="8.735335"><ele>118.0</ele><time>2026-04-19T09:33:59.993Z</time></trkpt><trkpt lat="45.3507983" lon="8.7351467"><ele>118.0</ele><time>2026-04-19T09:34:00.993Z</time></trkpt><trkpt lat="45.3507667" lon="8.73495"><ele>118.0</ele><time>2026-04-19T09:34:01.993Z</time></trkpt><trkpt lat="45.3507283" lon="8.7347433"><ele>118.0</ele><time>2026-04-19T09:34:02.993Z</time></trkpt><trkpt lat="45.35069" lon="8.73454"><ele>118.0</ele><time>2026-04-19T09:34:03.994Z</time></trkpt><trkpt lat="45.3506533" lon="8.734345"><ele>118.0</ele><time>2026-04-19T09:34:04.994Z</time></trkpt><trkpt lat="45.350625" lon="8.734145"><ele>118.0</ele><time>2026-04-19T09:34:05.994Z</time></trkpt><trkpt lat="45.3506133" lon="8.7339517"><ele>118.0</ele><time>2026-04-19T09:34:06.994Z</time></trkpt><trkpt lat="45.3506083" lon="8.733755"><ele>118.0</ele><time>2026-04-19T09:34:07.994Z</time></trkpt><trkpt lat="45.35062" lon="8.733565"><ele>118.0</ele><time>2026-04-19T09:34:08.994Z</time></trkpt><trkpt lat="45.3506417" lon="8.7333867"><ele>118.0</ele><time>2026-04-19T09:34:09.994Z</time></trkpt><trkpt lat="45.3506767" lon="8.733215"><ele>118.0</ele><time>2026-04-19T09:34:10.994Z</time></trkpt><trkpt lat="45.3507133" lon="8.7330567"><ele>118.0</ele><time>2026-04-19T09:34:11.993Z</time></trkpt><trkpt lat="45.3507617" lon="8.7329117"><ele>118.0</ele><time>2026-04-19T09:34:12.994Z</time></trkpt><trkpt lat="45.3508317" lon="8.73277"><ele>118.75</ele><time>2026-04-19T09:34:13.993Z</time></trkpt><trkpt lat="45.350905" lon="8.732635"><ele>119.5</ele><time>2026-04-19T09:34:14.994Z</time></trkpt><trkpt lat="45.3509717" lon="8.732505"><ele>120.25</ele><time>2026-04-19T09:34:15.994Z</time></trkpt><trkpt lat="45.35104" lon="8.732365"><ele>121.0</ele><time>2026-04-19T09:34:16.993Z</time></trkpt><trkpt lat="45.3511133" lon="8.7322283"><ele>121.0</ele><time>2026-04-19T09:34:17.994Z</time></trkpt><trkpt lat="45.3511967" lon="8.7320917"><ele>121.0</ele><time>2026-04-19T09:34:18.993Z</time></trkpt><trkpt lat="45.3512717" lon="8.731945"><ele>121.0</ele><time>2026-04-19T09:34:19.993Z</time></trkpt><trkpt lat="45.35136" lon="8.7318017"><ele>121.0</ele><time>2026-04-19T09:34:20.993Z</time></trkpt><trkpt lat="45.35145" lon="8.7316467"><ele>121.25</ele><time>2026-04-19T09:34:21.993Z</time></trkpt><trkpt lat="45.35154" lon="8.7314917"><ele>121.5</ele><time>2026-04-19T09:34:22.994Z</time></trkpt><trkpt lat="45.35162" lon="8.731315"><ele>121.75</ele><time>2026-04-19T09:34:23.994Z</time></trkpt><trkpt lat="45.3517067" lon="8.7311383"><ele>122.0</ele><time>2026-04-19T09:34:24.994Z</time></trkpt><trkpt lat="45.351805" lon="8.7309667"><ele>121.5</ele><time>2026-04-19T09:34:25.993Z</time></trkpt><trkpt lat="45.3519033" lon="8.730805"><ele>121.0</ele><time>2026-04-19T09:34:26.994Z</time></trkpt><trkpt lat="45.3520017" lon="8.73064"><ele>120.5</ele><time>2026-04-19T09:34:27.994Z</time></trkpt><trkpt lat="45.3520933" lon="8.7304817"><ele>120.0</ele><time>2026-04-19T09:34:28.994Z</time></trkpt><trkpt lat="45.352185" lon="8.73034"><ele>119.5</ele><time>2026-04-19T09:34:29.994Z</time></trkpt><trkpt lat="45.3522833" lon="8.730215"><ele>119.0</ele><time>2026-04-19T09:34:30.993Z</time></trkpt><trkpt lat="45.35237" lon="8.7301017"><ele>118.5</ele><time>2026-04-19T09:34:31.993Z</time></trkpt><trkpt lat="45.3524567" lon="8.7299917"><ele>118.0</ele><time>2026-04-19T09:34:32.993Z</time></trkpt><trkpt lat="45.3525433" lon="8.7299"><ele>118.0</ele><time>2026-04-19T09:34:33.993Z</time></trkpt><trkpt lat="45.352635" lon="8.7298083"><ele>118.00000000000001</ele><time>2026-04-19T09:34:34.994Z</time></trkpt><trkpt lat="45.35272" lon="8.72972"><ele>118.00000000000001</ele><time>2026-04-19T09:34:35.994Z</time></trkpt><trkpt lat="45.352805" lon="8.729635"><ele>118.0</ele><time>2026-04-19T09:34:36.993Z</time></trkpt><trkpt lat="45.3528883" lon="8.7295417"><ele>118.0</ele><time>2026-04-19T09:34:37.992Z</time></trkpt><trkpt lat="45.352965" lon="8.72945"><ele>118.2</ele><time>2026-04-19T09:34:38.992Z</time></trkpt><trkpt lat="45.3530433" lon="8.729355"><ele>118.4</ele><time>2026-04-19T09:34:39.993Z</time></trkpt><trkpt lat="45.3531217" lon="8.729265"><ele>118.60000000000001</ele><time>2026-04-19T09:34:40.992Z</time></trkpt><trkpt lat="45.35319" lon="8.7291833"><ele>118.80000000000001</ele><time>2026-04-19T09:34:41.992Z</time></trkpt><trkpt lat="45.3532633" lon="8.7290783"><ele>119.0</ele><time>2026-04-19T09:34:43.992Z</time></trkpt><trkpt lat="45.353275" lon="8.7289767"><ele>119.0</ele><time>2026-04-19T09:34:46.993Z</time></trkpt><trkpt lat="45.3532133" lon="8.72891"><ele>119.0</ele><time>2026-04-19T09:34:49.993Z</time></trkpt><trkpt lat="45.3531217" lon="8.728825"><ele>119.0</ele><time>2026-04-19T09:34:51.992Z</time></trkpt><trkpt lat="45.353065" lon="8.728775"><ele>119.0</ele><time>2026-04-19T09:34:52.993Z</time></trkpt><trkpt lat="45.3529583" lon="8.7286667"><ele>119.0</ele><time>2026-04-19T09:34:54.992Z</time></trkpt><trkpt lat="45.352895" lon="8.7286167"><ele>118.99999999999999</ele><time>2026-04-19T09:34:55.992Z</time></trkpt><trkpt lat="45.3528283" lon="8.7285533"><ele>119.0</ele><time>2026-04-19T09:34:56.993Z</time></trkpt><trkpt lat="45.3527583" lon="8.7284883"><ele>119.0</ele><time>2026-04-19T09:34:57.992Z</time></trkpt><trkpt lat="45.3526883" lon="8.7284417"><ele>119.0</ele><time>2026-04-19T09:34:58.993Z</time></trkpt><trkpt lat="45.3525967" lon="8.7284117"><ele>118.99999999999999</ele><time>2026-04-19T09:34:59.993Z</time></trkpt><trkpt lat="45.352495" lon="8.7283983"><ele>119.0</ele><time>2026-04-19T09:35:00.992Z</time></trkpt><trkpt lat="45.3523933" lon="8.728395"><ele>119.0</ele><time>2026-04-19T09:35:01.992Z</time></trkpt><trkpt lat="45.3523" lon="8.728385"><ele>119.0</ele><time>2026-04-19T09:35:02.993Z</time></trkpt><trkpt lat="45.35221" lon="8.728375"><ele>119.0</ele><time>2026-04-19T09:35:03.993Z</time></trkpt><trkpt lat="45.35212" lon="8.728355"><ele>119.0</ele><time>2026-04-19T09:35:04.992Z</time></trkpt><trkpt lat="45.3520283" lon="8.728325"><ele>119.0</ele><time>2026-04-19T09:35:05.993Z</time></trkpt><trkpt lat="45.3519383" lon="8.7282917"><ele>119.16666666666666</ele><time>2026-04-19T09:35:06.993Z</time></trkpt><trkpt lat="45.3518633" lon="8.728265"><ele>119.33333333333333</ele><time>2026-04-19T09:35:07.992Z</time></trkpt><trkpt lat="45.351795" lon="8.728225"><ele>119.5</ele><time>2026-04-19T09:35:08.992Z</time></trkpt><trkpt lat="45.35172" lon="8.7281783"><ele>119.66666666666666</ele><time>2026-04-19T09:35:09.993Z</time></trkpt><trkpt lat="45.3516383" lon="8.7281183"><ele>119.83333333333333</ele><time>2026-04-19T09:35:10.992Z</time></trkpt><trkpt lat="45.351555" lon="8.7280667"><ele>120.0</ele><time>2026-04-19T09:35:11.993Z</time></trkpt><trkpt lat="45.3514733" lon="8.7280117"><ele>120.0</ele><time>2026-04-19T09:35:12.992Z</time></trkpt><trkpt lat="45.3513883" lon="8.7279633"><ele>120.0</ele><time>2026-04-19T09:35:13.992Z</time></trkpt><trkpt lat="45.351305" lon="8.727905"><ele>120.0</ele><time>2026-04-19T09:35:14.993Z</time></trkpt><trkpt lat="45.3512283" lon="8.7278417"><ele>120.0</ele><time>2026-04-19T09:35:15.993Z</time></trkpt><trkpt lat="45.3511433" lon="8.727775"><ele>120.0</ele><time>2026-04-19T09:35:16.993Z</time></trkpt><trkpt lat="45.3510683" lon="8.7277067"><ele>120.16666666666667</ele><time>2026-04-19T09:35:17.992Z</time></trkpt><trkpt lat="45.3509967" lon="8.7276367"><ele>120.33333333333334</ele><time>2026-04-19T09:35:18.992Z</time></trkpt><trkpt lat="45.350935" lon="8.7275733"><ele>120.5</ele><time>2026-04-19T09:35:19.993Z</time></trkpt><trkpt lat="45.3508783" lon="8.7274517"><ele>120.66666666666667</ele><time>2026-04-19T09:35:21.993Z</time></trkpt><trkpt lat="45.350895" lon="8.7273317"><ele>120.83333333333334</ele><time>2026-04-19T09:35:23.992Z</time></trkpt><trkpt lat="45.3509233" lon="8.727205"><ele>121.0</ele><time>2026-04-19T09:35:25.993Z</time></trkpt><trkpt lat="45.3508833" lon="8.7270767"><ele>121.00000000000001</ele><time>2026-04-19T09:35:27.992Z</time></trkpt><trkpt lat="45.3507933" lon="8.7269933"><ele>121.0</ele><time>2026-04-19T09:35:29.993Z</time></trkpt><trkpt lat="45.350715" lon="8.7269183"><ele>121.0</ele><time>2026-04-19T09:35:31.993Z</time></trkpt><trkpt lat="45.3506717" lon="8.726845"><ele>121.0</ele><time>2026-04-19T09:35:44.993Z</time></trkpt><trkpt lat="45.3506933" lon="8.72676"><ele>121.00000000000001</ele><time>2026-04-19T09:35:46.993Z</time></trkpt><trkpt lat="45.350745" lon="8.7266833"><ele>121.0</ele><time>2026-04-19T09:35:48.993Z</time></trkpt><trkpt lat="45.3507933" lon="8.7265967"><ele>121.0</ele><time>2026-04-19T09:35:50.992Z</time></trkpt><trkpt lat="45.3508383" lon="8.7265067"><ele>120.99999999999999</ele><time>2026-04-19T09:35:52.993Z</time></trkpt><trkpt lat="45.3508917" lon="8.726395"><ele>121.0</ele><time>2026-04-19T09:35:54.993Z</time></trkpt><trkpt lat="45.3509333" lon="8.72632"><ele>121.0</ele><time>2026-04-19T09:35:55.992Z</time></trkpt><trkpt lat="45.3509817" lon="8.7262417"><ele>120.99999999999999</ele><time>2026-04-19T09:35:56.992Z</time></trkpt><trkpt lat="45.3510283" lon="8.726165"><ele>121.0</ele><time>2026-04-19T09:35:57.992Z</time></trkpt><trkpt lat="45.3510683" lon="8.7260933"><ele>121.0</ele><time>2026-04-19T09:35:58.992Z</time></trkpt><trkpt lat="45.351095" lon="8.7259867"><ele>120.6</ele><time>2026-04-19T09:36:00.992Z</time></trkpt><trkpt lat="45.3510417" lon="8.72592"><ele>120.19999999999999</ele><time>2026-04-19T09:36:02.992Z</time></trkpt><trkpt lat="45.3509317" lon="8.7258967"><ele>119.80000000000001</ele><time>2026-04-19T09:36:04.993Z</time></trkpt><trkpt lat="45.3508517" lon="8.7258867"><ele>119.4</ele><time>2026-04-19T09:36:05.993Z</time></trkpt><trkpt lat="45.3507583" lon="8.7258633"><ele>119.0</ele><time>2026-04-19T09:36:06.992Z</time></trkpt><trkpt lat="45.3506417" lon="8.7258367"><ele>119.0</ele><time>2026-04-19T09:36:07.993Z</time></trkpt><trkpt lat="45.3505067" lon="8.72582"><ele>119.0</ele><time>2026-04-19T09:36:08.992Z</time></trkpt><trkpt lat="45.3503683" lon="8.7258067"><ele>119.0</ele><time>2026-04-19T09:36:09.993Z</time></trkpt><trkpt lat="45.35023" lon="8.7257833"><ele>119.0</ele><time>2026-04-19T09:36:10.993Z</time></trkpt><trkpt lat="45.3500833" lon="8.725755"><ele>119.0</ele><time>2026-04-19T09:36:11.993Z</time></trkpt><trkpt lat="45.3499283" lon="8.7257383"><ele>119.0</ele><time>2026-04-19T09:36:12.993Z</time></trkpt><trkpt lat="45.3497833" lon="8.7257167"><ele>119.0</ele><time>2026-04-19T09:36:13.993Z</time></trkpt><trkpt lat="45.3496517" lon="8.7257017"><ele>119.0</ele><time>2026-04-19T09:36:14.992Z</time></trkpt><trkpt lat="45.3495183" lon="8.7257"><ele>119.4</ele><time>2026-04-19T09:36:15.993Z</time></trkpt><trkpt lat="45.3493933" lon="8.72571"><ele>119.80000000000001</ele><time>2026-04-19T09:36:16.993Z</time></trkpt><trkpt lat="45.34928" lon="8.725725"><ele>120.19999999999999</ele><time>2026-04-19T09:36:17.993Z</time></trkpt><trkpt lat="45.3491717" lon="8.725725"><ele>120.6</ele><time>2026-04-19T09:36:18.993Z</time></trkpt><trkpt lat="45.3490767" lon="8.7257133"><ele>121.0</ele><time>2026-04-19T09:36:19.993Z</time></trkpt><trkpt lat="45.3489867" lon="8.7257017"><ele>121.0</ele><time>2026-04-19T09:36:20.992Z</time></trkpt><trkpt lat="45.3488933" lon="8.7256733"><ele>121.0</ele><time>2026-04-19T09:36:21.992Z</time></trkpt><trkpt lat="45.3488133" lon="8.725615"><ele>121.0</ele><time>2026-04-19T09:36:22.993Z</time></trkpt><trkpt lat="45.3487367" lon="8.7255533"><ele>121.0</ele><time>2026-04-19T09:36:23.993Z</time></trkpt><trkpt lat="45.348645" lon="8.7255"><ele>121.0</ele><time>2026-04-19T09:36:24.993Z</time></trkpt><trkpt lat="45.3485383" lon="8.725455"><ele>120.75</ele><time>2026-04-19T09:36:25.992Z</time></trkpt><trkpt lat="45.34841" lon="8.7254383"><ele>120.5</ele><time>2026-04-19T09:36:26.992Z</time></trkpt><trkpt lat="45.3482633" lon="8.7254367"><ele>120.25</ele><time>2026-04-19T09:36:27.992Z</time></trkpt><trkpt lat="45.3481067" lon="8.7254367"><ele>120.0</ele><time>2026-04-19T09:36:28.992Z</time></trkpt><trkpt lat="45.3479433" lon="8.7254267"><ele>119.66666666666666</ele><time>2026-04-19T09:36:29.993Z</time></trkpt><trkpt lat="45.347765" lon="8.7254067"><ele>119.33333333333333</ele><time>2026-04-19T09:36:30.992Z</time></trkpt><trkpt lat="45.347565" lon="8.7253667"><ele>119.0</ele><time>2026-04-19T09:36:31.992Z</time></trkpt><trkpt lat="45.3473567" lon="8.7253183"><ele>118.66666666666666</ele><time>2026-04-19T09:36:32.993Z</time></trkpt><trkpt lat="45.34715" lon="8.72527"><ele>118.33333333333334</ele><time>2026-04-19T09:36:33.993Z</time></trkpt><trkpt lat="45.3469483" lon="8.7252417"><ele>118.0</ele><time>2026-04-19T09:36:34.993Z</time></trkpt><trkpt lat="45.346765" lon="8.7252083"><ele>118.0</ele><time>2026-04-19T09:36:35.992Z</time></trkpt><trkpt lat="45.34658" lon="8.7251783"><ele>118.0</ele><time>2026-04-19T09:36:36.992Z</time></trkpt><trkpt lat="45.346395" lon="8.725135"><ele>118.0</ele><time>2026-04-19T09:36:37.993Z</time></trkpt><trkpt lat="45.3462183" lon="8.7251017"><ele>118.0</ele><time>2026-04-19T09:36:38.993Z</time></trkpt><trkpt lat="45.3460633" lon="8.7250667"><ele>118.0</ele><time>2026-04-19T09:36:39.992Z</time></trkpt><trkpt lat="45.3459133" lon="8.7250433"><ele>118.0</ele><time>2026-04-19T09:36:40.992Z</time></trkpt><trkpt lat="45.3457683" lon="8.72501"><ele>118.0</ele><time>2026-04-19T09:36:41.992Z</time></trkpt><trkpt lat="45.3456317" lon="8.72498"><ele>118.0</ele><time>2026-04-19T09:36:42.992Z</time></trkpt><trkpt lat="45.34549" lon="8.7249467"><ele>118.0</ele><time>2026-04-19T09:36:43.993Z</time></trkpt><trkpt lat="45.34536" lon="8.7249217"><ele>118.0</ele><time>2026-04-19T09:36:44.993Z</time></trkpt><trkpt lat="45.3452417" lon="8.7248967"><ele>118.0</ele><time>2026-04-19T09:36:45.993Z</time></trkpt><trkpt lat="45.3451283" lon="8.7248783"><ele>118.00000000000001</ele><time>2026-04-19T09:36:46.993Z</time></trkpt><trkpt lat="45.3450233" lon="8.7248583"><ele>118.00000000000001</ele><time>2026-04-19T09:36:47.992Z</time></trkpt><trkpt lat="45.344925" lon="8.724835"><ele>118.0</ele><time>2026-04-19T09:36:48.993Z</time></trkpt><trkpt lat="45.3448367" lon="8.72482"><ele>118.0</ele><time>2026-04-19T09:36:49.992Z</time></trkpt><trkpt lat="45.3447533" lon="8.72481"><ele>118.00000000000001</ele><time>2026-04-19T09:36:50.993Z</time></trkpt><trkpt lat="45.3446767" lon="8.7247883"><ele>118.0</ele><time>2026-04-19T09:36:51.993Z</time></trkpt><trkpt lat="45.3445983" lon="8.7247733"><ele>118.0</ele><time>2026-04-19T09:36:52.993Z</time></trkpt><trkpt lat="45.3445283" lon="8.7247617"><ele>118.0</ele><time>2026-04-19T09:36:53.993Z</time></trkpt><trkpt lat="45.3444317" lon="8.7247483"><ele>118.00000000000001</ele><time>2026-04-19T09:36:55.993Z</time></trkpt><trkpt lat="45.344385" lon="8.7246567"><ele>118.0</ele><time>2026-04-19T09:36:58.992Z</time></trkpt><trkpt lat="45.3444017" lon="8.724535"><ele>118.0</ele><time>2026-04-19T09:37:00.993Z</time></trkpt><trkpt lat="45.34443" lon="8.7243433"><ele>118.00000000000001</ele><time>2026-04-19T09:37:02.993Z</time></trkpt><trkpt lat="45.3444467" lon="8.7242267"><ele>118.00000000000001</ele><time>2026-04-19T09:37:03.993Z</time></trkpt><trkpt lat="45.3444667" lon="8.7240883"><ele>118.0</ele><time>2026-04-19T09:37:04.992Z</time></trkpt><trkpt lat="45.3444867" lon="8.7239333"><ele>118.0</ele><time>2026-04-19T09:37:05.993Z</time></trkpt><trkpt lat="45.34451" lon="8.7237817"><ele>118.0</ele><time>2026-04-19T09:37:06.993Z</time></trkpt><trkpt lat="45.344535" lon="8.7236133"><ele>118.0</ele><time>2026-04-19T09:37:07.993Z</time></trkpt><trkpt lat="45.3445733" lon="8.7234467"><ele>118.0</ele><time>2026-04-19T09:37:08.993Z</time></trkpt><trkpt lat="45.3446183" lon="8.723285"><ele>118.0</ele><time>2026-04-19T09:37:09.993Z</time></trkpt><trkpt lat="45.3446467" lon="8.7231483"><ele>118.00000000000001</ele><time>2026-04-19T09:37:10.992Z</time></trkpt><trkpt lat="45.3446783" lon="8.723025"><ele>118.0</ele><time>2026-04-19T09:37:11.992Z</time></trkpt><trkpt lat="45.3447017" lon="8.7229167"><ele>118.0</ele><time>2026-04-19T09:37:12.993Z</time></trkpt><trkpt lat="45.3447333" lon="8.7228133"><ele>118.0</ele><time>2026-04-19T09:37:13.993Z</time></trkpt><trkpt lat="45.3447683" lon="8.72271"><ele>118.00000000000001</ele><time>2026-04-19T09:37:14.992Z</time></trkpt><trkpt lat="45.34481" lon="8.7225967"><ele>118.0</ele><time>2026-04-19T09:37:15.992Z</time></trkpt><trkpt lat="45.34484" lon="8.722455"><ele>118.25</ele><time>2026-04-19T09:37:16.993Z</time></trkpt><trkpt lat="45.344855" lon="8.7223"><ele>118.5</ele><time>2026-04-19T09:37:17.992Z</time></trkpt><trkpt lat="45.3448717" lon="8.7221383"><ele>118.75</ele><time>2026-04-19T09:37:18.993Z</time></trkpt><trkpt lat="45.3448833" lon="8.7219683"><ele>119.0</ele><time>2026-04-19T09:37:19.993Z</time></trkpt><trkpt lat="45.3449067" lon="8.7217933"><ele>119.0</ele><time>2026-04-19T09:37:20.993Z</time></trkpt><trkpt lat="45.34493" lon="8.7216133"><ele>119.0</ele><time>2026-04-19T09:37:21.992Z</time></trkpt><trkpt lat="45.3449567" lon="8.7214333"><ele>119.0</ele><time>2026-04-19T09:37:22.993Z</time></trkpt><trkpt lat="45.3449817" lon="8.721255"><ele>119.0</ele><time>2026-04-19T09:37:23.992Z</time></trkpt><trkpt lat="45.345005" lon="8.72108"><ele>118.75</ele><time>2026-04-19T09:37:24.993Z</time></trkpt><trkpt lat="45.3450333" lon="8.7209017"><ele>118.5</ele><time>2026-04-19T09:37:25.993Z</time></trkpt><trkpt lat="45.3450583" lon="8.7207317"><ele>118.25</ele><time>2026-04-19T09:37:26.993Z</time></trkpt><trkpt lat="45.3450817" lon="8.7205583"><ele>118.0</ele><time>2026-04-19T09:37:27.992Z</time></trkpt><trkpt lat="45.34511" lon="8.72039"><ele>118.5</ele><time>2026-04-19T09:37:28.992Z</time></trkpt><trkpt lat="45.345145" lon="8.720215"><ele>119.0</ele><time>2026-04-19T09:37:29.992Z</time></trkpt><trkpt lat="45.3451883" lon="8.72004"><ele>119.5</ele><time>2026-04-19T09:37:30.992Z</time></trkpt><trkpt lat="45.345225" lon="8.7198617"><ele>120.0</ele><time>2026-04-19T09:37:31.993Z</time></trkpt><trkpt lat="45.3452517" lon="8.7196883"><ele>120.0</ele><time>2026-04-19T09:37:32.993Z</time></trkpt><trkpt lat="45.3452833" lon="8.719495"><ele>120.0</ele><time>2026-04-19T09:37:33.992Z</time></trkpt><trkpt lat="45.3453133" lon="8.719305"><ele>120.0</ele><time>2026-04-19T09:37:34.993Z</time></trkpt><trkpt lat="45.3453417" lon="8.71912"><ele>120.0</ele><time>2026-04-19T09:37:35.993Z</time></trkpt><trkpt lat="45.3453767" lon="8.7189433"><ele>120.0</ele><time>2026-04-19T09:37:36.992Z</time></trkpt><trkpt lat="45.3454083" lon="8.7187533"><ele>120.0</ele><time>2026-04-19T09:37:37.993Z</time></trkpt><trkpt lat="45.345445" lon="8.71857"><ele>120.0</ele><time>2026-04-19T09:37:38.992Z</time></trkpt><trkpt lat="45.3454733" lon="8.718385"><ele>120.0</ele><time>2026-04-19T09:37:39.992Z</time></trkpt><trkpt lat="45.3455" lon="8.7181917"><ele>120.0</ele><time>2026-04-19T09:37:40.993Z</time></trkpt><trkpt lat="45.3455317" lon="8.7179933"><ele>120.0</ele><time>2026-04-19T09:37:41.993Z</time></trkpt><trkpt lat="45.345555" lon="8.7178033"><ele>120.0</ele><time>2026-04-19T09:37:42.993Z</time></trkpt><trkpt lat="45.34558" lon="8.717615"><ele>120.0</ele><time>2026-04-19T09:37:43.992Z</time></trkpt><trkpt lat="45.3456067" lon="8.7174417"><ele>120.0</ele><time>2026-04-19T09:37:44.993Z</time></trkpt><trkpt lat="45.34564" lon="8.717255"><ele>120.0</ele><time>2026-04-19T09:37:45.993Z</time></trkpt><trkpt lat="45.3456683" lon="8.7170533"><ele>120.0</ele><time>2026-04-19T09:37:46.993Z</time></trkpt><trkpt lat="45.3457033" lon="8.7168583"><ele>120.0</ele><time>2026-04-19T09:37:47.993Z</time></trkpt><trkpt lat="45.3457433" lon="8.7166633"><ele>120.0</ele><time>2026-04-19T09:37:48.993Z</time></trkpt><trkpt lat="45.345795" lon="8.7164733"><ele>120.0</ele><time>2026-04-19T09:37:49.992Z</time></trkpt><trkpt lat="45.34584" lon="8.716275"><ele>120.0</ele><time>2026-04-19T09:37:50.992Z</time></trkpt><trkpt lat="45.3458917" lon="8.7160867"><ele>120.0</ele><time>2026-04-19T09:37:51.993Z</time></trkpt><trkpt lat="45.3459417" lon="8.71592"><ele>120.0</ele><time>2026-04-19T09:37:52.993Z</time></trkpt><trkpt lat="45.3459783" lon="8.715755"><ele>120.0</ele><time>2026-04-19T09:37:53.993Z</time></trkpt><trkpt lat="45.346015" lon="8.7156033"><ele>120.0</ele><time>2026-04-19T09:37:54.992Z</time></trkpt><trkpt lat="45.3460533" lon="8.7154533"><ele>120.0</ele><time>2026-04-19T09:37:55.993Z</time></trkpt><trkpt lat="45.3460883" lon="8.7153117"><ele>119.83333333333333</ele><time>2026-04-19T09:37:56.992Z</time></trkpt><trkpt lat="45.34612" lon="8.7151817"><ele>119.66666666666666</ele><time>2026-04-19T09:37:57.992Z</time></trkpt><trkpt lat="45.346145" lon="8.7150583"><ele>119.5</ele><time>2026-04-19T09:37:58.992Z</time></trkpt><trkpt lat="45.3461717" lon="8.7149433"><ele>119.33333333333333</ele><time>2026-04-19T09:37:59.993Z</time></trkpt><trkpt lat="45.3461967" lon="8.714835"><ele>119.16666666666666</ele><time>2026-04-19T09:38:00.993Z</time></trkpt><trkpt lat="45.34621" lon="8.7147267"><ele>119.0</ele><time>2026-04-19T09:38:01.993Z</time></trkpt><trkpt lat="45.34622" lon="8.7146067"><ele>119.0</ele><time>2026-04-19T09:38:02.992Z</time></trkpt><trkpt lat="45.3462283" lon="8.7144567"><ele>119.0</ele><time>2026-04-19T09:38:03.993Z</time></trkpt><trkpt lat="45.3462367" lon="8.714295"><ele>119.0</ele><time>2026-04-19T09:38:04.992Z</time></trkpt><trkpt lat="45.3462483" lon="8.7141167"><ele>119.0</ele><time>2026-04-19T09:38:05.992Z</time></trkpt><trkpt lat="45.346265" lon="8.7139367"><ele>118.75</ele><time>2026-04-19T09:38:06.992Z</time></trkpt><trkpt lat="45.346285" lon="8.7137567"><ele>118.5</ele><time>2026-04-19T09:38:07.992Z</time></trkpt><trkpt lat="45.3463033" lon="8.713575"><ele>118.25</ele><time>2026-04-19T09:38:08.993Z</time></trkpt><trkpt lat="45.3463183" lon="8.7133917"><ele>118.0</ele><time>2026-04-19T09:38:09.993Z</time></trkpt><trkpt lat="45.3463433" lon="8.7132083"><ele>118.25</ele><time>2026-04-19T09:38:10.992Z</time></trkpt><trkpt lat="45.3463717" lon="8.713025"><ele>118.5</ele><time>2026-04-19T09:38:11.993Z</time></trkpt><trkpt lat="45.3463967" lon="8.71285"><ele>118.75</ele><time>2026-04-19T09:38:12.993Z</time></trkpt><trkpt lat="45.34642" lon="8.7126767"><ele>119.0</ele><time>2026-04-19T09:38:13.992Z</time></trkpt><trkpt lat="45.3464417" lon="8.71249"><ele>119.25</ele><time>2026-04-19T09:38:14.992Z</time></trkpt><trkpt lat="45.3464617" lon="8.7123033"><ele>119.5</ele><time>2026-04-19T09:38:15.993Z</time></trkpt><trkpt lat="45.34648" lon="8.712105"><ele>119.75</ele><time>2026-04-19T09:38:16.992Z</time></trkpt><trkpt lat="45.34648" lon="8.7119117"><ele>120.0</ele><time>2026-04-19T09:38:17.992Z</time></trkpt><trkpt lat="45.34648" lon="8.7117017"><ele>120.0</ele><time>2026-04-19T09:38:18.992Z</time></trkpt><trkpt lat="45.3464783" lon="8.7115033"><ele>120.0</ele><time>2026-04-19T09:38:19.993Z</time></trkpt><trkpt lat="45.3464833" lon="8.7113017"><ele>120.0</ele><time>2026-04-19T09:38:20.992Z</time></trkpt><trkpt lat="45.3464767" lon="8.711085"><ele>120.0</ele><time>2026-04-19T09:38:21.992Z</time></trkpt><trkpt lat="45.3464683" lon="8.7108783"><ele>119.75</ele><time>2026-04-19T09:38:22.992Z</time></trkpt><trkpt lat="45.3464683" lon="8.7106767"><ele>119.5</ele><time>2026-04-19T09:38:23.992Z</time></trkpt><trkpt lat="45.3464617" lon="8.7104733"><ele>119.25</ele><time>2026-04-19T09:38:24.993Z</time></trkpt><trkpt lat="45.346455" lon="8.7102683"><ele>119.0</ele><time>2026-04-19T09:38:25.991Z</time></trkpt><trkpt lat="45.3464583" lon="8.7100583"><ele>119.0</ele><time>2026-04-19T09:38:26.992Z</time></trkpt><trkpt lat="45.346465" lon="8.709855"><ele>119.0</ele><time>2026-04-19T09:38:27.992Z</time></trkpt><trkpt lat="45.34648" lon="8.70967"><ele>119.0</ele><time>2026-04-19T09:38:28.992Z</time></trkpt><trkpt lat="45.3464983" lon="8.7095167"><ele>119.0</ele><time>2026-04-19T09:38:29.992Z</time></trkpt><trkpt lat="45.3465233" lon="8.7093883"><ele>118.80000000000001</ele><time>2026-04-19T09:38:30.992Z</time></trkpt><trkpt lat="45.34656" lon="8.7092633"><ele>118.60000000000001</ele><time>2026-04-19T09:38:31.991Z</time></trkpt><trkpt lat="45.34658" lon="8.70913"><ele>118.4</ele><time>2026-04-19T09:38:32.992Z</time></trkpt><trkpt lat="45.3465683" lon="8.7089833"><ele>118.2</ele><time>2026-04-19T09:38:33.992Z</time></trkpt><trkpt lat="45.3465333" lon="8.7088167"><ele>118.0</ele><time>2026-04-19T09:38:34.992Z</time></trkpt><trkpt lat="45.3464917" lon="8.708635"><ele>117.75</ele><time>2026-04-19T09:38:35.991Z</time></trkpt><trkpt lat="45.3464567" lon="8.708445"><ele>117.5</ele><time>2026-04-19T09:38:36.992Z</time></trkpt><trkpt lat="45.34642" lon="8.7082667"><ele>117.25</ele><time>2026-04-19T09:38:37.991Z</time></trkpt><trkpt lat="45.3463883" lon="8.70808"><ele>117.0</ele><time>2026-04-19T09:38:38.992Z</time></trkpt><trkpt lat="45.3463517" lon="8.7078883"><ele>117.25</ele><time>2026-04-19T09:38:39.992Z</time></trkpt><trkpt lat="45.3463217" lon="8.7077"><ele>117.5</ele><time>2026-04-19T09:38:40.991Z</time></trkpt><trkpt lat="45.3462933" lon="8.7075217"><ele>117.75</ele><time>2026-04-19T09:38:41.992Z</time></trkpt><trkpt lat="45.346265" lon="8.7073233"><ele>118.0</ele><time>2026-04-19T09:38:42.991Z</time></trkpt><trkpt lat="45.3462467" lon="8.7071167"><ele>118.0</ele><time>2026-04-19T09:38:43.992Z</time></trkpt><trkpt lat="45.3462267" lon="8.7069133"><ele>118.0</ele><time>2026-04-19T09:38:44.991Z</time></trkpt><trkpt lat="45.3462083" lon="8.7067"><ele>118.0</ele><time>2026-04-19T09:38:45.991Z</time></trkpt><trkpt lat="45.3462017" lon="8.70649"><ele>118.0</ele><time>2026-04-19T09:38:46.991Z</time></trkpt><trkpt lat="45.3461883" lon="8.70628"><ele>118.0</ele><time>2026-04-19T09:38:47.992Z</time></trkpt><trkpt lat="45.3461717" lon="8.7060667"><ele>118.0</ele><time>2026-04-19T09:38:48.991Z</time></trkpt><trkpt lat="45.3461633" lon="8.70586"><ele>118.0</ele><time>2026-04-19T09:38:49.992Z</time></trkpt><trkpt lat="45.3461533" lon="8.70566"><ele>118.0</ele><time>2026-04-19T09:38:50.992Z</time></trkpt><trkpt lat="45.3461367" lon="8.7054733"><ele>118.0</ele><time>2026-04-19T09:38:51.992Z</time></trkpt><trkpt lat="45.3461283" lon="8.70531"><ele>118.0</ele><time>2026-04-19T09:38:52.992Z</time></trkpt><trkpt lat="45.3461167" lon="8.705135"><ele>118.0</ele><time>2026-04-19T09:38:53.992Z</time></trkpt><trkpt lat="45.3461183" lon="8.704965"><ele>118.0</ele><time>2026-04-19T09:38:54.991Z</time></trkpt><trkpt lat="45.346135" lon="8.7047933"><ele>118.0</ele><time>2026-04-19T09:38:55.992Z</time></trkpt><trkpt lat="45.3461667" lon="8.7046083"><ele>118.0</ele><time>2026-04-19T09:38:56.992Z</time></trkpt><trkpt lat="45.3462" lon="8.7044133"><ele>118.0</ele><time>2026-04-19T09:38:57.991Z</time></trkpt><trkpt lat="45.3462367" lon="8.7042217"><ele>118.0</ele><time>2026-04-19T09:38:58.992Z</time></trkpt><trkpt lat="45.3462883" lon="8.7040333"><ele>118.33333333333334</ele><time>2026-04-19T09:38:59.992Z</time></trkpt><trkpt lat="45.3463417" lon="8.7038333"><ele>118.66666666666666</ele><time>2026-04-19T09:39:00.992Z</time></trkpt><trkpt lat="45.3463967" lon="8.703625"><ele>119.0</ele><time>2026-04-19T09:39:01.991Z</time></trkpt><trkpt lat="45.3464367" lon="8.7034183"><ele>119.0</ele><time>2026-04-19T09:39:02.991Z</time></trkpt><trkpt lat="45.3464867" lon="8.7032233"><ele>119.0</ele><time>2026-04-19T09:39:03.992Z</time></trkpt><trkpt lat="45.3465483" lon="8.7030283"><ele>119.0</ele><time>2026-04-19T09:39:04.992Z</time></trkpt><trkpt lat="45.3466083" lon="8.7028367"><ele>119.0</ele><time>2026-04-19T09:39:05.992Z</time></trkpt><trkpt lat="45.3466617" lon="8.7026517"><ele>119.25</ele><time>2026-04-19T09:39:06.992Z</time></trkpt><trkpt lat="45.34671" lon="8.70247"><ele>119.5</ele><time>2026-04-19T09:39:07.991Z</time></trkpt><trkpt lat="45.3467567" lon="8.702285"><ele>119.75</ele><time>2026-04-19T09:39:08.991Z</time></trkpt><trkpt lat="45.3468" lon="8.7020983"><ele>120.0</ele><time>2026-04-19T09:39:09.991Z</time></trkpt><trkpt lat="45.3468283" lon="8.70192"><ele>120.2</ele><time>2026-04-19T09:39:10.991Z</time></trkpt><trkpt lat="45.3468533" lon="8.7017467"><ele>120.4</ele><time>2026-04-19T09:39:11.992Z</time></trkpt><trkpt lat="45.34688" lon="8.7015833"><ele>120.6</ele><time>2026-04-19T09:39:12.992Z</time></trkpt><trkpt lat="45.3469" lon="8.7014333"><ele>120.8</ele><time>2026-04-19T09:39:13.991Z</time></trkpt><trkpt lat="45.3469133" lon="8.7012967"><ele>121.0</ele><time>2026-04-19T09:39:14.992Z</time></trkpt><trkpt lat="45.34692" lon="8.70118"><ele>121.0</ele><time>2026-04-19T09:39:15.992Z</time></trkpt><trkpt lat="45.34693" lon="8.701085"><ele>121.0</ele><time>2026-04-19T09:39:16.991Z</time></trkpt><trkpt lat="45.3469367" lon="8.70096"><ele>121.0</ele><time>2026-04-19T09:39:18.992Z</time></trkpt><trkpt lat="45.3468717" lon="8.7009233"><ele>121.0</ele><time>2026-04-19T09:39:20.992Z</time></trkpt><trkpt lat="45.3467383" lon="8.70098"><ele>121.0</ele><time>2026-04-19T09:39:22.992Z</time></trkpt><trkpt lat="45.34663" lon="8.701025"><ele>121.0</ele><time>2026-04-19T09:39:23.992Z</time></trkpt><trkpt lat="45.3464833" lon="8.7010917"><ele>121.0</ele><time>2026-04-19T09:39:24.992Z</time></trkpt><trkpt lat="45.34634" lon="8.701155"><ele>121.0</ele><time>2026-04-19T09:39:25.991Z</time></trkpt><trkpt lat="45.34618" lon="8.7012217"><ele>120.66666666666667</ele><time>2026-04-19T09:39:26.992Z</time></trkpt><trkpt lat="45.3460067" lon="8.7012983"><ele>120.33333333333334</ele><time>2026-04-19T09:39:27.992Z</time></trkpt><trkpt lat="45.34583" lon="8.7013683"><ele>120.0</ele><time>2026-04-19T09:39:28.992Z</time></trkpt><trkpt lat="45.3456717" lon="8.7014283"><ele>119.75</ele><time>2026-04-19T09:39:29.992Z</time></trkpt><trkpt lat="45.3455183" lon="8.7014883"><ele>119.5</ele><time>2026-04-19T09:39:30.992Z</time></trkpt><trkpt lat="45.34538" lon="8.701525"><ele>119.25</ele><time>2026-04-19T09:39:31.991Z</time></trkpt><trkpt lat="45.345245" lon="8.7015383"><ele>119.0</ele><time>2026-04-19T09:39:32.992Z</time></trkpt><trkpt lat="45.3451133" lon="8.70153"><ele>119.0</ele><time>2026-04-19T09:39:33.992Z</time></trkpt><trkpt lat="45.3449883" lon="8.701515"><ele>119.0</ele><time>2026-04-19T09:39:34.992Z</time></trkpt><trkpt lat="45.3448717" lon="8.7014917"><ele>119.0</ele><time>2026-04-19T09:39:35.991Z</time></trkpt><trkpt lat="45.344765" lon="8.701475"><ele>119.0</ele><time>2026-04-19T09:39:36.992Z</time></trkpt><trkpt lat="45.3446617" lon="8.70145"><ele>119.33333333333333</ele><time>2026-04-19T09:39:37.992Z</time></trkpt><trkpt lat="45.3445717" lon="8.7014333"><ele>119.66666666666666</ele><time>2026-04-19T09:39:38.992Z</time></trkpt><trkpt lat="45.344485" lon="8.7014133"><ele>120.0</ele><time>2026-04-19T09:39:39.991Z</time></trkpt><trkpt lat="45.34441" lon="8.701395"><ele>120.33333333333334</ele><time>2026-04-19T09:39:40.992Z</time></trkpt><trkpt lat="45.3443383" lon="8.701385"><ele>120.66666666666667</ele><time>2026-04-19T09:39:41.992Z</time></trkpt><trkpt lat="45.344235" lon="8.701335"><ele>121.0</ele><time>2026-04-19T09:39:43.991Z</time></trkpt><trkpt lat="45.3442183" lon="8.70122"><ele>121.0</ele><time>2026-04-19T09:39:45.992Z</time></trkpt><trkpt lat="45.3442517" lon="8.7010983"><ele>121.0</ele><time>2026-04-19T09:39:46.992Z</time></trkpt><trkpt lat="45.3442917" lon="8.700925"><ele>121.0</ele><time>2026-04-19T09:39:47.991Z</time></trkpt><trkpt lat="45.3443217" lon="8.7007317"><ele>121.0</ele><time>2026-04-19T09:39:48.992Z</time></trkpt><trkpt lat="45.344345" lon="8.7005467"><ele>120.5</ele><time>2026-04-19T09:39:49.991Z</time></trkpt><trkpt lat="45.3443667" lon="8.7003533"><ele>120.0</ele><time>2026-04-19T09:39:50.992Z</time></trkpt><trkpt lat="45.34439" lon="8.700165"><ele>119.5</ele><time>2026-04-19T09:39:51.991Z</time></trkpt><trkpt lat="45.3444083" lon="8.69997"><ele>119.0</ele><time>2026-04-19T09:39:52.992Z</time></trkpt><trkpt lat="45.3444317" lon="8.6998"><ele>119.0</ele><time>2026-04-19T09:39:53.992Z</time></trkpt><trkpt lat="45.3444517" lon="8.6996283"><ele>119.0</ele><time>2026-04-19T09:39:54.991Z</time></trkpt><trkpt lat="45.344475" lon="8.6994583"><ele>119.0</ele><time>2026-04-19T09:39:55.992Z</time></trkpt><trkpt lat="45.3444967" lon="8.69928"><ele>119.0</ele><time>2026-04-19T09:39:56.991Z</time></trkpt><trkpt lat="45.3445217" lon="8.6991033"><ele>119.0</ele><time>2026-04-19T09:39:57.992Z</time></trkpt><trkpt lat="45.3445383" lon="8.6989267"><ele>119.0</ele><time>2026-04-19T09:39:58.992Z</time></trkpt><trkpt lat="45.3445617" lon="8.6987567"><ele>119.0</ele><time>2026-04-19T09:39:59.992Z</time></trkpt><trkpt lat="45.3445833" lon="8.6985917"><ele>119.0</ele><time>2026-04-19T09:40:00.992Z</time></trkpt><trkpt lat="45.3446067" lon="8.69843"><ele>119.0</ele><time>2026-04-19T09:40:01.991Z</time></trkpt><trkpt lat="45.3446333" lon="8.6982533"><ele>119.0</ele><time>2026-04-19T09:40:02.991Z</time></trkpt><trkpt lat="45.34466" lon="8.6980883"><ele>119.0</ele><time>2026-04-19T09:40:03.991Z</time></trkpt><trkpt lat="45.3446833" lon="8.6979317"><ele>119.0</ele><time>2026-04-19T09:40:04.991Z</time></trkpt><trkpt lat="45.3447083" lon="8.6977683"><ele>119.25</ele><time>2026-04-19T09:40:05.992Z</time></trkpt><trkpt lat="45.3447333" lon="8.6976017"><ele>119.5</ele><time>2026-04-19T09:40:06.991Z</time></trkpt><trkpt lat="45.3447583" lon="8.6974283"><ele>119.75</ele><time>2026-04-19T09:40:07.991Z</time></trkpt><trkpt lat="45.344785" lon="8.6972583"><ele>120.0</ele><time>2026-04-19T09:40:08.991Z</time></trkpt><trkpt lat="45.3448083" lon="8.697085"><ele>120.0</ele><time>2026-04-19T09:40:09.992Z</time></trkpt><trkpt lat="45.3448233" lon="8.69692"><ele>120.0</ele><time>2026-04-19T09:40:10.992Z</time></trkpt><trkpt lat="45.3448483" lon="8.6967567"><ele>120.0</ele><time>2026-04-19T09:40:11.992Z</time></trkpt><trkpt lat="45.344875" lon="8.6965833"><ele>120.0</ele><time>2026-04-19T09:40:12.991Z</time></trkpt><trkpt lat="45.3448967" lon="8.6963983"><ele>120.0</ele><time>2026-04-19T09:40:13.991Z</time></trkpt><trkpt lat="45.34492" lon="8.6962217"><ele>120.0</ele><time>2026-04-19T09:40:14.991Z</time></trkpt><trkpt lat="45.34494" lon="8.6960417"><ele>120.0</ele><time>2026-04-19T09:40:15.992Z</time></trkpt><trkpt lat="45.3449667" lon="8.6958667"><ele>120.0</ele><time>2026-04-19T09:40:16.992Z</time></trkpt><trkpt lat="45.344995" lon="8.6956883"><ele>119.75</ele><time>2026-04-19T09:40:17.992Z</time></trkpt><trkpt lat="45.3450183" lon="8.69551"><ele>119.5</ele><time>2026-04-19T09:40:18.991Z</time></trkpt><trkpt lat="45.3450533" lon="8.695325"><ele>119.25</ele><time>2026-04-19T09:40:19.992Z</time></trkpt><trkpt lat="45.34508" lon="8.6951367"><ele>119.0</ele><time>2026-04-19T09:40:20.991Z</time></trkpt><trkpt lat="45.345115" lon="8.6949667"><ele>119.0</ele><time>2026-04-19T09:40:21.992Z</time></trkpt><trkpt lat="45.3451433" lon="8.6947867"><ele>119.0</ele><time>2026-04-19T09:40:22.992Z</time></trkpt><trkpt lat="45.345165" lon="8.6945967"><ele>119.0</ele><time>2026-04-19T09:40:23.992Z</time></trkpt><trkpt lat="45.345175" lon="8.6944033"><ele>119.0</ele><time>2026-04-19T09:40:24.991Z</time></trkpt><trkpt lat="45.345185" lon="8.6941983"><ele>119.0</ele><time>2026-04-19T09:40:25.992Z</time></trkpt><trkpt lat="45.3451933" lon="8.6939967"><ele>119.0</ele><time>2026-04-19T09:40:26.991Z</time></trkpt><trkpt lat="45.3451917" lon="8.693795"><ele>119.0</ele><time>2026-04-19T09:40:27.991Z</time></trkpt><trkpt lat="45.345195" lon="8.6935733"><ele>119.0</ele><time>2026-04-19T09:40:28.991Z</time></trkpt><trkpt lat="45.3451983" lon="8.6933667"><ele>119.25</ele><time>2026-04-19T09:40:29.991Z</time></trkpt><trkpt lat="45.3452" lon="8.6931583"><ele>119.5</ele><time>2026-04-19T09:40:30.992Z</time></trkpt><trkpt lat="45.3451983" lon="8.692945"><ele>119.75</ele><time>2026-04-19T09:40:31.992Z</time></trkpt><trkpt lat="45.3452" lon="8.6927383"><ele>120.0</ele><time>2026-04-19T09:40:32.992Z</time></trkpt><trkpt lat="45.3452033" lon="8.6925383"><ele>120.0</ele><time>2026-04-19T09:40:33.991Z</time></trkpt><trkpt lat="45.3452017" lon="8.69234"><ele>120.0</ele><time>2026-04-19T09:40:34.992Z</time></trkpt><trkpt lat="45.3452067" lon="8.6921383"><ele>120.0</ele><time>2026-04-19T09:40:35.991Z</time></trkpt><trkpt lat="45.3452117" lon="8.6919517"><ele>120.0</ele><time>2026-04-19T09:40:36.991Z</time></trkpt><trkpt lat="45.3452183" lon="8.6917817"><ele>120.0</ele><time>2026-04-19T09:40:37.992Z</time></trkpt><trkpt lat="45.345235" lon="8.6916133"><ele>120.0</ele><time>2026-04-19T09:40:38.992Z</time></trkpt><trkpt lat="45.34527" lon="8.6914417"><ele>120.0</ele><time>2026-04-19T09:40:39.992Z</time></trkpt><trkpt lat="45.3453183" lon="8.691255"><ele>120.0</ele><time>2026-04-19T09:40:40.991Z</time></trkpt><trkpt lat="45.34537" lon="8.6910633"><ele>120.0</ele><time>2026-04-19T09:40:41.992Z</time></trkpt><trkpt lat="45.3454267" lon="8.690865"><ele>120.0</ele><time>2026-04-19T09:40:42.992Z</time></trkpt><trkpt lat="45.3454783" lon="8.6906533"><ele>120.0</ele><time>2026-04-19T09:40:43.991Z</time></trkpt><trkpt lat="45.3455283" lon="8.690445"><ele>119.75</ele><time>2026-04-19T09:40:44.992Z</time></trkpt><trkpt lat="45.3455667" lon="8.6902417"><ele>119.5</ele><time>2026-04-19T09:40:45.992Z</time></trkpt><trkpt lat="45.3455983" lon="8.6900383"><ele>119.25</ele><time>2026-04-19T09:40:46.992Z</time></trkpt><trkpt lat="45.345625" lon="8.6898367"><ele>119.0</ele><time>2026-04-19T09:40:47.992Z</time></trkpt><trkpt lat="45.3456533" lon="8.68966"><ele>119.0</ele><time>2026-04-19T09:40:48.992Z</time></trkpt><trkpt lat="45.3456783" lon="8.6894883"><ele>119.0</ele><time>2026-04-19T09:40:49.992Z</time></trkpt><trkpt lat="45.3457033" lon="8.6893317"><ele>119.0</ele><time>2026-04-19T09:40:50.992Z</time></trkpt><trkpt lat="45.3457117" lon="8.689175"><ele>119.0</ele><time>2026-04-19T09:40:51.992Z</time></trkpt><trkpt lat="45.3457183" lon="8.6890117"><ele>119.0</ele><time>2026-04-19T09:40:52.992Z</time></trkpt><trkpt lat="45.3457167" lon="8.688825"><ele>119.0</ele><time>2026-04-19T09:40:53.991Z</time></trkpt><trkpt lat="45.3457183" lon="8.6886267"><ele>119.0</ele><time>2026-04-19T09:40:54.992Z</time></trkpt><trkpt lat="45.3457183" lon="8.68842"><ele>119.0</ele><time>2026-04-19T09:40:55.991Z</time></trkpt><trkpt lat="45.3457267" lon="8.688205"><ele>119.0</ele><time>2026-04-19T09:40:56.992Z</time></trkpt><trkpt lat="45.3457467" lon="8.6879833"><ele>119.0</ele><time>2026-04-19T09:40:57.991Z</time></trkpt><trkpt lat="45.3457567" lon="8.6877617"><ele>119.0</ele><time>2026-04-19T09:40:58.992Z</time></trkpt><trkpt lat="45.3457767" lon="8.6875467"><ele>119.0</ele><time>2026-04-19T09:40:59.992Z</time></trkpt><trkpt lat="45.3458" lon="8.6873167"><ele>119.0</ele><time>2026-04-19T09:41:00.992Z</time></trkpt><trkpt lat="45.3458033" lon="8.6870817"><ele>119.0</ele><time>2026-04-19T09:41:01.992Z</time></trkpt><trkpt lat="45.3458083" lon="8.6868367"><ele>119.0</ele><time>2026-04-19T09:41:02.992Z</time></trkpt><trkpt lat="45.3458167" lon="8.6866083"><ele>119.0</ele><time>2026-04-19T09:41:03.991Z</time></trkpt><trkpt lat="45.3458483" lon="8.686385"><ele>119.0</ele><time>2026-04-19T09:41:04.992Z</time></trkpt><trkpt lat="45.3458733" lon="8.6861633"><ele>118.66666666666666</ele><time>2026-04-19T09:41:05.992Z</time></trkpt><trkpt lat="45.3459133" lon="8.685935"><ele>118.33333333333334</ele><time>2026-04-19T09:41:06.992Z</time></trkpt><trkpt lat="45.3459483" lon="8.685715"><ele>118.0</ele><time>2026-04-19T09:41:07.991Z</time></trkpt><trkpt lat="45.34598" lon="8.68549"><ele>118.0</ele><time>2026-04-19T09:41:08.992Z</time></trkpt><trkpt lat="45.3460167" lon="8.6852633"><ele>118.0</ele><time>2026-04-19T09:41:09.991Z</time></trkpt><trkpt lat="45.3460533" lon="8.6850367"><ele>118.0</ele><time>2026-04-19T09:41:10.991Z</time></trkpt><trkpt lat="45.346085" lon="8.6848117"><ele>118.33333333333334</ele><time>2026-04-19T09:41:11.992Z</time></trkpt><trkpt lat="45.3461217" lon="8.68459"><ele>118.66666666666666</ele><time>2026-04-19T09:41:12.992Z</time></trkpt><trkpt lat="45.3461567" lon="8.6843667"><ele>119.0</ele><time>2026-04-19T09:41:13.992Z</time></trkpt><trkpt lat="45.34619" lon="8.6841317"><ele>119.0</ele><time>2026-04-19T09:41:14.992Z</time></trkpt><trkpt lat="45.346225" lon="8.6839"><ele>119.0</ele><time>2026-04-19T09:41:15.991Z</time></trkpt><trkpt lat="45.346255" lon="8.6836583"><ele>119.0</ele><time>2026-04-19T09:41:16.991Z</time></trkpt><trkpt lat="45.3462967" lon="8.6834167"><ele>119.0</ele><time>2026-04-19T09:41:17.992Z</time></trkpt><trkpt lat="45.3463317" lon="8.6831867"><ele>119.0</ele><time>2026-04-19T09:41:18.992Z</time></trkpt><trkpt lat="45.3463633" lon="8.6829567"><ele>119.0</ele><time>2026-04-19T09:41:19.991Z</time></trkpt><trkpt lat="45.3464017" lon="8.6827183"><ele>119.33333333333333</ele><time>2026-04-19T09:41:20.991Z</time></trkpt><trkpt lat="45.3464433" lon="8.682475"><ele>119.66666666666666</ele><time>2026-04-19T09:41:21.992Z</time></trkpt><trkpt lat="45.3464767" lon="8.68224"><ele>120.0</ele><time>2026-04-19T09:41:22.991Z</time></trkpt><trkpt lat="45.3465133" lon="8.6820033"><ele>120.0</ele><time>2026-04-19T09:41:23.992Z</time></trkpt><trkpt lat="45.3465417" lon="8.6817667"><ele>120.0</ele><time>2026-04-19T09:41:24.992Z</time></trkpt><trkpt lat="45.3465583" lon="8.68152"><ele>120.0</ele><time>2026-04-19T09:41:25.991Z</time></trkpt><trkpt lat="45.3465717" lon="8.681295"><ele>119.75</ele><time>2026-04-19T09:41:26.992Z</time></trkpt><trkpt lat="45.3465933" lon="8.681085"><ele>119.5</ele><time>2026-04-19T09:41:27.991Z</time></trkpt><trkpt lat="45.3466083" lon="8.6808783"><ele>119.25</ele><time>2026-04-19T09:41:28.992Z</time></trkpt><trkpt lat="45.3466367" lon="8.6806783"><ele>119.0</ele><time>2026-04-19T09:41:29.991Z</time></trkpt><trkpt lat="45.3466783" lon="8.680475"><ele>119.0</ele><time>2026-04-19T09:41:30.992Z</time></trkpt><trkpt lat="45.3467317" lon="8.6802783"><ele>119.0</ele><time>2026-04-19T09:41:31.992Z</time></trkpt><trkpt lat="45.3467917" lon="8.6800767"><ele>119.0</ele><time>2026-04-19T09:41:32.991Z</time></trkpt><trkpt lat="45.3468333" lon="8.6798717"><ele>119.0</ele><time>2026-04-19T09:41:33.992Z</time></trkpt><trkpt lat="45.34686" lon="8.6796667"><ele>119.0</ele><time>2026-04-19T09:41:34.991Z</time></trkpt><trkpt lat="45.3468883" lon="8.6794567"><ele>119.0</ele><time>2026-04-19T09:41:35.992Z</time></trkpt><trkpt lat="45.34691" lon="8.6792417"><ele>119.0</ele><time>2026-04-19T09:41:36.992Z</time></trkpt><trkpt lat="45.3469317" lon="8.6790267"><ele>119.25</ele><time>2026-04-19T09:41:37.991Z</time></trkpt><trkpt lat="45.3469533" lon="8.67882"><ele>119.5</ele><time>2026-04-19T09:41:38.991Z</time></trkpt><trkpt lat="45.3469783" lon="8.67862"><ele>119.75</ele><time>2026-04-19T09:41:39.991Z</time></trkpt><trkpt lat="45.347" lon="8.6784417"><ele>120.0</ele><time>2026-04-19T09:41:40.992Z</time></trkpt><trkpt lat="45.3470183" lon="8.6782833"><ele>120.0</ele><time>2026-04-19T09:41:41.991Z</time></trkpt><trkpt lat="45.3470283" lon="8.6781233"><ele>120.0</ele><time>2026-04-19T09:41:42.992Z</time></trkpt><trkpt lat="45.3470267" lon="8.6779767"><ele>120.0</ele><time>2026-04-19T09:41:43.992Z</time></trkpt><trkpt lat="45.347015" lon="8.6778433"><ele>120.0</ele><time>2026-04-19T09:41:44.991Z</time></trkpt><trkpt lat="45.3469783" lon="8.6777183"><ele>120.0</ele><time>2026-04-19T09:41:45.991Z</time></trkpt><trkpt lat="45.3469167" lon="8.6776133"><ele>120.0</ele><time>2026-04-19T09:41:46.991Z</time></trkpt><trkpt lat="45.3468333" lon="8.677515"><ele>120.0</ele><time>2026-04-19T09:41:47.992Z</time></trkpt><trkpt lat="45.3467467" lon="8.6774233"><ele>120.0</ele><time>2026-04-19T09:41:48.992Z</time></trkpt><trkpt lat="45.3466667" lon="8.6773233"><ele>120.0</ele><time>2026-04-19T09:41:49.991Z</time></trkpt><trkpt lat="45.3466217" lon="8.677215"><ele>120.0</ele><time>2026-04-19T09:41:50.992Z</time></trkpt><trkpt lat="45.346615" lon="8.6771117"><ele>120.0</ele><time>2026-04-19T09:41:51.991Z</time></trkpt><trkpt lat="45.3466267" lon="8.67702"><ele>120.0</ele><time>2026-04-19T09:41:52.992Z</time></trkpt><trkpt lat="45.3466417" lon="8.67693"><ele>120.0</ele><time>2026-04-19T09:41:53.992Z</time></trkpt><trkpt lat="45.3466567" lon="8.6768317"><ele>120.0</ele><time>2026-04-19T09:41:54.992Z</time></trkpt><trkpt lat="45.34667" lon="8.67673"><ele>120.0</ele><time>2026-04-19T09:41:55.992Z</time></trkpt><trkpt lat="45.346685" lon="8.6766233"><ele>120.0</ele><time>2026-04-19T09:41:56.991Z</time></trkpt><trkpt lat="45.3467017" lon="8.676515"><ele>120.0</ele><time>2026-04-19T09:41:57.992Z</time></trkpt><trkpt lat="45.3467283" lon="8.6763883"><ele>120.0</ele><time>2026-04-19T09:41:58.992Z</time></trkpt><trkpt lat="45.3467683" lon="8.6762717"><ele>120.0</ele><time>2026-04-19T09:41:59.991Z</time></trkpt><trkpt lat="45.3467933" lon="8.6761533"><ele>120.0</ele><time>2026-04-19T09:42:00.992Z</time></trkpt><trkpt lat="45.3468467" lon="8.6760483"><ele>120.0</ele><time>2026-04-19T09:42:01.991Z</time></trkpt><trkpt lat="45.34692" lon="8.6759583"><ele>120.0</ele><time>2026-04-19T09:42:02.992Z</time></trkpt><trkpt lat="45.347015" lon="8.6758717"><ele>120.2</ele><time>2026-04-19T09:42:03.992Z</time></trkpt><trkpt lat="45.3471017" lon="8.6757883"><ele>120.4</ele><time>2026-04-19T09:42:04.992Z</time></trkpt><trkpt lat="45.3471917" lon="8.6756917"><ele>120.6</ele><time>2026-04-19T09:42:05.991Z</time></trkpt><trkpt lat="45.347285" lon="8.6755967"><ele>120.8</ele><time>2026-04-19T09:42:06.992Z</time></trkpt><trkpt lat="45.3473767" lon="8.6755017"><ele>121.0</ele><time>2026-04-19T09:42:07.991Z</time></trkpt><trkpt lat="45.3474683" lon="8.675405"><ele>121.0</ele><time>2026-04-19T09:42:08.991Z</time></trkpt><trkpt lat="45.347555" lon="8.675315"><ele>121.0</ele><time>2026-04-19T09:42:09.992Z</time></trkpt><trkpt lat="45.3476483" lon="8.675235"><ele>121.0</ele><time>2026-04-19T09:42:10.991Z</time></trkpt><trkpt lat="45.3477367" lon="8.675145"><ele>121.0</ele><time>2026-04-19T09:42:11.992Z</time></trkpt><trkpt lat="45.34782" lon="8.6750583"><ele>121.0</ele><time>2026-04-19T09:42:12.992Z</time></trkpt><trkpt lat="45.3479017" lon="8.6749783"><ele>121.00000000000001</ele><time>2026-04-19T09:42:13.991Z</time></trkpt><trkpt lat="45.3479783" lon="8.6749083"><ele>121.0</ele><time>2026-04-19T09:42:14.992Z</time></trkpt><trkpt lat="45.3480517" lon="8.6748467"><ele>121.0</ele><time>2026-04-19T09:42:15.991Z</time></trkpt><trkpt lat="45.3481083" lon="8.6748"><ele>121.0</ele><time>2026-04-19T09:42:16.991Z</time></trkpt><trkpt lat="45.348185" lon="8.6747517"><ele>121.00000000000001</ele><time>2026-04-19T09:42:18.99Z</time></trkpt><trkpt lat="45.3482533" lon="8.6746833"><ele>121.0</ele><time>2026-04-19T09:42:20.991Z</time></trkpt><trkpt lat="45.3482517" lon="8.674535"><ele>121.00000000000001</ele><time>2026-04-19T09:42:22.99Z</time></trkpt><trkpt lat="45.348225" lon="8.67445"><ele>121.0</ele><time>2026-04-19T09:42:23.99Z</time></trkpt><trkpt lat="45.348205" lon="8.6743517"><ele>121.0</ele><time>2026-04-19T09:42:24.991Z</time></trkpt><trkpt lat="45.3482233" lon="8.6742283"><ele>121.0</ele><time>2026-04-19T09:42:25.99Z</time></trkpt><trkpt lat="45.34828" lon="8.67412"><ele>121.00000000000001</ele><time>2026-04-19T09:42:26.991Z</time></trkpt><trkpt lat="45.3483517" lon="8.6740133"><ele>121.0</ele><time>2026-04-19T09:42:27.991Z</time></trkpt><trkpt lat="45.3484283" lon="8.6738967"><ele>121.0</ele><time>2026-04-19T09:42:28.99Z</time></trkpt><trkpt lat="45.348495" lon="8.6737583"><ele>121.0</ele><time>2026-04-19T09:42:29.99Z</time></trkpt><trkpt lat="45.3485267" lon="8.6735917"><ele>121.0</ele><time>2026-04-19T09:42:30.991Z</time></trkpt><trkpt lat="45.3485467" lon="8.6734233"><ele>121.0</ele><time>2026-04-19T09:42:31.991Z</time></trkpt><trkpt lat="45.3485617" lon="8.6732517"><ele>121.25</ele><time>2026-04-19T09:42:32.991Z</time></trkpt><trkpt lat="45.3485967" lon="8.67309"><ele>121.5</ele><time>2026-04-19T09:42:33.991Z</time></trkpt><trkpt lat="45.3486233" lon="8.6729167"><ele>121.75</ele><time>2026-04-19T09:42:34.99Z</time></trkpt><trkpt lat="45.3486633" lon="8.6727467"><ele>122.0</ele><time>2026-04-19T09:42:35.991Z</time></trkpt><trkpt lat="45.3486917" lon="8.6725783"><ele>122.0</ele><time>2026-04-19T09:42:36.991Z</time></trkpt><trkpt lat="45.348725" lon="8.6724033"><ele>122.0</ele><time>2026-04-19T09:42:37.991Z</time></trkpt><trkpt lat="45.348755" lon="8.6722217"><ele>122.0</ele><time>2026-04-19T09:42:38.99Z</time></trkpt><trkpt lat="45.348785" lon="8.672045"><ele>122.0</ele><time>2026-04-19T09:42:39.99Z</time></trkpt><trkpt lat="45.3488183" lon="8.6718633"><ele>122.0</ele><time>2026-04-19T09:42:40.99Z</time></trkpt><trkpt lat="45.3488483" lon="8.6716783"><ele>122.0</ele><time>2026-04-19T09:42:41.99Z</time></trkpt><trkpt lat="45.34888" lon="8.6715083"><ele>122.0</ele><time>2026-04-19T09:42:42.991Z</time></trkpt><trkpt lat="45.3489017" lon="8.6713367"><ele>122.0</ele><time>2026-04-19T09:42:43.991Z</time></trkpt><trkpt lat="45.34893" lon="8.671155"><ele>122.0</ele><time>2026-04-19T09:42:44.991Z</time></trkpt><trkpt lat="45.3489467" lon="8.67099"><ele>122.0</ele><time>2026-04-19T09:42:45.991Z</time></trkpt><trkpt lat="45.3489833" lon="8.6708283"><ele>122.0</ele><time>2026-04-19T09:42:46.99Z</time></trkpt><trkpt lat="45.3490167" lon="8.670645"><ele>122.0</ele><time>2026-04-19T09:42:47.99Z</time></trkpt><trkpt lat="45.3490467" lon="8.670485"><ele>122.0</ele><time>2026-04-19T09:42:48.991Z</time></trkpt><trkpt lat="45.34907" lon="8.670315"><ele>122.0</ele><time>2026-04-19T09:42:49.99Z</time></trkpt><trkpt lat="45.34908" lon="8.6701383"><ele>122.0</ele><time>2026-04-19T09:42:50.991Z</time></trkpt><trkpt lat="45.349105" lon="8.66998"><ele>122.0</ele><time>2026-04-19T09:42:51.991Z</time></trkpt><trkpt lat="45.34914" lon="8.6698367"><ele>122.39999999999999</ele><time>2026-04-19T09:42:52.99Z</time></trkpt><trkpt lat="45.34915" lon="8.6697033"><ele>122.79999999999998</ele><time>2026-04-19T09:42:53.991Z</time></trkpt><trkpt lat="45.3491517" lon="8.669585"><ele>123.2</ele><time>2026-04-19T09:42:54.991Z</time></trkpt><trkpt lat="45.3491567" lon="8.66949"><ele>123.6</ele><time>2026-04-19T09:42:55.991Z</time></trkpt><trkpt lat="45.3491583" lon="8.66938"><ele>124.0</ele><time>2026-04-19T09:42:57.99Z</time></trkpt><trkpt lat="45.3492083" lon="8.6692033"><ele>124.2</ele><time>2026-04-19T09:43:40.991Z</time></trkpt><trkpt lat="45.349225" lon="8.6690783"><ele>124.4</ele><time>2026-04-19T09:43:41.991Z</time></trkpt><trkpt lat="45.3492567" lon="8.6689467"><ele>124.6</ele><time>2026-04-19T09:43:42.991Z</time></trkpt><trkpt lat="45.34928" lon="8.6688117"><ele>124.8</ele><time>2026-04-19T09:43:43.991Z</time></trkpt><trkpt lat="45.3493083" lon="8.668665"><ele>125.0</ele><time>2026-04-19T09:43:44.99Z</time></trkpt><trkpt lat="45.3493333" lon="8.6684867"><ele>124.5</ele><time>2026-04-19T09:43:45.99Z</time></trkpt><trkpt lat="45.34936" lon="8.668325"><ele>124.0</ele><time>2026-04-19T09:43:46.991Z</time></trkpt><trkpt lat="45.349385" lon="8.6681667"><ele>123.5</ele><time>2026-04-19T09:43:47.99Z</time></trkpt><trkpt lat="45.3494083" lon="8.6680017"><ele>123.0</ele><time>2026-04-19T09:43:48.991Z</time></trkpt><trkpt lat="45.349425" lon="8.6678383"><ele>123.0</ele><time>2026-04-19T09:43:49.991Z</time></trkpt><trkpt lat="45.3494283" lon="8.6676867"><ele>123.00000000000001</ele><time>2026-04-19T09:43:50.99Z</time></trkpt><trkpt lat="45.3494417" lon="8.6675383"><ele>123.00000000000001</ele><time>2026-04-19T09:43:51.991Z</time></trkpt><trkpt lat="45.3494533" lon="8.6673833"><ele>123.0</ele><time>2026-04-19T09:43:52.991Z</time></trkpt><trkpt lat="45.349465" lon="8.66722"><ele>123.0</ele><time>2026-04-19T09:43:53.99Z</time></trkpt><trkpt lat="45.3494717" lon="8.66705"><ele>123.2</ele><time>2026-04-19T09:43:54.991Z</time></trkpt><trkpt lat="45.34948" lon="8.6668833"><ele>123.4</ele><time>2026-04-19T09:43:55.991Z</time></trkpt><trkpt lat="45.3494967" lon="8.66672"><ele>123.60000000000001</ele><time>2026-04-19T09:43:56.99Z</time></trkpt><trkpt lat="45.3495183" lon="8.6665717"><ele>123.80000000000001</ele><time>2026-04-19T09:43:57.991Z</time></trkpt><trkpt lat="45.349525" lon="8.6664167"><ele>124.0</ele><time>2026-04-19T09:43:58.99Z</time></trkpt><trkpt lat="45.3495433" lon="8.6662417"><ele>123.75</ele><time>2026-04-19T09:43:59.991Z</time></trkpt><trkpt lat="45.34957" lon="8.666075"><ele>123.5</ele><time>2026-04-19T09:44:00.99Z</time></trkpt><trkpt lat="45.3496017" lon="8.6659067"><ele>123.25</ele><time>2026-04-19T09:44:01.991Z</time></trkpt><trkpt lat="45.3496233" lon="8.665755"><ele>123.0</ele><time>2026-04-19T09:44:02.99Z</time></trkpt><trkpt lat="45.34964" lon="8.6655967"><ele>123.0</ele><time>2026-04-19T09:44:03.991Z</time></trkpt><trkpt lat="45.34966" lon="8.66547"><ele>123.00000000000001</ele><time>2026-04-19T09:44:04.991Z</time></trkpt><trkpt lat="45.349595" lon="8.665315"><ele>123.00000000000001</ele><time>2026-04-19T09:44:06.99Z</time></trkpt><trkpt lat="45.3495183" lon="8.6653083"><ele>123.0</ele><time>2026-04-19T09:44:07.991Z</time></trkpt><trkpt lat="45.3494017" lon="8.6653167"><ele>123.0</ele><time>2026-04-19T09:44:09.991Z</time></trkpt><trkpt lat="45.3493083" lon="8.6652967"><ele>123.0</ele><time>2026-04-19T09:44:11.99Z</time></trkpt><trkpt lat="45.3492367" lon="8.6653667"><ele>123.00000000000001</ele><time>2026-04-19T09:46:18.99Z</time></trkpt><trkpt lat="45.3491133" lon="8.6653717"><ele>123.00000000000001</ele><time>2026-04-19T09:46:20.989Z</time></trkpt><trkpt lat="45.3490267" lon="8.6653633"><ele>123.0</ele><time>2026-04-19T09:46:21.99Z</time></trkpt><trkpt lat="45.3489317" lon="8.66533"><ele>123.0</ele><time>2026-04-19T09:46:22.99Z</time></trkpt><trkpt lat="45.3488383" lon="8.6653067"><ele>123.0</ele><time>2026-04-19T09:46:23.989Z</time></trkpt><trkpt lat="45.348755" lon="8.6652883"><ele>123.00000000000001</ele><time>2026-04-19T09:46:24.99Z</time></trkpt><trkpt lat="45.34866" lon="8.665245"><ele>123.00000000000001</ele><time>2026-04-19T09:46:25.989Z</time></trkpt><trkpt lat="45.3485667" lon="8.6652133"><ele>123.0</ele><time>2026-04-19T09:46:26.99Z</time></trkpt><trkpt lat="45.348465" lon="8.6651833"><ele>123.0</ele><time>2026-04-19T09:46:27.989Z</time></trkpt><trkpt lat="45.3483717" lon="8.6651617"><ele>123.0</ele><time>2026-04-19T09:46:28.989Z</time></trkpt><trkpt lat="45.3482567" lon="8.665135"><ele>123.0</ele><time>2026-04-19T09:46:29.99Z</time></trkpt><trkpt lat="45.3481483" lon="8.6651133"><ele>123.0</ele><time>2026-04-19T09:46:30.989Z</time></trkpt><trkpt lat="45.3480283" lon="8.6651133"><ele>123.0</ele><time>2026-04-19T09:46:31.99Z</time></trkpt><trkpt lat="45.3479083" lon="8.66511"><ele>122.75</ele><time>2026-04-19T09:46:32.989Z</time></trkpt><trkpt lat="45.347785" lon="8.66512"><ele>122.5</ele><time>2026-04-19T09:46:33.989Z</time></trkpt><trkpt lat="45.3476567" lon="8.6651217"><ele>122.25</ele><time>2026-04-19T09:46:34.99Z</time></trkpt><trkpt lat="45.3475267" lon="8.665115"><ele>122.0</ele><time>2026-04-19T09:46:35.989Z</time></trkpt><trkpt lat="45.34739" lon="8.66511"><ele>122.0</ele><time>2026-04-19T09:46:36.99Z</time></trkpt><trkpt lat="45.3472533" lon="8.6651233"><ele>122.0</ele><time>2026-04-19T09:46:37.99Z</time></trkpt><trkpt lat="45.347115" lon="8.66512"><ele>122.0</ele><time>2026-04-19T09:46:38.989Z</time></trkpt><trkpt lat="45.3469783" lon="8.66512"><ele>122.0</ele><time>2026-04-19T09:46:39.99Z</time></trkpt><trkpt lat="45.346835" lon="8.66514"><ele>122.25</ele><time>2026-04-19T09:46:40.989Z</time></trkpt><trkpt lat="45.3466917" lon="8.66515"><ele>122.5</ele><time>2026-04-19T09:46:41.989Z</time></trkpt><trkpt lat="45.3465467" lon="8.66516"><ele>122.75</ele><time>2026-04-19T09:46:42.99Z</time></trkpt><trkpt lat="45.3464217" lon="8.66518"><ele>123.0</ele><time>2026-04-19T09:46:43.99Z</time></trkpt><trkpt lat="45.346315" lon="8.6651783"><ele>122.60000000000001</ele><time>2026-04-19T09:46:44.989Z</time></trkpt><trkpt lat="45.34621" lon="8.6651733"><ele>122.20000000000002</ele><time>2026-04-19T09:46:45.99Z</time></trkpt><trkpt lat="45.346105" lon="8.6651233"><ele>121.8</ele><time>2026-04-19T09:46:46.989Z</time></trkpt><trkpt lat="45.346005" lon="8.6650583"><ele>121.4</ele><time>2026-04-19T09:46:47.99Z</time></trkpt><trkpt lat="45.3459083" lon="8.6649583"><ele>121.0</ele><time>2026-04-19T09:46:48.989Z</time></trkpt><trkpt lat="45.3457883" lon="8.6648467"><ele>121.0</ele><time>2026-04-19T09:46:49.99Z</time></trkpt><trkpt lat="45.3456567" lon="8.6647467"><ele>121.0</ele><time>2026-04-19T09:46:50.99Z</time></trkpt><trkpt lat="45.3455167" lon="8.664645"><ele>121.0</ele><time>2026-04-19T09:46:51.989Z</time></trkpt><trkpt lat="45.3453733" lon="8.6645583"><ele>121.0</ele><time>2026-04-19T09:46:52.99Z</time></trkpt><trkpt lat="45.345225" lon="8.6644667"><ele>121.0</ele><time>2026-04-19T09:46:53.99Z</time></trkpt><trkpt lat="45.3450567" lon="8.6643867"><ele>121.0</ele><time>2026-04-19T09:46:54.99Z</time></trkpt><trkpt lat="45.3448867" lon="8.6643033"><ele>121.0</ele><time>2026-04-19T09:46:55.989Z</time></trkpt><trkpt lat="45.3447283" lon="8.664225"><ele>121.0</ele><time>2026-04-19T09:46:56.989Z</time></trkpt><trkpt lat="45.3445617" lon="8.6641433"><ele>121.0</ele><time>2026-04-19T09:46:57.989Z</time></trkpt><trkpt lat="45.3444067" lon="8.6640583"><ele>120.66666666666667</ele><time>2026-04-19T09:46:58.99Z</time></trkpt><trkpt lat="45.3442483" lon="8.663985"><ele>120.33333333333334</ele><time>2026-04-19T09:46:59.99Z</time></trkpt><trkpt lat="45.344085" lon="8.6639117"><ele>120.0</ele><time>2026-04-19T09:47:00.989Z</time></trkpt><trkpt lat="45.343925" lon="8.6638483"><ele>119.66666666666666</ele><time>2026-04-19T09:47:01.99Z</time></trkpt><trkpt lat="45.3437667" lon="8.6637917"><ele>119.33333333333333</ele><time>2026-04-19T09:47:02.99Z</time></trkpt><trkpt lat="45.34361" lon="8.6637267"><ele>119.0</ele><time>2026-04-19T09:47:03.99Z</time></trkpt><trkpt lat="45.343465" lon="8.6636633"><ele>119.0</ele><time>2026-04-19T09:47:04.99Z</time></trkpt><trkpt lat="45.3433133" lon="8.6636017"><ele>119.0</ele><time>2026-04-19T09:47:05.99Z</time></trkpt><trkpt lat="45.3431567" lon="8.6635367"><ele>119.0</ele><time>2026-04-19T09:47:06.99Z</time></trkpt><trkpt lat="45.3429983" lon="8.6634667"><ele>119.0</ele><time>2026-04-19T09:47:07.99Z</time></trkpt><trkpt lat="45.3428317" lon="8.663395"><ele>119.0</ele><time>2026-04-19T09:47:08.989Z</time></trkpt><trkpt lat="45.342675" lon="8.6633417"><ele>119.0</ele><time>2026-04-19T09:47:09.989Z</time></trkpt><trkpt lat="45.3425167" lon="8.6632867"><ele>119.0</ele><time>2026-04-19T09:47:10.99Z</time></trkpt><trkpt lat="45.3423617" lon="8.6632267"><ele>119.0</ele><time>2026-04-19T09:47:11.989Z</time></trkpt><trkpt lat="45.3422067" lon="8.6631833"><ele>119.0</ele><time>2026-04-19T09:47:12.99Z</time></trkpt><trkpt lat="45.342065" lon="8.6631467"><ele>119.5</ele><time>2026-04-19T09:47:13.989Z</time></trkpt><trkpt lat="45.3419233" lon="8.663125"><ele>120.0</ele><time>2026-04-19T09:47:14.99Z</time></trkpt><trkpt lat="45.3417867" lon="8.6631017"><ele>120.5</ele><time>2026-04-19T09:47:15.99Z</time></trkpt><trkpt lat="45.3416383" lon="8.66307"><ele>121.0</ele><time>2026-04-19T09:47:16.989Z</time></trkpt><trkpt lat="45.3414867" lon="8.66304"><ele>120.33333333333334</ele><time>2026-04-19T09:47:17.99Z</time></trkpt><trkpt lat="45.341335" lon="8.6630117"><ele>119.66666666666666</ele><time>2026-04-19T09:47:18.989Z</time></trkpt><trkpt lat="45.341185" lon="8.6629733"><ele>119.0</ele><time>2026-04-19T09:47:19.989Z</time></trkpt><trkpt lat="45.341035" lon="8.6629517"><ele>119.0</ele><time>2026-04-19T09:47:20.99Z</time></trkpt><trkpt lat="45.3408917" lon="8.662925"><ele>119.0</ele><time>2026-04-19T09:47:21.99Z</time></trkpt><trkpt lat="45.3407583" lon="8.6629"><ele>119.0</ele><time>2026-04-19T09:47:22.989Z</time></trkpt><trkpt lat="45.3406317" lon="8.6628783"><ele>119.0</ele><time>2026-04-19T09:47:23.989Z</time></trkpt><trkpt lat="45.3405133" lon="8.6628517"><ele>119.0</ele><time>2026-04-19T09:47:24.989Z</time></trkpt><trkpt lat="45.34039" lon="8.662825"><ele>119.0</ele><time>2026-04-19T09:47:25.99Z</time></trkpt><trkpt lat="45.3402667" lon="8.6628"><ele>119.0</ele><time>2026-04-19T09:47:26.99Z</time></trkpt><trkpt lat="45.3401533" lon="8.662765"><ele>119.0</ele><time>2026-04-19T09:47:27.989Z</time></trkpt><trkpt lat="45.34004" lon="8.6627183"><ele>118.80000000000001</ele><time>2026-04-19T09:47:28.989Z</time></trkpt><trkpt lat="45.3399383" lon="8.6626967"><ele>118.60000000000001</ele><time>2026-04-19T09:47:29.99Z</time></trkpt><trkpt lat="45.3398467" lon="8.6626783"><ele>118.4</ele><time>2026-04-19T09:47:30.989Z</time></trkpt><trkpt lat="45.33978" lon="8.6626567"><ele>118.2</ele><time>2026-04-19T09:47:31.99Z</time></trkpt><trkpt lat="45.33968" lon="8.662585"><ele>118.0</ele><time>2026-04-19T09:47:33.99Z</time></trkpt><trkpt lat="45.339675" lon="8.6623917"><ele>118.0</ele><time>2026-04-19T09:47:35.99Z</time></trkpt><trkpt lat="45.3397083" lon="8.6622533"><ele>118.00000000000001</ele><time>2026-04-19T09:47:36.99Z</time></trkpt><trkpt lat="45.339745" lon="8.6621183"><ele>118.00000000000001</ele><time>2026-04-19T09:47:37.99Z</time></trkpt><trkpt lat="45.3397583" lon="8.662"><ele>118.0</ele><time>2026-04-19T09:47:38.989Z</time></trkpt><trkpt lat="45.3397683" lon="8.6619"><ele>118.0</ele><time>2026-04-19T09:47:39.99Z</time></trkpt><trkpt lat="45.3397" lon="8.661785"><ele>118.0</ele><time>2026-04-19T09:47:41.99Z</time></trkpt><trkpt lat="45.33962" lon="8.6617467"><ele>118.00000000000001</ele><time>2026-04-19T09:47:42.99Z</time></trkpt><trkpt lat="45.3395167" lon="8.6616967"><ele>118.00000000000001</ele><time>2026-04-19T09:47:43.989Z</time></trkpt><trkpt lat="45.339415" lon="8.6616483"><ele>118.0</ele><time>2026-04-19T09:47:44.989Z</time></trkpt><trkpt lat="45.339305" lon="8.6615967"><ele>118.0</ele><time>2026-04-19T09:47:45.99Z</time></trkpt><trkpt lat="45.3391933" lon="8.6615583"><ele>118.0</ele><time>2026-04-19T09:47:46.989Z</time></trkpt><trkpt lat="45.3390733" lon="8.6615233"><ele>118.0</ele><time>2026-04-19T09:47:47.99Z</time></trkpt><trkpt lat="45.3389367" lon="8.66149"><ele>118.0</ele><time>2026-04-19T09:47:48.99Z</time></trkpt><trkpt lat="45.3388033" lon="8.661455"><ele>118.0</ele><time>2026-04-19T09:47:49.99Z</time></trkpt><trkpt lat="45.33867" lon="8.6614217"><ele>118.0</ele><time>2026-04-19T09:47:50.989Z</time></trkpt><trkpt lat="45.3385467" lon="8.6613967"><ele>118.0</ele><time>2026-04-19T09:47:51.989Z</time></trkpt><trkpt lat="45.3384217" lon="8.6613717"><ele>118.0</ele><time>2026-04-19T09:47:52.99Z</time></trkpt><trkpt lat="45.3383017" lon="8.6613033"><ele>118.0</ele><time>2026-04-19T09:47:53.99Z</time></trkpt><trkpt lat="45.3381817" lon="8.6612383"><ele>118.0</ele><time>2026-04-19T09:47:54.989Z</time></trkpt><trkpt lat="45.3380633" lon="8.6611583"><ele>118.00000000000001</ele><time>2026-04-19T09:47:55.99Z</time></trkpt><trkpt lat="45.33796" lon="8.6610883"><ele>118.00000000000001</ele><time>2026-04-19T09:47:56.99Z</time></trkpt><trkpt lat="45.3378633" lon="8.66103"><ele>118.0</ele><time>2026-04-19T09:47:57.989Z</time></trkpt><trkpt lat="45.337775" lon="8.6609683"><ele>118.0</ele><time>2026-04-19T09:47:58.99Z</time></trkpt><trkpt lat="45.3377033" lon="8.660905"><ele>117.83333333333334</ele><time>2026-04-19T09:47:59.99Z</time></trkpt><trkpt lat="45.337635" lon="8.6608417"><ele>117.66666666666667</ele><time>2026-04-19T09:48:00.99Z</time></trkpt><trkpt lat="45.3376" lon="8.6607467"><ele>117.5</ele><time>2026-04-19T09:48:01.99Z</time></trkpt><trkpt lat="45.3375967" lon="8.66064"><ele>117.33333333333334</ele><time>2026-04-19T09:48:02.99Z</time></trkpt><trkpt lat="45.3376017" lon="8.6605017"><ele>117.16666666666667</ele><time>2026-04-19T09:48:03.989Z</time></trkpt><trkpt lat="45.3376083" lon="8.6603467"><ele>117.0</ele><time>2026-04-19T09:48:04.99Z</time></trkpt><trkpt lat="45.3376133" lon="8.66018"><ele>117.0</ele><time>2026-04-19T09:48:05.99Z</time></trkpt><trkpt lat="45.33761" lon="8.6600133"><ele>117.0</ele><time>2026-04-19T09:48:06.99Z</time></trkpt><trkpt lat="45.3376033" lon="8.65984"><ele>117.0</ele><time>2026-04-19T09:48:07.99Z</time></trkpt><trkpt lat="45.3375967" lon="8.6596667"><ele>117.0</ele><time>2026-04-19T09:48:08.99Z</time></trkpt><trkpt lat="45.3375983" lon="8.6595017"><ele>117.25</ele><time>2026-04-19T09:48:09.99Z</time></trkpt><trkpt lat="45.3376033" lon="8.6593417"><ele>117.5</ele><time>2026-04-19T09:48:10.989Z</time></trkpt><trkpt lat="45.3376067" lon="8.6591733"><ele>117.75</ele><time>2026-04-19T09:48:11.99Z</time></trkpt><trkpt lat="45.3376033" lon="8.6590033"><ele>118.0</ele><time>2026-04-19T09:48:12.99Z</time></trkpt><trkpt lat="45.3376067" lon="8.65883"><ele>118.0</ele><time>2026-04-19T09:48:13.989Z</time></trkpt><trkpt lat="45.3376083" lon="8.65865"><ele>118.0</ele><time>2026-04-19T09:48:14.989Z</time></trkpt><trkpt lat="45.3375983" lon="8.6584717"><ele>118.0</ele><time>2026-04-19T09:48:15.99Z</time></trkpt><trkpt lat="45.3375883" lon="8.6582933"><ele>118.0</ele><time>2026-04-19T09:48:16.989Z</time></trkpt><trkpt lat="45.3375833" lon="8.6581133"><ele>117.75</ele><time>2026-04-19T09:48:17.99Z</time></trkpt><trkpt lat="45.3375783" lon="8.6579183"><ele>117.5</ele><time>2026-04-19T09:48:18.99Z</time></trkpt><trkpt lat="45.3375667" lon="8.6577317"><ele>117.25</ele><time>2026-04-19T09:48:19.989Z</time></trkpt><trkpt lat="45.33756" lon="8.6575333"><ele>117.0</ele><time>2026-04-19T09:48:20.989Z</time></trkpt><trkpt lat="45.3375517" lon="8.6573433"><ele>117.0</ele><time>2026-04-19T09:48:21.99Z</time></trkpt><trkpt lat="45.3375467" lon="8.657155"><ele>117.0</ele><time>2026-04-19T09:48:22.99Z</time></trkpt><trkpt lat="45.3375367" lon="8.6569833"><ele>117.0</ele><time>2026-04-19T09:48:23.99Z</time></trkpt><trkpt lat="45.3375367" lon="8.6567917"><ele>117.0</ele><time>2026-04-19T09:48:24.99Z</time></trkpt><trkpt lat="45.3375333" lon="8.6565933"><ele>116.75</ele><time>2026-04-19T09:48:25.99Z</time></trkpt><trkpt lat="45.33753" lon="8.656405"><ele>116.5</ele><time>2026-04-19T09:48:26.99Z</time></trkpt><trkpt lat="45.337525" lon="8.65621"><ele>116.25</ele><time>2026-04-19T09:48:27.99Z</time></trkpt><trkpt lat="45.3375217" lon="8.6560183"><ele>116.0</ele><time>2026-04-19T09:48:28.99Z</time></trkpt><trkpt lat="45.33752" lon="8.65584"><ele>115.75</ele><time>2026-04-19T09:48:29.99Z</time></trkpt><trkpt lat="45.337515" lon="8.6556583"><ele>115.5</ele><time>2026-04-19T09:48:30.989Z</time></trkpt><trkpt lat="45.3375117" lon="8.6554767"><ele>115.25</ele><time>2026-04-19T09:48:31.99Z</time></trkpt><trkpt lat="45.33751" lon="8.655305"><ele>115.0</ele><time>2026-04-19T09:48:32.99Z</time></trkpt><trkpt lat="45.3375067" lon="8.6551317"><ele>115.75</ele><time>2026-04-19T09:48:33.99Z</time></trkpt><trkpt lat="45.337505" lon="8.6549517"><ele>116.5</ele><time>2026-04-19T09:48:34.989Z</time></trkpt><trkpt lat="45.337505" lon="8.65478"><ele>117.25</ele><time>2026-04-19T09:48:35.99Z</time></trkpt><trkpt lat="45.337505" lon="8.6546183"><ele>118.0</ele><time>2026-04-19T09:48:36.99Z</time></trkpt><trkpt lat="45.3374983" lon="8.6544617"><ele>117.80000000000001</ele><time>2026-04-19T09:48:37.99Z</time></trkpt><trkpt lat="45.3374983" lon="8.6543067"><ele>117.60000000000001</ele><time>2026-04-19T09:48:38.989Z</time></trkpt><trkpt lat="45.337495" lon="8.6541667"><ele>117.39999999999999</ele><time>2026-04-19T09:48:39.99Z</time></trkpt><trkpt lat="45.3374967" lon="8.65403"><ele>117.19999999999999</ele><time>2026-04-19T09:48:40.99Z</time></trkpt><trkpt lat="45.3374917" lon="8.6539017"><ele>117.0</ele><time>2026-04-19T09:48:41.99Z</time></trkpt><trkpt lat="45.3374883" lon="8.6537667"><ele>117.0</ele><time>2026-04-19T09:48:42.99Z</time></trkpt><trkpt lat="45.3374833" lon="8.6536483"><ele>117.0</ele><time>2026-04-19T09:48:43.989Z</time></trkpt><trkpt lat="45.337485" lon="8.65352"><ele>117.0</ele><time>2026-04-19T09:48:44.989Z</time></trkpt><trkpt lat="45.3374833" lon="8.6534017"><ele>117.0</ele><time>2026-04-19T09:48:45.989Z</time></trkpt><trkpt lat="45.337485" lon="8.653285"><ele>117.0</ele><time>2026-04-19T09:48:46.99Z</time></trkpt><trkpt lat="45.3374833" lon="8.6531717"><ele>117.0</ele><time>2026-04-19T09:48:47.989Z</time></trkpt><trkpt lat="45.3374783" lon="8.6530667"><ele>117.0</ele><time>2026-04-19T09:48:48.99Z</time></trkpt><trkpt lat="45.3374667" lon="8.65292"><ele>116.99999999999999</ele><time>2026-04-19T09:48:50.99Z</time></trkpt><trkpt lat="45.3374217" lon="8.6528133"><ele>116.99999999999999</ele><time>2026-04-19T09:48:52.99Z</time></trkpt><trkpt lat="45.3373033" lon="8.6527583"><ele>117.0</ele><time>2026-04-19T09:48:54.989Z</time></trkpt><trkpt lat="45.3372283" lon="8.6527533"><ele>117.0</ele><time>2026-04-19T09:48:55.99Z</time></trkpt><trkpt lat="45.3371383" lon="8.652745"><ele>117.19999999999999</ele><time>2026-04-19T09:48:56.99Z</time></trkpt><trkpt lat="45.3370433" lon="8.6527333"><ele>117.39999999999999</ele><time>2026-04-19T09:48:57.99Z</time></trkpt><trkpt lat="45.33694" lon="8.6527217"><ele>117.60000000000001</ele><time>2026-04-19T09:48:58.99Z</time></trkpt><trkpt lat="45.3368217" lon="8.6527"><ele>117.80000000000001</ele><time>2026-04-19T09:48:59.99Z</time></trkpt><trkpt lat="45.336695" lon="8.6526717"><ele>118.0</ele><time>2026-04-19T09:49:00.99Z</time></trkpt><trkpt lat="45.3365617" lon="8.6526467"><ele>118.0</ele><time>2026-04-19T09:49:01.99Z</time></trkpt><trkpt lat="45.3364217" lon="8.6526117"><ele>118.0</ele><time>2026-04-19T09:49:02.99Z</time></trkpt><trkpt lat="45.3362867" lon="8.652585"><ele>118.0</ele><time>2026-04-19T09:49:03.989Z</time></trkpt><trkpt lat="45.33615" lon="8.6525567"><ele>118.0</ele><time>2026-04-19T09:49:04.99Z</time></trkpt><trkpt lat="45.3360167" lon="8.6525383"><ele>118.0</ele><time>2026-04-19T09:49:05.989Z</time></trkpt><trkpt lat="45.335875" lon="8.65251"><ele>118.0</ele><time>2026-04-19T09:49:06.989Z</time></trkpt><trkpt lat="45.3357317" lon="8.6524833"><ele>118.0</ele><time>2026-04-19T09:49:07.99Z</time></trkpt><trkpt lat="45.3356033" lon="8.6524517"><ele>118.0</ele><time>2026-04-19T09:49:08.99Z</time></trkpt><trkpt lat="45.335475" lon="8.6524217"><ele>118.0</ele><time>2026-04-19T09:49:09.989Z</time></trkpt><trkpt lat="45.33535" lon="8.6523833"><ele>118.0</ele><time>2026-04-19T09:49:10.99Z</time></trkpt><trkpt lat="45.3352283" lon="8.6523383"><ele>118.0</ele><time>2026-04-19T09:49:11.989Z</time></trkpt><trkpt lat="45.3351117" lon="8.6523"><ele>118.0</ele><time>2026-04-19T09:49:12.989Z</time></trkpt><trkpt lat="45.335" lon="8.6522383"><ele>118.0</ele><time>2026-04-19T09:49:13.989Z</time></trkpt><trkpt lat="45.33489" lon="8.6521417"><ele>118.0</ele><time>2026-04-19T09:49:14.99Z</time></trkpt><trkpt lat="45.334795" lon="8.65202"><ele>118.0</ele><time>2026-04-19T09:49:15.99Z</time></trkpt><trkpt lat="45.3347067" lon="8.65189"><ele>118.0</ele><time>2026-04-19T09:49:16.989Z</time></trkpt><trkpt lat="45.334625" lon="8.6517533"><ele>119.5</ele><time>2026-04-19T09:49:17.989Z</time></trkpt><trkpt lat="45.3345567" lon="8.6516033"><ele>121.0</ele><time>2026-04-19T09:49:18.99Z</time></trkpt><trkpt lat="45.3344933" lon="8.6514417"><ele>122.5</ele><time>2026-04-19T09:49:19.99Z</time></trkpt><trkpt lat="45.3344417" lon="8.651275"><ele>124.0</ele><time>2026-04-19T09:49:20.99Z</time></trkpt><trkpt lat="45.3344133" lon="8.6510967"><ele>124.25</ele><time>2026-04-19T09:49:21.99Z</time></trkpt><trkpt lat="45.33441" lon="8.6508933"><ele>124.5</ele><time>2026-04-19T09:49:22.99Z</time></trkpt><trkpt lat="45.334405" lon="8.650685"><ele>124.75</ele><time>2026-04-19T09:49:23.989Z</time></trkpt><trkpt lat="45.3344067" lon="8.6504583"><ele>125.0</ele><time>2026-04-19T09:49:24.989Z</time></trkpt><trkpt lat="45.3344133" lon="8.6502217"><ele>125.33333333333333</ele><time>2026-04-19T09:49:25.99Z</time></trkpt><trkpt lat="45.3344217" lon="8.6499783"><ele>125.66666666666666</ele><time>2026-04-19T09:49:26.99Z</time></trkpt><trkpt lat="45.334425" lon="8.6497283"><ele>126.0</ele><time>2026-04-19T09:49:27.99Z</time></trkpt><trkpt lat="45.3344167" lon="8.6494867"><ele>126.0</ele><time>2026-04-19T09:49:28.99Z</time></trkpt><trkpt lat="45.334415" lon="8.6492433"><ele>126.0</ele><time>2026-04-19T09:49:29.99Z</time></trkpt><trkpt lat="45.3344083" lon="8.6490133"><ele>126.0</ele><time>2026-04-19T09:49:30.99Z</time></trkpt><trkpt lat="45.33441" lon="8.64877"><ele>126.0</ele><time>2026-04-19T09:49:31.989Z</time></trkpt><trkpt lat="45.3344083" lon="8.64852"><ele>126.0</ele><time>2026-04-19T09:49:32.99Z</time></trkpt><trkpt lat="45.3344" lon="8.6482567"><ele>126.0</ele><time>2026-04-19T09:49:33.989Z</time></trkpt><trkpt lat="45.3343917" lon="8.64798"><ele>126.0</ele><time>2026-04-19T09:49:34.99Z</time></trkpt><trkpt lat="45.3343783" lon="8.6477083"><ele>126.0</ele><time>2026-04-19T09:49:35.989Z</time></trkpt><trkpt lat="45.3343767" lon="8.6474267"><ele>126.0</ele><time>2026-04-19T09:49:36.99Z</time></trkpt><trkpt lat="45.3343683" lon="8.6471433"><ele>126.0</ele><time>2026-04-19T09:49:37.99Z</time></trkpt><trkpt lat="45.3343667" lon="8.6468767"><ele>126.0</ele><time>2026-04-19T09:49:38.989Z</time></trkpt><trkpt lat="45.3343667" lon="8.646605"><ele>126.0</ele><time>2026-04-19T09:49:39.989Z</time></trkpt><trkpt lat="45.33437" lon="8.6463467"><ele>125.66666666666666</ele><time>2026-04-19T09:49:40.989Z</time></trkpt><trkpt lat="45.33438" lon="8.6460783"><ele>125.33333333333333</ele><time>2026-04-19T09:49:41.989Z</time></trkpt><trkpt lat="45.3344167" lon="8.6458233"><ele>125.0</ele><time>2026-04-19T09:49:42.99Z</time></trkpt><trkpt lat="45.3344683" lon="8.6455467"><ele>125.0</ele><time>2026-04-19T09:49:43.99Z</time></trkpt><trkpt lat="45.3345517" lon="8.6452967"><ele>125.0</ele><time>2026-04-19T09:49:44.989Z</time></trkpt><trkpt lat="45.33462" lon="8.64505"><ele>125.0</ele><time>2026-04-19T09:49:45.989Z</time></trkpt><trkpt lat="45.334715" lon="8.6448117"><ele>123.0</ele><time>2026-04-19T09:49:46.99Z</time></trkpt><trkpt lat="45.3348067" lon="8.6445717"><ele>121.0</ele><time>2026-04-19T09:49:47.989Z</time></trkpt><trkpt lat="45.3348967" lon="8.6443317"><ele>119.0</ele><time>2026-04-19T09:49:48.99Z</time></trkpt><trkpt lat="45.3349833" lon="8.64409"><ele>118.66666666666666</ele><time>2026-04-19T09:49:49.989Z</time></trkpt><trkpt lat="45.3350717" lon="8.6438433"><ele>118.33333333333334</ele><time>2026-04-19T09:49:50.988Z</time></trkpt><trkpt lat="45.33517" lon="8.6436"><ele>118.0</ele><time>2026-04-19T09:49:51.989Z</time></trkpt><trkpt lat="45.3352517" lon="8.643365"><ele>117.66666666666667</ele><time>2026-04-19T09:49:52.988Z</time></trkpt><trkpt lat="45.3353533" lon="8.643135"><ele>117.33333333333334</ele><time>2026-04-19T09:49:53.989Z</time></trkpt><trkpt lat="45.3354717" lon="8.6429067"><ele>117.0</ele><time>2026-04-19T09:49:54.989Z</time></trkpt><trkpt lat="45.3355767" lon="8.64268"><ele>117.66666666666666</ele><time>2026-04-19T09:49:55.989Z</time></trkpt><trkpt lat="45.3356733" lon="8.6424317"><ele>118.33333333333333</ele><time>2026-04-19T09:49:56.989Z</time></trkpt><trkpt lat="45.3357633" lon="8.6421833"><ele>119.0</ele><time>2026-04-19T09:49:57.989Z</time></trkpt><trkpt lat="45.3358483" lon="8.6419383"><ele>119.0</ele><time>2026-04-19T09:49:58.988Z</time></trkpt><trkpt lat="45.3359283" lon="8.6416867"><ele>119.0</ele><time>2026-04-19T09:49:59.989Z</time></trkpt><trkpt lat="45.3360117" lon="8.6414433"><ele>119.0</ele><time>2026-04-19T09:50:00.989Z</time></trkpt><trkpt lat="45.3360933" lon="8.6411967"><ele>118.66666666666666</ele><time>2026-04-19T09:50:01.989Z</time></trkpt><trkpt lat="45.3361767" lon="8.64094"><ele>118.33333333333334</ele><time>2026-04-19T09:50:02.988Z</time></trkpt><trkpt lat="45.3362633" lon="8.6406867"><ele>118.0</ele><time>2026-04-19T09:50:03.989Z</time></trkpt><trkpt lat="45.3363433" lon="8.6404533"><ele>118.33333333333334</ele><time>2026-04-19T09:50:04.989Z</time></trkpt><trkpt lat="45.3364283" lon="8.6402083"><ele>118.66666666666666</ele><time>2026-04-19T09:50:05.989Z</time></trkpt><trkpt lat="45.3365133" lon="8.6399583"><ele>119.0</ele><time>2026-04-19T09:50:06.989Z</time></trkpt><trkpt lat="45.33659" lon="8.63972"><ele>119.0</ele><time>2026-04-19T09:50:07.988Z</time></trkpt><trkpt lat="45.3366683" lon="8.63948"><ele>119.0</ele><time>2026-04-19T09:50:08.989Z</time></trkpt><trkpt lat="45.3367517" lon="8.6392467"><ele>119.0</ele><time>2026-04-19T09:50:09.988Z</time></trkpt><trkpt lat="45.3368283" lon="8.639025"><ele>119.0</ele><time>2026-04-19T09:50:10.989Z</time></trkpt><trkpt lat="45.3369" lon="8.63882"><ele>119.0</ele><time>2026-04-19T09:50:11.988Z</time></trkpt><trkpt lat="45.33697" lon="8.6386367"><ele>119.0</ele><time>2026-04-19T09:50:12.989Z</time></trkpt><trkpt lat="45.33702" lon="8.6384767"><ele>119.0</ele><time>2026-04-19T09:50:13.988Z</time></trkpt><trkpt lat="45.3370717" lon="8.63833"><ele>118.80000000000001</ele><time>2026-04-19T09:50:14.989Z</time></trkpt><trkpt lat="45.337115" lon="8.6382117"><ele>118.60000000000001</ele><time>2026-04-19T09:50:15.989Z</time></trkpt><trkpt lat="45.33714" lon="8.6380967"><ele>118.4</ele><time>2026-04-19T09:50:16.988Z</time></trkpt><trkpt lat="45.33714" lon="8.6379733"><ele>118.2</ele><time>2026-04-19T09:50:17.989Z</time></trkpt><trkpt lat="45.3371167" lon="8.637825"><ele>118.0</ele><time>2026-04-19T09:50:18.989Z</time></trkpt><trkpt lat="45.3370567" lon="8.6376667"><ele>118.0</ele><time>2026-04-19T09:50:19.989Z</time></trkpt><trkpt lat="45.336975" lon="8.6375017"><ele>118.0</ele><time>2026-04-19T09:50:20.988Z</time></trkpt><trkpt lat="45.3368967" lon="8.6373267"><ele>118.0</ele><time>2026-04-19T09:50:21.988Z</time></trkpt><trkpt lat="45.3368167" lon="8.6371433"><ele>118.0</ele><time>2026-04-19T09:50:22.988Z</time></trkpt><trkpt lat="45.3367383" lon="8.6369567"><ele>118.0</ele><time>2026-04-19T09:50:23.989Z</time></trkpt><trkpt lat="45.3366567" lon="8.636765"><ele>118.0</ele><time>2026-04-19T09:50:24.989Z</time></trkpt><trkpt lat="45.3365717" lon="8.63656"><ele>118.0</ele><time>2026-04-19T09:50:25.989Z</time></trkpt><trkpt lat="45.3364867" lon="8.6363467"><ele>118.0</ele><time>2026-04-19T09:50:26.989Z</time></trkpt><trkpt lat="45.3364" lon="8.6361433"><ele>118.0</ele><time>2026-04-19T09:50:27.989Z</time></trkpt><trkpt lat="45.3363233" lon="8.6359433"><ele>118.0</ele><time>2026-04-19T09:50:28.989Z</time></trkpt><trkpt lat="45.336245" lon="8.6357467"><ele>118.33333333333334</ele><time>2026-04-19T09:50:29.989Z</time></trkpt><trkpt lat="45.3361517" lon="8.6355417"><ele>118.66666666666666</ele><time>2026-04-19T09:50:30.988Z</time></trkpt><trkpt lat="45.33606" lon="8.6353367"><ele>119.0</ele><time>2026-04-19T09:50:31.989Z</time></trkpt><trkpt lat="45.33596" lon="8.635125"><ele>119.0</ele><time>2026-04-19T09:50:32.989Z</time></trkpt><trkpt lat="45.3358683" lon="8.634915"><ele>119.0</ele><time>2026-04-19T09:50:33.989Z</time></trkpt><trkpt lat="45.3357783" lon="8.6347133"><ele>119.0</ele><time>2026-04-19T09:50:34.989Z</time></trkpt><trkpt lat="45.3357" lon="8.6345283"><ele>119.0</ele><time>2026-04-19T09:50:35.989Z</time></trkpt><trkpt lat="45.3355883" lon="8.6343617"><ele>119.0</ele><time>2026-04-19T09:50:36.989Z</time></trkpt><trkpt lat="45.3354567" lon="8.6342583"><ele>119.0</ele><time>2026-04-19T09:50:37.988Z</time></trkpt><trkpt lat="45.3353033" lon="8.6341817"><ele>119.33333333333333</ele><time>2026-04-19T09:50:38.988Z</time></trkpt><trkpt lat="45.3351517" lon="8.6341033"><ele>119.66666666666666</ele><time>2026-04-19T09:50:39.989Z</time></trkpt><trkpt lat="45.335" lon="8.6340283"><ele>120.0</ele><time>2026-04-19T09:50:40.988Z</time></trkpt><trkpt lat="45.334845" lon="8.6339517"><ele>119.66666666666666</ele><time>2026-04-19T09:50:41.989Z</time></trkpt><trkpt lat="45.334685" lon="8.6338717"><ele>119.33333333333333</ele><time>2026-04-19T09:50:42.988Z</time></trkpt><trkpt lat="45.3345283" lon="8.6337933"><ele>119.0</ele><time>2026-04-19T09:50:43.988Z</time></trkpt><trkpt lat="45.3343833" lon="8.6337033"><ele>119.0</ele><time>2026-04-19T09:50:44.988Z</time></trkpt><trkpt lat="45.334225" lon="8.6336267"><ele>119.0</ele><time>2026-04-19T09:50:45.989Z</time></trkpt><trkpt lat="45.334065" lon="8.6335383"><ele>119.0</ele><time>2026-04-19T09:50:46.988Z</time></trkpt><trkpt lat="45.333905" lon="8.63346"><ele>118.66666666666666</ele><time>2026-04-19T09:50:47.988Z</time></trkpt><trkpt lat="45.333745" lon="8.63338"><ele>118.33333333333334</ele><time>2026-04-19T09:50:48.989Z</time></trkpt><trkpt lat="45.3335883" lon="8.6333083"><ele>118.0</ele><time>2026-04-19T09:50:49.989Z</time></trkpt><trkpt lat="45.3334267" lon="8.633225"><ele>118.0</ele><time>2026-04-19T09:50:50.989Z</time></trkpt><trkpt lat="45.3332767" lon="8.63313"><ele>118.0</ele><time>2026-04-19T09:50:51.988Z</time></trkpt><trkpt lat="45.333125" lon="8.6330267"><ele>118.0</ele><time>2026-04-19T09:50:52.989Z</time></trkpt><trkpt lat="45.3329883" lon="8.6329033"><ele>118.0</ele><time>2026-04-19T09:50:53.988Z</time></trkpt><trkpt lat="45.332835" lon="8.632785"><ele>118.0</ele><time>2026-04-19T09:50:54.988Z</time></trkpt><trkpt lat="45.3326833" lon="8.632655"><ele>118.0</ele><time>2026-04-19T09:50:55.989Z</time></trkpt><trkpt lat="45.3325417" lon="8.6325383"><ele>118.0</ele><time>2026-04-19T09:50:56.988Z</time></trkpt><trkpt lat="45.3323933" lon="8.6324183"><ele>118.0</ele><time>2026-04-19T09:50:57.988Z</time></trkpt><trkpt lat="45.3322417" lon="8.6322933"><ele>118.0</ele><time>2026-04-19T09:50:58.989Z</time></trkpt><trkpt lat="45.3321" lon="8.6321817"><ele>117.75</ele><time>2026-04-19T09:50:59.989Z</time></trkpt><trkpt lat="45.3319717" lon="8.6320767"><ele>117.5</ele><time>2026-04-19T09:51:00.988Z</time></trkpt><trkpt lat="45.3318433" lon="8.6319817"><ele>117.25</ele><time>2026-04-19T09:51:01.988Z</time></trkpt><trkpt lat="45.3317267" lon="8.6318817"><ele>117.0</ele><time>2026-04-19T09:51:02.988Z</time></trkpt><trkpt lat="45.3316217" lon="8.6317833"><ele>117.5</ele><time>2026-04-19T09:51:03.989Z</time></trkpt><trkpt lat="45.3315017" lon="8.63168"><ele>118.0</ele><time>2026-04-19T09:51:04.988Z</time></trkpt><trkpt lat="45.331395" lon="8.6315917"><ele>118.5</ele><time>2026-04-19T09:51:05.989Z</time></trkpt><trkpt lat="45.33128" lon="8.63153"><ele>119.0</ele><time>2026-04-19T09:51:06.989Z</time></trkpt><trkpt lat="45.331165" lon="8.6314867"><ele>119.0</ele><time>2026-04-19T09:51:07.989Z</time></trkpt><trkpt lat="45.3310483" lon="8.6314617"><ele>119.0</ele><time>2026-04-19T09:51:08.989Z</time></trkpt><trkpt lat="45.3309267" lon="8.6314483"><ele>119.0</ele><time>2026-04-19T09:51:09.988Z</time></trkpt><trkpt lat="45.3307967" lon="8.63146"><ele>119.0</ele><time>2026-04-19T09:51:10.989Z</time></trkpt><trkpt lat="45.3306733" lon="8.6314633"><ele>118.75</ele><time>2026-04-19T09:51:11.989Z</time></trkpt><trkpt lat="45.3305467" lon="8.6314933"><ele>118.5</ele><time>2026-04-19T09:51:12.989Z</time></trkpt><trkpt lat="45.33041" lon="8.6315433"><ele>118.25</ele><time>2026-04-19T09:51:13.989Z</time></trkpt><trkpt lat="45.33028" lon="8.6315967"><ele>118.0</ele><time>2026-04-19T09:51:14.989Z</time></trkpt><trkpt lat="45.3301383" lon="8.631645"><ele>118.0</ele><time>2026-04-19T09:51:15.988Z</time></trkpt><trkpt lat="45.3299967" lon="8.6317067"><ele>118.0</ele><time>2026-04-19T09:51:16.989Z</time></trkpt><trkpt lat="45.3298483" lon="8.6317633"><ele>118.0</ele><time>2026-04-19T09:51:17.989Z</time></trkpt><trkpt lat="45.3296983" lon="8.631825"><ele>118.0</ele><time>2026-04-19T09:51:18.988Z</time></trkpt><trkpt lat="45.329545" lon="8.63189"><ele>118.0</ele><time>2026-04-19T09:51:19.989Z</time></trkpt><trkpt lat="45.3293917" lon="8.631945"><ele>118.0</ele><time>2026-04-19T09:51:20.988Z</time></trkpt><trkpt lat="45.3292417" lon="8.6320017"><ele>117.66666666666667</ele><time>2026-04-19T09:51:21.988Z</time></trkpt><trkpt lat="45.3290917" lon="8.6320617"><ele>117.33333333333334</ele><time>2026-04-19T09:51:22.988Z</time></trkpt><trkpt lat="45.32894" lon="8.6321233"><ele>117.0</ele><time>2026-04-19T09:51:23.989Z</time></trkpt><trkpt lat="45.3287883" lon="8.632195"><ele>117.0</ele><time>2026-04-19T09:51:24.989Z</time></trkpt><trkpt lat="45.328635" lon="8.6322533"><ele>117.0</ele><time>2026-04-19T09:51:25.988Z</time></trkpt><trkpt lat="45.32848" lon="8.6323233"><ele>117.0</ele><time>2026-04-19T09:51:26.988Z</time></trkpt><trkpt lat="45.3283283" lon="8.6323933"><ele>117.0</ele><time>2026-04-19T09:51:27.988Z</time></trkpt><trkpt lat="45.32818" lon="8.6324583"><ele>117.0</ele><time>2026-04-19T09:51:28.988Z</time></trkpt><trkpt lat="45.3280317" lon="8.6325183"><ele>117.0</ele><time>2026-04-19T09:51:29.988Z</time></trkpt><trkpt lat="45.327885" lon="8.6325717"><ele>117.0</ele><time>2026-04-19T09:51:30.989Z</time></trkpt><trkpt lat="45.327735" lon="8.6326217"><ele>117.0</ele><time>2026-04-19T09:51:31.989Z</time></trkpt><trkpt lat="45.327585" lon="8.632685"><ele>117.0</ele><time>2026-04-19T09:51:32.988Z</time></trkpt><trkpt lat="45.327435" lon="8.6327417"><ele>117.0</ele><time>2026-04-19T09:51:33.988Z</time></trkpt><trkpt lat="45.32729" lon="8.6327967"><ele>117.0</ele><time>2026-04-19T09:51:34.989Z</time></trkpt><trkpt lat="45.32716" lon="8.6328383"><ele>117.0</ele><time>2026-04-19T09:51:35.989Z</time></trkpt><trkpt lat="45.327045" lon="8.6328917"><ele>117.0</ele><time>2026-04-19T09:51:36.988Z</time></trkpt><trkpt lat="45.326915" lon="8.6329433"><ele>117.0</ele><time>2026-04-19T09:51:37.988Z</time></trkpt><trkpt lat="45.3267883" lon="8.6330017"><ele>117.0</ele><time>2026-04-19T09:51:38.988Z</time></trkpt><trkpt lat="45.3266733" lon="8.633045"><ele>117.0</ele><time>2026-04-19T09:51:39.988Z</time></trkpt><trkpt lat="45.3265667" lon="8.6330967"><ele>117.0</ele><time>2026-04-19T09:51:40.989Z</time></trkpt><trkpt lat="45.3264683" lon="8.6331433"><ele>117.16666666666667</ele><time>2026-04-19T09:51:41.989Z</time></trkpt><trkpt lat="45.3263833" lon="8.63318"><ele>117.33333333333334</ele><time>2026-04-19T09:51:42.989Z</time></trkpt><trkpt lat="45.32631" lon="8.6332"><ele>117.5</ele><time>2026-04-19T09:51:43.988Z</time></trkpt><trkpt lat="45.3262433" lon="8.6332117"><ele>117.66666666666667</ele><time>2026-04-19T09:51:44.988Z</time></trkpt><trkpt lat="45.3261717" lon="8.6332367"><ele>117.83333333333334</ele><time>2026-04-19T09:51:45.988Z</time></trkpt><trkpt lat="45.3261" lon="8.6332683"><ele>118.0</ele><time>2026-04-19T09:51:46.989Z</time></trkpt><trkpt lat="45.3259833" lon="8.6332483"><ele>118.0</ele><time>2026-04-19T09:51:48.989Z</time></trkpt><trkpt lat="45.3259333" lon="8.633185"><ele>118.00000000000001</ele><time>2026-04-19T09:51:49.989Z</time></trkpt><trkpt lat="45.3258967" lon="8.6330817"><ele>118.00000000000001</ele><time>2026-04-19T09:51:50.989Z</time></trkpt><trkpt lat="45.3258983" lon="8.6329417"><ele>118.0</ele><time>2026-04-19T09:51:51.989Z</time></trkpt><trkpt lat="45.3259117" lon="8.6327867"><ele>118.0</ele><time>2026-04-19T09:51:52.988Z</time></trkpt><trkpt lat="45.3259467" lon="8.63264"><ele>118.2</ele><time>2026-04-19T09:51:53.989Z</time></trkpt><trkpt lat="45.325975" lon="8.632505"><ele>118.4</ele><time>2026-04-19T09:51:54.989Z</time></trkpt><trkpt lat="45.32598" lon="8.6323933"><ele>118.60000000000001</ele><time>2026-04-19T09:51:55.989Z</time></trkpt><trkpt lat="45.3259617" lon="8.63229"><ele>118.80000000000001</ele><time>2026-04-19T09:51:56.989Z</time></trkpt><trkpt lat="45.3259" lon="8.6321467"><ele>119.0</ele><time>2026-04-19T09:51:58.989Z</time></trkpt><trkpt lat="45.3257867" lon="8.6321267"><ele>119.0</ele><time>2026-04-19T09:52:00.988Z</time></trkpt><trkpt lat="45.3256983" lon="8.632135"><ele>119.0</ele><time>2026-04-19T09:52:01.989Z</time></trkpt><trkpt lat="45.3255917" lon="8.632135"><ele>119.0</ele><time>2026-04-19T09:52:02.988Z</time></trkpt><trkpt lat="45.325495" lon="8.6321467"><ele>119.0</ele><time>2026-04-19T09:52:03.988Z</time></trkpt><trkpt lat="45.325395" lon="8.63213"><ele>119.0</ele><time>2026-04-19T09:52:04.988Z</time></trkpt><trkpt lat="45.32529" lon="8.632095"><ele>119.0</ele><time>2026-04-19T09:52:05.989Z</time></trkpt><trkpt lat="45.32519" lon="8.6320517"><ele>119.0</ele><time>2026-04-19T09:52:06.988Z</time></trkpt><trkpt lat="45.325085" lon="8.6319917"><ele>119.0</ele><time>2026-04-19T09:52:07.989Z</time></trkpt><trkpt lat="45.3249683" lon="8.6319533"><ele>119.0</ele><time>2026-04-19T09:52:08.989Z</time></trkpt><trkpt lat="45.3248533" lon="8.631945"><ele>118.99999999999999</ele><time>2026-04-19T09:52:09.989Z</time></trkpt><trkpt lat="45.3247567" lon="8.631965"><ele>119.0</ele><time>2026-04-19T09:52:10.988Z</time></trkpt><trkpt lat="45.324665" lon="8.6320033"><ele>119.0</ele><time>2026-04-19T09:52:11.988Z</time></trkpt><trkpt lat="45.3245767" lon="8.63204"><ele>119.0</ele><time>2026-04-19T09:52:12.988Z</time></trkpt><trkpt lat="45.3245" lon="8.63207"><ele>118.99999999999999</ele><time>2026-04-19T09:52:13.988Z</time></trkpt><trkpt lat="45.3244317" lon="8.6320817"><ele>119.0</ele><time>2026-04-19T09:52:14.989Z</time></trkpt><trkpt lat="45.3243317" lon="8.6320083"><ele>118.6</ele><time>2026-04-19T09:52:16.989Z</time></trkpt><trkpt lat="45.324275" lon="8.63196"><ele>118.2</ele><time>2026-04-19T09:52:17.988Z</time></trkpt><trkpt lat="45.32419" lon="8.6319533"><ele>117.79999999999998</ele><time>2026-04-19T09:52:18.989Z</time></trkpt><trkpt lat="45.32409" lon="8.631955"><ele>117.39999999999999</ele><time>2026-04-19T09:52:19.988Z</time></trkpt><trkpt lat="45.3239783" lon="8.6319483"><ele>117.0</ele><time>2026-04-19T09:52:20.988Z</time></trkpt><trkpt lat="45.3238433" lon="8.63196"><ele>117.0</ele><time>2026-04-19T09:52:21.988Z</time></trkpt><trkpt lat="45.3237" lon="8.6319633"><ele>117.0</ele><time>2026-04-19T09:52:22.989Z</time></trkpt><trkpt lat="45.3235533" lon="8.6319567"><ele>117.0</ele><time>2026-04-19T09:52:23.989Z</time></trkpt><trkpt lat="45.3234" lon="8.6319583"><ele>117.0</ele><time>2026-04-19T09:52:24.988Z</time></trkpt><trkpt lat="45.3232517" lon="8.6319417"><ele>117.0</ele><time>2026-04-19T09:52:25.988Z</time></trkpt><trkpt lat="45.3231033" lon="8.631965"><ele>117.0</ele><time>2026-04-19T09:52:26.988Z</time></trkpt><trkpt lat="45.322965" lon="8.6320033"><ele>117.0</ele><time>2026-04-19T09:52:27.989Z</time></trkpt><trkpt lat="45.3228167" lon="8.6320533"><ele>117.0</ele><time>2026-04-19T09:52:28.989Z</time></trkpt><trkpt lat="45.32267" lon="8.6321133"><ele>117.0</ele><time>2026-04-19T09:52:29.988Z</time></trkpt><trkpt lat="45.3225067" lon="8.6321867"><ele>117.0</ele><time>2026-04-19T09:52:30.988Z</time></trkpt><trkpt lat="45.3223417" lon="8.6322617"><ele>117.0</ele><time>2026-04-19T09:52:31.989Z</time></trkpt><trkpt lat="45.3221783" lon="8.63233"><ele>117.0</ele><time>2026-04-19T09:52:32.989Z</time></trkpt><trkpt lat="45.3220083" lon="8.6324117"><ele>117.0</ele><time>2026-04-19T09:52:33.989Z</time></trkpt><trkpt lat="45.3218367" lon="8.6324867"><ele>117.0</ele><time>2026-04-19T09:52:34.989Z</time></trkpt><trkpt lat="45.3216733" lon="8.63257"><ele>117.0</ele><time>2026-04-19T09:52:35.989Z</time></trkpt><trkpt lat="45.3215067" lon="8.6326417"><ele>117.0</ele><time>2026-04-19T09:52:36.989Z</time></trkpt><trkpt lat="45.321335" lon="8.6327083"><ele>117.0</ele><time>2026-04-19T09:52:37.988Z</time></trkpt><trkpt lat="45.32116" lon="8.6327933"><ele>117.33333333333334</ele><time>2026-04-19T09:52:38.989Z</time></trkpt><trkpt lat="45.320985" lon="8.63287"><ele>117.66666666666667</ele><time>2026-04-19T09:52:39.988Z</time></trkpt><trkpt lat="45.3208133" lon="8.6329433"><ele>118.0</ele><time>2026-04-19T09:52:40.989Z</time></trkpt><trkpt lat="45.3206367" lon="8.63302"><ele>118.0</ele><time>2026-04-19T09:52:41.988Z</time></trkpt><trkpt lat="45.3204667" lon="8.6330783"><ele>118.0</ele><time>2026-04-19T09:52:42.989Z</time></trkpt><trkpt lat="45.3203083" lon="8.6331567"><ele>118.0</ele><time>2026-04-19T09:52:43.989Z</time></trkpt><trkpt lat="45.3201383" lon="8.6332433"><ele>118.0</ele><time>2026-04-19T09:52:44.989Z</time></trkpt><trkpt lat="45.3199767" lon="8.6333217"><ele>118.0</ele><time>2026-04-19T09:52:45.989Z</time></trkpt><trkpt lat="45.3198067" lon="8.6333917"><ele>118.0</ele><time>2026-04-19T09:52:46.989Z</time></trkpt><trkpt lat="45.3196333" lon="8.63347"><ele>118.0</ele><time>2026-04-19T09:52:47.988Z</time></trkpt><trkpt lat="45.3194667" lon="8.6335517"><ele>118.0</ele><time>2026-04-19T09:52:48.988Z</time></trkpt><trkpt lat="45.3192933" lon="8.633625"><ele>118.0</ele><time>2026-04-19T09:52:49.989Z</time></trkpt><trkpt lat="45.3191217" lon="8.6336967"><ele>118.0</ele><time>2026-04-19T09:52:50.988Z</time></trkpt><trkpt lat="45.3189517" lon="8.63378"><ele>118.0</ele><time>2026-04-19T09:52:51.988Z</time></trkpt><trkpt lat="45.3187867" lon="8.633845"><ele>118.0</ele><time>2026-04-19T09:52:52.988Z</time></trkpt><trkpt lat="45.31863" lon="8.6339067"><ele>117.66666666666667</ele><time>2026-04-19T09:52:53.989Z</time></trkpt><trkpt lat="45.3184817" lon="8.63397"><ele>117.33333333333334</ele><time>2026-04-19T09:52:54.988Z</time></trkpt><trkpt lat="45.318335" lon="8.6340267"><ele>117.0</ele><time>2026-04-19T09:52:55.988Z</time></trkpt><trkpt lat="45.31819" lon="8.6340867"><ele>117.0</ele><time>2026-04-19T09:52:56.989Z</time></trkpt><trkpt lat="45.3180517" lon="8.6341383"><ele>117.0</ele><time>2026-04-19T09:52:57.989Z</time></trkpt><trkpt lat="45.31792" lon="8.634175"><ele>117.0</ele><time>2026-04-19T09:52:58.989Z</time></trkpt><trkpt lat="45.3177833" lon="8.6342383"><ele>117.0</ele><time>2026-04-19T09:52:59.989Z</time></trkpt><trkpt lat="45.317655" lon="8.6342917"><ele>117.0</ele><time>2026-04-19T09:53:00.988Z</time></trkpt><trkpt lat="45.317525" lon="8.6343333"><ele>117.0</ele><time>2026-04-19T09:53:01.989Z</time></trkpt><trkpt lat="45.31739" lon="8.6343467"><ele>117.0</ele><time>2026-04-19T09:53:02.988Z</time></trkpt><trkpt lat="45.3172467" lon="8.634345"><ele>117.0</ele><time>2026-04-19T09:53:03.989Z</time></trkpt><trkpt lat="45.31709" lon="8.6343367"><ele>116.66666666666666</ele><time>2026-04-19T09:53:04.989Z</time></trkpt><trkpt lat="45.3169283" lon="8.6343167"><ele>116.33333333333333</ele><time>2026-04-19T09:53:05.989Z</time></trkpt><trkpt lat="45.3167333" lon="8.6342967"><ele>116.0</ele><time>2026-04-19T09:53:06.988Z</time></trkpt><trkpt lat="45.3165317" lon="8.63429"><ele>116.33333333333333</ele><time>2026-04-19T09:53:07.988Z</time></trkpt><trkpt lat="45.31634" lon="8.6342817"><ele>116.66666666666666</ele><time>2026-04-19T09:53:08.989Z</time></trkpt><trkpt lat="45.3161717" lon="8.634265"><ele>117.0</ele><time>2026-04-19T09:53:09.988Z</time></trkpt><trkpt lat="45.3160133" lon="8.6342433"><ele>117.0</ele><time>2026-04-19T09:53:10.989Z</time></trkpt><trkpt lat="45.3158667" lon="8.6342083"><ele>117.0</ele><time>2026-04-19T09:53:11.989Z</time></trkpt><trkpt lat="45.3157183" lon="8.6341817"><ele>117.0</ele><time>2026-04-19T09:53:12.989Z</time></trkpt><trkpt lat="45.31557" lon="8.6341617"><ele>117.0</ele><time>2026-04-19T09:53:13.989Z</time></trkpt><trkpt lat="45.31543" lon="8.634155"><ele>116.75</ele><time>2026-04-19T09:53:14.989Z</time></trkpt><trkpt lat="45.3152833" lon="8.6341667"><ele>116.5</ele><time>2026-04-19T09:53:15.988Z</time></trkpt><trkpt lat="45.3151383" lon="8.6341833"><ele>116.25</ele><time>2026-04-19T09:53:16.989Z</time></trkpt><trkpt lat="45.314995" lon="8.6342033"><ele>116.0</ele><time>2026-04-19T09:53:17.988Z</time></trkpt><trkpt lat="45.31485" lon="8.634225"><ele>116.5</ele><time>2026-04-19T09:53:18.989Z</time></trkpt><trkpt lat="45.31471" lon="8.63427"><ele>117.0</ele><time>2026-04-19T09:53:19.989Z</time></trkpt><trkpt lat="45.3145883" lon="8.6343"><ele>117.5</ele><time>2026-04-19T09:53:20.989Z</time></trkpt><trkpt lat="45.3144783" lon="8.6343017"><ele>118.0</ele><time>2026-04-19T09:53:21.989Z</time></trkpt><trkpt lat="45.3143783" lon="8.6342917"><ele>118.0</ele><time>2026-04-19T09:53:22.989Z</time></trkpt><trkpt lat="45.3142683" lon="8.6342667"><ele>118.00000000000001</ele><time>2026-04-19T09:53:23.989Z</time></trkpt><trkpt lat="45.3141567" lon="8.6342633"><ele>118.00000000000001</ele><time>2026-04-19T09:53:24.988Z</time></trkpt><trkpt lat="45.3140517" lon="8.634265"><ele>118.0</ele><time>2026-04-19T09:53:25.989Z</time></trkpt><trkpt lat="45.3139583" lon="8.6342633"><ele>118.0</ele><time>2026-04-19T09:53:26.989Z</time></trkpt><trkpt lat="45.313875" lon="8.6342133"><ele>117.80000000000001</ele><time>2026-04-19T09:53:27.988Z</time></trkpt><trkpt lat="45.3138033" lon="8.6341567"><ele>117.60000000000001</ele><time>2026-04-19T09:53:28.988Z</time></trkpt><trkpt lat="45.313755" lon="8.6340733"><ele>117.39999999999999</ele><time>2026-04-19T09:53:29.989Z</time></trkpt><trkpt lat="45.3137067" lon="8.6339433"><ele>117.19999999999999</ele><time>2026-04-19T09:53:30.988Z</time></trkpt><trkpt lat="45.3136983" lon="8.633765"><ele>117.0</ele><time>2026-04-19T09:53:31.989Z</time></trkpt><trkpt lat="45.313715" lon="8.6335867"><ele>117.0</ele><time>2026-04-19T09:53:32.989Z</time></trkpt><trkpt lat="45.3137433" lon="8.6334033"><ele>117.0</ele><time>2026-04-19T09:53:33.989Z</time></trkpt><trkpt lat="45.3137683" lon="8.6332183"><ele>117.0</ele><time>2026-04-19T09:53:34.989Z</time></trkpt><trkpt lat="45.313785" lon="8.63303"><ele>117.0</ele><time>2026-04-19T09:53:35.988Z</time></trkpt><trkpt lat="45.31378" lon="8.6328383"><ele>116.8</ele><time>2026-04-19T09:53:36.989Z</time></trkpt><trkpt lat="45.3137733" lon="8.632645"><ele>116.6</ele><time>2026-04-19T09:53:37.989Z</time></trkpt><trkpt lat="45.3137567" lon="8.6324833"><ele>116.39999999999999</ele><time>2026-04-19T09:53:38.989Z</time></trkpt><trkpt lat="45.3137517" lon="8.6323467"><ele>116.19999999999999</ele><time>2026-04-19T09:53:39.988Z</time></trkpt><trkpt lat="45.3137267" lon="8.632245"><ele>116.0</ele><time>2026-04-19T09:53:40.989Z</time></trkpt><trkpt lat="45.3136917" lon="8.6321467"><ele>116.0</ele><time>2026-04-19T09:53:41.988Z</time></trkpt><trkpt lat="45.313595" lon="8.63207"><ele>116.0</ele><time>2026-04-19T09:53:43.987Z</time></trkpt><trkpt lat="45.3135233" lon="8.6320817"><ele>116.0</ele><time>2026-04-19T09:53:44.987Z</time></trkpt><trkpt lat="45.313435" lon="8.6320833"><ele>116.0</ele><time>2026-04-19T09:53:45.987Z</time></trkpt><trkpt lat="45.3133433" lon="8.6320767"><ele>116.0</ele><time>2026-04-19T09:53:46.988Z</time></trkpt><trkpt lat="45.3132383" lon="8.6320667"><ele>116.0</ele><time>2026-04-19T09:53:47.988Z</time></trkpt><trkpt lat="45.313135" lon="8.63205"><ele>116.0</ele><time>2026-04-19T09:53:48.988Z</time></trkpt><trkpt lat="45.3130183" lon="8.632035"><ele>116.0</ele><time>2026-04-19T09:53:49.987Z</time></trkpt><trkpt lat="45.3128883" lon="8.63203"><ele>116.0</ele><time>2026-04-19T09:53:50.987Z</time></trkpt><trkpt lat="45.31277" lon="8.6320167"><ele>116.0</ele><time>2026-04-19T09:53:51.987Z</time></trkpt><trkpt lat="45.3126667" lon="8.6319967"><ele>116.0</ele><time>2026-04-19T09:53:52.988Z</time></trkpt><trkpt lat="45.3125633" lon="8.63198"><ele>116.0</ele><time>2026-04-19T09:53:53.988Z</time></trkpt><trkpt lat="45.3124583" lon="8.6319683"><ele>116.0</ele><time>2026-04-19T09:53:54.988Z</time></trkpt><trkpt lat="45.3123417" lon="8.6319467"><ele>116.0</ele><time>2026-04-19T09:53:55.988Z</time></trkpt><trkpt lat="45.31221" lon="8.6319217"><ele>116.33333333333333</ele><time>2026-04-19T09:53:56.987Z</time></trkpt><trkpt lat="45.312065" lon="8.6319033"><ele>116.66666666666666</ele><time>2026-04-19T09:53:57.988Z</time></trkpt><trkpt lat="45.3119117" lon="8.6318767"><ele>117.0</ele><time>2026-04-19T09:53:58.988Z</time></trkpt><trkpt lat="45.3117483" lon="8.63185"><ele>117.0</ele><time>2026-04-19T09:53:59.987Z</time></trkpt><trkpt lat="45.31158" lon="8.6318217"><ele>117.0</ele><time>2026-04-19T09:54:00.988Z</time></trkpt><trkpt lat="45.3114183" lon="8.6317917"><ele>117.0</ele><time>2026-04-19T09:54:01.987Z</time></trkpt><trkpt lat="45.3112583" lon="8.6317717"><ele>116.5</ele><time>2026-04-19T09:54:02.987Z</time></trkpt><trkpt lat="45.311105" lon="8.6317433"><ele>116.0</ele><time>2026-04-19T09:54:03.987Z</time></trkpt><trkpt lat="45.310975" lon="8.63173"><ele>115.5</ele><time>2026-04-19T09:54:04.987Z</time></trkpt><trkpt lat="45.3108617" lon="8.631715"><ele>115.0</ele><time>2026-04-19T09:54:05.987Z</time></trkpt><trkpt lat="45.3107517" lon="8.63173"><ele>115.0</ele><time>2026-04-19T09:54:06.987Z</time></trkpt><trkpt lat="45.3106533" lon="8.631775"><ele>115.0</ele><time>2026-04-19T09:54:07.988Z</time></trkpt><trkpt lat="45.310535" lon="8.6318567"><ele>115.0</ele><time>2026-04-19T09:54:08.988Z</time></trkpt><trkpt lat="45.3104083" lon="8.6319483"><ele>115.0</ele><time>2026-04-19T09:54:09.988Z</time></trkpt><trkpt lat="45.31027" lon="8.632035"><ele>115.33333333333334</ele><time>2026-04-19T09:54:10.988Z</time></trkpt><trkpt lat="45.3101333" lon="8.6321167"><ele>115.66666666666666</ele><time>2026-04-19T09:54:11.988Z</time></trkpt><trkpt lat="45.309995" lon="8.6322"><ele>116.0</ele><time>2026-04-19T09:54:12.988Z</time></trkpt><trkpt lat="45.309845" lon="8.6322833"><ele>116.33333333333333</ele><time>2026-04-19T09:54:13.988Z</time></trkpt><trkpt lat="45.3096967" lon="8.6323883"><ele>116.66666666666666</ele><time>2026-04-19T09:54:14.988Z</time></trkpt><trkpt lat="45.3095467" lon="8.6324883"><ele>117.0</ele><time>2026-04-19T09:54:15.988Z</time></trkpt><trkpt lat="45.3093983" lon="8.6325767"><ele>117.0</ele><time>2026-04-19T09:54:16.987Z</time></trkpt><trkpt lat="45.309245" lon="8.6326583"><ele>117.0</ele><time>2026-04-19T09:54:17.987Z</time></trkpt><trkpt lat="45.3090867" lon="8.63274"><ele>117.0</ele><time>2026-04-19T09:54:18.987Z</time></trkpt><trkpt lat="45.308935" lon="8.6328083"><ele>117.0</ele><time>2026-04-19T09:54:19.988Z</time></trkpt><trkpt lat="45.30878" lon="8.6328883"><ele>117.0</ele><time>2026-04-19T09:54:20.988Z</time></trkpt><trkpt lat="45.30862" lon="8.63298"><ele>117.0</ele><time>2026-04-19T09:54:21.988Z</time></trkpt><trkpt lat="45.308465" lon="8.6330633"><ele>117.0</ele><time>2026-04-19T09:54:22.988Z</time></trkpt><trkpt lat="45.3083167" lon="8.6331383"><ele>117.0</ele><time>2026-04-19T09:54:23.988Z</time></trkpt><trkpt lat="45.308165" lon="8.6332233"><ele>117.0</ele><time>2026-04-19T09:54:24.988Z</time></trkpt><trkpt lat="45.3080133" lon="8.6333"><ele>117.66666666666666</ele><time>2026-04-19T09:54:25.987Z</time></trkpt><trkpt lat="45.3078683" lon="8.63339"><ele>118.33333333333333</ele><time>2026-04-19T09:54:26.987Z</time></trkpt><trkpt lat="45.30773" lon="8.6334833"><ele>119.0</ele><time>2026-04-19T09:54:27.988Z</time></trkpt><trkpt lat="45.3076" lon="8.633565"><ele>119.0</ele><time>2026-04-19T09:54:28.988Z</time></trkpt><trkpt lat="45.307485" lon="8.6336383"><ele>119.0</ele><time>2026-04-19T09:54:29.988Z</time></trkpt><trkpt lat="45.307375" lon="8.6337217"><ele>119.0</ele><time>2026-04-19T09:54:30.988Z</time></trkpt><trkpt lat="45.3072667" lon="8.6338083"><ele>119.0</ele><time>2026-04-19T09:54:31.988Z</time></trkpt><trkpt lat="45.3071583" lon="8.6338967"><ele>119.0</ele><time>2026-04-19T09:54:32.987Z</time></trkpt><trkpt lat="45.3070483" lon="8.6339733"><ele>119.0</ele><time>2026-04-19T09:54:33.987Z</time></trkpt><trkpt lat="45.3069417" lon="8.6340533"><ele>119.0</ele><time>2026-04-19T09:54:34.988Z</time></trkpt><trkpt lat="45.3068517" lon="8.63413"><ele>119.0</ele><time>2026-04-19T09:54:35.987Z</time></trkpt><trkpt lat="45.3067683" lon="8.6342017"><ele>119.0</ele><time>2026-04-19T09:54:36.988Z</time></trkpt><trkpt lat="45.3067" lon="8.6342567"><ele>119.0</ele><time>2026-04-19T09:54:37.987Z</time></trkpt><trkpt lat="45.30664" lon="8.634285"><ele>119.0</ele><time>2026-04-19T09:54:38.988Z</time></trkpt><trkpt lat="45.3065367" lon="8.6342883"><ele>119.0</ele><time>2026-04-19T09:54:40.988Z</time></trkpt><trkpt lat="45.3064667" lon="8.6341167"><ele>119.0</ele><time>2026-04-19T09:54:42.988Z</time></trkpt><trkpt lat="45.3064283" lon="8.633975"><ele>119.0</ele><time>2026-04-19T09:54:43.987Z</time></trkpt><trkpt lat="45.3063767" lon="8.63379"><ele>118.33333333333333</ele><time>2026-04-19T09:54:44.988Z</time></trkpt><trkpt lat="45.3063117" lon="8.633585"><ele>117.66666666666666</ele><time>2026-04-19T09:54:45.988Z</time></trkpt><trkpt lat="45.306235" lon="8.6333667"><ele>117.0</ele><time>2026-04-19T09:54:46.988Z</time></trkpt><trkpt lat="45.3061367" lon="8.6331317"><ele>117.0</ele><time>2026-04-19T09:54:47.988Z</time></trkpt><trkpt lat="45.3060417" lon="8.632905"><ele>117.0</ele><time>2026-04-19T09:54:48.987Z</time></trkpt><trkpt lat="45.3059383" lon="8.632655"><ele>117.0</ele><time>2026-04-19T09:54:49.988Z</time></trkpt><trkpt lat="45.3058283" lon="8.632395"><ele>117.0</ele><time>2026-04-19T09:54:50.987Z</time></trkpt><trkpt lat="45.30572" lon="8.6321517"><ele>117.0</ele><time>2026-04-19T09:54:51.988Z</time></trkpt><trkpt lat="45.3056167" lon="8.6319183"><ele>117.0</ele><time>2026-04-19T09:54:52.987Z</time></trkpt><trkpt lat="45.3055067" lon="8.6317133"><ele>116.5</ele><time>2026-04-19T09:54:53.988Z</time></trkpt><trkpt lat="45.305415" lon="8.6315267"><ele>116.0</ele><time>2026-04-19T09:54:54.987Z</time></trkpt><trkpt lat="45.3053333" lon="8.63136"><ele>115.5</ele><time>2026-04-19T09:54:55.987Z</time></trkpt><trkpt lat="45.3052533" lon="8.6312067"><ele>115.0</ele><time>2026-04-19T09:54:56.988Z</time></trkpt><trkpt lat="45.3051683" lon="8.6310683"><ele>115.0</ele><time>2026-04-19T09:54:57.988Z</time></trkpt><trkpt lat="45.3050917" lon="8.63093"><ele>115.0</ele><time>2026-04-19T09:54:58.988Z</time></trkpt><trkpt lat="45.3050217" lon="8.6308017"><ele>115.0</ele><time>2026-04-19T09:54:59.988Z</time></trkpt><trkpt lat="45.3049567" lon="8.6306833"><ele>115.0</ele><time>2026-04-19T09:55:00.988Z</time></trkpt><trkpt lat="45.3049033" lon="8.6305533"><ele>115.00000000000001</ele><time>2026-04-19T09:55:01.988Z</time></trkpt><trkpt lat="45.3048433" lon="8.6304333"><ele>115.0</ele><time>2026-04-19T09:55:02.988Z</time></trkpt><trkpt lat="45.3047883" lon="8.630325"><ele>115.0</ele><time>2026-04-19T09:55:03.987Z</time></trkpt><trkpt lat="45.3047433" lon="8.6302333"><ele>115.0</ele><time>2026-04-19T09:55:04.988Z</time></trkpt><trkpt lat="45.3047033" lon="8.63016"><ele>115.00000000000001</ele><time>2026-04-19T09:55:05.987Z</time></trkpt><trkpt lat="45.30467" lon="8.630025"><ele>115.0</ele><time>2026-04-19T09:55:07.988Z</time></trkpt><trkpt lat="45.3047233" lon="8.6299267"><ele>115.4</ele><time>2026-04-19T09:55:10.988Z</time></trkpt><trkpt lat="45.3047917" lon="8.629915"><ele>115.8</ele><time>2026-04-19T09:55:11.988Z</time></trkpt><trkpt lat="45.30488" lon="8.629905"><ele>116.19999999999999</ele><time>2026-04-19T09:55:12.988Z</time></trkpt><trkpt lat="45.3049767" lon="8.6298917"><ele>116.6</ele><time>2026-04-19T09:55:13.987Z</time></trkpt><trkpt lat="45.3050817" lon="8.62988"><ele>117.0</ele><time>2026-04-19T09:55:14.987Z</time></trkpt><trkpt lat="45.3051883" lon="8.629865"><ele>117.0</ele><time>2026-04-19T09:55:15.987Z</time></trkpt><trkpt lat="45.305305" lon="8.6298467"><ele>117.0</ele><time>2026-04-19T09:55:16.988Z</time></trkpt><trkpt lat="45.30542" lon="8.6298317"><ele>117.0</ele><time>2026-04-19T09:55:17.988Z</time></trkpt><trkpt lat="45.3055483" lon="8.6298067"><ele>117.0</ele><time>2026-04-19T09:55:18.988Z</time></trkpt><trkpt lat="45.30569" lon="8.629795"><ele>117.33333333333334</ele><time>2026-04-19T09:55:19.988Z</time></trkpt><trkpt lat="45.3058333" lon="8.6297717"><ele>117.66666666666667</ele><time>2026-04-19T09:55:20.988Z</time></trkpt><trkpt lat="45.3059883" lon="8.6297433"><ele>118.0</ele><time>2026-04-19T09:55:21.988Z</time></trkpt><trkpt lat="45.30614" lon="8.62972"><ele>118.0</ele><time>2026-04-19T09:55:22.988Z</time></trkpt><trkpt lat="45.306295" lon="8.6296967"><ele>118.0</ele><time>2026-04-19T09:55:23.988Z</time></trkpt><trkpt lat="45.3064467" lon="8.6296767"><ele>118.0</ele><time>2026-04-19T09:55:24.987Z</time></trkpt><trkpt lat="45.3065933" lon="8.6296583"><ele>118.0</ele><time>2026-04-19T09:55:25.988Z</time></trkpt><trkpt lat="45.30675" lon="8.629635"><ele>118.0</ele><time>2026-04-19T09:55:26.987Z</time></trkpt><trkpt lat="45.3068983" lon="8.62961"><ele>118.0</ele><time>2026-04-19T09:55:27.988Z</time></trkpt><trkpt lat="45.3070433" lon="8.6295783"><ele>118.0</ele><time>2026-04-19T09:55:28.988Z</time></trkpt><trkpt lat="45.3071833" lon="8.629545"><ele>118.0</ele><time>2026-04-19T09:55:29.987Z</time></trkpt><trkpt lat="45.3073317" lon="8.6294967"><ele>118.0</ele><time>2026-04-19T09:55:30.988Z</time></trkpt><trkpt lat="45.3074683" lon="8.629455"><ele>118.0</ele><time>2026-04-19T09:55:31.988Z</time></trkpt><trkpt lat="45.3075833" lon="8.6294267"><ele>118.0</ele><time>2026-04-19T09:55:32.988Z</time></trkpt><trkpt lat="45.3076933" lon="8.62938"><ele>118.00000000000001</ele><time>2026-04-19T09:55:33.988Z</time></trkpt><trkpt lat="45.3077967" lon="8.6293383"><ele>118.00000000000001</ele><time>2026-04-19T09:55:34.988Z</time></trkpt><trkpt lat="45.307875" lon="8.6293017"><ele>118.0</ele><time>2026-04-19T09:55:35.988Z</time></trkpt><trkpt lat="45.30795" lon="8.6292483"><ele>118.0</ele><time>2026-04-19T09:55:36.988Z</time></trkpt><trkpt lat="45.3080083" lon="8.62917"><ele>118.0</ele><time>2026-04-19T09:55:37.988Z</time></trkpt><trkpt lat="45.3080567" lon="8.6290683"><ele>118.0</ele><time>2026-04-19T09:55:38.987Z</time></trkpt><trkpt lat="45.3080883" lon="8.6289233"><ele>118.0</ele><time>2026-04-19T09:55:39.988Z</time></trkpt><trkpt lat="45.308105" lon="8.6287333"><ele>118.0</ele><time>2026-04-19T09:55:40.987Z</time></trkpt><trkpt lat="45.3081" lon="8.6285017"><ele>118.33333333333334</ele><time>2026-04-19T09:55:41.988Z</time></trkpt><trkpt lat="45.3080983" lon="8.6282767"><ele>118.66666666666666</ele><time>2026-04-19T09:55:42.987Z</time></trkpt><trkpt lat="45.308105" lon="8.6280617"><ele>119.0</ele><time>2026-04-19T09:55:43.987Z</time></trkpt><trkpt lat="45.3081133" lon="8.62785"><ele>120.33333333333333</ele><time>2026-04-19T09:55:44.988Z</time></trkpt><trkpt lat="45.308135" lon="8.627625"><ele>121.66666666666666</ele><time>2026-04-19T09:55:45.987Z</time></trkpt><trkpt lat="45.3081533" lon="8.62739"><ele>123.0</ele><time>2026-04-19T09:55:46.987Z</time></trkpt><trkpt lat="45.3081783" lon="8.6271367"><ele>123.0</ele><time>2026-04-19T09:55:47.987Z</time></trkpt><trkpt lat="45.3081967" lon="8.6268583"><ele>123.0</ele><time>2026-04-19T09:55:48.988Z</time></trkpt><trkpt lat="45.3082133" lon="8.626575"><ele>123.0</ele><time>2026-04-19T09:55:49.988Z</time></trkpt><trkpt lat="45.3082267" lon="8.6263067"><ele>122.25</ele><time>2026-04-19T09:55:50.988Z</time></trkpt><trkpt lat="45.3082467" lon="8.6260767"><ele>121.5</ele><time>2026-04-19T09:55:51.988Z</time></trkpt><trkpt lat="45.3082633" lon="8.6258683"><ele>120.75</ele><time>2026-04-19T09:55:52.987Z</time></trkpt><trkpt lat="45.3082833" lon="8.6256767"><ele>120.0</ele><time>2026-04-19T09:55:53.988Z</time></trkpt><trkpt lat="45.3082983" lon="8.6255133"><ele>120.0</ele><time>2026-04-19T09:55:54.987Z</time></trkpt><trkpt lat="45.308315" lon="8.6253767"><ele>120.0</ele><time>2026-04-19T09:55:55.987Z</time></trkpt><trkpt lat="45.30833" lon="8.625275"><ele>120.0</ele><time>2026-04-19T09:55:56.987Z</time></trkpt><trkpt lat="45.30837" lon="8.6251583"><ele>120.0</ele><time>2026-04-19T09:55:58.988Z</time></trkpt><trkpt lat="45.3084667" lon="8.6251417"><ele>120.0</ele><time>2026-04-19T09:56:00.988Z</time></trkpt><trkpt lat="45.3085233" lon="8.6250983"><ele>120.0</ele><time>2026-04-19T09:56:01.988Z</time></trkpt><trkpt lat="45.308565" lon="8.6250133"><ele>120.0</ele><time>2026-04-19T09:56:02.987Z</time></trkpt><trkpt lat="45.3085883" lon="8.6248683"><ele>120.0</ele><time>2026-04-19T09:56:03.988Z</time></trkpt><trkpt lat="45.3086083" lon="8.6246783"><ele>120.0</ele><time>2026-04-19T09:56:04.987Z</time></trkpt><trkpt lat="45.3086383" lon="8.62445"><ele>120.0</ele><time>2026-04-19T09:56:05.988Z</time></trkpt><trkpt lat="45.308675" lon="8.62419"><ele>120.0</ele><time>2026-04-19T09:56:06.988Z</time></trkpt><trkpt lat="45.3087267" lon="8.6238933"><ele>120.0</ele><time>2026-04-19T09:56:07.987Z</time></trkpt><trkpt lat="45.30876" lon="8.6236117"><ele>120.0</ele><time>2026-04-19T09:56:08.988Z</time></trkpt><trkpt lat="45.3088083" lon="8.6233617"><ele>119.8</ele><time>2026-04-19T09:56:09.988Z</time></trkpt><trkpt lat="45.308845" lon="8.6231667"><ele>119.6</ele><time>2026-04-19T09:56:10.987Z</time></trkpt><trkpt lat="45.308875" lon="8.62299"><ele>119.4</ele><time>2026-04-19T09:56:11.988Z</time></trkpt><trkpt lat="45.3088983" lon="8.62286"><ele>119.2</ele><time>2026-04-19T09:56:12.988Z</time></trkpt><trkpt lat="45.308915" lon="8.6227583"><ele>119.0</ele><time>2026-04-19T09:56:13.987Z</time></trkpt><trkpt lat="45.308895" lon="8.6226683"><ele>118.75</ele><time>2026-04-19T09:56:15.988Z</time></trkpt><trkpt lat="45.3087567" lon="8.6226267"><ele>118.5</ele><time>2026-04-19T09:56:17.988Z</time></trkpt><trkpt lat="45.308645" lon="8.6225967"><ele>118.25</ele><time>2026-04-19T09:56:18.987Z</time></trkpt><trkpt lat="45.3084817" lon="8.6225433"><ele>118.0</ele><time>2026-04-19T09:56:19.988Z</time></trkpt><trkpt lat="45.308325" lon="8.62248"><ele>118.0</ele><time>2026-04-19T09:56:20.988Z</time></trkpt><trkpt lat="45.3081917" lon="8.622425"><ele>118.00000000000001</ele><time>2026-04-19T09:56:21.987Z</time></trkpt><trkpt lat="45.3080933" lon="8.6223833"><ele>118.00000000000001</ele><time>2026-04-19T09:56:22.987Z</time></trkpt><trkpt lat="45.3080133" lon="8.6223483"><ele>118.0</ele><time>2026-04-19T09:56:23.987Z</time></trkpt><trkpt lat="45.3079417" lon="8.6222983"><ele>118.0</ele><time>2026-04-19T09:56:24.988Z</time></trkpt><trkpt lat="45.3078983" lon="8.6222233"><ele>118.0</ele><time>2026-04-19T09:56:25.988Z</time></trkpt><trkpt lat="45.3078983" lon="8.622105"><ele>118.0</ele><time>2026-04-19T09:56:26.988Z</time></trkpt><trkpt lat="45.3079167" lon="8.6219417"><ele>118.0</ele><time>2026-04-19T09:56:27.987Z</time></trkpt><trkpt lat="45.307935" lon="8.6217567"><ele>118.0</ele><time>2026-04-19T09:56:28.988Z</time></trkpt><trkpt lat="45.3079533" lon="8.621525"><ele>118.0</ele><time>2026-04-19T09:56:29.987Z</time></trkpt><trkpt lat="45.3079717" lon="8.6212667"><ele>118.0</ele><time>2026-04-19T09:56:30.987Z</time></trkpt><trkpt lat="45.3079783" lon="8.62101"><ele>118.0</ele><time>2026-04-19T09:56:31.987Z</time></trkpt><trkpt lat="45.3079833" lon="8.620775"><ele>118.25</ele><time>2026-04-19T09:56:32.987Z</time></trkpt><trkpt lat="45.3079833" lon="8.620565"><ele>118.5</ele><time>2026-04-19T09:56:33.987Z</time></trkpt><trkpt lat="45.3079717" lon="8.6203667"><ele>118.75</ele><time>2026-04-19T09:56:34.987Z</time></trkpt><trkpt lat="45.30796" lon="8.6201667"><ele>119.0</ele><time>2026-04-19T09:56:35.988Z</time></trkpt><trkpt lat="45.3079233" lon="8.619975"><ele>119.0</ele><time>2026-04-19T09:56:36.988Z</time></trkpt><trkpt lat="45.3078667" lon="8.6197717"><ele>119.0</ele><time>2026-04-19T09:56:37.988Z</time></trkpt><trkpt lat="45.3077833" lon="8.6195467"><ele>119.0</ele><time>2026-04-19T09:56:38.988Z</time></trkpt><trkpt lat="45.3077033" lon="8.61931"><ele>119.0</ele><time>2026-04-19T09:56:39.988Z</time></trkpt><trkpt lat="45.3076233" lon="8.6190867"><ele>119.0</ele><time>2026-04-19T09:56:40.988Z</time></trkpt><trkpt lat="45.30756" lon="8.618885"><ele>119.0</ele><time>2026-04-19T09:56:41.987Z</time></trkpt><trkpt lat="45.307495" lon="8.61869"><ele>119.0</ele><time>2026-04-19T09:56:42.988Z</time></trkpt><trkpt lat="45.3074117" lon="8.6185067"><ele>119.0</ele><time>2026-04-19T09:56:43.988Z</time></trkpt><trkpt lat="45.3073233" lon="8.6183233"><ele>119.0</ele><time>2026-04-19T09:56:44.987Z</time></trkpt><trkpt lat="45.3072317" lon="8.6181533"><ele>119.0</ele><time>2026-04-19T09:56:45.987Z</time></trkpt><trkpt lat="45.30712" lon="8.6179783"><ele>119.0</ele><time>2026-04-19T09:56:46.988Z</time></trkpt><trkpt lat="45.3070117" lon="8.6178017"><ele>119.0</ele><time>2026-04-19T09:56:47.988Z</time></trkpt><trkpt lat="45.3068983" lon="8.617625"><ele>119.0</ele><time>2026-04-19T09:56:48.988Z</time></trkpt><trkpt lat="45.30678" lon="8.6174683"><ele>119.0</ele><time>2026-04-19T09:56:49.988Z</time></trkpt><trkpt lat="45.3066783" lon="8.617325"><ele>119.0</ele><time>2026-04-19T09:56:50.987Z</time></trkpt><trkpt lat="45.30658" lon="8.6171867"><ele>119.0</ele><time>2026-04-19T09:56:51.988Z</time></trkpt><trkpt lat="45.30648" lon="8.6170533"><ele>119.0</ele><time>2026-04-19T09:56:52.988Z</time></trkpt><trkpt lat="45.3063933" lon="8.6169333"><ele>119.0</ele><time>2026-04-19T09:56:53.988Z</time></trkpt><trkpt lat="45.30631" lon="8.6168033"><ele>119.0</ele><time>2026-04-19T09:56:54.988Z</time></trkpt><trkpt lat="45.3062233" lon="8.6166917"><ele>119.0</ele><time>2026-04-19T09:56:55.988Z</time></trkpt><trkpt lat="45.3061317" lon="8.6165983"><ele>119.0</ele><time>2026-04-19T09:56:56.988Z</time></trkpt><trkpt lat="45.3060267" lon="8.6165467"><ele>119.0</ele><time>2026-04-19T09:56:57.988Z</time></trkpt><trkpt lat="45.3059183" lon="8.6165183"><ele>119.0</ele><time>2026-04-19T09:56:58.988Z</time></trkpt><trkpt lat="45.3058233" lon="8.6165033"><ele>119.0</ele><time>2026-04-19T09:56:59.988Z</time></trkpt><trkpt lat="45.30575" lon="8.6164733"><ele>119.0</ele><time>2026-04-19T09:57:00.988Z</time></trkpt><trkpt lat="45.3056883" lon="8.616435"><ele>119.0</ele><time>2026-04-19T09:57:01.987Z</time></trkpt><trkpt lat="45.30566" lon="8.6162967"><ele>119.0</ele><time>2026-04-19T09:57:03.988Z</time></trkpt><trkpt lat="45.3056817" lon="8.61618"><ele>119.0</ele><time>2026-04-19T09:57:04.987Z</time></trkpt><trkpt lat="45.305695" lon="8.6160617"><ele>119.0</ele><time>2026-04-19T09:57:05.987Z</time></trkpt><trkpt lat="45.3056783" lon="8.6159067"><ele>119.0</ele><time>2026-04-19T09:57:07.987Z</time></trkpt><trkpt lat="45.3056117" lon="8.615865"><ele>118.75</ele><time>2026-04-19T09:57:08.987Z</time></trkpt><trkpt lat="45.3055183" lon="8.6158283"><ele>118.5</ele><time>2026-04-19T09:57:09.988Z</time></trkpt><trkpt lat="45.3054033" lon="8.6157883"><ele>118.25</ele><time>2026-04-19T09:57:10.988Z</time></trkpt><trkpt lat="45.3052767" lon="8.615745"><ele>118.0</ele><time>2026-04-19T09:57:11.988Z</time></trkpt><trkpt lat="45.30514" lon="8.61569"><ele>118.0</ele><time>2026-04-19T09:57:12.988Z</time></trkpt><trkpt lat="45.3049933" lon="8.6156367"><ele>118.0</ele><time>2026-04-19T09:57:13.988Z</time></trkpt><trkpt lat="45.30484" lon="8.615585"><ele>118.0</ele><time>2026-04-19T09:57:14.987Z</time></trkpt><trkpt lat="45.3046667" lon="8.6155317"><ele>118.33333333333334</ele><time>2026-04-19T09:57:15.988Z</time></trkpt><trkpt lat="45.3044883" lon="8.6154683"><ele>118.66666666666666</ele><time>2026-04-19T09:57:16.987Z</time></trkpt><trkpt lat="45.3043167" lon="8.615415"><ele>119.0</ele><time>2026-04-19T09:57:17.987Z</time></trkpt><trkpt lat="45.3041417" lon="8.615365"><ele>118.66666666666666</ele><time>2026-04-19T09:57:18.988Z</time></trkpt><trkpt lat="45.30397" lon="8.61532"><ele>118.33333333333334</ele><time>2026-04-19T09:57:19.988Z</time></trkpt><trkpt lat="45.3038" lon="8.615275"><ele>118.0</ele><time>2026-04-19T09:57:20.987Z</time></trkpt><trkpt lat="45.3036333" lon="8.6152267"><ele>118.66666666666667</ele><time>2026-04-19T09:57:21.987Z</time></trkpt><trkpt lat="45.3034683" lon="8.6151667"><ele>119.33333333333334</ele><time>2026-04-19T09:57:22.988Z</time></trkpt><trkpt lat="45.303305" lon="8.6151183"><ele>120.0</ele><time>2026-04-19T09:57:23.988Z</time></trkpt><trkpt lat="45.3031467" lon="8.6150717"><ele>119.66666666666666</ele><time>2026-04-19T09:57:24.987Z</time></trkpt><trkpt lat="45.3029783" lon="8.6150167"><ele>119.33333333333333</ele><time>2026-04-19T09:57:25.983Z</time></trkpt><trkpt lat="45.3028133" lon="8.6149733"><ele>119.0</ele><time>2026-04-19T09:57:26.988Z</time></trkpt><trkpt lat="45.30265" lon="8.6149233"><ele>119.0</ele><time>2026-04-19T09:57:27.987Z</time></trkpt><trkpt lat="45.302485" lon="8.6148683"><ele>119.0</ele><time>2026-04-19T09:57:28.987Z</time></trkpt><trkpt lat="45.30232" lon="8.6148167"><ele>119.0</ele><time>2026-04-19T09:57:29.987Z</time></trkpt><trkpt lat="45.30215" lon="8.614765"><ele>119.0</ele><time>2026-04-19T09:57:30.987Z</time></trkpt><trkpt lat="45.3019717" lon="8.6147217"><ele>119.0</ele><time>2026-04-19T09:57:31.988Z</time></trkpt><trkpt lat="45.3018" lon="8.6146767"><ele>119.0</ele><time>2026-04-19T09:57:32.988Z</time></trkpt><trkpt lat="45.3016267" lon="8.614625"><ele>119.0</ele><time>2026-04-19T09:57:33.988Z</time></trkpt><trkpt lat="45.301455" lon="8.61456"><ele>119.0</ele><time>2026-04-19T09:57:34.988Z</time></trkpt><trkpt lat="45.3012833" lon="8.6144817"><ele>119.0</ele><time>2026-04-19T09:57:35.988Z</time></trkpt><trkpt lat="45.30111" lon="8.6143933"><ele>118.66666666666666</ele><time>2026-04-19T09:57:36.988Z</time></trkpt><trkpt lat="45.3009483" lon="8.6143017"><ele>118.33333333333334</ele><time>2026-04-19T09:57:37.987Z</time></trkpt><trkpt lat="45.3007767" lon="8.6142"><ele>118.0</ele><time>2026-04-19T09:57:38.987Z</time></trkpt><trkpt lat="45.3006167" lon="8.6141083"><ele>117.33333333333334</ele><time>2026-04-19T09:57:39.987Z</time></trkpt><trkpt lat="45.30046" lon="8.613995"><ele>116.66666666666666</ele><time>2026-04-19T09:57:40.988Z</time></trkpt><trkpt lat="45.3002983" lon="8.6138783"><ele>116.0</ele><time>2026-04-19T09:57:41.986Z</time></trkpt><trkpt lat="45.300145" lon="8.6137433"><ele>116.66666666666666</ele><time>2026-04-19T09:57:42.987Z</time></trkpt><trkpt lat="45.2999867" lon="8.6136183"><ele>117.33333333333334</ele><time>2026-04-19T09:57:43.987Z</time></trkpt><trkpt lat="45.29982" lon="8.6135"><ele>118.0</ele><time>2026-04-19T09:57:44.987Z</time></trkpt><trkpt lat="45.299665" lon="8.6133583"><ele>118.66666666666667</ele><time>2026-04-19T09:57:45.986Z</time></trkpt><trkpt lat="45.2994983" lon="8.6132367"><ele>119.33333333333334</ele><time>2026-04-19T09:57:46.986Z</time></trkpt><trkpt lat="45.299325" lon="8.6131133"><ele>120.0</ele><time>2026-04-19T09:57:47.987Z</time></trkpt><trkpt lat="45.2991383" lon="8.613"><ele>120.0</ele><time>2026-04-19T09:57:48.987Z</time></trkpt><trkpt lat="45.29896" lon="8.612885"><ele>120.0</ele><time>2026-04-19T09:57:49.987Z</time></trkpt><trkpt lat="45.2987883" lon="8.61278"><ele>120.0</ele><time>2026-04-19T09:57:50.986Z</time></trkpt><trkpt lat="45.2986217" lon="8.6127183"><ele>119.33333333333334</ele><time>2026-04-19T09:57:51.987Z</time></trkpt><trkpt lat="45.298435" lon="8.6126567"><ele>118.66666666666667</ele><time>2026-04-19T09:57:52.987Z</time></trkpt><trkpt lat="45.2982433" lon="8.61261"><ele>118.0</ele><time>2026-04-19T09:57:53.986Z</time></trkpt><trkpt lat="45.2980633" lon="8.6125733"><ele>118.0</ele><time>2026-04-19T09:57:54.986Z</time></trkpt><trkpt lat="45.2978767" lon="8.6125217"><ele>118.0</ele><time>2026-04-19T09:57:55.986Z</time></trkpt><trkpt lat="45.2977133" lon="8.6124533"><ele>118.0</ele><time>2026-04-19T09:57:56.987Z</time></trkpt><trkpt lat="45.2975783" lon="8.6124033"><ele>118.0</ele><time>2026-04-19T09:57:57.987Z</time></trkpt><trkpt lat="45.29746" lon="8.612375"><ele>118.00000000000001</ele><time>2026-04-19T09:57:58.986Z</time></trkpt><trkpt lat="45.2973483" lon="8.6123267"><ele>118.00000000000001</ele><time>2026-04-19T09:57:59.987Z</time></trkpt><trkpt lat="45.2972467" lon="8.6122733"><ele>118.0</ele><time>2026-04-19T09:58:00.987Z</time></trkpt><trkpt lat="45.29715" lon="8.612225"><ele>118.0</ele><time>2026-04-19T09:58:01.986Z</time></trkpt><trkpt lat="45.29706" lon="8.6121717"><ele>118.00000000000001</ele><time>2026-04-19T09:58:02.987Z</time></trkpt><trkpt lat="45.2969633" lon="8.6121233"><ele>118.0</ele><time>2026-04-19T09:58:03.987Z</time></trkpt><trkpt lat="45.29688" lon="8.612085"><ele>118.0</ele><time>2026-04-19T09:58:04.987Z</time></trkpt><trkpt lat="45.2968017" lon="8.6120483"><ele>118.0</ele><time>2026-04-19T09:58:05.986Z</time></trkpt><trkpt lat="45.2967267" lon="8.6120083"><ele>118.00000000000001</ele><time>2026-04-19T09:58:06.987Z</time></trkpt><trkpt lat="45.2966583" lon="8.6119767"><ele>118.0</ele><time>2026-04-19T09:58:07.987Z</time></trkpt><trkpt lat="45.2965833" lon="8.6119483"><ele>117.83333333333334</ele><time>2026-04-19T09:58:08.987Z</time></trkpt><trkpt lat="45.29651" lon="8.6119217"><ele>117.66666666666667</ele><time>2026-04-19T09:58:09.986Z</time></trkpt><trkpt lat="45.29644" lon="8.61189"><ele>117.5</ele><time>2026-04-19T09:58:10.986Z</time></trkpt><trkpt lat="45.296375" lon="8.6118617"><ele>117.33333333333334</ele><time>2026-04-19T09:58:11.986Z</time></trkpt><trkpt lat="45.2962967" lon="8.6118267"><ele>117.16666666666667</ele><time>2026-04-19T09:58:12.986Z</time></trkpt><trkpt lat="45.2962167" lon="8.611805"><ele>117.0</ele><time>2026-04-19T09:58:13.987Z</time></trkpt><trkpt lat="45.2961367" lon="8.6117833"><ele>117.0</ele><time>2026-04-19T09:58:14.986Z</time></trkpt><trkpt lat="45.29605" lon="8.61175"><ele>116.99999999999999</ele><time>2026-04-19T09:58:15.987Z</time></trkpt><trkpt lat="45.2959633" lon="8.6117"><ele>116.99999999999999</ele><time>2026-04-19T09:58:16.986Z</time></trkpt><trkpt lat="45.2958633" lon="8.6116517"><ele>117.0</ele><time>2026-04-19T09:58:17.986Z</time></trkpt><trkpt lat="45.2957683" lon="8.6115967"><ele>117.0</ele><time>2026-04-19T09:58:18.987Z</time></trkpt><trkpt lat="45.2956633" lon="8.6115483"><ele>116.75</ele><time>2026-04-19T09:58:19.987Z</time></trkpt><trkpt lat="45.2955483" lon="8.6115017"><ele>116.5</ele><time>2026-04-19T09:58:20.987Z</time></trkpt><trkpt lat="45.2954383" lon="8.6114633"><ele>116.25</ele><time>2026-04-19T09:58:21.986Z</time></trkpt><trkpt lat="45.2953233" lon="8.61142"><ele>116.0</ele><time>2026-04-19T09:58:22.986Z</time></trkpt><trkpt lat="45.2952" lon="8.61137"><ele>116.0</ele><time>2026-04-19T09:58:23.986Z</time></trkpt><trkpt lat="45.295075" lon="8.6113133"><ele>116.0</ele><time>2026-04-19T09:58:24.987Z</time></trkpt><trkpt lat="45.2949617" lon="8.6112617"><ele>116.0</ele><time>2026-04-19T09:58:25.986Z</time></trkpt><trkpt lat="45.2948617" lon="8.611205"><ele>116.0</ele><time>2026-04-19T09:58:26.986Z</time></trkpt><trkpt lat="45.29478" lon="8.6111533"><ele>116.0</ele><time>2026-04-19T09:58:27.986Z</time></trkpt><trkpt lat="45.2947117" lon="8.6110833"><ele>116.16666666666666</ele><time>2026-04-19T09:58:28.986Z</time></trkpt><trkpt lat="45.2946517" lon="8.6109933"><ele>116.33333333333333</ele><time>2026-04-19T09:58:29.987Z</time></trkpt><trkpt lat="45.294605" lon="8.6108983"><ele>116.5</ele><time>2026-04-19T09:58:30.987Z</time></trkpt><trkpt lat="45.2945667" lon="8.6108033"><ele>116.66666666666666</ele><time>2026-04-19T09:58:31.987Z</time></trkpt><trkpt lat="45.2944967" lon="8.610725"><ele>116.83333333333333</ele><time>2026-04-19T09:58:32.987Z</time></trkpt><trkpt lat="45.294405" lon="8.61066"><ele>117.0</ele><time>2026-04-19T09:58:33.987Z</time></trkpt><trkpt lat="45.2943017" lon="8.6106133"><ele>117.0</ele><time>2026-04-19T09:58:34.986Z</time></trkpt><trkpt lat="45.2941867" lon="8.6105683"><ele>117.0</ele><time>2026-04-19T09:58:35.987Z</time></trkpt><trkpt lat="45.2940617" lon="8.61053"><ele>117.0</ele><time>2026-04-19T09:58:36.987Z</time></trkpt><trkpt lat="45.2939317" lon="8.6104867"><ele>117.0</ele><time>2026-04-19T09:58:37.987Z</time></trkpt><trkpt lat="45.2938067" lon="8.6104483"><ele>116.75</ele><time>2026-04-19T09:58:38.986Z</time></trkpt><trkpt lat="45.2936733" lon="8.6104133"><ele>116.5</ele><time>2026-04-19T09:58:39.987Z</time></trkpt><trkpt lat="45.2935383" lon="8.61038"><ele>116.25</ele><time>2026-04-19T09:58:40.986Z</time></trkpt><trkpt lat="45.2934133" lon="8.6103433"><ele>116.0</ele><time>2026-04-19T09:58:41.986Z</time></trkpt><trkpt lat="45.293295" lon="8.6102933"><ele>116.6</ele><time>2026-04-19T09:58:42.987Z</time></trkpt><trkpt lat="45.2931833" lon="8.6102517"><ele>117.19999999999999</ele><time>2026-04-19T09:58:43.987Z</time></trkpt><trkpt lat="45.293085" lon="8.610195"><ele>117.80000000000001</ele><time>2026-04-19T09:58:44.987Z</time></trkpt><trkpt lat="45.2929967" lon="8.6101117"><ele>118.4</ele><time>2026-04-19T09:58:45.986Z</time></trkpt><trkpt lat="45.2929183" lon="8.6100117"><ele>119.0</ele><time>2026-04-19T09:58:46.987Z</time></trkpt><trkpt lat="45.2928483" lon="8.6098867"><ele>119.0</ele><time>2026-04-19T09:58:47.986Z</time></trkpt><trkpt lat="45.292805" lon="8.609735"><ele>119.0</ele><time>2026-04-19T09:58:48.987Z</time></trkpt><trkpt lat="45.2927717" lon="8.6095667"><ele>119.0</ele><time>2026-04-19T09:58:49.987Z</time></trkpt><trkpt lat="45.292745" lon="8.60939"><ele>119.0</ele><time>2026-04-19T09:58:50.986Z</time></trkpt><trkpt lat="45.2927233" lon="8.6092033"><ele>118.80000000000001</ele><time>2026-04-19T09:58:51.987Z</time></trkpt><trkpt lat="45.2926933" lon="8.6090333"><ele>118.60000000000001</ele><time>2026-04-19T09:58:52.987Z</time></trkpt><trkpt lat="45.2926633" lon="8.608895"><ele>118.4</ele><time>2026-04-19T09:58:53.986Z</time></trkpt><trkpt lat="45.292635" lon="8.6087967"><ele>118.2</ele><time>2026-04-19T09:58:54.986Z</time></trkpt><trkpt lat="45.2926033" lon="8.608705"><ele>118.0</ele><time>2026-04-19T09:58:55.986Z</time></trkpt><trkpt lat="45.2925233" lon="8.6085833"><ele>117.83333333333334</ele><time>2026-04-19T09:58:57.986Z</time></trkpt><trkpt lat="45.2924117" lon="8.6084883"><ele>117.66666666666667</ele><time>2026-04-19T09:58:59.987Z</time></trkpt><trkpt lat="45.29235" lon="8.608435"><ele>117.5</ele><time>2026-04-19T09:59:00.987Z</time></trkpt><trkpt lat="45.2922833" lon="8.6083683"><ele>117.33333333333334</ele><time>2026-04-19T09:59:01.987Z</time></trkpt><trkpt lat="45.2922133" lon="8.6083"><ele>117.16666666666667</ele><time>2026-04-19T09:59:02.986Z</time></trkpt><trkpt lat="45.2921533" lon="8.6082267"><ele>117.0</ele><time>2026-04-19T09:59:03.987Z</time></trkpt><trkpt lat="45.2920867" lon="8.6081483"><ele>117.0</ele><time>2026-04-19T09:59:04.986Z</time></trkpt><trkpt lat="45.292025" lon="8.6080617"><ele>117.0</ele><time>2026-04-19T09:59:05.986Z</time></trkpt><trkpt lat="45.291975" lon="8.607965"><ele>117.0</ele><time>2026-04-19T09:59:06.987Z</time></trkpt><trkpt lat="45.2919333" lon="8.6078567"><ele>117.0</ele><time>2026-04-19T09:59:07.987Z</time></trkpt><trkpt lat="45.291895" lon="8.6077417"><ele>117.0</ele><time>2026-04-19T09:59:08.987Z</time></trkpt><trkpt lat="45.2918633" lon="8.6076233"><ele>117.0</ele><time>2026-04-19T09:59:09.986Z</time></trkpt><trkpt lat="45.291855" lon="8.6075033"><ele>117.0</ele><time>2026-04-19T09:59:10.987Z</time></trkpt><trkpt lat="45.29186" lon="8.6073733"><ele>117.0</ele><time>2026-04-19T09:59:11.987Z</time></trkpt><trkpt lat="45.2918633" lon="8.6072517"><ele>117.0</ele><time>2026-04-19T09:59:12.987Z</time></trkpt><trkpt lat="45.29187" lon="8.6071417"><ele>117.0</ele><time>2026-04-19T09:59:13.986Z</time></trkpt><trkpt lat="45.2918667" lon="8.60703"><ele>117.0</ele><time>2026-04-19T09:59:14.987Z</time></trkpt><trkpt lat="45.2918517" lon="8.6069417"><ele>117.0</ele><time>2026-04-19T09:59:15.986Z</time></trkpt><trkpt lat="45.2918" lon="8.606805"><ele>117.0</ele><time>2026-04-19T09:59:17.986Z</time></trkpt><trkpt lat="45.291695" lon="8.6067233"><ele>116.99999999999999</ele><time>2026-04-19T09:59:19.987Z</time></trkpt><trkpt lat="45.2916167" lon="8.6066817"><ele>116.99999999999999</ele><time>2026-04-19T09:59:20.987Z</time></trkpt><trkpt lat="45.2915317" lon="8.6066433"><ele>117.0</ele><time>2026-04-19T09:59:21.987Z</time></trkpt><trkpt lat="45.2914483" lon="8.6066083"><ele>117.0</ele><time>2026-04-19T09:59:22.987Z</time></trkpt><trkpt lat="45.291365" lon="8.6065617"><ele>117.0</ele><time>2026-04-19T09:59:23.987Z</time></trkpt><trkpt lat="45.2912733" lon="8.606515"><ele>116.99999999999999</ele><time>2026-04-19T09:59:24.986Z</time></trkpt><trkpt lat="45.291185" lon="8.6064717"><ele>116.99999999999999</ele><time>2026-04-19T09:59:25.987Z</time></trkpt><trkpt lat="45.2911033" lon="8.6064017"><ele>117.0</ele><time>2026-04-19T09:59:26.987Z</time></trkpt><trkpt lat="45.2910267" lon="8.60631"><ele>117.0</ele><time>2026-04-19T09:59:27.987Z</time></trkpt><trkpt lat="45.2909567" lon="8.6062"><ele>117.0</ele><time>2026-04-19T09:59:28.986Z</time></trkpt><trkpt lat="45.2909017" lon="8.6060617"><ele>117.0</ele><time>2026-04-19T09:59:29.987Z</time></trkpt><trkpt lat="45.290865" lon="8.6059133"><ele>117.0</ele><time>2026-04-19T09:59:30.987Z</time></trkpt><trkpt lat="45.2908383" lon="8.6057567"><ele>117.0</ele><time>2026-04-19T09:59:31.987Z</time></trkpt><trkpt lat="45.2908083" lon="8.6055933"><ele>117.0</ele><time>2026-04-19T09:59:32.986Z</time></trkpt><trkpt lat="45.290765" lon="8.605425"><ele>117.0</ele><time>2026-04-19T09:59:33.987Z</time></trkpt><trkpt lat="45.2907133" lon="8.6052533"><ele>117.0</ele><time>2026-04-19T09:59:34.986Z</time></trkpt><trkpt lat="45.2906617" lon="8.6050817"><ele>117.0</ele><time>2026-04-19T09:59:35.987Z</time></trkpt><trkpt lat="45.2905917" lon="8.6049183"><ele>117.25</ele><time>2026-04-19T09:59:36.986Z</time></trkpt><trkpt lat="45.2905133" lon="8.6047817"><ele>117.5</ele><time>2026-04-19T09:59:37.987Z</time></trkpt><trkpt lat="45.2904167" lon="8.6046633"><ele>117.75</ele><time>2026-04-19T09:59:38.987Z</time></trkpt><trkpt lat="45.2903133" lon="8.6045667"><ele>118.0</ele><time>2026-04-19T09:59:39.987Z</time></trkpt><trkpt lat="45.2902317" lon="8.6044683"><ele>118.2</ele><time>2026-04-19T09:59:40.987Z</time></trkpt><trkpt lat="45.290145" lon="8.6043917"><ele>118.4</ele><time>2026-04-19T09:59:41.986Z</time></trkpt><trkpt lat="45.2900583" lon="8.60431"><ele>118.60000000000001</ele><time>2026-04-19T09:59:42.986Z</time></trkpt><trkpt lat="45.2899833" lon="8.6042233"><ele>118.80000000000001</ele><time>2026-04-19T09:59:43.987Z</time></trkpt><trkpt lat="45.28991" lon="8.6041533"><ele>119.0</ele><time>2026-04-19T09:59:44.987Z</time></trkpt><trkpt lat="45.2898483" lon="8.604075"><ele>119.0</ele><time>2026-04-19T09:59:45.986Z</time></trkpt><trkpt lat="45.289765" lon="8.60396"><ele>119.0</ele><time>2026-04-19T09:59:47.987Z</time></trkpt><trkpt lat="45.289725" lon="8.6038733"><ele>119.0</ele><time>2026-04-19T09:59:49.987Z</time></trkpt><trkpt lat="45.2897317" lon="8.60369"><ele>119.0</ele><time>2026-04-19T09:59:51.986Z</time></trkpt><trkpt lat="45.2897433" lon="8.603575"><ele>119.0</ele><time>2026-04-19T09:59:52.986Z</time></trkpt><trkpt lat="45.2897483" lon="8.603435"><ele>118.80000000000001</ele><time>2026-04-19T09:59:53.986Z</time></trkpt><trkpt lat="45.2897617" lon="8.6032867"><ele>118.60000000000001</ele><time>2026-04-19T09:59:54.987Z</time></trkpt><trkpt lat="45.2897683" lon="8.60314"><ele>118.4</ele><time>2026-04-19T09:59:55.987Z</time></trkpt><trkpt lat="45.2897733" lon="8.6029917"><ele>118.2</ele><time>2026-04-19T09:59:56.987Z</time></trkpt><trkpt lat="45.2897633" lon="8.602845"><ele>118.0</ele><time>2026-04-19T09:59:57.986Z</time></trkpt><trkpt lat="45.289755" lon="8.6026767"><ele>118.0</ele><time>2026-04-19T09:59:58.986Z</time></trkpt><trkpt lat="45.2897583" lon="8.6025"><ele>118.0</ele><time>2026-04-19T09:59:59.987Z</time></trkpt><trkpt lat="45.2897667" lon="8.60232"><ele>118.0</ele><time>2026-04-19T10:00:00.986Z</time></trkpt><trkpt lat="45.289775" lon="8.60215"><ele>118.0</ele><time>2026-04-19T10:00:01.986Z</time></trkpt><trkpt lat="45.2897783" lon="8.6019717"><ele>118.75</ele><time>2026-04-19T10:00:02.986Z</time></trkpt><trkpt lat="45.28977" lon="8.6018017"><ele>119.5</ele><time>2026-04-19T10:00:03.987Z</time></trkpt><trkpt lat="45.2897667" lon="8.60164"><ele>120.25</ele><time>2026-04-19T10:00:04.987Z</time></trkpt><trkpt lat="45.289765" lon="8.6014733"><ele>121.0</ele><time>2026-04-19T10:00:05.987Z</time></trkpt><trkpt lat="45.2897683" lon="8.60131"><ele>120.75</ele><time>2026-04-19T10:00:06.987Z</time></trkpt><trkpt lat="45.2897683" lon="8.6011417"><ele>120.5</ele><time>2026-04-19T10:00:07.987Z</time></trkpt><trkpt lat="45.2897617" lon="8.6009817"><ele>120.25</ele><time>2026-04-19T10:00:08.987Z</time></trkpt><trkpt lat="45.2897633" lon="8.60082"><ele>120.0</ele><time>2026-04-19T10:00:09.987Z</time></trkpt><trkpt lat="45.289755" lon="8.600665"><ele>120.0</ele><time>2026-04-19T10:00:10.987Z</time></trkpt><trkpt lat="45.28974" lon="8.6005067"><ele>120.0</ele><time>2026-04-19T10:00:11.987Z</time></trkpt><trkpt lat="45.2897333" lon="8.6003433"><ele>120.0</ele><time>2026-04-19T10:00:12.986Z</time></trkpt><trkpt lat="45.2897117" lon="8.6001817"><ele>120.0</ele><time>2026-04-19T10:00:13.987Z</time></trkpt><trkpt lat="45.2896933" lon="8.6000233"><ele>120.0</ele><time>2026-04-19T10:00:14.987Z</time></trkpt><trkpt lat="45.28967" lon="8.5998683"><ele>120.0</ele><time>2026-04-19T10:00:15.987Z</time></trkpt><trkpt lat="45.28964" lon="8.5997017"><ele>120.0</ele><time>2026-04-19T10:00:16.987Z</time></trkpt><trkpt lat="45.2896117" lon="8.599545"><ele>120.0</ele><time>2026-04-19T10:00:17.987Z</time></trkpt><trkpt lat="45.2895833" lon="8.5993917"><ele>120.25</ele><time>2026-04-19T10:00:18.987Z</time></trkpt><trkpt lat="45.28956" lon="8.5992333"><ele>120.5</ele><time>2026-04-19T10:00:19.986Z</time></trkpt><trkpt lat="45.2895333" lon="8.5990733"><ele>120.75</ele><time>2026-04-19T10:00:20.987Z</time></trkpt><trkpt lat="45.289505" lon="8.59891"><ele>121.0</ele><time>2026-04-19T10:00:21.987Z</time></trkpt><trkpt lat="45.2894817" lon="8.598745"><ele>121.0</ele><time>2026-04-19T10:00:22.986Z</time></trkpt><trkpt lat="45.2894483" lon="8.598575"><ele>121.0</ele><time>2026-04-19T10:00:23.987Z</time></trkpt><trkpt lat="45.2894067" lon="8.5984"><ele>121.0</ele><time>2026-04-19T10:00:24.987Z</time></trkpt><trkpt lat="45.289365" lon="8.5982333"><ele>121.0</ele><time>2026-04-19T10:00:25.987Z</time></trkpt><trkpt lat="45.2893167" lon="8.5980667"><ele>121.0</ele><time>2026-04-19T10:00:26.987Z</time></trkpt><trkpt lat="45.2892817" lon="8.5978883"><ele>121.0</ele><time>2026-04-19T10:00:27.987Z</time></trkpt><trkpt lat="45.2892483" lon="8.5977333"><ele>121.0</ele><time>2026-04-19T10:00:28.986Z</time></trkpt><trkpt lat="45.289205" lon="8.59758"><ele>121.0</ele><time>2026-04-19T10:00:29.987Z</time></trkpt><trkpt lat="45.289175" lon="8.5974167"><ele>121.0</ele><time>2026-04-19T10:00:30.986Z</time></trkpt><trkpt lat="45.2891467" lon="8.597245"><ele>121.0</ele><time>2026-04-19T10:00:31.986Z</time></trkpt><trkpt lat="45.2891233" lon="8.59708"><ele>121.0</ele><time>2026-04-19T10:00:32.987Z</time></trkpt><trkpt lat="45.289095" lon="8.5969267"><ele>121.0</ele><time>2026-04-19T10:00:33.986Z</time></trkpt><trkpt lat="45.2890733" lon="8.5967733"><ele>120.83333333333334</ele><time>2026-04-19T10:00:34.986Z</time></trkpt><trkpt lat="45.2890483" lon="8.5966267"><ele>120.66666666666667</ele><time>2026-04-19T10:00:35.987Z</time></trkpt><trkpt lat="45.28903" lon="8.5964817"><ele>120.5</ele><time>2026-04-19T10:00:36.987Z</time></trkpt><trkpt lat="45.289015" lon="8.596385"><ele>120.33333333333334</ele><time>2026-04-19T10:00:37.986Z</time></trkpt><trkpt lat="45.28902" lon="8.5962733"><ele>120.16666666666667</ele><time>2026-04-19T10:00:39.986Z</time></trkpt><trkpt lat="45.2890133" lon="8.5961833"><ele>120.0</ele><time>2026-04-19T10:01:14.987Z</time></trkpt><trkpt lat="45.289045" lon="8.5960933"><ele>119.83333333333333</ele><time>2026-04-19T10:01:16.987Z</time></trkpt><trkpt lat="45.2891333" lon="8.5960633"><ele>119.66666666666666</ele><time>2026-04-19T10:01:18.987Z</time></trkpt><trkpt lat="45.289215" lon="8.5960867"><ele>119.5</ele><time>2026-04-19T10:01:19.987Z</time></trkpt><trkpt lat="45.28929" lon="8.5960967"><ele>119.33333333333333</ele><time>2026-04-19T10:01:20.987Z</time></trkpt><trkpt lat="45.28937" lon="8.5961217"><ele>119.16666666666666</ele><time>2026-04-19T10:01:21.987Z</time></trkpt><trkpt lat="45.2894583" lon="8.5961433"><ele>119.0</ele><time>2026-04-19T10:01:22.987Z</time></trkpt><trkpt lat="45.28955" lon="8.596165"><ele>119.25</ele><time>2026-04-19T10:01:23.987Z</time></trkpt><trkpt lat="45.2896517" lon="8.5961983"><ele>119.5</ele><time>2026-04-19T10:01:24.986Z</time></trkpt><trkpt lat="45.28976" lon="8.5962417"><ele>119.75</ele><time>2026-04-19T10:01:25.987Z</time></trkpt><trkpt lat="45.2898733" lon="8.5962867"><ele>120.0</ele><time>2026-04-19T10:01:26.987Z</time></trkpt><trkpt lat="45.2899983" lon="8.5963133"><ele>120.0</ele><time>2026-04-19T10:01:27.987Z</time></trkpt><trkpt lat="45.290115" lon="8.5963517"><ele>120.0</ele><time>2026-04-19T10:01:28.987Z</time></trkpt><trkpt lat="45.290235" lon="8.5963883"><ele>120.0</ele><time>2026-04-19T10:01:29.987Z</time></trkpt><trkpt lat="45.2903533" lon="8.5964167"><ele>120.0</ele><time>2026-04-19T10:01:30.987Z</time></trkpt><trkpt lat="45.290465" lon="8.5964383"><ele>120.0</ele><time>2026-04-19T10:01:31.987Z</time></trkpt><trkpt lat="45.2905717" lon="8.59647"><ele>120.0</ele><time>2026-04-19T10:01:32.986Z</time></trkpt><trkpt lat="45.2906717" lon="8.5964983"><ele>120.0</ele><time>2026-04-19T10:01:33.986Z</time></trkpt><trkpt lat="45.2907667" lon="8.5965283"><ele>120.0</ele><time>2026-04-19T10:01:34.987Z</time></trkpt><trkpt lat="45.29086" lon="8.59659"><ele>120.0</ele><time>2026-04-19T10:01:35.987Z</time></trkpt><trkpt lat="45.2909267" lon="8.59665"><ele>120.0</ele><time>2026-04-19T10:01:36.987Z</time></trkpt><trkpt lat="45.2909883" lon="8.5967117"><ele>120.0</ele><time>2026-04-19T10:01:37.987Z</time></trkpt><trkpt lat="45.291045" lon="8.5967533"><ele>120.0</ele><time>2026-04-19T10:01:38.986Z</time></trkpt><trkpt lat="45.29111" lon="8.5967783"><ele>120.0</ele><time>2026-04-19T10:01:39.986Z</time></trkpt><trkpt lat="45.2911983" lon="8.5967817"><ele>120.0</ele><time>2026-04-19T10:01:40.986Z</time></trkpt><trkpt lat="45.2912967" lon="8.5967733"><ele>120.0</ele><time>2026-04-19T10:01:41.987Z</time></trkpt><trkpt lat="45.2914" lon="8.59676"><ele>120.5</ele><time>2026-04-19T10:01:42.986Z</time></trkpt><trkpt lat="45.2914983" lon="8.59676"><ele>121.0</ele><time>2026-04-19T10:01:43.987Z</time></trkpt><trkpt lat="45.2915833" lon="8.596765"><ele>121.5</ele><time>2026-04-19T10:01:44.987Z</time></trkpt><trkpt lat="45.2916583" lon="8.5967733"><ele>122.0</ele><time>2026-04-19T10:01:45.986Z</time></trkpt><trkpt lat="45.2917283" lon="8.5967817"><ele>122.5</ele><time>2026-04-19T10:01:46.986Z</time></trkpt><trkpt lat="45.2918333" lon="8.5967683"><ele>123.0</ele><time>2026-04-19T10:01:48.985Z</time></trkpt><trkpt lat="45.291885" lon="8.5967167"><ele>123.0</ele><time>2026-04-19T10:01:49.985Z</time></trkpt><trkpt lat="45.291925" lon="8.5966283"><ele>123.00000000000001</ele><time>2026-04-19T10:01:50.986Z</time></trkpt><trkpt lat="45.2919583" lon="8.5965017"><ele>123.00000000000001</ele><time>2026-04-19T10:01:51.985Z</time></trkpt><trkpt lat="45.2919867" lon="8.5963717"><ele>123.0</ele><time>2026-04-19T10:01:52.986Z</time></trkpt><trkpt lat="45.2920083" lon="8.59623"><ele>123.0</ele><time>2026-04-19T10:01:53.986Z</time></trkpt><trkpt lat="45.2920333" lon="8.5960683"><ele>123.2</ele><time>2026-04-19T10:01:54.986Z</time></trkpt><trkpt lat="45.2920533" lon="8.5959133"><ele>123.4</ele><time>2026-04-19T10:01:55.986Z</time></trkpt><trkpt lat="45.2920717" lon="8.59576"><ele>123.60000000000001</ele><time>2026-04-19T10:01:56.985Z</time></trkpt><trkpt lat="45.292095" lon="8.5956117"><ele>123.80000000000001</ele><time>2026-04-19T10:01:57.986Z</time></trkpt><trkpt lat="45.2921317" lon="8.5954633"><ele>124.0</ele><time>2026-04-19T10:01:58.986Z</time></trkpt><trkpt lat="45.29218" lon="8.5953133"><ele>124.4</ele><time>2026-04-19T10:01:59.985Z</time></trkpt><trkpt lat="45.292225" lon="8.5951617"><ele>124.80000000000001</ele><time>2026-04-19T10:02:00.985Z</time></trkpt><trkpt lat="45.2922617" lon="8.5950083"><ele>125.19999999999999</ele><time>2026-04-19T10:02:01.985Z</time></trkpt><trkpt lat="45.2923" lon="8.5948617"><ele>125.6</ele><time>2026-04-19T10:02:02.986Z</time></trkpt><trkpt lat="45.2923417" lon="8.594725"><ele>126.0</ele><time>2026-04-19T10:02:03.986Z</time></trkpt><trkpt lat="45.2923767" lon="8.594595"><ele>125.19999999999999</ele><time>2026-04-19T10:02:04.986Z</time></trkpt><trkpt lat="45.2923983" lon="8.59446"><ele>124.39999999999999</ele><time>2026-04-19T10:02:05.986Z</time></trkpt><trkpt lat="45.292425" lon="8.5943133"><ele>123.6</ele><time>2026-04-19T10:02:06.986Z</time></trkpt><trkpt lat="45.2924333" lon="8.5941417"><ele>122.8</ele><time>2026-04-19T10:02:07.986Z</time></trkpt><trkpt lat="45.2924467" lon="8.5939783"><ele>122.0</ele><time>2026-04-19T10:02:08.986Z</time></trkpt><trkpt lat="45.292465" lon="8.5937967"><ele>121.8</ele><time>2026-04-19T10:02:09.986Z</time></trkpt><trkpt lat="45.2924867" lon="8.5936417"><ele>121.6</ele><time>2026-04-19T10:02:10.986Z</time></trkpt><trkpt lat="45.2925117" lon="8.5934967"><ele>121.39999999999999</ele><time>2026-04-19T10:02:11.985Z</time></trkpt><trkpt lat="45.2925267" lon="8.5933683"><ele>121.19999999999999</ele><time>2026-04-19T10:02:12.986Z</time></trkpt><trkpt lat="45.29253" lon="8.593235"><ele>121.0</ele><time>2026-04-19T10:02:13.985Z</time></trkpt><trkpt lat="45.2925167" lon="8.59309"><ele>121.0</ele><time>2026-04-19T10:02:14.986Z</time></trkpt><trkpt lat="45.2925067" lon="8.5929467"><ele>121.0</ele><time>2026-04-19T10:02:15.986Z</time></trkpt><trkpt lat="45.292485" lon="8.5927967"><ele>121.0</ele><time>2026-04-19T10:02:16.985Z</time></trkpt><trkpt lat="45.2924883" lon="8.5926383"><ele>121.0</ele><time>2026-04-19T10:02:17.986Z</time></trkpt><trkpt lat="45.2924933" lon="8.5924867"><ele>121.0</ele><time>2026-04-19T10:02:18.985Z</time></trkpt><trkpt lat="45.2924967" lon="8.5923333"><ele>120.75</ele><time>2026-04-19T10:02:19.986Z</time></trkpt><trkpt lat="45.2925017" lon="8.592175"><ele>120.5</ele><time>2026-04-19T10:02:20.986Z</time></trkpt><trkpt lat="45.2925033" lon="8.5920133"><ele>120.25</ele><time>2026-04-19T10:02:21.986Z</time></trkpt><trkpt lat="45.2925083" lon="8.59185"><ele>120.0</ele><time>2026-04-19T10:02:22.986Z</time></trkpt><trkpt lat="45.2925133" lon="8.591685"><ele>120.0</ele><time>2026-04-19T10:02:23.986Z</time></trkpt><trkpt lat="45.2925217" lon="8.5915233"><ele>120.0</ele><time>2026-04-19T10:02:24.986Z</time></trkpt><trkpt lat="45.2925333" lon="8.5913617"><ele>120.0</ele><time>2026-04-19T10:02:25.986Z</time></trkpt><trkpt lat="45.2925367" lon="8.5912067"><ele>120.0</ele><time>2026-04-19T10:02:26.986Z</time></trkpt><trkpt lat="45.2925433" lon="8.5910367"><ele>120.0</ele><time>2026-04-19T10:02:27.985Z</time></trkpt><trkpt lat="45.2925517" lon="8.5908683"><ele>120.0</ele><time>2026-04-19T10:02:28.986Z</time></trkpt><trkpt lat="45.292545" lon="8.5907117"><ele>120.0</ele><time>2026-04-19T10:02:29.986Z</time></trkpt><trkpt lat="45.2925533" lon="8.5905567"><ele>120.0</ele><time>2026-04-19T10:02:30.986Z</time></trkpt><trkpt lat="45.2925617" lon="8.5904133"><ele>120.0</ele><time>2026-04-19T10:02:31.986Z</time></trkpt><trkpt lat="45.29257" lon="8.59027"><ele>119.8</ele><time>2026-04-19T10:02:32.986Z</time></trkpt><trkpt lat="45.2925717" lon="8.5901233"><ele>119.6</ele><time>2026-04-19T10:02:33.986Z</time></trkpt><trkpt lat="45.2925883" lon="8.5899967"><ele>119.4</ele><time>2026-04-19T10:02:34.986Z</time></trkpt><trkpt lat="45.2925967" lon="8.5898517"><ele>119.2</ele><time>2026-04-19T10:02:35.986Z</time></trkpt><trkpt lat="45.2926" lon="8.5897067"><ele>119.0</ele><time>2026-04-19T10:02:36.986Z</time></trkpt><trkpt lat="45.2926" lon="8.58957"><ele>118.99999999999999</ele><time>2026-04-19T10:02:37.986Z</time></trkpt><trkpt lat="45.2926067" lon="8.5894667"><ele>119.0</ele><time>2026-04-19T10:02:38.986Z</time></trkpt><trkpt lat="45.2926083" lon="8.5893383"><ele>119.0</ele><time>2026-04-19T10:02:40.986Z</time></trkpt><trkpt lat="45.2926017" lon="8.5891917"><ele>119.0</ele><time>2026-04-19T10:02:42.985Z</time></trkpt><trkpt lat="45.2925983" lon="8.5890767"><ele>118.99999999999999</ele><time>2026-04-19T10:02:43.985Z</time></trkpt><trkpt lat="45.292595" lon="8.58894"><ele>119.0</ele><time>2026-04-19T10:02:44.986Z</time></trkpt><trkpt lat="45.292605" lon="8.588805"><ele>118.99999999999999</ele><time>2026-04-19T10:02:45.986Z</time></trkpt><trkpt lat="45.2926117" lon="8.5886767"><ele>119.0</ele><time>2026-04-19T10:02:46.986Z</time></trkpt><trkpt lat="45.292605" lon="8.58856"><ele>119.0</ele><time>2026-04-19T10:02:47.986Z</time></trkpt><trkpt lat="45.29261" lon="8.58845"><ele>119.0</ele><time>2026-04-19T10:02:48.986Z</time></trkpt><trkpt lat="45.2926017" lon="8.5883567"><ele>118.99999999999999</ele><time>2026-04-19T10:02:49.986Z</time></trkpt><trkpt lat="45.2925783" lon="8.588235"><ele>119.0</ele><time>2026-04-19T10:02:51.986Z</time></trkpt><trkpt lat="45.2926367" lon="8.5881233"><ele>119.2</ele><time>2026-04-19T10:02:55.986Z</time></trkpt><trkpt lat="45.2927117" lon="8.588095"><ele>119.4</ele><time>2026-04-19T10:02:56.986Z</time></trkpt><trkpt lat="45.2928083" lon="8.5880583"><ele>119.6</ele><time>2026-04-19T10:02:57.986Z</time></trkpt><trkpt lat="45.2929083" lon="8.5880083"><ele>119.8</ele><time>2026-04-19T10:02:58.986Z</time></trkpt><trkpt lat="45.2930133" lon="8.587965"><ele>120.0</ele><time>2026-04-19T10:02:59.986Z</time></trkpt><trkpt lat="45.29312" lon="8.5879117"><ele>120.0</ele><time>2026-04-19T10:03:00.986Z</time></trkpt><trkpt lat="45.2932183" lon="8.5878617"><ele>120.0</ele><time>2026-04-19T10:03:01.986Z</time></trkpt><trkpt lat="45.2933167" lon="8.5878133"><ele>120.0</ele><time>2026-04-19T10:03:02.986Z</time></trkpt><trkpt lat="45.2934217" lon="8.5877667"><ele>120.0</ele><time>2026-04-19T10:03:03.985Z</time></trkpt><trkpt lat="45.293545" lon="8.5877083"><ele>120.0</ele><time>2026-04-19T10:03:04.986Z</time></trkpt><trkpt lat="45.2936683" lon="8.5876467"><ele>120.0</ele><time>2026-04-19T10:03:05.986Z</time></trkpt><trkpt lat="45.293785" lon="8.5875867"><ele>120.0</ele><time>2026-04-19T10:03:06.985Z</time></trkpt><trkpt lat="45.2939133" lon="8.5875167"><ele>120.0</ele><time>2026-04-19T10:03:07.986Z</time></trkpt><trkpt lat="45.2940433" lon="8.587455"><ele>120.0</ele><time>2026-04-19T10:03:08.985Z</time></trkpt><trkpt lat="45.2941783" lon="8.5874033"><ele>120.0</ele><time>2026-04-19T10:03:09.985Z</time></trkpt><trkpt lat="45.294305" lon="8.58734"><ele>120.0</ele><time>2026-04-19T10:03:10.986Z</time></trkpt><trkpt lat="45.2944333" lon="8.5872833"><ele>120.0</ele><time>2026-04-19T10:03:11.985Z</time></trkpt><trkpt lat="45.29456" lon="8.5872183"><ele>120.0</ele><time>2026-04-19T10:03:12.986Z</time></trkpt><trkpt lat="45.29469" lon="8.58716"><ele>120.25</ele><time>2026-04-19T10:03:13.986Z</time></trkpt><trkpt lat="45.2948233" lon="8.5870983"><ele>120.5</ele><time>2026-04-19T10:03:14.985Z</time></trkpt><trkpt lat="45.2949483" lon="8.5870333"><ele>120.75</ele><time>2026-04-19T10:03:15.985Z</time></trkpt><trkpt lat="45.2950667" lon="8.5869733"><ele>121.0</ele><time>2026-04-19T10:03:16.986Z</time></trkpt><trkpt lat="45.2951833" lon="8.5869233"><ele>121.0</ele><time>2026-04-19T10:03:17.986Z</time></trkpt><trkpt lat="45.2952917" lon="8.58686"><ele>121.0</ele><time>2026-04-19T10:03:18.986Z</time></trkpt><trkpt lat="45.2953883" lon="8.586815"><ele>121.0</ele><time>2026-04-19T10:03:19.986Z</time></trkpt><trkpt lat="45.295475" lon="8.5867833"><ele>121.0</ele><time>2026-04-19T10:03:20.986Z</time></trkpt><trkpt lat="45.295535" lon="8.586755"><ele>121.0</ele><time>2026-04-19T10:03:21.986Z</time></trkpt><trkpt lat="45.2956217" lon="8.586725"><ele>121.00000000000001</ele><time>2026-04-19T10:03:23.986Z</time></trkpt><trkpt lat="45.29569" lon="8.5866867"><ele>121.0</ele><time>2026-04-19T10:03:25.986Z</time></trkpt><trkpt lat="45.2957433" lon="8.5865767"><ele>121.0</ele><time>2026-04-19T10:03:28.986Z</time></trkpt><trkpt lat="45.2957367" lon="8.586405"><ele>121.0</ele><time>2026-04-19T10:03:30.986Z</time></trkpt><trkpt lat="45.2957483" lon="8.5863067"><ele>121.00000000000001</ele><time>2026-04-19T10:03:31.986Z</time></trkpt><trkpt lat="45.2957517" lon="8.5862067"><ele>121.0</ele><time>2026-04-19T10:03:32.986Z</time></trkpt><trkpt lat="45.2957783" lon="8.5860433"><ele>120.6</ele><time>2026-04-19T10:03:34.986Z</time></trkpt><trkpt lat="45.2958467" lon="8.5859017"><ele>120.19999999999999</ele><time>2026-04-19T10:03:36.986Z</time></trkpt><trkpt lat="45.2958983" lon="8.5858267"><ele>119.80000000000001</ele><time>2026-04-19T10:03:37.986Z</time></trkpt><trkpt lat="45.2959767" lon="8.5857583"><ele>119.4</ele><time>2026-04-19T10:03:38.986Z</time></trkpt><trkpt lat="45.2960533" lon="8.5856533"><ele>119.0</ele><time>2026-04-19T10:03:39.986Z</time></trkpt><trkpt lat="45.2961383" lon="8.585535"><ele>119.0</ele><time>2026-04-19T10:03:40.985Z</time></trkpt><trkpt lat="45.2962233" lon="8.5853983"><ele>119.0</ele><time>2026-04-19T10:03:41.986Z</time></trkpt><trkpt lat="45.2963117" lon="8.58525"><ele>119.0</ele><time>2026-04-19T10:03:42.986Z</time></trkpt><trkpt lat="45.2963933" lon="8.5850967"><ele>119.0</ele><time>2026-04-19T10:03:43.986Z</time></trkpt><trkpt lat="45.2964717" lon="8.5849417"><ele>118.75</ele><time>2026-04-19T10:03:44.985Z</time></trkpt><trkpt lat="45.2965533" lon="8.5847867"><ele>118.5</ele><time>2026-04-19T10:03:45.985Z</time></trkpt><trkpt lat="45.29663" lon="8.584635"><ele>118.25</ele><time>2026-04-19T10:03:46.985Z</time></trkpt><trkpt lat="45.2967133" lon="8.5844817"><ele>118.0</ele><time>2026-04-19T10:03:47.985Z</time></trkpt><trkpt lat="45.2967883" lon="8.5843317"><ele>118.0</ele><time>2026-04-19T10:03:48.986Z</time></trkpt><trkpt lat="45.2968717" lon="8.5841717"><ele>118.0</ele><time>2026-04-19T10:03:49.986Z</time></trkpt><trkpt lat="45.2969533" lon="8.5840083"><ele>118.0</ele><time>2026-04-19T10:03:50.985Z</time></trkpt><trkpt lat="45.297035" lon="8.5838433"><ele>118.0</ele><time>2026-04-19T10:03:51.986Z</time></trkpt><trkpt lat="45.2971183" lon="8.58368"><ele>117.66666666666667</ele><time>2026-04-19T10:03:52.986Z</time></trkpt><trkpt lat="45.2972067" lon="8.5835017"><ele>117.33333333333334</ele><time>2026-04-19T10:03:53.986Z</time></trkpt><trkpt lat="45.2972883" lon="8.5833267"><ele>117.0</ele><time>2026-04-19T10:03:54.986Z</time></trkpt><trkpt lat="45.2973733" lon="8.5831517"><ele>117.0</ele><time>2026-04-19T10:03:55.985Z</time></trkpt><trkpt lat="45.2974633" lon="8.5829767"><ele>117.0</ele><time>2026-04-19T10:03:56.985Z</time></trkpt><trkpt lat="45.2975533" lon="8.58279"><ele>117.0</ele><time>2026-04-19T10:03:57.986Z</time></trkpt><trkpt lat="45.2976417" lon="8.5826067"><ele>117.25</ele><time>2026-04-19T10:03:58.986Z</time></trkpt><trkpt lat="45.2977233" lon="8.58242"><ele>117.5</ele><time>2026-04-19T10:03:59.986Z</time></trkpt><trkpt lat="45.2977967" lon="8.582255"><ele>117.75</ele><time>2026-04-19T10:04:00.985Z</time></trkpt><trkpt lat="45.2978667" lon="8.5820867"><ele>118.0</ele><time>2026-04-19T10:04:01.986Z</time></trkpt><trkpt lat="45.297935" lon="8.58191"><ele>118.25</ele><time>2026-04-19T10:04:02.985Z</time></trkpt><trkpt lat="45.297995" lon="8.5817217"><ele>118.5</ele><time>2026-04-19T10:04:03.986Z</time></trkpt><trkpt lat="45.298035" lon="8.581535"><ele>118.75</ele><time>2026-04-19T10:04:04.986Z</time></trkpt><trkpt lat="45.2980767" lon="8.5813417"><ele>119.0</ele><time>2026-04-19T10:04:05.986Z</time></trkpt><trkpt lat="45.298125" lon="8.5811433"><ele>119.5</ele><time>2026-04-19T10:04:06.986Z</time></trkpt><trkpt lat="45.29817" lon="8.5809517"><ele>120.0</ele><time>2026-04-19T10:04:07.985Z</time></trkpt><trkpt lat="45.2982067" lon="8.5807617"><ele>120.5</ele><time>2026-04-19T10:04:08.985Z</time></trkpt><trkpt lat="45.2982333" lon="8.58057"><ele>121.0</ele><time>2026-04-19T10:04:09.986Z</time></trkpt><trkpt lat="45.2982433" lon="8.58037"><ele>121.0</ele><time>2026-04-19T10:04:10.985Z</time></trkpt><trkpt lat="45.2982383" lon="8.58017"><ele>121.0</ele><time>2026-04-19T10:04:11.986Z</time></trkpt><trkpt lat="45.2982167" lon="8.5799483"><ele>121.0</ele><time>2026-04-19T10:04:12.986Z</time></trkpt><trkpt lat="45.2981817" lon="8.5797333"><ele>121.0</ele><time>2026-04-19T10:04:13.986Z</time></trkpt><trkpt lat="45.2981533" lon="8.57951"><ele>121.0</ele><time>2026-04-19T10:04:14.986Z</time></trkpt><trkpt lat="45.2981233" lon="8.5792867"><ele>121.0</ele><time>2026-04-19T10:04:15.985Z</time></trkpt><trkpt lat="45.2981033" lon="8.5790667"><ele>121.0</ele><time>2026-04-19T10:04:16.985Z</time></trkpt><trkpt lat="45.2980883" lon="8.5788517"><ele>121.0</ele><time>2026-04-19T10:04:17.986Z</time></trkpt><trkpt lat="45.2980717" lon="8.5786267"><ele>121.0</ele><time>2026-04-19T10:04:18.985Z</time></trkpt><trkpt lat="45.2980583" lon="8.5783983"><ele>120.66666666666667</ele><time>2026-04-19T10:04:19.986Z</time></trkpt><trkpt lat="45.2980467" lon="8.5781817"><ele>120.33333333333334</ele><time>2026-04-19T10:04:20.985Z</time></trkpt><trkpt lat="45.29803" lon="8.5779633"><ele>120.0</ele><time>2026-04-19T10:04:21.986Z</time></trkpt><trkpt lat="45.2980033" lon="8.5777317"><ele>119.66666666666666</ele><time>2026-04-19T10:04:22.986Z</time></trkpt><trkpt lat="45.2979767" lon="8.577505"><ele>119.33333333333333</ele><time>2026-04-19T10:04:23.985Z</time></trkpt><trkpt lat="45.297945" lon="8.5772667"><ele>119.0</ele><time>2026-04-19T10:04:24.986Z</time></trkpt><trkpt lat="45.2979233" lon="8.5770467"><ele>118.75</ele><time>2026-04-19T10:04:25.985Z</time></trkpt><trkpt lat="45.297895" lon="8.5768267"><ele>118.5</ele><time>2026-04-19T10:04:26.986Z</time></trkpt><trkpt lat="45.29787" lon="8.5766167"><ele>118.25</ele><time>2026-04-19T10:04:27.986Z</time></trkpt><trkpt lat="45.2978417" lon="8.5764283"><ele>118.0</ele><time>2026-04-19T10:04:28.986Z</time></trkpt><trkpt lat="45.297815" lon="8.5762533"><ele>118.4</ele><time>2026-04-19T10:04:29.986Z</time></trkpt><trkpt lat="45.2977867" lon="8.57609"><ele>118.80000000000001</ele><time>2026-04-19T10:04:30.986Z</time></trkpt><trkpt lat="45.29776" lon="8.5759333"><ele>119.2</ele><time>2026-04-19T10:04:31.985Z</time></trkpt><trkpt lat="45.29774" lon="8.5758017"><ele>119.6</ele><time>2026-04-19T10:04:32.986Z</time></trkpt><trkpt lat="45.2977033" lon="8.5756733"><ele>120.0</ele><time>2026-04-19T10:04:33.986Z</time></trkpt><trkpt lat="45.2976617" lon="8.5755533"><ele>120.0</ele><time>2026-04-19T10:04:34.986Z</time></trkpt><trkpt lat="45.2976133" lon="8.5754333"><ele>120.0</ele><time>2026-04-19T10:04:35.986Z</time></trkpt><trkpt lat="45.2975633" lon="8.5753117"><ele>120.0</ele><time>2026-04-19T10:04:36.986Z</time></trkpt><trkpt lat="45.2975267" lon="8.57517"><ele>120.0</ele><time>2026-04-19T10:04:37.985Z</time></trkpt><trkpt lat="45.2975067" lon="8.5750183"><ele>120.0</ele><time>2026-04-19T10:04:38.986Z</time></trkpt><trkpt lat="45.29749" lon="8.574855"><ele>120.0</ele><time>2026-04-19T10:04:39.986Z</time></trkpt><trkpt lat="45.2974717" lon="8.57469"><ele>120.0</ele><time>2026-04-19T10:04:40.986Z</time></trkpt><trkpt lat="45.2974567" lon="8.574505"><ele>120.0</ele><time>2026-04-19T10:04:41.986Z</time></trkpt><trkpt lat="45.2974417" lon="8.57434"><ele>120.0</ele><time>2026-04-19T10:04:42.985Z</time></trkpt><trkpt lat="45.297425" lon="8.5741717"><ele>120.5</ele><time>2026-04-19T10:04:43.985Z</time></trkpt><trkpt lat="45.2974067" lon="8.5739983"><ele>121.0</ele><time>2026-04-19T10:04:44.985Z</time></trkpt><trkpt lat="45.2973883" lon="8.5738267"><ele>121.5</ele><time>2026-04-19T10:04:45.986Z</time></trkpt><trkpt lat="45.2973767" lon="8.5736533"><ele>122.0</ele><time>2026-04-19T10:04:46.986Z</time></trkpt><trkpt lat="45.2973583" lon="8.5734933"><ele>122.0</ele><time>2026-04-19T10:04:47.985Z</time></trkpt><trkpt lat="45.297355" lon="8.57334"><ele>121.99999999999999</ele><time>2026-04-19T10:04:48.986Z</time></trkpt><trkpt lat="45.29734" lon="8.5731983"><ele>121.99999999999999</ele><time>2026-04-19T10:04:49.986Z</time></trkpt><trkpt lat="45.2973217" lon="8.57306"><ele>122.0</ele><time>2026-04-19T10:04:50.986Z</time></trkpt><trkpt lat="45.297305" lon="8.5729367"><ele>122.0</ele><time>2026-04-19T10:04:51.986Z</time></trkpt><trkpt lat="45.297295" lon="8.5728133"><ele>121.39999999999999</ele><time>2026-04-19T10:04:52.985Z</time></trkpt><trkpt lat="45.2972867" lon="8.5727067"><ele>120.79999999999998</ele><time>2026-04-19T10:04:53.986Z</time></trkpt><trkpt lat="45.2972467" lon="8.57256"><ele>120.2</ele><time>2026-04-19T10:04:55.985Z</time></trkpt><trkpt lat="45.29716" lon="8.57249"><ele>119.6</ele><time>2026-04-19T10:04:57.986Z</time></trkpt><trkpt lat="45.2970283" lon="8.5725267"><ele>119.0</ele><time>2026-04-19T10:04:59.986Z</time></trkpt><trkpt lat="45.29693" lon="8.572545"><ele>118.75</ele><time>2026-04-19T10:05:00.986Z</time></trkpt><trkpt lat="45.2968183" lon="8.5725583"><ele>118.5</ele><time>2026-04-19T10:05:01.985Z</time></trkpt><trkpt lat="45.2967033" lon="8.572585"><ele>118.25</ele><time>2026-04-19T10:05:02.986Z</time></trkpt><trkpt lat="45.2965783" lon="8.5725867"><ele>118.0</ele><time>2026-04-19T10:05:03.985Z</time></trkpt><trkpt lat="45.29645" lon="8.572605"><ele>118.0</ele><time>2026-04-19T10:05:04.985Z</time></trkpt><trkpt lat="45.2963217" lon="8.5726317"><ele>118.0</ele><time>2026-04-19T10:05:05.985Z</time></trkpt><trkpt lat="45.2961883" lon="8.5726617"><ele>118.0</ele><time>2026-04-19T10:05:06.986Z</time></trkpt><trkpt lat="45.29605" lon="8.5726983"><ele>118.0</ele><time>2026-04-19T10:05:07.985Z</time></trkpt><trkpt lat="45.2959133" lon="8.5727267"><ele>118.0</ele><time>2026-04-19T10:05:08.986Z</time></trkpt><trkpt lat="45.29578" lon="8.5727533"><ele>118.0</ele><time>2026-04-19T10:05:09.986Z</time></trkpt><trkpt lat="45.295645" lon="8.5727783"><ele>118.0</ele><time>2026-04-19T10:05:10.985Z</time></trkpt><trkpt lat="45.2955017" lon="8.5728067"><ele>118.0</ele><time>2026-04-19T10:05:11.986Z</time></trkpt><trkpt lat="45.2953533" lon="8.57284"><ele>118.0</ele><time>2026-04-19T10:05:12.985Z</time></trkpt><trkpt lat="45.2952033" lon="8.57287"><ele>118.0</ele><time>2026-04-19T10:05:13.986Z</time></trkpt><trkpt lat="45.2950533" lon="8.572895"><ele>118.0</ele><time>2026-04-19T10:05:14.986Z</time></trkpt><trkpt lat="45.2949" lon="8.572925"><ele>117.75</ele><time>2026-04-19T10:05:15.985Z</time></trkpt><trkpt lat="45.2947517" lon="8.5729567"><ele>117.5</ele><time>2026-04-19T10:05:16.986Z</time></trkpt><trkpt lat="45.2946" lon="8.5729883"><ele>117.25</ele><time>2026-04-19T10:05:17.985Z</time></trkpt><trkpt lat="45.2944567" lon="8.57302"><ele>117.0</ele><time>2026-04-19T10:05:18.985Z</time></trkpt><trkpt lat="45.2943083" lon="8.573045"><ele>117.0</ele><time>2026-04-19T10:05:19.986Z</time></trkpt><trkpt lat="45.2941567" lon="8.5730683"><ele>117.0</ele><time>2026-04-19T10:05:20.985Z</time></trkpt><trkpt lat="45.2940017" lon="8.5731"><ele>117.0</ele><time>2026-04-19T10:05:21.986Z</time></trkpt><trkpt lat="45.2938517" lon="8.5731333"><ele>117.33333333333334</ele><time>2026-04-19T10:05:22.986Z</time></trkpt><trkpt lat="45.2937017" lon="8.573165"><ele>117.66666666666667</ele><time>2026-04-19T10:05:23.986Z</time></trkpt><trkpt lat="45.2935517" lon="8.5731883"><ele>118.0</ele><time>2026-04-19T10:05:24.986Z</time></trkpt><trkpt lat="45.2933983" lon="8.5732133"><ele>118.0</ele><time>2026-04-19T10:05:25.986Z</time></trkpt><trkpt lat="45.2932467" lon="8.5732467"><ele>118.0</ele><time>2026-04-19T10:05:26.986Z</time></trkpt><trkpt lat="45.2931017" lon="8.573275"><ele>118.0</ele><time>2026-04-19T10:05:27.986Z</time></trkpt><trkpt lat="45.2929583" lon="8.5732983"><ele>118.0</ele><time>2026-04-19T10:05:28.986Z</time></trkpt><trkpt lat="45.292805" lon="8.57333"><ele>118.0</ele><time>2026-04-19T10:05:29.986Z</time></trkpt><trkpt lat="45.2926583" lon="8.573355"><ele>118.0</ele><time>2026-04-19T10:05:30.985Z</time></trkpt><trkpt lat="45.2925117" lon="8.5733817"><ele>118.0</ele><time>2026-04-19T10:05:31.985Z</time></trkpt><trkpt lat="45.2923583" lon="8.573415"><ele>118.33333333333334</ele><time>2026-04-19T10:05:32.986Z</time></trkpt><trkpt lat="45.2922033" lon="8.5734483"><ele>118.66666666666666</ele><time>2026-04-19T10:05:33.986Z</time></trkpt><trkpt lat="45.2920517" lon="8.573475"><ele>119.0</ele><time>2026-04-19T10:05:34.986Z</time></trkpt><trkpt lat="45.291895" lon="8.5735183"><ele>119.0</ele><time>2026-04-19T10:05:35.986Z</time></trkpt><trkpt lat="45.29174" lon="8.5735433"><ele>119.0</ele><time>2026-04-19T10:05:36.985Z</time></trkpt><trkpt lat="45.2915833" lon="8.573565"><ele>119.0</ele><time>2026-04-19T10:05:37.986Z</time></trkpt><trkpt lat="45.2914267" lon="8.5735917"><ele>118.0</ele><time>2026-04-19T10:05:38.986Z</time></trkpt><trkpt lat="45.2912717" lon="8.57362"><ele>117.0</ele><time>2026-04-19T10:05:39.985Z</time></trkpt><trkpt lat="45.2911133" lon="8.5736533"><ele>116.0</ele><time>2026-04-19T10:05:40.986Z</time></trkpt><trkpt lat="45.2909583" lon="8.57368"><ele>116.66666666666666</ele><time>2026-04-19T10:05:41.986Z</time></trkpt><trkpt lat="45.2908067" lon="8.5737167"><ele>117.33333333333334</ele><time>2026-04-19T10:05:42.986Z</time></trkpt><trkpt lat="45.29065" lon="8.5737433"><ele>118.0</ele><time>2026-04-19T10:05:43.985Z</time></trkpt><trkpt lat="45.29051" lon="8.57377"><ele>119.5</ele><time>2026-04-19T10:05:44.986Z</time></trkpt><trkpt lat="45.29038" lon="8.5738017"><ele>121.0</ele><time>2026-04-19T10:05:45.984Z</time></trkpt><trkpt lat="45.290255" lon="8.5738267"><ele>122.5</ele><time>2026-04-19T10:05:46.984Z</time></trkpt><trkpt lat="45.2901383" lon="8.57384"><ele>124.0</ele><time>2026-04-19T10:05:47.985Z</time></trkpt><trkpt lat="45.29003" lon="8.5738617"><ele>124.00000000000001</ele><time>2026-04-19T10:05:48.984Z</time></trkpt><trkpt lat="45.2899333" lon="8.5738817"><ele>124.0</ele><time>2026-04-19T10:05:49.984Z</time></trkpt><trkpt lat="45.2898467" lon="8.5738917"><ele>124.0</ele><time>2026-04-19T10:05:50.985Z</time></trkpt><trkpt lat="45.2897633" lon="8.57391"><ele>124.0</ele><time>2026-04-19T10:05:51.984Z</time></trkpt><trkpt lat="45.2896633" lon="8.57392"><ele>124.00000000000001</ele><time>2026-04-19T10:05:53.984Z</time></trkpt><trkpt lat="45.2896067" lon="8.5738667"><ele>124.0</ele><time>2026-04-19T10:05:55.985Z</time></trkpt><trkpt lat="45.2895883" lon="8.5737133"><ele>122.0</ele><time>2026-04-19T10:05:57.985Z</time></trkpt><trkpt lat="45.28959" lon="8.5735817"><ele>120.0</ele><time>2026-04-19T10:05:58.985Z</time></trkpt><trkpt lat="45.2895967" lon="8.5734117"><ele>118.0</ele><time>2026-04-19T10:05:59.984Z</time></trkpt><trkpt lat="45.2896117" lon="8.5732133"><ele>116.0</ele><time>2026-04-19T10:06:00.984Z</time></trkpt><trkpt lat="45.2896183" lon="8.5729967"><ele>116.0</ele><time>2026-04-19T10:06:01.985Z</time></trkpt><trkpt lat="45.289625" lon="8.5727833"><ele>116.0</ele><time>2026-04-19T10:06:02.985Z</time></trkpt><trkpt lat="45.2896217" lon="8.5725667"><ele>116.0</ele><time>2026-04-19T10:06:03.985Z</time></trkpt><trkpt lat="45.2896217" lon="8.57234"><ele>116.0</ele><time>2026-04-19T10:06:04.985Z</time></trkpt><trkpt lat="45.2896217" lon="8.572095"><ele>116.0</ele><time>2026-04-19T10:06:05.984Z</time></trkpt><trkpt lat="45.2896183" lon="8.57184"><ele>116.0</ele><time>2026-04-19T10:06:06.985Z</time></trkpt><trkpt lat="45.28962" lon="8.5715867"><ele>116.0</ele><time>2026-04-19T10:06:07.985Z</time></trkpt><trkpt lat="45.2896167" lon="8.571315"><ele>116.0</ele><time>2026-04-19T10:06:08.984Z</time></trkpt><trkpt lat="45.2896083" lon="8.5710367"><ele>116.0</ele><time>2026-04-19T10:06:09.985Z</time></trkpt><trkpt lat="45.2896067" lon="8.57076"><ele>116.33333333333333</ele><time>2026-04-19T10:06:10.984Z</time></trkpt><trkpt lat="45.2896133" lon="8.570485"><ele>116.66666666666666</ele><time>2026-04-19T10:06:11.984Z</time></trkpt><trkpt lat="45.2896417" lon="8.5702167"><ele>117.0</ele><time>2026-04-19T10:06:12.985Z</time></trkpt><trkpt lat="45.289675" lon="8.569955"><ele>117.33333333333334</ele><time>2026-04-19T10:06:13.985Z</time></trkpt><trkpt lat="45.289725" lon="8.5697"><ele>117.66666666666667</ele><time>2026-04-19T10:06:14.985Z</time></trkpt><trkpt lat="45.2897867" lon="8.56944"><ele>118.0</ele><time>2026-04-19T10:06:15.985Z</time></trkpt><trkpt lat="45.2898533" lon="8.569185"><ele>118.0</ele><time>2026-04-19T10:06:16.985Z</time></trkpt><trkpt lat="45.289935" lon="8.5689217"><ele>118.0</ele><time>2026-04-19T10:06:17.985Z</time></trkpt><trkpt lat="45.2900167" lon="8.5686617"><ele>118.0</ele><time>2026-04-19T10:06:18.984Z</time></trkpt><trkpt lat="45.290105" lon="8.5684017"><ele>117.66666666666667</ele><time>2026-04-19T10:06:19.985Z</time></trkpt><trkpt lat="45.2901917" lon="8.5681483"><ele>117.33333333333334</ele><time>2026-04-19T10:06:20.984Z</time></trkpt><trkpt lat="45.2902783" lon="8.5678883"><ele>117.0</ele><time>2026-04-19T10:06:21.984Z</time></trkpt><trkpt lat="45.2903617" lon="8.5676333"><ele>117.0</ele><time>2026-04-19T10:06:22.985Z</time></trkpt><trkpt lat="45.290445" lon="8.56737"><ele>117.0</ele><time>2026-04-19T10:06:23.985Z</time></trkpt><trkpt lat="45.2905317" lon="8.5671033"><ele>117.0</ele><time>2026-04-19T10:06:24.984Z</time></trkpt><trkpt lat="45.290625" lon="8.56683"><ele>117.33333333333334</ele><time>2026-04-19T10:06:25.985Z</time></trkpt><trkpt lat="45.290715" lon="8.5665617"><ele>117.66666666666667</ele><time>2026-04-19T10:06:26.985Z</time></trkpt><trkpt lat="45.2908083" lon="8.56629"><ele>118.0</ele><time>2026-04-19T10:06:27.984Z</time></trkpt><trkpt lat="45.2908983" lon="8.5660217"><ele>118.0</ele><time>2026-04-19T10:06:28.984Z</time></trkpt><trkpt lat="45.290985" lon="8.5657517"><ele>118.0</ele><time>2026-04-19T10:06:29.985Z</time></trkpt><trkpt lat="45.2910767" lon="8.5654817"><ele>118.0</ele><time>2026-04-19T10:06:30.985Z</time></trkpt><trkpt lat="45.291165" lon="8.565215"><ele>117.66666666666667</ele><time>2026-04-19T10:06:31.985Z</time></trkpt><trkpt lat="45.291265" lon="8.5649433"><ele>117.33333333333334</ele><time>2026-04-19T10:06:32.985Z</time></trkpt><trkpt lat="45.2913633" lon="8.56467"><ele>117.0</ele><time>2026-04-19T10:06:33.984Z</time></trkpt><trkpt lat="45.2914583" lon="8.5643983"><ele>117.0</ele><time>2026-04-19T10:06:34.984Z</time></trkpt><trkpt lat="45.2915517" lon="8.5641267"><ele>117.0</ele><time>2026-04-19T10:06:35.985Z</time></trkpt><trkpt lat="45.291645" lon="8.5638517"><ele>117.0</ele><time>2026-04-19T10:06:36.985Z</time></trkpt><trkpt lat="45.2917333" lon="8.563565"><ele>117.0</ele><time>2026-04-19T10:06:37.984Z</time></trkpt><trkpt lat="45.2918267" lon="8.5632883"><ele>117.0</ele><time>2026-04-19T10:06:38.984Z</time></trkpt><trkpt lat="45.2919217" lon="8.563015"><ele>117.0</ele><time>2026-04-19T10:06:39.985Z</time></trkpt><trkpt lat="45.2920117" lon="8.562735"><ele>117.0</ele><time>2026-04-19T10:06:40.984Z</time></trkpt><trkpt lat="45.2921033" lon="8.5624583"><ele>117.0</ele><time>2026-04-19T10:06:41.984Z</time></trkpt><trkpt lat="45.2921983" lon="8.5621767"><ele>117.0</ele><time>2026-04-19T10:06:42.985Z</time></trkpt><trkpt lat="45.2922983" lon="8.5618933"><ele>117.0</ele><time>2026-04-19T10:06:43.985Z</time></trkpt><trkpt lat="45.2923983" lon="8.56162"><ele>117.0</ele><time>2026-04-19T10:06:44.985Z</time></trkpt><trkpt lat="45.2924917" lon="8.5613383"><ele>117.0</ele><time>2026-04-19T10:06:45.985Z</time></trkpt><trkpt lat="45.2925867" lon="8.5610533"><ele>117.0</ele><time>2026-04-19T10:06:46.985Z</time></trkpt><trkpt lat="45.292685" lon="8.56077"><ele>117.0</ele><time>2026-04-19T10:06:47.984Z</time></trkpt><trkpt lat="45.2927817" lon="8.5604817"><ele>117.0</ele><time>2026-04-19T10:06:48.984Z</time></trkpt><trkpt lat="45.2928783" lon="8.5601917"><ele>117.0</ele><time>2026-04-19T10:06:49.985Z</time></trkpt><trkpt lat="45.2929717" lon="8.559905"><ele>117.0</ele><time>2026-04-19T10:06:50.985Z</time></trkpt><trkpt lat="45.2930717" lon="8.559615"><ele>117.0</ele><time>2026-04-19T10:06:51.984Z</time></trkpt><trkpt lat="45.29317" lon="8.5593233"><ele>117.0</ele><time>2026-04-19T10:06:52.984Z</time></trkpt><trkpt lat="45.293265" lon="8.5590367"><ele>117.0</ele><time>2026-04-19T10:06:53.985Z</time></trkpt><trkpt lat="45.2933717" lon="8.5587533"><ele>117.0</ele><time>2026-04-19T10:06:54.984Z</time></trkpt><trkpt lat="45.2934683" lon="8.5584667"><ele>117.0</ele><time>2026-04-19T10:06:55.985Z</time></trkpt><trkpt lat="45.2935683" lon="8.5581833"><ele>117.0</ele><time>2026-04-19T10:06:56.984Z</time></trkpt><trkpt lat="45.2936617" lon="8.5578917"><ele>117.0</ele><time>2026-04-19T10:06:57.985Z</time></trkpt><trkpt lat="45.293755" lon="8.557605"><ele>117.0</ele><time>2026-04-19T10:06:58.985Z</time></trkpt><trkpt lat="45.2938533" lon="8.5573233"><ele>117.0</ele><time>2026-04-19T10:06:59.984Z</time></trkpt><trkpt lat="45.2939517" lon="8.5570433"><ele>117.0</ele><time>2026-04-19T10:07:00.985Z</time></trkpt><trkpt lat="45.2940533" lon="8.556755"><ele>117.33333333333334</ele><time>2026-04-19T10:07:01.984Z</time></trkpt><trkpt lat="45.294155" lon="8.5564667"><ele>117.66666666666667</ele><time>2026-04-19T10:07:02.985Z</time></trkpt><trkpt lat="45.294245" lon="8.5561817"><ele>118.0</ele><time>2026-04-19T10:07:03.984Z</time></trkpt><trkpt lat="45.2943417" lon="8.5558933"><ele>118.0</ele><time>2026-04-19T10:07:04.984Z</time></trkpt><trkpt lat="45.2944383" lon="8.555605"><ele>118.0</ele><time>2026-04-19T10:07:05.985Z</time></trkpt><trkpt lat="45.2945333" lon="8.555325"><ele>118.0</ele><time>2026-04-19T10:07:06.985Z</time></trkpt><trkpt lat="45.2946283" lon="8.555045"><ele>118.0</ele><time>2026-04-19T10:07:07.984Z</time></trkpt><trkpt lat="45.2947233" lon="8.55476"><ele>118.0</ele><time>2026-04-19T10:07:08.984Z</time></trkpt><trkpt lat="45.29482" lon="8.5544817"><ele>118.0</ele><time>2026-04-19T10:07:09.985Z</time></trkpt><trkpt lat="45.2949183" lon="8.554205"><ele>118.0</ele><time>2026-04-19T10:07:10.984Z</time></trkpt><trkpt lat="45.2950117" lon="8.5539267"><ele>118.0</ele><time>2026-04-19T10:07:11.984Z</time></trkpt><trkpt lat="45.295105" lon="8.5536533"><ele>118.0</ele><time>2026-04-19T10:07:12.984Z</time></trkpt><trkpt lat="45.295195" lon="8.55338"><ele>118.0</ele><time>2026-04-19T10:07:13.984Z</time></trkpt><trkpt lat="45.2952917" lon="8.5531133"><ele>118.0</ele><time>2026-04-19T10:07:14.985Z</time></trkpt><trkpt lat="45.2953833" lon="8.5528417"><ele>118.0</ele><time>2026-04-19T10:07:15.984Z</time></trkpt><trkpt lat="45.2954733" lon="8.5525667"><ele>117.66666666666667</ele><time>2026-04-19T10:07:16.985Z</time></trkpt><trkpt lat="45.2955633" lon="8.552295"><ele>117.33333333333334</ele><time>2026-04-19T10:07:17.984Z</time></trkpt><trkpt lat="45.2956517" lon="8.552025"><ele>117.0</ele><time>2026-04-19T10:07:18.984Z</time></trkpt><trkpt lat="45.2957483" lon="8.55175"><ele>118.0</ele><time>2026-04-19T10:07:19.985Z</time></trkpt><trkpt lat="45.2958483" lon="8.551475"><ele>119.0</ele><time>2026-04-19T10:07:20.985Z</time></trkpt><trkpt lat="45.29594" lon="8.551195"><ele>120.0</ele><time>2026-04-19T10:07:21.985Z</time></trkpt><trkpt lat="45.2960317" lon="8.5509183"><ele>120.0</ele><time>2026-04-19T10:07:22.985Z</time></trkpt><trkpt lat="45.2961267" lon="8.55065"><ele>120.0</ele><time>2026-04-19T10:07:23.985Z</time></trkpt><trkpt lat="45.2962167" lon="8.55038"><ele>120.0</ele><time>2026-04-19T10:07:24.985Z</time></trkpt><trkpt lat="45.2963083" lon="8.5501067"><ele>120.0</ele><time>2026-04-19T10:07:25.984Z</time></trkpt><trkpt lat="45.2964017" lon="8.54984"><ele>120.0</ele><time>2026-04-19T10:07:26.984Z</time></trkpt><trkpt lat="45.29649" lon="8.54957"><ele>120.0</ele><time>2026-04-19T10:07:27.985Z</time></trkpt><trkpt lat="45.296585" lon="8.549295"><ele>120.0</ele><time>2026-04-19T10:07:28.984Z</time></trkpt><trkpt lat="45.2966867" lon="8.549035"><ele>120.0</ele><time>2026-04-19T10:07:29.984Z</time></trkpt><trkpt lat="45.2967767" lon="8.5487633"><ele>120.0</ele><time>2026-04-19T10:07:30.985Z</time></trkpt><trkpt lat="45.2968617" lon="8.5484917"><ele>119.0</ele><time>2026-04-19T10:07:31.984Z</time></trkpt><trkpt lat="45.2969517" lon="8.5482083"><ele>118.0</ele><time>2026-04-19T10:07:32.985Z</time></trkpt><trkpt lat="45.297055" lon="8.5479317"><ele>117.0</ele><time>2026-04-19T10:07:33.985Z</time></trkpt><trkpt lat="45.2971483" lon="8.5476583"><ele>117.0</ele><time>2026-04-19T10:07:34.985Z</time></trkpt><trkpt lat="45.2972417" lon="8.54738"><ele>117.0</ele><time>2026-04-19T10:07:35.985Z</time></trkpt><trkpt lat="45.2973367" lon="8.5471083"><ele>117.0</ele><time>2026-04-19T10:07:36.985Z</time></trkpt><trkpt lat="45.2974233" lon="8.5468333"><ele>117.0</ele><time>2026-04-19T10:07:37.984Z</time></trkpt><trkpt lat="45.297515" lon="8.5465633"><ele>117.0</ele><time>2026-04-19T10:07:38.984Z</time></trkpt><trkpt lat="45.297605" lon="8.5462917"><ele>117.0</ele><time>2026-04-19T10:07:39.985Z</time></trkpt><trkpt lat="45.2977" lon="8.5460217"><ele>117.0</ele><time>2026-04-19T10:07:40.985Z</time></trkpt><trkpt lat="45.2977883" lon="8.5457567"><ele>117.0</ele><time>2026-04-19T10:07:41.985Z</time></trkpt><trkpt lat="45.2978733" lon="8.545515"><ele>117.0</ele><time>2026-04-19T10:07:42.985Z</time></trkpt><trkpt lat="45.2979533" lon="8.5452667"><ele>117.0</ele><time>2026-04-19T10:07:43.985Z</time></trkpt><trkpt lat="45.2980383" lon="8.54502"><ele>117.0</ele><time>2026-04-19T10:07:44.985Z</time></trkpt><trkpt lat="45.2981167" lon="8.5447833"><ele>117.0</ele><time>2026-04-19T10:07:45.985Z</time></trkpt><trkpt lat="45.2981967" lon="8.54455"><ele>117.33333333333334</ele><time>2026-04-19T10:07:46.985Z</time></trkpt><trkpt lat="45.2982733" lon="8.54433"><ele>117.66666666666667</ele><time>2026-04-19T10:07:47.985Z</time></trkpt><trkpt lat="45.2983383" lon="8.5441267"><ele>118.0</ele><time>2026-04-19T10:07:48.985Z</time></trkpt><trkpt lat="45.2984117" lon="8.54392"><ele>118.0</ele><time>2026-04-19T10:07:49.984Z</time></trkpt><trkpt lat="45.29848" lon="8.543725"><ele>118.0</ele><time>2026-04-19T10:07:50.985Z</time></trkpt><trkpt lat="45.2985433" lon="8.5435433"><ele>118.0</ele><time>2026-04-19T10:07:51.985Z</time></trkpt><trkpt lat="45.2986033" lon="8.5433667"><ele>118.0</ele><time>2026-04-19T10:07:52.984Z</time></trkpt><trkpt lat="45.2986583" lon="8.5431883"><ele>118.0</ele><time>2026-04-19T10:07:53.985Z</time></trkpt><trkpt lat="45.29871" lon="8.54303"><ele>118.0</ele><time>2026-04-19T10:07:54.984Z</time></trkpt><trkpt lat="45.2987583" lon="8.542875"><ele>118.0</ele><time>2026-04-19T10:07:55.984Z</time></trkpt><trkpt lat="45.2988067" lon="8.5427267"><ele>118.0</ele><time>2026-04-19T10:07:56.984Z</time></trkpt><trkpt lat="45.298855" lon="8.54259"><ele>118.00000000000001</ele><time>2026-04-19T10:07:57.984Z</time></trkpt><trkpt lat="45.2989017" lon="8.5424733"><ele>118.0</ele><time>2026-04-19T10:07:58.985Z</time></trkpt><trkpt lat="45.2989217" lon="8.5423667"><ele>118.0</ele><time>2026-04-19T10:07:59.984Z</time></trkpt><trkpt lat="45.298935" lon="8.5422583"><ele>118.0</ele><time>2026-04-19T10:08:00.985Z</time></trkpt><trkpt lat="45.2989" lon="8.5421567"><ele>118.00000000000001</ele><time>2026-04-19T10:08:01.985Z</time></trkpt><trkpt lat="45.2988333" lon="8.5420467"><ele>118.0</ele><time>2026-04-19T10:08:02.984Z</time></trkpt><trkpt lat="45.2987483" lon="8.541935"><ele>118.25</ele><time>2026-04-19T10:08:03.985Z</time></trkpt><trkpt lat="45.2986633" lon="8.5418283"><ele>118.5</ele><time>2026-04-19T10:08:04.984Z</time></trkpt><trkpt lat="45.2985767" lon="8.5417233"><ele>118.75</ele><time>2026-04-19T10:08:05.985Z</time></trkpt><trkpt lat="45.2984867" lon="8.54162"><ele>119.0</ele><time>2026-04-19T10:08:06.985Z</time></trkpt><trkpt lat="45.2983967" lon="8.5415167"><ele>119.0</ele><time>2026-04-19T10:08:07.984Z</time></trkpt><trkpt lat="45.2983367" lon="8.5414067"><ele>119.0</ele><time>2026-04-19T10:08:08.985Z</time></trkpt><trkpt lat="45.2982783" lon="8.541265"><ele>119.0</ele><time>2026-04-19T10:08:09.985Z</time></trkpt><trkpt lat="45.2982367" lon="8.541125"><ele>119.0</ele><time>2026-04-19T10:08:10.985Z</time></trkpt><trkpt lat="45.29821" lon="8.54097"><ele>119.0</ele><time>2026-04-19T10:08:11.985Z</time></trkpt><trkpt lat="45.29821" lon="8.5408"><ele>119.0</ele><time>2026-04-19T10:08:12.985Z</time></trkpt><trkpt lat="45.29821" lon="8.5406217"><ele>119.0</ele><time>2026-04-19T10:08:13.984Z</time></trkpt><trkpt lat="45.2982017" lon="8.5404417"><ele>119.0</ele><time>2026-04-19T10:08:14.985Z</time></trkpt><trkpt lat="45.2981933" lon="8.5402533"><ele>119.0</ele><time>2026-04-19T10:08:15.984Z</time></trkpt><trkpt lat="45.2981817" lon="8.5400617"><ele>119.0</ele><time>2026-04-19T10:08:16.985Z</time></trkpt><trkpt lat="45.2981667" lon="8.5398667"><ele>119.0</ele><time>2026-04-19T10:08:17.985Z</time></trkpt><trkpt lat="45.2981617" lon="8.5396833"><ele>119.0</ele><time>2026-04-19T10:08:18.984Z</time></trkpt><trkpt lat="45.2981583" lon="8.5395217"><ele>119.0</ele><time>2026-04-19T10:08:19.985Z</time></trkpt><trkpt lat="45.2981567" lon="8.53938"><ele>118.99999999999999</ele><time>2026-04-19T10:08:20.984Z</time></trkpt><trkpt lat="45.2981483" lon="8.5392567"><ele>119.0</ele><time>2026-04-19T10:08:21.984Z</time></trkpt><trkpt lat="45.29815" lon="8.5391333"><ele>119.0</ele><time>2026-04-19T10:08:22.984Z</time></trkpt><trkpt lat="45.2981467" lon="8.5390167"><ele>119.0</ele><time>2026-04-19T10:08:23.984Z</time></trkpt><trkpt lat="45.298145" lon="8.5389033"><ele>118.99999999999999</ele><time>2026-04-19T10:08:24.985Z</time></trkpt><trkpt lat="45.2981383" lon="8.5387783"><ele>119.0</ele><time>2026-04-19T10:08:25.984Z</time></trkpt><trkpt lat="45.29813" lon="8.5386267"><ele>119.0</ele><time>2026-04-19T10:08:26.985Z</time></trkpt><trkpt lat="45.2981233" lon="8.5384767"><ele>119.0</ele><time>2026-04-19T10:08:27.984Z</time></trkpt><trkpt lat="45.2981283" lon="8.538315"><ele>119.0</ele><time>2026-04-19T10:08:28.984Z</time></trkpt><trkpt lat="45.29812" lon="8.5381633"><ele>119.0</ele><time>2026-04-19T10:08:29.985Z</time></trkpt><trkpt lat="45.29811" lon="8.5380067"><ele>119.0</ele><time>2026-04-19T10:08:30.985Z</time></trkpt><trkpt lat="45.2981067" lon="8.537835"><ele>119.0</ele><time>2026-04-19T10:08:31.985Z</time></trkpt><trkpt lat="45.2980983" lon="8.5376683"><ele>119.0</ele><time>2026-04-19T10:08:32.985Z</time></trkpt><trkpt lat="45.2980983" lon="8.5375117"><ele>119.0</ele><time>2026-04-19T10:08:33.984Z</time></trkpt><trkpt lat="45.298095" lon="8.53735"><ele>119.0</ele><time>2026-04-19T10:08:34.984Z</time></trkpt><trkpt lat="45.2981017" lon="8.5372133"><ele>119.0</ele><time>2026-04-19T10:08:35.985Z</time></trkpt><trkpt lat="45.2981067" lon="8.5371083"><ele>119.0</ele><time>2026-04-19T10:08:36.985Z</time></trkpt><trkpt lat="45.298145" lon="8.5369583"><ele>119.0</ele><time>2026-04-19T10:08:38.985Z</time></trkpt><trkpt lat="45.2981833" lon="8.5368733"><ele>119.0</ele><time>2026-04-19T10:08:39.985Z</time></trkpt><trkpt lat="45.2982317" lon="8.53678"><ele>119.0</ele><time>2026-04-19T10:08:40.985Z</time></trkpt><trkpt lat="45.2982883" lon="8.5366867"><ele>119.0</ele><time>2026-04-19T10:08:41.985Z</time></trkpt><trkpt lat="45.2983517" lon="8.53656"><ele>118.99999999999999</ele><time>2026-04-19T10:08:42.985Z</time></trkpt><trkpt lat="45.2983983" lon="8.5364317"><ele>119.0</ele><time>2026-04-19T10:08:43.985Z</time></trkpt><trkpt lat="45.2984383" lon="8.5363267"><ele>119.0</ele><time>2026-04-19T10:08:44.984Z</time></trkpt><trkpt lat="45.2984633" lon="8.53624"><ele>119.0</ele><time>2026-04-19T10:08:45.985Z</time></trkpt><trkpt lat="45.2984917" lon="8.536145"><ele>118.99999999999999</ele><time>2026-04-19T10:08:46.985Z</time></trkpt><trkpt lat="45.2985367" lon="8.5359967"><ele>119.0</ele><time>2026-04-19T10:08:48.984Z</time></trkpt><trkpt lat="45.298555" lon="8.5358833"><ele>118.80000000000001</ele><time>2026-04-19T10:08:50.985Z</time></trkpt><trkpt lat="45.2985667" lon="8.53572"><ele>118.60000000000001</ele><time>2026-04-19T10:09:47.983Z</time></trkpt><trkpt lat="45.29858" lon="8.5355783"><ele>118.4</ele><time>2026-04-19T10:09:49.984Z</time></trkpt><trkpt lat="45.2985817" lon="8.53547"><ele>118.2</ele><time>2026-04-19T10:09:50.984Z</time></trkpt><trkpt lat="45.2985817" lon="8.535365"><ele>118.0</ele><time>2026-04-19T10:09:51.984Z</time></trkpt><trkpt lat="45.2986183" lon="8.53521"><ele>118.4</ele><time>2026-04-19T10:09:53.984Z</time></trkpt><trkpt lat="45.2986867" lon="8.5351267"><ele>118.80000000000001</ele><time>2026-04-19T10:09:55.983Z</time></trkpt><trkpt lat="45.2988033" lon="8.5351967"><ele>119.2</ele><time>2026-04-19T10:09:56.984Z</time></trkpt><trkpt lat="45.2988967" lon="8.5352317"><ele>119.6</ele><time>2026-04-19T10:09:57.983Z</time></trkpt><trkpt lat="45.2990017" lon="8.5352767"><ele>120.0</ele><time>2026-04-19T10:09:58.983Z</time></trkpt><trkpt lat="45.2991017" lon="8.535315"><ele>120.16666666666667</ele><time>2026-04-19T10:09:59.984Z</time></trkpt><trkpt lat="45.299205" lon="8.5353217"><ele>120.33333333333334</ele><time>2026-04-19T10:10:00.984Z</time></trkpt><trkpt lat="45.2992933" lon="8.535305"><ele>120.5</ele><time>2026-04-19T10:10:01.984Z</time></trkpt><trkpt lat="45.29937" lon="8.5352667"><ele>120.66666666666667</ele><time>2026-04-19T10:10:02.984Z</time></trkpt><trkpt lat="45.29944" lon="8.5352183"><ele>120.83333333333334</ele><time>2026-04-19T10:10:03.984Z</time></trkpt><trkpt lat="45.2995167" lon="8.5351583"><ele>121.0</ele><time>2026-04-19T10:10:04.983Z</time></trkpt><trkpt lat="45.2995883" lon="8.5350367"><ele>121.0</ele><time>2026-04-19T10:10:05.983Z</time></trkpt><trkpt lat="45.2996317" lon="8.5349383"><ele>121.0</ele><time>2026-04-19T10:10:06.984Z</time></trkpt><trkpt lat="45.2996617" lon="8.5348283"><ele>121.0</ele><time>2026-04-19T10:10:07.984Z</time></trkpt><trkpt lat="45.2996817" lon="8.5347117"><ele>121.0</ele><time>2026-04-19T10:10:08.984Z</time></trkpt><trkpt lat="45.299705" lon="8.5345767"><ele>121.0</ele><time>2026-04-19T10:10:09.984Z</time></trkpt><trkpt lat="45.2997183" lon="8.5344283"><ele>121.25</ele><time>2026-04-19T10:10:10.983Z</time></trkpt><trkpt lat="45.2997333" lon="8.534265"><ele>121.5</ele><time>2026-04-19T10:10:11.983Z</time></trkpt><trkpt lat="45.2997367" lon="8.5341033"><ele>121.75</ele><time>2026-04-19T10:10:12.983Z</time></trkpt><trkpt lat="45.2997317" lon="8.5339433"><ele>122.0</ele><time>2026-04-19T10:10:13.984Z</time></trkpt><trkpt lat="45.299745" lon="8.5337867"><ele>121.8</ele><time>2026-04-19T10:10:14.983Z</time></trkpt><trkpt lat="45.299755" lon="8.5336283"><ele>121.6</ele><time>2026-04-19T10:10:15.983Z</time></trkpt><trkpt lat="45.29976" lon="8.533475"><ele>121.39999999999999</ele><time>2026-04-19T10:10:16.984Z</time></trkpt><trkpt lat="45.2997717" lon="8.5333317"><ele>121.19999999999999</ele><time>2026-04-19T10:10:17.984Z</time></trkpt><trkpt lat="45.2997817" lon="8.53319"><ele>121.0</ele><time>2026-04-19T10:10:18.984Z</time></trkpt><trkpt lat="45.29978" lon="8.533045"><ele>121.0</ele><time>2026-04-19T10:10:19.983Z</time></trkpt><trkpt lat="45.2997633" lon="8.5329"><ele>121.0</ele><time>2026-04-19T10:10:20.983Z</time></trkpt><trkpt lat="45.2997467" lon="8.5327533"><ele>121.0</ele><time>2026-04-19T10:10:21.983Z</time></trkpt><trkpt lat="45.299735" lon="8.53261"><ele>121.0</ele><time>2026-04-19T10:10:22.984Z</time></trkpt><trkpt lat="45.299725" lon="8.5324767"><ele>121.0</ele><time>2026-04-19T10:10:23.984Z</time></trkpt><trkpt lat="45.2997133" lon="8.5323467"><ele>120.8</ele><time>2026-04-19T10:10:24.984Z</time></trkpt><trkpt lat="45.29971" lon="8.532235"><ele>120.6</ele><time>2026-04-19T10:10:25.983Z</time></trkpt><trkpt lat="45.2997133" lon="8.53209"><ele>120.4</ele><time>2026-04-19T10:10:27.983Z</time></trkpt><trkpt lat="45.2996867" lon="8.5319983"><ele>120.2</ele><time>2026-04-19T10:10:30.984Z</time></trkpt><trkpt lat="45.29956" lon="8.5319783"><ele>120.0</ele><time>2026-04-19T10:10:32.983Z</time></trkpt><trkpt lat="45.2994667" lon="8.531975"><ele>120.0</ele><time>2026-04-19T10:10:33.983Z</time></trkpt><trkpt lat="45.2993617" lon="8.5319717"><ele>120.0</ele><time>2026-04-19T10:10:34.983Z</time></trkpt><trkpt lat="45.299255" lon="8.5319767"><ele>120.0</ele><time>2026-04-19T10:10:35.983Z</time></trkpt><trkpt lat="45.2991533" lon="8.5319983"><ele>120.0</ele><time>2026-04-19T10:10:36.984Z</time></trkpt><trkpt lat="45.2990617" lon="8.5320367"><ele>120.0</ele><time>2026-04-19T10:10:37.984Z</time></trkpt><trkpt lat="45.2989817" lon="8.5320583"><ele>118.5</ele><time>2026-04-19T10:10:38.983Z</time></trkpt><trkpt lat="45.298875" lon="8.5320217"><ele>117.0</ele><time>2026-04-19T10:10:40.984Z</time></trkpt><trkpt lat="45.2988183" lon="8.531875"><ele>115.5</ele><time>2026-04-19T10:10:42.984Z</time></trkpt><trkpt lat="45.2987717" lon="8.5317067"><ele>114.0</ele><time>2026-04-19T10:10:44.984Z</time></trkpt><trkpt lat="45.2987067" lon="8.53156"><ele>114.0</ele><time>2026-04-19T10:10:46.983Z</time></trkpt><trkpt lat="45.2986617" lon="8.5314683"><ele>114.0</ele><time>2026-04-19T10:10:47.984Z</time></trkpt><trkpt lat="45.298625" lon="8.5313667"><ele>114.0</ele><time>2026-04-19T10:10:48.984Z</time></trkpt><trkpt lat="45.2985767" lon="8.5312617"><ele>114.0</ele><time>2026-04-19T10:10:49.984Z</time></trkpt><trkpt lat="45.2985167" lon="8.5311483"><ele>114.0</ele><time>2026-04-19T10:10:50.983Z</time></trkpt><trkpt lat="45.2984533" lon="8.531035"><ele>114.0</ele><time>2026-04-19T10:10:51.984Z</time></trkpt><trkpt lat="45.29839" lon="8.5309117"><ele>113.75</ele><time>2026-04-19T10:10:52.984Z</time></trkpt><trkpt lat="45.2983183" lon="8.5307867"><ele>113.5</ele><time>2026-04-19T10:10:53.984Z</time></trkpt><trkpt lat="45.2982483" lon="8.530645"><ele>113.25</ele><time>2026-04-19T10:10:54.983Z</time></trkpt><trkpt lat="45.2981683" lon="8.5305017"><ele>113.0</ele><time>2026-04-19T10:10:55.984Z</time></trkpt><trkpt lat="45.2980817" lon="8.53034"><ele>112.75</ele><time>2026-04-19T10:10:56.983Z</time></trkpt><trkpt lat="45.2980067" lon="8.53018"><ele>112.5</ele><time>2026-04-19T10:10:57.983Z</time></trkpt><trkpt lat="45.29794" lon="8.53"><ele>112.25</ele><time>2026-04-19T10:10:58.983Z</time></trkpt><trkpt lat="45.2978833" lon="8.5298167"><ele>112.0</ele><time>2026-04-19T10:10:59.984Z</time></trkpt><trkpt lat="45.2978183" lon="8.52963"><ele>112.0</ele><time>2026-04-19T10:11:00.984Z</time></trkpt><trkpt lat="45.29774" lon="8.5294617"><ele>112.0</ele><time>2026-04-19T10:11:01.983Z</time></trkpt><trkpt lat="45.29766" lon="8.529295"><ele>112.0</ele><time>2026-04-19T10:11:02.984Z</time></trkpt><trkpt lat="45.2975767" lon="8.5291367"><ele>112.0</ele><time>2026-04-19T10:11:03.983Z</time></trkpt><trkpt lat="45.2974783" lon="8.52897"><ele>112.0</ele><time>2026-04-19T10:11:04.983Z</time></trkpt><trkpt lat="45.2973867" lon="8.5288217"><ele>112.0</ele><time>2026-04-19T10:11:05.983Z</time></trkpt><trkpt lat="45.2972733" lon="8.5286867"><ele>112.0</ele><time>2026-04-19T10:11:06.984Z</time></trkpt><trkpt lat="45.29717" lon="8.5285533"><ele>112.0</ele><time>2026-04-19T10:11:07.983Z</time></trkpt><trkpt lat="45.2970617" lon="8.5284117"><ele>112.0</ele><time>2026-04-19T10:11:08.984Z</time></trkpt><trkpt lat="45.2969517" lon="8.5282883"><ele>112.0</ele><time>2026-04-19T10:11:09.983Z</time></trkpt><trkpt lat="45.2968433" lon="8.5281683"><ele>112.0</ele><time>2026-04-19T10:11:10.983Z</time></trkpt><trkpt lat="45.2967367" lon="8.52803"><ele>112.0</ele><time>2026-04-19T10:11:11.984Z</time></trkpt><trkpt lat="45.29663" lon="8.52789"><ele>112.0</ele><time>2026-04-19T10:11:12.983Z</time></trkpt><trkpt lat="45.2965333" lon="8.527745"><ele>112.0</ele><time>2026-04-19T10:11:13.983Z</time></trkpt><trkpt lat="45.296435" lon="8.5275833"><ele>112.0</ele><time>2026-04-19T10:11:14.984Z</time></trkpt><trkpt lat="45.296335" lon="8.5274233"><ele>112.0</ele><time>2026-04-19T10:11:15.984Z</time></trkpt><trkpt lat="45.296245" lon="8.5272667"><ele>112.0</ele><time>2026-04-19T10:11:16.984Z</time></trkpt><trkpt lat="45.29616" lon="8.5271167"><ele>112.0</ele><time>2026-04-19T10:11:17.984Z</time></trkpt><trkpt lat="45.2960733" lon="8.5269717"><ele>112.0</ele><time>2026-04-19T10:11:18.984Z</time></trkpt><trkpt lat="45.295985" lon="8.526815"><ele>112.0</ele><time>2026-04-19T10:11:19.984Z</time></trkpt><trkpt lat="45.2959" lon="8.52667"><ele>112.0</ele><time>2026-04-19T10:11:20.984Z</time></trkpt><trkpt lat="45.2958267" lon="8.526525"><ele>111.99999999999999</ele><time>2026-04-19T10:11:21.984Z</time></trkpt><trkpt lat="45.2957583" lon="8.5264"><ele>111.99999999999999</ele><time>2026-04-19T10:11:22.984Z</time></trkpt><trkpt lat="45.295695" lon="8.5262883"><ele>112.0</ele><time>2026-04-19T10:11:23.984Z</time></trkpt><trkpt lat="45.2956383" lon="8.5261767"><ele>112.0</ele><time>2026-04-19T10:11:24.984Z</time></trkpt><trkpt lat="45.295585" lon="8.5260733"><ele>112.6</ele><time>2026-04-19T10:11:25.983Z</time></trkpt><trkpt lat="45.2955417" lon="8.5259717"><ele>113.19999999999999</ele><time>2026-04-19T10:11:26.983Z</time></trkpt><trkpt lat="45.2955267" lon="8.5258667"><ele>113.8</ele><time>2026-04-19T10:11:27.983Z</time></trkpt><trkpt lat="45.2955367" lon="8.525755"><ele>114.4</ele><time>2026-04-19T10:11:28.983Z</time></trkpt><trkpt lat="45.2955567" lon="8.52561"><ele>115.0</ele><time>2026-04-19T10:11:29.983Z</time></trkpt><trkpt lat="45.295575" lon="8.5254583"><ele>114.8</ele><time>2026-04-19T10:11:30.984Z</time></trkpt><trkpt lat="45.2956083" lon="8.52531"><ele>114.6</ele><time>2026-04-19T10:11:31.984Z</time></trkpt><trkpt lat="45.29564" lon="8.52516"><ele>114.4</ele><time>2026-04-19T10:11:32.984Z</time></trkpt><trkpt lat="45.2956667" lon="8.5250367"><ele>114.2</ele><time>2026-04-19T10:11:33.983Z</time></trkpt><trkpt lat="45.2957067" lon="8.5249217"><ele>114.0</ele><time>2026-04-19T10:11:34.983Z</time></trkpt><trkpt lat="45.2957633" lon="8.5248233"><ele>114.0</ele><time>2026-04-19T10:11:35.984Z</time></trkpt><trkpt lat="45.2958267" lon="8.5247283"><ele>114.0</ele><time>2026-04-19T10:11:36.984Z</time></trkpt><trkpt lat="45.2959167" lon="8.5246733"><ele>114.0</ele><time>2026-04-19T10:11:37.984Z</time></trkpt><trkpt lat="45.2960133" lon="8.5246283"><ele>114.0</ele><time>2026-04-19T10:11:38.984Z</time></trkpt><trkpt lat="45.2961367" lon="8.5245867"><ele>114.0</ele><time>2026-04-19T10:11:39.983Z</time></trkpt><trkpt lat="45.296265" lon="8.5245567"><ele>114.25</ele><time>2026-04-19T10:11:40.983Z</time></trkpt><trkpt lat="45.2963917" lon="8.5245183"><ele>114.5</ele><time>2026-04-19T10:11:41.984Z</time></trkpt><trkpt lat="45.29652" lon="8.5244767"><ele>114.75</ele><time>2026-04-19T10:11:42.983Z</time></trkpt><trkpt lat="45.296645" lon="8.524425"><ele>115.0</ele><time>2026-04-19T10:11:43.984Z</time></trkpt><trkpt lat="45.296775" lon="8.5243567"><ele>115.0</ele><time>2026-04-19T10:11:44.984Z</time></trkpt><trkpt lat="45.2968933" lon="8.524275"><ele>115.0</ele><time>2026-04-19T10:11:45.983Z</time></trkpt><trkpt lat="45.2970083" lon="8.5241817"><ele>115.0</ele><time>2026-04-19T10:11:46.984Z</time></trkpt><trkpt lat="45.2971183" lon="8.5240783"><ele>115.0</ele><time>2026-04-19T10:11:47.983Z</time></trkpt><trkpt lat="45.2972233" lon="8.523995"><ele>115.0</ele><time>2026-04-19T10:11:48.984Z</time></trkpt><trkpt lat="45.2973167" lon="8.523905"><ele>115.0</ele><time>2026-04-19T10:11:49.983Z</time></trkpt><trkpt lat="45.2973917" lon="8.5238217"><ele>115.0</ele><time>2026-04-19T10:11:50.984Z</time></trkpt><trkpt lat="45.2974633" lon="8.5237533"><ele>115.0</ele><time>2026-04-19T10:11:51.984Z</time></trkpt><trkpt lat="45.297565" lon="8.5236667"><ele>115.0</ele><time>2026-04-19T10:11:53.984Z</time></trkpt><trkpt lat="45.2976033" lon="8.5235267"><ele>115.6</ele><time>2026-04-19T10:11:55.984Z</time></trkpt><trkpt lat="45.297595" lon="8.5234183"><ele>116.2</ele><time>2026-04-19T10:11:56.984Z</time></trkpt><trkpt lat="45.2975733" lon="8.5232817"><ele>116.80000000000001</ele><time>2026-04-19T10:11:57.984Z</time></trkpt><trkpt lat="45.2975483" lon="8.52312"><ele>117.4</ele><time>2026-04-19T10:11:58.983Z</time></trkpt><trkpt lat="45.2975117" lon="8.522935"><ele>118.0</ele><time>2026-04-19T10:11:59.983Z</time></trkpt><trkpt lat="45.2974767" lon="8.5227317"><ele>118.0</ele><time>2026-04-19T10:12:00.984Z</time></trkpt><trkpt lat="45.2974367" lon="8.5224967"><ele>118.0</ele><time>2026-04-19T10:12:01.983Z</time></trkpt><trkpt lat="45.2974083" lon="8.5222633"><ele>118.0</ele><time>2026-04-19T10:12:02.984Z</time></trkpt><trkpt lat="45.2973833" lon="8.5220417"><ele>117.75</ele><time>2026-04-19T10:12:03.984Z</time></trkpt><trkpt lat="45.2973533" lon="8.5218217"><ele>117.5</ele><time>2026-04-19T10:12:04.983Z</time></trkpt><trkpt lat="45.2973283" lon="8.521615"><ele>117.25</ele><time>2026-04-19T10:12:05.983Z</time></trkpt><trkpt lat="45.2972983" lon="8.5214233"><ele>117.0</ele><time>2026-04-19T10:12:06.983Z</time></trkpt><trkpt lat="45.29727" lon="8.521235"><ele>116.6</ele><time>2026-04-19T10:12:07.983Z</time></trkpt><trkpt lat="45.2972333" lon="8.521035"><ele>116.19999999999999</ele><time>2026-04-19T10:12:08.983Z</time></trkpt><trkpt lat="45.2972033" lon="8.5208817"><ele>115.8</ele><time>2026-04-19T10:12:09.984Z</time></trkpt><trkpt lat="45.2971733" lon="8.5207417"><ele>115.4</ele><time>2026-04-19T10:12:10.983Z</time></trkpt><trkpt lat="45.2971617" lon="8.5206167"><ele>115.0</ele><time>2026-04-19T10:12:11.983Z</time></trkpt><trkpt lat="45.297145" lon="8.520505"><ele>114.4</ele><time>2026-04-19T10:12:12.984Z</time></trkpt><trkpt lat="45.29714" lon="8.520375"><ele>113.8</ele><time>2026-04-19T10:12:14.983Z</time></trkpt><trkpt lat="45.2972067" lon="8.5202783"><ele>113.19999999999999</ele><time>2026-04-19T10:12:16.984Z</time></trkpt><trkpt lat="45.2972733" lon="8.5202633"><ele>112.6</ele><time>2026-04-19T10:12:17.984Z</time></trkpt><trkpt lat="45.2973717" lon="8.5202883"><ele>112.0</ele><time>2026-04-19T10:12:18.983Z</time></trkpt><trkpt lat="45.29751" lon="8.52034"><ele>111.75</ele><time>2026-04-19T10:12:19.984Z</time></trkpt><trkpt lat="45.2976483" lon="8.5203783"><ele>111.5</ele><time>2026-04-19T10:12:20.984Z</time></trkpt><trkpt lat="45.2977883" lon="8.52041"><ele>111.25</ele><time>2026-04-19T10:12:21.983Z</time></trkpt><trkpt lat="45.2979217" lon="8.5204467"><ele>111.0</ele><time>2026-04-19T10:12:22.984Z</time></trkpt><trkpt lat="45.2980533" lon="8.52049"><ele>111.6</ele><time>2026-04-19T10:12:23.984Z</time></trkpt><trkpt lat="45.2981767" lon="8.5205317"><ele>112.19999999999999</ele><time>2026-04-19T10:12:24.983Z</time></trkpt><trkpt lat="45.298295" lon="8.520545"><ele>112.80000000000001</ele><time>2026-04-19T10:12:25.984Z</time></trkpt><trkpt lat="45.2983983" lon="8.5205467"><ele>113.4</ele><time>2026-04-19T10:12:26.984Z</time></trkpt><trkpt lat="45.29849" lon="8.520515"><ele>114.0</ele><time>2026-04-19T10:12:27.984Z</time></trkpt><trkpt lat="45.298585" lon="8.5204633"><ele>114.0</ele><time>2026-04-19T10:12:28.983Z</time></trkpt><trkpt lat="45.2986817" lon="8.5204117"><ele>114.0</ele><time>2026-04-19T10:12:29.983Z</time></trkpt><trkpt lat="45.2987833" lon="8.52035"><ele>114.0</ele><time>2026-04-19T10:12:30.983Z</time></trkpt><trkpt lat="45.2988867" lon="8.5202833"><ele>114.0</ele><time>2026-04-19T10:12:31.984Z</time></trkpt><trkpt lat="45.2989883" lon="8.5202267"><ele>114.0</ele><time>2026-04-19T10:12:32.983Z</time></trkpt><trkpt lat="45.2991017" lon="8.5201617"><ele>113.5</ele><time>2026-04-19T10:12:33.984Z</time></trkpt><trkpt lat="45.29921" lon="8.5200817"><ele>113.0</ele><time>2026-04-19T10:12:34.984Z</time></trkpt><trkpt lat="45.2993167" lon="8.520005"><ele>112.5</ele><time>2026-04-19T10:12:35.984Z</time></trkpt><trkpt lat="45.29941" lon="8.5199033"><ele>112.0</ele><time>2026-04-19T10:12:36.984Z</time></trkpt><trkpt lat="45.2994867" lon="8.519775"><ele>112.0</ele><time>2026-04-19T10:12:37.984Z</time></trkpt><trkpt lat="45.299555" lon="8.519635"><ele>112.0</ele><time>2026-04-19T10:12:38.984Z</time></trkpt><trkpt lat="45.2996467" lon="8.519495"><ele>112.0</ele><time>2026-04-19T10:12:39.984Z</time></trkpt><trkpt lat="45.2997383" lon="8.5193533"><ele>112.0</ele><time>2026-04-19T10:12:40.984Z</time></trkpt><trkpt lat="45.29983" lon="8.5192167"><ele>112.25</ele><time>2026-04-19T10:12:41.984Z</time></trkpt><trkpt lat="45.2999183" lon="8.5190767"><ele>112.5</ele><time>2026-04-19T10:12:42.984Z</time></trkpt><trkpt lat="45.3000017" lon="8.51893"><ele>112.75</ele><time>2026-04-19T10:12:43.983Z</time></trkpt><trkpt lat="45.300085" lon="8.5187917"><ele>113.0</ele><time>2026-04-19T10:12:44.984Z</time></trkpt><trkpt lat="45.30017" lon="8.51865"><ele>113.25</ele><time>2026-04-19T10:12:45.984Z</time></trkpt><trkpt lat="45.300255" lon="8.5185117"><ele>113.5</ele><time>2026-04-19T10:12:46.984Z</time></trkpt><trkpt lat="45.3003417" lon="8.518385"><ele>113.75</ele><time>2026-04-19T10:12:47.984Z</time></trkpt><trkpt lat="45.300425" lon="8.5182567"><ele>114.0</ele><time>2026-04-19T10:12:48.984Z</time></trkpt><trkpt lat="45.3004967" lon="8.51812"><ele>114.0</ele><time>2026-04-19T10:12:49.984Z</time></trkpt><trkpt lat="45.3005583" lon="8.51797"><ele>114.0</ele><time>2026-04-19T10:12:50.983Z</time></trkpt><trkpt lat="45.300605" lon="8.51781"><ele>114.0</ele><time>2026-04-19T10:12:51.984Z</time></trkpt><trkpt lat="45.3006367" lon="8.5176317"><ele>114.0</ele><time>2026-04-19T10:12:52.984Z</time></trkpt><trkpt lat="45.3006667" lon="8.5174583"><ele>114.0</ele><time>2026-04-19T10:12:53.984Z</time></trkpt><trkpt lat="45.3006917" lon="8.5172817"><ele>114.0</ele><time>2026-04-19T10:12:54.983Z</time></trkpt><trkpt lat="45.300715" lon="8.51711"><ele>114.0</ele><time>2026-04-19T10:12:55.983Z</time></trkpt><trkpt lat="45.3007333" lon="8.5169283"><ele>114.0</ele><time>2026-04-19T10:12:56.984Z</time></trkpt><trkpt lat="45.3007567" lon="8.516755"><ele>114.0</ele><time>2026-04-19T10:12:57.984Z</time></trkpt><trkpt lat="45.3007783" lon="8.5165783"><ele>114.0</ele><time>2026-04-19T10:12:58.984Z</time></trkpt><trkpt lat="45.3008083" lon="8.5164133"><ele>114.0</ele><time>2026-04-19T10:12:59.984Z</time></trkpt><trkpt lat="45.300835" lon="8.5162583"><ele>114.0</ele><time>2026-04-19T10:13:00.983Z</time></trkpt><trkpt lat="45.30086" lon="8.5160983"><ele>114.2</ele><time>2026-04-19T10:13:01.984Z</time></trkpt><trkpt lat="45.3008867" lon="8.515945"><ele>114.4</ele><time>2026-04-19T10:13:02.983Z</time></trkpt><trkpt lat="45.3009167" lon="8.5157933"><ele>114.6</ele><time>2026-04-19T10:13:03.984Z</time></trkpt><trkpt lat="45.300975" lon="8.5156567"><ele>114.8</ele><time>2026-04-19T10:13:04.983Z</time></trkpt><trkpt lat="45.3010383" lon="8.5155233"><ele>115.0</ele><time>2026-04-19T10:13:05.984Z</time></trkpt><trkpt lat="45.3011067" lon="8.51539"><ele>115.4</ele><time>2026-04-19T10:13:06.984Z</time></trkpt><trkpt lat="45.3011733" lon="8.515265"><ele>115.8</ele><time>2026-04-19T10:13:07.984Z</time></trkpt><trkpt lat="45.3012333" lon="8.5151467"><ele>116.19999999999999</ele><time>2026-04-19T10:13:08.984Z</time></trkpt><trkpt lat="45.3012917" lon="8.51503"><ele>116.6</ele><time>2026-04-19T10:13:09.983Z</time></trkpt><trkpt lat="45.3013467" lon="8.5149233"><ele>117.0</ele><time>2026-04-19T10:13:10.984Z</time></trkpt><trkpt lat="45.3013933" lon="8.514835"><ele>117.0</ele><time>2026-04-19T10:13:11.984Z</time></trkpt><trkpt lat="45.3014567" lon="8.514715"><ele>116.99999999999999</ele><time>2026-04-19T10:13:13.983Z</time></trkpt><trkpt lat="45.3013917" lon="8.5147817"><ele>116.99999999999999</ele><time>2026-04-19T10:17:24.981Z</time></trkpt><trkpt lat="45.301345" lon="8.5148767"><ele>117.0</ele><time>2026-04-19T10:18:44.981Z</time></trkpt><trkpt lat="45.3012917" lon="8.51498"><ele>117.0</ele><time>2026-04-19T10:18:46.982Z</time></trkpt><trkpt lat="45.3012333" lon="8.5150967"><ele>117.0</ele><time>2026-04-19T10:18:48.981Z</time></trkpt><trkpt lat="45.3011667" lon="8.515225"><ele>116.99999999999999</ele><time>2026-04-19T10:18:50.982Z</time></trkpt><trkpt lat="45.3010883" lon="8.5153333"><ele>116.99999999999999</ele><time>2026-04-19T10:18:52.982Z</time></trkpt><trkpt lat="45.30102" lon="8.51543"><ele>117.0</ele><time>2026-04-19T10:18:54.981Z</time></trkpt><trkpt lat="45.3009617" lon="8.5155333"><ele>117.0</ele><time>2026-04-19T10:18:56.981Z</time></trkpt><trkpt lat="45.3009183" lon="8.5156367"><ele>116.66666666666667</ele><time>2026-04-19T10:18:58.982Z</time></trkpt><trkpt lat="45.3008767" lon="8.5157217"><ele>116.33333333333334</ele><time>2026-04-19T10:19:01.982Z</time></trkpt><trkpt lat="45.3008" lon="8.515745"><ele>116.0</ele><time>2026-04-19T10:19:33.982Z</time></trkpt><trkpt lat="45.3006917" lon="8.51567"><ele>115.66666666666667</ele><time>2026-04-19T10:19:35.982Z</time></trkpt><trkpt lat="45.3006167" lon="8.515625"><ele>115.33333333333334</ele><time>2026-04-19T10:19:36.982Z</time></trkpt><trkpt lat="45.3005317" lon="8.51558"><ele>115.0</ele><time>2026-04-19T10:19:37.981Z</time></trkpt><trkpt lat="45.30045" lon="8.5155283"><ele>115.33333333333334</ele><time>2026-04-19T10:19:38.982Z</time></trkpt><trkpt lat="45.3002017" lon="8.515365"><ele>115.66666666666666</ele><time>2026-04-19T10:19:41.982Z</time></trkpt><trkpt lat="45.3001117" lon="8.5152983"><ele>116.0</ele><time>2026-04-19T10:19:42.981Z</time></trkpt><trkpt lat="45.300015" lon="8.5152433"><ele>116.0</ele><time>2026-04-19T10:19:43.982Z</time></trkpt><trkpt lat="45.2998367" lon="8.515125"><ele>116.0</ele><time>2026-04-19T10:19:45.981Z</time></trkpt><trkpt lat="45.2997417" lon="8.515085"><ele>116.0</ele><time>2026-04-19T10:19:46.982Z</time></trkpt><trkpt lat="45.29966" lon="8.5150417"><ele>116.0</ele><time>2026-04-19T10:19:47.981Z</time></trkpt><trkpt lat="45.2995817" lon="8.5149983"><ele>115.0</ele><time>2026-04-19T10:19:48.982Z</time></trkpt><trkpt lat="45.299505" lon="8.5149583"><ele>114.0</ele><time>2026-04-19T10:19:49.981Z</time></trkpt><trkpt lat="45.299395" lon="8.514885"><ele>113.0</ele><time>2026-04-19T10:19:51.982Z</time></trkpt><trkpt lat="45.29931" lon="8.5148417"><ele>112.0</ele><time>2026-04-19T10:19:53.982Z</time></trkpt><trkpt lat="45.299235" lon="8.51483"><ele>111.0</ele><time>2026-04-19T10:19:56.982Z</time></trkpt><trkpt lat="45.2991367" lon="8.514925"><ele>111.0</ele><time>2026-04-19T10:20:21.981Z</time></trkpt><trkpt lat="45.2990683" lon="8.515015"><ele>111.0</ele><time>2026-04-19T10:20:22.982Z</time></trkpt><trkpt lat="45.2989967" lon="8.5151"><ele>111.0</ele><time>2026-04-19T10:20:23.982Z</time></trkpt><trkpt lat="45.298935" lon="8.515185"><ele>111.0</ele><time>2026-04-19T10:20:24.981Z</time></trkpt><trkpt lat="45.29887" lon="8.5152767"><ele>111.0</ele><time>2026-04-19T10:20:25.981Z</time></trkpt><trkpt lat="45.2988133" lon="8.515355"><ele>111.0</ele><time>2026-04-19T10:20:26.981Z</time></trkpt><trkpt lat="45.2987567" lon="8.5154383"><ele>111.16666666666667</ele><time>2026-04-19T10:20:27.981Z</time></trkpt><trkpt lat="45.2986967" lon="8.51552"><ele>111.33333333333334</ele><time>2026-04-19T10:20:28.982Z</time></trkpt><trkpt lat="45.2986383" lon="8.515585"><ele>111.5</ele><time>2026-04-19T10:20:29.981Z</time></trkpt><trkpt lat="45.29858" lon="8.515655"><ele>111.66666666666667</ele><time>2026-04-19T10:20:30.982Z</time></trkpt><trkpt lat="45.2985283" lon="8.5157267"><ele>111.83333333333334</ele><time>2026-04-19T10:20:31.981Z</time></trkpt><trkpt lat="45.29847" lon="8.5157967"><ele>112.0</ele><time>2026-04-19T10:20:32.982Z</time></trkpt><trkpt lat="45.2984033" lon="8.515845"><ele>112.00000000000001</ele><time>2026-04-19T10:20:33.982Z</time></trkpt><trkpt lat="45.29834" lon="8.515885"><ele>112.0</ele><time>2026-04-19T10:20:34.982Z</time></trkpt><trkpt lat="45.2982667" lon="8.5159133"><ele>112.0</ele><time>2026-04-19T10:20:35.981Z</time></trkpt><trkpt lat="45.2981917" lon="8.51593"><ele>112.0</ele><time>2026-04-19T10:20:36.981Z</time></trkpt><trkpt lat="45.29811" lon="8.5159483"><ele>112.00000000000001</ele><time>2026-04-19T10:20:37.982Z</time></trkpt><trkpt lat="45.2980317" lon="8.5159783"><ele>112.0</ele><time>2026-04-19T10:20:38.982Z</time></trkpt><trkpt lat="45.2979533" lon="8.5160333"><ele>112.16666666666667</ele><time>2026-04-19T10:20:39.981Z</time></trkpt><trkpt lat="45.2978867" lon="8.51607"><ele>112.33333333333334</ele><time>2026-04-19T10:20:40.982Z</time></trkpt><trkpt lat="45.2978117" lon="8.516115"><ele>112.5</ele><time>2026-04-19T10:20:41.981Z</time></trkpt><trkpt lat="45.29774" lon="8.5161833"><ele>112.66666666666666</ele><time>2026-04-19T10:20:42.982Z</time></trkpt><trkpt lat="45.2976767" lon="8.516245"><ele>112.83333333333333</ele><time>2026-04-19T10:20:43.981Z</time></trkpt><trkpt lat="45.2976133" lon="8.5163083"><ele>113.0</ele><time>2026-04-19T10:20:44.982Z</time></trkpt><trkpt lat="45.29756" lon="8.5163583"><ele>112.99999999999999</ele><time>2026-04-19T10:20:45.981Z</time></trkpt><trkpt lat="45.2975067" lon="8.5164283"><ele>113.0</ele><time>2026-04-19T10:20:46.981Z</time></trkpt><trkpt lat="45.297445" lon="8.5165267"><ele>113.0</ele><time>2026-04-19T10:20:47.981Z</time></trkpt><trkpt lat="45.2973783" lon="8.5165983"><ele>113.0</ele><time>2026-04-19T10:20:48.982Z</time></trkpt><trkpt lat="45.29731" lon="8.5166717"><ele>112.99999999999999</ele><time>2026-04-19T10:20:49.982Z</time></trkpt><trkpt lat="45.29723" lon="8.5167567"><ele>113.0</ele><time>2026-04-19T10:20:50.982Z</time></trkpt><trkpt lat="45.29715" lon="8.51685"><ele>112.66666666666666</ele><time>2026-04-19T10:20:51.981Z</time></trkpt><trkpt lat="45.2970717" lon="8.5169433"><ele>112.33333333333333</ele><time>2026-04-19T10:20:52.981Z</time></trkpt><trkpt lat="45.29699" lon="8.5170183"><ele>112.0</ele><time>2026-04-19T10:20:53.981Z</time></trkpt><trkpt lat="45.29692" lon="8.5171"><ele>111.66666666666666</ele><time>2026-04-19T10:20:54.981Z</time></trkpt><trkpt lat="45.2968667" lon="8.5171667"><ele>111.33333333333333</ele><time>2026-04-19T10:20:55.982Z</time></trkpt><trkpt lat="45.296815" lon="8.5172267"><ele>111.0</ele><time>2026-04-19T10:20:56.982Z</time></trkpt><trkpt lat="45.2967533" lon="8.5172933"><ele>111.0</ele><time>2026-04-19T10:20:57.982Z</time></trkpt><trkpt lat="45.2966883" lon="8.51737"><ele>111.0</ele><time>2026-04-19T10:20:58.982Z</time></trkpt><trkpt lat="45.2966333" lon="8.5174333"><ele>111.0</ele><time>2026-04-19T10:20:59.982Z</time></trkpt><trkpt lat="45.2965383" lon="8.5175483"><ele>111.0</ele><time>2026-04-19T10:21:01.981Z</time></trkpt><trkpt lat="45.2964917" lon="8.5176433"><ele>111.0</ele><time>2026-04-19T10:21:03.98Z</time></trkpt><trkpt lat="45.2965333" lon="8.5178083"><ele>111.0</ele><time>2026-04-19T10:21:05.98Z</time></trkpt><trkpt lat="45.2965683" lon="8.5179567"><ele>111.0</ele><time>2026-04-19T10:21:06.981Z</time></trkpt><trkpt lat="45.2966067" lon="8.5181117"><ele>111.0</ele><time>2026-04-19T10:21:07.98Z</time></trkpt><trkpt lat="45.2966467" lon="8.51829"><ele>111.0</ele><time>2026-04-19T10:21:08.98Z</time></trkpt><trkpt lat="45.2966817" lon="8.518475"><ele>111.0</ele><time>2026-04-19T10:21:09.981Z</time></trkpt><trkpt lat="45.29671" lon="8.5186283"><ele>111.0</ele><time>2026-04-19T10:21:10.98Z</time></trkpt><trkpt lat="45.296745" lon="8.5187633"><ele>111.0</ele><time>2026-04-19T10:21:11.98Z</time></trkpt><trkpt lat="45.29677" lon="8.51891"><ele>111.0</ele><time>2026-04-19T10:21:12.98Z</time></trkpt><trkpt lat="45.2968067" lon="8.5190567"><ele>111.0</ele><time>2026-04-19T10:21:13.981Z</time></trkpt><trkpt lat="45.29684" lon="8.5192133"><ele>111.25</ele><time>2026-04-19T10:21:14.981Z</time></trkpt><trkpt lat="45.29688" lon="8.519385"><ele>111.5</ele><time>2026-04-19T10:21:15.981Z</time></trkpt><trkpt lat="45.2969133" lon="8.5195367"><ele>111.75</ele><time>2026-04-19T10:21:16.981Z</time></trkpt><trkpt lat="45.29695" lon="8.51969"><ele>112.0</ele><time>2026-04-19T10:21:17.981Z</time></trkpt><trkpt lat="45.2969767" lon="8.519835"><ele>112.00000000000001</ele><time>2026-04-19T10:21:18.981Z</time></trkpt><trkpt lat="45.2970033" lon="8.519965"><ele>112.0</ele><time>2026-04-19T10:21:19.981Z</time></trkpt><trkpt lat="45.29703" lon="8.52007"><ele>112.0</ele><time>2026-04-19T10:21:20.98Z</time></trkpt><trkpt lat="45.29706" lon="8.5201517"><ele>112.0</ele><time>2026-04-19T10:21:21.98Z</time></trkpt><trkpt lat="45.2971417" lon="8.5202783"><ele>112.00000000000001</ele><time>2026-04-19T10:21:23.98Z</time></trkpt><trkpt lat="45.297205" lon="8.5203283"><ele>112.0</ele><time>2026-04-19T10:21:24.981Z</time></trkpt><trkpt lat="45.2973117" lon="8.5203483"><ele>111.75</ele><time>2026-04-19T10:21:25.981Z</time></trkpt><trkpt lat="45.2974367" lon="8.5203633"><ele>111.5</ele><time>2026-04-19T10:21:26.981Z</time></trkpt><trkpt lat="45.29757" lon="8.5203717"><ele>111.25</ele><time>2026-04-19T10:21:27.981Z</time></trkpt><trkpt lat="45.2977" lon="8.5203967"><ele>111.0</ele><time>2026-04-19T10:21:28.98Z</time></trkpt><trkpt lat="45.2978283" lon="8.5204217"><ele>111.5</ele><time>2026-04-19T10:21:29.981Z</time></trkpt><trkpt lat="45.2979517" lon="8.52045"><ele>112.0</ele><time>2026-04-19T10:21:30.981Z</time></trkpt><trkpt lat="45.2980717" lon="8.520485"><ele>112.5</ele><time>2026-04-19T10:21:31.981Z</time></trkpt><trkpt lat="45.2981867" lon="8.5205083"><ele>113.0</ele><time>2026-04-19T10:21:32.98Z</time></trkpt><trkpt lat="45.2983017" lon="8.520525"><ele>113.0</ele><time>2026-04-19T10:21:33.981Z</time></trkpt><trkpt lat="45.2984083" lon="8.5205117"><ele>113.00000000000001</ele><time>2026-04-19T10:21:34.981Z</time></trkpt><trkpt lat="45.2984983" lon="8.52048"><ele>113.00000000000001</ele><time>2026-04-19T10:21:35.981Z</time></trkpt><trkpt lat="45.2985883" lon="8.5204283"><ele>113.0</ele><time>2026-04-19T10:21:36.981Z</time></trkpt><trkpt lat="45.2986783" lon="8.5203567"><ele>113.0</ele><time>2026-04-19T10:21:37.98Z</time></trkpt><trkpt lat="45.2987767" lon="8.5203017"><ele>112.99999999999999</ele><time>2026-04-19T10:21:38.98Z</time></trkpt><trkpt lat="45.298865" lon="8.52025"><ele>113.0</ele><time>2026-04-19T10:21:39.981Z</time></trkpt><trkpt lat="45.29893" lon="8.52022"><ele>113.0</ele><time>2026-04-19T10:21:40.98Z</time></trkpt><trkpt lat="45.2990017" lon="8.520185"><ele>113.0</ele><time>2026-04-19T10:21:41.98Z</time></trkpt><trkpt lat="45.29908" lon="8.5201467"><ele>112.99999999999999</ele><time>2026-04-19T10:21:42.981Z</time></trkpt><trkpt lat="45.2991667" lon="8.520095"><ele>113.0</ele><time>2026-04-19T10:21:43.98Z</time></trkpt><trkpt lat="45.299255" lon="8.5200433"><ele>112.80000000000001</ele><time>2026-04-19T10:21:44.981Z</time></trkpt><trkpt lat="45.299345" lon="8.519965"><ele>112.60000000000001</ele><time>2026-04-19T10:21:45.981Z</time></trkpt><trkpt lat="45.29943" lon="8.51987"><ele>112.39999999999999</ele><time>2026-04-19T10:21:46.98Z</time></trkpt><trkpt lat="45.299495" lon="8.519765"><ele>112.19999999999999</ele><time>2026-04-19T10:21:47.98Z</time></trkpt><trkpt lat="45.2995583" lon="8.5196517"><ele>112.0</ele><time>2026-04-19T10:21:48.98Z</time></trkpt><trkpt lat="45.299625" lon="8.5195317"><ele>112.0</ele><time>2026-04-19T10:21:49.981Z</time></trkpt><trkpt lat="45.2996883" lon="8.51941"><ele>111.99999999999999</ele><time>2026-04-19T10:21:50.98Z</time></trkpt><trkpt lat="45.2997567" lon="8.5192883"><ele>111.99999999999999</ele><time>2026-04-19T10:21:51.98Z</time></trkpt><trkpt lat="45.2998283" lon="8.519175"><ele>112.0</ele><time>2026-04-19T10:21:52.981Z</time></trkpt><trkpt lat="45.2998983" lon="8.5190667"><ele>112.0</ele><time>2026-04-19T10:21:53.981Z</time></trkpt><trkpt lat="45.29998" lon="8.5189467"><ele>112.25</ele><time>2026-04-19T10:21:54.98Z</time></trkpt><trkpt lat="45.3000633" lon="8.5188167"><ele>112.5</ele><time>2026-04-19T10:21:55.981Z</time></trkpt><trkpt lat="45.3001483" lon="8.5186783"><ele>112.75</ele><time>2026-04-19T10:21:56.98Z</time></trkpt><trkpt lat="45.3002317" lon="8.518535"><ele>113.0</ele><time>2026-04-19T10:21:57.981Z</time></trkpt><trkpt lat="45.300305" lon="8.518395"><ele>113.0</ele><time>2026-04-19T10:21:58.98Z</time></trkpt><trkpt lat="45.3003867" lon="8.5182617"><ele>113.0</ele><time>2026-04-19T10:21:59.981Z</time></trkpt><trkpt lat="45.3004683" lon="8.518115"><ele>113.0</ele><time>2026-04-19T10:22:00.98Z</time></trkpt><trkpt lat="45.3005317" lon="8.5179767"><ele>113.0</ele><time>2026-04-19T10:22:01.981Z</time></trkpt><trkpt lat="45.3005783" lon="8.5178083"><ele>113.0</ele><time>2026-04-19T10:22:02.98Z</time></trkpt><trkpt lat="45.3006117" lon="8.5176267"><ele>113.0</ele><time>2026-04-19T10:22:03.981Z</time></trkpt><trkpt lat="45.3006383" lon="8.5174383"><ele>113.0</ele><time>2026-04-19T10:22:04.981Z</time></trkpt><trkpt lat="45.3006583" lon="8.5172617"><ele>113.0</ele><time>2026-04-19T10:22:05.98Z</time></trkpt><trkpt lat="45.30068" lon="8.5170967"><ele>113.25</ele><time>2026-04-19T10:22:06.981Z</time></trkpt><trkpt lat="45.3007" lon="8.5169267"><ele>113.5</ele><time>2026-04-19T10:22:07.981Z</time></trkpt><trkpt lat="45.30072" lon="8.516755"><ele>113.75</ele><time>2026-04-19T10:22:08.981Z</time></trkpt><trkpt lat="45.3007433" lon="8.5165767"><ele>114.0</ele><time>2026-04-19T10:22:09.981Z</time></trkpt><trkpt lat="45.3007717" lon="8.5164067"><ele>114.25</ele><time>2026-04-19T10:22:10.98Z</time></trkpt><trkpt lat="45.3007983" lon="8.5162317"><ele>114.5</ele><time>2026-04-19T10:22:11.981Z</time></trkpt><trkpt lat="45.3008217" lon="8.51606"><ele>114.75</ele><time>2026-04-19T10:22:12.981Z</time></trkpt><trkpt lat="45.3008567" lon="8.5158983"><ele>115.0</ele><time>2026-04-19T10:22:13.981Z</time></trkpt><trkpt lat="45.300905" lon="8.51576"><ele>115.0</ele><time>2026-04-19T10:22:14.981Z</time></trkpt><trkpt lat="45.300965" lon="8.515625"><ele>115.0</ele><time>2026-04-19T10:22:15.98Z</time></trkpt><trkpt lat="45.3010367" lon="8.515485"><ele>115.0</ele><time>2026-04-19T10:22:16.98Z</time></trkpt><trkpt lat="45.3011033" lon="8.51533"><ele>115.0</ele><time>2026-04-19T10:22:17.981Z</time></trkpt><trkpt lat="45.301175" lon="8.5151833"><ele>115.5</ele><time>2026-04-19T10:22:18.981Z</time></trkpt><trkpt lat="45.301265" lon="8.51503"><ele>116.0</ele><time>2026-04-19T10:22:19.98Z</time></trkpt><trkpt lat="45.30135" lon="8.51486"><ele>116.5</ele><time>2026-04-19T10:22:20.981Z</time></trkpt><trkpt lat="45.3014433" lon="8.5146983"><ele>117.0</ele><time>2026-04-19T10:22:21.981Z</time></trkpt><trkpt lat="45.3015267" lon="8.5145467"><ele>117.75</ele><time>2026-04-19T10:22:22.981Z</time></trkpt><trkpt lat="45.3016" lon="8.51439"><ele>118.5</ele><time>2026-04-19T10:22:23.981Z</time></trkpt><trkpt lat="45.30167" lon="8.5142333"><ele>119.25</ele><time>2026-04-19T10:22:24.981Z</time></trkpt><trkpt lat="45.3017367" lon="8.5140767"><ele>120.0</ele><time>2026-04-19T10:22:25.98Z</time></trkpt><trkpt lat="45.3017967" lon="8.51392"><ele>120.0</ele><time>2026-04-19T10:22:26.981Z</time></trkpt><trkpt lat="45.3018517" lon="8.5137633"><ele>120.0</ele><time>2026-04-19T10:22:27.98Z</time></trkpt><trkpt lat="45.3018967" lon="8.5136017"><ele>120.0</ele><time>2026-04-19T10:22:28.981Z</time></trkpt><trkpt lat="45.3019367" lon="8.5134683"><ele>120.0</ele><time>2026-04-19T10:22:29.98Z</time></trkpt><trkpt lat="45.3019767" lon="8.513325"><ele>119.8</ele><time>2026-04-19T10:22:30.981Z</time></trkpt><trkpt lat="45.3020083" lon="8.51319"><ele>119.6</ele><time>2026-04-19T10:22:31.981Z</time></trkpt><trkpt lat="45.30204" lon="8.513045"><ele>119.4</ele><time>2026-04-19T10:22:32.98Z</time></trkpt><trkpt lat="45.3020733" lon="8.5129"><ele>119.2</ele><time>2026-04-19T10:22:33.98Z</time></trkpt><trkpt lat="45.3021067" lon="8.5127567"><ele>119.0</ele><time>2026-04-19T10:22:34.98Z</time></trkpt><trkpt lat="45.3021433" lon="8.5126117"><ele>119.0</ele><time>2026-04-19T10:22:35.98Z</time></trkpt><trkpt lat="45.3021833" lon="8.5124617"><ele>119.0</ele><time>2026-04-19T10:22:36.981Z</time></trkpt><trkpt lat="45.3022233" lon="8.5122967"><ele>119.0</ele><time>2026-04-19T10:22:37.981Z</time></trkpt><trkpt lat="45.3022667" lon="8.5121367"><ele>119.0</ele><time>2026-04-19T10:22:38.981Z</time></trkpt><trkpt lat="45.3023083" lon="8.5119717"><ele>119.0</ele><time>2026-04-19T10:22:39.98Z</time></trkpt><trkpt lat="45.3023417" lon="8.51181"><ele>119.0</ele><time>2026-04-19T10:22:40.98Z</time></trkpt><trkpt lat="45.30238" lon="8.5116433"><ele>119.0</ele><time>2026-04-19T10:22:41.981Z</time></trkpt><trkpt lat="45.3024283" lon="8.5114717"><ele>119.0</ele><time>2026-04-19T10:22:42.981Z</time></trkpt><trkpt lat="45.3024717" lon="8.5113017"><ele>118.5</ele><time>2026-04-19T10:22:43.98Z</time></trkpt><trkpt lat="45.3025117" lon="8.51114"><ele>118.0</ele><time>2026-04-19T10:22:44.98Z</time></trkpt><trkpt lat="45.3025567" lon="8.5109883"><ele>117.5</ele><time>2026-04-19T10:22:45.98Z</time></trkpt><trkpt lat="45.3025933" lon="8.5108333"><ele>117.0</ele><time>2026-04-19T10:22:46.98Z</time></trkpt><trkpt lat="45.302635" lon="8.5106833"><ele>117.0</ele><time>2026-04-19T10:22:47.981Z</time></trkpt><trkpt lat="45.3026783" lon="8.5105233"><ele>117.0</ele><time>2026-04-19T10:22:48.981Z</time></trkpt><trkpt lat="45.302715" lon="8.51038"><ele>117.0</ele><time>2026-04-19T10:22:49.981Z</time></trkpt><trkpt lat="45.3027533" lon="8.5102267"><ele>117.0</ele><time>2026-04-19T10:22:50.98Z</time></trkpt><trkpt lat="45.3027933" lon="8.51007"><ele>117.0</ele><time>2026-04-19T10:22:51.981Z</time></trkpt><trkpt lat="45.3028433" lon="8.5099033"><ele>117.0</ele><time>2026-04-19T10:22:52.98Z</time></trkpt><trkpt lat="45.302885" lon="8.5097417"><ele>117.0</ele><time>2026-04-19T10:22:53.981Z</time></trkpt><trkpt lat="45.302925" lon="8.509585"><ele>117.0</ele><time>2026-04-19T10:22:54.981Z</time></trkpt><trkpt lat="45.3029667" lon="8.5094167"><ele>117.0</ele><time>2026-04-19T10:22:55.98Z</time></trkpt><trkpt lat="45.3030067" lon="8.5092483"><ele>117.0</ele><time>2026-04-19T10:22:56.981Z</time></trkpt><trkpt lat="45.30304" lon="8.509075"><ele>117.0</ele><time>2026-04-19T10:22:57.98Z</time></trkpt><trkpt lat="45.3030817" lon="8.50891"><ele>117.0</ele><time>2026-04-19T10:22:58.98Z</time></trkpt><trkpt lat="45.30313" lon="8.5087583"><ele>117.0</ele><time>2026-04-19T10:22:59.981Z</time></trkpt><trkpt lat="45.3031717" lon="8.5086167"><ele>116.99999999999999</ele><time>2026-04-19T10:23:00.981Z</time></trkpt><trkpt lat="45.3032083" lon="8.5084867"><ele>116.99999999999999</ele><time>2026-04-19T10:23:01.981Z</time></trkpt><trkpt lat="45.30324" lon="8.5083567"><ele>117.0</ele><time>2026-04-19T10:23:02.98Z</time></trkpt><trkpt lat="45.3032767" lon="8.5082333"><ele>117.0</ele><time>2026-04-19T10:23:03.98Z</time></trkpt><trkpt lat="45.303305" lon="8.5081117"><ele>117.0</ele><time>2026-04-19T10:23:04.981Z</time></trkpt><trkpt lat="45.3033333" lon="8.508"><ele>117.0</ele><time>2026-04-19T10:23:05.981Z</time></trkpt><trkpt lat="45.3033633" lon="8.5079017"><ele>117.0</ele><time>2026-04-19T10:23:06.98Z</time></trkpt><trkpt lat="45.3033833" lon="8.5078167"><ele>117.0</ele><time>2026-04-19T10:23:07.98Z</time></trkpt><trkpt lat="45.3034083" lon="8.5076933"><ele>117.0</ele><time>2026-04-19T10:23:09.981Z</time></trkpt><trkpt lat="45.3034217" lon="8.507585"><ele>117.0</ele><time>2026-04-19T10:23:12.981Z</time></trkpt><trkpt lat="45.3034483" lon="8.5074633"><ele>117.0</ele><time>2026-04-19T10:23:25.981Z</time></trkpt><trkpt lat="45.303485" lon="8.5073667"><ele>116.99999999999999</ele><time>2026-04-19T10:23:27.98Z</time></trkpt><trkpt lat="45.3035283" lon="8.50722"><ele>116.99999999999999</ele><time>2026-04-19T10:23:29.981Z</time></trkpt><trkpt lat="45.3035633" lon="8.50711"><ele>117.0</ele><time>2026-04-19T10:23:30.98Z</time></trkpt><trkpt lat="45.3035983" lon="8.5069867"><ele>117.0</ele><time>2026-04-19T10:23:31.98Z</time></trkpt><trkpt lat="45.3036367" lon="8.5068617"><ele>117.0</ele><time>2026-04-19T10:23:32.98Z</time></trkpt><trkpt lat="45.30367" lon="8.506735"><ele>116.99999999999999</ele><time>2026-04-19T10:23:33.98Z</time></trkpt><trkpt lat="45.3037" lon="8.5066117"><ele>116.99999999999999</ele><time>2026-04-19T10:23:34.981Z</time></trkpt><trkpt lat="45.3037267" lon="8.506485"><ele>117.0</ele><time>2026-04-19T10:23:35.981Z</time></trkpt><trkpt lat="45.3037633" lon="8.5063583"><ele>117.0</ele><time>2026-04-19T10:23:36.98Z</time></trkpt><trkpt lat="45.3037983" lon="8.5062383"><ele>117.0</ele><time>2026-04-19T10:23:37.981Z</time></trkpt><trkpt lat="45.30383" lon="8.5061067"><ele>116.99999999999999</ele><time>2026-04-19T10:23:38.98Z</time></trkpt><trkpt lat="45.30386" lon="8.5059833"><ele>116.99999999999999</ele><time>2026-04-19T10:23:39.98Z</time></trkpt><trkpt lat="45.3038983" lon="8.5058533"><ele>117.0</ele><time>2026-04-19T10:23:40.981Z</time></trkpt><trkpt lat="45.303935" lon="8.5057217"><ele>117.0</ele><time>2026-04-19T10:23:41.981Z</time></trkpt><trkpt lat="45.3039683" lon="8.505595"><ele>116.8</ele><time>2026-04-19T10:23:42.981Z</time></trkpt><trkpt lat="45.304" lon="8.5054617"><ele>116.6</ele><time>2026-04-19T10:23:43.98Z</time></trkpt><trkpt lat="45.3040283" lon="8.5053317"><ele>116.39999999999999</ele><time>2026-04-19T10:23:44.98Z</time></trkpt><trkpt lat="45.3040567" lon="8.5051983"><ele>116.19999999999999</ele><time>2026-04-19T10:23:45.981Z</time></trkpt><trkpt lat="45.3040917" lon="8.5050517"><ele>116.0</ele><time>2026-04-19T10:23:46.981Z</time></trkpt><trkpt lat="45.3041133" lon="8.5049067"><ele>115.6</ele><time>2026-04-19T10:23:47.98Z</time></trkpt><trkpt lat="45.3041367" lon="8.5047617"><ele>115.19999999999999</ele><time>2026-04-19T10:23:48.981Z</time></trkpt><trkpt lat="45.3041567" lon="8.5046267"><ele>114.80000000000001</ele><time>2026-04-19T10:23:49.981Z</time></trkpt><trkpt lat="45.3041683" lon="8.5044917"><ele>114.4</ele><time>2026-04-19T10:23:50.98Z</time></trkpt><trkpt lat="45.3041917" lon="8.5043533"><ele>114.0</ele><time>2026-04-19T10:23:51.98Z</time></trkpt><trkpt lat="45.30422" lon="8.5042033"><ele>114.0</ele><time>2026-04-19T10:23:52.981Z</time></trkpt><trkpt lat="45.3042483" lon="8.5040433"><ele>114.0</ele><time>2026-04-19T10:23:53.981Z</time></trkpt><trkpt lat="45.3042817" lon="8.50389"><ele>114.0</ele><time>2026-04-19T10:23:54.98Z</time></trkpt><trkpt lat="45.304305" lon="8.5037383"><ele>114.0</ele><time>2026-04-19T10:23:55.981Z</time></trkpt><trkpt lat="45.3043317" lon="8.5035967"><ele>114.0</ele><time>2026-04-19T10:23:56.98Z</time></trkpt><trkpt lat="45.304355" lon="8.5034583"><ele>113.80000000000001</ele><time>2026-04-19T10:23:57.981Z</time></trkpt><trkpt lat="45.3043717" lon="8.503315"><ele>113.60000000000001</ele><time>2026-04-19T10:23:58.981Z</time></trkpt><trkpt lat="45.3043783" lon="8.5031683"><ele>113.4</ele><time>2026-04-19T10:23:59.981Z</time></trkpt><trkpt lat="45.3043867" lon="8.5030117"><ele>113.2</ele><time>2026-04-19T10:24:00.981Z</time></trkpt><trkpt lat="45.3044067" lon="8.50285"><ele>113.0</ele><time>2026-04-19T10:24:01.981Z</time></trkpt><trkpt lat="45.3044217" lon="8.502685"><ele>113.0</ele><time>2026-04-19T10:24:02.981Z</time></trkpt><trkpt lat="45.3044283" lon="8.5025233"><ele>113.0</ele><time>2026-04-19T10:24:03.981Z</time></trkpt><trkpt lat="45.30443" lon="8.502355"><ele>113.0</ele><time>2026-04-19T10:24:04.981Z</time></trkpt><trkpt lat="45.3044283" lon="8.50219"><ele>113.0</ele><time>2026-04-19T10:24:05.98Z</time></trkpt><trkpt lat="45.3044267" lon="8.502025"><ele>113.0</ele><time>2026-04-19T10:24:06.98Z</time></trkpt><trkpt lat="45.304415" lon="8.501865"><ele>113.0</ele><time>2026-04-19T10:24:07.981Z</time></trkpt><trkpt lat="45.3044017" lon="8.5017033"><ele>113.0</ele><time>2026-04-19T10:24:08.98Z</time></trkpt><trkpt lat="45.30439" lon="8.5015417"><ele>113.0</ele><time>2026-04-19T10:24:09.98Z</time></trkpt><trkpt lat="45.3043817" lon="8.5013833"><ele>113.0</ele><time>2026-04-19T10:24:10.981Z</time></trkpt><trkpt lat="45.3043733" lon="8.501225"><ele>113.0</ele><time>2026-04-19T10:24:11.98Z</time></trkpt><trkpt lat="45.3043633" lon="8.5010667"><ele>113.0</ele><time>2026-04-19T10:24:12.98Z</time></trkpt><trkpt lat="45.3043517" lon="8.5009017"><ele>113.0</ele><time>2026-04-19T10:24:13.98Z</time></trkpt><trkpt lat="45.3043417" lon="8.5007367"><ele>113.0</ele><time>2026-04-19T10:24:14.98Z</time></trkpt><trkpt lat="45.30433" lon="8.500565"><ele>113.0</ele><time>2026-04-19T10:24:15.981Z</time></trkpt><trkpt lat="45.3043217" lon="8.500385"><ele>113.0</ele><time>2026-04-19T10:24:16.98Z</time></trkpt><trkpt lat="45.3043133" lon="8.5002017"><ele>113.0</ele><time>2026-04-19T10:24:17.98Z</time></trkpt><trkpt lat="45.3043033" lon="8.5000217"><ele>113.25</ele><time>2026-04-19T10:24:18.981Z</time></trkpt><trkpt lat="45.3042883" lon="8.4998367"><ele>113.5</ele><time>2026-04-19T10:24:19.98Z</time></trkpt><trkpt lat="45.3042717" lon="8.499665"><ele>113.75</ele><time>2026-04-19T10:24:20.981Z</time></trkpt><trkpt lat="45.3042567" lon="8.4994917"><ele>114.0</ele><time>2026-04-19T10:24:21.98Z</time></trkpt><trkpt lat="45.304245" lon="8.4993233"><ele>114.0</ele><time>2026-04-19T10:24:22.981Z</time></trkpt><trkpt lat="45.3042333" lon="8.4991333"><ele>114.0</ele><time>2026-04-19T10:24:23.98Z</time></trkpt><trkpt lat="45.3042133" lon="8.4989433"><ele>114.0</ele><time>2026-04-19T10:24:24.981Z</time></trkpt><trkpt lat="45.3042067" lon="8.4987583"><ele>114.0</ele><time>2026-04-19T10:24:25.981Z</time></trkpt><trkpt lat="45.3041983" lon="8.498605"><ele>114.0</ele><time>2026-04-19T10:24:26.981Z</time></trkpt><trkpt lat="45.3041917" lon="8.4984583"><ele>114.0</ele><time>2026-04-19T10:24:27.981Z</time></trkpt><trkpt lat="45.3041817" lon="8.498315"><ele>114.0</ele><time>2026-04-19T10:24:28.981Z</time></trkpt><trkpt lat="45.30416" lon="8.4981767"><ele>114.0</ele><time>2026-04-19T10:24:29.98Z</time></trkpt><trkpt lat="45.3041467" lon="8.4980367"><ele>114.0</ele><time>2026-04-19T10:24:30.98Z</time></trkpt><trkpt lat="45.3041217" lon="8.49792"><ele>113.83333333333333</ele><time>2026-04-19T10:24:31.981Z</time></trkpt><trkpt lat="45.3040933" lon="8.49782"><ele>113.66666666666666</ele><time>2026-04-19T10:24:32.98Z</time></trkpt><trkpt lat="45.3040667" lon="8.497725"><ele>113.5</ele><time>2026-04-19T10:24:33.98Z</time></trkpt><trkpt lat="45.3040417" lon="8.49764"><ele>113.33333333333333</ele><time>2026-04-19T10:24:34.981Z</time></trkpt><trkpt lat="45.3039933" lon="8.4974983"><ele>113.16666666666666</ele><time>2026-04-19T10:24:36.981Z</time></trkpt><trkpt lat="45.3039433" lon="8.4973717"><ele>113.0</ele><time>2026-04-19T10:24:38.98Z</time></trkpt><trkpt lat="45.3038917" lon="8.497195"><ele>113.4</ele><time>2026-04-19T10:24:40.98Z</time></trkpt><trkpt lat="45.30386" lon="8.49709"><ele>113.80000000000001</ele><time>2026-04-19T10:24:41.979Z</time></trkpt><trkpt lat="45.3038283" lon="8.496975"><ele>114.2</ele><time>2026-04-19T10:24:42.979Z</time></trkpt><trkpt lat="45.30379" lon="8.4968433"><ele>114.6</ele><time>2026-04-19T10:24:43.98Z</time></trkpt><trkpt lat="45.3037517" lon="8.4967"><ele>115.0</ele><time>2026-04-19T10:24:44.98Z</time></trkpt><trkpt lat="45.3037" lon="8.49655"><ele>115.0</ele><time>2026-04-19T10:24:45.98Z</time></trkpt><trkpt lat="45.3036517" lon="8.49639"><ele>115.0</ele><time>2026-04-19T10:24:46.98Z</time></trkpt><trkpt lat="45.3036033" lon="8.49622"><ele>115.0</ele><time>2026-04-19T10:24:47.979Z</time></trkpt><trkpt lat="45.30355" lon="8.4960317"><ele>115.0</ele><time>2026-04-19T10:24:48.98Z</time></trkpt><trkpt lat="45.3035" lon="8.4958533"><ele>114.75</ele><time>2026-04-19T10:24:49.979Z</time></trkpt><trkpt lat="45.3034367" lon="8.49567"><ele>114.5</ele><time>2026-04-19T10:24:50.98Z</time></trkpt><trkpt lat="45.30338" lon="8.4954717"><ele>114.25</ele><time>2026-04-19T10:24:51.98Z</time></trkpt><trkpt lat="45.303325" lon="8.4952767"><ele>114.0</ele><time>2026-04-19T10:24:52.98Z</time></trkpt><trkpt lat="45.30328" lon="8.4950717"><ele>114.0</ele><time>2026-04-19T10:24:53.979Z</time></trkpt><trkpt lat="45.30324" lon="8.4948683"><ele>114.0</ele><time>2026-04-19T10:24:54.979Z</time></trkpt><trkpt lat="45.3031983" lon="8.49467"><ele>114.0</ele><time>2026-04-19T10:24:55.979Z</time></trkpt><trkpt lat="45.3031633" lon="8.494475"><ele>114.0</ele><time>2026-04-19T10:24:56.98Z</time></trkpt><trkpt lat="45.3031517" lon="8.4942783"><ele>114.0</ele><time>2026-04-19T10:24:57.98Z</time></trkpt><trkpt lat="45.3031483" lon="8.49409"><ele>114.0</ele><time>2026-04-19T10:24:58.98Z</time></trkpt><trkpt lat="45.3031583" lon="8.49389"><ele>114.0</ele><time>2026-04-19T10:24:59.979Z</time></trkpt><trkpt lat="45.30318" lon="8.4936917"><ele>114.0</ele><time>2026-04-19T10:25:00.979Z</time></trkpt><trkpt lat="45.3032" lon="8.49349"><ele>114.25</ele><time>2026-04-19T10:25:01.979Z</time></trkpt><trkpt lat="45.3032117" lon="8.49328"><ele>114.5</ele><time>2026-04-19T10:25:02.98Z</time></trkpt><trkpt lat="45.30322" lon="8.493075"><ele>114.75</ele><time>2026-04-19T10:25:03.979Z</time></trkpt><trkpt lat="45.3032367" lon="8.4928633"><ele>115.0</ele><time>2026-04-19T10:25:04.98Z</time></trkpt><trkpt lat="45.30325" lon="8.4926617"><ele>115.0</ele><time>2026-04-19T10:25:05.98Z</time></trkpt><trkpt lat="45.303265" lon="8.4924683"><ele>115.0</ele><time>2026-04-19T10:25:06.979Z</time></trkpt><trkpt lat="45.3032817" lon="8.4922567"><ele>115.0</ele><time>2026-04-19T10:25:07.98Z</time></trkpt><trkpt lat="45.3032917" lon="8.49205"><ele>115.0</ele><time>2026-04-19T10:25:08.98Z</time></trkpt><trkpt lat="45.3033083" lon="8.4918433"><ele>115.25</ele><time>2026-04-19T10:25:09.98Z</time></trkpt><trkpt lat="45.3033233" lon="8.4916417"><ele>115.5</ele><time>2026-04-19T10:25:10.979Z</time></trkpt><trkpt lat="45.303335" lon="8.49145"><ele>115.75</ele><time>2026-04-19T10:25:11.979Z</time></trkpt><trkpt lat="45.30335" lon="8.49125"><ele>116.0</ele><time>2026-04-19T10:25:12.979Z</time></trkpt><trkpt lat="45.30336" lon="8.49105"><ele>115.75</ele><time>2026-04-19T10:25:13.98Z</time></trkpt><trkpt lat="45.30337" lon="8.4908517"><ele>115.5</ele><time>2026-04-19T10:25:14.98Z</time></trkpt><trkpt lat="45.3033817" lon="8.4906633"><ele>115.25</ele><time>2026-04-19T10:25:15.979Z</time></trkpt><trkpt lat="45.3033983" lon="8.4904767"><ele>115.0</ele><time>2026-04-19T10:25:16.979Z</time></trkpt><trkpt lat="45.3034067" lon="8.4902833"><ele>115.0</ele><time>2026-04-19T10:25:17.979Z</time></trkpt><trkpt lat="45.3034183" lon="8.490075"><ele>115.0</ele><time>2026-04-19T10:25:18.979Z</time></trkpt><trkpt lat="45.3034333" lon="8.4898767"><ele>115.0</ele><time>2026-04-19T10:25:19.979Z</time></trkpt><trkpt lat="45.30344" lon="8.4896833"><ele>115.0</ele><time>2026-04-19T10:25:20.979Z</time></trkpt><trkpt lat="45.3034483" lon="8.4895083"><ele>115.2</ele><time>2026-04-19T10:25:21.98Z</time></trkpt><trkpt lat="45.3034633" lon="8.4893533"><ele>115.4</ele><time>2026-04-19T10:25:22.979Z</time></trkpt><trkpt lat="45.3034783" lon="8.4892033"><ele>115.6</ele><time>2026-04-19T10:25:23.98Z</time></trkpt><trkpt lat="45.3034933" lon="8.489075"><ele>115.8</ele><time>2026-04-19T10:25:24.979Z</time></trkpt><trkpt lat="45.3035117" lon="8.4889383"><ele>116.0</ele><time>2026-04-19T10:25:25.979Z</time></trkpt><trkpt lat="45.3035383" lon="8.4888083"><ele>116.0</ele><time>2026-04-19T10:25:26.98Z</time></trkpt><trkpt lat="45.303575" lon="8.4886717"><ele>116.0</ele><time>2026-04-19T10:25:27.979Z</time></trkpt><trkpt lat="45.3036117" lon="8.48854"><ele>116.0</ele><time>2026-04-19T10:25:28.979Z</time></trkpt><trkpt lat="45.3036533" lon="8.4884083"><ele>116.0</ele><time>2026-04-19T10:25:29.979Z</time></trkpt><trkpt lat="45.3037133" lon="8.4882833"><ele>116.0</ele><time>2026-04-19T10:25:30.98Z</time></trkpt><trkpt lat="45.30377" lon="8.488175"><ele>115.99999999999999</ele><time>2026-04-19T10:25:31.979Z</time></trkpt><trkpt lat="45.3038317" lon="8.488065"><ele>116.0</ele><time>2026-04-19T10:25:32.98Z</time></trkpt><trkpt lat="45.3038867" lon="8.4879717"><ele>116.0</ele><time>2026-04-19T10:25:33.979Z</time></trkpt><trkpt lat="45.30395" lon="8.48789"><ele>116.0</ele><time>2026-04-19T10:25:34.979Z</time></trkpt><trkpt lat="45.3040133" lon="8.4878067"><ele>115.99999999999999</ele><time>2026-04-19T10:25:35.979Z</time></trkpt><trkpt lat="45.30408" lon="8.4877417"><ele>116.0</ele><time>2026-04-19T10:25:36.98Z</time></trkpt><trkpt lat="45.3041567" lon="8.4876667"><ele>116.0</ele><time>2026-04-19T10:25:37.98Z</time></trkpt><trkpt lat="45.3042417" lon="8.4875967"><ele>116.0</ele><time>2026-04-19T10:25:38.98Z</time></trkpt><trkpt lat="45.30433" lon="8.4875217"><ele>116.0</ele><time>2026-04-19T10:25:39.98Z</time></trkpt><trkpt lat="45.3044167" lon="8.4874483"><ele>116.0</ele><time>2026-04-19T10:25:40.979Z</time></trkpt><trkpt lat="45.3045083" lon="8.487395"><ele>116.0</ele><time>2026-04-19T10:25:41.98Z</time></trkpt><trkpt lat="45.3046" lon="8.487335"><ele>116.0</ele><time>2026-04-19T10:25:42.979Z</time></trkpt><trkpt lat="45.3046917" lon="8.4872717"><ele>116.0</ele><time>2026-04-19T10:25:43.98Z</time></trkpt><trkpt lat="45.3047883" lon="8.4871967"><ele>116.0</ele><time>2026-04-19T10:25:44.98Z</time></trkpt><trkpt lat="45.3048833" lon="8.4871317"><ele>116.0</ele><time>2026-04-19T10:25:45.979Z</time></trkpt><trkpt lat="45.30498" lon="8.487055"><ele>116.0</ele><time>2026-04-19T10:25:46.98Z</time></trkpt><trkpt lat="45.3050683" lon="8.487"><ele>116.19999999999999</ele><time>2026-04-19T10:25:47.98Z</time></trkpt><trkpt lat="45.30515" lon="8.4869567"><ele>116.39999999999999</ele><time>2026-04-19T10:25:48.979Z</time></trkpt><trkpt lat="45.305235" lon="8.4869067"><ele>116.6</ele><time>2026-04-19T10:25:49.979Z</time></trkpt><trkpt lat="45.30532" lon="8.4868317"><ele>116.8</ele><time>2026-04-19T10:25:50.98Z</time></trkpt><trkpt lat="45.3054083" lon="8.4867583"><ele>117.0</ele><time>2026-04-19T10:25:51.98Z</time></trkpt><trkpt lat="45.30549" lon="8.4866933"><ele>117.39999999999999</ele><time>2026-04-19T10:25:52.979Z</time></trkpt><trkpt lat="45.3055817" lon="8.4866317"><ele>117.79999999999998</ele><time>2026-04-19T10:25:53.979Z</time></trkpt><trkpt lat="45.3056683" lon="8.486565"><ele>118.2</ele><time>2026-04-19T10:25:54.98Z</time></trkpt><trkpt lat="45.3057667" lon="8.4864883"><ele>118.6</ele><time>2026-04-19T10:25:55.98Z</time></trkpt><trkpt lat="45.305865" lon="8.4864167"><ele>119.0</ele><time>2026-04-19T10:25:56.979Z</time></trkpt><trkpt lat="45.305965" lon="8.4863467"><ele>119.0</ele><time>2026-04-19T10:25:57.979Z</time></trkpt><trkpt lat="45.3060633" lon="8.4862867"><ele>119.0</ele><time>2026-04-19T10:25:58.98Z</time></trkpt><trkpt lat="45.306165" lon="8.48623"><ele>119.0</ele><time>2026-04-19T10:25:59.979Z</time></trkpt><trkpt lat="45.3062667" lon="8.4861717"><ele>119.0</ele><time>2026-04-19T10:26:00.98Z</time></trkpt><trkpt lat="45.306375" lon="8.4861"><ele>119.0</ele><time>2026-04-19T10:26:01.979Z</time></trkpt><trkpt lat="45.306485" lon="8.4860417"><ele>119.0</ele><time>2026-04-19T10:26:02.98Z</time></trkpt><trkpt lat="45.3065933" lon="8.4859867"><ele>119.0</ele><time>2026-04-19T10:26:03.979Z</time></trkpt><trkpt lat="45.3067083" lon="8.48594"><ele>119.0</ele><time>2026-04-19T10:26:04.98Z</time></trkpt><trkpt lat="45.3068167" lon="8.4858833"><ele>119.0</ele><time>2026-04-19T10:26:05.98Z</time></trkpt><trkpt lat="45.3069267" lon="8.4858083"><ele>119.0</ele><time>2026-04-19T10:26:06.98Z</time></trkpt><trkpt lat="45.3070367" lon="8.4857417"><ele>119.0</ele><time>2026-04-19T10:26:07.979Z</time></trkpt><trkpt lat="45.3071483" lon="8.4856533"><ele>119.0</ele><time>2026-04-19T10:26:08.979Z</time></trkpt><trkpt lat="45.3072633" lon="8.485575"><ele>119.0</ele><time>2026-04-19T10:26:09.98Z</time></trkpt><trkpt lat="45.30738" lon="8.4855067"><ele>118.6</ele><time>2026-04-19T10:26:10.98Z</time></trkpt><trkpt lat="45.307485" lon="8.48544"><ele>118.2</ele><time>2026-04-19T10:26:11.98Z</time></trkpt><trkpt lat="45.3075783" lon="8.4853817"><ele>117.79999999999998</ele><time>2026-04-19T10:26:12.979Z</time></trkpt><trkpt lat="45.3076717" lon="8.4853167"><ele>117.39999999999999</ele><time>2026-04-19T10:26:13.979Z</time></trkpt><trkpt lat="45.3077717" lon="8.4852517"><ele>117.0</ele><time>2026-04-19T10:26:14.979Z</time></trkpt><trkpt lat="45.30787" lon="8.485185"><ele>117.0</ele><time>2026-04-19T10:26:15.979Z</time></trkpt><trkpt lat="45.30796" lon="8.4851283"><ele>116.99999999999999</ele><time>2026-04-19T10:26:16.98Z</time></trkpt><trkpt lat="45.3080433" lon="8.4850667"><ele>116.99999999999999</ele><time>2026-04-19T10:26:17.979Z</time></trkpt><trkpt lat="45.30813" lon="8.48501"><ele>117.0</ele><time>2026-04-19T10:26:18.98Z</time></trkpt><trkpt lat="45.30822" lon="8.4849367"><ele>117.0</ele><time>2026-04-19T10:26:19.98Z</time></trkpt><trkpt lat="45.308305" lon="8.4848433"><ele>117.0</ele><time>2026-04-19T10:26:20.98Z</time></trkpt><trkpt lat="45.308375" lon="8.4847383"><ele>116.99999999999999</ele><time>2026-04-19T10:26:21.98Z</time></trkpt><trkpt lat="45.308435" lon="8.484615"><ele>116.99999999999999</ele><time>2026-04-19T10:26:22.98Z</time></trkpt><trkpt lat="45.3084967" lon="8.484495"><ele>117.0</ele><time>2026-04-19T10:26:23.98Z</time></trkpt><trkpt lat="45.3085433" lon="8.484375"><ele>117.0</ele><time>2026-04-19T10:26:24.979Z</time></trkpt><trkpt lat="45.3085867" lon="8.4842633"><ele>117.0</ele><time>2026-04-19T10:26:25.98Z</time></trkpt><trkpt lat="45.308625" lon="8.4841383"><ele>116.99999999999999</ele><time>2026-04-19T10:26:26.979Z</time></trkpt><trkpt lat="45.3086667" lon="8.4840133"><ele>116.99999999999999</ele><time>2026-04-19T10:26:27.98Z</time></trkpt><trkpt lat="45.3087067" lon="8.48389"><ele>117.0</ele><time>2026-04-19T10:26:28.98Z</time></trkpt><trkpt lat="45.3087583" lon="8.483775"><ele>117.0</ele><time>2026-04-19T10:26:29.979Z</time></trkpt><trkpt lat="45.3087933" lon="8.483675"><ele>117.0</ele><time>2026-04-19T10:26:30.979Z</time></trkpt><trkpt lat="45.3088267" lon="8.4835683"><ele>117.0</ele><time>2026-04-19T10:26:31.98Z</time></trkpt><trkpt lat="45.308855" lon="8.4834617"><ele>117.0</ele><time>2026-04-19T10:26:32.98Z</time></trkpt><trkpt lat="45.30889" lon="8.4833583"><ele>117.0</ele><time>2026-04-19T10:26:33.98Z</time></trkpt><trkpt lat="45.30892" lon="8.4832567"><ele>117.0</ele><time>2026-04-19T10:26:34.98Z</time></trkpt><trkpt lat="45.3089467" lon="8.483165"><ele>117.0</ele><time>2026-04-19T10:26:35.979Z</time></trkpt><trkpt lat="45.3089733" lon="8.483075"><ele>117.0</ele><time>2026-04-19T10:26:36.979Z</time></trkpt><trkpt lat="45.3090133" lon="8.4829267"><ele>116.99999999999999</ele><time>2026-04-19T10:26:38.98Z</time></trkpt><trkpt lat="45.309045" lon="8.4828383"><ele>116.99999999999999</ele><time>2026-04-19T10:26:40.979Z</time></trkpt><trkpt lat="45.3090633" lon="8.4827117"><ele>117.0</ele><time>2026-04-19T10:27:08.98Z</time></trkpt><trkpt lat="45.3091033" lon="8.4825933"><ele>117.0</ele><time>2026-04-19T10:27:09.98Z</time></trkpt><trkpt lat="45.309145" lon="8.482465"><ele>117.0</ele><time>2026-04-19T10:27:10.98Z</time></trkpt><trkpt lat="45.3091883" lon="8.4823283"><ele>117.0</ele><time>2026-04-19T10:27:11.98Z</time></trkpt><trkpt lat="45.3092333" lon="8.4821717"><ele>117.0</ele><time>2026-04-19T10:27:12.979Z</time></trkpt><trkpt lat="45.3092867" lon="8.4820067"><ele>117.0</ele><time>2026-04-19T10:27:13.979Z</time></trkpt><trkpt lat="45.30935" lon="8.4818233"><ele>117.0</ele><time>2026-04-19T10:27:14.979Z</time></trkpt><trkpt lat="45.3094067" lon="8.481615"><ele>117.0</ele><time>2026-04-19T10:27:15.98Z</time></trkpt><trkpt lat="45.3094767" lon="8.48139"><ele>117.0</ele><time>2026-04-19T10:27:16.979Z</time></trkpt><trkpt lat="45.3095417" lon="8.4811633"><ele>117.0</ele><time>2026-04-19T10:27:17.979Z</time></trkpt><trkpt lat="45.309615" lon="8.4809367"><ele>117.0</ele><time>2026-04-19T10:27:18.98Z</time></trkpt><trkpt lat="45.309685" lon="8.4807117"><ele>117.0</ele><time>2026-04-19T10:27:19.98Z</time></trkpt><trkpt lat="45.3097567" lon="8.4804767"><ele>117.0</ele><time>2026-04-19T10:27:20.979Z</time></trkpt><trkpt lat="45.30983" lon="8.480225"><ele>117.0</ele><time>2026-04-19T10:27:21.979Z</time></trkpt><trkpt lat="45.3099067" lon="8.4799633"><ele>117.0</ele><time>2026-04-19T10:27:22.98Z</time></trkpt><trkpt lat="45.3099883" lon="8.4797117"><ele>117.0</ele><time>2026-04-19T10:27:23.98Z</time></trkpt><trkpt lat="45.310065" lon="8.47946"><ele>117.0</ele><time>2026-04-19T10:27:24.98Z</time></trkpt><trkpt lat="45.3101433" lon="8.4792133"><ele>117.0</ele><time>2026-04-19T10:27:25.98Z</time></trkpt><trkpt lat="45.3102083" lon="8.478975"><ele>118.0</ele><time>2026-04-19T10:27:26.98Z</time></trkpt><trkpt lat="45.3102733" lon="8.4787317"><ele>119.0</ele><time>2026-04-19T10:27:27.98Z</time></trkpt><trkpt lat="45.3103333" lon="8.4785"><ele>120.0</ele><time>2026-04-19T10:27:28.979Z</time></trkpt><trkpt lat="45.31041" lon="8.4782633"><ele>120.0</ele><time>2026-04-19T10:27:29.979Z</time></trkpt><trkpt lat="45.31048" lon="8.4780233"><ele>120.0</ele><time>2026-04-19T10:27:30.98Z</time></trkpt><trkpt lat="45.3105417" lon="8.4777833"><ele>120.0</ele><time>2026-04-19T10:27:31.98Z</time></trkpt><trkpt lat="45.3106133" lon="8.4775417"><ele>120.0</ele><time>2026-04-19T10:27:32.98Z</time></trkpt><trkpt lat="45.310695" lon="8.4772967"><ele>120.0</ele><time>2026-04-19T10:27:33.98Z</time></trkpt><trkpt lat="45.310765" lon="8.477055"><ele>120.0</ele><time>2026-04-19T10:27:34.979Z</time></trkpt><trkpt lat="45.3108417" lon="8.4768017"><ele>120.0</ele><time>2026-04-19T10:27:35.98Z</time></trkpt><trkpt lat="45.3109133" lon="8.47655"><ele>120.0</ele><time>2026-04-19T10:27:36.98Z</time></trkpt><trkpt lat="45.3109967" lon="8.4763133"><ele>120.0</ele><time>2026-04-19T10:27:37.98Z</time></trkpt><trkpt lat="45.3110633" lon="8.4760767"><ele>120.0</ele><time>2026-04-19T10:27:38.98Z</time></trkpt><trkpt lat="45.31113" lon="8.475835"><ele>120.0</ele><time>2026-04-19T10:27:39.98Z</time></trkpt><trkpt lat="45.311205" lon="8.475595"><ele>120.0</ele><time>2026-04-19T10:27:40.98Z</time></trkpt><trkpt lat="45.3112867" lon="8.4753417"><ele>119.33333333333334</ele><time>2026-04-19T10:27:41.979Z</time></trkpt><trkpt lat="45.3113633" lon="8.4750867"><ele>118.66666666666667</ele><time>2026-04-19T10:27:42.979Z</time></trkpt><trkpt lat="45.311435" lon="8.47483"><ele>118.0</ele><time>2026-04-19T10:27:43.979Z</time></trkpt><trkpt lat="45.31151" lon="8.4745733"><ele>117.66666666666667</ele><time>2026-04-19T10:27:44.98Z</time></trkpt><trkpt lat="45.3115717" lon="8.474335"><ele>117.33333333333334</ele><time>2026-04-19T10:27:45.98Z</time></trkpt><trkpt lat="45.3116417" lon="8.4740883"><ele>117.0</ele><time>2026-04-19T10:27:46.98Z</time></trkpt><trkpt lat="45.31172" lon="8.47385"><ele>117.33333333333334</ele><time>2026-04-19T10:27:47.98Z</time></trkpt><trkpt lat="45.3117933" lon="8.4735983"><ele>117.66666666666667</ele><time>2026-04-19T10:27:48.98Z</time></trkpt><trkpt lat="45.3118633" lon="8.4733467"><ele>118.0</ele><time>2026-04-19T10:27:49.979Z</time></trkpt><trkpt lat="45.31193" lon="8.4730967"><ele>118.66666666666667</ele><time>2026-04-19T10:27:50.98Z</time></trkpt><trkpt lat="45.3120067" lon="8.4728567"><ele>119.33333333333334</ele><time>2026-04-19T10:27:51.98Z</time></trkpt><trkpt lat="45.3120683" lon="8.472615"><ele>120.0</ele><time>2026-04-19T10:27:52.979Z</time></trkpt><trkpt lat="45.3121333" lon="8.4723983"><ele>120.0</ele><time>2026-04-19T10:27:53.98Z</time></trkpt><trkpt lat="45.3122017" lon="8.47218"><ele>120.0</ele><time>2026-04-19T10:27:54.98Z</time></trkpt><trkpt lat="45.312265" lon="8.47196"><ele>120.0</ele><time>2026-04-19T10:27:55.979Z</time></trkpt><trkpt lat="45.31233" lon="8.4717383"><ele>119.66666666666666</ele><time>2026-04-19T10:27:56.98Z</time></trkpt><trkpt lat="45.3123983" lon="8.4715283"><ele>119.33333333333333</ele><time>2026-04-19T10:27:57.98Z</time></trkpt><trkpt lat="45.3124533" lon="8.4713183"><ele>119.0</ele><time>2026-04-19T10:27:58.98Z</time></trkpt><trkpt lat="45.3125" lon="8.471135"><ele>119.5</ele><time>2026-04-19T10:27:59.979Z</time></trkpt><trkpt lat="45.3125417" lon="8.4709567"><ele>120.0</ele><time>2026-04-19T10:28:00.98Z</time></trkpt><trkpt lat="45.31258" lon="8.470765"><ele>120.5</ele><time>2026-04-19T10:28:01.98Z</time></trkpt><trkpt lat="45.3126117" lon="8.47057"><ele>121.0</ele><time>2026-04-19T10:28:02.98Z</time></trkpt><trkpt lat="45.3126533" lon="8.4703617"><ele>121.0</ele><time>2026-04-19T10:28:03.979Z</time></trkpt><trkpt lat="45.3127017" lon="8.470145"><ele>121.0</ele><time>2026-04-19T10:28:04.98Z</time></trkpt><trkpt lat="45.31276" lon="8.4699283"><ele>121.0</ele><time>2026-04-19T10:28:05.98Z</time></trkpt><trkpt lat="45.3128067" lon="8.4696733"><ele>120.33333333333334</ele><time>2026-04-19T10:28:06.979Z</time></trkpt><trkpt lat="45.3128617" lon="8.4694383"><ele>119.66666666666666</ele><time>2026-04-19T10:28:07.98Z</time></trkpt><trkpt lat="45.3129117" lon="8.4691883"><ele>119.0</ele><time>2026-04-19T10:28:08.98Z</time></trkpt><trkpt lat="45.31297" lon="8.4689383"><ele>119.0</ele><time>2026-04-19T10:28:09.979Z</time></trkpt><trkpt lat="45.3130317" lon="8.46869"><ele>119.0</ele><time>2026-04-19T10:28:10.98Z</time></trkpt><trkpt lat="45.3130933" lon="8.4684433"><ele>119.0</ele><time>2026-04-19T10:28:11.98Z</time></trkpt><trkpt lat="45.3131533" lon="8.468205"><ele>119.0</ele><time>2026-04-19T10:28:12.98Z</time></trkpt><trkpt lat="45.31321" lon="8.4679617"><ele>119.0</ele><time>2026-04-19T10:28:13.98Z</time></trkpt><trkpt lat="45.313265" lon="8.46772"><ele>119.0</ele><time>2026-04-19T10:28:14.98Z</time></trkpt><trkpt lat="45.3133217" lon="8.4674633"><ele>118.66666666666666</ele><time>2026-04-19T10:28:15.98Z</time></trkpt><trkpt lat="45.31338" lon="8.4672133"><ele>118.33333333333334</ele><time>2026-04-19T10:28:16.98Z</time></trkpt><trkpt lat="45.31344" lon="8.4669683"><ele>118.0</ele><time>2026-04-19T10:28:17.979Z</time></trkpt><trkpt lat="45.313495" lon="8.4667067"><ele>118.0</ele><time>2026-04-19T10:28:18.98Z</time></trkpt><trkpt lat="45.3135467" lon="8.4664583"><ele>118.0</ele><time>2026-04-19T10:28:19.978Z</time></trkpt><trkpt lat="45.3135983" lon="8.4662033"><ele>118.0</ele><time>2026-04-19T10:28:20.979Z</time></trkpt><trkpt lat="45.313645" lon="8.4659383"><ele>118.0</ele><time>2026-04-19T10:28:21.979Z</time></trkpt><trkpt lat="45.313695" lon="8.46567"><ele>118.0</ele><time>2026-04-19T10:28:22.978Z</time></trkpt><trkpt lat="45.3137367" lon="8.4654117"><ele>118.0</ele><time>2026-04-19T10:28:23.978Z</time></trkpt><trkpt lat="45.313785" lon="8.4651483"><ele>118.0</ele><time>2026-04-19T10:28:24.979Z</time></trkpt><trkpt lat="45.3138333" lon="8.4648983"><ele>118.0</ele><time>2026-04-19T10:28:25.979Z</time></trkpt><trkpt lat="45.3138783" lon="8.46464"><ele>118.0</ele><time>2026-04-19T10:28:26.979Z</time></trkpt><trkpt lat="45.3139333" lon="8.46438"><ele>118.0</ele><time>2026-04-19T10:28:27.978Z</time></trkpt><trkpt lat="45.31398" lon="8.4641267"><ele>118.0</ele><time>2026-04-19T10:28:28.978Z</time></trkpt><trkpt lat="45.3140283" lon="8.4638567"><ele>118.0</ele><time>2026-04-19T10:28:29.978Z</time></trkpt><trkpt lat="45.314075" lon="8.463605"><ele>118.33333333333334</ele><time>2026-04-19T10:28:30.978Z</time></trkpt><trkpt lat="45.3141267" lon="8.4633383"><ele>118.66666666666666</ele><time>2026-04-19T10:28:31.979Z</time></trkpt><trkpt lat="45.3141833" lon="8.4630867"><ele>119.0</ele><time>2026-04-19T10:28:32.979Z</time></trkpt><trkpt lat="45.3142417" lon="8.462835"><ele>119.0</ele><time>2026-04-19T10:28:33.979Z</time></trkpt><trkpt lat="45.3142833" lon="8.4625717"><ele>119.0</ele><time>2026-04-19T10:28:34.978Z</time></trkpt><trkpt lat="45.314335" lon="8.46231"><ele>119.0</ele><time>2026-04-19T10:28:35.979Z</time></trkpt><trkpt lat="45.314385" lon="8.4620517"><ele>119.0</ele><time>2026-04-19T10:28:36.978Z</time></trkpt><trkpt lat="45.3144383" lon="8.4617967"><ele>119.0</ele><time>2026-04-19T10:28:37.979Z</time></trkpt><trkpt lat="45.3144883" lon="8.4615433"><ele>119.0</ele><time>2026-04-19T10:28:38.978Z</time></trkpt><trkpt lat="45.314535" lon="8.4612917"><ele>119.33333333333333</ele><time>2026-04-19T10:28:39.978Z</time></trkpt><trkpt lat="45.3145917" lon="8.4610417"><ele>119.66666666666666</ele><time>2026-04-19T10:28:40.978Z</time></trkpt><trkpt lat="45.3146483" lon="8.46078"><ele>120.0</ele><time>2026-04-19T10:28:41.979Z</time></trkpt><trkpt lat="45.314705" lon="8.460515"><ele>119.66666666666666</ele><time>2026-04-19T10:28:42.978Z</time></trkpt><trkpt lat="45.3147583" lon="8.460265"><ele>119.33333333333333</ele><time>2026-04-19T10:28:43.979Z</time></trkpt><trkpt lat="45.31481" lon="8.4600117"><ele>119.0</ele><time>2026-04-19T10:28:44.979Z</time></trkpt><trkpt lat="45.3148583" lon="8.459765"><ele>119.0</ele><time>2026-04-19T10:28:45.978Z</time></trkpt><trkpt lat="45.3149067" lon="8.4595167"><ele>119.0</ele><time>2026-04-19T10:28:46.979Z</time></trkpt><trkpt lat="45.3149567" lon="8.4592667"><ele>119.0</ele><time>2026-04-19T10:28:47.979Z</time></trkpt><trkpt lat="45.3150083" lon="8.459035"><ele>119.0</ele><time>2026-04-19T10:28:48.979Z</time></trkpt><trkpt lat="45.31505" lon="8.4588033"><ele>119.0</ele><time>2026-04-19T10:28:49.979Z</time></trkpt><trkpt lat="45.3150983" lon="8.4585983"><ele>119.0</ele><time>2026-04-19T10:28:50.978Z</time></trkpt><trkpt lat="45.3151367" lon="8.45839"><ele>119.0</ele><time>2026-04-19T10:28:51.979Z</time></trkpt><trkpt lat="45.315185" lon="8.4582"><ele>119.0</ele><time>2026-04-19T10:28:52.979Z</time></trkpt><trkpt lat="45.3152567" lon="8.4580183"><ele>119.0</ele><time>2026-04-19T10:28:53.979Z</time></trkpt><trkpt lat="45.3153417" lon="8.45784"><ele>119.0</ele><time>2026-04-19T10:28:54.979Z</time></trkpt><trkpt lat="45.3154317" lon="8.457665"><ele>119.0</ele><time>2026-04-19T10:28:55.979Z</time></trkpt><trkpt lat="45.3155283" lon="8.4574683"><ele>119.0</ele><time>2026-04-19T10:28:56.978Z</time></trkpt><trkpt lat="45.3156283" lon="8.4572733"><ele>119.0</ele><time>2026-04-19T10:28:57.978Z</time></trkpt><trkpt lat="45.3157317" lon="8.4570767"><ele>118.66666666666666</ele><time>2026-04-19T10:28:58.978Z</time></trkpt><trkpt lat="45.3158233" lon="8.4568733"><ele>118.33333333333334</ele><time>2026-04-19T10:28:59.979Z</time></trkpt><trkpt lat="45.3159183" lon="8.4566717"><ele>118.0</ele><time>2026-04-19T10:29:00.979Z</time></trkpt><trkpt lat="45.3160117" lon="8.456465"><ele>118.33333333333334</ele><time>2026-04-19T10:29:01.979Z</time></trkpt><trkpt lat="45.3161133" lon="8.4562567"><ele>118.66666666666666</ele><time>2026-04-19T10:29:02.979Z</time></trkpt><trkpt lat="45.3162117" lon="8.45604"><ele>119.0</ele><time>2026-04-19T10:29:03.979Z</time></trkpt><trkpt lat="45.3163133" lon="8.45583"><ele>119.33333333333333</ele><time>2026-04-19T10:29:04.978Z</time></trkpt><trkpt lat="45.3164067" lon="8.4556283"><ele>119.66666666666666</ele><time>2026-04-19T10:29:05.979Z</time></trkpt><trkpt lat="45.3164967" lon="8.4554283"><ele>120.0</ele><time>2026-04-19T10:29:06.978Z</time></trkpt><trkpt lat="45.3165867" lon="8.4552333"><ele>120.0</ele><time>2026-04-19T10:29:07.979Z</time></trkpt><trkpt lat="45.316675" lon="8.4550383"><ele>120.0</ele><time>2026-04-19T10:29:08.978Z</time></trkpt><trkpt lat="45.31677" lon="8.4548517"><ele>120.0</ele><time>2026-04-19T10:29:09.978Z</time></trkpt><trkpt lat="45.3168617" lon="8.454655"><ele>119.66666666666666</ele><time>2026-04-19T10:29:10.978Z</time></trkpt><trkpt lat="45.3169633" lon="8.45446"><ele>119.33333333333333</ele><time>2026-04-19T10:29:11.978Z</time></trkpt><trkpt lat="45.3170583" lon="8.4542733"><ele>119.0</ele><time>2026-04-19T10:29:12.979Z</time></trkpt><trkpt lat="45.3171483" lon="8.4540683"><ele>119.0</ele><time>2026-04-19T10:29:13.979Z</time></trkpt><trkpt lat="45.3172333" lon="8.45388"><ele>119.0</ele><time>2026-04-19T10:29:14.979Z</time></trkpt><trkpt lat="45.3173083" lon="8.4537083"><ele>119.0</ele><time>2026-04-19T10:29:15.978Z</time></trkpt><trkpt lat="45.3173933" lon="8.45353"><ele>119.0</ele><time>2026-04-19T10:29:16.979Z</time></trkpt><trkpt lat="45.3174767" lon="8.4533683"><ele>119.0</ele><time>2026-04-19T10:29:17.978Z</time></trkpt><trkpt lat="45.3175617" lon="8.4532033"><ele>119.0</ele><time>2026-04-19T10:29:18.979Z</time></trkpt><trkpt lat="45.3176417" lon="8.45305"><ele>119.0</ele><time>2026-04-19T10:29:19.979Z</time></trkpt><trkpt lat="45.3177117" lon="8.45291"><ele>119.0</ele><time>2026-04-19T10:29:20.978Z</time></trkpt><trkpt lat="45.3177733" lon="8.452775"><ele>119.0</ele><time>2026-04-19T10:29:21.978Z</time></trkpt><trkpt lat="45.31784" lon="8.4526417"><ele>119.0</ele><time>2026-04-19T10:29:22.978Z</time></trkpt><trkpt lat="45.3179" lon="8.452525"><ele>119.0</ele><time>2026-04-19T10:29:23.978Z</time></trkpt><trkpt lat="45.317965" lon="8.4524117"><ele>119.0</ele><time>2026-04-19T10:29:24.979Z</time></trkpt><trkpt lat="45.3180267" lon="8.452315"><ele>118.99999999999999</ele><time>2026-04-19T10:29:25.979Z</time></trkpt><trkpt lat="45.3180733" lon="8.4522267"><ele>119.0</ele><time>2026-04-19T10:29:26.979Z</time></trkpt><trkpt lat="45.3181117" lon="8.4521417"><ele>119.0</ele><time>2026-04-19T10:29:27.979Z</time></trkpt><trkpt lat="45.31813" lon="8.452005"><ele>119.0</ele><time>2026-04-19T10:29:29.979Z</time></trkpt><trkpt lat="45.3180567" lon="8.45187"><ele>118.99999999999999</ele><time>2026-04-19T10:29:31.979Z</time></trkpt><trkpt lat="45.318015" lon="8.45178"><ele>119.0</ele><time>2026-04-19T10:29:32.979Z</time></trkpt><trkpt lat="45.317965" lon="8.4516617"><ele>119.0</ele><time>2026-04-19T10:29:33.979Z</time></trkpt><trkpt lat="45.3179" lon="8.451525"><ele>119.0</ele><time>2026-04-19T10:29:34.979Z</time></trkpt><trkpt lat="45.31784" lon="8.451385"><ele>119.0</ele><time>2026-04-19T10:29:35.979Z</time></trkpt><trkpt lat="45.3177833" lon="8.4512483"><ele>119.0</ele><time>2026-04-19T10:29:36.978Z</time></trkpt><trkpt lat="45.3177283" lon="8.4511117"><ele>119.0</ele><time>2026-04-19T10:29:37.978Z</time></trkpt><trkpt lat="45.317675" lon="8.450975"><ele>119.0</ele><time>2026-04-19T10:29:38.978Z</time></trkpt><trkpt lat="45.3176217" lon="8.450845"><ele>119.0</ele><time>2026-04-19T10:29:39.979Z</time></trkpt><trkpt lat="45.3175733" lon="8.4507117"><ele>119.0</ele><time>2026-04-19T10:29:40.978Z</time></trkpt><trkpt lat="45.3175233" lon="8.4505783"><ele>119.0</ele><time>2026-04-19T10:29:41.979Z</time></trkpt><trkpt lat="45.3174617" lon="8.4504467"><ele>119.25</ele><time>2026-04-19T10:29:42.979Z</time></trkpt><trkpt lat="45.3174033" lon="8.4503083"><ele>119.5</ele><time>2026-04-19T10:29:43.978Z</time></trkpt><trkpt lat="45.3173417" lon="8.4501683"><ele>119.75</ele><time>2026-04-19T10:29:44.979Z</time></trkpt><trkpt lat="45.3172833" lon="8.450035"><ele>120.0</ele><time>2026-04-19T10:29:45.978Z</time></trkpt><trkpt lat="45.3172233" lon="8.4499017"><ele>120.0</ele><time>2026-04-19T10:29:46.979Z</time></trkpt><trkpt lat="45.3171667" lon="8.4497633"><ele>120.0</ele><time>2026-04-19T10:29:47.979Z</time></trkpt><trkpt lat="45.3171117" lon="8.4496183"><ele>120.0</ele><time>2026-04-19T10:29:48.978Z</time></trkpt><trkpt lat="45.3170533" lon="8.4494867"><ele>120.0</ele><time>2026-04-19T10:29:49.979Z</time></trkpt><trkpt lat="45.3169933" lon="8.44935"><ele>120.0</ele><time>2026-04-19T10:29:50.979Z</time></trkpt><trkpt lat="45.3169383" lon="8.4492183"><ele>120.0</ele><time>2026-04-19T10:29:51.979Z</time></trkpt><trkpt lat="45.3168867" lon="8.449095"><ele>120.0</ele><time>2026-04-19T10:29:52.979Z</time></trkpt><trkpt lat="45.31683" lon="8.4489667"><ele>120.0</ele><time>2026-04-19T10:29:53.979Z</time></trkpt><trkpt lat="45.3167783" lon="8.448845"><ele>120.0</ele><time>2026-04-19T10:29:54.978Z</time></trkpt><trkpt lat="45.316735" lon="8.4487367"><ele>120.16666666666667</ele><time>2026-04-19T10:29:55.978Z</time></trkpt><trkpt lat="45.316695" lon="8.4486383"><ele>120.33333333333334</ele><time>2026-04-19T10:29:56.979Z</time></trkpt><trkpt lat="45.3166533" lon="8.4485433"><ele>120.5</ele><time>2026-04-19T10:29:57.979Z</time></trkpt><trkpt lat="45.3166183" lon="8.44845"><ele>120.66666666666667</ele><time>2026-04-19T10:29:58.979Z</time></trkpt><trkpt lat="45.3166117" lon="8.4483133"><ele>120.83333333333334</ele><time>2026-04-19T10:30:00.978Z</time></trkpt><trkpt lat="45.3166633" lon="8.4482567"><ele>121.0</ele><time>2026-04-19T10:30:01.979Z</time></trkpt><trkpt lat="45.3167317" lon="8.4481983"><ele>121.0</ele><time>2026-04-19T10:30:02.979Z</time></trkpt><trkpt lat="45.3168083" lon="8.4481367"><ele>121.0</ele><time>2026-04-19T10:30:03.979Z</time></trkpt><trkpt lat="45.31688" lon="8.4480767"><ele>121.0</ele><time>2026-04-19T10:30:04.978Z</time></trkpt><trkpt lat="45.3169583" lon="8.4480117"><ele>121.0</ele><time>2026-04-19T10:30:05.978Z</time></trkpt><trkpt lat="45.3170333" lon="8.447945"><ele>121.0</ele><time>2026-04-19T10:30:06.978Z</time></trkpt><trkpt lat="45.31712" lon="8.4478733"><ele>121.0</ele><time>2026-04-19T10:30:07.979Z</time></trkpt><trkpt lat="45.3172083" lon="8.4478117"><ele>121.0</ele><time>2026-04-19T10:30:08.978Z</time></trkpt><trkpt lat="45.3172867" lon="8.4477317"><ele>121.0</ele><time>2026-04-19T10:30:09.978Z</time></trkpt><trkpt lat="45.317375" lon="8.4476517"><ele>121.0</ele><time>2026-04-19T10:30:10.978Z</time></trkpt><trkpt lat="45.3174517" lon="8.44757"><ele>121.0</ele><time>2026-04-19T10:30:11.978Z</time></trkpt><trkpt lat="45.3175183" lon="8.4474933"><ele>121.00000000000001</ele><time>2026-04-19T10:30:12.979Z</time></trkpt><trkpt lat="45.3175883" lon="8.4474183"><ele>121.0</ele><time>2026-04-19T10:30:13.978Z</time></trkpt><trkpt lat="45.317655" lon="8.4473383"><ele>121.0</ele><time>2026-04-19T10:30:14.979Z</time></trkpt><trkpt lat="45.31772" lon="8.4472567"><ele>121.0</ele><time>2026-04-19T10:30:15.978Z</time></trkpt><trkpt lat="45.3177867" lon="8.44717"><ele>121.00000000000001</ele><time>2026-04-19T10:30:16.978Z</time></trkpt><trkpt lat="45.31785" lon="8.4471017"><ele>121.0</ele><time>2026-04-19T10:30:17.979Z</time></trkpt><trkpt lat="45.3179133" lon="8.4470217"><ele>121.16666666666667</ele><time>2026-04-19T10:30:18.978Z</time></trkpt><trkpt lat="45.317975" lon="8.4469417"><ele>121.33333333333334</ele><time>2026-04-19T10:30:19.979Z</time></trkpt><trkpt lat="45.318035" lon="8.446865"><ele>121.5</ele><time>2026-04-19T10:30:20.978Z</time></trkpt><trkpt lat="45.3180933" lon="8.4467917"><ele>121.66666666666666</ele><time>2026-04-19T10:30:21.979Z</time></trkpt><trkpt lat="45.3181467" lon="8.4467217"><ele>121.83333333333333</ele><time>2026-04-19T10:30:22.978Z</time></trkpt><trkpt lat="45.3182033" lon="8.4466567"><ele>122.0</ele><time>2026-04-19T10:30:23.979Z</time></trkpt><trkpt lat="45.3182567" lon="8.446595"><ele>121.99999999999999</ele><time>2026-04-19T10:30:24.978Z</time></trkpt><trkpt lat="45.3183433" lon="8.446505"><ele>122.0</ele><time>2026-04-19T10:30:26.979Z</time></trkpt><trkpt lat="45.3184117" lon="8.44645"><ele>122.0</ele><time>2026-04-19T10:30:28.979Z</time></trkpt><trkpt lat="45.318475" lon="8.446405"><ele>122.0</ele><time>2026-04-19T10:30:30.979Z</time></trkpt><trkpt lat="45.318535" lon="8.446355"><ele>121.99999999999999</ele><time>2026-04-19T10:30:32.979Z</time></trkpt><trkpt lat="45.3186033" lon="8.4463167"><ele>122.0</ele><time>2026-04-19T10:30:34.979Z</time></trkpt><trkpt lat="45.3186667" lon="8.4462767"><ele>121.99999999999999</ele><time>2026-04-19T10:30:36.979Z</time></trkpt><trkpt lat="45.3187467" lon="8.4462183"><ele>122.0</ele><time>2026-04-19T10:30:39.978Z</time></trkpt><trkpt lat="45.3188267" lon="8.44616"><ele>122.0</ele><time>2026-04-19T10:30:42.979Z</time></trkpt><trkpt lat="45.3188917" lon="8.4461133"><ele>122.0</ele><time>2026-04-19T10:30:44.979Z</time></trkpt><trkpt lat="45.31897" lon="8.4460683"><ele>121.99999999999999</ele><time>2026-04-19T10:30:46.978Z</time></trkpt><trkpt lat="45.31905" lon="8.4460133"><ele>122.0</ele><time>2026-04-19T10:30:48.979Z</time></trkpt><trkpt lat="45.3191317" lon="8.445955"><ele>122.16666666666666</ele><time>2026-04-19T10:30:50.978Z</time></trkpt><trkpt lat="45.3192117" lon="8.4459"><ele>122.33333333333333</ele><time>2026-04-19T10:30:52.978Z</time></trkpt><trkpt lat="45.3192867" lon="8.4458467"><ele>122.5</ele><time>2026-04-19T10:30:54.978Z</time></trkpt><trkpt lat="45.319365" lon="8.4457917"><ele>122.66666666666666</ele><time>2026-04-19T10:30:56.978Z</time></trkpt><trkpt lat="45.3194467" lon="8.44574"><ele>122.83333333333333</ele><time>2026-04-19T10:30:58.979Z</time></trkpt><trkpt lat="45.319525" lon="8.445685"><ele>123.0</ele><time>2026-04-19T10:31:00.978Z</time></trkpt><trkpt lat="45.31961" lon="8.4456317"><ele>123.0</ele><time>2026-04-19T10:31:02.978Z</time></trkpt><trkpt lat="45.319685" lon="8.445585"><ele>123.00000000000001</ele><time>2026-04-19T10:31:04.978Z</time></trkpt><trkpt lat="45.31978" lon="8.4455267"><ele>123.00000000000001</ele><time>2026-04-19T10:31:06.979Z</time></trkpt><trkpt lat="45.3198917" lon="8.44544"><ele>123.0</ele><time>2026-04-19T10:31:08.979Z</time></trkpt><trkpt lat="45.3199583" lon="8.4453917"><ele>123.0</ele><time>2026-04-19T10:31:09.978Z</time></trkpt><trkpt lat="45.32003" lon="8.4453483"><ele>122.60000000000001</ele><time>2026-04-19T10:31:10.978Z</time></trkpt><trkpt lat="45.3201117" lon="8.4453"><ele>122.20000000000002</ele><time>2026-04-19T10:31:11.979Z</time></trkpt><trkpt lat="45.3201967" lon="8.4452417"><ele>121.8</ele><time>2026-04-19T10:31:12.979Z</time></trkpt><trkpt lat="45.3202833" lon="8.4451817"><ele>121.4</ele><time>2026-04-19T10:31:13.979Z</time></trkpt><trkpt lat="45.3203767" lon="8.4451117"><ele>121.0</ele><time>2026-04-19T10:31:14.979Z</time></trkpt><trkpt lat="45.3204667" lon="8.4450417"><ele>121.0</ele><time>2026-04-19T10:31:15.979Z</time></trkpt><trkpt lat="45.32056" lon="8.4449817"><ele>121.0</ele><time>2026-04-19T10:31:16.979Z</time></trkpt><trkpt lat="45.320655" lon="8.44492"><ele>121.0</ele><time>2026-04-19T10:31:17.978Z</time></trkpt><trkpt lat="45.32075" lon="8.44486"><ele>121.0</ele><time>2026-04-19T10:31:18.979Z</time></trkpt><trkpt lat="45.3208467" lon="8.4447933"><ele>121.0</ele><time>2026-04-19T10:31:19.979Z</time></trkpt><trkpt lat="45.320945" lon="8.444725"><ele>120.8</ele><time>2026-04-19T10:31:20.979Z</time></trkpt><trkpt lat="45.3210467" lon="8.444655"><ele>120.6</ele><time>2026-04-19T10:31:21.978Z</time></trkpt><trkpt lat="45.3211467" lon="8.4445867"><ele>120.4</ele><time>2026-04-19T10:31:22.979Z</time></trkpt><trkpt lat="45.321245" lon="8.4445267"><ele>120.2</ele><time>2026-04-19T10:31:23.978Z</time></trkpt><trkpt lat="45.3213433" lon="8.44446"><ele>120.0</ele><time>2026-04-19T10:31:24.979Z</time></trkpt><trkpt lat="45.3214417" lon="8.4443917"><ele>121.0</ele><time>2026-04-19T10:31:25.978Z</time></trkpt><trkpt lat="45.3215517" lon="8.4443183"><ele>122.0</ele><time>2026-04-19T10:31:26.979Z</time></trkpt><trkpt lat="45.3216567" lon="8.44425"><ele>123.0</ele><time>2026-04-19T10:31:27.979Z</time></trkpt><trkpt lat="45.321765" lon="8.4441833"><ele>124.0</ele><time>2026-04-19T10:31:28.978Z</time></trkpt><trkpt lat="45.3218767" lon="8.4441033"><ele>124.0</ele><time>2026-04-19T10:31:29.979Z</time></trkpt><trkpt lat="45.3219867" lon="8.44402"><ele>124.0</ele><time>2026-04-19T10:31:30.978Z</time></trkpt><trkpt lat="45.3220967" lon="8.4439433"><ele>124.0</ele><time>2026-04-19T10:31:31.979Z</time></trkpt><trkpt lat="45.3222" lon="8.443865"><ele>124.0</ele><time>2026-04-19T10:31:32.979Z</time></trkpt><trkpt lat="45.3223067" lon="8.4437833"><ele>123.75</ele><time>2026-04-19T10:31:33.978Z</time></trkpt><trkpt lat="45.3224183" lon="8.4437017"><ele>123.5</ele><time>2026-04-19T10:31:34.979Z</time></trkpt><trkpt lat="45.3225217" lon="8.4436233"><ele>123.25</ele><time>2026-04-19T10:31:35.979Z</time></trkpt><trkpt lat="45.3226333" lon="8.44355"><ele>123.0</ele><time>2026-04-19T10:31:36.979Z</time></trkpt><trkpt lat="45.322745" lon="8.4434767"><ele>123.0</ele><time>2026-04-19T10:31:37.979Z</time></trkpt><trkpt lat="45.3228617" lon="8.4434017"><ele>123.0</ele><time>2026-04-19T10:31:38.979Z</time></trkpt><trkpt lat="45.3229617" lon="8.4433167"><ele>123.0</ele><time>2026-04-19T10:31:39.979Z</time></trkpt><trkpt lat="45.323065" lon="8.4432533"><ele>123.0</ele><time>2026-04-19T10:31:40.979Z</time></trkpt><trkpt lat="45.32316" lon="8.4431967"><ele>123.0</ele><time>2026-04-19T10:31:41.978Z</time></trkpt><trkpt lat="45.3232433" lon="8.4431383"><ele>123.00000000000001</ele><time>2026-04-19T10:31:42.979Z</time></trkpt><trkpt lat="45.3233317" lon="8.4430717"><ele>123.00000000000001</ele><time>2026-04-19T10:31:43.978Z</time></trkpt><trkpt lat="45.3234167" lon="8.442995"><ele>123.0</ele><time>2026-04-19T10:31:44.978Z</time></trkpt><trkpt lat="45.323495" lon="8.44291"><ele>123.0</ele><time>2026-04-19T10:31:45.979Z</time></trkpt><trkpt lat="45.323565" lon="8.44284"><ele>123.0</ele><time>2026-04-19T10:31:46.979Z</time></trkpt><trkpt lat="45.323635" lon="8.442775"><ele>123.0</ele><time>2026-04-19T10:31:47.979Z</time></trkpt><trkpt lat="45.3237083" lon="8.4427083"><ele>123.0</ele><time>2026-04-19T10:31:48.979Z</time></trkpt><trkpt lat="45.32378" lon="8.4426417"><ele>123.0</ele><time>2026-04-19T10:31:49.979Z</time></trkpt><trkpt lat="45.32386" lon="8.4425833"><ele>123.0</ele><time>2026-04-19T10:31:50.979Z</time></trkpt><trkpt lat="45.323935" lon="8.4425383"><ele>123.0</ele><time>2026-04-19T10:31:51.979Z</time></trkpt><trkpt lat="45.3240117" lon="8.442485"><ele>123.00000000000001</ele><time>2026-04-19T10:31:52.979Z</time></trkpt><trkpt lat="45.324085" lon="8.4424317"><ele>123.0</ele><time>2026-04-19T10:31:53.979Z</time></trkpt><trkpt lat="45.3241483" lon="8.4423717"><ele>123.00000000000001</ele><time>2026-04-19T10:31:54.979Z</time></trkpt><trkpt lat="45.3242" lon="8.442295"><ele>123.00000000000001</ele><time>2026-04-19T10:31:55.979Z</time></trkpt><trkpt lat="45.3242433" lon="8.4422183"><ele>123.0</ele><time>2026-04-19T10:31:56.979Z</time></trkpt><trkpt lat="45.32428" lon="8.442145"><ele>123.00000000000001</ele><time>2026-04-19T10:31:57.978Z</time></trkpt><trkpt lat="45.324305" lon="8.4420333"><ele>123.00000000000001</ele><time>2026-04-19T10:31:59.978Z</time></trkpt><trkpt lat="45.3242633" lon="8.4419467"><ele>123.5</ele><time>2026-04-19T10:32:01.978Z</time></trkpt><trkpt lat="45.3241383" lon="8.4419467"><ele>124.0</ele><time>2026-04-19T10:32:03.978Z</time></trkpt><trkpt lat="45.324035" lon="8.44199"><ele>124.5</ele><time>2026-04-19T10:32:04.978Z</time></trkpt><trkpt lat="45.323905" lon="8.442035"><ele>125.0</ele><time>2026-04-19T10:32:05.977Z</time></trkpt><trkpt lat="45.323765" lon="8.4420717"><ele>125.33333333333333</ele><time>2026-04-19T10:32:06.978Z</time></trkpt><trkpt lat="45.3236117" lon="8.4420983"><ele>125.66666666666666</ele><time>2026-04-19T10:32:07.978Z</time></trkpt><trkpt lat="45.3233317" lon="8.44216"><ele>126.0</ele><time>2026-04-19T10:32:09.977Z</time></trkpt><trkpt lat="45.323195" lon="8.4421817"><ele>125.5</ele><time>2026-04-19T10:32:10.978Z</time></trkpt><trkpt lat="45.323075" lon="8.442215"><ele>125.0</ele><time>2026-04-19T10:32:11.977Z</time></trkpt><trkpt lat="45.3229417" lon="8.4422367"><ele>124.5</ele><time>2026-04-19T10:32:12.977Z</time></trkpt><trkpt lat="45.3228117" lon="8.4422583"><ele>124.0</ele><time>2026-04-19T10:32:13.978Z</time></trkpt><trkpt lat="45.3226817" lon="8.4422833"><ele>124.0</ele><time>2026-04-19T10:32:14.977Z</time></trkpt><trkpt lat="45.32256" lon="8.44229"><ele>124.0</ele><time>2026-04-19T10:32:15.978Z</time></trkpt><trkpt lat="45.32243" lon="8.44228"><ele>124.0</ele><time>2026-04-19T10:32:16.978Z</time></trkpt><trkpt lat="45.3222767" lon="8.4422633"><ele>124.0</ele><time>2026-04-19T10:32:17.978Z</time></trkpt><trkpt lat="45.3221267" lon="8.4422583"><ele>123.66666666666667</ele><time>2026-04-19T10:32:18.977Z</time></trkpt><trkpt lat="45.3219767" lon="8.4422617"><ele>123.33333333333334</ele><time>2026-04-19T10:32:19.978Z</time></trkpt><trkpt lat="45.3218283" lon="8.442275"><ele>123.0</ele><time>2026-04-19T10:32:20.977Z</time></trkpt><trkpt lat="45.3215467" lon="8.4423217"><ele>123.0</ele><time>2026-04-19T10:32:22.978Z</time></trkpt><trkpt lat="45.321415" lon="8.44236"><ele>123.0</ele><time>2026-04-19T10:32:23.977Z</time></trkpt><trkpt lat="45.32129" lon="8.4424033"><ele>123.0</ele><time>2026-04-19T10:32:24.977Z</time></trkpt><trkpt lat="45.3211583" lon="8.4424367"><ele>123.0</ele><time>2026-04-19T10:32:25.978Z</time></trkpt><trkpt lat="45.3210283" lon="8.4424633"><ele>123.0</ele><time>2026-04-19T10:32:26.978Z</time></trkpt><trkpt lat="45.3209067" lon="8.4424733"><ele>123.00000000000001</ele><time>2026-04-19T10:32:27.977Z</time></trkpt><trkpt lat="45.3208067" lon="8.4424917"><ele>123.00000000000001</ele><time>2026-04-19T10:32:28.978Z</time></trkpt><trkpt lat="45.3207217" lon="8.4425217"><ele>123.0</ele><time>2026-04-19T10:32:29.977Z</time></trkpt><trkpt lat="45.3206533" lon="8.4425517"><ele>123.0</ele><time>2026-04-19T10:32:30.977Z</time></trkpt><trkpt lat="45.32059" lon="8.4425867"><ele>123.0</ele><time>2026-04-19T10:32:31.978Z</time></trkpt><trkpt lat="45.3205217" lon="8.4426133"><ele>123.0</ele><time>2026-04-19T10:32:32.977Z</time></trkpt><trkpt lat="45.320445" lon="8.4426367"><ele>123.0</ele><time>2026-04-19T10:32:33.978Z</time></trkpt><trkpt lat="45.3203717" lon="8.4426817"><ele>123.0</ele><time>2026-04-19T10:32:34.978Z</time></trkpt><trkpt lat="45.3203" lon="8.44273"><ele>123.0</ele><time>2026-04-19T10:32:35.978Z</time></trkpt><trkpt lat="45.32023" lon="8.4427717"><ele>123.0</ele><time>2026-04-19T10:32:36.978Z</time></trkpt><trkpt lat="45.320165" lon="8.4428017"><ele>123.0</ele><time>2026-04-19T10:32:37.978Z</time></trkpt><trkpt lat="45.320055" lon="8.4428417"><ele>123.0</ele><time>2026-04-19T10:32:39.978Z</time></trkpt><trkpt lat="45.3199617" lon="8.442875"><ele>123.0</ele><time>2026-04-19T10:32:41.978Z</time></trkpt><trkpt lat="45.3198383" lon="8.442965"><ele>123.0</ele><time>2026-04-19T10:32:44.977Z</time></trkpt><trkpt lat="45.319735" lon="8.4429933"><ele>122.85714285714288</ele><time>2026-04-19T10:32:46.978Z</time></trkpt><trkpt lat="45.31967" lon="8.4430083"><ele>122.71428571428572</ele><time>2026-04-19T10:32:47.978Z</time></trkpt><trkpt lat="45.3196033" lon="8.4430217"><ele>122.57142857142857</ele><time>2026-04-19T10:32:48.978Z</time></trkpt><trkpt lat="45.3195283" lon="8.4430433"><ele>122.42857142857143</ele><time>2026-04-19T10:32:49.978Z</time></trkpt><trkpt lat="45.3194583" lon="8.4430667"><ele>122.28571428571428</ele><time>2026-04-19T10:32:50.977Z</time></trkpt><trkpt lat="45.31938" lon="8.4430883"><ele>122.14285714285712</ele><time>2026-04-19T10:32:51.978Z</time></trkpt><trkpt lat="45.3193" lon="8.4431133"><ele>121.99999999999999</ele><time>2026-04-19T10:32:52.977Z</time></trkpt><trkpt lat="45.3192217" lon="8.4431367"><ele>121.99999999999999</ele><time>2026-04-19T10:32:53.977Z</time></trkpt><trkpt lat="45.319145" lon="8.4431617"><ele>122.0</ele><time>2026-04-19T10:32:54.977Z</time></trkpt><trkpt lat="45.3190717" lon="8.4431817"><ele>122.0</ele><time>2026-04-19T10:32:55.978Z</time></trkpt><trkpt lat="45.31901" lon="8.4432017"><ele>122.0</ele><time>2026-04-19T10:32:56.977Z</time></trkpt><trkpt lat="45.3188767" lon="8.44325"><ele>121.99999999999999</ele><time>2026-04-19T10:32:58.977Z</time></trkpt><trkpt lat="45.3188067" lon="8.4432633"><ele>122.0</ele><time>2026-04-19T10:32:59.977Z</time></trkpt><trkpt lat="45.31874" lon="8.4432833"><ele>121.66666666666666</ele><time>2026-04-19T10:33:00.977Z</time></trkpt><trkpt lat="45.3186767" lon="8.443305"><ele>121.33333333333333</ele><time>2026-04-19T10:33:01.978Z</time></trkpt><trkpt lat="45.3186083" lon="8.443325"><ele>121.0</ele><time>2026-04-19T10:33:02.977Z</time></trkpt><trkpt lat="45.318545" lon="8.4433417"><ele>120.66666666666666</ele><time>2026-04-19T10:33:03.978Z</time></trkpt><trkpt lat="45.3184783" lon="8.443365"><ele>120.33333333333333</ele><time>2026-04-19T10:33:04.978Z</time></trkpt><trkpt lat="45.318415" lon="8.4433867"><ele>120.0</ele><time>2026-04-19T10:33:05.978Z</time></trkpt><trkpt lat="45.318305" lon="8.443455"><ele>120.0</ele><time>2026-04-19T10:33:07.977Z</time></trkpt><trkpt lat="45.3182" lon="8.443505"><ele>120.0</ele><time>2026-04-19T10:33:09.978Z</time></trkpt><trkpt lat="45.3181017" lon="8.443565"><ele>120.0</ele><time>2026-04-19T10:33:11.978Z</time></trkpt><trkpt lat="45.3180433" lon="8.4436383"><ele>120.0</ele><time>2026-04-19T10:33:13.978Z</time></trkpt><trkpt lat="45.3180217" lon="8.4437583"><ele>120.0</ele><time>2026-04-19T10:33:16.978Z</time></trkpt><trkpt lat="45.318015" lon="8.4438633"><ele>121.0</ele><time>2026-04-19T10:33:19.978Z</time></trkpt><trkpt lat="45.31802" lon="8.4439733"><ele>121.0</ele><time>2026-04-19T10:33:22.977Z</time></trkpt><trkpt lat="45.3180317" lon="8.4440667"><ele>121.0</ele><time>2026-04-19T10:33:25.978Z</time></trkpt><trkpt lat="45.3180317" lon="8.4441683"><ele>121.0</ele><time>2026-04-19T10:33:28.977Z</time></trkpt></trkseg><trkseg><trkpt lat="45.31806" lon="8.444275"><ele>121.00000000000001</ele><time>2026-04-19T11:15:28.967Z</time></trkpt><trkpt lat="45.3180383" lon="8.4441833"><ele>121.0</ele><time>2026-04-19T11:15:31.968Z</time></trkpt><trkpt lat="45.3180183" lon="8.4440683"><ele>121.0</ele><time>2026-04-19T11:15:33.968Z</time></trkpt><trkpt lat="45.31802" lon="8.4439533"><ele>121.0</ele><time>2026-04-19T11:15:35.968Z</time></trkpt><trkpt lat="45.31802" lon="8.4438417"><ele>121.00000000000001</ele><time>2026-04-19T11:15:38.967Z</time></trkpt><trkpt lat="45.3180167" lon="8.4437217"><ele>121.0</ele><time>2026-04-19T11:15:41.968Z</time></trkpt><trkpt lat="45.318065" lon="8.4436233"><ele>120.8</ele><time>2026-04-19T11:15:44.967Z</time></trkpt><trkpt lat="45.31815" lon="8.44356"><ele>120.6</ele><time>2026-04-19T11:15:56.968Z</time></trkpt><trkpt lat="45.31824" lon="8.4434917"><ele>120.4</ele><time>2026-04-19T11:15:58.968Z</time></trkpt><trkpt lat="45.31835" lon="8.443435"><ele>120.2</ele><time>2026-04-19T11:16:00.968Z</time></trkpt><trkpt lat="45.318455" lon="8.4433833"><ele>120.0</ele><time>2026-04-19T11:16:02.967Z</time></trkpt><trkpt lat="45.318535" lon="8.44335"><ele>120.0</ele><time>2026-04-19T11:16:04.967Z</time></trkpt><trkpt lat="45.3186267" lon="8.443335"><ele>120.0</ele><time>2026-04-19T11:16:07.968Z</time></trkpt><trkpt lat="45.3187067" lon="8.4433083"><ele>120.0</ele><time>2026-04-19T11:16:09.967Z</time></trkpt><trkpt lat="45.3188033" lon="8.44327"><ele>120.0</ele><time>2026-04-19T11:16:11.967Z</time></trkpt><trkpt lat="45.3189167" lon="8.4432217"><ele>120.0</ele><time>2026-04-19T11:16:13.967Z</time></trkpt><trkpt lat="45.319035" lon="8.4431883"><ele>120.4</ele><time>2026-04-19T11:16:15.967Z</time></trkpt><trkpt lat="45.319145" lon="8.443155"><ele>120.8</ele><time>2026-04-19T11:16:17.967Z</time></trkpt><trkpt lat="45.31925" lon="8.44313"><ele>121.19999999999999</ele><time>2026-04-19T11:16:19.968Z</time></trkpt><trkpt lat="45.31936" lon="8.443095"><ele>121.6</ele><time>2026-04-19T11:16:21.968Z</time></trkpt><trkpt lat="45.3194667" lon="8.4430583"><ele>122.0</ele><time>2026-04-19T11:16:23.967Z</time></trkpt><trkpt lat="45.3195783" lon="8.44303"><ele>122.0</ele><time>2026-04-19T11:16:25.967Z</time></trkpt><trkpt lat="45.31969" lon="8.4429967"><ele>121.99999999999999</ele><time>2026-04-19T11:16:27.967Z</time></trkpt><trkpt lat="45.3198067" lon="8.4429617"><ele>121.99999999999999</ele><time>2026-04-19T11:16:29.967Z</time></trkpt><trkpt lat="45.3198817" lon="8.4429433"><ele>122.0</ele><time>2026-04-19T11:16:30.968Z</time></trkpt><trkpt lat="45.31996" lon="8.442925"><ele>122.0</ele><time>2026-04-19T11:16:31.968Z</time></trkpt><trkpt lat="45.3200383" lon="8.4428933"><ele>122.19999999999999</ele><time>2026-04-19T11:16:32.967Z</time></trkpt><trkpt lat="45.3201233" lon="8.4428433"><ele>122.39999999999999</ele><time>2026-04-19T11:16:33.967Z</time></trkpt><trkpt lat="45.3202217" lon="8.4427933"><ele>122.60000000000001</ele><time>2026-04-19T11:16:34.968Z</time></trkpt><trkpt lat="45.3203183" lon="8.4427383"><ele>122.80000000000001</ele><time>2026-04-19T11:16:35.967Z</time></trkpt><trkpt lat="45.3204117" lon="8.4426933"><ele>123.0</ele><time>2026-04-19T11:16:36.968Z</time></trkpt><trkpt lat="45.3205083" lon="8.4426567"><ele>123.0</ele><time>2026-04-19T11:16:37.967Z</time></trkpt><trkpt lat="45.3206067" lon="8.4426133"><ele>123.00000000000001</ele><time>2026-04-19T11:16:38.967Z</time></trkpt><trkpt lat="45.3207083" lon="8.442585"><ele>123.00000000000001</ele><time>2026-04-19T11:16:39.968Z</time></trkpt><trkpt lat="45.3208067" lon="8.4425567"><ele>123.0</ele><time>2026-04-19T11:16:40.968Z</time></trkpt><trkpt lat="45.320905" lon="8.4425283"><ele>123.0</ele><time>2026-04-19T11:16:41.968Z</time></trkpt><trkpt lat="45.32101" lon="8.4425083"><ele>123.0</ele><time>2026-04-19T11:16:42.967Z</time></trkpt><trkpt lat="45.321105" lon="8.4424917"><ele>123.00000000000001</ele><time>2026-04-19T11:16:43.967Z</time></trkpt><trkpt lat="45.3212067" lon="8.442475"><ele>123.00000000000001</ele><time>2026-04-19T11:16:44.968Z</time></trkpt><trkpt lat="45.32131" lon="8.4424417"><ele>123.0</ele><time>2026-04-19T11:16:45.968Z</time></trkpt><trkpt lat="45.3214133" lon="8.44241"><ele>123.0</ele><time>2026-04-19T11:16:46.967Z</time></trkpt><trkpt lat="45.32152" lon="8.44238"><ele>123.0</ele><time>2026-04-19T11:16:47.967Z</time></trkpt><trkpt lat="45.3216267" lon="8.44236"><ele>123.00000000000001</ele><time>2026-04-19T11:16:48.967Z</time></trkpt><trkpt lat="45.3217333" lon="8.44234"><ele>123.00000000000001</ele><time>2026-04-19T11:16:49.968Z</time></trkpt><trkpt lat="45.321835" lon="8.4423233"><ele>123.0</ele><time>2026-04-19T11:16:50.967Z</time></trkpt><trkpt lat="45.3219467" lon="8.4423117"><ele>123.0</ele><time>2026-04-19T11:16:51.968Z</time></trkpt><trkpt lat="45.32206" lon="8.4423083"><ele>123.0</ele><time>2026-04-19T11:16:52.968Z</time></trkpt><trkpt lat="45.3221683" lon="8.4423083"><ele>123.00000000000001</ele><time>2026-04-19T11:16:53.968Z</time></trkpt><trkpt lat="45.3222833" lon="8.4423083"><ele>123.00000000000001</ele><time>2026-04-19T11:16:54.968Z</time></trkpt><trkpt lat="45.3223933" lon="8.4423067"><ele>123.0</ele><time>2026-04-19T11:16:55.968Z</time></trkpt><trkpt lat="45.3225033" lon="8.4423083"><ele>123.0</ele><time>2026-04-19T11:16:56.968Z</time></trkpt><trkpt lat="45.3226183" lon="8.4423083"><ele>123.0</ele><time>2026-04-19T11:16:57.968Z</time></trkpt><trkpt lat="45.3227417" lon="8.4423083"><ele>123.0</ele><time>2026-04-19T11:16:58.967Z</time></trkpt><trkpt lat="45.3228567" lon="8.4423033"><ele>123.0</ele><time>2026-04-19T11:16:59.968Z</time></trkpt><trkpt lat="45.3229817" lon="8.4422867"><ele>123.0</ele><time>2026-04-19T11:17:00.968Z</time></trkpt><trkpt lat="45.3230933" lon="8.4422483"><ele>123.0</ele><time>2026-04-19T11:17:01.967Z</time></trkpt><trkpt lat="45.3231967" lon="8.44222"><ele>123.0</ele><time>2026-04-19T11:17:02.967Z</time></trkpt><trkpt lat="45.32331" lon="8.44219"><ele>123.0</ele><time>2026-04-19T11:17:03.968Z</time></trkpt><trkpt lat="45.3234233" lon="8.4421467"><ele>123.0</ele><time>2026-04-19T11:17:04.967Z</time></trkpt><trkpt lat="45.3235467" lon="8.4421267"><ele>123.5</ele><time>2026-04-19T11:17:05.967Z</time></trkpt><trkpt lat="45.3236683" lon="8.44211"><ele>124.0</ele><time>2026-04-19T11:17:06.967Z</time></trkpt><trkpt lat="45.32379" lon="8.4420783"><ele>124.5</ele><time>2026-04-19T11:17:07.967Z</time></trkpt><trkpt lat="45.323905" lon="8.4420533"><ele>125.0</ele><time>2026-04-19T11:17:08.968Z</time></trkpt><trkpt lat="45.3240183" lon="8.4420183"><ele>125.0</ele><time>2026-04-19T11:17:09.967Z</time></trkpt><trkpt lat="45.3241333" lon="8.441995"><ele>125.0</ele><time>2026-04-19T11:17:10.968Z</time></trkpt><trkpt lat="45.3242383" lon="8.4419817"><ele>125.0</ele><time>2026-04-19T11:17:11.968Z</time></trkpt><trkpt lat="45.3243433" lon="8.44197"><ele>125.0</ele><time>2026-04-19T11:17:12.967Z</time></trkpt><trkpt lat="45.32445" lon="8.4419517"><ele>125.0</ele><time>2026-04-19T11:17:13.967Z</time></trkpt><trkpt lat="45.3245567" lon="8.44193"><ele>125.0</ele><time>2026-04-19T11:17:14.968Z</time></trkpt><trkpt lat="45.3246633" lon="8.4418933"><ele>125.0</ele><time>2026-04-19T11:17:15.967Z</time></trkpt><trkpt lat="45.3247717" lon="8.4418867"><ele>125.0</ele><time>2026-04-19T11:17:16.967Z</time></trkpt><trkpt lat="45.3248817" lon="8.4418967"><ele>125.0</ele><time>2026-04-19T11:17:17.966Z</time></trkpt><trkpt lat="45.3249967" lon="8.44193"><ele>125.0</ele><time>2026-04-19T11:17:18.966Z</time></trkpt><trkpt lat="45.3251117" lon="8.4419583"><ele>124.8</ele><time>2026-04-19T11:17:19.967Z</time></trkpt><trkpt lat="45.3252267" lon="8.44198"><ele>124.6</ele><time>2026-04-19T11:17:20.967Z</time></trkpt><trkpt lat="45.3253383" lon="8.44199"><ele>124.4</ele><time>2026-04-19T11:17:21.967Z</time></trkpt><trkpt lat="45.3254517" lon="8.4419967"><ele>124.2</ele><time>2026-04-19T11:17:22.967Z</time></trkpt><trkpt lat="45.3255517" lon="8.442015"><ele>124.0</ele><time>2026-04-19T11:17:23.966Z</time></trkpt><trkpt lat="45.3256417" lon="8.442045"><ele>123.66666666666667</ele><time>2026-04-19T11:17:24.967Z</time></trkpt><trkpt lat="45.32573" lon="8.4420783"><ele>123.33333333333334</ele><time>2026-04-19T11:17:25.966Z</time></trkpt><trkpt lat="45.325805" lon="8.4421183"><ele>123.0</ele><time>2026-04-19T11:17:26.966Z</time></trkpt><trkpt lat="45.3258717" lon="8.442165"><ele>122.66666666666666</ele><time>2026-04-19T11:17:27.967Z</time></trkpt><trkpt lat="45.3259317" lon="8.4422017"><ele>122.33333333333333</ele><time>2026-04-19T11:17:28.966Z</time></trkpt><trkpt lat="45.3260417" lon="8.442245"><ele>122.0</ele><time>2026-04-19T11:17:30.967Z</time></trkpt><trkpt lat="45.3261083" lon="8.4422367"><ele>122.0</ele><time>2026-04-19T11:17:33.967Z</time></trkpt><trkpt lat="45.32614" lon="8.4421533"><ele>121.99999999999999</ele><time>2026-04-19T11:17:35.967Z</time></trkpt><trkpt lat="45.3261533" lon="8.4420133"><ele>121.99999999999999</ele><time>2026-04-19T11:17:37.966Z</time></trkpt><trkpt lat="45.32621" lon="8.4418883"><ele>122.0</ele><time>2026-04-19T11:17:39.966Z</time></trkpt><trkpt lat="45.3262967" lon="8.4418117"><ele>122.0</ele><time>2026-04-19T11:17:41.966Z</time></trkpt><trkpt lat="45.3264083" lon="8.4418133"><ele>121.99999999999999</ele><time>2026-04-19T11:17:43.966Z</time></trkpt><trkpt lat="45.326535" lon="8.44182"><ele>122.0</ele><time>2026-04-19T11:17:45.966Z</time></trkpt><trkpt lat="45.3266083" lon="8.4418183"><ele>122.0</ele><time>2026-04-19T11:17:46.967Z</time></trkpt><trkpt lat="45.3266833" lon="8.44181"><ele>122.0</ele><time>2026-04-19T11:17:47.967Z</time></trkpt><trkpt lat="45.326765" lon="8.441805"><ele>121.99999999999999</ele><time>2026-04-19T11:17:48.967Z</time></trkpt><trkpt lat="45.326845" lon="8.4417967"><ele>122.0</ele><time>2026-04-19T11:17:49.967Z</time></trkpt><trkpt lat="45.326925" lon="8.4417917"><ele>121.99999999999999</ele><time>2026-04-19T11:17:50.966Z</time></trkpt><trkpt lat="45.3269967" lon="8.4417967"><ele>122.0</ele><time>2026-04-19T11:17:51.966Z</time></trkpt><trkpt lat="45.327065" lon="8.4418067"><ele>121.99999999999999</ele><time>2026-04-19T11:17:52.967Z</time></trkpt><trkpt lat="45.3271317" lon="8.4418317"><ele>121.99999999999999</ele><time>2026-04-19T11:17:53.967Z</time></trkpt><trkpt lat="45.3271983" lon="8.44186"><ele>122.0</ele><time>2026-04-19T11:17:54.966Z</time></trkpt><trkpt lat="45.32727" lon="8.441895"><ele>121.99999999999999</ele><time>2026-04-19T11:17:55.966Z</time></trkpt><trkpt lat="45.3273417" lon="8.4419383"><ele>121.99999999999999</ele><time>2026-04-19T11:17:56.966Z</time></trkpt><trkpt lat="45.3274183" lon="8.4419817"><ele>122.19999999999999</ele><time>2026-04-19T11:17:57.967Z</time></trkpt><trkpt lat="45.3275" lon="8.4420317"><ele>122.39999999999999</ele><time>2026-04-19T11:17:58.967Z</time></trkpt><trkpt lat="45.3275833" lon="8.4420867"><ele>122.60000000000001</ele><time>2026-04-19T11:17:59.967Z</time></trkpt><trkpt lat="45.327675" lon="8.4421433"><ele>122.80000000000001</ele><time>2026-04-19T11:18:00.967Z</time></trkpt><trkpt lat="45.3277667" lon="8.4422017"><ele>123.0</ele><time>2026-04-19T11:18:01.966Z</time></trkpt><trkpt lat="45.32787" lon="8.4422633"><ele>123.0</ele><time>2026-04-19T11:18:02.966Z</time></trkpt><trkpt lat="45.327975" lon="8.4423283"><ele>123.00000000000001</ele><time>2026-04-19T11:18:03.967Z</time></trkpt><trkpt lat="45.3280733" lon="8.4423933"><ele>123.00000000000001</ele><time>2026-04-19T11:18:04.967Z</time></trkpt><trkpt lat="45.3281733" lon="8.4424617"><ele>123.0</ele><time>2026-04-19T11:18:05.967Z</time></trkpt><trkpt lat="45.3282767" lon="8.4425317"><ele>123.0</ele><time>2026-04-19T11:18:06.966Z</time></trkpt><trkpt lat="45.3283817" lon="8.442595"><ele>123.0</ele><time>2026-04-19T11:18:07.967Z</time></trkpt><trkpt lat="45.3284917" lon="8.4426617"><ele>123.0</ele><time>2026-04-19T11:18:08.967Z</time></trkpt><trkpt lat="45.3285967" lon="8.4427267"><ele>123.0</ele><time>2026-04-19T11:18:09.967Z</time></trkpt><trkpt lat="45.3287083" lon="8.442795"><ele>123.0</ele><time>2026-04-19T11:18:10.967Z</time></trkpt><trkpt lat="45.32883" lon="8.4428733"><ele>123.0</ele><time>2026-04-19T11:18:11.966Z</time></trkpt><trkpt lat="45.3289517" lon="8.4429433"><ele>123.0</ele><time>2026-04-19T11:18:12.966Z</time></trkpt><trkpt lat="45.3290733" lon="8.4430167"><ele>123.0</ele><time>2026-04-19T11:18:13.967Z</time></trkpt><trkpt lat="45.3291933" lon="8.4430833"><ele>123.0</ele><time>2026-04-19T11:18:14.967Z</time></trkpt><trkpt lat="45.3293183" lon="8.4431583"><ele>123.0</ele><time>2026-04-19T11:18:15.967Z</time></trkpt><trkpt lat="45.329445" lon="8.443225"><ele>123.0</ele><time>2026-04-19T11:18:16.967Z</time></trkpt><trkpt lat="45.3295733" lon="8.4432967"><ele>123.0</ele><time>2026-04-19T11:18:17.967Z</time></trkpt><trkpt lat="45.3297017" lon="8.44336"><ele>123.0</ele><time>2026-04-19T11:18:18.967Z</time></trkpt><trkpt lat="45.3298283" lon="8.4434283"><ele>123.0</ele><time>2026-04-19T11:18:19.966Z</time></trkpt><trkpt lat="45.329955" lon="8.4435033"><ele>123.0</ele><time>2026-04-19T11:18:20.967Z</time></trkpt><trkpt lat="45.3300917" lon="8.4435617"><ele>123.0</ele><time>2026-04-19T11:18:21.966Z</time></trkpt><trkpt lat="45.3302183" lon="8.4436233"><ele>123.0</ele><time>2026-04-19T11:18:22.967Z</time></trkpt><trkpt lat="45.3303417" lon="8.44369"><ele>123.0</ele><time>2026-04-19T11:18:23.967Z</time></trkpt><trkpt lat="45.3304683" lon="8.443755"><ele>123.0</ele><time>2026-04-19T11:18:24.967Z</time></trkpt><trkpt lat="45.330595" lon="8.4438267"><ele>123.0</ele><time>2026-04-19T11:18:25.966Z</time></trkpt><trkpt lat="45.330725" lon="8.4438983"><ele>123.0</ele><time>2026-04-19T11:18:26.966Z</time></trkpt><trkpt lat="45.3308583" lon="8.4439633"><ele>123.0</ele><time>2026-04-19T11:18:27.967Z</time></trkpt><trkpt lat="45.33099" lon="8.4440367"><ele>123.0</ele><time>2026-04-19T11:18:28.967Z</time></trkpt><trkpt lat="45.331125" lon="8.4441033"><ele>123.0</ele><time>2026-04-19T11:18:29.967Z</time></trkpt><trkpt lat="45.3312467" lon="8.444175"><ele>123.0</ele><time>2026-04-19T11:18:30.967Z</time></trkpt><trkpt lat="45.3313733" lon="8.44425"><ele>123.0</ele><time>2026-04-19T11:18:31.966Z</time></trkpt><trkpt lat="45.3314967" lon="8.444315"><ele>123.0</ele><time>2026-04-19T11:18:32.967Z</time></trkpt><trkpt lat="45.3316283" lon="8.44439"><ele>123.0</ele><time>2026-04-19T11:18:33.967Z</time></trkpt><trkpt lat="45.3317617" lon="8.444455"><ele>123.0</ele><time>2026-04-19T11:18:34.966Z</time></trkpt><trkpt lat="45.33189" lon="8.4445267"><ele>123.0</ele><time>2026-04-19T11:18:35.967Z</time></trkpt><trkpt lat="45.3320283" lon="8.4446"><ele>123.0</ele><time>2026-04-19T11:18:36.966Z</time></trkpt><trkpt lat="45.3321667" lon="8.4446683"><ele>123.0</ele><time>2026-04-19T11:18:37.967Z</time></trkpt><trkpt lat="45.3323067" lon="8.4447383"><ele>123.0</ele><time>2026-04-19T11:18:38.966Z</time></trkpt><trkpt lat="45.3324483" lon="8.444815"><ele>122.5</ele><time>2026-04-19T11:18:39.966Z</time></trkpt><trkpt lat="45.3325867" lon="8.4448883"><ele>122.0</ele><time>2026-04-19T11:18:40.967Z</time></trkpt><trkpt lat="45.3327167" lon="8.4449617"><ele>121.5</ele><time>2026-04-19T11:18:41.967Z</time></trkpt><trkpt lat="45.3328483" lon="8.4450367"><ele>121.0</ele><time>2026-04-19T11:18:42.967Z</time></trkpt><trkpt lat="45.332975" lon="8.4451033"><ele>121.5</ele><time>2026-04-19T11:18:43.967Z</time></trkpt><trkpt lat="45.3330867" lon="8.4451567"><ele>122.0</ele><time>2026-04-19T11:18:44.967Z</time></trkpt><trkpt lat="45.3332067" lon="8.4452"><ele>122.5</ele><time>2026-04-19T11:18:45.966Z</time></trkpt><trkpt lat="45.33334" lon="8.4452167"><ele>123.0</ele><time>2026-04-19T11:18:46.966Z</time></trkpt><trkpt lat="45.3334683" lon="8.4452183"><ele>123.0</ele><time>2026-04-19T11:18:47.966Z</time></trkpt><trkpt lat="45.333605" lon="8.4452017"><ele>123.0</ele><time>2026-04-19T11:18:48.967Z</time></trkpt><trkpt lat="45.3337517" lon="8.4451817"><ele>123.0</ele><time>2026-04-19T11:18:49.966Z</time></trkpt><trkpt lat="45.333895" lon="8.44517"><ele>123.0</ele><time>2026-04-19T11:18:50.967Z</time></trkpt><trkpt lat="45.3340283" lon="8.4451517"><ele>122.75</ele><time>2026-04-19T11:18:51.967Z</time></trkpt><trkpt lat="45.334165" lon="8.4451433"><ele>122.5</ele><time>2026-04-19T11:18:52.967Z</time></trkpt><trkpt lat="45.3342983" lon="8.4451333"><ele>122.25</ele><time>2026-04-19T11:18:53.966Z</time></trkpt><trkpt lat="45.3344283" lon="8.4451067"><ele>122.0</ele><time>2026-04-19T11:18:54.967Z</time></trkpt><trkpt lat="45.3345583" lon="8.4450833"><ele>122.0</ele><time>2026-04-19T11:18:55.967Z</time></trkpt><trkpt lat="45.33469" lon="8.4450517"><ele>122.0</ele><time>2026-04-19T11:18:56.967Z</time></trkpt><trkpt lat="45.3348267" lon="8.4450133"><ele>122.0</ele><time>2026-04-19T11:18:57.967Z</time></trkpt><trkpt lat="45.3349567" lon="8.4449867"><ele>122.0</ele><time>2026-04-19T11:18:58.966Z</time></trkpt><trkpt lat="45.3350883" lon="8.44494"><ele>122.0</ele><time>2026-04-19T11:18:59.967Z</time></trkpt><trkpt lat="45.335215" lon="8.4448817"><ele>122.0</ele><time>2026-04-19T11:19:00.966Z</time></trkpt><trkpt lat="45.33535" lon="8.4448167"><ele>122.0</ele><time>2026-04-19T11:19:01.967Z</time></trkpt><trkpt lat="45.3354783" lon="8.4447483"><ele>122.0</ele><time>2026-04-19T11:19:02.967Z</time></trkpt><trkpt lat="45.3356067" lon="8.4446683"><ele>122.25</ele><time>2026-04-19T11:19:03.967Z</time></trkpt><trkpt lat="45.33573" lon="8.444585"><ele>122.5</ele><time>2026-04-19T11:19:04.967Z</time></trkpt><trkpt lat="45.3358467" lon="8.444495"><ele>122.75</ele><time>2026-04-19T11:19:05.967Z</time></trkpt><trkpt lat="45.335965" lon="8.4443967"><ele>123.0</ele><time>2026-04-19T11:19:06.967Z</time></trkpt><trkpt lat="45.3360833" lon="8.4442933"><ele>123.0</ele><time>2026-04-19T11:19:07.966Z</time></trkpt><trkpt lat="45.336185" lon="8.4441833"><ele>123.0</ele><time>2026-04-19T11:19:08.966Z</time></trkpt><trkpt lat="45.3362983" lon="8.444065"><ele>123.0</ele><time>2026-04-19T11:19:09.967Z</time></trkpt><trkpt lat="45.3364083" lon="8.44395"><ele>123.0</ele><time>2026-04-19T11:19:10.967Z</time></trkpt><trkpt lat="45.3365133" lon="8.4438233"><ele>122.25</ele><time>2026-04-19T11:19:11.966Z</time></trkpt><trkpt lat="45.3366233" lon="8.4436967"><ele>121.5</ele><time>2026-04-19T11:19:12.967Z</time></trkpt><trkpt lat="45.3367217" lon="8.44358"><ele>120.75</ele><time>2026-04-19T11:19:13.967Z</time></trkpt><trkpt lat="45.3368217" lon="8.44347"><ele>120.0</ele><time>2026-04-19T11:19:14.967Z</time></trkpt><trkpt lat="45.336925" lon="8.4433517"><ele>120.0</ele><time>2026-04-19T11:19:15.967Z</time></trkpt><trkpt lat="45.3370283" lon="8.443235"><ele>120.0</ele><time>2026-04-19T11:19:16.967Z</time></trkpt><trkpt lat="45.337135" lon="8.4431183"><ele>120.0</ele><time>2026-04-19T11:19:17.967Z</time></trkpt><trkpt lat="45.3372333" lon="8.4430033"><ele>120.0</ele><time>2026-04-19T11:19:18.967Z</time></trkpt><trkpt lat="45.33734" lon="8.4428833"><ele>121.0</ele><time>2026-04-19T11:19:19.967Z</time></trkpt><trkpt lat="45.337445" lon="8.4427833"><ele>122.0</ele><time>2026-04-19T11:19:20.967Z</time></trkpt><trkpt lat="45.337555" lon="8.4426683"><ele>123.0</ele><time>2026-04-19T11:19:21.967Z</time></trkpt><trkpt lat="45.3376533" lon="8.4425483"><ele>124.0</ele><time>2026-04-19T11:19:22.967Z</time></trkpt><trkpt lat="45.33775" lon="8.4424483"><ele>124.0</ele><time>2026-04-19T11:19:23.967Z</time></trkpt><trkpt lat="45.3378383" lon="8.4423467"><ele>124.0</ele><time>2026-04-19T11:19:24.967Z</time></trkpt><trkpt lat="45.3379217" lon="8.4422517"><ele>124.0</ele><time>2026-04-19T11:19:25.966Z</time></trkpt><trkpt lat="45.3380017" lon="8.4421583"><ele>124.0</ele><time>2026-04-19T11:19:26.967Z</time></trkpt><trkpt lat="45.3380717" lon="8.442075"><ele>124.0</ele><time>2026-04-19T11:19:27.966Z</time></trkpt><trkpt lat="45.338145" lon="8.4420017"><ele>124.28571428571429</ele><time>2026-04-19T11:19:28.967Z</time></trkpt><trkpt lat="45.3382083" lon="8.441925"><ele>124.57142857142858</ele><time>2026-04-19T11:19:29.966Z</time></trkpt><trkpt lat="45.33827" lon="8.4418633"><ele>124.85714285714286</ele><time>2026-04-19T11:19:30.966Z</time></trkpt><trkpt lat="45.3383267" lon="8.44181"><ele>125.14285714285714</ele><time>2026-04-19T11:19:31.967Z</time></trkpt><trkpt lat="45.3383767" lon="8.4417483"><ele>125.42857142857143</ele><time>2026-04-19T11:19:32.966Z</time></trkpt><trkpt lat="45.3384133" lon="8.441665"><ele>125.71428571428572</ele><time>2026-04-19T11:19:33.966Z</time></trkpt><trkpt lat="45.3384383" lon="8.4415767"><ele>126.0</ele><time>2026-04-19T11:19:34.967Z</time></trkpt><trkpt lat="45.3384967" lon="8.4414367"><ele>126.0</ele><time>2026-04-19T11:19:36.966Z</time></trkpt><trkpt lat="45.3385483" lon="8.4413567"><ele>126.0</ele><time>2026-04-19T11:19:38.967Z</time></trkpt><trkpt lat="45.3386683" lon="8.4413883"><ele>126.0</ele><time>2026-04-19T11:19:40.967Z</time></trkpt><trkpt lat="45.3387317" lon="8.441425"><ele>126.0</ele><time>2026-04-19T11:19:41.966Z</time></trkpt><trkpt lat="45.338795" lon="8.4414267"><ele>126.0</ele><time>2026-04-19T11:19:42.967Z</time></trkpt><trkpt lat="45.33887" lon="8.4414183"><ele>126.0</ele><time>2026-04-19T11:19:43.966Z</time></trkpt><trkpt lat="45.3389483" lon="8.44139"><ele>126.0</ele><time>2026-04-19T11:19:44.967Z</time></trkpt><trkpt lat="45.3390317" lon="8.4413483"><ele>126.0</ele><time>2026-04-19T11:19:45.967Z</time></trkpt><trkpt lat="45.3391033" lon="8.44131"><ele>126.0</ele><time>2026-04-19T11:19:46.967Z</time></trkpt><trkpt lat="45.3391767" lon="8.4412767"><ele>126.0</ele><time>2026-04-19T11:19:47.966Z</time></trkpt><trkpt lat="45.3392483" lon="8.4412517"><ele>126.0</ele><time>2026-04-19T11:19:48.966Z</time></trkpt><trkpt lat="45.3393233" lon="8.44125"><ele>126.0</ele><time>2026-04-19T11:19:49.966Z</time></trkpt><trkpt lat="45.3394" lon="8.4412667"><ele>126.0</ele><time>2026-04-19T11:19:50.967Z</time></trkpt><trkpt lat="45.339465" lon="8.4413017"><ele>126.0</ele><time>2026-04-19T11:19:51.966Z</time></trkpt><trkpt lat="45.33953" lon="8.4413417"><ele>126.0</ele><time>2026-04-19T11:19:52.967Z</time></trkpt><trkpt lat="45.3395967" lon="8.4413783"><ele>126.0</ele><time>2026-04-19T11:19:53.967Z</time></trkpt><trkpt lat="45.3396717" lon="8.4414117"><ele>126.0</ele><time>2026-04-19T11:19:54.967Z</time></trkpt><trkpt lat="45.3397433" lon="8.4414433"><ele>126.0</ele><time>2026-04-19T11:19:55.966Z</time></trkpt><trkpt lat="45.3398217" lon="8.4414583"><ele>126.0</ele><time>2026-04-19T11:19:56.967Z</time></trkpt><trkpt lat="45.339895" lon="8.4414717"><ele>125.66666666666667</ele><time>2026-04-19T11:19:57.967Z</time></trkpt><trkpt lat="45.3399667" lon="8.4414883"><ele>125.33333333333334</ele><time>2026-04-19T11:19:58.967Z</time></trkpt><trkpt lat="45.3400483" lon="8.4414883"><ele>125.0</ele><time>2026-04-19T11:19:59.967Z</time></trkpt><trkpt lat="45.3401267" lon="8.441495"><ele>124.66666666666667</ele><time>2026-04-19T11:20:00.966Z</time></trkpt><trkpt lat="45.34021" lon="8.4414983"><ele>124.33333333333334</ele><time>2026-04-19T11:20:01.966Z</time></trkpt><trkpt lat="45.3403" lon="8.4415"><ele>124.0</ele><time>2026-04-19T11:20:02.967Z</time></trkpt><trkpt lat="45.34039" lon="8.4415033"><ele>124.0</ele><time>2026-04-19T11:20:03.966Z</time></trkpt><trkpt lat="45.340485" lon="8.4415033"><ele>124.0</ele><time>2026-04-19T11:20:04.967Z</time></trkpt><trkpt lat="45.3405767" lon="8.4415117"><ele>124.0</ele><time>2026-04-19T11:20:05.967Z</time></trkpt><trkpt lat="45.34067" lon="8.441515"><ele>124.0</ele><time>2026-04-19T11:20:06.966Z</time></trkpt><trkpt lat="45.34077" lon="8.4415217"><ele>124.0</ele><time>2026-04-19T11:20:07.967Z</time></trkpt><trkpt lat="45.3408683" lon="8.441535"><ele>123.6</ele><time>2026-04-19T11:20:08.967Z</time></trkpt><trkpt lat="45.3409717" lon="8.441555"><ele>123.2</ele><time>2026-04-19T11:20:09.966Z</time></trkpt><trkpt lat="45.3410667" lon="8.441585"><ele>122.79999999999998</ele><time>2026-04-19T11:20:10.966Z</time></trkpt><trkpt lat="45.341165" lon="8.4416033"><ele>122.39999999999999</ele><time>2026-04-19T11:20:11.967Z</time></trkpt><trkpt lat="45.341265" lon="8.4416267"><ele>122.0</ele><time>2026-04-19T11:20:12.966Z</time></trkpt><trkpt lat="45.34137" lon="8.4416533"><ele>122.0</ele><time>2026-04-19T11:20:13.967Z</time></trkpt><trkpt lat="45.34147" lon="8.441685"><ele>121.99999999999999</ele><time>2026-04-19T11:20:14.967Z</time></trkpt><trkpt lat="45.3415717" lon="8.4417067"><ele>121.99999999999999</ele><time>2026-04-19T11:20:15.967Z</time></trkpt><trkpt lat="45.3416833" lon="8.4417383"><ele>122.0</ele><time>2026-04-19T11:20:16.966Z</time></trkpt><trkpt lat="45.3417983" lon="8.4417667"><ele>122.0</ele><time>2026-04-19T11:20:17.967Z</time></trkpt><trkpt lat="45.341915" lon="8.4417867"><ele>122.0</ele><time>2026-04-19T11:20:18.966Z</time></trkpt><trkpt lat="45.3420333" lon="8.4418133"><ele>122.0</ele><time>2026-04-19T11:20:19.966Z</time></trkpt><trkpt lat="45.342155" lon="8.4418267"><ele>122.0</ele><time>2026-04-19T11:20:20.967Z</time></trkpt><trkpt lat="45.342275" lon="8.4418383"><ele>122.0</ele><time>2026-04-19T11:20:21.966Z</time></trkpt><trkpt lat="45.342395" lon="8.441855"><ele>122.5</ele><time>2026-04-19T11:20:22.966Z</time></trkpt><trkpt lat="45.34251" lon="8.4418867"><ele>123.0</ele><time>2026-04-19T11:20:23.966Z</time></trkpt><trkpt lat="45.3426267" lon="8.4419067"><ele>123.5</ele><time>2026-04-19T11:20:24.966Z</time></trkpt><trkpt lat="45.34274" lon="8.44193"><ele>124.0</ele><time>2026-04-19T11:20:25.967Z</time></trkpt><trkpt lat="45.34286" lon="8.4419483"><ele>124.0</ele><time>2026-04-19T11:20:26.967Z</time></trkpt><trkpt lat="45.3429833" lon="8.4419717"><ele>124.0</ele><time>2026-04-19T11:20:27.967Z</time></trkpt><trkpt lat="45.3431067" lon="8.442"><ele>124.0</ele><time>2026-04-19T11:20:28.966Z</time></trkpt><trkpt lat="45.3432283" lon="8.4420267"><ele>124.0</ele><time>2026-04-19T11:20:29.967Z</time></trkpt><trkpt lat="45.3433533" lon="8.4420467"><ele>123.75</ele><time>2026-04-19T11:20:30.966Z</time></trkpt><trkpt lat="45.3434767" lon="8.4420683"><ele>123.5</ele><time>2026-04-19T11:20:31.966Z</time></trkpt><trkpt lat="45.3435933" lon="8.4420817"><ele>123.25</ele><time>2026-04-19T11:20:32.966Z</time></trkpt><trkpt lat="45.34372" lon="8.442095"><ele>123.0</ele><time>2026-04-19T11:20:33.967Z</time></trkpt><trkpt lat="45.3438383" lon="8.442095"><ele>123.5</ele><time>2026-04-19T11:20:34.967Z</time></trkpt><trkpt lat="45.34395" lon="8.4420917"><ele>124.0</ele><time>2026-04-19T11:20:35.966Z</time></trkpt><trkpt lat="45.34407" lon="8.442075"><ele>124.5</ele><time>2026-04-19T11:20:36.966Z</time></trkpt><trkpt lat="45.344185" lon="8.4420633"><ele>125.0</ele><time>2026-04-19T11:20:37.967Z</time></trkpt><trkpt lat="45.3443117" lon="8.4420533"><ele>125.0</ele><time>2026-04-19T11:20:38.967Z</time></trkpt><trkpt lat="45.344425" lon="8.4420467"><ele>125.0</ele><time>2026-04-19T11:20:39.967Z</time></trkpt><trkpt lat="45.34455" lon="8.4420417"><ele>125.0</ele><time>2026-04-19T11:20:40.967Z</time></trkpt><trkpt lat="45.3446683" lon="8.44204"><ele>125.0</ele><time>2026-04-19T11:20:41.966Z</time></trkpt><trkpt lat="45.34479" lon="8.4420467"><ele>125.25</ele><time>2026-04-19T11:20:42.966Z</time></trkpt><trkpt lat="45.34492" lon="8.4420483"><ele>125.5</ele><time>2026-04-19T11:20:43.967Z</time></trkpt><trkpt lat="45.3450517" lon="8.4420533"><ele>125.75</ele><time>2026-04-19T11:20:44.967Z</time></trkpt><trkpt lat="45.34518" lon="8.4420583"><ele>126.0</ele><time>2026-04-19T11:20:45.967Z</time></trkpt><trkpt lat="45.3453117" lon="8.4420617"><ele>126.0</ele><time>2026-04-19T11:20:46.967Z</time></trkpt><trkpt lat="45.3454383" lon="8.4420767"><ele>126.0</ele><time>2026-04-19T11:20:47.966Z</time></trkpt><trkpt lat="45.3455633" lon="8.4420717"><ele>126.0</ele><time>2026-04-19T11:20:48.966Z</time></trkpt><trkpt lat="45.34569" lon="8.442075"><ele>126.0</ele><time>2026-04-19T11:20:49.967Z</time></trkpt><trkpt lat="45.3458167" lon="8.4420717"><ele>125.75</ele><time>2026-04-19T11:20:50.967Z</time></trkpt><trkpt lat="45.345955" lon="8.4420733"><ele>125.5</ele><time>2026-04-19T11:20:51.967Z</time></trkpt><trkpt lat="45.3460917" lon="8.4420783"><ele>125.25</ele><time>2026-04-19T11:20:52.966Z</time></trkpt><trkpt lat="45.346225" lon="8.442085"><ele>125.0</ele><time>2026-04-19T11:20:53.966Z</time></trkpt><trkpt lat="45.3463583" lon="8.4420817"><ele>125.75</ele><time>2026-04-19T11:20:54.967Z</time></trkpt><trkpt lat="45.3464967" lon="8.4420867"><ele>126.5</ele><time>2026-04-19T11:20:55.967Z</time></trkpt><trkpt lat="45.346635" lon="8.4420883"><ele>127.25</ele><time>2026-04-19T11:20:56.967Z</time></trkpt><trkpt lat="45.3467733" lon="8.4421"><ele>128.0</ele><time>2026-04-19T11:20:57.966Z</time></trkpt><trkpt lat="45.3469083" lon="8.4421067"><ele>128.0</ele><time>2026-04-19T11:20:58.965Z</time></trkpt><trkpt lat="45.347035" lon="8.4421183"><ele>128.0</ele><time>2026-04-19T11:20:59.965Z</time></trkpt><trkpt lat="45.3471583" lon="8.4421267"><ele>128.0</ele><time>2026-04-19T11:21:00.966Z</time></trkpt><trkpt lat="45.3472817" lon="8.44213"><ele>128.0</ele><time>2026-04-19T11:21:01.965Z</time></trkpt><trkpt lat="45.347395" lon="8.442135"><ele>127.60000000000001</ele><time>2026-04-19T11:21:02.966Z</time></trkpt><trkpt lat="45.3474967" lon="8.4421583"><ele>127.20000000000002</ele><time>2026-04-19T11:21:03.966Z</time></trkpt><trkpt lat="45.3475967" lon="8.442185"><ele>126.8</ele><time>2026-04-19T11:21:04.966Z</time></trkpt><trkpt lat="45.3476883" lon="8.4422217"><ele>126.4</ele><time>2026-04-19T11:21:05.965Z</time></trkpt><trkpt lat="45.3477683" lon="8.442245"><ele>126.0</ele><time>2026-04-19T11:21:06.966Z</time></trkpt><trkpt lat="45.3478433" lon="8.4422733"><ele>126.0</ele><time>2026-04-19T11:21:07.966Z</time></trkpt><trkpt lat="45.3479067" lon="8.4423017"><ele>126.0</ele><time>2026-04-19T11:21:08.966Z</time></trkpt><trkpt lat="45.3479667" lon="8.44234"><ele>126.0</ele><time>2026-04-19T11:21:09.966Z</time></trkpt><trkpt lat="45.3480233" lon="8.442385"><ele>126.0</ele><time>2026-04-19T11:21:10.965Z</time></trkpt><trkpt lat="45.348125" lon="8.44243"><ele>126.0</ele><time>2026-04-19T11:21:12.965Z</time></trkpt><trkpt lat="45.3481867" lon="8.442405"><ele>126.0</ele><time>2026-04-19T11:21:13.966Z</time></trkpt><trkpt lat="45.3482433" lon="8.44235"><ele>126.0</ele><time>2026-04-19T11:21:14.965Z</time></trkpt><trkpt lat="45.348325" lon="8.4422567"><ele>126.0</ele><time>2026-04-19T11:21:16.966Z</time></trkpt><trkpt lat="45.3483867" lon="8.4422083"><ele>126.0</ele><time>2026-04-19T11:21:19.965Z</time></trkpt><trkpt lat="45.3483217" lon="8.4422183"><ele>126.0</ele><time>2026-04-19T11:21:35.966Z</time></trkpt><trkpt lat="45.3482683" lon="8.4422783"><ele>126.0</ele><time>2026-04-19T11:21:37.965Z</time></trkpt><trkpt lat="45.348245" lon="8.44218"><ele>126.0</ele><time>2026-04-19T11:21:40.965Z</time></trkpt><trkpt lat="45.3482817" lon="8.4421017"><ele>126.0</ele><time>2026-04-19T11:21:42.966Z</time></trkpt><trkpt lat="45.3483617" lon="8.4419983"><ele>126.0</ele><time>2026-04-19T11:21:44.966Z</time></trkpt><trkpt lat="45.34841" lon="8.4419083"><ele>126.0</ele><time>2026-04-19T11:21:45.966Z</time></trkpt><trkpt lat="45.3484667" lon="8.44181"><ele>126.0</ele><time>2026-04-19T11:21:46.966Z</time></trkpt><trkpt lat="45.348525" lon="8.44172"><ele>126.0</ele><time>2026-04-19T11:21:47.965Z</time></trkpt><trkpt lat="45.3485817" lon="8.4416333"><ele>126.0</ele><time>2026-04-19T11:21:48.966Z</time></trkpt><trkpt lat="45.3486367" lon="8.4415533"><ele>126.0</ele><time>2026-04-19T11:21:49.966Z</time></trkpt><trkpt lat="45.3486917" lon="8.4414583"><ele>126.0</ele><time>2026-04-19T11:21:50.965Z</time></trkpt><trkpt lat="45.348755" lon="8.4413567"><ele>126.0</ele><time>2026-04-19T11:21:51.964Z</time></trkpt><trkpt lat="45.34882" lon="8.44125"><ele>126.0</ele><time>2026-04-19T11:21:52.966Z</time></trkpt><trkpt lat="45.3488883" lon="8.4411317"><ele>126.0</ele><time>2026-04-19T11:21:53.966Z</time></trkpt><trkpt lat="45.3489533" lon="8.44101"><ele>126.0</ele><time>2026-04-19T11:21:54.965Z</time></trkpt><trkpt lat="45.34902" lon="8.4408933"><ele>126.0</ele><time>2026-04-19T11:21:55.965Z</time></trkpt><trkpt lat="45.3491017" lon="8.44079"><ele>126.0</ele><time>2026-04-19T11:21:56.966Z</time></trkpt><trkpt lat="45.3491683" lon="8.44068"><ele>126.0</ele><time>2026-04-19T11:21:57.966Z</time></trkpt><trkpt lat="45.3492467" lon="8.4405717"><ele>126.0</ele><time>2026-04-19T11:21:58.965Z</time></trkpt><trkpt lat="45.3493183" lon="8.4404583"><ele>126.0</ele><time>2026-04-19T11:21:59.965Z</time></trkpt><trkpt lat="45.3493967" lon="8.4403517"><ele>125.5</ele><time>2026-04-19T11:22:00.966Z</time></trkpt><trkpt lat="45.3494817" lon="8.44024"><ele>125.0</ele><time>2026-04-19T11:22:01.966Z</time></trkpt><trkpt lat="45.3495683" lon="8.4401217"><ele>124.5</ele><time>2026-04-19T11:22:02.965Z</time></trkpt><trkpt lat="45.3496583" lon="8.4400117"><ele>124.0</ele><time>2026-04-19T11:22:03.966Z</time></trkpt><trkpt lat="45.34974" lon="8.439905"><ele>124.0</ele><time>2026-04-19T11:22:04.965Z</time></trkpt><trkpt lat="45.3498183" lon="8.4397917"><ele>124.0</ele><time>2026-04-19T11:22:05.966Z</time></trkpt><trkpt lat="45.349905" lon="8.43968"><ele>124.0</ele><time>2026-04-19T11:22:06.965Z</time></trkpt><trkpt lat="45.3499933" lon="8.439565"><ele>124.0</ele><time>2026-04-19T11:22:07.965Z</time></trkpt><trkpt lat="45.3500833" lon="8.4394517"><ele>124.0</ele><time>2026-04-19T11:22:08.966Z</time></trkpt><trkpt lat="45.3501617" lon="8.4393433"><ele>124.0</ele><time>2026-04-19T11:22:09.965Z</time></trkpt><trkpt lat="45.350245" lon="8.43922"><ele>124.0</ele><time>2026-04-19T11:22:10.966Z</time></trkpt><trkpt lat="45.3503283" lon="8.4391133"><ele>124.0</ele><time>2026-04-19T11:22:11.966Z</time></trkpt><trkpt lat="45.350415" lon="8.439005"><ele>124.0</ele><time>2026-04-19T11:22:12.966Z</time></trkpt><trkpt lat="45.3505033" lon="8.4388933"><ele>124.0</ele><time>2026-04-19T11:22:13.966Z</time></trkpt><trkpt lat="45.350585" lon="8.4387883"><ele>124.0</ele><time>2026-04-19T11:22:14.966Z</time></trkpt><trkpt lat="45.35067" lon="8.43869"><ele>124.0</ele><time>2026-04-19T11:22:15.966Z</time></trkpt><trkpt lat="45.3507367" lon="8.4385833"><ele>124.0</ele><time>2026-04-19T11:22:16.966Z</time></trkpt><trkpt lat="45.3508083" lon="8.438505"><ele>123.80000000000001</ele><time>2026-04-19T11:22:17.966Z</time></trkpt><trkpt lat="45.3508883" lon="8.4384333"><ele>123.60000000000001</ele><time>2026-04-19T11:22:18.966Z</time></trkpt><trkpt lat="45.35097" lon="8.438375"><ele>123.4</ele><time>2026-04-19T11:22:19.965Z</time></trkpt><trkpt lat="45.351055" lon="8.4383167"><ele>123.2</ele><time>2026-04-19T11:22:20.965Z</time></trkpt><trkpt lat="45.35114" lon="8.4382583"><ele>123.0</ele><time>2026-04-19T11:22:21.966Z</time></trkpt><trkpt lat="45.3512217" lon="8.4382033"><ele>123.0</ele><time>2026-04-19T11:22:22.966Z</time></trkpt><trkpt lat="45.3513083" lon="8.4381433"><ele>123.00000000000001</ele><time>2026-04-19T11:22:23.966Z</time></trkpt><trkpt lat="45.3514033" lon="8.438085"><ele>123.00000000000001</ele><time>2026-04-19T11:22:24.966Z</time></trkpt><trkpt lat="45.3515017" lon="8.438035"><ele>123.0</ele><time>2026-04-19T11:22:25.966Z</time></trkpt><trkpt lat="45.3515967" lon="8.4379733"><ele>123.0</ele><time>2026-04-19T11:22:26.965Z</time></trkpt><trkpt lat="45.351705" lon="8.43792"><ele>123.0</ele><time>2026-04-19T11:22:27.966Z</time></trkpt><trkpt lat="45.351815" lon="8.4378683"><ele>123.00000000000001</ele><time>2026-04-19T11:22:28.965Z</time></trkpt><trkpt lat="45.35192" lon="8.437825"><ele>123.00000000000001</ele><time>2026-04-19T11:22:29.965Z</time></trkpt><trkpt lat="45.35203" lon="8.4377917"><ele>123.0</ele><time>2026-04-19T11:22:30.966Z</time></trkpt><trkpt lat="45.3521383" lon="8.43776"><ele>123.0</ele><time>2026-04-19T11:22:31.965Z</time></trkpt><trkpt lat="45.3522517" lon="8.4377117"><ele>123.75</ele><time>2026-04-19T11:22:32.966Z</time></trkpt><trkpt lat="45.3523633" lon="8.437665"><ele>124.5</ele><time>2026-04-19T11:22:33.966Z</time></trkpt><trkpt lat="45.35248" lon="8.4376233"><ele>125.25</ele><time>2026-04-19T11:22:34.966Z</time></trkpt><trkpt lat="45.35259" lon="8.437585"><ele>126.0</ele><time>2026-04-19T11:22:35.965Z</time></trkpt><trkpt lat="45.3526983" lon="8.4375383"><ele>126.0</ele><time>2026-04-19T11:22:36.966Z</time></trkpt><trkpt lat="45.35281" lon="8.4374917"><ele>126.0</ele><time>2026-04-19T11:22:37.966Z</time></trkpt><trkpt lat="45.35292" lon="8.4374417"><ele>126.0</ele><time>2026-04-19T11:22:38.966Z</time></trkpt><trkpt lat="45.3530267" lon="8.4373767"><ele>126.0</ele><time>2026-04-19T11:22:39.965Z</time></trkpt><trkpt lat="45.3531317" lon="8.4372917"><ele>126.0</ele><time>2026-04-19T11:22:40.965Z</time></trkpt><trkpt lat="45.3532233" lon="8.4372067"><ele>126.0</ele><time>2026-04-19T11:22:41.965Z</time></trkpt><trkpt lat="45.35331" lon="8.43711"><ele>126.0</ele><time>2026-04-19T11:22:42.966Z</time></trkpt><trkpt lat="45.3533783" lon="8.43701"><ele>126.0</ele><time>2026-04-19T11:22:43.965Z</time></trkpt><trkpt lat="45.3534483" lon="8.4369233"><ele>126.0</ele><time>2026-04-19T11:22:44.965Z</time></trkpt><trkpt lat="45.353515" lon="8.4368317"><ele>125.83333333333333</ele><time>2026-04-19T11:22:45.966Z</time></trkpt><trkpt lat="45.3535733" lon="8.4367483"><ele>125.66666666666666</ele><time>2026-04-19T11:22:46.966Z</time></trkpt><trkpt lat="45.3536317" lon="8.4366667"><ele>125.5</ele><time>2026-04-19T11:22:47.966Z</time></trkpt><trkpt lat="45.3536867" lon="8.4365883"><ele>125.33333333333333</ele><time>2026-04-19T11:22:48.966Z</time></trkpt><trkpt lat="45.353745" lon="8.4365133"><ele>125.16666666666666</ele><time>2026-04-19T11:22:49.966Z</time></trkpt><trkpt lat="45.3537983" lon="8.4364517"><ele>125.0</ele><time>2026-04-19T11:22:50.965Z</time></trkpt><trkpt lat="45.353855" lon="8.4363833"><ele>124.99999999999999</ele><time>2026-04-19T11:22:51.966Z</time></trkpt><trkpt lat="45.3539133" lon="8.4363083"><ele>125.0</ele><time>2026-04-19T11:22:52.966Z</time></trkpt><trkpt lat="45.35397" lon="8.4362333"><ele>125.0</ele><time>2026-04-19T11:22:53.966Z</time></trkpt><trkpt lat="45.3540233" lon="8.4361583"><ele>125.0</ele><time>2026-04-19T11:22:54.966Z</time></trkpt><trkpt lat="45.3540783" lon="8.43608"><ele>124.99999999999999</ele><time>2026-04-19T11:22:55.966Z</time></trkpt><trkpt lat="45.3541333" lon="8.4360017"><ele>125.0</ele><time>2026-04-19T11:22:56.965Z</time></trkpt><trkpt lat="45.3541867" lon="8.43593"><ele>125.0</ele><time>2026-04-19T11:22:57.965Z</time></trkpt><trkpt lat="45.3542433" lon="8.4358483"><ele>125.0</ele><time>2026-04-19T11:22:58.965Z</time></trkpt><trkpt lat="45.3543033" lon="8.4357567"><ele>125.0</ele><time>2026-04-19T11:22:59.965Z</time></trkpt><trkpt lat="45.3543533" lon="8.43568"><ele>125.0</ele><time>2026-04-19T11:23:00.965Z</time></trkpt><trkpt lat="45.3544017" lon="8.435615"><ele>125.0</ele><time>2026-04-19T11:23:01.966Z</time></trkpt><trkpt lat="45.35445" lon="8.4355467"><ele>125.0</ele><time>2026-04-19T11:23:02.966Z</time></trkpt><trkpt lat="45.3544967" lon="8.435485"><ele>125.0</ele><time>2026-04-19T11:23:03.965Z</time></trkpt><trkpt lat="45.3545783" lon="8.4353733"><ele>125.0</ele><time>2026-04-19T11:23:05.966Z</time></trkpt><trkpt lat="45.3546417" lon="8.43528"><ele>125.0</ele><time>2026-04-19T11:23:07.965Z</time></trkpt><trkpt lat="45.3547067" lon="8.4351867"><ele>125.0</ele><time>2026-04-19T11:23:09.966Z</time></trkpt><trkpt lat="45.3547783" lon="8.4351"><ele>125.0</ele><time>2026-04-19T11:23:11.965Z</time></trkpt><trkpt lat="45.354865" lon="8.4349717"><ele>125.0</ele><time>2026-04-19T11:23:13.966Z</time></trkpt><trkpt lat="45.3549233" lon="8.434895"><ele>125.2</ele><time>2026-04-19T11:23:14.965Z</time></trkpt><trkpt lat="45.3549883" lon="8.434805"><ele>125.4</ele><time>2026-04-19T11:23:15.966Z</time></trkpt><trkpt lat="45.355055" lon="8.4347083"><ele>125.6</ele><time>2026-04-19T11:23:16.965Z</time></trkpt><trkpt lat="45.3551267" lon="8.4345983"><ele>125.8</ele><time>2026-04-19T11:23:17.965Z</time></trkpt><trkpt lat="45.35521" lon="8.4344817"><ele>126.0</ele><time>2026-04-19T11:23:18.966Z</time></trkpt><trkpt lat="45.3552917" lon="8.4343667"><ele>126.0</ele><time>2026-04-19T11:23:19.966Z</time></trkpt><trkpt lat="45.3553717" lon="8.43426"><ele>126.0</ele><time>2026-04-19T11:23:20.965Z</time></trkpt><trkpt lat="45.3554583" lon="8.4341467"><ele>126.0</ele><time>2026-04-19T11:23:21.965Z</time></trkpt><trkpt lat="45.3555467" lon="8.434035"><ele>126.0</ele><time>2026-04-19T11:23:22.965Z</time></trkpt><trkpt lat="45.35564" lon="8.4339167"><ele>126.0</ele><time>2026-04-19T11:23:23.965Z</time></trkpt><trkpt lat="45.355735" lon="8.4338017"><ele>126.0</ele><time>2026-04-19T11:23:24.965Z</time></trkpt><trkpt lat="45.3558333" lon="8.4336683"><ele>126.0</ele><time>2026-04-19T11:23:25.966Z</time></trkpt><trkpt lat="45.3559333" lon="8.433535"><ele>126.0</ele><time>2026-04-19T11:23:26.965Z</time></trkpt><trkpt lat="45.3560267" lon="8.4333967"><ele>126.0</ele><time>2026-04-19T11:23:27.966Z</time></trkpt><trkpt lat="45.3561317" lon="8.433255"><ele>126.0</ele><time>2026-04-19T11:23:28.966Z</time></trkpt><trkpt lat="45.3562383" lon="8.43311"><ele>126.0</ele><time>2026-04-19T11:23:29.965Z</time></trkpt><trkpt lat="45.35635" lon="8.4329683"><ele>126.0</ele><time>2026-04-19T11:23:30.966Z</time></trkpt><trkpt lat="45.3564617" lon="8.4328217"><ele>125.75</ele><time>2026-04-19T11:23:31.966Z</time></trkpt><trkpt lat="45.3565667" lon="8.432675"><ele>125.5</ele><time>2026-04-19T11:23:32.966Z</time></trkpt><trkpt lat="45.3566683" lon="8.432525"><ele>125.25</ele><time>2026-04-19T11:23:33.965Z</time></trkpt><trkpt lat="45.35678" lon="8.4323733"><ele>125.0</ele><time>2026-04-19T11:23:34.966Z</time></trkpt><trkpt lat="45.3568867" lon="8.43223"><ele>125.25</ele><time>2026-04-19T11:23:35.966Z</time></trkpt><trkpt lat="45.35699" lon="8.4320833"><ele>125.5</ele><time>2026-04-19T11:23:36.966Z</time></trkpt><trkpt lat="45.3570933" lon="8.4319283"><ele>125.75</ele><time>2026-04-19T11:23:37.966Z</time></trkpt><trkpt lat="45.357195" lon="8.431765"><ele>126.0</ele><time>2026-04-19T11:23:38.965Z</time></trkpt><trkpt lat="45.3572933" lon="8.43161"><ele>126.25</ele><time>2026-04-19T11:23:39.966Z</time></trkpt><trkpt lat="45.3573933" lon="8.4314583"><ele>126.5</ele><time>2026-04-19T11:23:40.966Z</time></trkpt><trkpt lat="45.3574933" lon="8.4312983"><ele>126.75</ele><time>2026-04-19T11:23:41.965Z</time></trkpt><trkpt lat="45.3575917" lon="8.4311417"><ele>127.0</ele><time>2026-04-19T11:23:42.966Z</time></trkpt><trkpt lat="45.3576967" lon="8.4309733"><ele>127.0</ele><time>2026-04-19T11:23:43.965Z</time></trkpt><trkpt lat="45.3577933" lon="8.4308117"><ele>127.0</ele><time>2026-04-19T11:23:44.965Z</time></trkpt><trkpt lat="45.3578867" lon="8.4306533"><ele>127.0</ele><time>2026-04-19T11:23:45.965Z</time></trkpt><trkpt lat="45.3579833" lon="8.4304967"><ele>127.0</ele><time>2026-04-19T11:23:46.965Z</time></trkpt><trkpt lat="45.35808" lon="8.430335"><ele>126.75</ele><time>2026-04-19T11:23:47.966Z</time></trkpt><trkpt lat="45.3581683" lon="8.4301783"><ele>126.5</ele><time>2026-04-19T11:23:48.966Z</time></trkpt><trkpt lat="45.358265" lon="8.4300267"><ele>126.25</ele><time>2026-04-19T11:23:49.966Z</time></trkpt><trkpt lat="45.35836" lon="8.4298683"><ele>126.0</ele><time>2026-04-19T11:23:50.966Z</time></trkpt><trkpt lat="45.3584633" lon="8.4297133"><ele>126.0</ele><time>2026-04-19T11:23:51.966Z</time></trkpt><trkpt lat="45.3585617" lon="8.4295617"><ele>126.0</ele><time>2026-04-19T11:23:52.965Z</time></trkpt><trkpt lat="45.3586633" lon="8.4294083"><ele>126.0</ele><time>2026-04-19T11:23:53.966Z</time></trkpt><trkpt lat="45.3587667" lon="8.4292567"><ele>126.0</ele><time>2026-04-19T11:23:54.966Z</time></trkpt><trkpt lat="45.3588683" lon="8.4290917"><ele>126.0</ele><time>2026-04-19T11:23:55.965Z</time></trkpt><trkpt lat="45.358965" lon="8.4289283"><ele>126.0</ele><time>2026-04-19T11:23:56.966Z</time></trkpt><trkpt lat="45.3590567" lon="8.4287717"><ele>126.0</ele><time>2026-04-19T11:23:57.966Z</time></trkpt><trkpt lat="45.3591483" lon="8.4286217"><ele>126.0</ele><time>2026-04-19T11:23:58.965Z</time></trkpt><trkpt lat="45.35925" lon="8.42846"><ele>126.0</ele><time>2026-04-19T11:23:59.965Z</time></trkpt><trkpt lat="45.35935" lon="8.4283033"><ele>126.0</ele><time>2026-04-19T11:24:00.966Z</time></trkpt><trkpt lat="45.3594483" lon="8.4281467"><ele>126.0</ele><time>2026-04-19T11:24:01.965Z</time></trkpt><trkpt lat="45.3595417" lon="8.4279967"><ele>126.0</ele><time>2026-04-19T11:24:02.965Z</time></trkpt><trkpt lat="45.35964" lon="8.427845"><ele>126.0</ele><time>2026-04-19T11:24:03.966Z</time></trkpt><trkpt lat="45.3597383" lon="8.4276917"><ele>126.0</ele><time>2026-04-19T11:24:04.965Z</time></trkpt><trkpt lat="45.3598367" lon="8.42753"><ele>126.0</ele><time>2026-04-19T11:24:05.966Z</time></trkpt><trkpt lat="45.3599333" lon="8.4273733"><ele>126.0</ele><time>2026-04-19T11:24:06.966Z</time></trkpt><trkpt lat="45.36003" lon="8.42722"><ele>126.25</ele><time>2026-04-19T11:24:07.966Z</time></trkpt><trkpt lat="45.360125" lon="8.427075"><ele>126.5</ele><time>2026-04-19T11:24:08.966Z</time></trkpt><trkpt lat="45.3602167" lon="8.42692"><ele>126.75</ele><time>2026-04-19T11:24:09.966Z</time></trkpt><trkpt lat="45.360315" lon="8.4267617"><ele>127.0</ele><time>2026-04-19T11:24:10.966Z</time></trkpt><trkpt lat="45.3604133" lon="8.42661"><ele>127.0</ele><time>2026-04-19T11:24:11.966Z</time></trkpt><trkpt lat="45.36051" lon="8.4264517"><ele>127.0</ele><time>2026-04-19T11:24:12.966Z</time></trkpt><trkpt lat="45.3606033" lon="8.4263017"><ele>127.0</ele><time>2026-04-19T11:24:13.965Z</time></trkpt><trkpt lat="45.3607017" lon="8.426145"><ele>127.0</ele><time>2026-04-19T11:24:14.965Z</time></trkpt><trkpt lat="45.3607933" lon="8.425985"><ele>127.5</ele><time>2026-04-19T11:24:15.966Z</time></trkpt><trkpt lat="45.3608933" lon="8.425825"><ele>128.0</ele><time>2026-04-19T11:24:16.966Z</time></trkpt><trkpt lat="45.360995" lon="8.4256667"><ele>128.5</ele><time>2026-04-19T11:24:17.966Z</time></trkpt><trkpt lat="45.36109" lon="8.4255083"><ele>129.0</ele><time>2026-04-19T11:24:18.966Z</time></trkpt><trkpt lat="45.3611783" lon="8.42535"><ele>129.0</ele><time>2026-04-19T11:24:19.966Z</time></trkpt><trkpt lat="45.3612717" lon="8.4251833"><ele>129.0</ele><time>2026-04-19T11:24:20.965Z</time></trkpt><trkpt lat="45.361365" lon="8.4250067"><ele>129.0</ele><time>2026-04-19T11:24:21.966Z</time></trkpt><trkpt lat="45.3614433" lon="8.4248233"><ele>129.33333333333334</ele><time>2026-04-19T11:24:22.965Z</time></trkpt><trkpt lat="45.36151" lon="8.42463"><ele>129.66666666666669</ele><time>2026-04-19T11:24:23.966Z</time></trkpt><trkpt lat="45.3615667" lon="8.4244267"><ele>130.0</ele><time>2026-04-19T11:24:24.966Z</time></trkpt><trkpt lat="45.3616333" lon="8.4242317"><ele>130.0</ele><time>2026-04-19T11:24:25.965Z</time></trkpt><trkpt lat="45.3617083" lon="8.424035"><ele>130.0</ele><time>2026-04-19T11:24:26.965Z</time></trkpt><trkpt lat="45.3617733" lon="8.423845"><ele>130.0</ele><time>2026-04-19T11:24:27.966Z</time></trkpt><trkpt lat="45.361835" lon="8.4236433"><ele>130.66666666666669</ele><time>2026-04-19T11:24:28.965Z</time></trkpt><trkpt lat="45.3619033" lon="8.4234517"><ele>131.33333333333334</ele><time>2026-04-19T11:24:29.965Z</time></trkpt><trkpt lat="45.361975" lon="8.42325"><ele>132.0</ele><time>2026-04-19T11:24:30.966Z</time></trkpt><trkpt lat="45.36205" lon="8.42305"><ele>131.5</ele><time>2026-04-19T11:24:31.966Z</time></trkpt><trkpt lat="45.3621167" lon="8.4228567"><ele>131.0</ele><time>2026-04-19T11:24:32.965Z</time></trkpt><trkpt lat="45.3621833" lon="8.4226633"><ele>130.5</ele><time>2026-04-19T11:24:33.966Z</time></trkpt><trkpt lat="45.3622467" lon="8.42248"><ele>130.0</ele><time>2026-04-19T11:24:34.966Z</time></trkpt><trkpt lat="45.3623133" lon="8.4222917"><ele>130.0</ele><time>2026-04-19T11:24:35.966Z</time></trkpt><trkpt lat="45.3623733" lon="8.4221017"><ele>130.0</ele><time>2026-04-19T11:24:36.966Z</time></trkpt><trkpt lat="45.36243" lon="8.4219033"><ele>130.0</ele><time>2026-04-19T11:24:37.964Z</time></trkpt><trkpt lat="45.362495" lon="8.42171"><ele>130.0</ele><time>2026-04-19T11:24:38.965Z</time></trkpt><trkpt lat="45.3625667" lon="8.4215267"><ele>130.0</ele><time>2026-04-19T11:24:39.965Z</time></trkpt><trkpt lat="45.36263" lon="8.4213417"><ele>130.0</ele><time>2026-04-19T11:24:40.964Z</time></trkpt><trkpt lat="45.362695" lon="8.4211567"><ele>130.0</ele><time>2026-04-19T11:24:41.965Z</time></trkpt><trkpt lat="45.36276" lon="8.4209733"><ele>130.0</ele><time>2026-04-19T11:24:42.964Z</time></trkpt><trkpt lat="45.3628233" lon="8.4207717"><ele>130.0</ele><time>2026-04-19T11:24:43.964Z</time></trkpt><trkpt lat="45.3628917" lon="8.4205767"><ele>130.0</ele><time>2026-04-19T11:24:44.964Z</time></trkpt><trkpt lat="45.36296" lon="8.42038"><ele>130.0</ele><time>2026-04-19T11:24:45.964Z</time></trkpt><trkpt lat="45.3630283" lon="8.4201817"><ele>129.33333333333334</ele><time>2026-04-19T11:24:46.964Z</time></trkpt><trkpt lat="45.3630967" lon="8.4199767"><ele>128.66666666666666</ele><time>2026-04-19T11:24:47.965Z</time></trkpt><trkpt lat="45.36316" lon="8.4197867"><ele>128.0</ele><time>2026-04-19T11:24:48.964Z</time></trkpt><trkpt lat="45.3632283" lon="8.4196"><ele>127.75</ele><time>2026-04-19T11:24:49.965Z</time></trkpt><trkpt lat="45.3632933" lon="8.4194117"><ele>127.5</ele><time>2026-04-19T11:24:50.965Z</time></trkpt><trkpt lat="45.363355" lon="8.4192233"><ele>127.25</ele><time>2026-04-19T11:24:51.965Z</time></trkpt><trkpt lat="45.363425" lon="8.41903"><ele>127.0</ele><time>2026-04-19T11:24:52.964Z</time></trkpt><trkpt lat="45.3634917" lon="8.41884"><ele>127.25</ele><time>2026-04-19T11:24:53.964Z</time></trkpt><trkpt lat="45.363555" lon="8.41865"><ele>127.5</ele><time>2026-04-19T11:24:54.964Z</time></trkpt><trkpt lat="45.3636233" lon="8.4184617"><ele>127.75</ele><time>2026-04-19T11:24:55.965Z</time></trkpt><trkpt lat="45.3636933" lon="8.4182783"><ele>128.0</ele><time>2026-04-19T11:24:56.965Z</time></trkpt><trkpt lat="45.3637617" lon="8.4181"><ele>128.25</ele><time>2026-04-19T11:24:57.964Z</time></trkpt><trkpt lat="45.3638267" lon="8.4179133"><ele>128.5</ele><time>2026-04-19T11:24:58.965Z</time></trkpt><trkpt lat="45.3638917" lon="8.4177233"><ele>128.75</ele><time>2026-04-19T11:24:59.965Z</time></trkpt><trkpt lat="45.36396" lon="8.4175367"><ele>129.0</ele><time>2026-04-19T11:25:00.965Z</time></trkpt><trkpt lat="45.3640217" lon="8.4173517"><ele>129.0</ele><time>2026-04-19T11:25:01.965Z</time></trkpt><trkpt lat="45.364085" lon="8.417175"><ele>129.0</ele><time>2026-04-19T11:25:02.964Z</time></trkpt><trkpt lat="45.364145" lon="8.4169933"><ele>129.0</ele><time>2026-04-19T11:25:03.964Z</time></trkpt><trkpt lat="45.3642017" lon="8.4168183"><ele>129.0</ele><time>2026-04-19T11:25:04.965Z</time></trkpt><trkpt lat="45.3642583" lon="8.416635"><ele>129.25</ele><time>2026-04-19T11:25:05.965Z</time></trkpt><trkpt lat="45.36433" lon="8.4164617"><ele>129.5</ele><time>2026-04-19T11:25:06.965Z</time></trkpt><trkpt lat="45.3643917" lon="8.4162817"><ele>129.75</ele><time>2026-04-19T11:25:07.965Z</time></trkpt><trkpt lat="45.36446" lon="8.41611"><ele>130.0</ele><time>2026-04-19T11:25:08.965Z</time></trkpt><trkpt lat="45.3645283" lon="8.4159417"><ele>130.5</ele><time>2026-04-19T11:25:09.964Z</time></trkpt><trkpt lat="45.3645933" lon="8.4157617"><ele>131.0</ele><time>2026-04-19T11:25:10.965Z</time></trkpt><trkpt lat="45.3646617" lon="8.4155883"><ele>131.5</ele><time>2026-04-19T11:25:11.964Z</time></trkpt><trkpt lat="45.36474" lon="8.4154167"><ele>132.0</ele><time>2026-04-19T11:25:12.964Z</time></trkpt><trkpt lat="45.3648217" lon="8.41525"><ele>132.5</ele><time>2026-04-19T11:25:13.965Z</time></trkpt><trkpt lat="45.3649017" lon="8.4150783"><ele>133.0</ele><time>2026-04-19T11:25:14.965Z</time></trkpt><trkpt lat="45.364985" lon="8.4149183"><ele>133.5</ele><time>2026-04-19T11:25:15.965Z</time></trkpt><trkpt lat="45.3650767" lon="8.4147617"><ele>134.0</ele><time>2026-04-19T11:25:16.965Z</time></trkpt><trkpt lat="45.3651633" lon="8.4146083"><ele>134.25</ele><time>2026-04-19T11:25:17.964Z</time></trkpt><trkpt lat="45.3652617" lon="8.41446"><ele>134.5</ele><time>2026-04-19T11:25:18.965Z</time></trkpt><trkpt lat="45.36536" lon="8.4143133"><ele>134.75</ele><time>2026-04-19T11:25:19.965Z</time></trkpt><trkpt lat="45.3654633" lon="8.41416"><ele>135.0</ele><time>2026-04-19T11:25:20.964Z</time></trkpt><trkpt lat="45.3655667" lon="8.4140133"><ele>134.0</ele><time>2026-04-19T11:25:21.965Z</time></trkpt><trkpt lat="45.3656583" lon="8.4138733"><ele>133.0</ele><time>2026-04-19T11:25:22.964Z</time></trkpt><trkpt lat="45.3657617" lon="8.4137333"><ele>132.0</ele><time>2026-04-19T11:25:23.964Z</time></trkpt><trkpt lat="45.3658583" lon="8.4135917"><ele>131.0</ele><time>2026-04-19T11:25:24.965Z</time></trkpt><trkpt lat="45.3659383" lon="8.41343"><ele>131.0</ele><time>2026-04-19T11:25:25.964Z</time></trkpt><trkpt lat="45.3660017" lon="8.41326"><ele>131.0</ele><time>2026-04-19T11:25:26.964Z</time></trkpt><trkpt lat="45.3660517" lon="8.413075"><ele>131.0</ele><time>2026-04-19T11:25:27.965Z</time></trkpt><trkpt lat="45.3661067" lon="8.4128817"><ele>131.0</ele><time>2026-04-19T11:25:28.964Z</time></trkpt><trkpt lat="45.366165" lon="8.412695"><ele>131.25</ele><time>2026-04-19T11:25:29.965Z</time></trkpt><trkpt lat="45.3662283" lon="8.4125183"><ele>131.5</ele><time>2026-04-19T11:25:30.965Z</time></trkpt><trkpt lat="45.3662817" lon="8.412365"><ele>131.75</ele><time>2026-04-19T11:25:31.965Z</time></trkpt><trkpt lat="45.3663467" lon="8.412215"><ele>132.0</ele><time>2026-04-19T11:25:32.965Z</time></trkpt><trkpt lat="45.3664267" lon="8.4120783"><ele>131.0</ele><time>2026-04-19T11:25:33.964Z</time></trkpt><trkpt lat="45.366525" lon="8.4119683"><ele>130.0</ele><time>2026-04-19T11:25:34.964Z</time></trkpt><trkpt lat="45.3666333" lon="8.4118633"><ele>129.0</ele><time>2026-04-19T11:25:35.964Z</time></trkpt><trkpt lat="45.3667483" lon="8.4117633"><ele>128.0</ele><time>2026-04-19T11:25:36.965Z</time></trkpt><trkpt lat="45.36687" lon="8.4116567"><ele>128.0</ele><time>2026-04-19T11:25:37.965Z</time></trkpt><trkpt lat="45.366995" lon="8.4115617"><ele>128.0</ele><time>2026-04-19T11:25:38.965Z</time></trkpt><trkpt lat="45.3671117" lon="8.41147"><ele>128.0</ele><time>2026-04-19T11:25:39.964Z</time></trkpt><trkpt lat="45.3672367" lon="8.41138"><ele>128.0</ele><time>2026-04-19T11:25:40.964Z</time></trkpt><trkpt lat="45.3673633" lon="8.4112783"><ele>128.5</ele><time>2026-04-19T11:25:41.964Z</time></trkpt><trkpt lat="45.3674917" lon="8.4111783"><ele>129.0</ele><time>2026-04-19T11:25:42.965Z</time></trkpt><trkpt lat="45.36761" lon="8.4110817"><ele>129.5</ele><time>2026-04-19T11:25:43.965Z</time></trkpt><trkpt lat="45.367735" lon="8.410985"><ele>130.0</ele><time>2026-04-19T11:25:44.965Z</time></trkpt><trkpt lat="45.36786" lon="8.4108867"><ele>130.0</ele><time>2026-04-19T11:25:45.965Z</time></trkpt><trkpt lat="45.367985" lon="8.4107883"><ele>130.0</ele><time>2026-04-19T11:25:46.965Z</time></trkpt><trkpt lat="45.36811" lon="8.41068"><ele>130.0</ele><time>2026-04-19T11:25:47.965Z</time></trkpt><trkpt lat="45.36823" lon="8.4105667"><ele>130.0</ele><time>2026-04-19T11:25:48.964Z</time></trkpt><trkpt lat="45.3683467" lon="8.4104417"><ele>130.33333333333334</ele><time>2026-04-19T11:25:49.965Z</time></trkpt><trkpt lat="45.3684633" lon="8.410315"><ele>130.66666666666666</ele><time>2026-04-19T11:25:50.965Z</time></trkpt><trkpt lat="45.3685833" lon="8.4101867"><ele>131.0</ele><time>2026-04-19T11:25:51.964Z</time></trkpt><trkpt lat="45.36871" lon="8.410065"><ele>131.0</ele><time>2026-04-19T11:25:52.965Z</time></trkpt><trkpt lat="45.368835" lon="8.4099517"><ele>131.0</ele><time>2026-04-19T11:25:53.965Z</time></trkpt><trkpt lat="45.36896" lon="8.4098383"><ele>131.0</ele><time>2026-04-19T11:25:54.965Z</time></trkpt><trkpt lat="45.3690883" lon="8.4097233"><ele>131.0</ele><time>2026-04-19T11:25:55.964Z</time></trkpt><trkpt lat="45.36922" lon="8.40963"><ele>131.25</ele><time>2026-04-19T11:25:56.965Z</time></trkpt><trkpt lat="45.3693467" lon="8.409535"><ele>131.5</ele><time>2026-04-19T11:25:57.965Z</time></trkpt><trkpt lat="45.3694767" lon="8.4094367"><ele>131.75</ele><time>2026-04-19T11:25:58.964Z</time></trkpt><trkpt lat="45.3696067" lon="8.4093417"><ele>132.0</ele><time>2026-04-19T11:25:59.965Z</time></trkpt><trkpt lat="45.36974" lon="8.4092617"><ele>132.0</ele><time>2026-04-19T11:26:00.964Z</time></trkpt><trkpt lat="45.3698717" lon="8.409195"><ele>132.0</ele><time>2026-04-19T11:26:01.965Z</time></trkpt><trkpt lat="45.3700067" lon="8.4091233"><ele>132.0</ele><time>2026-04-19T11:26:02.964Z</time></trkpt><trkpt lat="45.3701467" lon="8.4090567"><ele>132.0</ele><time>2026-04-19T11:26:03.965Z</time></trkpt><trkpt lat="45.3702883" lon="8.4089883"><ele>132.0</ele><time>2026-04-19T11:26:04.965Z</time></trkpt><trkpt lat="45.37043" lon="8.4089167"><ele>132.0</ele><time>2026-04-19T11:26:05.964Z</time></trkpt><trkpt lat="45.3705667" lon="8.4088467"><ele>132.0</ele><time>2026-04-19T11:26:06.965Z</time></trkpt><trkpt lat="45.37071" lon="8.4088"><ele>132.0</ele><time>2026-04-19T11:26:07.964Z</time></trkpt><trkpt lat="45.3708533" lon="8.40875"><ele>132.25</ele><time>2026-04-19T11:26:08.964Z</time></trkpt><trkpt lat="45.3710017" lon="8.40869"><ele>132.5</ele><time>2026-04-19T11:26:09.965Z</time></trkpt><trkpt lat="45.3711467" lon="8.4086333"><ele>132.75</ele><time>2026-04-19T11:26:10.964Z</time></trkpt><trkpt lat="45.3712833" lon="8.4085733"><ele>133.0</ele><time>2026-04-19T11:26:11.964Z</time></trkpt><trkpt lat="45.3714233" lon="8.40851"><ele>133.0</ele><time>2026-04-19T11:26:12.965Z</time></trkpt><trkpt lat="45.3715717" lon="8.4084367"><ele>133.0</ele><time>2026-04-19T11:26:13.964Z</time></trkpt><trkpt lat="45.3717183" lon="8.40838"><ele>133.0</ele><time>2026-04-19T11:26:14.964Z</time></trkpt><trkpt lat="45.3718683" lon="8.4083217"><ele>133.0</ele><time>2026-04-19T11:26:15.964Z</time></trkpt><trkpt lat="45.3720083" lon="8.4082767"><ele>133.0</ele><time>2026-04-19T11:26:16.964Z</time></trkpt><trkpt lat="45.3721517" lon="8.40822"><ele>133.0</ele><time>2026-04-19T11:26:17.965Z</time></trkpt><trkpt lat="45.3722933" lon="8.4081567"><ele>133.0</ele><time>2026-04-19T11:26:18.965Z</time></trkpt><trkpt lat="45.37244" lon="8.4081033"><ele>133.0</ele><time>2026-04-19T11:26:19.964Z</time></trkpt><trkpt lat="45.3725867" lon="8.4080483"><ele>133.0</ele><time>2026-04-19T11:26:20.965Z</time></trkpt><trkpt lat="45.3727383" lon="8.40799"><ele>133.0</ele><time>2026-04-19T11:26:21.964Z</time></trkpt><trkpt lat="45.3728817" lon="8.4079317"><ele>133.0</ele><time>2026-04-19T11:26:22.964Z</time></trkpt><trkpt lat="45.3730217" lon="8.40788"><ele>133.0</ele><time>2026-04-19T11:26:23.965Z</time></trkpt><trkpt lat="45.373165" lon="8.4078217"><ele>133.0</ele><time>2026-04-19T11:26:24.965Z</time></trkpt><trkpt lat="45.3733083" lon="8.4077733"><ele>133.0</ele><time>2026-04-19T11:26:25.965Z</time></trkpt><trkpt lat="45.3734517" lon="8.407735"><ele>132.5</ele><time>2026-04-19T11:26:26.965Z</time></trkpt><trkpt lat="45.373595" lon="8.4077017"><ele>132.0</ele><time>2026-04-19T11:26:27.965Z</time></trkpt><trkpt lat="45.3737417" lon="8.4076683"><ele>131.5</ele><time>2026-04-19T11:26:28.964Z</time></trkpt><trkpt lat="45.3738817" lon="8.4076433"><ele>131.0</ele><time>2026-04-19T11:26:29.965Z</time></trkpt><trkpt lat="45.3740217" lon="8.4076167"><ele>131.0</ele><time>2026-04-19T11:26:30.965Z</time></trkpt><trkpt lat="45.3741567" lon="8.4075883"><ele>131.0</ele><time>2026-04-19T11:26:31.965Z</time></trkpt><trkpt lat="45.3742833" lon="8.4075567"><ele>131.0</ele><time>2026-04-19T11:26:32.965Z</time></trkpt><trkpt lat="45.374415" lon="8.4075283"><ele>131.0</ele><time>2026-04-19T11:26:33.965Z</time></trkpt><trkpt lat="45.3745433" lon="8.4074867"><ele>131.0</ele><time>2026-04-19T11:26:34.964Z</time></trkpt><trkpt lat="45.37467" lon="8.4074233"><ele>131.0</ele><time>2026-04-19T11:26:35.965Z</time></trkpt><trkpt lat="45.3747983" lon="8.407345"><ele>131.0</ele><time>2026-04-19T11:26:36.965Z</time></trkpt><trkpt lat="45.3749283" lon="8.407265"><ele>131.0</ele><time>2026-04-19T11:26:37.965Z</time></trkpt><trkpt lat="45.3750533" lon="8.40718"><ele>130.75</ele><time>2026-04-19T11:26:38.965Z</time></trkpt><trkpt lat="45.37518" lon="8.4070983"><ele>130.5</ele><time>2026-04-19T11:26:39.965Z</time></trkpt><trkpt lat="45.375315" lon="8.4070167"><ele>130.25</ele><time>2026-04-19T11:26:40.964Z</time></trkpt><trkpt lat="45.3754467" lon="8.4069317"><ele>130.0</ele><time>2026-04-19T11:26:41.965Z</time></trkpt><trkpt lat="45.37558" lon="8.4068483"><ele>130.5</ele><time>2026-04-19T11:26:42.965Z</time></trkpt><trkpt lat="45.3757167" lon="8.4067667"><ele>131.0</ele><time>2026-04-19T11:26:43.964Z</time></trkpt><trkpt lat="45.3758467" lon="8.40668"><ele>131.5</ele><time>2026-04-19T11:26:44.965Z</time></trkpt><trkpt lat="45.375985" lon="8.4065917"><ele>132.0</ele><time>2026-04-19T11:26:45.965Z</time></trkpt><trkpt lat="45.3761267" lon="8.4065117"><ele>132.0</ele><time>2026-04-19T11:26:46.965Z</time></trkpt><trkpt lat="45.3762683" lon="8.4064133"><ele>132.0</ele><time>2026-04-19T11:26:47.964Z</time></trkpt><trkpt lat="45.376415" lon="8.4063283"><ele>132.0</ele><time>2026-04-19T11:26:48.965Z</time></trkpt><trkpt lat="45.3765617" lon="8.40623"><ele>132.0</ele><time>2026-04-19T11:26:49.964Z</time></trkpt><trkpt lat="45.37671" lon="8.40614"><ele>132.0</ele><time>2026-04-19T11:26:50.964Z</time></trkpt><trkpt lat="45.376855" lon="8.406045"><ele>132.0</ele><time>2026-04-19T11:26:51.965Z</time></trkpt><trkpt lat="45.3770017" lon="8.4059583"><ele>132.0</ele><time>2026-04-19T11:26:52.964Z</time></trkpt><trkpt lat="45.3771467" lon="8.405875"><ele>132.0</ele><time>2026-04-19T11:26:53.965Z</time></trkpt><trkpt lat="45.3772967" lon="8.40578"><ele>132.0</ele><time>2026-04-19T11:26:54.964Z</time></trkpt><trkpt lat="45.3774467" lon="8.4056833"><ele>132.33333333333334</ele><time>2026-04-19T11:26:55.964Z</time></trkpt><trkpt lat="45.37759" lon="8.4055833"><ele>132.66666666666669</ele><time>2026-04-19T11:26:56.964Z</time></trkpt><trkpt lat="45.3777283" lon="8.40549"><ele>133.0</ele><time>2026-04-19T11:26:57.964Z</time></trkpt><trkpt lat="45.377865" lon="8.4053967"><ele>133.0</ele><time>2026-04-19T11:26:58.965Z</time></trkpt><trkpt lat="45.3780067" lon="8.40531"><ele>133.0</ele><time>2026-04-19T11:26:59.964Z</time></trkpt><trkpt lat="45.3781467" lon="8.4052133"><ele>133.0</ele><time>2026-04-19T11:27:00.964Z</time></trkpt><trkpt lat="45.378285" lon="8.4051267"><ele>133.0</ele><time>2026-04-19T11:27:01.965Z</time></trkpt><trkpt lat="45.37842" lon="8.4050367"><ele>133.0</ele><time>2026-04-19T11:27:02.965Z</time></trkpt><trkpt lat="45.3785617" lon="8.404935"><ele>133.0</ele><time>2026-04-19T11:27:03.964Z</time></trkpt><trkpt lat="45.378705" lon="8.4048367"><ele>133.0</ele><time>2026-04-19T11:27:04.964Z</time></trkpt><trkpt lat="45.3788467" lon="8.4047467"><ele>133.0</ele><time>2026-04-19T11:27:05.965Z</time></trkpt><trkpt lat="45.3789817" lon="8.4046567"><ele>133.0</ele><time>2026-04-19T11:27:06.965Z</time></trkpt><trkpt lat="45.3791183" lon="8.404555"><ele>133.75</ele><time>2026-04-19T11:27:07.965Z</time></trkpt><trkpt lat="45.3792567" lon="8.4044717"><ele>134.5</ele><time>2026-04-19T11:27:08.965Z</time></trkpt><trkpt lat="45.37939" lon="8.4043883"><ele>135.25</ele><time>2026-04-19T11:27:09.965Z</time></trkpt><trkpt lat="45.3795233" lon="8.4043133"><ele>136.0</ele><time>2026-04-19T11:27:10.965Z</time></trkpt><trkpt lat="45.379635" lon="8.4042533"><ele>136.25</ele><time>2026-04-19T11:27:11.965Z</time></trkpt><trkpt lat="45.37975" lon="8.404215"><ele>136.5</ele><time>2026-04-19T11:27:12.964Z</time></trkpt><trkpt lat="45.3798683" lon="8.4042133"><ele>136.75</ele><time>2026-04-19T11:27:13.965Z</time></trkpt><trkpt lat="45.3799967" lon="8.404235"><ele>137.0</ele><time>2026-04-19T11:27:14.964Z</time></trkpt><trkpt lat="45.38014" lon="8.40426"><ele>137.0</ele><time>2026-04-19T11:27:15.964Z</time></trkpt><trkpt lat="45.3802867" lon="8.4042867"><ele>137.0</ele><time>2026-04-19T11:27:16.964Z</time></trkpt><trkpt lat="45.3804383" lon="8.4043083"><ele>137.0</ele><time>2026-04-19T11:27:17.964Z</time></trkpt><trkpt lat="45.380575" lon="8.4043283"><ele>137.0</ele><time>2026-04-19T11:27:18.964Z</time></trkpt><trkpt lat="45.3806983" lon="8.40435"><ele>136.79999999999998</ele><time>2026-04-19T11:27:19.964Z</time></trkpt><trkpt lat="45.38082" lon="8.4043683"><ele>136.6</ele><time>2026-04-19T11:27:20.965Z</time></trkpt><trkpt lat="45.380935" lon="8.40438"><ele>136.39999999999998</ele><time>2026-04-19T11:27:21.965Z</time></trkpt><trkpt lat="45.3810417" lon="8.4043917"><ele>136.2</ele><time>2026-04-19T11:27:22.965Z</time></trkpt><trkpt lat="45.381145" lon="8.4043917"><ele>136.0</ele><time>2026-04-19T11:27:23.965Z</time></trkpt><trkpt lat="45.3812333" lon="8.4044117"><ele>136.0</ele><time>2026-04-19T11:27:24.964Z</time></trkpt><trkpt lat="45.3813167" lon="8.4044467"><ele>136.0</ele><time>2026-04-19T11:27:25.965Z</time></trkpt><trkpt lat="45.38139" lon="8.4045233"><ele>136.0</ele><time>2026-04-19T11:27:26.964Z</time></trkpt><trkpt lat="45.3814417" lon="8.4046233"><ele>136.0</ele><time>2026-04-19T11:27:27.964Z</time></trkpt><trkpt lat="45.3814867" lon="8.4047383"><ele>136.0</ele><time>2026-04-19T11:27:28.965Z</time></trkpt><trkpt lat="45.3815417" lon="8.4048367"><ele>136.0</ele><time>2026-04-19T11:27:29.964Z</time></trkpt><trkpt lat="45.3816133" lon="8.4049017"><ele>136.0</ele><time>2026-04-19T11:27:30.964Z</time></trkpt><trkpt lat="45.3817" lon="8.4049217"><ele>136.0</ele><time>2026-04-19T11:27:31.965Z</time></trkpt><trkpt lat="45.3817983" lon="8.4049233"><ele>136.0</ele><time>2026-04-19T11:27:32.965Z</time></trkpt><trkpt lat="45.38191" lon="8.40489"><ele>136.0</ele><time>2026-04-19T11:27:33.965Z</time></trkpt><trkpt lat="45.382025" lon="8.404855"><ele>136.0</ele><time>2026-04-19T11:27:34.964Z</time></trkpt><trkpt lat="45.3821467" lon="8.4048267"><ele>136.5</ele><time>2026-04-19T11:27:35.965Z</time></trkpt><trkpt lat="45.38226" lon="8.40481"><ele>137.0</ele><time>2026-04-19T11:27:36.964Z</time></trkpt><trkpt lat="45.38238" lon="8.4047967"><ele>137.5</ele><time>2026-04-19T11:27:37.965Z</time></trkpt><trkpt lat="45.3824983" lon="8.404765"><ele>138.0</ele><time>2026-04-19T11:27:38.965Z</time></trkpt><trkpt lat="45.3826217" lon="8.40473"><ele>138.0</ele><time>2026-04-19T11:27:39.964Z</time></trkpt><trkpt lat="45.3827433" lon="8.4047067"><ele>138.0</ele><time>2026-04-19T11:27:40.965Z</time></trkpt><trkpt lat="45.3828567" lon="8.4046883"><ele>138.0</ele><time>2026-04-19T11:27:41.964Z</time></trkpt><trkpt lat="45.3829667" lon="8.40469"><ele>138.0</ele><time>2026-04-19T11:27:42.965Z</time></trkpt><trkpt lat="45.3830633" lon="8.4047317"><ele>138.0</ele><time>2026-04-19T11:27:43.965Z</time></trkpt><trkpt lat="45.383145" lon="8.4047983"><ele>138.0</ele><time>2026-04-19T11:27:44.965Z</time></trkpt><trkpt lat="45.3832233" lon="8.4049183"><ele>138.0</ele><time>2026-04-19T11:27:45.964Z</time></trkpt><trkpt lat="45.383305" lon="8.4050283"><ele>138.0</ele><time>2026-04-19T11:27:46.965Z</time></trkpt><trkpt lat="45.38339" lon="8.4051017"><ele>138.0</ele><time>2026-04-19T11:27:47.965Z</time></trkpt><trkpt lat="45.383485" lon="8.4051317"><ele>138.0</ele><time>2026-04-19T11:27:48.964Z</time></trkpt><trkpt lat="45.3835917" lon="8.4051283"><ele>138.0</ele><time>2026-04-19T11:27:49.964Z</time></trkpt><trkpt lat="45.3837033" lon="8.4051017"><ele>138.0</ele><time>2026-04-19T11:27:50.965Z</time></trkpt><trkpt lat="45.38383" lon="8.4050733"><ele>138.0</ele><time>2026-04-19T11:27:51.964Z</time></trkpt><trkpt lat="45.3839583" lon="8.4050483"><ele>138.0</ele><time>2026-04-19T11:27:52.964Z</time></trkpt><trkpt lat="45.3840917" lon="8.4050267"><ele>137.5</ele><time>2026-04-19T11:27:53.965Z</time></trkpt><trkpt lat="45.384225" lon="8.4049867"><ele>137.0</ele><time>2026-04-19T11:27:54.964Z</time></trkpt><trkpt lat="45.3843583" lon="8.4049567"><ele>136.5</ele><time>2026-04-19T11:27:55.964Z</time></trkpt><trkpt lat="45.384495" lon="8.40492"><ele>136.0</ele><time>2026-04-19T11:27:56.965Z</time></trkpt><trkpt lat="45.384635" lon="8.4048817"><ele>135.75</ele><time>2026-04-19T11:27:57.964Z</time></trkpt><trkpt lat="45.3847767" lon="8.4048383"><ele>135.5</ele><time>2026-04-19T11:27:58.965Z</time></trkpt><trkpt lat="45.384915" lon="8.4047833"><ele>135.25</ele><time>2026-04-19T11:27:59.965Z</time></trkpt><trkpt lat="45.3850617" lon="8.4047333"><ele>135.0</ele><time>2026-04-19T11:28:00.965Z</time></trkpt><trkpt lat="45.3852117" lon="8.4046783"><ele>135.5</ele><time>2026-04-19T11:28:01.965Z</time></trkpt><trkpt lat="45.38535" lon="8.4046283"><ele>136.0</ele><time>2026-04-19T11:28:02.965Z</time></trkpt><trkpt lat="45.3854933" lon="8.4045867"><ele>136.5</ele><time>2026-04-19T11:28:03.964Z</time></trkpt><trkpt lat="45.3856383" lon="8.4045467"><ele>137.0</ele><time>2026-04-19T11:28:04.965Z</time></trkpt><trkpt lat="45.3857867" lon="8.4045"><ele>137.0</ele><time>2026-04-19T11:28:05.965Z</time></trkpt><trkpt lat="45.385925" lon="8.4044217"><ele>137.0</ele><time>2026-04-19T11:28:06.965Z</time></trkpt><trkpt lat="45.38606" lon="8.4043533"><ele>137.0</ele><time>2026-04-19T11:28:07.965Z</time></trkpt><trkpt lat="45.3862033" lon="8.4043183"><ele>137.0</ele><time>2026-04-19T11:28:08.964Z</time></trkpt><trkpt lat="45.3863533" lon="8.4042883"><ele>137.25</ele><time>2026-04-19T11:28:09.965Z</time></trkpt><trkpt lat="45.3865017" lon="8.4042633"><ele>137.5</ele><time>2026-04-19T11:28:10.965Z</time></trkpt><trkpt lat="45.386645" lon="8.40425"><ele>137.75</ele><time>2026-04-19T11:28:11.965Z</time></trkpt><trkpt lat="45.38679" lon="8.4042533"><ele>138.0</ele><time>2026-04-19T11:28:12.965Z</time></trkpt><trkpt lat="45.3869483" lon="8.404265"><ele>138.0</ele><time>2026-04-19T11:28:13.964Z</time></trkpt><trkpt lat="45.3870967" lon="8.404255"><ele>138.0</ele><time>2026-04-19T11:28:14.964Z</time></trkpt><trkpt lat="45.387245" lon="8.40424"><ele>138.0</ele><time>2026-04-19T11:28:15.965Z</time></trkpt><trkpt lat="45.3874" lon="8.4042117"><ele>138.0</ele><time>2026-04-19T11:28:16.965Z</time></trkpt><trkpt lat="45.38755" lon="8.404185"><ele>138.0</ele><time>2026-04-19T11:28:17.963Z</time></trkpt><trkpt lat="45.3876983" lon="8.40416"><ele>138.0</ele><time>2026-04-19T11:28:18.963Z</time></trkpt><trkpt lat="45.3878517" lon="8.4041383"><ele>138.0</ele><time>2026-04-19T11:28:19.963Z</time></trkpt><trkpt lat="45.3879967" lon="8.40411"><ele>138.0</ele><time>2026-04-19T11:28:20.963Z</time></trkpt><trkpt lat="45.388145" lon="8.4040883"><ele>138.0</ele><time>2026-04-19T11:28:21.964Z</time></trkpt><trkpt lat="45.388295" lon="8.40406"><ele>138.0</ele><time>2026-04-19T11:28:22.963Z</time></trkpt><trkpt lat="45.388445" lon="8.4040317"><ele>138.0</ele><time>2026-04-19T11:28:23.964Z</time></trkpt><trkpt lat="45.3885917" lon="8.404005"><ele>138.0</ele><time>2026-04-19T11:28:24.963Z</time></trkpt><trkpt lat="45.3887383" lon="8.4039833"><ele>138.0</ele><time>2026-04-19T11:28:25.964Z</time></trkpt><trkpt lat="45.38889" lon="8.4039633"><ele>138.0</ele><time>2026-04-19T11:28:26.963Z</time></trkpt><trkpt lat="45.3890367" lon="8.4039367"><ele>137.33333333333334</ele><time>2026-04-19T11:28:27.964Z</time></trkpt><trkpt lat="45.38919" lon="8.403915"><ele>136.66666666666669</ele><time>2026-04-19T11:28:28.963Z</time></trkpt><trkpt lat="45.389335" lon="8.4038833"><ele>136.0</ele><time>2026-04-19T11:28:29.963Z</time></trkpt><trkpt lat="45.3894883" lon="8.4038583"><ele>136.75</ele><time>2026-04-19T11:28:30.963Z</time></trkpt><trkpt lat="45.3896417" lon="8.40383"><ele>137.5</ele><time>2026-04-19T11:28:31.963Z</time></trkpt><trkpt lat="45.3897883" lon="8.4037983"><ele>138.25</ele><time>2026-04-19T11:28:32.964Z</time></trkpt><trkpt lat="45.3899233" lon="8.4037717"><ele>139.0</ele><time>2026-04-19T11:28:33.963Z</time></trkpt><trkpt lat="45.39006" lon="8.4037383"><ele>139.0</ele><time>2026-04-19T11:28:34.963Z</time></trkpt><trkpt lat="45.3902" lon="8.4037083"><ele>139.0</ele><time>2026-04-19T11:28:35.963Z</time></trkpt><trkpt lat="45.3903433" lon="8.40368"><ele>139.0</ele><time>2026-04-19T11:28:36.963Z</time></trkpt><trkpt lat="45.3904867" lon="8.4036567"><ele>139.0</ele><time>2026-04-19T11:28:37.964Z</time></trkpt><trkpt lat="45.39063" lon="8.4036417"><ele>139.0</ele><time>2026-04-19T11:28:38.964Z</time></trkpt><trkpt lat="45.390775" lon="8.4036317"><ele>139.0</ele><time>2026-04-19T11:28:39.963Z</time></trkpt><trkpt lat="45.3909267" lon="8.4036267"><ele>139.0</ele><time>2026-04-19T11:28:40.963Z</time></trkpt><trkpt lat="45.3910817" lon="8.4036233"><ele>139.0</ele><time>2026-04-19T11:28:41.963Z</time></trkpt><trkpt lat="45.391235" lon="8.403625"><ele>139.0</ele><time>2026-04-19T11:28:42.964Z</time></trkpt><trkpt lat="45.3913817" lon="8.4036283"><ele>139.0</ele><time>2026-04-19T11:28:43.964Z</time></trkpt><trkpt lat="45.3915317" lon="8.4036367"><ele>138.66666666666669</ele><time>2026-04-19T11:28:44.963Z</time></trkpt><trkpt lat="45.39169" lon="8.403635"><ele>138.33333333333334</ele><time>2026-04-19T11:28:45.964Z</time></trkpt><trkpt lat="45.3918433" lon="8.40363"><ele>138.0</ele><time>2026-04-19T11:28:46.963Z</time></trkpt><trkpt lat="45.392" lon="8.4036233"><ele>138.0</ele><time>2026-04-19T11:28:47.964Z</time></trkpt><trkpt lat="45.39216" lon="8.4036233"><ele>138.0</ele><time>2026-04-19T11:28:48.964Z</time></trkpt><trkpt lat="45.3923183" lon="8.40362"><ele>138.0</ele><time>2026-04-19T11:28:49.964Z</time></trkpt><trkpt lat="45.3924733" lon="8.4036283"><ele>138.0</ele><time>2026-04-19T11:28:50.963Z</time></trkpt><trkpt lat="45.3926317" lon="8.4036367"><ele>138.0</ele><time>2026-04-19T11:28:51.963Z</time></trkpt><trkpt lat="45.3927883" lon="8.4036417"><ele>138.0</ele><time>2026-04-19T11:28:52.964Z</time></trkpt><trkpt lat="45.3929483" lon="8.4036383"><ele>138.33333333333334</ele><time>2026-04-19T11:28:53.963Z</time></trkpt><trkpt lat="45.3931083" lon="8.403635"><ele>138.66666666666669</ele><time>2026-04-19T11:28:54.964Z</time></trkpt><trkpt lat="45.393265" lon="8.4036267"><ele>139.0</ele><time>2026-04-19T11:28:55.964Z</time></trkpt><trkpt lat="45.393425" lon="8.4036283"><ele>139.0</ele><time>2026-04-19T11:28:56.964Z</time></trkpt><trkpt lat="45.3935767" lon="8.4036217"><ele>139.0</ele><time>2026-04-19T11:28:57.964Z</time></trkpt><trkpt lat="45.3937267" lon="8.403615"><ele>139.0</ele><time>2026-04-19T11:28:58.964Z</time></trkpt><trkpt lat="45.3938833" lon="8.40361"><ele>139.33333333333334</ele><time>2026-04-19T11:28:59.963Z</time></trkpt><trkpt lat="45.3940417" lon="8.4036067"><ele>139.66666666666666</ele><time>2026-04-19T11:29:00.964Z</time></trkpt><trkpt lat="45.39419" lon="8.4036083"><ele>140.0</ele><time>2026-04-19T11:29:01.963Z</time></trkpt><trkpt lat="45.39434" lon="8.4036133"><ele>140.0</ele><time>2026-04-19T11:29:02.964Z</time></trkpt><trkpt lat="45.3944883" lon="8.4036283"><ele>140.0</ele><time>2026-04-19T11:29:03.963Z</time></trkpt><trkpt lat="45.39464" lon="8.403645"><ele>140.0</ele><time>2026-04-19T11:29:04.963Z</time></trkpt><trkpt lat="45.39479" lon="8.403635"><ele>140.5</ele><time>2026-04-19T11:29:05.964Z</time></trkpt><trkpt lat="45.394935" lon="8.403635"><ele>141.0</ele><time>2026-04-19T11:29:06.963Z</time></trkpt><trkpt lat="45.3950867" lon="8.4036283"><ele>141.5</ele><time>2026-04-19T11:29:07.963Z</time></trkpt><trkpt lat="45.395235" lon="8.4036233"><ele>142.0</ele><time>2026-04-19T11:29:08.964Z</time></trkpt><trkpt lat="45.39539" lon="8.4036233"><ele>141.0</ele><time>2026-04-19T11:29:09.964Z</time></trkpt><trkpt lat="45.39554" lon="8.403625"><ele>140.0</ele><time>2026-04-19T11:29:10.963Z</time></trkpt><trkpt lat="45.39569" lon="8.4036333"><ele>139.0</ele><time>2026-04-19T11:29:11.963Z</time></trkpt><trkpt lat="45.3958483" lon="8.4036383"><ele>139.0</ele><time>2026-04-19T11:29:12.963Z</time></trkpt><trkpt lat="45.3959883" lon="8.403645"><ele>139.0</ele><time>2026-04-19T11:29:13.964Z</time></trkpt><trkpt lat="45.39614" lon="8.4036383"><ele>139.0</ele><time>2026-04-19T11:29:14.964Z</time></trkpt><trkpt lat="45.396295" lon="8.4036483"><ele>139.0</ele><time>2026-04-19T11:29:15.964Z</time></trkpt><trkpt lat="45.3964417" lon="8.4036417"><ele>139.66666666666669</ele><time>2026-04-19T11:29:16.964Z</time></trkpt><trkpt lat="45.3965917" lon="8.403635"><ele>140.33333333333334</ele><time>2026-04-19T11:29:17.963Z</time></trkpt><trkpt lat="45.39675" lon="8.4036317"><ele>141.0</ele><time>2026-04-19T11:29:18.963Z</time></trkpt><trkpt lat="45.3969067" lon="8.4036217"><ele>141.0</ele><time>2026-04-19T11:29:19.963Z</time></trkpt><trkpt lat="45.3970533" lon="8.4036217"><ele>141.0</ele><time>2026-04-19T11:29:20.964Z</time></trkpt><trkpt lat="45.3971983" lon="8.4036217"><ele>141.0</ele><time>2026-04-19T11:29:21.964Z</time></trkpt><trkpt lat="45.3973533" lon="8.403625"><ele>141.0</ele><time>2026-04-19T11:29:22.963Z</time></trkpt><trkpt lat="45.39749" lon="8.4036183"><ele>141.0</ele><time>2026-04-19T11:29:23.964Z</time></trkpt><trkpt lat="45.3976333" lon="8.4036183"><ele>141.0</ele><time>2026-04-19T11:29:24.964Z</time></trkpt><trkpt lat="45.3977683" lon="8.4036167"><ele>141.0</ele><time>2026-04-19T11:29:25.963Z</time></trkpt><trkpt lat="45.3978983" lon="8.4036167"><ele>141.0</ele><time>2026-04-19T11:29:26.964Z</time></trkpt><trkpt lat="45.39803" lon="8.4036217"><ele>141.0</ele><time>2026-04-19T11:29:27.963Z</time></trkpt><trkpt lat="45.398165" lon="8.4036233"><ele>141.0</ele><time>2026-04-19T11:29:28.964Z</time></trkpt><trkpt lat="45.398305" lon="8.4036283"><ele>141.0</ele><time>2026-04-19T11:29:29.963Z</time></trkpt><trkpt lat="45.3984483" lon="8.4036267"><ele>141.0</ele><time>2026-04-19T11:29:30.964Z</time></trkpt><trkpt lat="45.3985967" lon="8.403635"><ele>141.0</ele><time>2026-04-19T11:29:31.964Z</time></trkpt><trkpt lat="45.398745" lon="8.403635"><ele>141.0</ele><time>2026-04-19T11:29:32.964Z</time></trkpt><trkpt lat="45.3988917" lon="8.4036367"><ele>141.0</ele><time>2026-04-19T11:29:33.964Z</time></trkpt><trkpt lat="45.3990383" lon="8.4036383"><ele>141.0</ele><time>2026-04-19T11:29:34.963Z</time></trkpt><trkpt lat="45.39918" lon="8.4036333"><ele>141.0</ele><time>2026-04-19T11:29:35.964Z</time></trkpt><trkpt lat="45.3993283" lon="8.4036283"><ele>141.0</ele><time>2026-04-19T11:29:36.964Z</time></trkpt><trkpt lat="45.3994767" lon="8.403635"><ele>141.0</ele><time>2026-04-19T11:29:37.964Z</time></trkpt><trkpt lat="45.3996333" lon="8.40363"><ele>140.5</ele><time>2026-04-19T11:29:38.963Z</time></trkpt><trkpt lat="45.399775" lon="8.4036317"><ele>140.0</ele><time>2026-04-19T11:29:39.964Z</time></trkpt><trkpt lat="45.3999033" lon="8.403635"><ele>139.5</ele><time>2026-04-19T11:29:40.964Z</time></trkpt><trkpt lat="45.4000283" lon="8.4036333"><ele>139.0</ele><time>2026-04-19T11:29:41.964Z</time></trkpt><trkpt lat="45.400155" lon="8.40362"><ele>139.0</ele><time>2026-04-19T11:29:42.964Z</time></trkpt><trkpt lat="45.400285" lon="8.40362"><ele>139.0</ele><time>2026-04-19T11:29:43.964Z</time></trkpt><trkpt lat="45.4004083" lon="8.40362"><ele>139.0</ele><time>2026-04-19T11:29:44.964Z</time></trkpt><trkpt lat="45.4005183" lon="8.4036267"><ele>139.0</ele><time>2026-04-19T11:29:45.963Z</time></trkpt><trkpt lat="45.4006067" lon="8.40363"><ele>139.2</ele><time>2026-04-19T11:29:46.964Z</time></trkpt><trkpt lat="45.4006883" lon="8.40363"><ele>139.4</ele><time>2026-04-19T11:29:47.964Z</time></trkpt><trkpt lat="45.4007533" lon="8.4036267"><ele>139.6</ele><time>2026-04-19T11:29:48.963Z</time></trkpt><trkpt lat="45.4008483" lon="8.4036233"><ele>139.8</ele><time>2026-04-19T11:29:50.963Z</time></trkpt><trkpt lat="45.400945" lon="8.4035967"><ele>140.0</ele><time>2026-04-19T11:29:52.963Z</time></trkpt><trkpt lat="45.40108" lon="8.4035317"><ele>140.0</ele><time>2026-04-19T11:29:54.963Z</time></trkpt><trkpt lat="45.401165" lon="8.4034717"><ele>140.0</ele><time>2026-04-19T11:29:55.964Z</time></trkpt><trkpt lat="45.40124" lon="8.4034167"><ele>140.0</ele><time>2026-04-19T11:29:56.964Z</time></trkpt><trkpt lat="45.40131" lon="8.40335"><ele>140.0</ele><time>2026-04-19T11:29:57.964Z</time></trkpt><trkpt lat="45.4013717" lon="8.4032783"><ele>140.0</ele><time>2026-04-19T11:29:58.963Z</time></trkpt><trkpt lat="45.4014367" lon="8.4032"><ele>140.0</ele><time>2026-04-19T11:29:59.964Z</time></trkpt><trkpt lat="45.4014817" lon="8.4031133"><ele>141.0</ele><time>2026-04-19T11:30:00.963Z</time></trkpt><trkpt lat="45.4015217" lon="8.4030033"><ele>142.0</ele><time>2026-04-19T11:30:01.963Z</time></trkpt><trkpt lat="45.4015433" lon="8.4028783"><ele>143.0</ele><time>2026-04-19T11:30:02.964Z</time></trkpt><trkpt lat="45.4015617" lon="8.4027433"><ele>144.0</ele><time>2026-04-19T11:30:03.964Z</time></trkpt><trkpt lat="45.401575" lon="8.4026"><ele>145.0</ele><time>2026-04-19T11:30:04.964Z</time></trkpt><trkpt lat="45.4015883" lon="8.40246"><ele>145.0</ele><time>2026-04-19T11:30:05.964Z</time></trkpt><trkpt lat="45.4015967" lon="8.402315"><ele>145.0</ele><time>2026-04-19T11:30:06.964Z</time></trkpt><trkpt lat="45.401605" lon="8.4021683"><ele>145.0</ele><time>2026-04-19T11:30:07.964Z</time></trkpt><trkpt lat="45.4016133" lon="8.4020217"><ele>145.0</ele><time>2026-04-19T11:30:08.963Z</time></trkpt><trkpt lat="45.40162" lon="8.4018883"><ele>145.0</ele><time>2026-04-19T11:30:09.964Z</time></trkpt><trkpt lat="45.401635" lon="8.40176"><ele>145.0</ele><time>2026-04-19T11:30:10.963Z</time></trkpt><trkpt lat="45.40165" lon="8.4016283"><ele>145.0</ele><time>2026-04-19T11:30:11.964Z</time></trkpt><trkpt lat="45.401665" lon="8.4014967"><ele>145.0</ele><time>2026-04-19T11:30:12.964Z</time></trkpt><trkpt lat="45.4016983" lon="8.4012183"><ele>145.0</ele><time>2026-04-19T11:30:14.964Z</time></trkpt><trkpt lat="45.4017083" lon="8.4010767"><ele>145.0</ele><time>2026-04-19T11:30:15.964Z</time></trkpt><trkpt lat="45.4017233" lon="8.40094"><ele>145.0</ele><time>2026-04-19T11:30:16.963Z</time></trkpt><trkpt lat="45.4017317" lon="8.4008183"><ele>145.0</ele><time>2026-04-19T11:30:17.963Z</time></trkpt><trkpt lat="45.4017433" lon="8.4006833"><ele>145.0</ele><time>2026-04-19T11:30:18.964Z</time></trkpt><trkpt lat="45.4017533" lon="8.400545"><ele>145.0</ele><time>2026-04-19T11:30:19.964Z</time></trkpt><trkpt lat="45.4017617" lon="8.4004"><ele>145.0</ele><time>2026-04-19T11:30:20.963Z</time></trkpt><trkpt lat="45.4017617" lon="8.400265"><ele>145.0</ele><time>2026-04-19T11:30:21.964Z</time></trkpt><trkpt lat="45.4017633" lon="8.4001383"><ele>145.0</ele><time>2026-04-19T11:30:22.963Z</time></trkpt><trkpt lat="45.4017533" lon="8.400025"><ele>145.0</ele><time>2026-04-19T11:30:23.963Z</time></trkpt><trkpt lat="45.4017233" lon="8.3998517"><ele>145.0</ele><time>2026-04-19T11:30:25.964Z</time></trkpt><trkpt lat="45.4016567" lon="8.3997233"><ele>144.8</ele><time>2026-04-19T11:30:27.963Z</time></trkpt><trkpt lat="45.4015533" lon="8.3996333"><ele>144.6</ele><time>2026-04-19T11:30:29.964Z</time></trkpt><trkpt lat="45.4014967" lon="8.39958"><ele>144.4</ele><time>2026-04-19T11:30:30.964Z</time></trkpt><trkpt lat="45.4014083" lon="8.39947"><ele>144.2</ele><time>2026-04-19T11:30:32.964Z</time></trkpt><trkpt lat="45.4013233" lon="8.39935"><ele>144.0</ele><time>2026-04-19T11:30:35.963Z</time></trkpt><trkpt lat="45.4012667" lon="8.3993033"><ele>144.0</ele><time>2026-04-19T11:30:37.964Z</time></trkpt><trkpt lat="45.4011933" lon="8.3992417"><ele>144.0</ele><time>2026-04-19T11:30:40.964Z</time></trkpt><trkpt lat="45.4011433" lon="8.399135"><ele>144.0</ele><time>2026-04-19T11:30:43.964Z</time></trkpt><trkpt lat="45.4011083" lon="8.3990533"><ele>144.0</ele><time>2026-04-19T11:30:45.963Z</time></trkpt><trkpt lat="45.4010583" lon="8.3989767"><ele>144.0</ele><time>2026-04-19T11:30:47.963Z</time></trkpt><trkpt lat="45.4009917" lon="8.39893"><ele>144.0</ele><time>2026-04-19T11:30:49.964Z</time></trkpt><trkpt lat="45.4009033" lon="8.3989133"><ele>144.0</ele><time>2026-04-19T11:30:51.963Z</time></trkpt><trkpt lat="45.4008083" lon="8.3989267"><ele>144.0</ele><time>2026-04-19T11:30:53.964Z</time></trkpt><trkpt lat="45.4007133" lon="8.3989317"><ele>144.0</ele><time>2026-04-19T11:30:55.964Z</time></trkpt><trkpt lat="45.400625" lon="8.39895"><ele>144.0</ele><time>2026-04-19T11:30:57.964Z</time></trkpt><trkpt lat="45.4005317" lon="8.3989667"><ele>144.0</ele><time>2026-04-19T11:31:04.964Z</time></trkpt><trkpt lat="45.400445" lon="8.3989667"><ele>144.2</ele><time>2026-04-19T11:31:06.964Z</time></trkpt><trkpt lat="45.4003667" lon="8.3989683"><ele>144.4</ele><time>2026-04-19T11:31:08.964Z</time></trkpt><trkpt lat="45.4002767" lon="8.3989483"><ele>144.6</ele><time>2026-04-19T11:31:10.963Z</time></trkpt><trkpt lat="45.4001817" lon="8.3989483"><ele>144.8</ele><time>2026-04-19T11:31:12.964Z</time></trkpt><trkpt lat="45.4000667" lon="8.39894"><ele>145.0</ele><time>2026-04-19T11:31:14.964Z</time></trkpt><trkpt lat="45.3999567" lon="8.3989583"><ele>145.0</ele><time>2026-04-19T11:31:16.963Z</time></trkpt><trkpt lat="45.39985" lon="8.3989733"><ele>145.0</ele><time>2026-04-19T11:31:18.963Z</time></trkpt><trkpt lat="45.3997517" lon="8.3989867"><ele>145.0</ele><time>2026-04-19T11:31:20.963Z</time></trkpt><trkpt lat="45.39968" lon="8.3989983"><ele>145.0</ele><time>2026-04-19T11:31:23.964Z</time></trkpt><trkpt lat="45.399615" lon="8.3990233"><ele>145.0</ele><time>2026-04-19T11:31:37.964Z</time></trkpt><trkpt lat="45.399545" lon="8.39904"><ele>145.0</ele><time>2026-04-19T11:31:39.964Z</time></trkpt><trkpt lat="45.3994533" lon="8.39904"><ele>145.0</ele><time>2026-04-19T11:31:42.964Z</time></trkpt><trkpt lat="45.3993833" lon="8.3990417"><ele>145.0</ele><time>2026-04-19T11:31:44.964Z</time></trkpt><trkpt lat="45.3993417" lon="8.399125"><ele>145.0</ele><time>2026-04-19T11:31:49.964Z</time></trkpt><trkpt lat="45.3994067" lon="8.39913"><ele>145.0</ele><time>2026-04-19T11:32:09.963Z</time></trkpt><trkpt lat="45.399505" lon="8.3991"><ele>145.0</ele><time>2026-04-19T11:32:12.962Z</time></trkpt><trkpt lat="45.3996017" lon="8.3990617"><ele>145.0</ele><time>2026-04-19T11:32:14.962Z</time></trkpt><trkpt lat="45.399705" lon="8.3990333"><ele>145.0</ele><time>2026-04-19T11:32:16.962Z</time></trkpt><trkpt lat="45.3998267" lon="8.39901"><ele>145.0</ele><time>2026-04-19T11:32:18.962Z</time></trkpt><trkpt lat="45.3999383" lon="8.39899"><ele>145.0</ele><time>2026-04-19T11:32:20.962Z</time></trkpt><trkpt lat="45.4000467" lon="8.398965"><ele>145.0</ele><time>2026-04-19T11:32:22.962Z</time></trkpt><trkpt lat="45.40017" lon="8.3989567"><ele>145.0</ele><time>2026-04-19T11:32:24.962Z</time></trkpt><trkpt lat="45.400235" lon="8.398955"><ele>145.0</ele><time>2026-04-19T11:32:25.963Z</time></trkpt><trkpt lat="45.40034" lon="8.3989633"><ele>145.0</ele><time>2026-04-19T11:32:27.962Z</time></trkpt><trkpt lat="45.4004467" lon="8.3989667"><ele>145.0</ele><time>2026-04-19T11:32:29.963Z</time></trkpt><trkpt lat="45.4005617" lon="8.3989517"><ele>145.0</ele><time>2026-04-19T11:32:31.963Z</time></trkpt><trkpt lat="45.4006717" lon="8.398935"><ele>144.8</ele><time>2026-04-19T11:32:33.962Z</time></trkpt><trkpt lat="45.400785" lon="8.3989367"><ele>144.6</ele><time>2026-04-19T11:32:35.963Z</time></trkpt><trkpt lat="45.4009033" lon="8.3989417"><ele>144.4</ele><time>2026-04-19T11:32:37.963Z</time></trkpt><trkpt lat="45.4010017" lon="8.398955"><ele>144.2</ele><time>2026-04-19T11:32:39.962Z</time></trkpt><trkpt lat="45.401075" lon="8.3990283"><ele>144.0</ele><time>2026-04-19T11:32:41.963Z</time></trkpt><trkpt lat="45.401145" lon="8.3991567"><ele>144.0</ele><time>2026-04-19T11:32:43.963Z</time></trkpt><trkpt lat="45.4011833" lon="8.39923"><ele>144.0</ele><time>2026-04-19T11:32:44.962Z</time></trkpt><trkpt lat="45.4012317" lon="8.399295"><ele>144.0</ele><time>2026-04-19T11:32:45.963Z</time></trkpt><trkpt lat="45.4012917" lon="8.399345"><ele>144.0</ele><time>2026-04-19T11:32:46.963Z</time></trkpt><trkpt lat="45.401365" lon="8.3994167"><ele>144.0</ele><time>2026-04-19T11:32:47.962Z</time></trkpt><trkpt lat="45.40144" lon="8.3995033"><ele>144.0</ele><time>2026-04-19T11:32:48.963Z</time></trkpt><trkpt lat="45.4015067" lon="8.3995917"><ele>144.2</ele><time>2026-04-19T11:32:49.963Z</time></trkpt><trkpt lat="45.40158" lon="8.3996683"><ele>144.4</ele><time>2026-04-19T11:32:50.963Z</time></trkpt><trkpt lat="45.4016517" lon="8.399745"><ele>144.6</ele><time>2026-04-19T11:32:51.963Z</time></trkpt><trkpt lat="45.40171" lon="8.3998067"><ele>144.8</ele><time>2026-04-19T11:32:52.963Z</time></trkpt><trkpt lat="45.4017617" lon="8.3999717"><ele>145.0</ele><time>2026-04-19T11:32:54.962Z</time></trkpt><trkpt lat="45.4017683" lon="8.4001033"><ele>145.0</ele><time>2026-04-19T11:32:55.963Z</time></trkpt><trkpt lat="45.401765" lon="8.4002483"><ele>145.0</ele><time>2026-04-19T11:32:56.963Z</time></trkpt><trkpt lat="45.40175" lon="8.40042"><ele>145.0</ele><time>2026-04-19T11:32:57.962Z</time></trkpt><trkpt lat="45.4017333" lon="8.4005967"><ele>145.0</ele><time>2026-04-19T11:32:58.962Z</time></trkpt><trkpt lat="45.401725" lon="8.4007633"><ele>145.0</ele><time>2026-04-19T11:32:59.962Z</time></trkpt><trkpt lat="45.4017183" lon="8.400915"><ele>145.0</ele><time>2026-04-19T11:33:00.962Z</time></trkpt><trkpt lat="45.401705" lon="8.401065"><ele>145.0</ele><time>2026-04-19T11:33:01.963Z</time></trkpt><trkpt lat="45.401685" lon="8.4012183"><ele>145.0</ele><time>2026-04-19T11:33:02.962Z</time></trkpt><trkpt lat="45.40167" lon="8.4013767"><ele>145.0</ele><time>2026-04-19T11:33:03.963Z</time></trkpt><trkpt lat="45.401655" lon="8.4015417"><ele>145.0</ele><time>2026-04-19T11:33:04.962Z</time></trkpt><trkpt lat="45.4016367" lon="8.40172"><ele>145.0</ele><time>2026-04-19T11:33:05.962Z</time></trkpt><trkpt lat="45.4016183" lon="8.401885"><ele>145.0</ele><time>2026-04-19T11:33:06.963Z</time></trkpt><trkpt lat="45.401595" lon="8.4020467"><ele>145.0</ele><time>2026-04-19T11:33:07.962Z</time></trkpt><trkpt lat="45.4015817" lon="8.4022167"><ele>145.0</ele><time>2026-04-19T11:33:08.963Z</time></trkpt><trkpt lat="45.40157" lon="8.4023783"><ele>145.0</ele><time>2026-04-19T11:33:09.962Z</time></trkpt><trkpt lat="45.4015583" lon="8.40253"><ele>145.0</ele><time>2026-04-19T11:33:10.962Z</time></trkpt><trkpt lat="45.401545" lon="8.4026767"><ele>145.0</ele><time>2026-04-19T11:33:11.962Z</time></trkpt><trkpt lat="45.401535" lon="8.402805"><ele>145.0</ele><time>2026-04-19T11:33:12.962Z</time></trkpt><trkpt lat="45.4015133" lon="8.4029383"><ele>145.2</ele><time>2026-04-19T11:33:13.962Z</time></trkpt><trkpt lat="45.4014833" lon="8.4030567"><ele>145.4</ele><time>2026-04-19T11:33:14.962Z</time></trkpt><trkpt lat="45.401435" lon="8.4031617"><ele>145.6</ele><time>2026-04-19T11:33:15.963Z</time></trkpt><trkpt lat="45.4013517" lon="8.4032633"><ele>145.8</ele><time>2026-04-19T11:33:16.963Z</time></trkpt><trkpt lat="45.4012617" lon="8.4033617"><ele>146.0</ele><time>2026-04-19T11:33:17.963Z</time></trkpt><trkpt lat="45.40118" lon="8.40344"><ele>145.0</ele><time>2026-04-19T11:33:18.962Z</time></trkpt><trkpt lat="45.40112" lon="8.4034767"><ele>144.0</ele><time>2026-04-19T11:33:19.963Z</time></trkpt><trkpt lat="45.4010567" lon="8.403505"><ele>143.0</ele><time>2026-04-19T11:33:20.963Z</time></trkpt><trkpt lat="45.4009817" lon="8.403545"><ele>142.0</ele><time>2026-04-19T11:33:22.963Z</time></trkpt><trkpt lat="45.4010417" lon="8.4036517"><ele>141.0</ele><time>2026-04-19T11:33:27.963Z</time></trkpt><trkpt lat="45.4011517" lon="8.4036683"><ele>140.0</ele><time>2026-04-19T11:33:29.962Z</time></trkpt><trkpt lat="45.4012217" lon="8.4036733"><ele>140.0</ele><time>2026-04-19T11:33:30.962Z</time></trkpt><trkpt lat="45.4013017" lon="8.4036783"><ele>140.0</ele><time>2026-04-19T11:33:31.962Z</time></trkpt><trkpt lat="45.401385" lon="8.403695"><ele>140.0</ele><time>2026-04-19T11:33:32.962Z</time></trkpt><trkpt lat="45.4014783" lon="8.40371"><ele>140.0</ele><time>2026-04-19T11:33:33.963Z</time></trkpt><trkpt lat="45.401575" lon="8.403725"><ele>140.0</ele><time>2026-04-19T11:33:34.963Z</time></trkpt><trkpt lat="45.4016867" lon="8.4037467"><ele>140.5</ele><time>2026-04-19T11:33:35.962Z</time></trkpt><trkpt lat="45.40182" lon="8.4037717"><ele>141.0</ele><time>2026-04-19T11:33:36.962Z</time></trkpt><trkpt lat="45.40196" lon="8.4038"><ele>141.5</ele><time>2026-04-19T11:33:37.963Z</time></trkpt><trkpt lat="45.4021" lon="8.4038183"><ele>142.0</ele><time>2026-04-19T11:33:38.963Z</time></trkpt><trkpt lat="45.4022383" lon="8.4038433"><ele>142.0</ele><time>2026-04-19T11:33:39.963Z</time></trkpt><trkpt lat="45.40238" lon="8.4038733"><ele>142.0</ele><time>2026-04-19T11:33:40.963Z</time></trkpt><trkpt lat="45.4025217" lon="8.4039"><ele>142.0</ele><time>2026-04-19T11:33:41.963Z</time></trkpt><trkpt lat="45.4026667" lon="8.4039267"><ele>142.0</ele><time>2026-04-19T11:33:42.963Z</time></trkpt><trkpt lat="45.4028133" lon="8.403945"><ele>142.0</ele><time>2026-04-19T11:33:43.963Z</time></trkpt><trkpt lat="45.402965" lon="8.4039667"><ele>142.0</ele><time>2026-04-19T11:33:44.962Z</time></trkpt><trkpt lat="45.4031167" lon="8.403995"><ele>142.0</ele><time>2026-04-19T11:33:45.963Z</time></trkpt><trkpt lat="45.4032733" lon="8.4040133"><ele>141.33333333333334</ele><time>2026-04-19T11:33:46.962Z</time></trkpt><trkpt lat="45.4034333" lon="8.4040417"><ele>140.66666666666666</ele><time>2026-04-19T11:33:47.963Z</time></trkpt><trkpt lat="45.40358" lon="8.404075"><ele>140.0</ele><time>2026-04-19T11:33:48.962Z</time></trkpt><trkpt lat="45.40374" lon="8.4041017"><ele>140.33333333333331</ele><time>2026-04-19T11:33:49.963Z</time></trkpt><trkpt lat="45.4038983" lon="8.4041383"><ele>140.66666666666666</ele><time>2026-04-19T11:33:50.962Z</time></trkpt><trkpt lat="45.40406" lon="8.4041683"><ele>141.0</ele><time>2026-04-19T11:33:51.963Z</time></trkpt><trkpt lat="45.4042217" lon="8.4041933"><ele>141.0</ele><time>2026-04-19T11:33:52.963Z</time></trkpt><trkpt lat="45.40439" lon="8.4042217"><ele>141.0</ele><time>2026-04-19T11:33:53.963Z</time></trkpt><trkpt lat="45.4045533" lon="8.4042517"><ele>141.0</ele><time>2026-04-19T11:33:54.963Z</time></trkpt><trkpt lat="45.4047183" lon="8.4042817"><ele>141.0</ele><time>2026-04-19T11:33:55.963Z</time></trkpt><trkpt lat="45.404885" lon="8.4043083"><ele>141.0</ele><time>2026-04-19T11:33:56.963Z</time></trkpt><trkpt lat="45.4050567" lon="8.4043283"><ele>141.0</ele><time>2026-04-19T11:33:57.962Z</time></trkpt><trkpt lat="45.4052333" lon="8.4043517"><ele>141.0</ele><time>2026-04-19T11:33:58.963Z</time></trkpt><trkpt lat="45.405405" lon="8.404385"><ele>141.0</ele><time>2026-04-19T11:33:59.963Z</time></trkpt><trkpt lat="45.4055833" lon="8.4044167"><ele>141.0</ele><time>2026-04-19T11:34:00.962Z</time></trkpt><trkpt lat="45.40577" lon="8.4044417"><ele>141.0</ele><time>2026-04-19T11:34:01.962Z</time></trkpt><trkpt lat="45.4059717" lon="8.4044833"><ele>141.0</ele><time>2026-04-19T11:34:02.962Z</time></trkpt><trkpt lat="45.4061633" lon="8.4045233"><ele>141.0</ele><time>2026-04-19T11:34:03.963Z</time></trkpt><trkpt lat="45.4063533" lon="8.4045733"><ele>141.66666666666666</ele><time>2026-04-19T11:34:04.963Z</time></trkpt><trkpt lat="45.4065417" lon="8.4046083"><ele>142.33333333333331</ele><time>2026-04-19T11:34:05.962Z</time></trkpt><trkpt lat="45.4067233" lon="8.4046467"><ele>143.0</ele><time>2026-04-19T11:34:06.962Z</time></trkpt><trkpt lat="45.4069167" lon="8.4046733"><ele>143.0</ele><time>2026-04-19T11:34:07.963Z</time></trkpt><trkpt lat="45.4071017" lon="8.4047033"><ele>143.0</ele><time>2026-04-19T11:34:08.962Z</time></trkpt><trkpt lat="45.4072933" lon="8.4047417"><ele>143.0</ele><time>2026-04-19T11:34:09.963Z</time></trkpt><trkpt lat="45.4074733" lon="8.4047667"><ele>143.0</ele><time>2026-04-19T11:34:10.962Z</time></trkpt><trkpt lat="45.4076433" lon="8.4047967"><ele>143.0</ele><time>2026-04-19T11:34:11.963Z</time></trkpt><trkpt lat="45.407805" lon="8.40483"><ele>143.0</ele><time>2026-04-19T11:34:12.963Z</time></trkpt><trkpt lat="45.4079617" lon="8.4048617"><ele>142.75</ele><time>2026-04-19T11:34:13.963Z</time></trkpt><trkpt lat="45.4081183" lon="8.4048833"><ele>142.5</ele><time>2026-04-19T11:34:14.963Z</time></trkpt><trkpt lat="45.4082583" lon="8.4048983"><ele>142.25</ele><time>2026-04-19T11:34:15.963Z</time></trkpt><trkpt lat="45.4083967" lon="8.4049467"><ele>142.0</ele><time>2026-04-19T11:34:16.963Z</time></trkpt><trkpt lat="45.4085367" lon="8.4049967"><ele>142.0</ele><time>2026-04-19T11:34:17.962Z</time></trkpt><trkpt lat="45.4086767" lon="8.4050633"><ele>142.0</ele><time>2026-04-19T11:34:18.962Z</time></trkpt><trkpt lat="45.4088267" lon="8.40514"><ele>142.0</ele><time>2026-04-19T11:34:19.963Z</time></trkpt><trkpt lat="45.40897" lon="8.4052317"><ele>142.0</ele><time>2026-04-19T11:34:20.963Z</time></trkpt><trkpt lat="45.409105" lon="8.4053267"><ele>142.0</ele><time>2026-04-19T11:34:21.963Z</time></trkpt><trkpt lat="45.4092283" lon="8.4054133"><ele>142.0</ele><time>2026-04-19T11:34:22.963Z</time></trkpt><trkpt lat="45.4093517" lon="8.4054967"><ele>142.0</ele><time>2026-04-19T11:34:23.963Z</time></trkpt><trkpt lat="45.409465" lon="8.405575"><ele>142.0</ele><time>2026-04-19T11:34:24.963Z</time></trkpt><trkpt lat="45.4095833" lon="8.4056517"><ele>142.0</ele><time>2026-04-19T11:34:25.963Z</time></trkpt><trkpt lat="45.4096983" lon="8.4057267"><ele>142.0</ele><time>2026-04-19T11:34:26.962Z</time></trkpt><trkpt lat="45.4098083" lon="8.405805"><ele>142.0</ele><time>2026-04-19T11:34:27.963Z</time></trkpt><trkpt lat="45.4099267" lon="8.4058767"><ele>142.5</ele><time>2026-04-19T11:34:28.962Z</time></trkpt><trkpt lat="45.410045" lon="8.4059567"><ele>143.0</ele><time>2026-04-19T11:34:29.963Z</time></trkpt><trkpt lat="45.410165" lon="8.4060333"><ele>143.5</ele><time>2026-04-19T11:34:30.962Z</time></trkpt><trkpt lat="45.4102867" lon="8.4061083"><ele>144.0</ele><time>2026-04-19T11:34:31.962Z</time></trkpt><trkpt lat="45.4104067" lon="8.406175"><ele>144.0</ele><time>2026-04-19T11:34:32.962Z</time></trkpt><trkpt lat="45.410525" lon="8.4062183"><ele>144.0</ele><time>2026-04-19T11:34:33.963Z</time></trkpt><trkpt lat="45.4106517" lon="8.406255"><ele>144.0</ele><time>2026-04-19T11:34:34.963Z</time></trkpt><trkpt lat="45.4107667" lon="8.4062883"><ele>144.0</ele><time>2026-04-19T11:34:35.962Z</time></trkpt><trkpt lat="45.410875" lon="8.40631"><ele>144.0</ele><time>2026-04-19T11:34:36.963Z</time></trkpt><trkpt lat="45.41098" lon="8.4063383"><ele>144.0</ele><time>2026-04-19T11:34:37.963Z</time></trkpt><trkpt lat="45.411075" lon="8.4063517"><ele>144.0</ele><time>2026-04-19T11:34:38.962Z</time></trkpt><trkpt lat="45.4111683" lon="8.4063633"><ele>144.0</ele><time>2026-04-19T11:34:39.963Z</time></trkpt><trkpt lat="45.4112467" lon="8.4063717"><ele>144.0</ele><time>2026-04-19T11:34:40.962Z</time></trkpt><trkpt lat="45.4113167" lon="8.4063783"><ele>144.0</ele><time>2026-04-19T11:34:41.963Z</time></trkpt><trkpt lat="45.4113867" lon="8.4063883"><ele>144.0</ele><time>2026-04-19T11:34:42.963Z</time></trkpt><trkpt lat="45.4115033" lon="8.40644"><ele>144.0</ele><time>2026-04-19T11:34:44.963Z</time></trkpt><trkpt lat="45.4115483" lon="8.4065083"><ele>144.0</ele><time>2026-04-19T11:34:45.963Z</time></trkpt><trkpt lat="45.41158" lon="8.4066867"><ele>144.0</ele><time>2026-04-19T11:34:47.962Z</time></trkpt><trkpt lat="45.4115767" lon="8.4067983"><ele>144.0</ele><time>2026-04-19T11:34:48.963Z</time></trkpt><trkpt lat="45.4115733" lon="8.4069017"><ele>144.0</ele><time>2026-04-19T11:34:49.962Z</time></trkpt><trkpt lat="45.4115767" lon="8.4069967"><ele>144.0</ele><time>2026-04-19T11:34:50.962Z</time></trkpt><trkpt lat="45.411625" lon="8.4071333"><ele>144.0</ele><time>2026-04-19T11:34:52.962Z</time></trkpt><trkpt lat="45.4117433" lon="8.4071883"><ele>144.0</ele><time>2026-04-19T11:34:54.962Z</time></trkpt><trkpt lat="45.4118267" lon="8.4072083"><ele>144.0</ele><time>2026-04-19T11:34:55.963Z</time></trkpt><trkpt lat="45.4119167" lon="8.4072317"><ele>144.0</ele><time>2026-04-19T11:34:56.963Z</time></trkpt><trkpt lat="45.4120233" lon="8.4072617"><ele>144.0</ele><time>2026-04-19T11:34:57.963Z</time></trkpt><trkpt lat="45.4121383" lon="8.4072967"><ele>144.0</ele><time>2026-04-19T11:34:58.962Z</time></trkpt><trkpt lat="45.412255" lon="8.4073333"><ele>144.0</ele><time>2026-04-19T11:34:59.962Z</time></trkpt><trkpt lat="45.4123733" lon="8.40737"><ele>144.0</ele><time>2026-04-19T11:35:00.962Z</time></trkpt><trkpt lat="45.4124933" lon="8.4073917"><ele>144.0</ele><time>2026-04-19T11:35:01.963Z</time></trkpt><trkpt lat="45.4126217" lon="8.4074333"><ele>144.0</ele><time>2026-04-19T11:35:02.962Z</time></trkpt><trkpt lat="45.4127533" lon="8.4074733"><ele>144.0</ele><time>2026-04-19T11:35:03.962Z</time></trkpt><trkpt lat="45.41289" lon="8.4075133"><ele>144.0</ele><time>2026-04-19T11:35:04.963Z</time></trkpt><trkpt lat="45.413025" lon="8.4075583"><ele>144.0</ele><time>2026-04-19T11:35:05.962Z</time></trkpt><trkpt lat="45.4131633" lon="8.4075867"><ele>144.0</ele><time>2026-04-19T11:35:06.963Z</time></trkpt><trkpt lat="45.4133033" lon="8.4076217"><ele>144.0</ele><time>2026-04-19T11:35:07.963Z</time></trkpt><trkpt lat="45.4134417" lon="8.4076567"><ele>144.0</ele><time>2026-04-19T11:35:08.963Z</time></trkpt><trkpt lat="45.413565" lon="8.4076833"><ele>144.0</ele><time>2026-04-19T11:35:09.963Z</time></trkpt><trkpt lat="45.4136917" lon="8.4077217"><ele>144.0</ele><time>2026-04-19T11:35:10.963Z</time></trkpt><trkpt lat="45.4138217" lon="8.4077633"><ele>144.0</ele><time>2026-04-19T11:35:11.962Z</time></trkpt><trkpt lat="45.4139533" lon="8.4077967"><ele>144.25</ele><time>2026-04-19T11:35:12.963Z</time></trkpt><trkpt lat="45.41409" lon="8.407835"><ele>144.5</ele><time>2026-04-19T11:35:13.963Z</time></trkpt><trkpt lat="45.4142167" lon="8.40787"><ele>144.75</ele><time>2026-04-19T11:35:14.963Z</time></trkpt><trkpt lat="45.4143383" lon="8.4079083"><ele>145.0</ele><time>2026-04-19T11:35:15.963Z</time></trkpt><trkpt lat="45.4144617" lon="8.407955"><ele>145.0</ele><time>2026-04-19T11:35:16.962Z</time></trkpt><trkpt lat="45.4145817" lon="8.4080183"><ele>145.0</ele><time>2026-04-19T11:35:17.963Z</time></trkpt><trkpt lat="45.4147117" lon="8.4080783"><ele>145.0</ele><time>2026-04-19T11:35:18.963Z</time></trkpt><trkpt lat="45.41484" lon="8.408165"><ele>145.0</ele><time>2026-04-19T11:35:19.963Z</time></trkpt><trkpt lat="45.4149717" lon="8.4082083"><ele>145.0</ele><time>2026-04-19T11:35:20.963Z</time></trkpt><trkpt lat="45.4151017" lon="8.40826"><ele>145.0</ele><time>2026-04-19T11:35:21.963Z</time></trkpt><trkpt lat="45.415235" lon="8.40829"><ele>145.0</ele><time>2026-04-19T11:35:22.963Z</time></trkpt><trkpt lat="45.4153667" lon="8.4083067"><ele>145.0</ele><time>2026-04-19T11:35:23.963Z</time></trkpt><trkpt lat="45.4154933" lon="8.4083183"><ele>145.0</ele><time>2026-04-19T11:35:24.962Z</time></trkpt><trkpt lat="45.4156167" lon="8.4083217"><ele>145.0</ele><time>2026-04-19T11:35:25.963Z</time></trkpt><trkpt lat="45.41574" lon="8.4083167"><ele>145.0</ele><time>2026-04-19T11:35:26.963Z</time></trkpt><trkpt lat="45.4158683" lon="8.408315"><ele>145.0</ele><time>2026-04-19T11:35:27.963Z</time></trkpt><trkpt lat="45.4159833" lon="8.40833"><ele>145.0</ele><time>2026-04-19T11:35:28.963Z</time></trkpt><trkpt lat="45.416095" lon="8.4083483"><ele>145.0</ele><time>2026-04-19T11:35:29.963Z</time></trkpt><trkpt lat="45.41621" lon="8.4083667"><ele>145.0</ele><time>2026-04-19T11:35:30.962Z</time></trkpt><trkpt lat="45.4163233" lon="8.4083717"><ele>145.0</ele><time>2026-04-19T11:35:31.962Z</time></trkpt><trkpt lat="45.4164483" lon="8.408335"><ele>145.0</ele><time>2026-04-19T11:35:32.962Z</time></trkpt><trkpt lat="45.41657" lon="8.4082933"><ele>145.0</ele><time>2026-04-19T11:35:33.963Z</time></trkpt><trkpt lat="45.416685" lon="8.4082583"><ele>145.0</ele><time>2026-04-19T11:35:34.963Z</time></trkpt><trkpt lat="45.4168033" lon="8.4082117"><ele>145.0</ele><time>2026-04-19T11:35:35.963Z</time></trkpt><trkpt lat="45.41692" lon="8.4081583"><ele>145.0</ele><time>2026-04-19T11:35:36.963Z</time></trkpt><trkpt lat="45.4170467" lon="8.4081117"><ele>145.0</ele><time>2026-04-19T11:35:37.963Z</time></trkpt><trkpt lat="45.417155" lon="8.40807"><ele>145.0</ele><time>2026-04-19T11:35:38.961Z</time></trkpt><trkpt lat="45.417265" lon="8.40804"><ele>145.0</ele><time>2026-04-19T11:35:39.962Z</time></trkpt><trkpt lat="45.4173567" lon="8.4080017"><ele>145.33333333333334</ele><time>2026-04-19T11:35:40.962Z</time></trkpt><trkpt lat="45.417425" lon="8.4079733"><ele>145.66666666666669</ele><time>2026-04-19T11:35:41.962Z</time></trkpt><trkpt lat="45.4174933" lon="8.407965"><ele>146.0</ele><time>2026-04-19T11:35:42.961Z</time></trkpt><trkpt lat="45.41759" lon="8.4079183"><ele>146.33333333333334</ele><time>2026-04-19T11:35:44.962Z</time></trkpt><trkpt lat="45.41765" lon="8.4078883"><ele>146.66666666666666</ele><time>2026-04-19T11:35:46.962Z</time></trkpt><trkpt lat="45.4177333" lon="8.4078233"><ele>147.0</ele><time>2026-04-19T11:35:57.962Z</time></trkpt><trkpt lat="45.4178517" lon="8.4077567"><ele>147.0</ele><time>2026-04-19T11:35:59.962Z</time></trkpt><trkpt lat="45.4179383" lon="8.4077183"><ele>147.0</ele><time>2026-04-19T11:36:00.961Z</time></trkpt><trkpt lat="45.4180333" lon="8.4076783"><ele>147.0</ele><time>2026-04-19T11:36:01.962Z</time></trkpt><trkpt lat="45.4181383" lon="8.4076383"><ele>147.0</ele><time>2026-04-19T11:36:02.961Z</time></trkpt><trkpt lat="45.4182367" lon="8.4076017"><ele>147.0</ele><time>2026-04-19T11:36:03.962Z</time></trkpt><trkpt lat="45.4183433" lon="8.4075517"><ele>148.0</ele><time>2026-04-19T11:36:04.962Z</time></trkpt><trkpt lat="45.41846" lon="8.407505"><ele>149.0</ele><time>2026-04-19T11:36:05.962Z</time></trkpt><trkpt lat="45.418585" lon="8.4074617"><ele>150.0</ele><time>2026-04-19T11:36:06.962Z</time></trkpt><trkpt lat="45.4187017" lon="8.40741"><ele>151.0</ele><time>2026-04-19T11:36:07.962Z</time></trkpt><trkpt lat="45.418815" lon="8.4073617"><ele>150.8</ele><time>2026-04-19T11:36:08.961Z</time></trkpt><trkpt lat="45.4189317" lon="8.40731"><ele>150.6</ele><time>2026-04-19T11:36:09.961Z</time></trkpt><trkpt lat="45.4190417" lon="8.40727"><ele>150.4</ele><time>2026-04-19T11:36:10.961Z</time></trkpt><trkpt lat="45.4191467" lon="8.4072233"><ele>150.2</ele><time>2026-04-19T11:36:11.962Z</time></trkpt><trkpt lat="45.419245" lon="8.407195"><ele>150.0</ele><time>2026-04-19T11:36:12.962Z</time></trkpt><trkpt lat="45.419335" lon="8.4071767"><ele>150.0</ele><time>2026-04-19T11:36:13.961Z</time></trkpt><trkpt lat="45.4194033" lon="8.4071533"><ele>150.0</ele><time>2026-04-19T11:36:14.961Z</time></trkpt><trkpt lat="45.419465" lon="8.407125"><ele>150.0</ele><time>2026-04-19T11:36:15.961Z</time></trkpt><trkpt lat="45.419535" lon="8.4070983"><ele>150.0</ele><time>2026-04-19T11:36:17.962Z</time></trkpt><trkpt lat="45.4196017" lon="8.4071217"><ele>150.0</ele><time>2026-04-19T11:36:20.961Z</time></trkpt><trkpt lat="45.4195383" lon="8.407075"><ele>150.0</ele><time>2026-04-19T11:36:27.962Z</time></trkpt><trkpt lat="45.4194333" lon="8.40707"><ele>150.0</ele><time>2026-04-19T11:36:29.962Z</time></trkpt><trkpt lat="45.4193133" lon="8.4070583"><ele>150.0</ele><time>2026-04-19T11:36:31.961Z</time></trkpt><trkpt lat="45.4192167" lon="8.407025"><ele>150.0</ele><time>2026-04-19T11:36:33.961Z</time></trkpt><trkpt lat="45.4191683" lon="8.4069383"><ele>150.0</ele><time>2026-04-19T11:36:35.962Z</time></trkpt><trkpt lat="45.4191583" lon="8.406825"><ele>150.0</ele><time>2026-04-19T11:36:37.962Z</time></trkpt><trkpt lat="45.4191533" lon="8.40671"><ele>150.0</ele><time>2026-04-19T11:36:39.961Z</time></trkpt><trkpt lat="45.4191567" lon="8.4065683"><ele>150.0</ele><time>2026-04-19T11:36:41.962Z</time></trkpt><trkpt lat="45.41915" lon="8.4064083"><ele>150.0</ele><time>2026-04-19T11:36:43.962Z</time></trkpt><trkpt lat="45.41917" lon="8.4062633"><ele>150.0</ele><time>2026-04-19T11:36:45.962Z</time></trkpt><trkpt lat="45.4192117" lon="8.4061733"><ele>150.0</ele><time>2026-04-19T11:36:47.961Z</time></trkpt><trkpt lat="45.4192683" lon="8.4061317"><ele>150.2</ele><time>2026-04-19T11:36:49.962Z</time></trkpt><trkpt lat="45.4193433" lon="8.40607"><ele>150.4</ele><time>2026-04-19T11:36:51.962Z</time></trkpt><trkpt lat="45.4194233" lon="8.4060117"><ele>150.6</ele><time>2026-04-19T11:36:53.962Z</time></trkpt><trkpt lat="45.419485" lon="8.4059767"><ele>150.8</ele><time>2026-04-19T11:36:54.962Z</time></trkpt><trkpt lat="45.4195833" lon="8.4059033"><ele>151.0</ele><time>2026-04-19T11:36:56.962Z</time></trkpt><trkpt lat="45.4196783" lon="8.4058433"><ele>151.6</ele><time>2026-04-19T11:36:58.962Z</time></trkpt><trkpt lat="45.4197767" lon="8.405785"><ele>152.2</ele><time>2026-04-19T11:37:00.962Z</time></trkpt><trkpt lat="45.4198617" lon="8.4057233"><ele>152.8</ele><time>2026-04-19T11:37:02.962Z</time></trkpt><trkpt lat="45.4199483" lon="8.4056267"><ele>153.4</ele><time>2026-04-19T11:37:04.962Z</time></trkpt><trkpt lat="45.420015" lon="8.4055317"><ele>154.0</ele><time>2026-04-19T11:37:06.961Z</time></trkpt><trkpt lat="45.4201183" lon="8.40548"><ele>153.8</ele><time>2026-04-19T11:37:08.961Z</time></trkpt><trkpt lat="45.4201933" lon="8.40545"><ele>153.60000000000002</ele><time>2026-04-19T11:37:09.961Z</time></trkpt><trkpt lat="45.4203033" lon="8.4053883"><ele>153.4</ele><time>2026-04-19T11:37:11.962Z</time></trkpt><trkpt lat="45.4203883" lon="8.4053383"><ele>153.20000000000002</ele><time>2026-04-19T11:37:13.962Z</time></trkpt><trkpt lat="45.4204767" lon="8.4052867"><ele>153.0</ele><time>2026-04-19T11:37:15.962Z</time></trkpt><trkpt lat="45.4205583" lon="8.4051933"><ele>153.0</ele><time>2026-04-19T11:37:17.962Z</time></trkpt><trkpt lat="45.420635" lon="8.4050733"><ele>153.0</ele><time>2026-04-19T11:37:19.961Z</time></trkpt><trkpt lat="45.420685" lon="8.4050183"><ele>153.0</ele><time>2026-04-19T11:37:20.962Z</time></trkpt><trkpt lat="45.4207367" lon="8.404955"><ele>153.0</ele><time>2026-04-19T11:37:21.961Z</time></trkpt><trkpt lat="45.4207883" lon="8.4048917"><ele>153.0</ele><time>2026-04-19T11:37:22.962Z</time></trkpt><trkpt lat="45.4208367" lon="8.4048317"><ele>153.0</ele><time>2026-04-19T11:37:23.961Z</time></trkpt><trkpt lat="45.4209067" lon="8.4047533"><ele>153.0</ele><time>2026-04-19T11:37:25.961Z</time></trkpt><trkpt lat="45.42099" lon="8.4046917"><ele>153.0</ele><time>2026-04-19T11:37:27.962Z</time></trkpt><trkpt lat="45.42105" lon="8.4046583"><ele>153.0</ele><time>2026-04-19T11:37:28.962Z</time></trkpt><trkpt lat="45.4211267" lon="8.4046133"><ele>153.0</ele><time>2026-04-19T11:37:29.962Z</time></trkpt><trkpt lat="45.4212" lon="8.4045833"><ele>153.0</ele><time>2026-04-19T11:37:30.961Z</time></trkpt><trkpt lat="45.4212733" lon="8.4045467"><ele>153.0</ele><time>2026-04-19T11:37:31.961Z</time></trkpt><trkpt lat="45.4213467" lon="8.4045267"><ele>152.5</ele><time>2026-04-19T11:37:32.961Z</time></trkpt><trkpt lat="45.4214333" lon="8.4045017"><ele>152.0</ele><time>2026-04-19T11:37:33.962Z</time></trkpt><trkpt lat="45.421525" lon="8.4044783"><ele>151.5</ele><time>2026-04-19T11:37:34.961Z</time></trkpt><trkpt lat="45.4216083" lon="8.40445"><ele>151.0</ele><time>2026-04-19T11:37:35.962Z</time></trkpt><trkpt lat="45.42169" lon="8.4044233"><ele>150.5</ele><time>2026-04-19T11:37:36.961Z</time></trkpt><trkpt lat="45.4217733" lon="8.4043917"><ele>150.0</ele><time>2026-04-19T11:37:37.961Z</time></trkpt><trkpt lat="45.4218483" lon="8.404355"><ele>150.0</ele><time>2026-04-19T11:37:38.962Z</time></trkpt><trkpt lat="45.4219283" lon="8.404335"><ele>150.0</ele><time>2026-04-19T11:37:39.962Z</time></trkpt><trkpt lat="45.4220033" lon="8.4043317"><ele>150.0</ele><time>2026-04-19T11:37:40.961Z</time></trkpt><trkpt lat="45.4220733" lon="8.4043417"><ele>150.0</ele><time>2026-04-19T11:37:41.961Z</time></trkpt><trkpt lat="45.4221417" lon="8.4043667"><ele>150.0</ele><time>2026-04-19T11:37:42.962Z</time></trkpt><trkpt lat="45.4222233" lon="8.4044233"><ele>150.0</ele><time>2026-04-19T11:37:44.961Z</time></trkpt><trkpt lat="45.4222867" lon="8.4044583"><ele>150.33333333333334</ele><time>2026-04-19T11:37:46.961Z</time></trkpt><trkpt lat="45.422345" lon="8.4044967"><ele>150.66666666666666</ele><time>2026-04-19T11:37:48.961Z</time></trkpt><trkpt lat="45.4224017" lon="8.4045617"><ele>151.0</ele><time>2026-04-19T11:37:50.961Z</time></trkpt><trkpt lat="45.4224483" lon="8.4046717"><ele>151.33333333333331</ele><time>2026-04-19T11:37:52.961Z</time></trkpt><trkpt lat="45.4225267" lon="8.40471"><ele>151.66666666666666</ele><time>2026-04-19T11:37:55.961Z</time></trkpt><trkpt lat="45.4225783" lon="8.4046133"><ele>152.0</ele><time>2026-04-19T11:37:57.962Z</time></trkpt><trkpt lat="45.42262" lon="8.40452"><ele>152.2</ele><time>2026-04-19T11:37:59.961Z</time></trkpt><trkpt lat="45.4226467" lon="8.4043867"><ele>152.39999999999998</ele><time>2026-04-19T11:38:02.961Z</time></trkpt><trkpt lat="45.422645" lon="8.4042383"><ele>152.60000000000002</ele><time>2026-04-19T11:38:04.962Z</time></trkpt><trkpt lat="45.4226417" lon="8.404085"><ele>152.8</ele><time>2026-04-19T11:38:06.961Z</time></trkpt><trkpt lat="45.4226583" lon="8.403965"><ele>153.0</ele><time>2026-04-19T11:38:08.962Z</time></trkpt><trkpt lat="45.4226517" lon="8.4038417"><ele>152.33333333333334</ele><time>2026-04-19T11:38:11.962Z</time></trkpt><trkpt lat="45.4226783" lon="8.4037533"><ele>151.66666666666666</ele><time>2026-04-19T11:38:14.962Z</time></trkpt><trkpt lat="45.4227217" lon="8.40367"><ele>151.0</ele><time>2026-04-19T11:38:17.961Z</time></trkpt><trkpt lat="45.42275" lon="8.4035733"><ele>150.33333333333331</ele><time>2026-04-19T11:38:20.962Z</time></trkpt><trkpt lat="45.4227767" lon="8.4034417"><ele>149.66666666666666</ele><time>2026-04-19T11:38:23.962Z</time></trkpt><trkpt lat="45.4228217" lon="8.4033167"><ele>149.0</ele><time>2026-04-19T11:38:25.961Z</time></trkpt><trkpt lat="45.4228867" lon="8.4032017"><ele>149.0</ele><time>2026-04-19T11:38:27.962Z</time></trkpt><trkpt lat="45.4229217" lon="8.403125"><ele>149.0</ele><time>2026-04-19T11:38:28.962Z</time></trkpt><trkpt lat="45.4229883" lon="8.4029817"><ele>149.0</ele><time>2026-04-19T11:38:30.961Z</time></trkpt><trkpt lat="45.4230333" lon="8.4028517"><ele>149.0</ele><time>2026-04-19T11:38:32.962Z</time></trkpt><trkpt lat="45.4230717" lon="8.402735"><ele>149.0</ele><time>2026-04-19T11:38:35.962Z</time></trkpt><trkpt lat="45.4231183" lon="8.4026483"><ele>148.6</ele><time>2026-04-19T11:38:37.962Z</time></trkpt><trkpt lat="45.42318" lon="8.40257"><ele>148.2</ele><time>2026-04-19T11:38:39.961Z</time></trkpt><trkpt lat="45.42324" lon="8.4024967"><ele>147.79999999999998</ele><time>2026-04-19T11:38:41.961Z</time></trkpt><trkpt lat="45.4233233" lon="8.4024167"><ele>147.4</ele><time>2026-04-19T11:38:43.962Z</time></trkpt><trkpt lat="45.4234083" lon="8.4023333"><ele>147.0</ele><time>2026-04-19T11:38:45.962Z</time></trkpt><trkpt lat="45.4235067" lon="8.402245"><ele>147.0</ele><time>2026-04-19T11:38:47.961Z</time></trkpt><trkpt lat="45.4235617" lon="8.40219"><ele>147.0</ele><time>2026-04-19T11:38:48.961Z</time></trkpt><trkpt lat="45.4236133" lon="8.4021383"><ele>147.0</ele><time>2026-04-19T11:38:49.961Z</time></trkpt><trkpt lat="45.4236633" lon="8.4020833"><ele>147.0</ele><time>2026-04-19T11:38:50.962Z</time></trkpt><trkpt lat="45.4237617" lon="8.4019817"><ele>147.0</ele><time>2026-04-19T11:38:52.962Z</time></trkpt><trkpt lat="45.4238333" lon="8.401885"><ele>147.0</ele><time>2026-04-19T11:38:54.962Z</time></trkpt><trkpt lat="45.4238367" lon="8.4017767"><ele>146.79999999999998</ele><time>2026-04-19T11:38:57.962Z</time></trkpt><trkpt lat="45.4237567" lon="8.4017467"><ele>146.6</ele><time>2026-04-19T11:38:59.961Z</time></trkpt><trkpt lat="45.4236583" lon="8.4017133"><ele>146.39999999999998</ele><time>2026-04-19T11:39:01.962Z</time></trkpt><trkpt lat="45.4235767" lon="8.4016567"><ele>146.2</ele><time>2026-04-19T11:39:03.962Z</time></trkpt><trkpt lat="45.4235117" lon="8.401545"><ele>146.0</ele><time>2026-04-19T11:39:05.961Z</time></trkpt><trkpt lat="45.4234533" lon="8.4014083"><ele>146.16666666666666</ele><time>2026-04-19T11:39:07.961Z</time></trkpt><trkpt lat="45.42341" lon="8.4012933"><ele>146.33333333333331</ele><time>2026-04-19T11:39:09.961Z</time></trkpt><trkpt lat="45.4233733" lon="8.4012067"><ele>146.5</ele><time>2026-04-19T11:39:10.962Z</time></trkpt><trkpt lat="45.4233367" lon="8.4011217"><ele>146.66666666666666</ele><time>2026-04-19T11:39:11.961Z</time></trkpt><trkpt lat="45.4232633" lon="8.40103"><ele>146.83333333333334</ele><time>2026-04-19T11:39:13.961Z</time></trkpt><trkpt lat="45.423185" lon="8.4010333"><ele>147.0</ele><time>2026-04-19T11:39:15.962Z</time></trkpt><trkpt lat="45.4230917" lon="8.401125"><ele>147.0</ele><time>2026-04-19T11:39:17.961Z</time></trkpt><trkpt lat="45.42303" lon="8.4011783"><ele>147.0</ele><time>2026-04-19T11:39:18.961Z</time></trkpt><trkpt lat="45.4229683" lon="8.4012167"><ele>147.0</ele><time>2026-04-19T11:39:19.962Z</time></trkpt><trkpt lat="45.4228533" lon="8.4012617"><ele>147.0</ele><time>2026-04-19T11:39:21.962Z</time></trkpt><trkpt lat="45.422765" lon="8.4012883"><ele>147.0</ele><time>2026-04-19T11:39:23.961Z</time></trkpt><trkpt lat="45.4226833" lon="8.4013367"><ele>147.0</ele><time>2026-04-19T11:39:59.961Z</time></trkpt><trkpt lat="45.4226267" lon="8.4013933"><ele>147.16666666666666</ele><time>2026-04-19T11:40:01.96Z</time></trkpt><trkpt lat="45.4225633" lon="8.401445"><ele>147.33333333333334</ele><time>2026-04-19T11:40:03.96Z</time></trkpt><trkpt lat="45.4224733" lon="8.4014983"><ele>147.5</ele><time>2026-04-19T11:40:05.961Z</time></trkpt><trkpt lat="45.4223917" lon="8.401545"><ele>147.66666666666669</ele><time>2026-04-19T11:40:07.961Z</time></trkpt><trkpt lat="45.4223033" lon="8.4015883"><ele>147.83333333333334</ele><time>2026-04-19T11:40:09.961Z</time></trkpt><trkpt lat="45.4222233" lon="8.4016183"><ele>148.0</ele><time>2026-04-19T11:40:11.961Z</time></trkpt><trkpt lat="45.422145" lon="8.401675"><ele>148.0</ele><time>2026-04-19T11:40:14.961Z</time></trkpt><trkpt lat="45.42214" lon="8.401775"><ele>148.0</ele><time>2026-04-19T11:40:28.961Z</time></trkpt><trkpt lat="45.422215" lon="8.40178"><ele>148.0</ele><time>2026-04-19T11:40:32.96Z</time></trkpt><trkpt lat="45.4222883" lon="8.4017317"><ele>148.0</ele><time>2026-04-19T11:40:47.961Z</time></trkpt><trkpt lat="45.4223783" lon="8.401675"><ele>148.0</ele><time>2026-04-19T11:40:49.961Z</time></trkpt><trkpt lat="45.42249" lon="8.4015967"><ele>148.0</ele><time>2026-04-19T11:40:51.961Z</time></trkpt><trkpt lat="45.422595" lon="8.4014833"><ele>148.0</ele><time>2026-04-19T11:40:53.96Z</time></trkpt><trkpt lat="45.4226833" lon="8.4013583"><ele>148.0</ele><time>2026-04-19T11:40:55.961Z</time></trkpt><trkpt lat="45.4227433" lon="8.4013167"><ele>148.0</ele><time>2026-04-19T11:40:56.961Z</time></trkpt><trkpt lat="45.4228633" lon="8.40127"><ele>148.0</ele><time>2026-04-19T11:40:58.96Z</time></trkpt><trkpt lat="45.4229267" lon="8.4012417"><ele>148.0</ele><time>2026-04-19T11:40:59.96Z</time></trkpt><trkpt lat="45.4230383" lon="8.40118"><ele>147.83333333333334</ele><time>2026-04-19T11:41:01.96Z</time></trkpt><trkpt lat="45.4231217" lon="8.401095"><ele>147.66666666666669</ele><time>2026-04-19T11:41:03.961Z</time></trkpt><trkpt lat="45.4231617" lon="8.40102"><ele>147.5</ele><time>2026-04-19T11:41:05.96Z</time></trkpt><trkpt lat="45.4232283" lon="8.40101"><ele>147.33333333333334</ele><time>2026-04-19T11:41:07.96Z</time></trkpt><trkpt lat="45.42331" lon="8.4011033"><ele>147.16666666666666</ele><time>2026-04-19T11:41:09.961Z</time></trkpt><trkpt lat="45.4233533" lon="8.4011917"><ele>147.0</ele><time>2026-04-19T11:41:10.961Z</time></trkpt><trkpt lat="45.42339" lon="8.4012783"><ele>146.79999999999998</ele><time>2026-04-19T11:41:11.961Z</time></trkpt><trkpt lat="45.4234367" lon="8.4013533"><ele>146.6</ele><time>2026-04-19T11:41:12.96Z</time></trkpt><trkpt lat="45.42349" lon="8.40144"><ele>146.39999999999998</ele><time>2026-04-19T11:41:13.961Z</time></trkpt><trkpt lat="45.4236017" lon="8.4016633"><ele>146.2</ele><time>2026-04-19T11:41:16.961Z</time></trkpt><trkpt lat="45.4236617" lon="8.401735"><ele>146.0</ele><time>2026-04-19T11:41:18.96Z</time></trkpt><trkpt lat="45.4237633" lon="8.4017633"><ele>146.0</ele><time>2026-04-19T11:41:20.961Z</time></trkpt><trkpt lat="45.4238433" lon="8.4018133"><ele>146.0</ele><time>2026-04-19T11:41:22.96Z</time></trkpt><trkpt lat="45.4238267" lon="8.4019083"><ele>146.0</ele><time>2026-04-19T11:41:25.961Z</time></trkpt><trkpt lat="45.4237517" lon="8.4020067"><ele>146.0</ele><time>2026-04-19T11:41:27.961Z</time></trkpt><trkpt lat="45.4236467" lon="8.4020983"><ele>146.0</ele><time>2026-04-19T11:41:29.96Z</time></trkpt><trkpt lat="45.4235917" lon="8.4021517"><ele>146.0</ele><time>2026-04-19T11:41:30.961Z</time></trkpt><trkpt lat="45.42354" lon="8.4022033"><ele>146.25</ele><time>2026-04-19T11:41:31.961Z</time></trkpt><trkpt lat="45.4234433" lon="8.4022983"><ele>146.5</ele><time>2026-04-19T11:41:33.961Z</time></trkpt><trkpt lat="45.42334" lon="8.402385"><ele>146.75</ele><time>2026-04-19T11:41:35.961Z</time></trkpt><trkpt lat="45.4232483" lon="8.40246"><ele>147.0</ele><time>2026-04-19T11:41:37.96Z</time></trkpt><trkpt lat="45.4231517" lon="8.402575"><ele>147.0</ele><time>2026-04-19T11:41:39.961Z</time></trkpt><trkpt lat="45.4230633" lon="8.402675"><ele>147.0</ele><time>2026-04-19T11:41:41.961Z</time></trkpt><trkpt lat="45.4229983" lon="8.4027717"><ele>147.0</ele><time>2026-04-19T11:41:43.96Z</time></trkpt><trkpt lat="45.4229633" lon="8.4029067"><ele>147.0</ele><time>2026-04-19T11:41:45.961Z</time></trkpt><trkpt lat="45.42292" lon="8.403025"><ele>147.0</ele><time>2026-04-19T11:41:47.961Z</time></trkpt><trkpt lat="45.4228867" lon="8.403105"><ele>147.33333333333334</ele><time>2026-04-19T11:41:48.961Z</time></trkpt><trkpt lat="45.4228367" lon="8.403245"><ele>147.66666666666666</ele><time>2026-04-19T11:41:50.961Z</time></trkpt><trkpt lat="45.422805" lon="8.4033267"><ele>148.0</ele><time>2026-04-19T11:41:51.96Z</time></trkpt><trkpt lat="45.42278" lon="8.403425"><ele>148.33333333333331</ele><time>2026-04-19T11:41:52.961Z</time></trkpt><trkpt lat="45.4227533" lon="8.4035133"><ele>148.66666666666666</ele><time>2026-04-19T11:41:53.961Z</time></trkpt><trkpt lat="45.42271" lon="8.4036467"><ele>149.0</ele><time>2026-04-19T11:41:55.961Z</time></trkpt><trkpt lat="45.4226867" lon="8.4037567"><ele>149.66666666666666</ele><time>2026-04-19T11:41:57.96Z</time></trkpt><trkpt lat="45.4226717" lon="8.4038767"><ele>150.33333333333331</ele><time>2026-04-19T11:41:59.961Z</time></trkpt><trkpt lat="45.4226667" lon="8.4039883"><ele>151.0</ele><time>2026-04-19T11:42:01.96Z</time></trkpt><trkpt lat="45.4226667" lon="8.4041017"><ele>151.66666666666666</ele><time>2026-04-19T11:42:03.961Z</time></trkpt><trkpt lat="45.4226683" lon="8.4042433"><ele>152.33333333333334</ele><time>2026-04-19T11:42:05.961Z</time></trkpt><trkpt lat="45.422665" lon="8.4043583"><ele>153.0</ele><time>2026-04-19T11:42:07.961Z</time></trkpt><trkpt lat="45.4226167" lon="8.4044833"><ele>153.0</ele><time>2026-04-19T11:42:10.961Z</time></trkpt><trkpt lat="45.422555" lon="8.4045817"><ele>153.0</ele><time>2026-04-19T11:42:12.96Z</time></trkpt><trkpt lat="45.4224917" lon="8.4046167"><ele>153.0</ele><time>2026-04-19T11:42:14.961Z</time></trkpt><trkpt lat="45.4224283" lon="8.40456"><ele>153.0</ele><time>2026-04-19T11:42:17.96Z</time></trkpt><trkpt lat="45.42237" lon="8.4045017"><ele>153.0</ele><time>2026-04-19T11:42:19.96Z</time></trkpt><trkpt lat="45.4222883" lon="8.40444"><ele>153.0</ele><time>2026-04-19T11:42:21.96Z</time></trkpt><trkpt lat="45.4222183" lon="8.4044133"><ele>152.4</ele><time>2026-04-19T11:42:22.961Z</time></trkpt><trkpt lat="45.4221467" lon="8.4043817"><ele>151.8</ele><time>2026-04-19T11:42:23.96Z</time></trkpt><trkpt lat="45.4220667" lon="8.4043483"><ele>151.2</ele><time>2026-04-19T11:42:24.961Z</time></trkpt><trkpt lat="45.4219917" lon="8.4043267"><ele>150.6</ele><time>2026-04-19T11:42:25.96Z</time></trkpt><trkpt lat="45.421905" lon="8.40432"><ele>150.0</ele><time>2026-04-19T11:42:26.96Z</time></trkpt><trkpt lat="45.4217333" lon="8.4043733"><ele>150.0</ele><time>2026-04-19T11:42:28.961Z</time></trkpt><trkpt lat="45.4216417" lon="8.4044167"><ele>150.0</ele><time>2026-04-19T11:42:29.96Z</time></trkpt><trkpt lat="45.4215517" lon="8.4044533"><ele>150.0</ele><time>2026-04-19T11:42:30.96Z</time></trkpt><trkpt lat="45.4214617" lon="8.404485"><ele>150.0</ele><time>2026-04-19T11:42:31.961Z</time></trkpt><trkpt lat="45.4213817" lon="8.4045133"><ele>150.0</ele><time>2026-04-19T11:42:32.961Z</time></trkpt><trkpt lat="45.4213033" lon="8.4045383"><ele>150.0</ele><time>2026-04-19T11:42:33.961Z</time></trkpt><trkpt lat="45.4212283" lon="8.4045517"><ele>150.5</ele><time>2026-04-19T11:42:34.96Z</time></trkpt><trkpt lat="45.421155" lon="8.40457"><ele>151.0</ele><time>2026-04-19T11:42:35.961Z</time></trkpt><trkpt lat="45.4210833" lon="8.4045983"><ele>151.5</ele><time>2026-04-19T11:42:36.96Z</time></trkpt><trkpt lat="45.4210117" lon="8.4046317"><ele>152.0</ele><time>2026-04-19T11:42:37.96Z</time></trkpt><trkpt lat="45.420945" lon="8.4046633"><ele>152.5</ele><time>2026-04-19T11:42:38.961Z</time></trkpt><trkpt lat="45.420845" lon="8.40475"><ele>153.0</ele><time>2026-04-19T11:42:40.96Z</time></trkpt><trkpt lat="45.4208" lon="8.4048183"><ele>153.0</ele><time>2026-04-19T11:42:41.96Z</time></trkpt><trkpt lat="45.4207567" lon="8.4049017"><ele>153.0</ele><time>2026-04-19T11:42:42.96Z</time></trkpt><trkpt lat="45.4207067" lon="8.404985"><ele>153.0</ele><time>2026-04-19T11:42:43.96Z</time></trkpt><trkpt lat="45.4206633" lon="8.40505"><ele>153.0</ele><time>2026-04-19T11:42:44.961Z</time></trkpt><trkpt lat="45.4205733" lon="8.4051483"><ele>153.0</ele><time>2026-04-19T11:42:46.961Z</time></trkpt><trkpt lat="45.4204717" lon="8.4052467"><ele>153.0</ele><time>2026-04-19T11:42:48.96Z</time></trkpt><trkpt lat="45.42041" lon="8.4052933"><ele>153.16666666666666</ele><time>2026-04-19T11:42:49.96Z</time></trkpt><trkpt lat="45.42035" lon="8.405335"><ele>153.33333333333334</ele><time>2026-04-19T11:42:50.96Z</time></trkpt><trkpt lat="45.42029" lon="8.4053767"><ele>153.5</ele><time>2026-04-19T11:42:51.961Z</time></trkpt><trkpt lat="45.4202333" lon="8.4054283"><ele>153.66666666666669</ele><time>2026-04-19T11:42:52.96Z</time></trkpt><trkpt lat="45.42017" lon="8.4054733"><ele>153.83333333333334</ele><time>2026-04-19T11:42:53.961Z</time></trkpt><trkpt lat="45.4200583" lon="8.4055167"><ele>154.0</ele><time>2026-04-19T11:42:55.96Z</time></trkpt><trkpt lat="45.4199567" lon="8.4055717"><ele>154.0</ele><time>2026-04-19T11:42:57.961Z</time></trkpt><trkpt lat="45.4198633" lon="8.4056983"><ele>154.0</ele><time>2026-04-19T11:42:59.96Z</time></trkpt><trkpt lat="45.419815" lon="8.40576"><ele>154.0</ele><time>2026-04-19T11:43:00.961Z</time></trkpt><trkpt lat="45.4197533" lon="8.40581"><ele>154.0</ele><time>2026-04-19T11:43:01.96Z</time></trkpt><trkpt lat="45.4196783" lon="8.405865"><ele>154.0</ele><time>2026-04-19T11:43:02.96Z</time></trkpt><trkpt lat="45.4196033" lon="8.4059083"><ele>154.0</ele><time>2026-04-19T11:43:03.961Z</time></trkpt><trkpt lat="45.419525" lon="8.4059633"><ele>153.5</ele><time>2026-04-19T11:43:04.96Z</time></trkpt><trkpt lat="45.419445" lon="8.40601"><ele>153.0</ele><time>2026-04-19T11:43:05.961Z</time></trkpt><trkpt lat="45.4193667" lon="8.4060483"><ele>152.5</ele><time>2026-04-19T11:43:06.961Z</time></trkpt><trkpt lat="45.4193017" lon="8.4060817"><ele>152.0</ele><time>2026-04-19T11:43:07.961Z</time></trkpt><trkpt lat="45.4192017" lon="8.4061217"><ele>151.5</ele><time>2026-04-19T11:43:09.96Z</time></trkpt><trkpt lat="45.419145" lon="8.406185"><ele>151.0</ele><time>2026-04-19T11:43:11.959Z</time></trkpt><trkpt lat="45.41911" lon="8.406335"><ele>150.83333333333334</ele><time>2026-04-19T11:43:13.96Z</time></trkpt><trkpt lat="45.4191067" lon="8.4064267"><ele>150.66666666666669</ele><time>2026-04-19T11:43:14.959Z</time></trkpt><trkpt lat="45.4191167" lon="8.4065283"><ele>150.5</ele><time>2026-04-19T11:43:15.959Z</time></trkpt><trkpt lat="45.4191183" lon="8.4066283"><ele>150.33333333333334</ele><time>2026-04-19T11:43:16.959Z</time></trkpt><trkpt lat="45.4191233" lon="8.406735"><ele>150.16666666666666</ele><time>2026-04-19T11:43:17.959Z</time></trkpt><trkpt lat="45.4191517" lon="8.40683"><ele>150.0</ele><time>2026-04-19T11:43:18.959Z</time></trkpt><trkpt lat="45.4192083" lon="8.40696"><ele>150.0</ele><time>2026-04-19T11:43:20.96Z</time></trkpt><trkpt lat="45.4193017" lon="8.4070333"><ele>150.0</ele><time>2026-04-19T11:43:22.96Z</time></trkpt><trkpt lat="45.419405" lon="8.407055"><ele>150.0</ele><time>2026-04-19T11:43:24.959Z</time></trkpt><trkpt lat="45.4195217" lon="8.4070283"><ele>150.0</ele><time>2026-04-19T11:43:26.959Z</time></trkpt><trkpt lat="45.4196067" lon="8.4070033"><ele>150.0</ele><time>2026-04-19T11:43:28.96Z</time></trkpt><trkpt lat="45.4196783" lon="8.4069917"><ele>150.2</ele><time>2026-04-19T11:43:40.96Z</time></trkpt><trkpt lat="45.41974" lon="8.4069733"><ele>150.4</ele><time>2026-04-19T11:43:41.96Z</time></trkpt><trkpt lat="45.4198283" lon="8.40695"><ele>150.6</ele><time>2026-04-19T11:43:42.96Z</time></trkpt><trkpt lat="45.4199433" lon="8.4069117"><ele>150.8</ele><time>2026-04-19T11:43:43.96Z</time></trkpt><trkpt lat="45.4200583" lon="8.40687"><ele>151.0</ele><time>2026-04-19T11:43:44.96Z</time></trkpt><trkpt lat="45.4201717" lon="8.4068267"><ele>151.0</ele><time>2026-04-19T11:43:45.96Z</time></trkpt><trkpt lat="45.42028" lon="8.406785"><ele>151.0</ele><time>2026-04-19T11:43:46.96Z</time></trkpt><trkpt lat="45.4203917" lon="8.406745"><ele>151.0</ele><time>2026-04-19T11:43:47.96Z</time></trkpt><trkpt lat="45.4205033" lon="8.4067017"><ele>151.0</ele><time>2026-04-19T11:43:48.96Z</time></trkpt><trkpt lat="45.4206183" lon="8.4066633"><ele>151.5</ele><time>2026-04-19T11:43:49.96Z</time></trkpt><trkpt lat="45.42073" lon="8.4066217"><ele>152.0</ele><time>2026-04-19T11:43:50.959Z</time></trkpt><trkpt lat="45.4208417" lon="8.4065783"><ele>152.5</ele><time>2026-04-19T11:43:51.959Z</time></trkpt><trkpt lat="45.4209533" lon="8.4065333"><ele>153.0</ele><time>2026-04-19T11:43:52.96Z</time></trkpt><trkpt lat="45.4210633" lon="8.4064883"><ele>153.0</ele><time>2026-04-19T11:43:53.959Z</time></trkpt><trkpt lat="45.4211733" lon="8.4064467"><ele>153.0</ele><time>2026-04-19T11:43:54.96Z</time></trkpt><trkpt lat="45.42128" lon="8.406405"><ele>153.0</ele><time>2026-04-19T11:43:55.96Z</time></trkpt><trkpt lat="45.42138" lon="8.4063683"><ele>153.0</ele><time>2026-04-19T11:43:56.96Z</time></trkpt><trkpt lat="45.421485" lon="8.4063233"><ele>153.0</ele><time>2026-04-19T11:43:57.96Z</time></trkpt><trkpt lat="45.4215867" lon="8.4062683"><ele>152.6</ele><time>2026-04-19T11:43:58.959Z</time></trkpt><trkpt lat="45.4216783" lon="8.4062183"><ele>152.20000000000002</ele><time>2026-04-19T11:43:59.959Z</time></trkpt><trkpt lat="45.4217767" lon="8.40618"><ele>151.8</ele><time>2026-04-19T11:44:00.959Z</time></trkpt><trkpt lat="45.4218733" lon="8.40614"><ele>151.4</ele><time>2026-04-19T11:44:01.959Z</time></trkpt><trkpt lat="45.4219733" lon="8.4060917"><ele>151.0</ele><time>2026-04-19T11:44:02.96Z</time></trkpt><trkpt lat="45.42208" lon="8.4060517"><ele>150.5</ele><time>2026-04-19T11:44:03.959Z</time></trkpt><trkpt lat="45.4221917" lon="8.4060167"><ele>150.0</ele><time>2026-04-19T11:44:04.96Z</time></trkpt><trkpt lat="45.4223133" lon="8.4059767"><ele>149.5</ele><time>2026-04-19T11:44:05.959Z</time></trkpt><trkpt lat="45.422425" lon="8.4059483"><ele>149.0</ele><time>2026-04-19T11:44:06.959Z</time></trkpt><trkpt lat="45.4225317" lon="8.40592"><ele>149.0</ele><time>2026-04-19T11:44:07.959Z</time></trkpt><trkpt lat="45.4226333" lon="8.4058783"><ele>149.0</ele><time>2026-04-19T11:44:08.96Z</time></trkpt><trkpt lat="45.4227417" lon="8.40583"><ele>149.0</ele><time>2026-04-19T11:44:09.959Z</time></trkpt><trkpt lat="45.42284" lon="8.4057833"><ele>149.0</ele><time>2026-04-19T11:44:10.959Z</time></trkpt><trkpt lat="45.4229333" lon="8.4057367"><ele>149.0</ele><time>2026-04-19T11:44:11.959Z</time></trkpt><trkpt lat="45.4230417" lon="8.4056883"><ele>149.25</ele><time>2026-04-19T11:44:12.96Z</time></trkpt><trkpt lat="45.423145" lon="8.4056533"><ele>149.5</ele><time>2026-04-19T11:44:13.959Z</time></trkpt><trkpt lat="45.4232533" lon="8.4056083"><ele>149.75</ele><time>2026-04-19T11:44:14.96Z</time></trkpt><trkpt lat="45.4233633" lon="8.4055617"><ele>150.0</ele><time>2026-04-19T11:44:15.96Z</time></trkpt><trkpt lat="45.4234817" lon="8.4055133"><ele>150.5</ele><time>2026-04-19T11:44:16.96Z</time></trkpt><trkpt lat="45.4236" lon="8.4054667"><ele>151.0</ele><time>2026-04-19T11:44:17.959Z</time></trkpt><trkpt lat="45.4237333" lon="8.4054333"><ele>151.5</ele><time>2026-04-19T11:44:18.959Z</time></trkpt><trkpt lat="45.4238617" lon="8.40542"><ele>152.0</ele><time>2026-04-19T11:44:19.96Z</time></trkpt><trkpt lat="45.42399" lon="8.4054217"><ele>152.0</ele><time>2026-04-19T11:44:20.96Z</time></trkpt><trkpt lat="45.4241133" lon="8.4054033"><ele>152.0</ele><time>2026-04-19T11:44:21.96Z</time></trkpt><trkpt lat="45.4242433" lon="8.4054033"><ele>152.0</ele><time>2026-04-19T11:44:22.96Z</time></trkpt><trkpt lat="45.4243667" lon="8.4053933"><ele>152.0</ele><time>2026-04-19T11:44:23.96Z</time></trkpt><trkpt lat="45.424495" lon="8.4053883"><ele>152.0</ele><time>2026-04-19T11:44:24.96Z</time></trkpt><trkpt lat="45.424625" lon="8.4053733"><ele>152.0</ele><time>2026-04-19T11:44:25.959Z</time></trkpt><trkpt lat="45.42475" lon="8.4053533"><ele>152.0</ele><time>2026-04-19T11:44:26.96Z</time></trkpt><trkpt lat="45.424865" lon="8.405335"><ele>152.0</ele><time>2026-04-19T11:44:27.959Z</time></trkpt><trkpt lat="45.4249833" lon="8.4053217"><ele>152.5</ele><time>2026-04-19T11:44:28.959Z</time></trkpt><trkpt lat="45.4250967" lon="8.4053017"><ele>153.0</ele><time>2026-04-19T11:44:29.959Z</time></trkpt><trkpt lat="45.425215" lon="8.4053033"><ele>153.5</ele><time>2026-04-19T11:44:30.96Z</time></trkpt><trkpt lat="45.4253267" lon="8.4053183"><ele>154.0</ele><time>2026-04-19T11:44:31.96Z</time></trkpt><trkpt lat="45.4254533" lon="8.4053467"><ele>154.0</ele><time>2026-04-19T11:44:32.959Z</time></trkpt><trkpt lat="45.4255767" lon="8.4053717"><ele>154.0</ele><time>2026-04-19T11:44:33.959Z</time></trkpt><trkpt lat="45.4257033" lon="8.4053883"><ele>154.0</ele><time>2026-04-19T11:44:34.96Z</time></trkpt><trkpt lat="45.42583" lon="8.4054117"><ele>154.0</ele><time>2026-04-19T11:44:35.96Z</time></trkpt><trkpt lat="45.4259567" lon="8.4054383"><ele>154.0</ele><time>2026-04-19T11:44:36.959Z</time></trkpt><trkpt lat="45.426085" lon="8.40546"><ele>154.0</ele><time>2026-04-19T11:44:37.959Z</time></trkpt><trkpt lat="45.4262167" lon="8.4054767"><ele>154.0</ele><time>2026-04-19T11:44:38.96Z</time></trkpt><trkpt lat="45.4263483" lon="8.4054967"><ele>154.0</ele><time>2026-04-19T11:44:39.96Z</time></trkpt><trkpt lat="45.426485" lon="8.405515"><ele>154.5</ele><time>2026-04-19T11:44:40.96Z</time></trkpt><trkpt lat="45.426625" lon="8.4055417"><ele>155.0</ele><time>2026-04-19T11:44:41.96Z</time></trkpt><trkpt lat="45.4267667" lon="8.4055683"><ele>155.5</ele><time>2026-04-19T11:44:42.96Z</time></trkpt><trkpt lat="45.4269" lon="8.4055917"><ele>156.0</ele><time>2026-04-19T11:44:43.959Z</time></trkpt><trkpt lat="45.42703" lon="8.405625"><ele>155.0</ele><time>2026-04-19T11:44:44.959Z</time></trkpt><trkpt lat="45.42716" lon="8.4056783"><ele>154.0</ele><time>2026-04-19T11:44:45.959Z</time></trkpt><trkpt lat="45.4272833" lon="8.4057367"><ele>153.0</ele><time>2026-04-19T11:44:46.96Z</time></trkpt><trkpt lat="45.42741" lon="8.4057983"><ele>152.0</ele><time>2026-04-19T11:44:47.959Z</time></trkpt><trkpt lat="45.42754" lon="8.4058483"><ele>152.0</ele><time>2026-04-19T11:44:48.959Z</time></trkpt><trkpt lat="45.4276783" lon="8.4058967"><ele>152.0</ele><time>2026-04-19T11:44:49.96Z</time></trkpt><trkpt lat="45.42781" lon="8.4059367"><ele>152.0</ele><time>2026-04-19T11:44:50.959Z</time></trkpt><trkpt lat="45.4279417" lon="8.4059633"><ele>152.0</ele><time>2026-04-19T11:44:51.959Z</time></trkpt><trkpt lat="45.42807" lon="8.40597"><ele>152.5</ele><time>2026-04-19T11:44:52.959Z</time></trkpt><trkpt lat="45.4281967" lon="8.405955"><ele>153.0</ele><time>2026-04-19T11:44:53.959Z</time></trkpt><trkpt lat="45.4283283" lon="8.4059333"><ele>153.5</ele><time>2026-04-19T11:44:54.96Z</time></trkpt><trkpt lat="45.42846" lon="8.405905"><ele>154.0</ele><time>2026-04-19T11:44:55.959Z</time></trkpt><trkpt lat="45.42859" lon="8.4058617"><ele>154.0</ele><time>2026-04-19T11:44:56.96Z</time></trkpt><trkpt lat="45.4287117" lon="8.4057967"><ele>154.0</ele><time>2026-04-19T11:44:57.96Z</time></trkpt><trkpt lat="45.4288317" lon="8.4057283"><ele>154.0</ele><time>2026-04-19T11:44:58.959Z</time></trkpt><trkpt lat="45.4289567" lon="8.40566"><ele>154.0</ele><time>2026-04-19T11:44:59.959Z</time></trkpt><trkpt lat="45.4290783" lon="8.4055833"><ele>153.75</ele><time>2026-04-19T11:45:00.96Z</time></trkpt><trkpt lat="45.429205" lon="8.4055133"><ele>153.5</ele><time>2026-04-19T11:45:01.959Z</time></trkpt><trkpt lat="45.42933" lon="8.405445"><ele>153.25</ele><time>2026-04-19T11:45:02.96Z</time></trkpt><trkpt lat="45.4294533" lon="8.40537"><ele>153.0</ele><time>2026-04-19T11:45:03.96Z</time></trkpt><trkpt lat="45.4295783" lon="8.4052933"><ele>153.5</ele><time>2026-04-19T11:45:04.96Z</time></trkpt><trkpt lat="45.4297117" lon="8.4052083"><ele>154.0</ele><time>2026-04-19T11:45:05.96Z</time></trkpt><trkpt lat="45.4298417" lon="8.4051383"><ele>154.5</ele><time>2026-04-19T11:45:06.96Z</time></trkpt><trkpt lat="45.4299733" lon="8.4050767"><ele>155.0</ele><time>2026-04-19T11:45:07.959Z</time></trkpt><trkpt lat="45.430105" lon="8.40501"><ele>155.0</ele><time>2026-04-19T11:45:08.959Z</time></trkpt><trkpt lat="45.43024" lon="8.4049333"><ele>155.0</ele><time>2026-04-19T11:45:09.959Z</time></trkpt><trkpt lat="45.4303817" lon="8.404845"><ele>155.0</ele><time>2026-04-19T11:45:10.959Z</time></trkpt><trkpt lat="45.4305167" lon="8.4047617"><ele>155.0</ele><time>2026-04-19T11:45:11.959Z</time></trkpt><trkpt lat="45.4306533" lon="8.404695"><ele>154.25</ele><time>2026-04-19T11:45:12.959Z</time></trkpt><trkpt lat="45.4307883" lon="8.4046217"><ele>153.5</ele><time>2026-04-19T11:45:13.96Z</time></trkpt><trkpt lat="45.43093" lon="8.40454"><ele>152.75</ele><time>2026-04-19T11:45:14.96Z</time></trkpt><trkpt lat="45.4310733" lon="8.4044683"><ele>152.0</ele><time>2026-04-19T11:45:15.96Z</time></trkpt><trkpt lat="45.4312083" lon="8.4043767"><ele>151.75</ele><time>2026-04-19T11:45:16.96Z</time></trkpt><trkpt lat="45.43134" lon="8.40429"><ele>151.5</ele><time>2026-04-19T11:45:17.959Z</time></trkpt><trkpt lat="45.4314767" lon="8.40421"><ele>151.25</ele><time>2026-04-19T11:45:18.959Z</time></trkpt><trkpt lat="45.4316133" lon="8.40413"><ele>151.0</ele><time>2026-04-19T11:45:19.96Z</time></trkpt><trkpt lat="45.4317533" lon="8.40405"><ele>151.0</ele><time>2026-04-19T11:45:20.959Z</time></trkpt><trkpt lat="45.431885" lon="8.403985"><ele>151.0</ele><time>2026-04-19T11:45:21.96Z</time></trkpt><trkpt lat="45.432025" lon="8.4039217"><ele>151.0</ele><time>2026-04-19T11:45:22.959Z</time></trkpt><trkpt lat="45.4321717" lon="8.4038733"><ele>151.0</ele><time>2026-04-19T11:45:23.96Z</time></trkpt><trkpt lat="45.43232" lon="8.40384"><ele>151.75</ele><time>2026-04-19T11:45:24.959Z</time></trkpt><trkpt lat="45.4324633" lon="8.4038083"><ele>152.5</ele><time>2026-04-19T11:45:25.96Z</time></trkpt><trkpt lat="45.432605" lon="8.4037883"><ele>153.25</ele><time>2026-04-19T11:45:26.96Z</time></trkpt><trkpt lat="45.4327483" lon="8.40378"><ele>154.0</ele><time>2026-04-19T11:45:27.959Z</time></trkpt><trkpt lat="45.4328917" lon="8.4037717"><ele>153.5</ele><time>2026-04-19T11:45:28.96Z</time></trkpt><trkpt lat="45.4330383" lon="8.403765"><ele>153.0</ele><time>2026-04-19T11:45:29.959Z</time></trkpt><trkpt lat="45.4331767" lon="8.40375"><ele>152.5</ele><time>2026-04-19T11:45:30.96Z</time></trkpt><trkpt lat="45.4333133" lon="8.403735"><ele>152.0</ele><time>2026-04-19T11:45:31.96Z</time></trkpt><trkpt lat="45.43346" lon="8.4037083"><ele>152.0</ele><time>2026-04-19T11:45:32.96Z</time></trkpt><trkpt lat="45.4335967" lon="8.403695"><ele>152.0</ele><time>2026-04-19T11:45:33.959Z</time></trkpt><trkpt lat="45.4337383" lon="8.4036867"><ele>152.0</ele><time>2026-04-19T11:45:34.96Z</time></trkpt><trkpt lat="45.43388" lon="8.4036733"><ele>152.0</ele><time>2026-04-19T11:45:35.96Z</time></trkpt><trkpt lat="45.4340233" lon="8.4036617"><ele>152.5</ele><time>2026-04-19T11:45:36.96Z</time></trkpt><trkpt lat="45.4341717" lon="8.4036417"><ele>153.0</ele><time>2026-04-19T11:45:37.96Z</time></trkpt><trkpt lat="45.4343167" lon="8.4036217"><ele>153.5</ele><time>2026-04-19T11:45:38.96Z</time></trkpt><trkpt lat="45.43446" lon="8.4035967"><ele>154.0</ele><time>2026-04-19T11:45:39.959Z</time></trkpt><trkpt lat="45.4346" lon="8.4035767"><ele>153.75</ele><time>2026-04-19T11:45:40.96Z</time></trkpt><trkpt lat="45.4347317" lon="8.4035567"><ele>153.5</ele><time>2026-04-19T11:45:41.959Z</time></trkpt><trkpt lat="45.4348617" lon="8.4035417"><ele>153.25</ele><time>2026-04-19T11:45:42.96Z</time></trkpt><trkpt lat="45.4349933" lon="8.4035367"><ele>153.0</ele><time>2026-04-19T11:45:43.96Z</time></trkpt><trkpt lat="45.435125" lon="8.4035183"><ele>153.0</ele><time>2026-04-19T11:45:44.959Z</time></trkpt><trkpt lat="45.4352583" lon="8.4035017"><ele>153.0</ele><time>2026-04-19T11:45:45.96Z</time></trkpt><trkpt lat="45.4353933" lon="8.4034983"><ele>153.0</ele><time>2026-04-19T11:45:46.959Z</time></trkpt><trkpt lat="45.435525" lon="8.4035017"><ele>153.0</ele><time>2026-04-19T11:45:47.959Z</time></trkpt><trkpt lat="45.4356433" lon="8.403495"><ele>152.6</ele><time>2026-04-19T11:45:48.959Z</time></trkpt><trkpt lat="45.4357467" lon="8.4034917"><ele>152.20000000000002</ele><time>2026-04-19T11:45:49.96Z</time></trkpt><trkpt lat="45.4358533" lon="8.4035033"><ele>151.8</ele><time>2026-04-19T11:45:50.959Z</time></trkpt><trkpt lat="45.4359617" lon="8.403525"><ele>151.4</ele><time>2026-04-19T11:45:51.96Z</time></trkpt><trkpt lat="45.4360717" lon="8.40356"><ele>151.0</ele><time>2026-04-19T11:45:52.96Z</time></trkpt><trkpt lat="45.4361733" lon="8.403595"><ele>151.0</ele><time>2026-04-19T11:45:53.96Z</time></trkpt><trkpt lat="45.4362717" lon="8.4036217"><ele>151.0</ele><time>2026-04-19T11:45:54.96Z</time></trkpt><trkpt lat="45.4363683" lon="8.4036567"><ele>151.0</ele><time>2026-04-19T11:45:55.96Z</time></trkpt><trkpt lat="45.436465" lon="8.40368"><ele>151.0</ele><time>2026-04-19T11:45:56.96Z</time></trkpt><trkpt lat="45.43656" lon="8.40369"><ele>151.0</ele><time>2026-04-19T11:45:57.96Z</time></trkpt><trkpt lat="45.4366533" lon="8.40371"><ele>151.0</ele><time>2026-04-19T11:45:58.96Z</time></trkpt><trkpt lat="45.436755" lon="8.40373"><ele>151.0</ele><time>2026-04-19T11:45:59.96Z</time></trkpt><trkpt lat="45.4368533" lon="8.403755"><ele>151.0</ele><time>2026-04-19T11:46:00.959Z</time></trkpt><trkpt lat="45.4369583" lon="8.4037767"><ele>151.0</ele><time>2026-04-19T11:46:01.959Z</time></trkpt><trkpt lat="45.4370617" lon="8.403785"><ele>151.0</ele><time>2026-04-19T11:46:02.96Z</time></trkpt><trkpt lat="45.437165" lon="8.40379"><ele>150.6</ele><time>2026-04-19T11:46:03.96Z</time></trkpt><trkpt lat="45.43726" lon="8.40379"><ele>150.2</ele><time>2026-04-19T11:46:04.959Z</time></trkpt><trkpt lat="45.437355" lon="8.4038067"><ele>149.8</ele><time>2026-04-19T11:46:05.96Z</time></trkpt><trkpt lat="45.4374567" lon="8.4038033"><ele>149.4</ele><time>2026-04-19T11:46:06.96Z</time></trkpt><trkpt lat="45.4375667" lon="8.4038167"><ele>149.0</ele><time>2026-04-19T11:46:07.96Z</time></trkpt><trkpt lat="45.4376733" lon="8.4038267"><ele>149.6</ele><time>2026-04-19T11:46:08.96Z</time></trkpt><trkpt lat="45.437775" lon="8.403835"><ele>150.2</ele><time>2026-04-19T11:46:09.959Z</time></trkpt><trkpt lat="45.4378817" lon="8.4038383"><ele>150.79999999999998</ele><time>2026-04-19T11:46:10.96Z</time></trkpt><trkpt lat="45.438" lon="8.4038467"><ele>151.4</ele><time>2026-04-19T11:46:11.959Z</time></trkpt><trkpt lat="45.43811" lon="8.403855"><ele>152.0</ele><time>2026-04-19T11:46:12.96Z</time></trkpt><trkpt lat="45.4382217" lon="8.4038583"><ele>152.2</ele><time>2026-04-19T11:46:13.959Z</time></trkpt><trkpt lat="45.43833" lon="8.4038633"><ele>152.39999999999998</ele><time>2026-04-19T11:46:14.96Z</time></trkpt><trkpt lat="45.4384417" lon="8.4038583"><ele>152.60000000000002</ele><time>2026-04-19T11:46:15.96Z</time></trkpt><trkpt lat="45.438545" lon="8.4038583"><ele>152.8</ele><time>2026-04-19T11:46:16.96Z</time></trkpt><trkpt lat="45.4386517" lon="8.40385"><ele>153.0</ele><time>2026-04-19T11:46:17.959Z</time></trkpt><trkpt lat="45.4387617" lon="8.4038383"><ele>153.0</ele><time>2026-04-19T11:46:18.96Z</time></trkpt><trkpt lat="45.43887" lon="8.40383"><ele>153.0</ele><time>2026-04-19T11:46:19.959Z</time></trkpt><trkpt lat="45.43898" lon="8.4038167"><ele>153.0</ele><time>2026-04-19T11:46:20.959Z</time></trkpt><trkpt lat="45.4390933" lon="8.4038167"><ele>153.0</ele><time>2026-04-19T11:46:21.96Z</time></trkpt><trkpt lat="45.439205" lon="8.4038233"><ele>153.0</ele><time>2026-04-19T11:46:22.96Z</time></trkpt><trkpt lat="45.4393167" lon="8.40383"><ele>153.25</ele><time>2026-04-19T11:46:23.96Z</time></trkpt><trkpt lat="45.4394217" lon="8.4038367"><ele>153.5</ele><time>2026-04-19T11:46:24.96Z</time></trkpt><trkpt lat="45.43954" lon="8.4038367"><ele>153.75</ele><time>2026-04-19T11:46:25.96Z</time></trkpt><trkpt lat="45.43966" lon="8.403825"><ele>154.0</ele><time>2026-04-19T11:46:26.96Z</time></trkpt><trkpt lat="45.4397867" lon="8.4038117"><ele>154.0</ele><time>2026-04-19T11:46:27.96Z</time></trkpt><trkpt lat="45.4399083" lon="8.4038117"><ele>154.0</ele><time>2026-04-19T11:46:28.96Z</time></trkpt><trkpt lat="45.440035" lon="8.4038133"><ele>154.0</ele><time>2026-04-19T11:46:29.959Z</time></trkpt><trkpt lat="45.4401583" lon="8.40381"><ele>154.0</ele><time>2026-04-19T11:46:30.96Z</time></trkpt><trkpt lat="45.440275" lon="8.4038"><ele>154.0</ele><time>2026-04-19T11:46:31.96Z</time></trkpt><trkpt lat="45.44039" lon="8.4038033"><ele>154.0</ele><time>2026-04-19T11:46:32.96Z</time></trkpt><trkpt lat="45.4405117" lon="8.403805"><ele>154.0</ele><time>2026-04-19T11:46:33.959Z</time></trkpt><trkpt lat="45.44063" lon="8.403805"><ele>154.0</ele><time>2026-04-19T11:46:34.959Z</time></trkpt><trkpt lat="45.440755" lon="8.40381"><ele>154.0</ele><time>2026-04-19T11:46:35.96Z</time></trkpt><trkpt lat="45.4408767" lon="8.4038083"><ele>154.0</ele><time>2026-04-19T11:46:36.96Z</time></trkpt><trkpt lat="45.440995" lon="8.403805"><ele>154.0</ele><time>2026-04-19T11:46:37.96Z</time></trkpt><trkpt lat="45.4411117" lon="8.40381"><ele>154.0</ele><time>2026-04-19T11:46:38.96Z</time></trkpt><trkpt lat="45.4412317" lon="8.403805"><ele>154.0</ele><time>2026-04-19T11:46:39.959Z</time></trkpt><trkpt lat="45.4413517" lon="8.4038"><ele>154.0</ele><time>2026-04-19T11:46:40.96Z</time></trkpt><trkpt lat="45.4414783" lon="8.4037933"><ele>154.0</ele><time>2026-04-19T11:46:41.96Z</time></trkpt><trkpt lat="45.441605" lon="8.4038"><ele>154.0</ele><time>2026-04-19T11:46:42.96Z</time></trkpt><trkpt lat="45.4417317" lon="8.4037967"><ele>154.0</ele><time>2026-04-19T11:46:43.959Z</time></trkpt><trkpt lat="45.4418617" lon="8.4037933"><ele>154.0</ele><time>2026-04-19T11:46:44.96Z</time></trkpt><trkpt lat="45.4419933" lon="8.4037967"><ele>154.0</ele><time>2026-04-19T11:46:45.96Z</time></trkpt><trkpt lat="45.4421217" lon="8.4038"><ele>154.0</ele><time>2026-04-19T11:46:46.959Z</time></trkpt><trkpt lat="45.4422383" lon="8.403795"><ele>154.0</ele><time>2026-04-19T11:46:47.96Z</time></trkpt><trkpt lat="45.4423567" lon="8.4037967"><ele>154.0</ele><time>2026-04-19T11:46:48.96Z</time></trkpt><trkpt lat="45.4424783" lon="8.4037883"><ele>154.0</ele><time>2026-04-19T11:46:49.96Z</time></trkpt><trkpt lat="45.4426017" lon="8.4037783"><ele>154.0</ele><time>2026-04-19T11:46:50.959Z</time></trkpt><trkpt lat="45.4427217" lon="8.403775"><ele>154.0</ele><time>2026-04-19T11:46:51.96Z</time></trkpt><trkpt lat="45.44285" lon="8.4037733"><ele>154.0</ele><time>2026-04-19T11:46:52.959Z</time></trkpt><trkpt lat="45.4429783" lon="8.4037683"><ele>154.0</ele><time>2026-04-19T11:46:53.959Z</time></trkpt><trkpt lat="45.4431" lon="8.4037617"><ele>154.0</ele><time>2026-04-19T11:46:54.958Z</time></trkpt><trkpt lat="45.4432167" lon="8.4037333"><ele>154.0</ele><time>2026-04-19T11:46:55.959Z</time></trkpt><trkpt lat="45.4433417" lon="8.4036967"><ele>154.0</ele><time>2026-04-19T11:46:56.959Z</time></trkpt><trkpt lat="45.443475" lon="8.4036583"><ele>154.0</ele><time>2026-04-19T11:46:57.959Z</time></trkpt><trkpt lat="45.4435983" lon="8.403605"><ele>154.0</ele><time>2026-04-19T11:46:58.959Z</time></trkpt><trkpt lat="45.44372" lon="8.40354"><ele>154.5</ele><time>2026-04-19T11:46:59.959Z</time></trkpt><trkpt lat="45.44384" lon="8.4034717"><ele>155.0</ele><time>2026-04-19T11:47:00.959Z</time></trkpt><trkpt lat="45.4439583" lon="8.4033917"><ele>155.5</ele><time>2026-04-19T11:47:01.958Z</time></trkpt><trkpt lat="45.4440767" lon="8.403315"><ele>156.0</ele><time>2026-04-19T11:47:02.959Z</time></trkpt><trkpt lat="45.44419" lon="8.4032417"><ele>156.0</ele><time>2026-04-19T11:47:03.959Z</time></trkpt><trkpt lat="45.4443017" lon="8.4031583"><ele>156.0</ele><time>2026-04-19T11:47:04.959Z</time></trkpt><trkpt lat="45.444405" lon="8.4030717"><ele>156.0</ele><time>2026-04-19T11:47:05.958Z</time></trkpt><trkpt lat="45.4445033" lon="8.4029833"><ele>156.0</ele><time>2026-04-19T11:47:06.958Z</time></trkpt><trkpt lat="45.4445983" lon="8.402885"><ele>156.5</ele><time>2026-04-19T11:47:07.958Z</time></trkpt><trkpt lat="45.4447" lon="8.4027983"><ele>157.0</ele><time>2026-04-19T11:47:08.959Z</time></trkpt><trkpt lat="45.44481" lon="8.4027133"><ele>157.5</ele><time>2026-04-19T11:47:09.959Z</time></trkpt><trkpt lat="45.4449167" lon="8.40263"><ele>158.0</ele><time>2026-04-19T11:47:10.959Z</time></trkpt><trkpt lat="45.445015" lon="8.4025417"><ele>158.0</ele><time>2026-04-19T11:47:11.959Z</time></trkpt><trkpt lat="45.4451133" lon="8.4024417"><ele>158.0</ele><time>2026-04-19T11:47:12.959Z</time></trkpt><trkpt lat="45.44522" lon="8.4023433"><ele>158.0</ele><time>2026-04-19T11:47:13.958Z</time></trkpt><trkpt lat="45.4453233" lon="8.402245"><ele>158.0</ele><time>2026-04-19T11:47:14.959Z</time></trkpt><trkpt lat="45.445425" lon="8.4021433"><ele>157.75</ele><time>2026-04-19T11:47:15.959Z</time></trkpt><trkpt lat="45.4455283" lon="8.40205"><ele>157.5</ele><time>2026-04-19T11:47:16.959Z</time></trkpt><trkpt lat="45.44563" lon="8.4019683"><ele>157.25</ele><time>2026-04-19T11:47:17.958Z</time></trkpt><trkpt lat="45.4457367" lon="8.40188"><ele>157.0</ele><time>2026-04-19T11:47:18.958Z</time></trkpt><trkpt lat="45.4458633" lon="8.4018117"><ele>157.0</ele><time>2026-04-19T11:47:19.959Z</time></trkpt><trkpt lat="45.44598" lon="8.4017533"><ele>157.0</ele><time>2026-04-19T11:47:20.959Z</time></trkpt><trkpt lat="45.4461" lon="8.4017167"><ele>157.0</ele><time>2026-04-19T11:47:21.959Z</time></trkpt><trkpt lat="45.4462267" lon="8.4016833"><ele>157.0</ele><time>2026-04-19T11:47:22.959Z</time></trkpt><trkpt lat="45.4463683" lon="8.4016483"><ele>156.75</ele><time>2026-04-19T11:47:23.959Z</time></trkpt><trkpt lat="45.4464967" lon="8.4016117"><ele>156.5</ele><time>2026-04-19T11:47:24.958Z</time></trkpt><trkpt lat="45.446625" lon="8.401575"><ele>156.25</ele><time>2026-04-19T11:47:25.959Z</time></trkpt><trkpt lat="45.4467433" lon="8.40154"><ele>156.0</ele><time>2026-04-19T11:47:26.958Z</time></trkpt><trkpt lat="45.44686" lon="8.401505"><ele>156.0</ele><time>2026-04-19T11:47:27.959Z</time></trkpt><trkpt lat="45.4469817" lon="8.401475"><ele>156.0</ele><time>2026-04-19T11:47:28.959Z</time></trkpt><trkpt lat="45.447105" lon="8.4014367"><ele>156.0</ele><time>2026-04-19T11:47:29.958Z</time></trkpt><trkpt lat="45.4472267" lon="8.4014017"><ele>156.0</ele><time>2026-04-19T11:47:30.959Z</time></trkpt><trkpt lat="45.4473483" lon="8.40137"><ele>156.25</ele><time>2026-04-19T11:47:31.959Z</time></trkpt><trkpt lat="45.4474717" lon="8.4013533"><ele>156.5</ele><time>2026-04-19T11:47:32.959Z</time></trkpt><trkpt lat="45.4475967" lon="8.4013383"><ele>156.75</ele><time>2026-04-19T11:47:33.958Z</time></trkpt><trkpt lat="45.4477167" lon="8.4013233"><ele>157.0</ele><time>2026-04-19T11:47:34.959Z</time></trkpt><trkpt lat="45.447835" lon="8.4013133"><ele>157.0</ele><time>2026-04-19T11:47:35.959Z</time></trkpt><trkpt lat="45.4479567" lon="8.4013217"><ele>157.0</ele><time>2026-04-19T11:47:36.959Z</time></trkpt><trkpt lat="45.4480833" lon="8.4013533"><ele>157.0</ele><time>2026-04-19T11:47:37.958Z</time></trkpt><trkpt lat="45.448205" lon="8.4013867"><ele>157.0</ele><time>2026-04-19T11:47:38.959Z</time></trkpt><trkpt lat="45.448305" lon="8.401425"><ele>157.33333333333334</ele><time>2026-04-19T11:47:39.958Z</time></trkpt><trkpt lat="45.4484083" lon="8.4014533"><ele>157.66666666666669</ele><time>2026-04-19T11:47:40.958Z</time></trkpt><trkpt lat="45.4485183" lon="8.4014933"><ele>158.0</ele><time>2026-04-19T11:47:41.959Z</time></trkpt><trkpt lat="45.4486067" lon="8.4015317"><ele>158.33333333333334</ele><time>2026-04-19T11:47:42.959Z</time></trkpt><trkpt lat="45.4486717" lon="8.401565"><ele>158.66666666666666</ele><time>2026-04-19T11:47:43.959Z</time></trkpt><trkpt lat="45.4487333" lon="8.40161"><ele>159.0</ele><time>2026-04-19T11:47:45.958Z</time></trkpt><trkpt lat="45.44868" lon="8.401545"><ele>159.0</ele><time>2026-04-19T11:48:05.959Z</time></trkpt><trkpt lat="45.4486517" lon="8.4014267"><ele>159.0</ele><time>2026-04-19T11:48:08.958Z</time></trkpt><trkpt lat="45.4486333" lon="8.4013083"><ele>159.0</ele><time>2026-04-19T11:48:10.959Z</time></trkpt><trkpt lat="45.4485783" lon="8.4012383"><ele>159.0</ele><time>2026-04-19T11:48:12.958Z</time></trkpt><trkpt lat="45.448495" lon="8.4011983"><ele>159.0</ele><time>2026-04-19T11:48:14.958Z</time></trkpt><trkpt lat="45.44838" lon="8.4012167"><ele>159.0</ele><time>2026-04-19T11:48:16.958Z</time></trkpt><trkpt lat="45.4482767" lon="8.4012517"><ele>159.0</ele><time>2026-04-19T11:48:18.959Z</time></trkpt><trkpt lat="45.4483533" lon="8.4011833"><ele>159.0</ele><time>2026-04-19T11:48:24.958Z</time></trkpt><trkpt lat="45.44843" lon="8.4011967"><ele>159.0</ele><time>2026-04-19T11:48:25.958Z</time></trkpt><trkpt lat="45.4485083" lon="8.40121"><ele>159.0</ele><time>2026-04-19T11:48:26.959Z</time></trkpt><trkpt lat="45.4485783" lon="8.4012417"><ele>159.0</ele><time>2026-04-19T11:48:27.958Z</time></trkpt><trkpt lat="45.4486633" lon="8.4013517"><ele>159.0</ele><time>2026-04-19T11:48:29.959Z</time></trkpt><trkpt lat="45.4486783" lon="8.4014633"><ele>159.0</ele><time>2026-04-19T11:48:31.959Z</time></trkpt><trkpt lat="45.4487267" lon="8.401585"><ele>159.0</ele><time>2026-04-19T11:48:33.958Z</time></trkpt><trkpt lat="45.4488617" lon="8.4016517"><ele>159.0</ele><time>2026-04-19T11:48:35.958Z</time></trkpt><trkpt lat="45.4489483" lon="8.4016783"><ele>159.0</ele><time>2026-04-19T11:48:36.959Z</time></trkpt><trkpt lat="45.449045" lon="8.4017117"><ele>158.8</ele><time>2026-04-19T11:48:37.958Z</time></trkpt><trkpt lat="45.449145" lon="8.4017433"><ele>158.60000000000002</ele><time>2026-04-19T11:48:38.959Z</time></trkpt><trkpt lat="45.44925" lon="8.4017867"><ele>158.4</ele><time>2026-04-19T11:48:39.959Z</time></trkpt><trkpt lat="45.4493633" lon="8.4018283"><ele>158.20000000000002</ele><time>2026-04-19T11:48:40.958Z</time></trkpt><trkpt lat="45.44948" lon="8.401865"><ele>158.0</ele><time>2026-04-19T11:48:41.959Z</time></trkpt><trkpt lat="45.4495967" lon="8.401905"><ele>158.75</ele><time>2026-04-19T11:48:42.959Z</time></trkpt><trkpt lat="45.4497117" lon="8.40194"><ele>159.5</ele><time>2026-04-19T11:48:43.959Z</time></trkpt><trkpt lat="45.4498283" lon="8.4019767"><ele>160.25</ele><time>2026-04-19T11:48:44.959Z</time></trkpt><trkpt lat="45.449945" lon="8.4020183"><ele>161.0</ele><time>2026-04-19T11:48:45.958Z</time></trkpt><trkpt lat="45.4500583" lon="8.4020517"><ele>161.0</ele><time>2026-04-19T11:48:46.959Z</time></trkpt><trkpt lat="45.45016" lon="8.4020733"><ele>161.0</ele><time>2026-04-19T11:48:47.958Z</time></trkpt><trkpt lat="45.4502483" lon="8.402085"><ele>161.0</ele><time>2026-04-19T11:48:48.958Z</time></trkpt><trkpt lat="45.4503217" lon="8.40209"><ele>161.0</ele><time>2026-04-19T11:48:49.959Z</time></trkpt><trkpt lat="45.450385" lon="8.4021133"><ele>161.0</ele><time>2026-04-19T11:48:50.959Z</time></trkpt><trkpt lat="45.4504883" lon="8.4021517"><ele>161.0</ele><time>2026-04-19T11:48:52.959Z</time></trkpt><trkpt lat="45.4505667" lon="8.402145"><ele>160.83333333333331</ele><time>2026-04-19T11:48:54.959Z</time></trkpt><trkpt lat="45.4506733" lon="8.4021317"><ele>160.66666666666666</ele><time>2026-04-19T11:48:56.959Z</time></trkpt><trkpt lat="45.4507367" lon="8.40213"><ele>160.5</ele><time>2026-04-19T11:48:57.959Z</time></trkpt><trkpt lat="45.45081" lon="8.4021333"><ele>160.33333333333334</ele><time>2026-04-19T11:48:58.958Z</time></trkpt><trkpt lat="45.4508833" lon="8.4021333"><ele>160.16666666666669</ele><time>2026-04-19T11:48:59.959Z</time></trkpt><trkpt lat="45.4509667" lon="8.4021467"><ele>160.0</ele><time>2026-04-19T11:49:00.959Z</time></trkpt><trkpt lat="45.4510517" lon="8.4021567"><ele>159.8</ele><time>2026-04-19T11:49:01.958Z</time></trkpt><trkpt lat="45.451145" lon="8.4021683"><ele>159.6</ele><time>2026-04-19T11:49:02.958Z</time></trkpt><trkpt lat="45.4512417" lon="8.40218"><ele>159.4</ele><time>2026-04-19T11:49:03.958Z</time></trkpt><trkpt lat="45.45134" lon="8.4021917"><ele>159.2</ele><time>2026-04-19T11:49:04.958Z</time></trkpt><trkpt lat="45.4514383" lon="8.4021983"><ele>159.0</ele><time>2026-04-19T11:49:05.959Z</time></trkpt><trkpt lat="45.4515333" lon="8.402205"><ele>159.0</ele><time>2026-04-19T11:49:06.958Z</time></trkpt><trkpt lat="45.4516267" lon="8.4022267"><ele>159.0</ele><time>2026-04-19T11:49:07.959Z</time></trkpt><trkpt lat="45.45173" lon="8.4022417"><ele>159.0</ele><time>2026-04-19T11:49:08.959Z</time></trkpt><trkpt lat="45.4518283" lon="8.4022567"><ele>159.0</ele><time>2026-04-19T11:49:09.959Z</time></trkpt><trkpt lat="45.451925" lon="8.402275"><ele>159.0</ele><time>2026-04-19T11:49:10.958Z</time></trkpt><trkpt lat="45.4520217" lon="8.4022917"><ele>159.0</ele><time>2026-04-19T11:49:11.959Z</time></trkpt><trkpt lat="45.4521117" lon="8.402305"><ele>159.0</ele><time>2026-04-19T11:49:12.958Z</time></trkpt><trkpt lat="45.4522067" lon="8.4023167"><ele>159.0</ele><time>2026-04-19T11:49:13.959Z</time></trkpt><trkpt lat="45.4522967" lon="8.402325"><ele>159.0</ele><time>2026-04-19T11:49:14.959Z</time></trkpt><trkpt lat="45.4523967" lon="8.40234"><ele>159.0</ele><time>2026-04-19T11:49:15.958Z</time></trkpt><trkpt lat="45.4524967" lon="8.4023467"><ele>159.0</ele><time>2026-04-19T11:49:16.958Z</time></trkpt><trkpt lat="45.4525917" lon="8.40235"><ele>159.0</ele><time>2026-04-19T11:49:17.959Z</time></trkpt><trkpt lat="45.45269" lon="8.4023483"><ele>159.0</ele><time>2026-04-19T11:49:18.959Z</time></trkpt><trkpt lat="45.45278" lon="8.4023633"><ele>159.0</ele><time>2026-04-19T11:49:19.958Z</time></trkpt><trkpt lat="45.4528817" lon="8.402385"><ele>159.0</ele><time>2026-04-19T11:49:20.958Z</time></trkpt><trkpt lat="45.4529783" lon="8.4024"><ele>159.0</ele><time>2026-04-19T11:49:21.959Z</time></trkpt><trkpt lat="45.4530733" lon="8.402415"><ele>159.0</ele><time>2026-04-19T11:49:22.959Z</time></trkpt><trkpt lat="45.4531667" lon="8.402425"><ele>159.0</ele><time>2026-04-19T11:49:23.958Z</time></trkpt><trkpt lat="45.4532583" lon="8.4024233"><ele>159.0</ele><time>2026-04-19T11:49:24.959Z</time></trkpt><trkpt lat="45.4533583" lon="8.4024217"><ele>159.0</ele><time>2026-04-19T11:49:25.959Z</time></trkpt><trkpt lat="45.4534533" lon="8.4024283"><ele>159.0</ele><time>2026-04-19T11:49:26.958Z</time></trkpt><trkpt lat="45.4535417" lon="8.4024283"><ele>159.0</ele><time>2026-04-19T11:49:27.959Z</time></trkpt><trkpt lat="45.45362" lon="8.4024167"><ele>159.0</ele><time>2026-04-19T11:49:28.959Z</time></trkpt><trkpt lat="45.4536833" lon="8.4024067"><ele>159.0</ele><time>2026-04-19T11:49:29.958Z</time></trkpt><trkpt lat="45.4537783" lon="8.40239"><ele>159.0</ele><time>2026-04-19T11:49:31.958Z</time></trkpt><trkpt lat="45.453845" lon="8.4023683"><ele>159.0</ele><time>2026-04-19T11:49:33.959Z</time></trkpt><trkpt lat="45.4539167" lon="8.4023583"><ele>159.33333333333334</ele><time>2026-04-19T11:49:37.959Z</time></trkpt><trkpt lat="45.4539783" lon="8.4023983"><ele>159.66666666666666</ele><time>2026-04-19T11:51:11.958Z</time></trkpt><trkpt lat="45.4540117" lon="8.40255"><ele>160.0</ele><time>2026-04-19T11:51:13.957Z</time></trkpt><trkpt lat="45.4540133" lon="8.4026467"><ele>160.33333333333331</ele><time>2026-04-19T11:51:14.957Z</time></trkpt><trkpt lat="45.454" lon="8.402765"><ele>160.66666666666666</ele><time>2026-04-19T11:51:15.957Z</time></trkpt><trkpt lat="45.4539717" lon="8.4028933"><ele>161.0</ele><time>2026-04-19T11:51:16.958Z</time></trkpt><trkpt lat="45.45393" lon="8.4030267"><ele>160.0</ele><time>2026-04-19T11:51:17.957Z</time></trkpt><trkpt lat="45.453885" lon="8.4031733"><ele>159.0</ele><time>2026-04-19T11:51:18.958Z</time></trkpt><trkpt lat="45.4538317" lon="8.4033367"><ele>158.0</ele><time>2026-04-19T11:51:19.957Z</time></trkpt><trkpt lat="45.4537783" lon="8.4035083"><ele>157.0</ele><time>2026-04-19T11:51:20.958Z</time></trkpt><trkpt lat="45.4537183" lon="8.4036833"><ele>157.25</ele><time>2026-04-19T11:51:21.958Z</time></trkpt><trkpt lat="45.45366" lon="8.4038467"><ele>157.5</ele><time>2026-04-19T11:51:22.958Z</time></trkpt><trkpt lat="45.4535967" lon="8.4040117"><ele>157.75</ele><time>2026-04-19T11:51:23.958Z</time></trkpt><trkpt lat="45.4535383" lon="8.4041717"><ele>158.0</ele><time>2026-04-19T11:51:24.958Z</time></trkpt><trkpt lat="45.4534833" lon="8.404325"><ele>158.0</ele><time>2026-04-19T11:51:25.958Z</time></trkpt><trkpt lat="45.453425" lon="8.4044683"><ele>158.0</ele><time>2026-04-19T11:51:26.957Z</time></trkpt><trkpt lat="45.4533683" lon="8.404605"><ele>158.0</ele><time>2026-04-19T11:51:27.958Z</time></trkpt><trkpt lat="45.4533167" lon="8.40474"><ele>158.0</ele><time>2026-04-19T11:51:28.957Z</time></trkpt><trkpt lat="45.4532683" lon="8.40488"><ele>158.0</ele><time>2026-04-19T11:51:29.958Z</time></trkpt><trkpt lat="45.45323" lon="8.40502"><ele>158.0</ele><time>2026-04-19T11:51:30.957Z</time></trkpt><trkpt lat="45.4531967" lon="8.4051633"><ele>158.0</ele><time>2026-04-19T11:51:31.958Z</time></trkpt><trkpt lat="45.4531717" lon="8.4052967"><ele>158.0</ele><time>2026-04-19T11:51:32.958Z</time></trkpt><trkpt lat="45.453145" lon="8.4054117"><ele>158.0</ele><time>2026-04-19T11:51:33.957Z</time></trkpt><trkpt lat="45.4531233" lon="8.4055183"><ele>158.0</ele><time>2026-04-19T11:51:34.958Z</time></trkpt><trkpt lat="45.453115" lon="8.4056233"><ele>158.0</ele><time>2026-04-19T11:51:35.957Z</time></trkpt><trkpt lat="45.4531217" lon="8.40572"><ele>158.20000000000002</ele><time>2026-04-19T11:51:36.957Z</time></trkpt><trkpt lat="45.4531517" lon="8.405825"><ele>158.4</ele><time>2026-04-19T11:51:37.957Z</time></trkpt><trkpt lat="45.4532033" lon="8.4059367"><ele>158.60000000000002</ele><time>2026-04-19T11:51:38.957Z</time></trkpt><trkpt lat="45.4532767" lon="8.406055"><ele>158.8</ele><time>2026-04-19T11:51:39.958Z</time></trkpt><trkpt lat="45.4533733" lon="8.4061933"><ele>159.0</ele><time>2026-04-19T11:51:40.957Z</time></trkpt><trkpt lat="45.45346" lon="8.4063217"><ele>158.8</ele><time>2026-04-19T11:51:41.957Z</time></trkpt><trkpt lat="45.4535433" lon="8.4064367"><ele>158.60000000000002</ele><time>2026-04-19T11:51:42.958Z</time></trkpt><trkpt lat="45.45361" lon="8.4065433"><ele>158.4</ele><time>2026-04-19T11:51:43.958Z</time></trkpt><trkpt lat="45.45367" lon="8.406665"><ele>158.20000000000002</ele><time>2026-04-19T11:51:44.958Z</time></trkpt><trkpt lat="45.4537183" lon="8.40678"><ele>158.0</ele><time>2026-04-19T11:51:45.958Z</time></trkpt><trkpt lat="45.45377" lon="8.4069033"><ele>158.5</ele><time>2026-04-19T11:51:46.958Z</time></trkpt><trkpt lat="45.453845" lon="8.4070333"><ele>159.0</ele><time>2026-04-19T11:51:47.958Z</time></trkpt><trkpt lat="45.4539183" lon="8.4071767"><ele>159.5</ele><time>2026-04-19T11:51:48.957Z</time></trkpt><trkpt lat="45.45399" lon="8.4073233"><ele>160.0</ele><time>2026-04-19T11:51:49.958Z</time></trkpt><trkpt lat="45.4540517" lon="8.40747"><ele>160.0</ele><time>2026-04-19T11:51:50.957Z</time></trkpt><trkpt lat="45.4541" lon="8.40762"><ele>160.0</ele><time>2026-04-19T11:51:51.957Z</time></trkpt><trkpt lat="45.4541383" lon="8.40778"><ele>160.0</ele><time>2026-04-19T11:51:52.957Z</time></trkpt><trkpt lat="45.4541517" lon="8.4079517"><ele>160.0</ele><time>2026-04-19T11:51:53.958Z</time></trkpt><trkpt lat="45.45415" lon="8.408125"><ele>159.75</ele><time>2026-04-19T11:51:54.957Z</time></trkpt><trkpt lat="45.4541233" lon="8.4082883"><ele>159.5</ele><time>2026-04-19T11:51:55.957Z</time></trkpt><trkpt lat="45.45408" lon="8.40844"><ele>159.25</ele><time>2026-04-19T11:51:56.958Z</time></trkpt><trkpt lat="45.454" lon="8.4086033"><ele>159.0</ele><time>2026-04-19T11:51:57.958Z</time></trkpt><trkpt lat="45.4539067" lon="8.40876"><ele>159.0</ele><time>2026-04-19T11:51:58.957Z</time></trkpt><trkpt lat="45.453815" lon="8.4088967"><ele>159.0</ele><time>2026-04-19T11:51:59.957Z</time></trkpt><trkpt lat="45.4537417" lon="8.4090367"><ele>159.0</ele><time>2026-04-19T11:52:00.957Z</time></trkpt><trkpt lat="45.4537067" lon="8.4091983"><ele>159.0</ele><time>2026-04-19T11:52:01.958Z</time></trkpt><trkpt lat="45.453695" lon="8.4093533"><ele>159.0</ele><time>2026-04-19T11:52:02.958Z</time></trkpt><trkpt lat="45.4536967" lon="8.40951"><ele>159.0</ele><time>2026-04-19T11:52:03.958Z</time></trkpt><trkpt lat="45.4537317" lon="8.4096433"><ele>159.0</ele><time>2026-04-19T11:52:04.957Z</time></trkpt><trkpt lat="45.4538017" lon="8.409775"><ele>159.0</ele><time>2026-04-19T11:52:05.957Z</time></trkpt><trkpt lat="45.4538867" lon="8.4099"><ele>159.0</ele><time>2026-04-19T11:52:06.957Z</time></trkpt><trkpt lat="45.4539683" lon="8.4100267"><ele>159.0</ele><time>2026-04-19T11:52:07.958Z</time></trkpt><trkpt lat="45.4540283" lon="8.4101733"><ele>159.0</ele><time>2026-04-19T11:52:08.958Z</time></trkpt><trkpt lat="45.4540633" lon="8.4103233"><ele>159.0</ele><time>2026-04-19T11:52:09.958Z</time></trkpt><trkpt lat="45.4540917" lon="8.4104817"><ele>159.0</ele><time>2026-04-19T11:52:10.957Z</time></trkpt><trkpt lat="45.454145" lon="8.4106133"><ele>159.2</ele><time>2026-04-19T11:52:11.958Z</time></trkpt><trkpt lat="45.4542183" lon="8.410715"><ele>159.4</ele><time>2026-04-19T11:52:12.957Z</time></trkpt><trkpt lat="45.454315" lon="8.410805"><ele>159.6</ele><time>2026-04-19T11:52:13.957Z</time></trkpt><trkpt lat="45.454415" lon="8.4108967"><ele>159.8</ele><time>2026-04-19T11:52:14.958Z</time></trkpt><trkpt lat="45.454495" lon="8.41101"><ele>160.0</ele><time>2026-04-19T11:52:15.958Z</time></trkpt><trkpt lat="45.4545617" lon="8.411135"><ele>160.0</ele><time>2026-04-19T11:52:16.958Z</time></trkpt><trkpt lat="45.454605" lon="8.4112783"><ele>160.0</ele><time>2026-04-19T11:52:17.958Z</time></trkpt><trkpt lat="45.454635" lon="8.4114383"><ele>160.0</ele><time>2026-04-19T11:52:18.958Z</time></trkpt><trkpt lat="45.4546767" lon="8.4116217"><ele>160.0</ele><time>2026-04-19T11:52:19.958Z</time></trkpt><trkpt lat="45.4547217" lon="8.4118"><ele>160.25</ele><time>2026-04-19T11:52:20.957Z</time></trkpt><trkpt lat="45.4547533" lon="8.41196"><ele>160.5</ele><time>2026-04-19T11:52:21.957Z</time></trkpt><trkpt lat="45.4547733" lon="8.4121017"><ele>160.75</ele><time>2026-04-19T11:52:22.958Z</time></trkpt><trkpt lat="45.454775" lon="8.4122567"><ele>161.0</ele><time>2026-04-19T11:52:23.958Z</time></trkpt><trkpt lat="45.4547533" lon="8.4124317"><ele>160.5</ele><time>2026-04-19T11:52:24.957Z</time></trkpt><trkpt lat="45.4547117" lon="8.4126167"><ele>160.0</ele><time>2026-04-19T11:52:25.958Z</time></trkpt><trkpt lat="45.45468" lon="8.4128133"><ele>159.5</ele><time>2026-04-19T11:52:26.958Z</time></trkpt><trkpt lat="45.45465" lon="8.4129983"><ele>159.0</ele><time>2026-04-19T11:52:27.958Z</time></trkpt><trkpt lat="45.4546283" lon="8.4131883"><ele>159.0</ele><time>2026-04-19T11:52:28.957Z</time></trkpt><trkpt lat="45.45462" lon="8.4133617"><ele>159.0</ele><time>2026-04-19T11:52:29.958Z</time></trkpt><trkpt lat="45.4546367" lon="8.413545"><ele>159.0</ele><time>2026-04-19T11:52:30.958Z</time></trkpt><trkpt lat="45.4546767" lon="8.4137267"><ele>159.0</ele><time>2026-04-19T11:52:31.958Z</time></trkpt><trkpt lat="45.4547233" lon="8.4139133"><ele>159.25</ele><time>2026-04-19T11:52:32.958Z</time></trkpt><trkpt lat="45.4547633" lon="8.414095"><ele>159.5</ele><time>2026-04-19T11:52:33.957Z</time></trkpt><trkpt lat="45.4547917" lon="8.4142883"><ele>159.75</ele><time>2026-04-19T11:52:34.958Z</time></trkpt><trkpt lat="45.4548083" lon="8.4144917"><ele>160.0</ele><time>2026-04-19T11:52:35.958Z</time></trkpt><trkpt lat="45.4548217" lon="8.4147"><ele>160.5</ele><time>2026-04-19T11:52:36.957Z</time></trkpt><trkpt lat="45.4548367" lon="8.4148967"><ele>161.0</ele><time>2026-04-19T11:52:37.957Z</time></trkpt><trkpt lat="45.4548683" lon="8.4150817"><ele>161.5</ele><time>2026-04-19T11:52:38.958Z</time></trkpt><trkpt lat="45.45491" lon="8.415255"><ele>162.0</ele><time>2026-04-19T11:52:39.958Z</time></trkpt><trkpt lat="45.4549517" lon="8.41544"><ele>161.8</ele><time>2026-04-19T11:52:40.957Z</time></trkpt><trkpt lat="45.4549883" lon="8.4156183"><ele>161.6</ele><time>2026-04-19T11:52:41.957Z</time></trkpt><trkpt lat="45.4550183" lon="8.415775"><ele>161.4</ele><time>2026-04-19T11:52:42.958Z</time></trkpt><trkpt lat="45.455045" lon="8.41592"><ele>161.20000000000002</ele><time>2026-04-19T11:52:43.957Z</time></trkpt><trkpt lat="45.4550667" lon="8.416045"><ele>161.0</ele><time>2026-04-19T11:52:44.957Z</time></trkpt><trkpt lat="45.455075" lon="8.4161533"><ele>161.0</ele><time>2026-04-19T11:52:45.958Z</time></trkpt><trkpt lat="45.4550433" lon="8.4163133"><ele>161.0</ele><time>2026-04-19T11:52:47.958Z</time></trkpt><trkpt lat="45.4549633" lon="8.41643"><ele>161.0</ele><time>2026-04-19T11:52:49.957Z</time></trkpt><trkpt lat="45.454935" lon="8.4165233"><ele>161.0</ele><time>2026-04-19T11:52:50.957Z</time></trkpt><trkpt lat="45.454915" lon="8.4166533"><ele>161.0</ele><time>2026-04-19T11:52:51.958Z</time></trkpt><trkpt lat="45.4548833" lon="8.41682"><ele>161.0</ele><time>2026-04-19T11:52:52.958Z</time></trkpt><trkpt lat="45.4548533" lon="8.4169883"><ele>161.0</ele><time>2026-04-19T11:52:53.957Z</time></trkpt><trkpt lat="45.4548117" lon="8.4171583"><ele>161.0</ele><time>2026-04-19T11:52:54.958Z</time></trkpt><trkpt lat="45.4547733" lon="8.4173233"><ele>161.0</ele><time>2026-04-19T11:52:55.958Z</time></trkpt><trkpt lat="45.4547333" lon="8.4175017"><ele>161.0</ele><time>2026-04-19T11:52:56.958Z</time></trkpt><trkpt lat="45.454705" lon="8.4176783"><ele>161.0</ele><time>2026-04-19T11:52:57.958Z</time></trkpt><trkpt lat="45.4546783" lon="8.417845"><ele>161.0</ele><time>2026-04-19T11:52:58.957Z</time></trkpt><trkpt lat="45.4546533" lon="8.418"><ele>161.0</ele><time>2026-04-19T11:52:59.957Z</time></trkpt><trkpt lat="45.4546217" lon="8.4181567"><ele>161.0</ele><time>2026-04-19T11:53:00.957Z</time></trkpt><trkpt lat="45.4546" lon="8.4182983"><ele>161.0</ele><time>2026-04-19T11:53:01.958Z</time></trkpt><trkpt lat="45.4545867" lon="8.4184233"><ele>161.0</ele><time>2026-04-19T11:53:02.957Z</time></trkpt><trkpt lat="45.454585" lon="8.41853"><ele>161.0</ele><time>2026-04-19T11:53:03.958Z</time></trkpt><trkpt lat="45.4546017" lon="8.4186217"><ele>161.0</ele><time>2026-04-19T11:53:04.958Z</time></trkpt><trkpt lat="45.4546517" lon="8.4187633"><ele>161.0</ele><time>2026-04-19T11:53:06.958Z</time></trkpt><trkpt lat="45.4546333" lon="8.4189183"><ele>161.0</ele><time>2026-04-19T11:53:08.958Z</time></trkpt><trkpt lat="45.4546083" lon="8.4190267"><ele>161.0</ele><time>2026-04-19T11:53:09.958Z</time></trkpt><trkpt lat="45.4545733" lon="8.4191683"><ele>161.0</ele><time>2026-04-19T11:53:10.957Z</time></trkpt><trkpt lat="45.4545317" lon="8.41933"><ele>161.0</ele><time>2026-04-19T11:53:11.957Z</time></trkpt><trkpt lat="45.454495" lon="8.419495"><ele>161.0</ele><time>2026-04-19T11:53:12.957Z</time></trkpt><trkpt lat="45.454455" lon="8.4196683"><ele>161.0</ele><time>2026-04-19T11:53:13.957Z</time></trkpt><trkpt lat="45.4544167" lon="8.4198483"><ele>161.0</ele><time>2026-04-19T11:53:14.957Z</time></trkpt><trkpt lat="45.4543767" lon="8.42003"><ele>161.0</ele><time>2026-04-19T11:53:15.958Z</time></trkpt><trkpt lat="45.4543417" lon="8.4202083"><ele>161.0</ele><time>2026-04-19T11:53:16.958Z</time></trkpt><trkpt lat="45.4543117" lon="8.42039"><ele>160.75</ele><time>2026-04-19T11:53:17.957Z</time></trkpt><trkpt lat="45.4542867" lon="8.4205767"><ele>160.5</ele><time>2026-04-19T11:53:18.958Z</time></trkpt><trkpt lat="45.4542683" lon="8.420765"><ele>160.25</ele><time>2026-04-19T11:53:19.958Z</time></trkpt><trkpt lat="45.4542517" lon="8.4209533"><ele>160.0</ele><time>2026-04-19T11:53:20.958Z</time></trkpt><trkpt lat="45.454235" lon="8.4211317"><ele>160.0</ele><time>2026-04-19T11:53:21.957Z</time></trkpt><trkpt lat="45.4542183" lon="8.4213033"><ele>160.0</ele><time>2026-04-19T11:53:22.958Z</time></trkpt><trkpt lat="45.4542" lon="8.421465"><ele>160.0</ele><time>2026-04-19T11:53:23.958Z</time></trkpt><trkpt lat="45.4541817" lon="8.42162"><ele>160.0</ele><time>2026-04-19T11:53:24.957Z</time></trkpt><trkpt lat="45.4541583" lon="8.4217683"><ele>159.83333333333334</ele><time>2026-04-19T11:53:25.958Z</time></trkpt><trkpt lat="45.454135" lon="8.4219067"><ele>159.66666666666669</ele><time>2026-04-19T11:53:26.957Z</time></trkpt><trkpt lat="45.4541133" lon="8.4220383"><ele>159.5</ele><time>2026-04-19T11:53:27.957Z</time></trkpt><trkpt lat="45.454095" lon="8.4221567"><ele>159.33333333333334</ele><time>2026-04-19T11:53:28.958Z</time></trkpt><trkpt lat="45.4540917" lon="8.4222633"><ele>159.16666666666666</ele><time>2026-04-19T11:53:29.958Z</time></trkpt><trkpt lat="45.4541033" lon="8.422355"><ele>159.0</ele><time>2026-04-19T11:53:30.957Z</time></trkpt><trkpt lat="45.4542133" lon="8.4223967"><ele>159.16666666666666</ele><time>2026-04-19T11:53:32.958Z</time></trkpt><trkpt lat="45.4542933" lon="8.422365"><ele>159.33333333333334</ele><time>2026-04-19T11:53:33.957Z</time></trkpt><trkpt lat="45.4543733" lon="8.4223317"><ele>159.5</ele><time>2026-04-19T11:53:34.957Z</time></trkpt><trkpt lat="45.4544533" lon="8.4223017"><ele>159.66666666666669</ele><time>2026-04-19T11:53:35.958Z</time></trkpt><trkpt lat="45.4545433" lon="8.4223017"><ele>159.83333333333334</ele><time>2026-04-19T11:53:36.958Z</time></trkpt><trkpt lat="45.45464" lon="8.422325"><ele>160.0</ele><time>2026-04-19T11:53:37.958Z</time></trkpt><trkpt lat="45.4547383" lon="8.4223917"><ele>160.0</ele><time>2026-04-19T11:53:38.957Z</time></trkpt><trkpt lat="45.45483" lon="8.4225033"><ele>160.0</ele><time>2026-04-19T11:53:39.958Z</time></trkpt><trkpt lat="45.454905" lon="8.4226483"><ele>160.0</ele><time>2026-04-19T11:53:40.957Z</time></trkpt><trkpt lat="45.4549333" lon="8.422805"><ele>160.0</ele><time>2026-04-19T11:53:41.957Z</time></trkpt><trkpt lat="45.454925" lon="8.42297"><ele>160.25</ele><time>2026-04-19T11:53:42.957Z</time></trkpt><trkpt lat="45.4548867" lon="8.4231383"><ele>160.5</ele><time>2026-04-19T11:53:43.957Z</time></trkpt><trkpt lat="45.4548417" lon="8.4233283"><ele>160.75</ele><time>2026-04-19T11:53:44.958Z</time></trkpt><trkpt lat="45.4548" lon="8.42353"><ele>161.0</ele><time>2026-04-19T11:53:45.958Z</time></trkpt><trkpt lat="45.4547667" lon="8.4237333"><ele>160.66666666666666</ele><time>2026-04-19T11:53:46.957Z</time></trkpt><trkpt lat="45.4547317" lon="8.423955"><ele>160.33333333333334</ele><time>2026-04-19T11:53:47.957Z</time></trkpt><trkpt lat="45.4546967" lon="8.4241767"><ele>160.0</ele><time>2026-04-19T11:53:48.958Z</time></trkpt><trkpt lat="45.4546617" lon="8.4244033"><ele>160.0</ele><time>2026-04-19T11:53:49.958Z</time></trkpt><trkpt lat="45.4546317" lon="8.4246367"><ele>160.0</ele><time>2026-04-19T11:53:50.958Z</time></trkpt><trkpt lat="45.4546017" lon="8.4248633"><ele>160.0</ele><time>2026-04-19T11:53:51.958Z</time></trkpt><trkpt lat="45.45457" lon="8.425085"><ele>160.0</ele><time>2026-04-19T11:53:52.957Z</time></trkpt><trkpt lat="45.45454" lon="8.42531"><ele>160.0</ele><time>2026-04-19T11:53:53.958Z</time></trkpt><trkpt lat="45.4545067" lon="8.425535"><ele>160.0</ele><time>2026-04-19T11:53:54.957Z</time></trkpt><trkpt lat="45.4544733" lon="8.4257567"><ele>160.0</ele><time>2026-04-19T11:53:55.957Z</time></trkpt><trkpt lat="45.4544417" lon="8.4259883"><ele>160.0</ele><time>2026-04-19T11:53:56.957Z</time></trkpt><trkpt lat="45.4544133" lon="8.4262283"><ele>160.0</ele><time>2026-04-19T11:53:57.957Z</time></trkpt><trkpt lat="45.4543867" lon="8.42647"><ele>160.0</ele><time>2026-04-19T11:53:58.958Z</time></trkpt><trkpt lat="45.4543667" lon="8.4267183"><ele>160.0</ele><time>2026-04-19T11:53:59.958Z</time></trkpt><trkpt lat="45.454345" lon="8.4269683"><ele>160.0</ele><time>2026-04-19T11:54:00.958Z</time></trkpt><trkpt lat="45.454325" lon="8.42722"><ele>160.66666666666669</ele><time>2026-04-19T11:54:01.958Z</time></trkpt><trkpt lat="45.4543017" lon="8.4274533"><ele>161.33333333333334</ele><time>2026-04-19T11:54:02.957Z</time></trkpt><trkpt lat="45.4542767" lon="8.4276933"><ele>162.0</ele><time>2026-04-19T11:54:03.958Z</time></trkpt><trkpt lat="45.4542583" lon="8.4279333"><ele>161.33333333333334</ele><time>2026-04-19T11:54:04.957Z</time></trkpt><trkpt lat="45.4542433" lon="8.42817"><ele>160.66666666666669</ele><time>2026-04-19T11:54:05.957Z</time></trkpt><trkpt lat="45.45423" lon="8.4284167"><ele>160.0</ele><time>2026-04-19T11:54:06.958Z</time></trkpt><trkpt lat="45.4542117" lon="8.4286483"><ele>160.25</ele><time>2026-04-19T11:54:07.957Z</time></trkpt><trkpt lat="45.4541983" lon="8.4288683"><ele>160.5</ele><time>2026-04-19T11:54:08.958Z</time></trkpt><trkpt lat="45.454195" lon="8.42908"><ele>160.75</ele><time>2026-04-19T11:54:09.957Z</time></trkpt><trkpt lat="45.4541983" lon="8.4292833"><ele>161.0</ele><time>2026-04-19T11:54:10.958Z</time></trkpt><trkpt lat="45.4541933" lon="8.4294783"><ele>160.75</ele><time>2026-04-19T11:54:11.958Z</time></trkpt><trkpt lat="45.45419" lon="8.4296567"><ele>160.5</ele><time>2026-04-19T11:54:12.957Z</time></trkpt><trkpt lat="45.45419" lon="8.4298233"><ele>160.25</ele><time>2026-04-19T11:54:13.957Z</time></trkpt><trkpt lat="45.4541833" lon="8.42998"><ele>160.0</ele><time>2026-04-19T11:54:14.958Z</time></trkpt><trkpt lat="45.45418" lon="8.430135"><ele>160.0</ele><time>2026-04-19T11:54:15.958Z</time></trkpt><trkpt lat="45.4541783" lon="8.43026"><ele>160.0</ele><time>2026-04-19T11:54:16.957Z</time></trkpt><trkpt lat="45.4541833" lon="8.4303967"><ele>160.0</ele><time>2026-04-19T11:54:18.958Z</time></trkpt><trkpt lat="45.454205" lon="8.4305"><ele>160.0</ele><time>2026-04-19T11:54:21.958Z</time></trkpt><trkpt lat="45.4542017" lon="8.4306183"><ele>160.0</ele><time>2026-04-19T11:55:11.957Z</time></trkpt><trkpt lat="45.45419" lon="8.4307317"><ele>160.0</ele><time>2026-04-19T11:55:12.957Z</time></trkpt><trkpt lat="45.454175" lon="8.4308583"><ele>160.0</ele><time>2026-04-19T11:55:13.957Z</time></trkpt><trkpt lat="45.4541633" lon="8.4309933"><ele>160.0</ele><time>2026-04-19T11:55:14.957Z</time></trkpt><trkpt lat="45.4541683" lon="8.4311183"><ele>160.0</ele><time>2026-04-19T11:55:15.956Z</time></trkpt><trkpt lat="45.4542017" lon="8.4312183"><ele>160.0</ele><time>2026-04-19T11:55:16.956Z</time></trkpt><trkpt lat="45.4542517" lon="8.4312817"><ele>160.0</ele><time>2026-04-19T11:55:17.956Z</time></trkpt><trkpt lat="45.4543283" lon="8.431315"><ele>160.0</ele><time>2026-04-19T11:55:18.957Z</time></trkpt><trkpt lat="45.45442" lon="8.4313167"><ele>160.0</ele><time>2026-04-19T11:55:19.956Z</time></trkpt><trkpt lat="45.4545267" lon="8.4313067"><ele>160.0</ele><time>2026-04-19T11:55:20.957Z</time></trkpt><trkpt lat="45.4546467" lon="8.4313"><ele>160.0</ele><time>2026-04-19T11:55:21.956Z</time></trkpt><trkpt lat="45.4547733" lon="8.4312967"><ele>160.0</ele><time>2026-04-19T11:55:22.957Z</time></trkpt><trkpt lat="45.45491" lon="8.4312817"><ele>160.0</ele><time>2026-04-19T11:55:23.957Z</time></trkpt><trkpt lat="45.4550517" lon="8.4312783"><ele>160.0</ele><time>2026-04-19T11:55:24.957Z</time></trkpt><trkpt lat="45.4552017" lon="8.4312683"><ele>160.0</ele><time>2026-04-19T11:55:25.957Z</time></trkpt><trkpt lat="45.455345" lon="8.4312617"><ele>160.0</ele><time>2026-04-19T11:55:26.957Z</time></trkpt><trkpt lat="45.455485" lon="8.4312483"><ele>160.0</ele><time>2026-04-19T11:55:27.956Z</time></trkpt><trkpt lat="45.4556183" lon="8.4312367"><ele>160.0</ele><time>2026-04-19T11:55:28.956Z</time></trkpt><trkpt lat="45.45575" lon="8.431225"><ele>160.0</ele><time>2026-04-19T11:55:29.956Z</time></trkpt><trkpt lat="45.4558817" lon="8.431215"><ele>160.0</ele><time>2026-04-19T11:55:30.957Z</time></trkpt><trkpt lat="45.456" lon="8.4312017"><ele>160.0</ele><time>2026-04-19T11:55:31.957Z</time></trkpt><trkpt lat="45.4561083" lon="8.431195"><ele>160.0</ele><time>2026-04-19T11:55:32.956Z</time></trkpt><trkpt lat="45.4562067" lon="8.4312"><ele>160.0</ele><time>2026-04-19T11:55:33.957Z</time></trkpt><trkpt lat="45.4562833" lon="8.4312317"><ele>160.0</ele><time>2026-04-19T11:55:34.956Z</time></trkpt><trkpt lat="45.4563383" lon="8.43129"><ele>160.0</ele><time>2026-04-19T11:55:35.957Z</time></trkpt><trkpt lat="45.4564017" lon="8.43136"><ele>160.0</ele><time>2026-04-19T11:55:37.956Z</time></trkpt><trkpt lat="45.4564533" lon="8.43124"><ele>159.75</ele><time>2026-04-19T11:55:39.957Z</time></trkpt><trkpt lat="45.4564783" lon="8.4310967"><ele>159.5</ele><time>2026-04-19T11:55:40.957Z</time></trkpt><trkpt lat="45.4565033" lon="8.4309383"><ele>159.25</ele><time>2026-04-19T11:55:41.956Z</time></trkpt><trkpt lat="45.4565367" lon="8.4307817"><ele>159.0</ele><time>2026-04-19T11:55:42.956Z</time></trkpt><trkpt lat="45.4565783" lon="8.430615"><ele>159.25</ele><time>2026-04-19T11:55:43.956Z</time></trkpt><trkpt lat="45.4566567" lon="8.4304633"><ele>159.5</ele><time>2026-04-19T11:55:44.956Z</time></trkpt><trkpt lat="45.45675" lon="8.4303267"><ele>159.75</ele><time>2026-04-19T11:55:45.957Z</time></trkpt><trkpt lat="45.4568617" lon="8.4302"><ele>160.0</ele><time>2026-04-19T11:55:46.957Z</time></trkpt><trkpt lat="45.4569917" lon="8.4301117"><ele>159.66666666666669</ele><time>2026-04-19T11:55:47.956Z</time></trkpt><trkpt lat="45.4571317" lon="8.430065"><ele>159.33333333333334</ele><time>2026-04-19T11:55:48.957Z</time></trkpt><trkpt lat="45.4572867" lon="8.430035"><ele>159.0</ele><time>2026-04-19T11:55:49.956Z</time></trkpt><trkpt lat="45.4574483" lon="8.43001"><ele>159.0</ele><time>2026-04-19T11:55:50.956Z</time></trkpt><trkpt lat="45.45761" lon="8.42999"><ele>159.0</ele><time>2026-04-19T11:55:51.957Z</time></trkpt><trkpt lat="45.4577733" lon="8.4299683"><ele>159.0</ele><time>2026-04-19T11:55:52.957Z</time></trkpt><trkpt lat="45.4579417" lon="8.42994"><ele>159.0</ele><time>2026-04-19T11:55:53.957Z</time></trkpt><trkpt lat="45.458105" lon="8.42992"><ele>159.0</ele><time>2026-04-19T11:55:54.957Z</time></trkpt><trkpt lat="45.458265" lon="8.4298967"><ele>159.0</ele><time>2026-04-19T11:55:55.957Z</time></trkpt><trkpt lat="45.4584317" lon="8.4298733"><ele>159.0</ele><time>2026-04-19T11:55:56.956Z</time></trkpt><trkpt lat="45.4585933" lon="8.429865"><ele>159.0</ele><time>2026-04-19T11:55:57.957Z</time></trkpt><trkpt lat="45.4587417" lon="8.42986"><ele>159.0</ele><time>2026-04-19T11:55:58.957Z</time></trkpt><trkpt lat="45.4588883" lon="8.4298667"><ele>159.0</ele><time>2026-04-19T11:55:59.957Z</time></trkpt><trkpt lat="45.4590083" lon="8.429875"><ele>159.0</ele><time>2026-04-19T11:56:00.957Z</time></trkpt><trkpt lat="45.459125" lon="8.429875"><ele>159.0</ele><time>2026-04-19T11:56:01.957Z</time></trkpt><trkpt lat="45.4592267" lon="8.429885"><ele>159.0</ele><time>2026-04-19T11:56:02.956Z</time></trkpt><trkpt lat="45.4593183" lon="8.4299233"><ele>159.0</ele><time>2026-04-19T11:56:03.956Z</time></trkpt><trkpt lat="45.4593917" lon="8.4299433"><ele>159.0</ele><time>2026-04-19T11:56:04.956Z</time></trkpt><trkpt lat="45.4594617" lon="8.4299333"><ele>159.0</ele><time>2026-04-19T11:56:05.956Z</time></trkpt><trkpt lat="45.4595433" lon="8.4298883"><ele>159.0</ele><time>2026-04-19T11:56:06.956Z</time></trkpt><trkpt lat="45.45962" lon="8.4298167"><ele>159.0</ele><time>2026-04-19T11:56:07.957Z</time></trkpt><trkpt lat="45.45968" lon="8.4297117"><ele>159.0</ele><time>2026-04-19T11:56:08.957Z</time></trkpt><trkpt lat="45.4597017" lon="8.4295767"><ele>159.0</ele><time>2026-04-19T11:56:09.957Z</time></trkpt><trkpt lat="45.4596917" lon="8.4294283"><ele>159.4</ele><time>2026-04-19T11:56:10.957Z</time></trkpt><trkpt lat="45.4596583" lon="8.4292783"><ele>159.8</ele><time>2026-04-19T11:56:11.956Z</time></trkpt><trkpt lat="45.4596383" lon="8.4291417"><ele>160.20000000000002</ele><time>2026-04-19T11:56:12.957Z</time></trkpt><trkpt lat="45.4596583" lon="8.4289933"><ele>160.60000000000002</ele><time>2026-04-19T11:56:13.957Z</time></trkpt><trkpt lat="45.4597033" lon="8.4288617"><ele>161.0</ele><time>2026-04-19T11:56:14.957Z</time></trkpt><trkpt lat="45.45979" lon="8.4287517"><ele>161.5</ele><time>2026-04-19T11:56:15.957Z</time></trkpt><trkpt lat="45.4599067" lon="8.4286367"><ele>162.0</ele><time>2026-04-19T11:56:16.957Z</time></trkpt><trkpt lat="45.460035" lon="8.4285533"><ele>162.5</ele><time>2026-04-19T11:56:17.956Z</time></trkpt><trkpt lat="45.4601733" lon="8.428495"><ele>163.0</ele><time>2026-04-19T11:56:18.956Z</time></trkpt><trkpt lat="45.4603167" lon="8.4284683"><ele>162.66666666666669</ele><time>2026-04-19T11:56:19.957Z</time></trkpt><trkpt lat="45.460485" lon="8.4284933"><ele>162.33333333333334</ele><time>2026-04-19T11:56:20.957Z</time></trkpt><trkpt lat="45.4606633" lon="8.428545"><ele>162.0</ele><time>2026-04-19T11:56:21.956Z</time></trkpt><trkpt lat="45.460845" lon="8.4286283"><ele>162.0</ele><time>2026-04-19T11:56:22.956Z</time></trkpt><trkpt lat="45.4610383" lon="8.4287033"><ele>162.0</ele><time>2026-04-19T11:56:23.956Z</time></trkpt><trkpt lat="45.4612167" lon="8.428795"><ele>162.0</ele><time>2026-04-19T11:56:24.957Z</time></trkpt><trkpt lat="45.461395" lon="8.4288883"><ele>162.33333333333334</ele><time>2026-04-19T11:56:25.957Z</time></trkpt><trkpt lat="45.46157" lon="8.42897"><ele>162.66666666666669</ele><time>2026-04-19T11:56:26.957Z</time></trkpt><trkpt lat="45.4617333" lon="8.4290483"><ele>163.0</ele><time>2026-04-19T11:56:27.957Z</time></trkpt><trkpt lat="45.4618917" lon="8.429115"><ele>163.0</ele><time>2026-04-19T11:56:28.956Z</time></trkpt><trkpt lat="45.4620433" lon="8.4291617"><ele>163.0</ele><time>2026-04-19T11:56:29.957Z</time></trkpt><trkpt lat="45.4621833" lon="8.4291883"><ele>163.0</ele><time>2026-04-19T11:56:30.957Z</time></trkpt><trkpt lat="45.4623" lon="8.4291983"><ele>163.0</ele><time>2026-04-19T11:56:31.957Z</time></trkpt><trkpt lat="45.46239" lon="8.4291983"><ele>162.8</ele><time>2026-04-19T11:56:32.956Z</time></trkpt><trkpt lat="45.4624567" lon="8.4291933"><ele>162.60000000000002</ele><time>2026-04-19T11:56:33.957Z</time></trkpt><trkpt lat="45.4625317" lon="8.4291467"><ele>162.39999999999998</ele><time>2026-04-19T11:56:35.957Z</time></trkpt><trkpt lat="45.4625267" lon="8.4290067"><ele>162.2</ele><time>2026-04-19T11:56:37.956Z</time></trkpt><trkpt lat="45.4624733" lon="8.42886"><ele>162.0</ele><time>2026-04-19T11:56:39.956Z</time></trkpt><trkpt lat="45.462425" lon="8.4287117"><ele>162.0</ele><time>2026-04-19T11:56:41.956Z</time></trkpt><trkpt lat="45.462375" lon="8.4285417"><ele>162.0</ele><time>2026-04-19T11:56:43.956Z</time></trkpt><trkpt lat="45.46234" lon="8.4283967"><ele>162.0</ele><time>2026-04-19T11:56:45.956Z</time></trkpt><trkpt lat="45.4623667" lon="8.4283067"><ele>162.0</ele><time>2026-04-19T11:56:47.957Z</time></trkpt><trkpt lat="45.4624633" lon="8.4283183"><ele>162.0</ele><time>2026-04-19T11:56:49.957Z</time></trkpt><trkpt lat="45.4625283" lon="8.4283517"><ele>162.0</ele><time>2026-04-19T11:56:50.956Z</time></trkpt><trkpt lat="45.4626333" lon="8.4284"><ele>162.0</ele><time>2026-04-19T11:56:51.957Z</time></trkpt><trkpt lat="45.4627583" lon="8.4284517"><ele>162.0</ele><time>2026-04-19T11:56:52.957Z</time></trkpt><trkpt lat="45.4628983" lon="8.4284967"><ele>162.0</ele><time>2026-04-19T11:56:53.956Z</time></trkpt><trkpt lat="45.4630233" lon="8.428545"><ele>162.16666666666666</ele><time>2026-04-19T11:56:54.956Z</time></trkpt><trkpt lat="45.46313" lon="8.428575"><ele>162.33333333333334</ele><time>2026-04-19T11:56:55.957Z</time></trkpt><trkpt lat="45.463215" lon="8.428605"><ele>162.5</ele><time>2026-04-19T11:56:56.957Z</time></trkpt><trkpt lat="45.4633317" lon="8.42861"><ele>162.66666666666669</ele><time>2026-04-19T11:56:58.956Z</time></trkpt><trkpt lat="45.46336" lon="8.428525"><ele>162.83333333333334</ele><time>2026-04-19T11:56:59.957Z</time></trkpt><trkpt lat="45.4633717" lon="8.4284367"><ele>163.0</ele><time>2026-04-19T11:57:00.957Z</time></trkpt><trkpt lat="45.4633733" lon="8.4283183"><ele>163.0</ele><time>2026-04-19T11:57:01.956Z</time></trkpt><trkpt lat="45.463375" lon="8.4281767"><ele>163.0</ele><time>2026-04-19T11:57:02.957Z</time></trkpt><trkpt lat="45.4633783" lon="8.4280133"><ele>163.0</ele><time>2026-04-19T11:57:03.956Z</time></trkpt><trkpt lat="45.4633583" lon="8.42783"><ele>163.0</ele><time>2026-04-19T11:57:04.957Z</time></trkpt><trkpt lat="45.46334" lon="8.4276483"><ele>163.5</ele><time>2026-04-19T11:57:05.956Z</time></trkpt><trkpt lat="45.4633367" lon="8.4274617"><ele>164.0</ele><time>2026-04-19T11:57:06.957Z</time></trkpt><trkpt lat="45.4633217" lon="8.4272833"><ele>164.5</ele><time>2026-04-19T11:57:07.956Z</time></trkpt><trkpt lat="45.4633167" lon="8.4271033"><ele>165.0</ele><time>2026-04-19T11:57:08.957Z</time></trkpt><trkpt lat="45.46331" lon="8.426935"><ele>165.4</ele><time>2026-04-19T11:57:09.957Z</time></trkpt><trkpt lat="45.463285" lon="8.426775"><ele>165.8</ele><time>2026-04-19T11:57:10.957Z</time></trkpt><trkpt lat="45.463245" lon="8.4266333"><ele>166.2</ele><time>2026-04-19T11:57:11.956Z</time></trkpt><trkpt lat="45.4631917" lon="8.42649"><ele>166.6</ele><time>2026-04-19T11:57:12.957Z</time></trkpt><trkpt lat="45.4631583" lon="8.4263467"><ele>167.0</ele><time>2026-04-19T11:57:13.957Z</time></trkpt><trkpt lat="45.463135" lon="8.4261933"><ele>167.0</ele><time>2026-04-19T11:57:14.957Z</time></trkpt><trkpt lat="45.4631267" lon="8.4260367"><ele>167.0</ele><time>2026-04-19T11:57:15.957Z</time></trkpt><trkpt lat="45.4631217" lon="8.4258567"><ele>167.0</ele><time>2026-04-19T11:57:16.956Z</time></trkpt><trkpt lat="45.4631167" lon="8.4256783"><ele>167.0</ele><time>2026-04-19T11:57:17.956Z</time></trkpt><trkpt lat="45.4631033" lon="8.4255133"><ele>167.0</ele><time>2026-04-19T11:57:18.957Z</time></trkpt><trkpt lat="45.4630967" lon="8.4253317"><ele>167.0</ele><time>2026-04-19T11:57:19.956Z</time></trkpt><trkpt lat="45.4630917" lon="8.42516"><ele>167.0</ele><time>2026-04-19T11:57:20.957Z</time></trkpt><trkpt lat="45.4630817" lon="8.42498"><ele>167.0</ele><time>2026-04-19T11:57:21.957Z</time></trkpt><trkpt lat="45.4630683" lon="8.4247983"><ele>167.0</ele><time>2026-04-19T11:57:22.956Z</time></trkpt><trkpt lat="45.4630633" lon="8.4246"><ele>167.0</ele><time>2026-04-19T11:57:23.957Z</time></trkpt><trkpt lat="45.4630483" lon="8.4244067"><ele>167.0</ele><time>2026-04-19T11:57:24.957Z</time></trkpt><trkpt lat="45.4630333" lon="8.42422"><ele>167.0</ele><time>2026-04-19T11:57:25.957Z</time></trkpt><trkpt lat="45.4630133" lon="8.4240367"><ele>167.0</ele><time>2026-04-19T11:57:26.956Z</time></trkpt><trkpt lat="45.463" lon="8.4238567"><ele>167.0</ele><time>2026-04-19T11:57:27.957Z</time></trkpt><trkpt lat="45.4629933" lon="8.4236833"><ele>167.0</ele><time>2026-04-19T11:57:28.957Z</time></trkpt><trkpt lat="45.4629817" lon="8.42351"><ele>167.0</ele><time>2026-04-19T11:57:29.956Z</time></trkpt><trkpt lat="45.4629783" lon="8.4233283"><ele>167.0</ele><time>2026-04-19T11:57:30.956Z</time></trkpt><trkpt lat="45.4629633" lon="8.4231617"><ele>167.0</ele><time>2026-04-19T11:57:31.956Z</time></trkpt><trkpt lat="45.4629333" lon="8.4229967"><ele>167.0</ele><time>2026-04-19T11:57:32.957Z</time></trkpt><trkpt lat="45.462885" lon="8.4228383"><ele>167.0</ele><time>2026-04-19T11:57:33.957Z</time></trkpt><trkpt lat="45.462825" lon="8.422695"><ele>166.25</ele><time>2026-04-19T11:57:34.957Z</time></trkpt><trkpt lat="45.4627767" lon="8.4225583"><ele>165.5</ele><time>2026-04-19T11:57:35.956Z</time></trkpt><trkpt lat="45.4627467" lon="8.4224"><ele>164.75</ele><time>2026-04-19T11:57:36.957Z</time></trkpt><trkpt lat="45.4627317" lon="8.422215"><ele>164.0</ele><time>2026-04-19T11:57:37.956Z</time></trkpt><trkpt lat="45.4627233" lon="8.4219967"><ele>164.0</ele><time>2026-04-19T11:57:38.956Z</time></trkpt><trkpt lat="45.46272" lon="8.4217633"><ele>164.0</ele><time>2026-04-19T11:57:39.956Z</time></trkpt><trkpt lat="45.4627083" lon="8.4215433"><ele>164.0</ele><time>2026-04-19T11:57:40.957Z</time></trkpt><trkpt lat="45.4627033" lon="8.4213383"><ele>164.0</ele><time>2026-04-19T11:57:41.956Z</time></trkpt><trkpt lat="45.462695" lon="8.421165"><ele>164.0</ele><time>2026-04-19T11:57:42.957Z</time></trkpt><trkpt lat="45.4626767" lon="8.4209883"><ele>164.0</ele><time>2026-04-19T11:57:43.957Z</time></trkpt><trkpt lat="45.4626433" lon="8.420795"><ele>164.0</ele><time>2026-04-19T11:57:44.956Z</time></trkpt><trkpt lat="45.4626183" lon="8.4206"><ele>163.75</ele><time>2026-04-19T11:57:45.957Z</time></trkpt><trkpt lat="45.4626" lon="8.4204"><ele>163.5</ele><time>2026-04-19T11:57:46.957Z</time></trkpt><trkpt lat="45.4626" lon="8.4202017"><ele>163.25</ele><time>2026-04-19T11:57:47.957Z</time></trkpt><trkpt lat="45.4626067" lon="8.4199867"><ele>163.0</ele><time>2026-04-19T11:57:48.956Z</time></trkpt><trkpt lat="45.4626017" lon="8.4197633"><ele>163.0</ele><time>2026-04-19T11:57:49.957Z</time></trkpt><trkpt lat="45.4625833" lon="8.4195417"><ele>163.0</ele><time>2026-04-19T11:57:50.957Z</time></trkpt><trkpt lat="45.462575" lon="8.4193283"><ele>163.0</ele><time>2026-04-19T11:57:51.957Z</time></trkpt><trkpt lat="45.4625733" lon="8.4191167"><ele>163.0</ele><time>2026-04-19T11:57:52.957Z</time></trkpt><trkpt lat="45.4625633" lon="8.4189133"><ele>163.0</ele><time>2026-04-19T11:57:53.956Z</time></trkpt><trkpt lat="45.4625567" lon="8.4187017"><ele>163.0</ele><time>2026-04-19T11:57:54.956Z</time></trkpt><trkpt lat="45.4625417" lon="8.41851"><ele>163.0</ele><time>2026-04-19T11:57:55.957Z</time></trkpt><trkpt lat="45.4625267" lon="8.4183"><ele>163.25</ele><time>2026-04-19T11:57:56.957Z</time></trkpt><trkpt lat="45.4625067" lon="8.4181033"><ele>163.5</ele><time>2026-04-19T11:57:57.957Z</time></trkpt><trkpt lat="45.462485" lon="8.4179183"><ele>163.75</ele><time>2026-04-19T11:57:58.956Z</time></trkpt><trkpt lat="45.462465" lon="8.4177183"><ele>164.0</ele><time>2026-04-19T11:57:59.957Z</time></trkpt><trkpt lat="45.4624667" lon="8.4175067"><ele>164.0</ele><time>2026-04-19T11:58:00.957Z</time></trkpt><trkpt lat="45.46246" lon="8.41731"><ele>164.0</ele><time>2026-04-19T11:58:01.957Z</time></trkpt><trkpt lat="45.4624467" lon="8.41711"><ele>164.0</ele><time>2026-04-19T11:58:02.957Z</time></trkpt><trkpt lat="45.4624233" lon="8.4169233"><ele>164.0</ele><time>2026-04-19T11:58:03.957Z</time></trkpt><trkpt lat="45.4623967" lon="8.4167283"><ele>163.75</ele><time>2026-04-19T11:58:04.956Z</time></trkpt><trkpt lat="45.4623817" lon="8.4165267"><ele>163.5</ele><time>2026-04-19T11:58:05.957Z</time></trkpt><trkpt lat="45.46236" lon="8.4163533"><ele>163.25</ele><time>2026-04-19T11:58:06.956Z</time></trkpt><trkpt lat="45.4623433" lon="8.4161633"><ele>163.0</ele><time>2026-04-19T11:58:07.957Z</time></trkpt><trkpt lat="45.46233" lon="8.41596"><ele>162.75</ele><time>2026-04-19T11:58:08.957Z</time></trkpt><trkpt lat="45.46232" lon="8.41575"><ele>162.5</ele><time>2026-04-19T11:58:09.957Z</time></trkpt><trkpt lat="45.46231" lon="8.4155383"><ele>162.25</ele><time>2026-04-19T11:58:10.957Z</time></trkpt><trkpt lat="45.4623067" lon="8.4153217"><ele>162.0</ele><time>2026-04-19T11:58:11.956Z</time></trkpt><trkpt lat="45.4623017" lon="8.4151117"><ele>161.66666666666666</ele><time>2026-04-19T11:58:12.957Z</time></trkpt><trkpt lat="45.46229" lon="8.414905"><ele>161.33333333333331</ele><time>2026-04-19T11:58:13.957Z</time></trkpt><trkpt lat="45.4622817" lon="8.414675"><ele>161.0</ele><time>2026-04-19T11:58:14.956Z</time></trkpt><trkpt lat="45.462265" lon="8.4144567"><ele>160.75</ele><time>2026-04-19T11:58:15.956Z</time></trkpt><trkpt lat="45.4622483" lon="8.414265"><ele>160.5</ele><time>2026-04-19T11:58:16.955Z</time></trkpt><trkpt lat="45.46224" lon="8.4140833"><ele>160.25</ele><time>2026-04-19T11:58:17.955Z</time></trkpt><trkpt lat="45.462235" lon="8.4138967"><ele>160.0</ele><time>2026-04-19T11:58:18.955Z</time></trkpt><trkpt lat="45.46223" lon="8.4137433"><ele>159.8</ele><time>2026-04-19T11:58:19.956Z</time></trkpt><trkpt lat="45.4622183" lon="8.4135867"><ele>159.6</ele><time>2026-04-19T11:58:20.956Z</time></trkpt><trkpt lat="45.4621933" lon="8.41345"><ele>159.4</ele><time>2026-04-19T11:58:21.956Z</time></trkpt><trkpt lat="45.46214" lon="8.4133233"><ele>159.2</ele><time>2026-04-19T11:58:22.956Z</time></trkpt><trkpt lat="45.462075" lon="8.4132167"><ele>159.0</ele><time>2026-04-19T11:58:23.956Z</time></trkpt><trkpt lat="45.461995" lon="8.413145"><ele>159.4</ele><time>2026-04-19T11:58:24.956Z</time></trkpt><trkpt lat="45.4618933" lon="8.4131"><ele>159.8</ele><time>2026-04-19T11:58:25.955Z</time></trkpt><trkpt lat="45.4617933" lon="8.4130717"><ele>160.20000000000002</ele><time>2026-04-19T11:58:26.956Z</time></trkpt><trkpt lat="45.46171" lon="8.413045"><ele>160.60000000000002</ele><time>2026-04-19T11:58:27.956Z</time></trkpt><trkpt lat="45.4616383" lon="8.412995"><ele>161.0</ele><time>2026-04-19T11:58:28.956Z</time></trkpt><trkpt lat="45.4615283" lon="8.4128933"><ele>161.0</ele><time>2026-04-19T11:58:30.955Z</time></trkpt><trkpt lat="45.4614733" lon="8.412815"><ele>161.0</ele><time>2026-04-19T11:58:31.956Z</time></trkpt><trkpt lat="45.4614083" lon="8.41272"><ele>161.0</ele><time>2026-04-19T11:58:32.956Z</time></trkpt><trkpt lat="45.4613467" lon="8.4126183"><ele>161.0</ele><time>2026-04-19T11:58:33.955Z</time></trkpt><trkpt lat="45.46129" lon="8.412525"><ele>161.0</ele><time>2026-04-19T11:58:34.956Z</time></trkpt><trkpt lat="45.461235" lon="8.412425"><ele>161.0</ele><time>2026-04-19T11:58:35.955Z</time></trkpt><trkpt lat="45.4611867" lon="8.412325"><ele>161.0</ele><time>2026-04-19T11:58:36.955Z</time></trkpt><trkpt lat="45.461145" lon="8.412225"><ele>161.0</ele><time>2026-04-19T11:58:37.956Z</time></trkpt><trkpt lat="45.4611217" lon="8.4121283"><ele>161.0</ele><time>2026-04-19T11:58:38.955Z</time></trkpt><trkpt lat="45.4611417" lon="8.4120283"><ele>161.0</ele><time>2026-04-19T11:58:39.955Z</time></trkpt><trkpt lat="45.461175" lon="8.41194"><ele>161.0</ele><time>2026-04-19T11:58:40.956Z</time></trkpt><trkpt lat="45.4612467" lon="8.4119183"><ele>161.0</ele><time>2026-04-19T11:58:41.955Z</time></trkpt><trkpt lat="45.4613333" lon="8.4119033"><ele>161.60000000000002</ele><time>2026-04-19T11:58:42.956Z</time></trkpt><trkpt lat="45.4614283" lon="8.4119"><ele>162.2</ele><time>2026-04-19T11:58:43.956Z</time></trkpt><trkpt lat="45.4615333" lon="8.4119067"><ele>162.8</ele><time>2026-04-19T11:58:44.955Z</time></trkpt><trkpt lat="45.46165" lon="8.411905"><ele>163.39999999999998</ele><time>2026-04-19T11:58:45.956Z</time></trkpt><trkpt lat="45.4617767" lon="8.4119017"><ele>164.0</ele><time>2026-04-19T11:58:46.955Z</time></trkpt><trkpt lat="45.46191" lon="8.4118967"><ele>164.0</ele><time>2026-04-19T11:58:47.955Z</time></trkpt><trkpt lat="45.4620583" lon="8.4118917"><ele>164.0</ele><time>2026-04-19T11:58:48.955Z</time></trkpt><trkpt lat="45.4622133" lon="8.4118783"><ele>164.0</ele><time>2026-04-19T11:58:49.956Z</time></trkpt><trkpt lat="45.4623667" lon="8.4118733"><ele>164.0</ele><time>2026-04-19T11:58:50.956Z</time></trkpt><trkpt lat="45.462515" lon="8.4118567"><ele>164.0</ele><time>2026-04-19T11:58:51.955Z</time></trkpt><trkpt lat="45.4626617" lon="8.4118467"><ele>164.0</ele><time>2026-04-19T11:58:52.956Z</time></trkpt><trkpt lat="45.462805" lon="8.4118433"><ele>164.0</ele><time>2026-04-19T11:58:53.955Z</time></trkpt><trkpt lat="45.4629617" lon="8.411825"><ele>164.0</ele><time>2026-04-19T11:58:54.956Z</time></trkpt><trkpt lat="45.4631283" lon="8.4118217"><ele>164.0</ele><time>2026-04-19T11:58:55.955Z</time></trkpt><trkpt lat="45.4632983" lon="8.4118417"><ele>164.0</ele><time>2026-04-19T11:58:56.956Z</time></trkpt><trkpt lat="45.4634483" lon="8.4118133"><ele>164.0</ele><time>2026-04-19T11:58:57.956Z</time></trkpt><trkpt lat="45.4635817" lon="8.4117617"><ele>164.0</ele><time>2026-04-19T11:58:58.955Z</time></trkpt><trkpt lat="45.4637167" lon="8.4116817"><ele>164.0</ele><time>2026-04-19T11:58:59.955Z</time></trkpt><trkpt lat="45.4638383" lon="8.4116133"><ele>164.0</ele><time>2026-04-19T11:59:00.955Z</time></trkpt><trkpt lat="45.4639567" lon="8.41152"><ele>164.39999999999998</ele><time>2026-04-19T11:59:01.955Z</time></trkpt><trkpt lat="45.4640583" lon="8.41142"><ele>164.8</ele><time>2026-04-19T11:59:02.956Z</time></trkpt><trkpt lat="45.4641467" lon="8.4112967"><ele>165.2</ele><time>2026-04-19T11:59:03.956Z</time></trkpt><trkpt lat="45.4642167" lon="8.411185"><ele>165.60000000000002</ele><time>2026-04-19T11:59:04.955Z</time></trkpt><trkpt lat="45.4642933" lon="8.411115"><ele>166.0</ele><time>2026-04-19T11:59:05.955Z</time></trkpt><trkpt lat="45.4643833" lon="8.41109"><ele>166.0</ele><time>2026-04-19T11:59:06.955Z</time></trkpt><trkpt lat="45.46447" lon="8.4111117"><ele>166.0</ele><time>2026-04-19T11:59:07.956Z</time></trkpt><trkpt lat="45.4645517" lon="8.4111783"><ele>166.0</ele><time>2026-04-19T11:59:08.955Z</time></trkpt><trkpt lat="45.464625" lon="8.411235"><ele>166.0</ele><time>2026-04-19T11:59:09.955Z</time></trkpt><trkpt lat="45.4646933" lon="8.4112567"><ele>166.0</ele><time>2026-04-19T11:59:10.955Z</time></trkpt><trkpt lat="45.4647933" lon="8.4112317"><ele>166.0</ele><time>2026-04-19T11:59:12.955Z</time></trkpt><trkpt lat="45.4648183" lon="8.41111"><ele>166.20000000000002</ele><time>2026-04-19T11:59:14.956Z</time></trkpt><trkpt lat="45.4647883" lon="8.41101"><ele>166.4</ele><time>2026-04-19T11:59:15.956Z</time></trkpt><trkpt lat="45.46474" lon="8.41089"><ele>166.6</ele><time>2026-04-19T11:59:16.955Z</time></trkpt><trkpt lat="45.4646867" lon="8.4107483"><ele>166.8</ele><time>2026-04-19T11:59:17.956Z</time></trkpt><trkpt lat="45.4646383" lon="8.4106033"><ele>167.0</ele><time>2026-04-19T11:59:18.956Z</time></trkpt><trkpt lat="45.4645733" lon="8.4104517"><ele>167.0</ele><time>2026-04-19T11:59:19.956Z</time></trkpt><trkpt lat="45.4645117" lon="8.4102733"><ele>167.0</ele><time>2026-04-19T11:59:20.956Z</time></trkpt><trkpt lat="45.4644483" lon="8.4100917"><ele>167.0</ele><time>2026-04-19T11:59:21.956Z</time></trkpt><trkpt lat="45.4643983" lon="8.4099183"><ele>167.0</ele><time>2026-04-19T11:59:22.956Z</time></trkpt><trkpt lat="45.464355" lon="8.40974"><ele>166.75</ele><time>2026-04-19T11:59:23.955Z</time></trkpt><trkpt lat="45.46433" lon="8.40956"><ele>166.5</ele><time>2026-04-19T11:59:24.956Z</time></trkpt><trkpt lat="45.4643083" lon="8.409375"><ele>166.25</ele><time>2026-04-19T11:59:25.956Z</time></trkpt><trkpt lat="45.4643017" lon="8.409165"><ele>166.0</ele><time>2026-04-19T11:59:26.956Z</time></trkpt><trkpt lat="45.46431" lon="8.4089467"><ele>165.33333333333334</ele><time>2026-04-19T11:59:27.956Z</time></trkpt><trkpt lat="45.46434" lon="8.40871"><ele>164.66666666666666</ele><time>2026-04-19T11:59:28.956Z</time></trkpt><trkpt lat="45.4643833" lon="8.408485"><ele>164.0</ele><time>2026-04-19T11:59:29.956Z</time></trkpt><trkpt lat="45.4644267" lon="8.40826"><ele>164.0</ele><time>2026-04-19T11:59:30.956Z</time></trkpt><trkpt lat="45.4644733" lon="8.40803"><ele>164.0</ele><time>2026-04-19T11:59:31.955Z</time></trkpt><trkpt lat="45.4645133" lon="8.4078083"><ele>164.0</ele><time>2026-04-19T11:59:32.955Z</time></trkpt><trkpt lat="45.4645467" lon="8.4076033"><ele>164.25</ele><time>2026-04-19T11:59:33.955Z</time></trkpt><trkpt lat="45.46458" lon="8.4073967"><ele>164.5</ele><time>2026-04-19T11:59:34.956Z</time></trkpt><trkpt lat="45.4646217" lon="8.407195"><ele>164.75</ele><time>2026-04-19T11:59:35.956Z</time></trkpt><trkpt lat="45.4646683" lon="8.40699"><ele>165.0</ele><time>2026-04-19T11:59:36.956Z</time></trkpt><trkpt lat="45.4647367" lon="8.406795"><ele>165.66666666666666</ele><time>2026-04-19T11:59:37.956Z</time></trkpt><trkpt lat="45.46482" lon="8.40662"><ele>166.33333333333331</ele><time>2026-04-19T11:59:38.955Z</time></trkpt><trkpt lat="45.4649217" lon="8.406465"><ele>167.0</ele><time>2026-04-19T11:59:39.956Z</time></trkpt><trkpt lat="45.4650433" lon="8.4063283"><ele>167.33333333333331</ele><time>2026-04-19T11:59:40.955Z</time></trkpt><trkpt lat="45.46519" lon="8.4062333"><ele>167.66666666666666</ele><time>2026-04-19T11:59:41.956Z</time></trkpt><trkpt lat="45.46535" lon="8.4061767"><ele>168.0</ele><time>2026-04-19T11:59:42.956Z</time></trkpt><trkpt lat="45.4655117" lon="8.4061533"><ele>168.66666666666666</ele><time>2026-04-19T11:59:43.955Z</time></trkpt><trkpt lat="45.4656883" lon="8.4061833"><ele>169.33333333333331</ele><time>2026-04-19T11:59:44.956Z</time></trkpt><trkpt lat="45.4658683" lon="8.40624"><ele>170.0</ele><time>2026-04-19T11:59:45.956Z</time></trkpt><trkpt lat="45.4660417" lon="8.406315"><ele>169.33333333333331</ele><time>2026-04-19T11:59:46.956Z</time></trkpt><trkpt lat="45.4662083" lon="8.4063733"><ele>168.66666666666666</ele><time>2026-04-19T11:59:47.955Z</time></trkpt><trkpt lat="45.4663683" lon="8.4064367"><ele>168.0</ele><time>2026-04-19T11:59:48.956Z</time></trkpt><trkpt lat="45.466525" lon="8.406495"><ele>168.0</ele><time>2026-04-19T11:59:49.956Z</time></trkpt><trkpt lat="45.466675" lon="8.40654"><ele>168.0</ele><time>2026-04-19T11:59:50.956Z</time></trkpt><trkpt lat="45.4668283" lon="8.4065933"><ele>168.0</ele><time>2026-04-19T11:59:51.956Z</time></trkpt><trkpt lat="45.4669817" lon="8.4066283"><ele>168.33333333333334</ele><time>2026-04-19T11:59:52.956Z</time></trkpt><trkpt lat="45.4671317" lon="8.4066867"><ele>168.66666666666669</ele><time>2026-04-19T11:59:53.956Z</time></trkpt><trkpt lat="45.46728" lon="8.4067267"><ele>169.0</ele><time>2026-04-19T11:59:54.956Z</time></trkpt><trkpt lat="45.4674267" lon="8.4067767"><ele>169.0</ele><time>2026-04-19T11:59:55.956Z</time></trkpt><trkpt lat="45.467565" lon="8.4068317"><ele>169.0</ele><time>2026-04-19T11:59:56.955Z</time></trkpt><trkpt lat="45.46771" lon="8.40688"><ele>169.0</ele><time>2026-04-19T11:59:57.956Z</time></trkpt><trkpt lat="45.4678417" lon="8.4069333"><ele>169.0</ele><time>2026-04-19T11:59:58.956Z</time></trkpt><trkpt lat="45.4679667" lon="8.4069867"><ele>168.75</ele><time>2026-04-19T11:59:59.955Z</time></trkpt><trkpt lat="45.4680933" lon="8.4070317"><ele>168.5</ele><time>2026-04-19T12:00:00.955Z</time></trkpt><trkpt lat="45.4682233" lon="8.407085"><ele>168.25</ele><time>2026-04-19T12:00:01.956Z</time></trkpt><trkpt lat="45.46835" lon="8.4071517"><ele>168.0</ele><time>2026-04-19T12:00:02.956Z</time></trkpt><trkpt lat="45.4686" lon="8.407205"><ele>168.0</ele><time>2026-04-19T12:00:04.955Z</time></trkpt><trkpt lat="45.468715" lon="8.407195"><ele>168.0</ele><time>2026-04-19T12:00:05.956Z</time></trkpt><trkpt lat="45.4688183" lon="8.4071667"><ele>168.0</ele><time>2026-04-19T12:00:06.956Z</time></trkpt><trkpt lat="45.468925" lon="8.4071133"><ele>168.0</ele><time>2026-04-19T12:00:07.955Z</time></trkpt><trkpt lat="45.469035" lon="8.4070517"><ele>167.75</ele><time>2026-04-19T12:00:08.956Z</time></trkpt><trkpt lat="45.46916" lon="8.40699"><ele>167.5</ele><time>2026-04-19T12:00:09.956Z</time></trkpt><trkpt lat="45.4692933" lon="8.4069467"><ele>167.25</ele><time>2026-04-19T12:00:10.955Z</time></trkpt><trkpt lat="45.4694233" lon="8.406905"><ele>167.0</ele><time>2026-04-19T12:00:11.956Z</time></trkpt><trkpt lat="45.4695483" lon="8.4068667"><ele>167.75</ele><time>2026-04-19T12:00:12.955Z</time></trkpt><trkpt lat="45.4696667" lon="8.4068083"><ele>168.5</ele><time>2026-04-19T12:00:13.955Z</time></trkpt><trkpt lat="45.4697833" lon="8.4067317"><ele>169.25</ele><time>2026-04-19T12:00:14.956Z</time></trkpt><trkpt lat="45.4699033" lon="8.4066517"><ele>170.0</ele><time>2026-04-19T12:00:15.956Z</time></trkpt><trkpt lat="45.470025" lon="8.4065733"><ele>170.0</ele><time>2026-04-19T12:00:16.955Z</time></trkpt><trkpt lat="45.4701483" lon="8.4064933"><ele>170.0</ele><time>2026-04-19T12:00:17.956Z</time></trkpt><trkpt lat="45.4702683" lon="8.4064233"><ele>170.0</ele><time>2026-04-19T12:00:18.956Z</time></trkpt><trkpt lat="45.470385" lon="8.406365"><ele>170.0</ele><time>2026-04-19T12:00:19.956Z</time></trkpt><trkpt lat="45.4705067" lon="8.4063233"><ele>170.0</ele><time>2026-04-19T12:00:20.956Z</time></trkpt><trkpt lat="45.47063" lon="8.406295"><ele>170.0</ele><time>2026-04-19T12:00:21.955Z</time></trkpt><trkpt lat="45.4708533" lon="8.4062283"><ele>170.0</ele><time>2026-04-19T12:00:23.956Z</time></trkpt><trkpt lat="45.47096" lon="8.4061767"><ele>170.0</ele><time>2026-04-19T12:00:24.955Z</time></trkpt><trkpt lat="45.4710633" lon="8.4061267"><ele>170.0</ele><time>2026-04-19T12:00:25.956Z</time></trkpt><trkpt lat="45.4711667" lon="8.406095"><ele>170.0</ele><time>2026-04-19T12:00:26.956Z</time></trkpt><trkpt lat="45.4712767" lon="8.4060917"><ele>170.0</ele><time>2026-04-19T12:00:27.955Z</time></trkpt><trkpt lat="45.4713883" lon="8.4061167"><ele>170.0</ele><time>2026-04-19T12:00:28.956Z</time></trkpt><trkpt lat="45.4715017" lon="8.4061617"><ele>169.75</ele><time>2026-04-19T12:00:29.956Z</time></trkpt><trkpt lat="45.47163" lon="8.4062267"><ele>169.5</ele><time>2026-04-19T12:00:30.955Z</time></trkpt><trkpt lat="45.4717567" lon="8.4062767"><ele>169.25</ele><time>2026-04-19T12:00:31.956Z</time></trkpt><trkpt lat="45.4718917" lon="8.4063183"><ele>169.0</ele><time>2026-04-19T12:00:32.956Z</time></trkpt><trkpt lat="45.472005" lon="8.406355"><ele>169.5</ele><time>2026-04-19T12:00:33.955Z</time></trkpt><trkpt lat="45.47211" lon="8.4064017"><ele>170.0</ele><time>2026-04-19T12:00:34.955Z</time></trkpt><trkpt lat="45.4722017" lon="8.4064383"><ele>170.5</ele><time>2026-04-19T12:00:35.955Z</time></trkpt><trkpt lat="45.4722767" lon="8.40651"><ele>171.0</ele><time>2026-04-19T12:00:36.956Z</time></trkpt><trkpt lat="45.4723417" lon="8.4065633"><ele>171.5</ele><time>2026-04-19T12:00:37.956Z</time></trkpt><trkpt lat="45.4724117" lon="8.406595"><ele>172.0</ele><time>2026-04-19T12:00:38.956Z</time></trkpt><trkpt lat="45.4724783" lon="8.4066167"><ele>172.0</ele><time>2026-04-19T12:00:39.955Z</time></trkpt><trkpt lat="45.472595" lon="8.40663"><ele>172.0</ele><time>2026-04-19T12:00:41.956Z</time></trkpt><trkpt lat="45.472665" lon="8.4066517"><ele>172.0</ele><time>2026-04-19T12:00:42.956Z</time></trkpt><trkpt lat="45.4727467" lon="8.4066733"><ele>172.0</ele><time>2026-04-19T12:00:43.955Z</time></trkpt><trkpt lat="45.47284" lon="8.4066917"><ele>172.0</ele><time>2026-04-19T12:00:44.955Z</time></trkpt><trkpt lat="45.472945" lon="8.406705"><ele>172.2</ele><time>2026-04-19T12:00:45.955Z</time></trkpt><trkpt lat="45.4730617" lon="8.4067183"><ele>172.39999999999998</ele><time>2026-04-19T12:00:46.956Z</time></trkpt><trkpt lat="45.4731683" lon="8.40674"><ele>172.60000000000002</ele><time>2026-04-19T12:00:47.955Z</time></trkpt><trkpt lat="45.4732733" lon="8.4067533"><ele>172.8</ele><time>2026-04-19T12:00:48.956Z</time></trkpt><trkpt lat="45.473385" lon="8.406735"><ele>173.0</ele><time>2026-04-19T12:00:49.956Z</time></trkpt><trkpt lat="45.4735117" lon="8.4066983"><ele>173.0</ele><time>2026-04-19T12:00:50.956Z</time></trkpt><trkpt lat="45.473635" lon="8.4066533"><ele>173.0</ele><time>2026-04-19T12:00:51.956Z</time></trkpt><trkpt lat="45.4737583" lon="8.4066117"><ele>173.0</ele><time>2026-04-19T12:00:52.955Z</time></trkpt><trkpt lat="45.4738833" lon="8.4065733"><ele>173.0</ele><time>2026-04-19T12:00:53.955Z</time></trkpt><trkpt lat="45.474005" lon="8.40653"><ele>172.5</ele><time>2026-04-19T12:00:54.956Z</time></trkpt><trkpt lat="45.4741333" lon="8.4064917"><ele>172.0</ele><time>2026-04-19T12:00:55.955Z</time></trkpt><trkpt lat="45.474255" lon="8.4064567"><ele>171.5</ele><time>2026-04-19T12:00:56.955Z</time></trkpt><trkpt lat="45.4743783" lon="8.4064133"><ele>171.0</ele><time>2026-04-19T12:00:57.956Z</time></trkpt><trkpt lat="45.4745117" lon="8.4063833"><ele>171.25</ele><time>2026-04-19T12:00:58.956Z</time></trkpt><trkpt lat="45.474645" lon="8.4063467"><ele>171.5</ele><time>2026-04-19T12:00:59.956Z</time></trkpt><trkpt lat="45.47477" lon="8.4063067"><ele>171.75</ele><time>2026-04-19T12:01:00.956Z</time></trkpt><trkpt lat="45.4748983" lon="8.40627"><ele>172.0</ele><time>2026-04-19T12:01:01.955Z</time></trkpt><trkpt lat="45.4750383" lon="8.4062183"><ele>171.5</ele><time>2026-04-19T12:01:02.956Z</time></trkpt><trkpt lat="45.475175" lon="8.4061717"><ele>171.0</ele><time>2026-04-19T12:01:03.955Z</time></trkpt><trkpt lat="45.4753133" lon="8.4061267"><ele>170.5</ele><time>2026-04-19T12:01:04.956Z</time></trkpt><trkpt lat="45.4754483" lon="8.4060767"><ele>170.0</ele><time>2026-04-19T12:01:05.956Z</time></trkpt><trkpt lat="45.4755783" lon="8.4060267"><ele>170.0</ele><time>2026-04-19T12:01:06.955Z</time></trkpt><trkpt lat="45.4757133" lon="8.4059733"><ele>170.0</ele><time>2026-04-19T12:01:07.956Z</time></trkpt><trkpt lat="45.47584" lon="8.4059183"><ele>170.0</ele><time>2026-04-19T12:01:08.955Z</time></trkpt><trkpt lat="45.4759717" lon="8.4058633"><ele>170.0</ele><time>2026-04-19T12:01:09.956Z</time></trkpt><trkpt lat="45.4761033" lon="8.40581"><ele>170.0</ele><time>2026-04-19T12:01:10.955Z</time></trkpt><trkpt lat="45.4762383" lon="8.4057517"><ele>170.0</ele><time>2026-04-19T12:01:11.955Z</time></trkpt><trkpt lat="45.4763733" lon="8.4056833"><ele>170.0</ele><time>2026-04-19T12:01:12.956Z</time></trkpt><trkpt lat="45.4765067" lon="8.405625"><ele>170.0</ele><time>2026-04-19T12:01:13.955Z</time></trkpt><trkpt lat="45.4766383" lon="8.405565"><ele>170.0</ele><time>2026-04-19T12:01:14.955Z</time></trkpt><trkpt lat="45.4767633" lon="8.405505"><ele>170.0</ele><time>2026-04-19T12:01:15.956Z</time></trkpt><trkpt lat="45.476885" lon="8.4054417"><ele>170.0</ele><time>2026-04-19T12:01:16.956Z</time></trkpt><trkpt lat="45.4770083" lon="8.405395"><ele>170.0</ele><time>2026-04-19T12:01:17.955Z</time></trkpt><trkpt lat="45.4771383" lon="8.4053583"><ele>170.0</ele><time>2026-04-19T12:01:18.955Z</time></trkpt><trkpt lat="45.4772717" lon="8.4053383"><ele>170.0</ele><time>2026-04-19T12:01:19.956Z</time></trkpt><trkpt lat="45.477405" lon="8.4053233"><ele>170.0</ele><time>2026-04-19T12:01:20.956Z</time></trkpt><trkpt lat="45.477535" lon="8.4053133"><ele>170.0</ele><time>2026-04-19T12:01:21.955Z</time></trkpt><trkpt lat="45.4776667" lon="8.4053017"><ele>170.0</ele><time>2026-04-19T12:01:22.955Z</time></trkpt><trkpt lat="45.4778033" lon="8.405295"><ele>170.0</ele><time>2026-04-19T12:01:23.956Z</time></trkpt><trkpt lat="45.4779617" lon="8.40527"><ele>170.0</ele><time>2026-04-19T12:01:24.956Z</time></trkpt><trkpt lat="45.4781033" lon="8.405245"><ele>170.0</ele><time>2026-04-19T12:01:25.955Z</time></trkpt><trkpt lat="45.4782517" lon="8.4052267"><ele>170.66666666666666</ele><time>2026-04-19T12:01:26.955Z</time></trkpt><trkpt lat="45.4784" lon="8.4052133"><ele>171.33333333333334</ele><time>2026-04-19T12:01:27.956Z</time></trkpt><trkpt lat="45.478555" lon="8.4052033"><ele>172.0</ele><time>2026-04-19T12:01:28.956Z</time></trkpt><trkpt lat="45.4787017" lon="8.4051817"><ele>171.66666666666669</ele><time>2026-04-19T12:01:29.956Z</time></trkpt><trkpt lat="45.4788567" lon="8.405165"><ele>171.33333333333334</ele><time>2026-04-19T12:01:30.956Z</time></trkpt><trkpt lat="45.47901" lon="8.40514"><ele>171.0</ele><time>2026-04-19T12:01:31.955Z</time></trkpt><trkpt lat="45.479165" lon="8.4051267"><ele>171.0</ele><time>2026-04-19T12:01:32.956Z</time></trkpt><trkpt lat="45.4793217" lon="8.405115"><ele>171.0</ele><time>2026-04-19T12:01:33.955Z</time></trkpt><trkpt lat="45.4794667" lon="8.4050983"><ele>171.0</ele><time>2026-04-19T12:01:34.956Z</time></trkpt><trkpt lat="45.47962" lon="8.4050783"><ele>171.5</ele><time>2026-04-19T12:01:35.956Z</time></trkpt><trkpt lat="45.4797683" lon="8.4050467"><ele>172.0</ele><time>2026-04-19T12:01:36.956Z</time></trkpt><trkpt lat="45.4799083" lon="8.4050267"><ele>172.5</ele><time>2026-04-19T12:01:37.956Z</time></trkpt><trkpt lat="45.4800433" lon="8.4050233"><ele>173.0</ele><time>2026-04-19T12:01:38.955Z</time></trkpt><trkpt lat="45.4801867" lon="8.4050117"><ele>173.0</ele><time>2026-04-19T12:01:39.956Z</time></trkpt><trkpt lat="45.480335" lon="8.4049967"><ele>173.0</ele><time>2026-04-19T12:01:40.956Z</time></trkpt><trkpt lat="45.4804883" lon="8.40497"><ele>173.0</ele><time>2026-04-19T12:01:41.956Z</time></trkpt><trkpt lat="45.48064" lon="8.4049483"><ele>174.0</ele><time>2026-04-19T12:01:42.956Z</time></trkpt><trkpt lat="45.4807917" lon="8.4049267"><ele>175.0</ele><time>2026-04-19T12:01:43.956Z</time></trkpt><trkpt lat="45.4809417" lon="8.4049067"><ele>176.0</ele><time>2026-04-19T12:01:44.956Z</time></trkpt><trkpt lat="45.4810933" lon="8.40489"><ele>176.0</ele><time>2026-04-19T12:01:45.955Z</time></trkpt><trkpt lat="45.4812467" lon="8.4048833"><ele>176.0</ele><time>2026-04-19T12:01:46.956Z</time></trkpt><trkpt lat="45.4814117" lon="8.40488"><ele>176.0</ele><time>2026-04-19T12:01:47.956Z</time></trkpt><trkpt lat="45.4815633" lon="8.40488"><ele>175.75</ele><time>2026-04-19T12:01:48.956Z</time></trkpt><trkpt lat="45.4817033" lon="8.404865"><ele>175.5</ele><time>2026-04-19T12:01:49.956Z</time></trkpt><trkpt lat="45.48184" lon="8.40487"><ele>175.25</ele><time>2026-04-19T12:01:50.956Z</time></trkpt><trkpt lat="45.481985" lon="8.4048667"><ele>175.0</ele><time>2026-04-19T12:01:51.955Z</time></trkpt><trkpt lat="45.4821317" lon="8.40487"><ele>175.5</ele><time>2026-04-19T12:01:52.956Z</time></trkpt><trkpt lat="45.4822717" lon="8.404875"><ele>176.0</ele><time>2026-04-19T12:01:53.955Z</time></trkpt><trkpt lat="45.4824067" lon="8.4048833"><ele>176.5</ele><time>2026-04-19T12:01:54.956Z</time></trkpt><trkpt lat="45.4825467" lon="8.404885"><ele>177.0</ele><time>2026-04-19T12:01:55.955Z</time></trkpt><trkpt lat="45.4826933" lon="8.404885"><ele>177.0</ele><time>2026-04-19T12:01:56.955Z</time></trkpt><trkpt lat="45.4828417" lon="8.4048683"><ele>177.0</ele><time>2026-04-19T12:01:57.956Z</time></trkpt><trkpt lat="45.4829933" lon="8.4048617"><ele>177.0</ele><time>2026-04-19T12:01:58.954Z</time></trkpt><trkpt lat="45.4831433" lon="8.4048617"><ele>176.75</ele><time>2026-04-19T12:01:59.955Z</time></trkpt><trkpt lat="45.4832817" lon="8.40485"><ele>176.5</ele><time>2026-04-19T12:02:00.955Z</time></trkpt><trkpt lat="45.4834183" lon="8.4048567"><ele>176.25</ele><time>2026-04-19T12:02:01.955Z</time></trkpt><trkpt lat="45.4835567" lon="8.40488"><ele>176.0</ele><time>2026-04-19T12:02:02.955Z</time></trkpt><trkpt lat="45.483695" lon="8.404905"><ele>175.75</ele><time>2026-04-19T12:02:03.955Z</time></trkpt><trkpt lat="45.483845" lon="8.4049217"><ele>175.5</ele><time>2026-04-19T12:02:04.954Z</time></trkpt><trkpt lat="45.4839883" lon="8.4049717"><ele>175.25</ele><time>2026-04-19T12:02:05.954Z</time></trkpt><trkpt lat="45.4841267" lon="8.40502"><ele>175.0</ele><time>2026-04-19T12:02:06.955Z</time></trkpt><trkpt lat="45.48427" lon="8.4050833"><ele>175.0</ele><time>2026-04-19T12:02:07.954Z</time></trkpt><trkpt lat="45.48441" lon="8.405165"><ele>175.0</ele><time>2026-04-19T12:02:08.954Z</time></trkpt><trkpt lat="45.4845517" lon="8.4052417"><ele>175.0</ele><time>2026-04-19T12:02:09.954Z</time></trkpt><trkpt lat="45.4847033" lon="8.4053083"><ele>175.33333333333334</ele><time>2026-04-19T12:02:10.955Z</time></trkpt><trkpt lat="45.48487" lon="8.405375"><ele>175.66666666666666</ele><time>2026-04-19T12:02:11.955Z</time></trkpt><trkpt lat="45.4850217" lon="8.4054683"><ele>176.0</ele><time>2026-04-19T12:02:12.955Z</time></trkpt><trkpt lat="45.485175" lon="8.4055517"><ele>176.33333333333331</ele><time>2026-04-19T12:02:13.954Z</time></trkpt><trkpt lat="45.48532" lon="8.4056417"><ele>176.66666666666666</ele><time>2026-04-19T12:02:14.955Z</time></trkpt><trkpt lat="45.485455" lon="8.4057417"><ele>177.0</ele><time>2026-04-19T12:02:15.954Z</time></trkpt><trkpt lat="45.4855917" lon="8.4058283"><ele>176.5</ele><time>2026-04-19T12:02:16.954Z</time></trkpt><trkpt lat="45.4857233" lon="8.4059"><ele>176.0</ele><time>2026-04-19T12:02:17.954Z</time></trkpt><trkpt lat="45.4858617" lon="8.4059867"><ele>175.5</ele><time>2026-04-19T12:02:18.955Z</time></trkpt><trkpt lat="45.4860017" lon="8.406055"><ele>175.0</ele><time>2026-04-19T12:02:19.954Z</time></trkpt><trkpt lat="45.4861383" lon="8.4061233"><ele>175.0</ele><time>2026-04-19T12:02:20.955Z</time></trkpt><trkpt lat="45.4862467" lon="8.4061817"><ele>175.0</ele><time>2026-04-19T12:02:21.954Z</time></trkpt><trkpt lat="45.48636" lon="8.4062383"><ele>175.0</ele><time>2026-04-19T12:02:22.955Z</time></trkpt><trkpt lat="45.4864783" lon="8.406285"><ele>175.0</ele><time>2026-04-19T12:02:23.955Z</time></trkpt><trkpt lat="45.4865967" lon="8.4063083"><ele>175.5</ele><time>2026-04-19T12:02:24.955Z</time></trkpt><trkpt lat="45.4867217" lon="8.4063117"><ele>176.0</ele><time>2026-04-19T12:02:25.954Z</time></trkpt><trkpt lat="45.4868483" lon="8.4063267"><ele>176.5</ele><time>2026-04-19T12:02:26.954Z</time></trkpt><trkpt lat="45.4869783" lon="8.4063217"><ele>177.0</ele><time>2026-04-19T12:02:27.955Z</time></trkpt><trkpt lat="45.4871067" lon="8.4063533"><ele>177.2</ele><time>2026-04-19T12:02:28.954Z</time></trkpt><trkpt lat="45.4872217" lon="8.40638"><ele>177.39999999999998</ele><time>2026-04-19T12:02:29.955Z</time></trkpt><trkpt lat="45.48734" lon="8.4063933"><ele>177.60000000000002</ele><time>2026-04-19T12:02:30.954Z</time></trkpt><trkpt lat="45.487445" lon="8.4064133"><ele>177.8</ele><time>2026-04-19T12:02:31.954Z</time></trkpt><trkpt lat="45.487535" lon="8.40643"><ele>178.0</ele><time>2026-04-19T12:02:32.955Z</time></trkpt><trkpt lat="45.487625" lon="8.4064417"><ele>178.0</ele><time>2026-04-19T12:02:33.955Z</time></trkpt><trkpt lat="45.487705" lon="8.4064617"><ele>178.0</ele><time>2026-04-19T12:02:34.955Z</time></trkpt><trkpt lat="45.4877867" lon="8.4064733"><ele>178.0</ele><time>2026-04-19T12:02:35.955Z</time></trkpt><trkpt lat="45.48786" lon="8.406495"><ele>178.0</ele><time>2026-04-19T12:02:36.955Z</time></trkpt><trkpt lat="45.4879167" lon="8.4065417"><ele>178.0</ele><time>2026-04-19T12:02:37.955Z</time></trkpt><trkpt lat="45.4880017" lon="8.40665"><ele>178.0</ele><time>2026-04-19T12:02:39.954Z</time></trkpt><trkpt lat="45.488045" lon="8.40674"><ele>178.4</ele><time>2026-04-19T12:02:40.954Z</time></trkpt><trkpt lat="45.4880833" lon="8.4068317"><ele>178.8</ele><time>2026-04-19T12:02:41.955Z</time></trkpt><trkpt lat="45.488125" lon="8.4069167"><ele>179.2</ele><time>2026-04-19T12:02:42.954Z</time></trkpt><trkpt lat="45.48816" lon="8.407"><ele>179.6</ele><time>2026-04-19T12:02:43.955Z</time></trkpt><trkpt lat="45.488245" lon="8.407095"><ele>180.0</ele><time>2026-04-19T12:02:45.955Z</time></trkpt><trkpt lat="45.4883767" lon="8.407085"><ele>180.0</ele><time>2026-04-19T12:02:47.955Z</time></trkpt><trkpt lat="45.4884633" lon="8.4070583"><ele>180.0</ele><time>2026-04-19T12:02:48.955Z</time></trkpt><trkpt lat="45.4885567" lon="8.407035"><ele>180.0</ele><time>2026-04-19T12:02:49.954Z</time></trkpt><trkpt lat="45.488655" lon="8.40701"><ele>180.0</ele><time>2026-04-19T12:02:50.954Z</time></trkpt><trkpt lat="45.4887617" lon="8.4069933"><ele>180.0</ele><time>2026-04-19T12:02:51.955Z</time></trkpt><trkpt lat="45.48887" lon="8.406985"><ele>179.75</ele><time>2026-04-19T12:02:52.955Z</time></trkpt><trkpt lat="45.48898" lon="8.40696"><ele>179.5</ele><time>2026-04-19T12:02:53.955Z</time></trkpt><trkpt lat="45.4890983" lon="8.4069333"><ele>179.25</ele><time>2026-04-19T12:02:54.955Z</time></trkpt><trkpt lat="45.4892183" lon="8.4069067"><ele>179.0</ele><time>2026-04-19T12:02:55.955Z</time></trkpt><trkpt lat="45.4893383" lon="8.4068767"><ele>179.0</ele><time>2026-04-19T12:02:56.954Z</time></trkpt><trkpt lat="45.4894667" lon="8.4068567"><ele>179.0</ele><time>2026-04-19T12:02:57.955Z</time></trkpt><trkpt lat="45.489585" lon="8.40683"><ele>179.0</ele><time>2026-04-19T12:02:58.955Z</time></trkpt><trkpt lat="45.489705" lon="8.4068133"><ele>179.0</ele><time>2026-04-19T12:02:59.955Z</time></trkpt><trkpt lat="45.489835" lon="8.4068017"><ele>179.25</ele><time>2026-04-19T12:03:00.954Z</time></trkpt><trkpt lat="45.4899633" lon="8.4067933"><ele>179.5</ele><time>2026-04-19T12:03:01.955Z</time></trkpt><trkpt lat="45.4900817" lon="8.4067817"><ele>179.75</ele><time>2026-04-19T12:03:02.954Z</time></trkpt><trkpt lat="45.4902" lon="8.4067767"><ele>180.0</ele><time>2026-04-19T12:03:03.954Z</time></trkpt><trkpt lat="45.4903083" lon="8.4067667"><ele>181.0</ele><time>2026-04-19T12:03:04.955Z</time></trkpt><trkpt lat="45.49043" lon="8.4067517"><ele>182.0</ele><time>2026-04-19T12:03:05.955Z</time></trkpt><trkpt lat="45.490545" lon="8.4067433"><ele>183.0</ele><time>2026-04-19T12:03:06.954Z</time></trkpt><trkpt lat="45.490655" lon="8.40673"><ele>184.0</ele><time>2026-04-19T12:03:07.955Z</time></trkpt><trkpt lat="45.4907683" lon="8.4067083"><ele>184.0</ele><time>2026-04-19T12:03:08.954Z</time></trkpt><trkpt lat="45.490875" lon="8.4067067"><ele>184.0</ele><time>2026-04-19T12:03:09.955Z</time></trkpt><trkpt lat="45.49099" lon="8.4067117"><ele>184.0</ele><time>2026-04-19T12:03:10.955Z</time></trkpt><trkpt lat="45.491095" lon="8.406715"><ele>184.0</ele><time>2026-04-19T12:03:11.955Z</time></trkpt><trkpt lat="45.4912" lon="8.4067233"><ele>184.0</ele><time>2026-04-19T12:03:12.954Z</time></trkpt><trkpt lat="45.4913083" lon="8.4067333"><ele>184.0</ele><time>2026-04-19T12:03:13.954Z</time></trkpt><trkpt lat="45.491415" lon="8.40675"><ele>184.0</ele><time>2026-04-19T12:03:14.954Z</time></trkpt><trkpt lat="45.49152" lon="8.4067583"><ele>184.0</ele><time>2026-04-19T12:03:15.954Z</time></trkpt><trkpt lat="45.491625" lon="8.4067633"><ele>184.0</ele><time>2026-04-19T12:03:16.954Z</time></trkpt><trkpt lat="45.4917333" lon="8.40676"><ele>184.0</ele><time>2026-04-19T12:03:17.954Z</time></trkpt><trkpt lat="45.4918383" lon="8.4067683"><ele>184.0</ele><time>2026-04-19T12:03:18.955Z</time></trkpt><trkpt lat="45.4919433" lon="8.40677"><ele>184.0</ele><time>2026-04-19T12:03:19.955Z</time></trkpt><trkpt lat="45.4920483" lon="8.40678"><ele>184.0</ele><time>2026-04-19T12:03:20.954Z</time></trkpt><trkpt lat="45.4921533" lon="8.4067817"><ele>184.0</ele><time>2026-04-19T12:03:21.955Z</time></trkpt><trkpt lat="45.4922667" lon="8.4067933"><ele>184.0</ele><time>2026-04-19T12:03:22.954Z</time></trkpt><trkpt lat="45.4923817" lon="8.4068033"><ele>183.0</ele><time>2026-04-19T12:03:23.955Z</time></trkpt><trkpt lat="45.492495" lon="8.406805"><ele>182.0</ele><time>2026-04-19T12:03:24.955Z</time></trkpt><trkpt lat="45.4926133" lon="8.4067983"><ele>181.0</ele><time>2026-04-19T12:03:25.955Z</time></trkpt><trkpt lat="45.4927283" lon="8.4068017"><ele>180.0</ele><time>2026-04-19T12:03:26.954Z</time></trkpt><trkpt lat="45.4928383" lon="8.4068033"><ele>180.25</ele><time>2026-04-19T12:03:27.954Z</time></trkpt><trkpt lat="45.49295" lon="8.4068183"><ele>180.5</ele><time>2026-04-19T12:03:28.955Z</time></trkpt><trkpt lat="45.49307" lon="8.40683"><ele>180.75</ele><time>2026-04-19T12:03:29.955Z</time></trkpt><trkpt lat="45.49319" lon="8.4068367"><ele>181.0</ele><time>2026-04-19T12:03:30.955Z</time></trkpt><trkpt lat="45.49331" lon="8.4068367"><ele>181.0</ele><time>2026-04-19T12:03:31.955Z</time></trkpt><trkpt lat="45.4934333" lon="8.40684"><ele>181.0</ele><time>2026-04-19T12:03:32.955Z</time></trkpt><trkpt lat="45.4935517" lon="8.4068367"><ele>181.0</ele><time>2026-04-19T12:03:33.954Z</time></trkpt><trkpt lat="45.4936733" lon="8.4068017"><ele>181.0</ele><time>2026-04-19T12:03:34.955Z</time></trkpt><trkpt lat="45.4937933" lon="8.4067667"><ele>180.5</ele><time>2026-04-19T12:03:35.954Z</time></trkpt><trkpt lat="45.4939083" lon="8.4067333"><ele>180.0</ele><time>2026-04-19T12:03:36.955Z</time></trkpt><trkpt lat="45.4940267" lon="8.4066917"><ele>179.5</ele><time>2026-04-19T12:03:37.955Z</time></trkpt><trkpt lat="45.4941517" lon="8.4066683"><ele>179.0</ele><time>2026-04-19T12:03:38.954Z</time></trkpt><trkpt lat="45.4942683" lon="8.4066333"><ele>179.0</ele><time>2026-04-19T12:03:39.954Z</time></trkpt><trkpt lat="45.4943933" lon="8.406595"><ele>179.0</ele><time>2026-04-19T12:03:40.954Z</time></trkpt><trkpt lat="45.4945117" lon="8.40656"><ele>179.0</ele><time>2026-04-19T12:03:41.954Z</time></trkpt><trkpt lat="45.494635" lon="8.4065267"><ele>179.0</ele><time>2026-04-19T12:03:42.954Z</time></trkpt><trkpt lat="45.4947667" lon="8.4064967"><ele>179.5</ele><time>2026-04-19T12:03:43.954Z</time></trkpt><trkpt lat="45.4948917" lon="8.4064733"><ele>180.0</ele><time>2026-04-19T12:03:44.955Z</time></trkpt><trkpt lat="45.49502" lon="8.4064517"><ele>180.5</ele><time>2026-04-19T12:03:45.955Z</time></trkpt><trkpt lat="45.4951517" lon="8.4064217"><ele>181.0</ele><time>2026-04-19T12:03:46.954Z</time></trkpt><trkpt lat="45.49527" lon="8.4063983"><ele>181.0</ele><time>2026-04-19T12:03:47.955Z</time></trkpt><trkpt lat="45.495385" lon="8.40638"><ele>181.0</ele><time>2026-04-19T12:03:48.955Z</time></trkpt><trkpt lat="45.4955017" lon="8.40636"><ele>181.0</ele><time>2026-04-19T12:03:49.955Z</time></trkpt><trkpt lat="45.4955967" lon="8.40634"><ele>181.0</ele><time>2026-04-19T12:03:50.955Z</time></trkpt><trkpt lat="45.4956717" lon="8.4063367"><ele>181.0</ele><time>2026-04-19T12:03:51.954Z</time></trkpt><trkpt lat="45.4957383" lon="8.4063517"><ele>181.5</ele><time>2026-04-19T12:03:52.955Z</time></trkpt><trkpt lat="45.4958417" lon="8.4064033"><ele>182.0</ele><time>2026-04-19T12:03:54.954Z</time></trkpt><trkpt lat="45.4958817" lon="8.406475"><ele>182.5</ele><time>2026-04-19T12:03:55.955Z</time></trkpt><trkpt lat="45.4959233" lon="8.4065567"><ele>183.0</ele><time>2026-04-19T12:03:56.954Z</time></trkpt><trkpt lat="45.4959667" lon="8.406695"><ele>183.5</ele><time>2026-04-19T12:03:58.955Z</time></trkpt><trkpt lat="45.4960233" lon="8.4067567"><ele>184.0</ele><time>2026-04-19T12:04:00.954Z</time></trkpt><trkpt lat="45.496095" lon="8.4068017"><ele>184.0</ele><time>2026-04-19T12:04:41.954Z</time></trkpt><trkpt lat="45.49612" lon="8.4069183"><ele>184.0</ele><time>2026-04-19T12:04:45.955Z</time></trkpt><trkpt lat="45.496075" lon="8.4070133"><ele>184.0</ele><time>2026-04-19T12:04:48.955Z</time></trkpt><trkpt lat="45.4959967" lon="8.4070667"><ele>184.0</ele><time>2026-04-19T12:04:50.954Z</time></trkpt><trkpt lat="45.4958883" lon="8.407125"><ele>184.0</ele><time>2026-04-19T12:04:52.954Z</time></trkpt><trkpt lat="45.4957733" lon="8.4071983"><ele>184.16666666666669</ele><time>2026-04-19T12:04:54.954Z</time></trkpt><trkpt lat="45.49571" lon="8.4072467"><ele>184.33333333333334</ele><time>2026-04-19T12:04:55.955Z</time></trkpt><trkpt lat="45.49564" lon="8.4072983"><ele>184.5</ele><time>2026-04-19T12:04:56.954Z</time></trkpt><trkpt lat="45.4955767" lon="8.4073533"><ele>184.66666666666666</ele><time>2026-04-19T12:04:57.955Z</time></trkpt><trkpt lat="45.495505" lon="8.407405"><ele>184.83333333333331</ele><time>2026-04-19T12:04:58.954Z</time></trkpt><trkpt lat="45.495435" lon="8.4074483"><ele>185.0</ele><time>2026-04-19T12:04:59.955Z</time></trkpt><trkpt lat="45.495365" lon="8.4074967"><ele>185.0</ele><time>2026-04-19T12:05:00.954Z</time></trkpt><trkpt lat="45.4952967" lon="8.40754"><ele>185.0</ele><time>2026-04-19T12:05:01.955Z</time></trkpt><trkpt lat="45.4952317" lon="8.407585"><ele>185.0</ele><time>2026-04-19T12:05:02.955Z</time></trkpt><trkpt lat="45.4951633" lon="8.4076283"><ele>185.0</ele><time>2026-04-19T12:05:03.955Z</time></trkpt><trkpt lat="45.4950917" lon="8.407665"><ele>185.0</ele><time>2026-04-19T12:05:04.954Z</time></trkpt><trkpt lat="45.49502" lon="8.4077033"><ele>185.0</ele><time>2026-04-19T12:05:05.955Z</time></trkpt><trkpt lat="45.49495" lon="8.4077483"><ele>185.0</ele><time>2026-04-19T12:05:06.955Z</time></trkpt><trkpt lat="45.4948733" lon="8.40779"><ele>185.0</ele><time>2026-04-19T12:05:07.955Z</time></trkpt><trkpt lat="45.494795" lon="8.4078267"><ele>185.0</ele><time>2026-04-19T12:05:08.955Z</time></trkpt><trkpt lat="45.4947183" lon="8.4078767"><ele>185.0</ele><time>2026-04-19T12:05:09.954Z</time></trkpt><trkpt lat="45.4946433" lon="8.4079117"><ele>185.0</ele><time>2026-04-19T12:05:10.955Z</time></trkpt><trkpt lat="45.49457" lon="8.4079633"><ele>185.0</ele><time>2026-04-19T12:05:11.954Z</time></trkpt><trkpt lat="45.4944883" lon="8.4080117"><ele>185.33333333333331</ele><time>2026-04-19T12:05:12.955Z</time></trkpt><trkpt lat="45.494405" lon="8.4080517"><ele>185.66666666666666</ele><time>2026-04-19T12:05:13.954Z</time></trkpt><trkpt lat="45.4943233" lon="8.408095"><ele>186.0</ele><time>2026-04-19T12:05:14.954Z</time></trkpt><trkpt lat="45.4942483" lon="8.4081333"><ele>186.33333333333334</ele><time>2026-04-19T12:05:15.955Z</time></trkpt><trkpt lat="45.4941717" lon="8.4081767"><ele>186.66666666666669</ele><time>2026-04-19T12:05:16.954Z</time></trkpt><trkpt lat="45.494095" lon="8.4082267"><ele>187.0</ele><time>2026-04-19T12:05:17.954Z</time></trkpt><trkpt lat="45.49402" lon="8.4082733"><ele>187.0</ele><time>2026-04-19T12:05:18.955Z</time></trkpt><trkpt lat="45.4939383" lon="8.408315"><ele>187.0</ele><time>2026-04-19T12:05:19.954Z</time></trkpt><trkpt lat="45.493855" lon="8.4083583"><ele>187.0</ele><time>2026-04-19T12:05:20.954Z</time></trkpt><trkpt lat="45.4937733" lon="8.4084067"><ele>187.0</ele><time>2026-04-19T12:05:21.955Z</time></trkpt><trkpt lat="45.493695" lon="8.4084483"><ele>187.0</ele><time>2026-04-19T12:05:22.954Z</time></trkpt><trkpt lat="45.4936267" lon="8.4084917"><ele>187.0</ele><time>2026-04-19T12:05:23.954Z</time></trkpt><trkpt lat="45.4935667" lon="8.408545"><ele>186.5</ele><time>2026-04-19T12:05:24.954Z</time></trkpt><trkpt lat="45.4935117" lon="8.4086033"><ele>186.0</ele><time>2026-04-19T12:05:25.955Z</time></trkpt><trkpt lat="45.4934583" lon="8.4086567"><ele>185.5</ele><time>2026-04-19T12:05:26.954Z</time></trkpt><trkpt lat="45.4934017" lon="8.4087717"><ele>185.0</ele><time>2026-04-19T12:05:28.954Z</time></trkpt><trkpt lat="45.4934083" lon="8.4089133"><ele>184.5</ele><time>2026-04-19T12:05:30.954Z</time></trkpt><trkpt lat="45.4934467" lon="8.4090033"><ele>184.0</ele><time>2026-04-19T12:05:31.955Z</time></trkpt><trkpt lat="45.4934917" lon="8.4091067"><ele>183.39999999999998</ele><time>2026-04-19T12:05:32.955Z</time></trkpt><trkpt lat="45.4935267" lon="8.4092217"><ele>182.8</ele><time>2026-04-19T12:05:33.955Z</time></trkpt><trkpt lat="45.4935617" lon="8.4093417"><ele>182.2</ele><time>2026-04-19T12:05:34.955Z</time></trkpt><trkpt lat="45.49358" lon="8.4094867"><ele>181.60000000000002</ele><time>2026-04-19T12:05:35.955Z</time></trkpt><trkpt lat="45.493605" lon="8.4096233"><ele>181.0</ele><time>2026-04-19T12:05:36.955Z</time></trkpt><trkpt lat="45.4936383" lon="8.4097467"><ele>180.60000000000002</ele><time>2026-04-19T12:05:37.954Z</time></trkpt><trkpt lat="45.493665" lon="8.4098883"><ele>180.2</ele><time>2026-04-19T12:05:38.954Z</time></trkpt><trkpt lat="45.4936883" lon="8.410025"><ele>179.8</ele><time>2026-04-19T12:05:39.955Z</time></trkpt><trkpt lat="45.493715" lon="8.4101617"><ele>179.39999999999998</ele><time>2026-04-19T12:05:40.955Z</time></trkpt><trkpt lat="45.4937417" lon="8.4103067"><ele>179.0</ele><time>2026-04-19T12:05:41.955Z</time></trkpt><trkpt lat="45.4937783" lon="8.4104533"><ele>179.0</ele><time>2026-04-19T12:05:42.955Z</time></trkpt><trkpt lat="45.493815" lon="8.4105883"><ele>179.0</ele><time>2026-04-19T12:05:43.954Z</time></trkpt><trkpt lat="45.4938583" lon="8.4107283"><ele>179.0</ele><time>2026-04-19T12:05:44.955Z</time></trkpt><trkpt lat="45.4939033" lon="8.4108633"><ele>179.0</ele><time>2026-04-19T12:05:45.954Z</time></trkpt><trkpt lat="45.4939417" lon="8.4110033"><ele>179.0</ele><time>2026-04-19T12:05:46.954Z</time></trkpt><trkpt lat="45.4939883" lon="8.4111383"><ele>179.0</ele><time>2026-04-19T12:05:47.953Z</time></trkpt><trkpt lat="45.4940383" lon="8.4112667"><ele>179.0</ele><time>2026-04-19T12:05:48.954Z</time></trkpt><trkpt lat="45.4940817" lon="8.4113933"><ele>179.0</ele><time>2026-04-19T12:05:49.954Z</time></trkpt><trkpt lat="45.4941217" lon="8.41151"><ele>179.0</ele><time>2026-04-19T12:05:50.954Z</time></trkpt><trkpt lat="45.494155" lon="8.4116017"><ele>179.0</ele><time>2026-04-19T12:05:51.954Z</time></trkpt><trkpt lat="45.4941917" lon="8.4116917"><ele>179.0</ele><time>2026-04-19T12:05:52.954Z</time></trkpt><trkpt lat="45.49424" lon="8.4117983"><ele>179.0</ele><time>2026-04-19T12:05:53.954Z</time></trkpt><trkpt lat="45.4942967" lon="8.4119167"><ele>179.0</ele><time>2026-04-19T12:05:54.954Z</time></trkpt><trkpt lat="45.49435" lon="8.4120267"><ele>179.0</ele><time>2026-04-19T12:05:55.953Z</time></trkpt><trkpt lat="45.49441" lon="8.4121417"><ele>179.0</ele><time>2026-04-19T12:05:56.953Z</time></trkpt><trkpt lat="45.4944567" lon="8.4122517"><ele>179.0</ele><time>2026-04-19T12:05:57.954Z</time></trkpt><trkpt lat="45.4945" lon="8.4123833"><ele>178.79999999999998</ele><time>2026-04-19T12:05:58.954Z</time></trkpt><trkpt lat="45.4945383" lon="8.41251"><ele>178.6</ele><time>2026-04-19T12:05:59.954Z</time></trkpt><trkpt lat="45.49457" lon="8.4126433"><ele>178.4</ele><time>2026-04-19T12:06:00.954Z</time></trkpt><trkpt lat="45.49461" lon="8.4127767"><ele>178.2</ele><time>2026-04-19T12:06:01.953Z</time></trkpt><trkpt lat="45.4946583" lon="8.4129217"><ele>178.0</ele><time>2026-04-19T12:06:02.953Z</time></trkpt><trkpt lat="45.4947133" lon="8.4130617"><ele>178.4</ele><time>2026-04-19T12:06:03.953Z</time></trkpt><trkpt lat="45.4947717" lon="8.4131967"><ele>178.8</ele><time>2026-04-19T12:06:04.953Z</time></trkpt><trkpt lat="45.494835" lon="8.4133167"><ele>179.2</ele><time>2026-04-19T12:06:05.953Z</time></trkpt><trkpt lat="45.4949" lon="8.4134467"><ele>179.6</ele><time>2026-04-19T12:06:06.954Z</time></trkpt><trkpt lat="45.4949633" lon="8.41357"><ele>180.0</ele><time>2026-04-19T12:06:07.953Z</time></trkpt><trkpt lat="45.4950217" lon="8.4136867"><ele>180.0</ele><time>2026-04-19T12:06:08.953Z</time></trkpt><trkpt lat="45.4950767" lon="8.4138083"><ele>180.0</ele><time>2026-04-19T12:06:09.954Z</time></trkpt><trkpt lat="45.495125" lon="8.4139233"><ele>180.0</ele><time>2026-04-19T12:06:10.954Z</time></trkpt><trkpt lat="45.4951567" lon="8.4140483"><ele>180.0</ele><time>2026-04-19T12:06:11.954Z</time></trkpt><trkpt lat="45.4951733" lon="8.4141867"><ele>180.0</ele><time>2026-04-19T12:06:12.953Z</time></trkpt><trkpt lat="45.4951617" lon="8.4143283"><ele>179.75</ele><time>2026-04-19T12:06:13.953Z</time></trkpt><trkpt lat="45.4951317" lon="8.4144683"><ele>179.5</ele><time>2026-04-19T12:06:14.954Z</time></trkpt><trkpt lat="45.49509" lon="8.41462"><ele>179.25</ele><time>2026-04-19T12:06:15.954Z</time></trkpt><trkpt lat="45.495035" lon="8.4147767"><ele>179.0</ele><time>2026-04-19T12:06:16.953Z</time></trkpt><trkpt lat="45.49499" lon="8.414925"><ele>179.0</ele><time>2026-04-19T12:06:17.953Z</time></trkpt><trkpt lat="45.4949367" lon="8.4150783"><ele>179.0</ele><time>2026-04-19T12:06:18.954Z</time></trkpt><trkpt lat="45.4948867" lon="8.4152333"><ele>179.0</ele><time>2026-04-19T12:06:19.953Z</time></trkpt><trkpt lat="45.4948517" lon="8.4153733"><ele>179.0</ele><time>2026-04-19T12:06:20.953Z</time></trkpt><trkpt lat="45.494825" lon="8.4155017"><ele>179.0</ele><time>2026-04-19T12:06:21.953Z</time></trkpt><trkpt lat="45.4948" lon="8.415635"><ele>178.79999999999998</ele><time>2026-04-19T12:06:22.953Z</time></trkpt><trkpt lat="45.49479" lon="8.41578"><ele>178.6</ele><time>2026-04-19T12:06:23.953Z</time></trkpt><trkpt lat="45.4947867" lon="8.4159167"><ele>178.4</ele><time>2026-04-19T12:06:24.954Z</time></trkpt><trkpt lat="45.4947917" lon="8.416075"><ele>178.2</ele><time>2026-04-19T12:06:25.953Z</time></trkpt><trkpt lat="45.494795" lon="8.4162483"><ele>178.0</ele><time>2026-04-19T12:06:26.953Z</time></trkpt><trkpt lat="45.4947983" lon="8.4164167"><ele>178.33333333333334</ele><time>2026-04-19T12:06:27.954Z</time></trkpt><trkpt lat="45.4948017" lon="8.4165667"><ele>178.66666666666669</ele><time>2026-04-19T12:06:28.954Z</time></trkpt><trkpt lat="45.4948033" lon="8.416705"><ele>179.0</ele><time>2026-04-19T12:06:29.954Z</time></trkpt><trkpt lat="45.4948017" lon="8.4168333"><ele>179.33333333333334</ele><time>2026-04-19T12:06:30.954Z</time></trkpt><trkpt lat="45.4948017" lon="8.416945"><ele>179.66666666666666</ele><time>2026-04-19T12:06:31.953Z</time></trkpt><trkpt lat="45.494805" lon="8.4170483"><ele>180.0</ele><time>2026-04-19T12:06:32.954Z</time></trkpt><trkpt lat="45.4947967" lon="8.417215"><ele>180.2</ele><time>2026-04-19T12:06:34.954Z</time></trkpt><trkpt lat="45.49479" lon="8.4173767"><ele>180.4</ele><time>2026-04-19T12:06:36.953Z</time></trkpt><trkpt lat="45.49479" lon="8.4174967"><ele>180.60000000000002</ele><time>2026-04-19T12:06:37.954Z</time></trkpt><trkpt lat="45.49482" lon="8.4176217"><ele>180.8</ele><time>2026-04-19T12:06:38.954Z</time></trkpt><trkpt lat="45.4948517" lon="8.4177683"><ele>181.0</ele><time>2026-04-19T12:06:39.954Z</time></trkpt><trkpt lat="45.4948883" lon="8.41792"><ele>180.75</ele><time>2026-04-19T12:06:40.954Z</time></trkpt><trkpt lat="45.4949283" lon="8.4180717"><ele>180.5</ele><time>2026-04-19T12:06:41.954Z</time></trkpt><trkpt lat="45.4949633" lon="8.418245"><ele>180.25</ele><time>2026-04-19T12:06:42.954Z</time></trkpt><trkpt lat="45.4950133" lon="8.41842"><ele>180.0</ele><time>2026-04-19T12:06:43.954Z</time></trkpt><trkpt lat="45.495065" lon="8.4185917"><ele>180.0</ele><time>2026-04-19T12:06:44.953Z</time></trkpt><trkpt lat="45.495115" lon="8.4187617"><ele>180.0</ele><time>2026-04-19T12:06:45.954Z</time></trkpt><trkpt lat="45.4951733" lon="8.4189383"><ele>180.0</ele><time>2026-04-19T12:06:46.953Z</time></trkpt><trkpt lat="45.49522" lon="8.4191267"><ele>180.0</ele><time>2026-04-19T12:06:47.954Z</time></trkpt><trkpt lat="45.4952733" lon="8.4193317"><ele>180.0</ele><time>2026-04-19T12:06:48.954Z</time></trkpt><trkpt lat="45.495325" lon="8.41951"><ele>180.0</ele><time>2026-04-19T12:06:49.954Z</time></trkpt><trkpt lat="45.4953817" lon="8.4196917"><ele>180.0</ele><time>2026-04-19T12:06:50.953Z</time></trkpt><trkpt lat="45.4954283" lon="8.41987"><ele>180.0</ele><time>2026-04-19T12:06:51.953Z</time></trkpt><trkpt lat="45.49548" lon="8.4200567"><ele>180.5</ele><time>2026-04-19T12:06:52.953Z</time></trkpt><trkpt lat="45.4955333" lon="8.4202433"><ele>181.0</ele><time>2026-04-19T12:06:53.953Z</time></trkpt><trkpt lat="45.4955867" lon="8.4204233"><ele>181.5</ele><time>2026-04-19T12:06:54.953Z</time></trkpt><trkpt lat="45.4956467" lon="8.4206033"><ele>182.0</ele><time>2026-04-19T12:06:55.954Z</time></trkpt><trkpt lat="45.4957117" lon="8.4207767"><ele>182.0</ele><time>2026-04-19T12:06:56.954Z</time></trkpt><trkpt lat="45.49577" lon="8.4209533"><ele>182.0</ele><time>2026-04-19T12:06:57.954Z</time></trkpt><trkpt lat="45.4958333" lon="8.4211333"><ele>182.0</ele><time>2026-04-19T12:06:58.954Z</time></trkpt><trkpt lat="45.4958883" lon="8.4213"><ele>182.0</ele><time>2026-04-19T12:06:59.953Z</time></trkpt><trkpt lat="45.49594" lon="8.4214733"><ele>182.25</ele><time>2026-04-19T12:07:00.954Z</time></trkpt><trkpt lat="45.495995" lon="8.4216367"><ele>182.5</ele><time>2026-04-19T12:07:01.953Z</time></trkpt><trkpt lat="45.49605" lon="8.42178"><ele>182.75</ele><time>2026-04-19T12:07:02.953Z</time></trkpt><trkpt lat="45.496095" lon="8.4219267"><ele>183.0</ele><time>2026-04-19T12:07:03.954Z</time></trkpt><trkpt lat="45.49612" lon="8.4220683"><ele>183.2</ele><time>2026-04-19T12:07:04.954Z</time></trkpt><trkpt lat="45.49613" lon="8.4222183"><ele>183.4</ele><time>2026-04-19T12:07:05.954Z</time></trkpt><trkpt lat="45.4961167" lon="8.422375"><ele>183.6</ele><time>2026-04-19T12:07:06.953Z</time></trkpt><trkpt lat="45.4960933" lon="8.4225117"><ele>183.79999999999998</ele><time>2026-04-19T12:07:07.954Z</time></trkpt><trkpt lat="45.496065" lon="8.4226483"><ele>184.0</ele><time>2026-04-19T12:07:08.954Z</time></trkpt><trkpt lat="45.4960483" lon="8.4227717"><ele>184.0</ele><time>2026-04-19T12:07:09.954Z</time></trkpt><trkpt lat="45.4960183" lon="8.4228933"><ele>184.0</ele><time>2026-04-19T12:07:10.953Z</time></trkpt><trkpt lat="45.4959867" lon="8.4230317"><ele>184.0</ele><time>2026-04-19T12:07:11.953Z</time></trkpt><trkpt lat="45.495965" lon="8.4231817"><ele>184.0</ele><time>2026-04-19T12:07:12.954Z</time></trkpt><trkpt lat="45.4959367" lon="8.4233433"><ele>184.0</ele><time>2026-04-19T12:07:13.954Z</time></trkpt><trkpt lat="45.4959017" lon="8.4235117"><ele>184.0</ele><time>2026-04-19T12:07:14.953Z</time></trkpt><trkpt lat="45.4958733" lon="8.4236833"><ele>184.0</ele><time>2026-04-19T12:07:15.954Z</time></trkpt><trkpt lat="45.4958417" lon="8.4238583"><ele>184.0</ele><time>2026-04-19T12:07:16.953Z</time></trkpt><trkpt lat="45.4958167" lon="8.4240467"><ele>184.0</ele><time>2026-04-19T12:07:17.954Z</time></trkpt><trkpt lat="45.4957783" lon="8.4242383"><ele>183.75</ele><time>2026-04-19T12:07:18.954Z</time></trkpt><trkpt lat="45.4957667" lon="8.4244367"><ele>183.5</ele><time>2026-04-19T12:07:19.953Z</time></trkpt><trkpt lat="45.4957683" lon="8.4246333"><ele>183.25</ele><time>2026-04-19T12:07:20.954Z</time></trkpt><trkpt lat="45.4957683" lon="8.42484"><ele>183.0</ele><time>2026-04-19T12:07:21.953Z</time></trkpt><trkpt lat="45.49577" lon="8.42505"><ele>182.75</ele><time>2026-04-19T12:07:22.954Z</time></trkpt><trkpt lat="45.4957733" lon="8.42526"><ele>182.5</ele><time>2026-04-19T12:07:23.954Z</time></trkpt><trkpt lat="45.4957783" lon="8.4254667"><ele>182.25</ele><time>2026-04-19T12:07:24.953Z</time></trkpt><trkpt lat="45.4957883" lon="8.4256583"><ele>182.0</ele><time>2026-04-19T12:07:25.954Z</time></trkpt><trkpt lat="45.4957933" lon="8.4258133"><ele>181.83333333333331</ele><time>2026-04-19T12:07:26.954Z</time></trkpt><trkpt lat="45.4958017" lon="8.4259167"><ele>181.66666666666666</ele><time>2026-04-19T12:07:27.954Z</time></trkpt><trkpt lat="45.4958083" lon="8.4260617"><ele>181.5</ele><time>2026-04-19T12:07:29.953Z</time></trkpt><trkpt lat="45.49581" lon="8.4261717"><ele>181.33333333333334</ele><time>2026-04-19T12:07:32.954Z</time></trkpt><trkpt lat="45.49581" lon="8.426275"><ele>181.16666666666669</ele><time>2026-04-19T12:07:35.954Z</time></trkpt><trkpt lat="45.4958017" lon="8.426405"><ele>181.0</ele><time>2026-04-19T12:07:39.953Z</time></trkpt><trkpt lat="45.4958117" lon="8.42658"><ele>180.4</ele><time>2026-04-19T12:07:41.954Z</time></trkpt><trkpt lat="45.495815" lon="8.4267"><ele>179.8</ele><time>2026-04-19T12:07:42.953Z</time></trkpt><trkpt lat="45.4958217" lon="8.4268317"><ele>179.20000000000002</ele><time>2026-04-19T12:07:43.954Z</time></trkpt><trkpt lat="45.4958433" lon="8.42697"><ele>178.60000000000002</ele><time>2026-04-19T12:07:44.953Z</time></trkpt><trkpt lat="45.4958617" lon="8.4271167"><ele>178.0</ele><time>2026-04-19T12:07:45.954Z</time></trkpt><trkpt lat="45.4958717" lon="8.42726"><ele>177.75</ele><time>2026-04-19T12:07:46.954Z</time></trkpt><trkpt lat="45.4958767" lon="8.4274167"><ele>177.5</ele><time>2026-04-19T12:07:47.954Z</time></trkpt><trkpt lat="45.4958817" lon="8.42758"><ele>177.25</ele><time>2026-04-19T12:07:48.953Z</time></trkpt><trkpt lat="45.4958867" lon="8.4277533"><ele>177.0</ele><time>2026-04-19T12:07:49.954Z</time></trkpt><trkpt lat="45.495885" lon="8.4279317"><ele>177.5</ele><time>2026-04-19T12:07:50.953Z</time></trkpt><trkpt lat="45.4958883" lon="8.42812"><ele>178.0</ele><time>2026-04-19T12:07:51.953Z</time></trkpt><trkpt lat="45.49589" lon="8.4283033"><ele>178.5</ele><time>2026-04-19T12:07:52.954Z</time></trkpt><trkpt lat="45.4958933" lon="8.4284883"><ele>179.0</ele><time>2026-04-19T12:07:53.954Z</time></trkpt><trkpt lat="45.4958933" lon="8.4286783"><ele>179.0</ele><time>2026-04-19T12:07:54.954Z</time></trkpt><trkpt lat="45.4958917" lon="8.4288583"><ele>179.0</ele><time>2026-04-19T12:07:55.954Z</time></trkpt><trkpt lat="45.4958917" lon="8.4290383"><ele>179.0</ele><time>2026-04-19T12:07:56.953Z</time></trkpt><trkpt lat="45.4958867" lon="8.429215"><ele>179.0</ele><time>2026-04-19T12:07:57.953Z</time></trkpt><trkpt lat="45.495875" lon="8.4293817"><ele>179.0</ele><time>2026-04-19T12:07:58.954Z</time></trkpt><trkpt lat="45.4958783" lon="8.42955"><ele>179.0</ele><time>2026-04-19T12:07:59.954Z</time></trkpt><trkpt lat="45.495895" lon="8.4297283"><ele>179.0</ele><time>2026-04-19T12:08:00.953Z</time></trkpt><trkpt lat="45.49592" lon="8.4299017"><ele>179.0</ele><time>2026-04-19T12:08:01.954Z</time></trkpt><trkpt lat="45.4959417" lon="8.4300767"><ele>179.0</ele><time>2026-04-19T12:08:02.954Z</time></trkpt><trkpt lat="45.4959583" lon="8.4302567"><ele>179.0</ele><time>2026-04-19T12:08:03.953Z</time></trkpt><trkpt lat="45.495975" lon="8.430445"><ele>179.0</ele><time>2026-04-19T12:08:04.954Z</time></trkpt><trkpt lat="45.4959883" lon="8.4306383"><ele>179.0</ele><time>2026-04-19T12:08:05.953Z</time></trkpt><trkpt lat="45.496005" lon="8.4308467"><ele>179.0</ele><time>2026-04-19T12:08:06.954Z</time></trkpt><trkpt lat="45.496025" lon="8.4310633"><ele>179.0</ele><time>2026-04-19T12:08:07.953Z</time></trkpt><trkpt lat="45.496045" lon="8.43129"><ele>179.0</ele><time>2026-04-19T12:08:08.953Z</time></trkpt><trkpt lat="45.4960617" lon="8.43152"><ele>179.66666666666666</ele><time>2026-04-19T12:08:09.953Z</time></trkpt><trkpt lat="45.4960783" lon="8.431765"><ele>180.33333333333334</ele><time>2026-04-19T12:08:10.954Z</time></trkpt><trkpt lat="45.496105" lon="8.4320083"><ele>181.0</ele><time>2026-04-19T12:08:11.953Z</time></trkpt><trkpt lat="45.4961333" lon="8.4322567"><ele>181.0</ele><time>2026-04-19T12:08:12.953Z</time></trkpt><trkpt lat="45.496155" lon="8.4325017"><ele>181.0</ele><time>2026-04-19T12:08:13.954Z</time></trkpt><trkpt lat="45.4961817" lon="8.432745"><ele>181.0</ele><time>2026-04-19T12:08:14.954Z</time></trkpt><trkpt lat="45.4962083" lon="8.4330017"><ele>181.0</ele><time>2026-04-19T12:08:15.953Z</time></trkpt><trkpt lat="45.4962417" lon="8.43325"><ele>181.0</ele><time>2026-04-19T12:08:16.954Z</time></trkpt><trkpt lat="45.4962667" lon="8.433505"><ele>181.0</ele><time>2026-04-19T12:08:17.953Z</time></trkpt><trkpt lat="45.4962917" lon="8.4337567"><ele>180.66666666666669</ele><time>2026-04-19T12:08:18.953Z</time></trkpt><trkpt lat="45.4963217" lon="8.4340083"><ele>180.33333333333334</ele><time>2026-04-19T12:08:19.954Z</time></trkpt><trkpt lat="45.49635" lon="8.4342583"><ele>180.0</ele><time>2026-04-19T12:08:20.954Z</time></trkpt><trkpt lat="45.4963783" lon="8.4345117"><ele>181.33333333333334</ele><time>2026-04-19T12:08:21.954Z</time></trkpt><trkpt lat="45.4964017" lon="8.4347633"><ele>182.66666666666669</ele><time>2026-04-19T12:08:22.954Z</time></trkpt><trkpt lat="45.496425" lon="8.4350083"><ele>184.0</ele><time>2026-04-19T12:08:23.953Z</time></trkpt><trkpt lat="45.496455" lon="8.435255"><ele>182.66666666666669</ele><time>2026-04-19T12:08:24.954Z</time></trkpt><trkpt lat="45.496485" lon="8.435495"><ele>181.33333333333334</ele><time>2026-04-19T12:08:25.954Z</time></trkpt><trkpt lat="45.496515" lon="8.4357367"><ele>180.0</ele><time>2026-04-19T12:08:26.953Z</time></trkpt><trkpt lat="45.496545" lon="8.4359833"><ele>180.0</ele><time>2026-04-19T12:08:27.954Z</time></trkpt><trkpt lat="45.496565" lon="8.43622"><ele>180.0</ele><time>2026-04-19T12:08:28.954Z</time></trkpt><trkpt lat="45.4965817" lon="8.436455"><ele>180.0</ele><time>2026-04-19T12:08:29.954Z</time></trkpt><trkpt lat="45.4965933" lon="8.43669"><ele>180.0</ele><time>2026-04-19T12:08:30.953Z</time></trkpt><trkpt lat="45.4966" lon="8.4369167"><ele>180.0</ele><time>2026-04-19T12:08:31.954Z</time></trkpt><trkpt lat="45.4966017" lon="8.4371467"><ele>180.0</ele><time>2026-04-19T12:08:32.953Z</time></trkpt><trkpt lat="45.4966067" lon="8.437375"><ele>180.0</ele><time>2026-04-19T12:08:33.954Z</time></trkpt><trkpt lat="45.496615" lon="8.4376133"><ele>180.0</ele><time>2026-04-19T12:08:34.953Z</time></trkpt><trkpt lat="45.49662" lon="8.43784"><ele>180.0</ele><time>2026-04-19T12:08:35.954Z</time></trkpt><trkpt lat="45.496625" lon="8.4380683"><ele>179.66666666666666</ele><time>2026-04-19T12:08:36.953Z</time></trkpt><trkpt lat="45.49663" lon="8.4383"><ele>179.33333333333331</ele><time>2026-04-19T12:08:37.953Z</time></trkpt><trkpt lat="45.4966283" lon="8.4385283"><ele>179.0</ele><time>2026-04-19T12:08:38.953Z</time></trkpt><trkpt lat="45.4966333" lon="8.438755"><ele>179.66666666666666</ele><time>2026-04-19T12:08:39.954Z</time></trkpt><trkpt lat="45.4966333" lon="8.4389833"><ele>180.33333333333334</ele><time>2026-04-19T12:08:40.953Z</time></trkpt><trkpt lat="45.49664" lon="8.4392133"><ele>181.0</ele><time>2026-04-19T12:08:41.954Z</time></trkpt><trkpt lat="45.496645" lon="8.439445"><ele>181.66666666666669</ele><time>2026-04-19T12:08:42.954Z</time></trkpt><trkpt lat="45.496645" lon="8.4396717"><ele>182.33333333333334</ele><time>2026-04-19T12:08:43.954Z</time></trkpt><trkpt lat="45.496645" lon="8.4398933"><ele>183.0</ele><time>2026-04-19T12:08:44.953Z</time></trkpt><trkpt lat="45.4966217" lon="8.4401167"><ele>183.0</ele><time>2026-04-19T12:08:45.953Z</time></trkpt><trkpt lat="45.4965767" lon="8.4403433"><ele>183.0</ele><time>2026-04-19T12:08:46.954Z</time></trkpt><trkpt lat="45.4965183" lon="8.4405683"><ele>183.0</ele><time>2026-04-19T12:08:47.954Z</time></trkpt><trkpt lat="45.4964417" lon="8.440785"><ele>182.0</ele><time>2026-04-19T12:08:48.953Z</time></trkpt><trkpt lat="45.4963483" lon="8.4409967"><ele>181.0</ele><time>2026-04-19T12:08:49.953Z</time></trkpt><trkpt lat="45.4962517" lon="8.4411983"><ele>180.0</ele><time>2026-04-19T12:08:50.953Z</time></trkpt><trkpt lat="45.4961433" lon="8.4414017"><ele>179.33333333333334</ele><time>2026-04-19T12:08:51.953Z</time></trkpt><trkpt lat="45.496035" lon="8.4416033"><ele>178.66666666666669</ele><time>2026-04-19T12:08:52.954Z</time></trkpt><trkpt lat="45.495925" lon="8.4418067"><ele>178.0</ele><time>2026-04-19T12:08:53.954Z</time></trkpt><trkpt lat="45.4958217" lon="8.442015"><ele>177.33333333333334</ele><time>2026-04-19T12:08:54.954Z</time></trkpt><trkpt lat="45.49572" lon="8.4422267"><ele>176.66666666666666</ele><time>2026-04-19T12:08:55.953Z</time></trkpt><trkpt lat="45.4956283" lon="8.442445"><ele>176.0</ele><time>2026-04-19T12:08:56.954Z</time></trkpt><trkpt lat="45.4955367" lon="8.4426633"><ele>176.0</ele><time>2026-04-19T12:08:57.953Z</time></trkpt><trkpt lat="45.49545" lon="8.4428717"><ele>176.0</ele><time>2026-04-19T12:08:58.954Z</time></trkpt><trkpt lat="45.4953517" lon="8.4430717"><ele>176.0</ele><time>2026-04-19T12:08:59.954Z</time></trkpt><trkpt lat="45.495235" lon="8.443245"><ele>176.0</ele><time>2026-04-19T12:09:00.953Z</time></trkpt><trkpt lat="45.49511" lon="8.4434017"><ele>176.0</ele><time>2026-04-19T12:09:01.953Z</time></trkpt><trkpt lat="45.4949717" lon="8.44355"><ele>176.0</ele><time>2026-04-19T12:09:02.954Z</time></trkpt><trkpt lat="45.4948233" lon="8.443685"><ele>176.0</ele><time>2026-04-19T12:09:03.954Z</time></trkpt><trkpt lat="45.49468" lon="8.44379"><ele>176.0</ele><time>2026-04-19T12:09:04.954Z</time></trkpt><trkpt lat="45.4945333" lon="8.44389"><ele>176.0</ele><time>2026-04-19T12:09:05.953Z</time></trkpt><trkpt lat="45.4943867" lon="8.4439783"><ele>176.33333333333331</ele><time>2026-04-19T12:09:06.954Z</time></trkpt><trkpt lat="45.494255" lon="8.4440967"><ele>176.66666666666666</ele><time>2026-04-19T12:09:07.953Z</time></trkpt><trkpt lat="45.4941083" lon="8.4441517"><ele>177.0</ele><time>2026-04-19T12:09:08.953Z</time></trkpt><trkpt lat="45.4939683" lon="8.444225"><ele>177.0</ele><time>2026-04-19T12:09:09.953Z</time></trkpt><trkpt lat="45.4938333" lon="8.4443017"><ele>177.0</ele><time>2026-04-19T12:09:10.954Z</time></trkpt><trkpt lat="45.493715" lon="8.444375"><ele>177.0</ele><time>2026-04-19T12:09:11.954Z</time></trkpt><trkpt lat="45.4936067" lon="8.444435"><ele>177.0</ele><time>2026-04-19T12:09:12.953Z</time></trkpt><trkpt lat="45.4935183" lon="8.44449"><ele>176.83333333333334</ele><time>2026-04-19T12:09:13.953Z</time></trkpt><trkpt lat="45.4934533" lon="8.4445517"><ele>176.66666666666666</ele><time>2026-04-19T12:09:14.954Z</time></trkpt><trkpt lat="45.4934067" lon="8.4446267"><ele>176.5</ele><time>2026-04-19T12:09:15.954Z</time></trkpt><trkpt lat="45.4934017" lon="8.4447417"><ele>176.33333333333331</ele><time>2026-04-19T12:09:16.954Z</time></trkpt><trkpt lat="45.493415" lon="8.444885"><ele>176.16666666666666</ele><time>2026-04-19T12:09:17.954Z</time></trkpt><trkpt lat="45.493445" lon="8.4450417"><ele>176.0</ele><time>2026-04-19T12:09:18.953Z</time></trkpt><trkpt lat="45.4934767" lon="8.4452083"><ele>176.25</ele><time>2026-04-19T12:09:19.953Z</time></trkpt><trkpt lat="45.4935067" lon="8.445385"><ele>176.5</ele><time>2026-04-19T12:09:20.953Z</time></trkpt><trkpt lat="45.493535" lon="8.4455633"><ele>176.75</ele><time>2026-04-19T12:09:21.954Z</time></trkpt><trkpt lat="45.4935567" lon="8.4457567"><ele>177.0</ele><time>2026-04-19T12:09:22.954Z</time></trkpt><trkpt lat="45.49358" lon="8.4459683"><ele>177.0</ele><time>2026-04-19T12:09:23.954Z</time></trkpt><trkpt lat="45.4936017" lon="8.4461733"><ele>177.0</ele><time>2026-04-19T12:09:24.954Z</time></trkpt><trkpt lat="45.493625" lon="8.4463917"><ele>177.0</ele><time>2026-04-19T12:09:25.954Z</time></trkpt><trkpt lat="45.4936567" lon="8.446615"><ele>176.75</ele><time>2026-04-19T12:09:26.953Z</time></trkpt><trkpt lat="45.4936883" lon="8.4468267"><ele>176.5</ele><time>2026-04-19T12:09:27.954Z</time></trkpt><trkpt lat="45.4937117" lon="8.4470267"><ele>176.25</ele><time>2026-04-19T12:09:28.954Z</time></trkpt><trkpt lat="45.49374" lon="8.4472233"><ele>176.0</ele><time>2026-04-19T12:09:29.954Z</time></trkpt><trkpt lat="45.49377" lon="8.447445"><ele>176.0</ele><time>2026-04-19T12:09:30.954Z</time></trkpt><trkpt lat="45.4938033" lon="8.44766"><ele>176.0</ele><time>2026-04-19T12:09:31.953Z</time></trkpt><trkpt lat="45.4938367" lon="8.4478783"><ele>176.0</ele><time>2026-04-19T12:09:32.953Z</time></trkpt><trkpt lat="45.4938683" lon="8.44809"><ele>176.0</ele><time>2026-04-19T12:09:33.952Z</time></trkpt><trkpt lat="45.4938933" lon="8.4483117"><ele>176.0</ele><time>2026-04-19T12:09:34.952Z</time></trkpt><trkpt lat="45.4939033" lon="8.448525"><ele>176.0</ele><time>2026-04-19T12:09:35.952Z</time></trkpt><trkpt lat="45.49388" lon="8.4487533"><ele>175.66666666666666</ele><time>2026-04-19T12:09:36.953Z</time></trkpt><trkpt lat="45.493835" lon="8.4489633"><ele>175.33333333333334</ele><time>2026-04-19T12:09:37.953Z</time></trkpt><trkpt lat="45.4937933" lon="8.4491717"><ele>175.0</ele><time>2026-04-19T12:09:38.952Z</time></trkpt><trkpt lat="45.4937567" lon="8.4493717"><ele>175.0</ele><time>2026-04-19T12:09:39.952Z</time></trkpt><trkpt lat="45.4937183" lon="8.4495767"><ele>175.0</ele><time>2026-04-19T12:09:40.952Z</time></trkpt><trkpt lat="45.4936867" lon="8.44979"><ele>175.0</ele><time>2026-04-19T12:09:41.952Z</time></trkpt><trkpt lat="45.4936917" lon="8.4499933"><ele>175.0</ele><time>2026-04-19T12:09:42.953Z</time></trkpt><trkpt lat="45.4937283" lon="8.450195"><ele>174.66666666666669</ele><time>2026-04-19T12:09:43.953Z</time></trkpt><trkpt lat="45.4937983" lon="8.4503917"><ele>174.33333333333334</ele><time>2026-04-19T12:09:44.953Z</time></trkpt><trkpt lat="45.49389" lon="8.4505783"><ele>174.0</ele><time>2026-04-19T12:09:45.953Z</time></trkpt><trkpt lat="45.4939933" lon="8.4507417"><ele>174.0</ele><time>2026-04-19T12:09:46.953Z</time></trkpt><trkpt lat="45.4941033" lon="8.4509083"><ele>174.0</ele><time>2026-04-19T12:09:47.952Z</time></trkpt><trkpt lat="45.4942167" lon="8.4510717"><ele>174.0</ele><time>2026-04-19T12:09:48.953Z</time></trkpt><trkpt lat="45.4943133" lon="8.4512533"><ele>174.66666666666666</ele><time>2026-04-19T12:09:49.952Z</time></trkpt><trkpt lat="45.494385" lon="8.45146"><ele>175.33333333333331</ele><time>2026-04-19T12:09:50.953Z</time></trkpt><trkpt lat="45.4944433" lon="8.4516733"><ele>176.0</ele><time>2026-04-19T12:09:51.952Z</time></trkpt><trkpt lat="45.4944933" lon="8.45189"><ele>176.0</ele><time>2026-04-19T12:09:52.953Z</time></trkpt><trkpt lat="45.494565" lon="8.4521017"><ele>176.0</ele><time>2026-04-19T12:09:53.952Z</time></trkpt><trkpt lat="45.4946367" lon="8.4522983"><ele>176.0</ele><time>2026-04-19T12:09:54.953Z</time></trkpt><trkpt lat="45.4947017" lon="8.4524917"><ele>176.0</ele><time>2026-04-19T12:09:55.953Z</time></trkpt><trkpt lat="45.4947617" lon="8.4526833"><ele>176.0</ele><time>2026-04-19T12:09:56.953Z</time></trkpt><trkpt lat="45.4948283" lon="8.4528733"><ele>176.0</ele><time>2026-04-19T12:09:57.953Z</time></trkpt><trkpt lat="45.4948967" lon="8.453065"><ele>176.0</ele><time>2026-04-19T12:09:58.953Z</time></trkpt><trkpt lat="45.4949683" lon="8.45325"><ele>176.0</ele><time>2026-04-19T12:09:59.952Z</time></trkpt><trkpt lat="45.4950367" lon="8.4534433"><ele>176.0</ele><time>2026-04-19T12:10:00.952Z</time></trkpt><trkpt lat="45.4951083" lon="8.4536383"><ele>176.0</ele><time>2026-04-19T12:10:01.953Z</time></trkpt><trkpt lat="45.495185" lon="8.4538267"><ele>176.0</ele><time>2026-04-19T12:10:02.953Z</time></trkpt><trkpt lat="45.49525" lon="8.4540117"><ele>176.0</ele><time>2026-04-19T12:10:03.953Z</time></trkpt><trkpt lat="45.4953117" lon="8.4541783"><ele>176.0</ele><time>2026-04-19T12:10:04.953Z</time></trkpt><trkpt lat="45.49537" lon="8.45434"><ele>176.0</ele><time>2026-04-19T12:10:05.952Z</time></trkpt><trkpt lat="45.4954217" lon="8.45448"><ele>176.0</ele><time>2026-04-19T12:10:06.953Z</time></trkpt><trkpt lat="45.4954633" lon="8.45459"><ele>176.0</ele><time>2026-04-19T12:10:07.952Z</time></trkpt><trkpt lat="45.4954933" lon="8.45468"><ele>176.0</ele><time>2026-04-19T12:10:08.953Z</time></trkpt><trkpt lat="45.49548" lon="8.454865"><ele>176.0</ele><time>2026-04-19T12:10:10.952Z</time></trkpt><trkpt lat="45.4954417" lon="8.4549633"><ele>176.0</ele><time>2026-04-19T12:10:11.953Z</time></trkpt><trkpt lat="45.4953783" lon="8.4550583"><ele>176.0</ele><time>2026-04-19T12:10:12.953Z</time></trkpt><trkpt lat="45.495295" lon="8.455165"><ele>176.0</ele><time>2026-04-19T12:10:13.953Z</time></trkpt><trkpt lat="45.495205" lon="8.4552733"><ele>176.0</ele><time>2026-04-19T12:10:14.952Z</time></trkpt><trkpt lat="45.4951183" lon="8.4553917"><ele>176.0</ele><time>2026-04-19T12:10:15.953Z</time></trkpt><trkpt lat="45.4950333" lon="8.4555117"><ele>176.0</ele><time>2026-04-19T12:10:16.952Z</time></trkpt><trkpt lat="45.4949383" lon="8.455635"><ele>176.0</ele><time>2026-04-19T12:10:17.953Z</time></trkpt><trkpt lat="45.4948333" lon="8.4557667"><ele>176.0</ele><time>2026-04-19T12:10:18.952Z</time></trkpt><trkpt lat="45.4947283" lon="8.4559083"><ele>176.0</ele><time>2026-04-19T12:10:19.952Z</time></trkpt><trkpt lat="45.494625" lon="8.4560567"><ele>175.75</ele><time>2026-04-19T12:10:20.953Z</time></trkpt><trkpt lat="45.4945283" lon="8.4562133"><ele>175.5</ele><time>2026-04-19T12:10:21.953Z</time></trkpt><trkpt lat="45.494435" lon="8.4563567"><ele>175.25</ele><time>2026-04-19T12:10:22.953Z</time></trkpt><trkpt lat="45.4943383" lon="8.456495"><ele>175.0</ele><time>2026-04-19T12:10:23.952Z</time></trkpt><trkpt lat="45.494235" lon="8.4566183"><ele>175.75</ele><time>2026-04-19T12:10:24.953Z</time></trkpt><trkpt lat="45.494145" lon="8.4567417"><ele>176.5</ele><time>2026-04-19T12:10:25.953Z</time></trkpt><trkpt lat="45.4940583" lon="8.45687"><ele>177.25</ele><time>2026-04-19T12:10:26.952Z</time></trkpt><trkpt lat="45.4939717" lon="8.4569883"><ele>178.0</ele><time>2026-04-19T12:10:27.953Z</time></trkpt><trkpt lat="45.493895" lon="8.457105"><ele>178.2</ele><time>2026-04-19T12:10:28.952Z</time></trkpt><trkpt lat="45.4938133" lon="8.457205"><ele>178.4</ele><time>2026-04-19T12:10:29.952Z</time></trkpt><trkpt lat="45.4937383" lon="8.4572833"><ele>178.6</ele><time>2026-04-19T12:10:30.953Z</time></trkpt><trkpt lat="45.49366" lon="8.4573667"><ele>178.79999999999998</ele><time>2026-04-19T12:10:31.953Z</time></trkpt><trkpt lat="45.4935917" lon="8.4574133"><ele>179.0</ele><time>2026-04-19T12:10:32.952Z</time></trkpt><trkpt lat="45.493525" lon="8.4575467"><ele>179.0</ele><time>2026-04-19T12:10:34.952Z</time></trkpt><trkpt lat="45.4936033" lon="8.457685"><ele>179.0</ele><time>2026-04-19T12:10:36.952Z</time></trkpt><trkpt lat="45.4936817" lon="8.4577733"><ele>179.0</ele><time>2026-04-19T12:10:37.953Z</time></trkpt><trkpt lat="45.4937783" lon="8.4578733"><ele>179.0</ele><time>2026-04-19T12:10:38.953Z</time></trkpt><trkpt lat="45.4938617" lon="8.45797"><ele>178.75</ele><time>2026-04-19T12:10:39.952Z</time></trkpt><trkpt lat="45.493945" lon="8.458085"><ele>178.5</ele><time>2026-04-19T12:10:40.952Z</time></trkpt><trkpt lat="45.4940333" lon="8.4582117"><ele>178.25</ele><time>2026-04-19T12:10:41.952Z</time></trkpt><trkpt lat="45.4941283" lon="8.4583517"><ele>178.0</ele><time>2026-04-19T12:10:42.952Z</time></trkpt><trkpt lat="45.4942183" lon="8.458475"><ele>178.0</ele><time>2026-04-19T12:10:43.953Z</time></trkpt><trkpt lat="45.494305" lon="8.458605"><ele>178.0</ele><time>2026-04-19T12:10:44.952Z</time></trkpt><trkpt lat="45.49439" lon="8.458745"><ele>178.0</ele><time>2026-04-19T12:10:45.952Z</time></trkpt><trkpt lat="45.49448" lon="8.458885"><ele>178.0</ele><time>2026-04-19T12:10:46.952Z</time></trkpt><trkpt lat="45.4945817" lon="8.45901"><ele>178.0</ele><time>2026-04-19T12:10:47.952Z</time></trkpt><trkpt lat="45.4946767" lon="8.4591267"><ele>178.0</ele><time>2026-04-19T12:10:48.953Z</time></trkpt><trkpt lat="45.4947633" lon="8.4592433"><ele>178.0</ele><time>2026-04-19T12:10:49.953Z</time></trkpt><trkpt lat="45.494845" lon="8.4593433"><ele>178.0</ele><time>2026-04-19T12:10:50.953Z</time></trkpt><trkpt lat="45.4949217" lon="8.4594433"><ele>178.0</ele><time>2026-04-19T12:10:51.952Z</time></trkpt><trkpt lat="45.4950167" lon="8.4595517"><ele>178.0</ele><time>2026-04-19T12:10:52.953Z</time></trkpt><trkpt lat="45.4951117" lon="8.4596483"><ele>178.0</ele><time>2026-04-19T12:10:53.953Z</time></trkpt><trkpt lat="45.4952117" lon="8.4597417"><ele>178.0</ele><time>2026-04-19T12:10:54.953Z</time></trkpt><trkpt lat="45.4953133" lon="8.4598383"><ele>178.0</ele><time>2026-04-19T12:10:55.953Z</time></trkpt><trkpt lat="45.4954183" lon="8.4599583"><ele>178.0</ele><time>2026-04-19T12:10:56.953Z</time></trkpt><trkpt lat="45.4955267" lon="8.4600767"><ele>178.0</ele><time>2026-04-19T12:10:57.952Z</time></trkpt><trkpt lat="45.4956283" lon="8.460205"><ele>178.0</ele><time>2026-04-19T12:10:58.952Z</time></trkpt><trkpt lat="45.495735" lon="8.460335"><ele>178.0</ele><time>2026-04-19T12:10:59.953Z</time></trkpt><trkpt lat="45.4958333" lon="8.4604667"><ele>178.0</ele><time>2026-04-19T12:11:00.953Z</time></trkpt><trkpt lat="45.4959267" lon="8.4606033"><ele>178.0</ele><time>2026-04-19T12:11:01.952Z</time></trkpt><trkpt lat="45.4960383" lon="8.4607167"><ele>178.0</ele><time>2026-04-19T12:11:02.952Z</time></trkpt><trkpt lat="45.4961383" lon="8.4608217"><ele>178.0</ele><time>2026-04-19T12:11:03.953Z</time></trkpt><trkpt lat="45.496225" lon="8.46092"><ele>178.0</ele><time>2026-04-19T12:11:04.952Z</time></trkpt><trkpt lat="45.4963083" lon="8.4610117"><ele>178.0</ele><time>2026-04-19T12:11:05.952Z</time></trkpt><trkpt lat="45.4963767" lon="8.46111"><ele>178.0</ele><time>2026-04-19T12:11:06.952Z</time></trkpt><trkpt lat="45.496435" lon="8.461195"><ele>178.0</ele><time>2026-04-19T12:11:07.952Z</time></trkpt><trkpt lat="45.4964783" lon="8.4612717"><ele>177.83333333333334</ele><time>2026-04-19T12:11:08.952Z</time></trkpt><trkpt lat="45.496555" lon="8.46138"><ele>177.66666666666669</ele><time>2026-04-19T12:11:10.953Z</time></trkpt><trkpt lat="45.4966117" lon="8.4614433"><ele>177.5</ele><time>2026-04-19T12:11:12.953Z</time></trkpt><trkpt lat="45.49666" lon="8.4613767"><ele>177.33333333333334</ele><time>2026-04-19T12:11:16.953Z</time></trkpt><trkpt lat="45.4966483" lon="8.461245"><ele>177.16666666666666</ele><time>2026-04-19T12:11:18.953Z</time></trkpt><trkpt lat="45.496665" lon="8.4611483"><ele>177.0</ele><time>2026-04-19T12:11:19.953Z</time></trkpt><trkpt lat="45.4967067" lon="8.461035"><ele>177.0</ele><time>2026-04-19T12:11:20.952Z</time></trkpt><trkpt lat="45.496765" lon="8.4609133"><ele>177.0</ele><time>2026-04-19T12:11:21.953Z</time></trkpt><trkpt lat="45.4968367" lon="8.4607767"><ele>177.0</ele><time>2026-04-19T12:11:22.953Z</time></trkpt><trkpt lat="45.4969183" lon="8.4606083"><ele>177.0</ele><time>2026-04-19T12:11:23.953Z</time></trkpt><trkpt lat="45.4970133" lon="8.4604267"><ele>177.33333333333334</ele><time>2026-04-19T12:11:24.953Z</time></trkpt><trkpt lat="45.4971117" lon="8.4602317"><ele>177.66666666666669</ele><time>2026-04-19T12:11:25.952Z</time></trkpt><trkpt lat="45.4972033" lon="8.4600367"><ele>178.0</ele><time>2026-04-19T12:11:26.952Z</time></trkpt><trkpt lat="45.49729" lon="8.45985"><ele>178.0</ele><time>2026-04-19T12:11:27.953Z</time></trkpt><trkpt lat="45.4973767" lon="8.459675"><ele>178.0</ele><time>2026-04-19T12:11:28.952Z</time></trkpt><trkpt lat="45.4974733" lon="8.4595067"><ele>178.0</ele><time>2026-04-19T12:11:29.952Z</time></trkpt><trkpt lat="45.49756" lon="8.4593433"><ele>178.0</ele><time>2026-04-19T12:11:30.953Z</time></trkpt><trkpt lat="45.4976483" lon="8.4592317"><ele>178.0</ele><time>2026-04-19T12:11:31.952Z</time></trkpt><trkpt lat="45.497735" lon="8.4591417"><ele>178.0</ele><time>2026-04-19T12:11:32.953Z</time></trkpt><trkpt lat="45.4978283" lon="8.45907"><ele>178.0</ele><time>2026-04-19T12:11:33.952Z</time></trkpt><trkpt lat="45.4979183" lon="8.4590217"><ele>178.0</ele><time>2026-04-19T12:11:34.953Z</time></trkpt><trkpt lat="45.498005" lon="8.4589817"><ele>178.0</ele><time>2026-04-19T12:11:35.952Z</time></trkpt><trkpt lat="45.4980917" lon="8.4589667"><ele>178.0</ele><time>2026-04-19T12:11:36.953Z</time></trkpt><trkpt lat="45.4981867" lon="8.45897"><ele>178.0</ele><time>2026-04-19T12:11:37.952Z</time></trkpt><trkpt lat="45.49826" lon="8.4590333"><ele>178.0</ele><time>2026-04-19T12:11:38.953Z</time></trkpt><trkpt lat="45.4983267" lon="8.4591283"><ele>178.0</ele><time>2026-04-19T12:11:39.953Z</time></trkpt><trkpt lat="45.4983817" lon="8.4592317"><ele>178.0</ele><time>2026-04-19T12:11:40.952Z</time></trkpt><trkpt lat="45.4984283" lon="8.4593183"><ele>178.0</ele><time>2026-04-19T12:11:41.953Z</time></trkpt><trkpt lat="45.4984817" lon="8.4593717"><ele>178.0</ele><time>2026-04-19T12:11:42.953Z</time></trkpt><trkpt lat="45.498615" lon="8.4593367"><ele>178.0</ele><time>2026-04-19T12:11:44.953Z</time></trkpt><trkpt lat="45.4986883" lon="8.4592517"><ele>178.0</ele><time>2026-04-19T12:11:45.953Z</time></trkpt><trkpt lat="45.4987683" lon="8.45912"><ele>178.0</ele><time>2026-04-19T12:11:46.952Z</time></trkpt><trkpt lat="45.4988617" lon="8.4589417"><ele>177.66666666666669</ele><time>2026-04-19T12:11:47.953Z</time></trkpt><trkpt lat="45.49895" lon="8.4587633"><ele>177.33333333333334</ele><time>2026-04-19T12:11:48.953Z</time></trkpt><trkpt lat="45.4990533" lon="8.4585867"><ele>177.0</ele><time>2026-04-19T12:11:49.952Z</time></trkpt><trkpt lat="45.49916" lon="8.4584033"><ele>177.0</ele><time>2026-04-19T12:11:50.952Z</time></trkpt><trkpt lat="45.49928" lon="8.4581983"><ele>177.0</ele><time>2026-04-19T12:11:51.952Z</time></trkpt><trkpt lat="45.4994" lon="8.4580167"><ele>177.0</ele><time>2026-04-19T12:11:52.953Z</time></trkpt><trkpt lat="45.4995117" lon="8.4578517"><ele>177.25</ele><time>2026-04-19T12:11:53.953Z</time></trkpt><trkpt lat="45.49962" lon="8.457705"><ele>177.5</ele><time>2026-04-19T12:11:54.953Z</time></trkpt><trkpt lat="45.4997333" lon="8.4576083"><ele>177.75</ele><time>2026-04-19T12:11:55.953Z</time></trkpt><trkpt lat="45.4998417" lon="8.4575367"><ele>178.0</ele><time>2026-04-19T12:11:56.952Z</time></trkpt><trkpt lat="45.4999617" lon="8.4574967"><ele>178.0</ele><time>2026-04-19T12:11:57.953Z</time></trkpt><trkpt lat="45.5001017" lon="8.457485"><ele>178.0</ele><time>2026-04-19T12:11:58.953Z</time></trkpt><trkpt lat="45.5002433" lon="8.457505"><ele>178.0</ele><time>2026-04-19T12:11:59.952Z</time></trkpt><trkpt lat="45.5003917" lon="8.457515"><ele>178.0</ele><time>2026-04-19T12:12:00.953Z</time></trkpt><trkpt lat="45.5005467" lon="8.4575067"><ele>178.0</ele><time>2026-04-19T12:12:01.953Z</time></trkpt><trkpt lat="45.5006867" lon="8.4574733"><ele>178.0</ele><time>2026-04-19T12:12:02.952Z</time></trkpt><trkpt lat="45.50083" lon="8.4574267"><ele>178.0</ele><time>2026-04-19T12:12:03.952Z</time></trkpt><trkpt lat="45.5009833" lon="8.4573567"><ele>178.0</ele><time>2026-04-19T12:12:04.953Z</time></trkpt><trkpt lat="45.5011417" lon="8.4572667"><ele>178.0</ele><time>2026-04-19T12:12:05.953Z</time></trkpt><trkpt lat="45.5012967" lon="8.4571583"><ele>178.0</ele><time>2026-04-19T12:12:06.952Z</time></trkpt><trkpt lat="45.5014617" lon="8.457045"><ele>178.0</ele><time>2026-04-19T12:12:07.953Z</time></trkpt><trkpt lat="45.50163" lon="8.4569317"><ele>178.0</ele><time>2026-04-19T12:12:08.953Z</time></trkpt><trkpt lat="45.5017983" lon="8.4568183"><ele>178.0</ele><time>2026-04-19T12:12:09.953Z</time></trkpt><trkpt lat="45.5019517" lon="8.456705"><ele>178.33333333333334</ele><time>2026-04-19T12:12:10.952Z</time></trkpt><trkpt lat="45.5021033" lon="8.4565983"><ele>178.66666666666666</ele><time>2026-04-19T12:12:11.952Z</time></trkpt><trkpt lat="45.502255" lon="8.456485"><ele>179.0</ele><time>2026-04-19T12:12:12.953Z</time></trkpt><trkpt lat="45.502405" lon="8.4563667"><ele>178.66666666666666</ele><time>2026-04-19T12:12:13.952Z</time></trkpt><trkpt lat="45.50255" lon="8.4562467"><ele>178.33333333333334</ele><time>2026-04-19T12:12:14.952Z</time></trkpt><trkpt lat="45.5027033" lon="8.4561233"><ele>178.0</ele><time>2026-04-19T12:12:15.952Z</time></trkpt><trkpt lat="45.5028483" lon="8.4560033"><ele>178.33333333333334</ele><time>2026-04-19T12:12:16.952Z</time></trkpt><trkpt lat="45.5030033" lon="8.45588"><ele>178.66666666666666</ele><time>2026-04-19T12:12:17.953Z</time></trkpt><trkpt lat="45.5031467" lon="8.45577"><ele>179.0</ele><time>2026-04-19T12:12:18.953Z</time></trkpt><trkpt lat="45.5032917" lon="8.45566"><ele>179.0</ele><time>2026-04-19T12:12:19.952Z</time></trkpt><trkpt lat="45.5034233" lon="8.4555483"><ele>179.0</ele><time>2026-04-19T12:12:20.953Z</time></trkpt><trkpt lat="45.5035533" lon="8.4554367"><ele>179.0</ele><time>2026-04-19T12:12:21.953Z</time></trkpt><trkpt lat="45.50368" lon="8.455335"><ele>179.25</ele><time>2026-04-19T12:12:22.952Z</time></trkpt><trkpt lat="45.5038083" lon="8.45524"><ele>179.5</ele><time>2026-04-19T12:12:23.953Z</time></trkpt><trkpt lat="45.503935" lon="8.4551467"><ele>179.75</ele><time>2026-04-19T12:12:24.952Z</time></trkpt><trkpt lat="45.50405" lon="8.4550583"><ele>180.0</ele><time>2026-04-19T12:12:25.953Z</time></trkpt><trkpt lat="45.5041517" lon="8.4549783"><ele>180.0</ele><time>2026-04-19T12:12:26.953Z</time></trkpt><trkpt lat="45.50424" lon="8.4549067"><ele>180.0</ele><time>2026-04-19T12:12:27.952Z</time></trkpt><trkpt lat="45.504315" lon="8.4548417"><ele>180.0</ele><time>2026-04-19T12:12:28.953Z</time></trkpt><trkpt lat="45.504385" lon="8.4547817"><ele>180.0</ele><time>2026-04-19T12:12:29.952Z</time></trkpt><trkpt lat="45.504445" lon="8.4547383"><ele>180.0</ele><time>2026-04-19T12:12:30.953Z</time></trkpt><trkpt lat="45.5045367" lon="8.4547167"><ele>180.0</ele><time>2026-04-19T12:12:32.953Z</time></trkpt><trkpt lat="45.5046017" lon="8.4548033"><ele>180.0</ele><time>2026-04-19T12:12:34.952Z</time></trkpt><trkpt lat="45.5046267" lon="8.454895"><ele>180.0</ele><time>2026-04-19T12:12:35.952Z</time></trkpt><trkpt lat="45.5046517" lon="8.4550317"><ele>180.0</ele><time>2026-04-19T12:12:36.953Z</time></trkpt><trkpt lat="45.50468" lon="8.4551967"><ele>180.0</ele><time>2026-04-19T12:12:37.952Z</time></trkpt><trkpt lat="45.5047117" lon="8.4553633"><ele>180.0</ele><time>2026-04-19T12:12:38.953Z</time></trkpt><trkpt lat="45.504745" lon="8.45553"><ele>180.0</ele><time>2026-04-19T12:12:39.953Z</time></trkpt><trkpt lat="45.5047867" lon="8.4557"><ele>180.0</ele><time>2026-04-19T12:12:40.953Z</time></trkpt><trkpt lat="45.5048283" lon="8.4558667"><ele>180.0</ele><time>2026-04-19T12:12:41.952Z</time></trkpt><trkpt lat="45.5048683" lon="8.456045"><ele>180.0</ele><time>2026-04-19T12:12:42.953Z</time></trkpt><trkpt lat="45.5049067" lon="8.4562133"><ele>179.75</ele><time>2026-04-19T12:12:43.952Z</time></trkpt><trkpt lat="45.5049533" lon="8.4563733"><ele>179.5</ele><time>2026-04-19T12:12:44.952Z</time></trkpt><trkpt lat="45.5049967" lon="8.45654"><ele>179.25</ele><time>2026-04-19T12:12:45.953Z</time></trkpt><trkpt lat="45.5050367" lon="8.4567033"><ele>179.0</ele><time>2026-04-19T12:12:46.952Z</time></trkpt><trkpt lat="45.5050783" lon="8.456865"><ele>179.0</ele><time>2026-04-19T12:12:47.952Z</time></trkpt><trkpt lat="45.5051167" lon="8.4570367"><ele>179.0</ele><time>2026-04-19T12:12:48.952Z</time></trkpt><trkpt lat="45.5051533" lon="8.4572067"><ele>179.0</ele><time>2026-04-19T12:12:49.953Z</time></trkpt><trkpt lat="45.5051933" lon="8.4573767"><ele>179.0</ele><time>2026-04-19T12:12:50.952Z</time></trkpt><trkpt lat="45.505235" lon="8.4575417"><ele>179.0</ele><time>2026-04-19T12:12:51.952Z</time></trkpt><trkpt lat="45.50528" lon="8.4577033"><ele>179.0</ele><time>2026-04-19T12:12:52.952Z</time></trkpt><trkpt lat="45.5053217" lon="8.457865"><ele>179.0</ele><time>2026-04-19T12:12:53.953Z</time></trkpt><trkpt lat="45.505365" lon="8.458025"><ele>179.0</ele><time>2026-04-19T12:12:54.953Z</time></trkpt><trkpt lat="45.5054033" lon="8.4581817"><ele>179.0</ele><time>2026-04-19T12:12:55.953Z</time></trkpt><trkpt lat="45.50544" lon="8.4583333"><ele>179.0</ele><time>2026-04-19T12:12:56.953Z</time></trkpt><trkpt lat="45.505475" lon="8.4584817"><ele>179.0</ele><time>2026-04-19T12:12:57.952Z</time></trkpt><trkpt lat="45.5055067" lon="8.4586383"><ele>179.0</ele><time>2026-04-19T12:12:58.953Z</time></trkpt><trkpt lat="45.5055383" lon="8.45878"><ele>179.0</ele><time>2026-04-19T12:12:59.952Z</time></trkpt><trkpt lat="45.5055717" lon="8.4589083"><ele>179.0</ele><time>2026-04-19T12:13:00.952Z</time></trkpt><trkpt lat="45.5056017" lon="8.4590267"><ele>179.0</ele><time>2026-04-19T12:13:01.953Z</time></trkpt><trkpt lat="45.5056367" lon="8.4591333"><ele>179.0</ele><time>2026-04-19T12:13:02.952Z</time></trkpt><trkpt lat="45.505665" lon="8.4592367"><ele>179.0</ele><time>2026-04-19T12:13:03.953Z</time></trkpt><trkpt lat="45.505685" lon="8.4593433"><ele>179.0</ele><time>2026-04-19T12:13:04.953Z</time></trkpt><trkpt lat="45.5057067" lon="8.4594317"><ele>179.0</ele><time>2026-04-19T12:13:05.952Z</time></trkpt><trkpt lat="45.505745" lon="8.4596033"><ele>178.79999999999998</ele><time>2026-04-19T12:13:07.952Z</time></trkpt><trkpt lat="45.505785" lon="8.4597667"><ele>178.6</ele><time>2026-04-19T12:13:09.953Z</time></trkpt><trkpt lat="45.5058283" lon="8.4599233"><ele>178.4</ele><time>2026-04-19T12:13:11.952Z</time></trkpt><trkpt lat="45.505865" lon="8.460075"><ele>178.2</ele><time>2026-04-19T12:13:13.953Z</time></trkpt><trkpt lat="45.5058883" lon="8.460165"><ele>178.0</ele><time>2026-04-19T12:13:14.953Z</time></trkpt><trkpt lat="45.50591" lon="8.46026"><ele>178.0</ele><time>2026-04-19T12:13:15.953Z</time></trkpt><trkpt lat="45.5059283" lon="8.4603633"><ele>178.0</ele><time>2026-04-19T12:13:16.953Z</time></trkpt><trkpt lat="45.5059533" lon="8.4604733"><ele>178.0</ele><time>2026-04-19T12:13:17.953Z</time></trkpt><trkpt lat="45.5059833" lon="8.4605917"><ele>178.0</ele><time>2026-04-19T12:13:18.952Z</time></trkpt><trkpt lat="45.506015" lon="8.46072"><ele>178.0</ele><time>2026-04-19T12:13:19.952Z</time></trkpt><trkpt lat="45.50605" lon="8.4608633"><ele>178.0</ele><time>2026-04-19T12:13:20.953Z</time></trkpt><trkpt lat="45.5060917" lon="8.4610183"><ele>178.25</ele><time>2026-04-19T12:13:21.952Z</time></trkpt><trkpt lat="45.5061367" lon="8.4611833"><ele>178.5</ele><time>2026-04-19T12:13:22.951Z</time></trkpt><trkpt lat="45.50618" lon="8.4613567"><ele>178.75</ele><time>2026-04-19T12:13:23.952Z</time></trkpt><trkpt lat="45.5062283" lon="8.461545"><ele>179.0</ele><time>2026-04-19T12:13:24.952Z</time></trkpt><trkpt lat="45.506275" lon="8.461725"><ele>179.25</ele><time>2026-04-19T12:13:25.951Z</time></trkpt><trkpt lat="45.5063217" lon="8.4619217"><ele>179.5</ele><time>2026-04-19T12:13:26.952Z</time></trkpt><trkpt lat="45.5063733" lon="8.462115"><ele>179.75</ele><time>2026-04-19T12:13:27.952Z</time></trkpt><trkpt lat="45.5064267" lon="8.4623033"><ele>180.0</ele><time>2026-04-19T12:13:28.952Z</time></trkpt><trkpt lat="45.50647" lon="8.4625"><ele>180.0</ele><time>2026-04-19T12:13:29.952Z</time></trkpt><trkpt lat="45.5065167" lon="8.4626917"><ele>180.0</ele><time>2026-04-19T12:13:30.951Z</time></trkpt><trkpt lat="45.5065683" lon="8.462885"><ele>180.0</ele><time>2026-04-19T12:13:31.952Z</time></trkpt><trkpt lat="45.5066133" lon="8.4630767"><ele>180.0</ele><time>2026-04-19T12:13:32.952Z</time></trkpt><trkpt lat="45.5066583" lon="8.4632767"><ele>180.0</ele><time>2026-04-19T12:13:33.951Z</time></trkpt><trkpt lat="45.5067083" lon="8.4634733"><ele>180.0</ele><time>2026-04-19T12:13:34.952Z</time></trkpt><trkpt lat="45.50676" lon="8.4636683"><ele>180.0</ele><time>2026-04-19T12:13:35.951Z</time></trkpt><trkpt lat="45.5068133" lon="8.4638667"><ele>180.0</ele><time>2026-04-19T12:13:36.952Z</time></trkpt><trkpt lat="45.50686" lon="8.4640583"><ele>180.0</ele><time>2026-04-19T12:13:37.952Z</time></trkpt><trkpt lat="45.5069033" lon="8.46425"><ele>180.0</ele><time>2026-04-19T12:13:38.952Z</time></trkpt><trkpt lat="45.506945" lon="8.4644417"><ele>180.0</ele><time>2026-04-19T12:13:39.952Z</time></trkpt><trkpt lat="45.506985" lon="8.4646233"><ele>180.0</ele><time>2026-04-19T12:13:40.952Z</time></trkpt><trkpt lat="45.5070333" lon="8.4647933"><ele>180.0</ele><time>2026-04-19T12:13:41.951Z</time></trkpt><trkpt lat="45.5070783" lon="8.4649433"><ele>180.0</ele><time>2026-04-19T12:13:42.952Z</time></trkpt><trkpt lat="45.5071133" lon="8.4650967"><ele>180.0</ele><time>2026-04-19T12:13:43.952Z</time></trkpt><trkpt lat="45.507145" lon="8.46524"><ele>180.0</ele><time>2026-04-19T12:13:44.951Z</time></trkpt><trkpt lat="45.5071833" lon="8.4653867"><ele>180.0</ele><time>2026-04-19T12:13:45.951Z</time></trkpt><trkpt lat="45.5072133" lon="8.4655217"><ele>180.0</ele><time>2026-04-19T12:13:46.952Z</time></trkpt><trkpt lat="45.5072483" lon="8.4656483"><ele>180.0</ele><time>2026-04-19T12:13:47.951Z</time></trkpt><trkpt lat="45.5072883" lon="8.4657867"><ele>180.0</ele><time>2026-04-19T12:13:48.951Z</time></trkpt><trkpt lat="45.5073317" lon="8.4659167"><ele>180.0</ele><time>2026-04-19T12:13:49.952Z</time></trkpt><trkpt lat="45.5073717" lon="8.46606"><ele>180.0</ele><time>2026-04-19T12:13:50.951Z</time></trkpt><trkpt lat="45.5074083" lon="8.4662283"><ele>180.5</ele><time>2026-04-19T12:13:51.952Z</time></trkpt><trkpt lat="45.50745" lon="8.466405"><ele>181.0</ele><time>2026-04-19T12:13:52.951Z</time></trkpt><trkpt lat="45.5074867" lon="8.4665867"><ele>181.5</ele><time>2026-04-19T12:13:53.951Z</time></trkpt><trkpt lat="45.50752" lon="8.4667567"><ele>182.0</ele><time>2026-04-19T12:13:54.951Z</time></trkpt><trkpt lat="45.50756" lon="8.4669217"><ele>182.0</ele><time>2026-04-19T12:13:55.951Z</time></trkpt><trkpt lat="45.507605" lon="8.4670867"><ele>182.0</ele><time>2026-04-19T12:13:56.952Z</time></trkpt><trkpt lat="45.5076483" lon="8.4672417"><ele>182.0</ele><time>2026-04-19T12:13:57.952Z</time></trkpt><trkpt lat="45.5076817" lon="8.4673967"><ele>182.0</ele><time>2026-04-19T12:13:58.952Z</time></trkpt><trkpt lat="45.5077183" lon="8.4675367"><ele>182.16666666666666</ele><time>2026-04-19T12:13:59.952Z</time></trkpt><trkpt lat="45.507745" lon="8.4676617"><ele>182.33333333333331</ele><time>2026-04-19T12:14:00.952Z</time></trkpt><trkpt lat="45.5077617" lon="8.46777"><ele>182.5</ele><time>2026-04-19T12:14:01.952Z</time></trkpt><trkpt lat="45.5077767" lon="8.4679"><ele>182.66666666666666</ele><time>2026-04-19T12:14:03.952Z</time></trkpt><trkpt lat="45.5077267" lon="8.4679933"><ele>182.83333333333334</ele><time>2026-04-19T12:14:05.952Z</time></trkpt><trkpt lat="45.5076617" lon="8.4680333"><ele>183.0</ele><time>2026-04-19T12:14:06.952Z</time></trkpt><trkpt lat="45.5075783" lon="8.468085"><ele>183.25</ele><time>2026-04-19T12:14:07.952Z</time></trkpt><trkpt lat="45.50748" lon="8.4681517"><ele>183.5</ele><time>2026-04-19T12:14:08.952Z</time></trkpt><trkpt lat="45.5073633" lon="8.4682267"><ele>183.75</ele><time>2026-04-19T12:14:09.951Z</time></trkpt><trkpt lat="45.5072233" lon="8.46832"><ele>184.0</ele><time>2026-04-19T12:14:10.952Z</time></trkpt><trkpt lat="45.5070733" lon="8.4684217"><ele>184.0</ele><time>2026-04-19T12:14:11.951Z</time></trkpt><trkpt lat="45.5069283" lon="8.4685233"><ele>184.0</ele><time>2026-04-19T12:14:12.951Z</time></trkpt><trkpt lat="45.506775" lon="8.468625"><ele>184.0</ele><time>2026-04-19T12:14:13.952Z</time></trkpt><trkpt lat="45.5066217" lon="8.4687283"><ele>183.0</ele><time>2026-04-19T12:14:14.952Z</time></trkpt><trkpt lat="45.5064717" lon="8.468845"><ele>182.0</ele><time>2026-04-19T12:14:15.951Z</time></trkpt><trkpt lat="45.50632" lon="8.468955"><ele>181.0</ele><time>2026-04-19T12:14:16.952Z</time></trkpt><trkpt lat="45.506175" lon="8.4690633"><ele>180.33333333333334</ele><time>2026-04-19T12:14:17.951Z</time></trkpt><trkpt lat="45.5060367" lon="8.46916"><ele>179.66666666666666</ele><time>2026-04-19T12:14:18.952Z</time></trkpt><trkpt lat="45.5058917" lon="8.4692567"><ele>179.0</ele><time>2026-04-19T12:14:19.952Z</time></trkpt><trkpt lat="45.50574" lon="8.4693617"><ele>179.0</ele><time>2026-04-19T12:14:20.951Z</time></trkpt><trkpt lat="45.5055917" lon="8.4694633"><ele>179.0</ele><time>2026-04-19T12:14:21.952Z</time></trkpt><trkpt lat="45.5054383" lon="8.46956"><ele>179.0</ele><time>2026-04-19T12:14:22.952Z</time></trkpt><trkpt lat="45.5052883" lon="8.4696683"><ele>179.0</ele><time>2026-04-19T12:14:23.951Z</time></trkpt><trkpt lat="45.5051417" lon="8.469765"><ele>179.0</ele><time>2026-04-19T12:14:24.951Z</time></trkpt><trkpt lat="45.5050033" lon="8.46987"><ele>179.0</ele><time>2026-04-19T12:14:25.952Z</time></trkpt><trkpt lat="45.5048667" lon="8.4699733"><ele>179.0</ele><time>2026-04-19T12:14:26.951Z</time></trkpt><trkpt lat="45.50473" lon="8.4700733"><ele>179.0</ele><time>2026-04-19T12:14:27.952Z</time></trkpt><trkpt lat="45.5045967" lon="8.4701833"><ele>179.0</ele><time>2026-04-19T12:14:28.951Z</time></trkpt><trkpt lat="45.5044683" lon="8.4702983"><ele>179.0</ele><time>2026-04-19T12:14:29.952Z</time></trkpt><trkpt lat="45.5043467" lon="8.4704267"><ele>179.0</ele><time>2026-04-19T12:14:30.951Z</time></trkpt><trkpt lat="45.5042367" lon="8.4705617"><ele>179.0</ele><time>2026-04-19T12:14:31.951Z</time></trkpt><trkpt lat="45.504135" lon="8.4706867"><ele>179.0</ele><time>2026-04-19T12:14:32.952Z</time></trkpt><trkpt lat="45.5040317" lon="8.47082"><ele>179.0</ele><time>2026-04-19T12:14:33.952Z</time></trkpt><trkpt lat="45.5039417" lon="8.4709433"><ele>179.0</ele><time>2026-04-19T12:14:34.952Z</time></trkpt><trkpt lat="45.5038567" lon="8.47107"><ele>179.0</ele><time>2026-04-19T12:14:35.952Z</time></trkpt><trkpt lat="45.5037667" lon="8.4711833"><ele>179.0</ele><time>2026-04-19T12:14:36.952Z</time></trkpt><trkpt lat="45.503695" lon="8.4712917"><ele>179.0</ele><time>2026-04-19T12:14:37.952Z</time></trkpt><trkpt lat="45.5036383" lon="8.4713833"><ele>179.0</ele><time>2026-04-19T12:14:38.951Z</time></trkpt><trkpt lat="45.5035933" lon="8.47148"><ele>179.0</ele><time>2026-04-19T12:14:39.952Z</time></trkpt><trkpt lat="45.503575" lon="8.4715867"><ele>179.0</ele><time>2026-04-19T12:14:40.951Z</time></trkpt><trkpt lat="45.5035833" lon="8.4717017"><ele>179.0</ele><time>2026-04-19T12:14:41.952Z</time></trkpt><trkpt lat="45.5036283" lon="8.4718267"><ele>179.0</ele><time>2026-04-19T12:14:42.951Z</time></trkpt><trkpt lat="45.5037083" lon="8.4719883"><ele>179.0</ele><time>2026-04-19T12:14:43.951Z</time></trkpt><trkpt lat="45.5038083" lon="8.472155"><ele>179.0</ele><time>2026-04-19T12:14:44.952Z</time></trkpt><trkpt lat="45.50391" lon="8.4723217"><ele>179.0</ele><time>2026-04-19T12:14:45.952Z</time></trkpt><trkpt lat="45.5040033" lon="8.47247"><ele>179.0</ele><time>2026-04-19T12:14:46.951Z</time></trkpt><trkpt lat="45.5040883" lon="8.4725917"><ele>179.0</ele><time>2026-04-19T12:14:47.952Z</time></trkpt><trkpt lat="45.5041517" lon="8.4727033"><ele>179.0</ele><time>2026-04-19T12:14:48.952Z</time></trkpt><trkpt lat="45.5042" lon="8.4727967"><ele>179.0</ele><time>2026-04-19T12:14:49.952Z</time></trkpt><trkpt lat="45.50423" lon="8.4728817"><ele>179.0</ele><time>2026-04-19T12:14:50.952Z</time></trkpt><trkpt lat="45.5042483" lon="8.47297"><ele>179.0</ele><time>2026-04-19T12:14:51.951Z</time></trkpt><trkpt lat="45.504265" lon="8.4730617"><ele>179.0</ele><time>2026-04-19T12:14:52.951Z</time></trkpt><trkpt lat="45.504295" lon="8.473165"><ele>179.0</ele><time>2026-04-19T12:14:53.951Z</time></trkpt><trkpt lat="45.5043483" lon="8.473285"><ele>179.0</ele><time>2026-04-19T12:14:54.951Z</time></trkpt><trkpt lat="45.5044233" lon="8.4734"><ele>179.0</ele><time>2026-04-19T12:14:55.951Z</time></trkpt><trkpt lat="45.50451" lon="8.4735283"><ele>179.0</ele><time>2026-04-19T12:14:56.952Z</time></trkpt><trkpt lat="45.5046033" lon="8.4736617"><ele>179.0</ele><time>2026-04-19T12:14:57.952Z</time></trkpt><trkpt lat="45.5047033" lon="8.47381"><ele>179.0</ele><time>2026-04-19T12:14:58.951Z</time></trkpt><trkpt lat="45.5048017" lon="8.473965"><ele>179.0</ele><time>2026-04-19T12:14:59.951Z</time></trkpt><trkpt lat="45.5049" lon="8.4741217"><ele>179.0</ele><time>2026-04-19T12:15:00.952Z</time></trkpt><trkpt lat="45.505" lon="8.4742767"><ele>179.0</ele><time>2026-04-19T12:15:01.951Z</time></trkpt><trkpt lat="45.5051" lon="8.4744383"><ele>179.0</ele><time>2026-04-19T12:15:02.951Z</time></trkpt><trkpt lat="45.5051967" lon="8.4745967"><ele>179.0</ele><time>2026-04-19T12:15:03.951Z</time></trkpt><trkpt lat="45.5052917" lon="8.4747483"><ele>179.0</ele><time>2026-04-19T12:15:04.952Z</time></trkpt><trkpt lat="45.5053917" lon="8.474895"><ele>178.75</ele><time>2026-04-19T12:15:05.952Z</time></trkpt><trkpt lat="45.50549" lon="8.4750483"><ele>178.5</ele><time>2026-04-19T12:15:06.952Z</time></trkpt><trkpt lat="45.5055833" lon="8.4751817"><ele>178.25</ele><time>2026-04-19T12:15:07.952Z</time></trkpt><trkpt lat="45.5056733" lon="8.4753033"><ele>178.0</ele><time>2026-04-19T12:15:08.951Z</time></trkpt><trkpt lat="45.50575" lon="8.4754267"><ele>178.0</ele><time>2026-04-19T12:15:09.951Z</time></trkpt><trkpt lat="45.505825" lon="8.4755733"><ele>178.0</ele><time>2026-04-19T12:15:10.952Z</time></trkpt><trkpt lat="45.5059133" lon="8.4757033"><ele>178.0</ele><time>2026-04-19T12:15:11.952Z</time></trkpt><trkpt lat="45.5059983" lon="8.4758333"><ele>178.0</ele><time>2026-04-19T12:15:12.952Z</time></trkpt><trkpt lat="45.5060833" lon="8.47597"><ele>178.0</ele><time>2026-04-19T12:15:13.952Z</time></trkpt><trkpt lat="45.50616" lon="8.476095"><ele>178.0</ele><time>2026-04-19T12:15:14.952Z</time></trkpt><trkpt lat="45.5062367" lon="8.4762067"><ele>178.0</ele><time>2026-04-19T12:15:15.952Z</time></trkpt><trkpt lat="45.5063117" lon="8.47631"><ele>178.0</ele><time>2026-04-19T12:15:16.952Z</time></trkpt><trkpt lat="45.50637" lon="8.4764017"><ele>178.0</ele><time>2026-04-19T12:15:17.951Z</time></trkpt><trkpt lat="45.50642" lon="8.476475"><ele>178.0</ele><time>2026-04-19T12:15:18.952Z</time></trkpt><trkpt lat="45.5064783" lon="8.476585"><ele>178.0</ele><time>2026-04-19T12:15:20.952Z</time></trkpt><trkpt lat="45.5063967" lon="8.4766467"><ele>178.0</ele><time>2026-04-19T12:15:23.952Z</time></trkpt><trkpt lat="45.5063133" lon="8.4766517"><ele>178.0</ele><time>2026-04-19T12:15:24.951Z</time></trkpt><trkpt lat="45.5062217" lon="8.47666"><ele>178.0</ele><time>2026-04-19T12:15:25.952Z</time></trkpt><trkpt lat="45.5061267" lon="8.4766733"><ele>178.0</ele><time>2026-04-19T12:15:26.952Z</time></trkpt><trkpt lat="45.5060317" lon="8.4767133"><ele>178.0</ele><time>2026-04-19T12:15:27.951Z</time></trkpt><trkpt lat="45.5059267" lon="8.4767717"><ele>178.0</ele><time>2026-04-19T12:15:28.951Z</time></trkpt><trkpt lat="45.505825" lon="8.4768533"><ele>178.0</ele><time>2026-04-19T12:15:29.952Z</time></trkpt><trkpt lat="45.5057267" lon="8.4769517"><ele>178.0</ele><time>2026-04-19T12:15:30.952Z</time></trkpt><trkpt lat="45.50562" lon="8.477035"><ele>178.0</ele><time>2026-04-19T12:15:31.952Z</time></trkpt><trkpt lat="45.5055017" lon="8.4771"><ele>178.0</ele><time>2026-04-19T12:15:32.952Z</time></trkpt><trkpt lat="45.5053817" lon="8.477145"><ele>178.0</ele><time>2026-04-19T12:15:33.952Z</time></trkpt><trkpt lat="45.5052533" lon="8.4771833"><ele>178.0</ele><time>2026-04-19T12:15:34.951Z</time></trkpt><trkpt lat="45.50513" lon="8.4772267"><ele>178.0</ele><time>2026-04-19T12:15:35.952Z</time></trkpt><trkpt lat="45.505015" lon="8.477285"><ele>178.0</ele><time>2026-04-19T12:15:36.952Z</time></trkpt><trkpt lat="45.504905" lon="8.4773333"><ele>178.0</ele><time>2026-04-19T12:15:37.952Z</time></trkpt><trkpt lat="45.5047833" lon="8.477365"><ele>178.0</ele><time>2026-04-19T12:15:38.951Z</time></trkpt><trkpt lat="45.50467" lon="8.4774083"><ele>178.25</ele><time>2026-04-19T12:15:39.951Z</time></trkpt><trkpt lat="45.5045583" lon="8.4774517"><ele>178.5</ele><time>2026-04-19T12:15:40.952Z</time></trkpt><trkpt lat="45.504445" lon="8.4774983"><ele>178.75</ele><time>2026-04-19T12:15:41.952Z</time></trkpt><trkpt lat="45.5043267" lon="8.477545"><ele>179.0</ele><time>2026-04-19T12:15:42.951Z</time></trkpt><trkpt lat="45.50421" lon="8.4775833"><ele>179.0</ele><time>2026-04-19T12:15:43.951Z</time></trkpt><trkpt lat="45.504095" lon="8.47762"><ele>179.0</ele><time>2026-04-19T12:15:44.952Z</time></trkpt><trkpt lat="45.5039933" lon="8.4776467"><ele>179.0</ele><time>2026-04-19T12:15:45.952Z</time></trkpt><trkpt lat="45.5038983" lon="8.4776717"><ele>179.0</ele><time>2026-04-19T12:15:46.951Z</time></trkpt><trkpt lat="45.50381" lon="8.4776983"><ele>179.0</ele><time>2026-04-19T12:15:47.951Z</time></trkpt><trkpt lat="45.5037217" lon="8.4777283"><ele>179.0</ele><time>2026-04-19T12:15:48.952Z</time></trkpt><trkpt lat="45.503645" lon="8.4777567"><ele>179.0</ele><time>2026-04-19T12:15:49.951Z</time></trkpt><trkpt lat="45.5035767" lon="8.4777983"><ele>179.0</ele><time>2026-04-19T12:15:50.951Z</time></trkpt><trkpt lat="45.503515" lon="8.4778367"><ele>179.0</ele><time>2026-04-19T12:15:51.951Z</time></trkpt><trkpt lat="45.5034467" lon="8.4779317"><ele>179.0</ele><time>2026-04-19T12:15:53.952Z</time></trkpt><trkpt lat="45.5034367" lon="8.4780917"><ele>179.0</ele><time>2026-04-19T12:15:55.951Z</time></trkpt><trkpt lat="45.5034617" lon="8.47818"><ele>179.16666666666666</ele><time>2026-04-19T12:15:56.952Z</time></trkpt><trkpt lat="45.5034933" lon="8.4782767"><ele>179.33333333333331</ele><time>2026-04-19T12:15:57.952Z</time></trkpt><trkpt lat="45.50353" lon="8.4783883"><ele>179.5</ele><time>2026-04-19T12:15:58.952Z</time></trkpt><trkpt lat="45.50357" lon="8.4785"><ele>179.66666666666666</ele><time>2026-04-19T12:15:59.952Z</time></trkpt><trkpt lat="45.5036083" lon="8.4785967"><ele>179.83333333333334</ele><time>2026-04-19T12:16:00.952Z</time></trkpt><trkpt lat="45.5036483" lon="8.47872"><ele>180.0</ele><time>2026-04-19T12:16:01.952Z</time></trkpt><trkpt lat="45.5036967" lon="8.4788417"><ele>179.6</ele><time>2026-04-19T12:16:02.951Z</time></trkpt><trkpt lat="45.503735" lon="8.4789817"><ele>179.2</ele><time>2026-04-19T12:16:03.951Z</time></trkpt><trkpt lat="45.5037617" lon="8.4791183"><ele>178.8</ele><time>2026-04-19T12:16:04.951Z</time></trkpt><trkpt lat="45.5037833" lon="8.4792567"><ele>178.4</ele><time>2026-04-19T12:16:05.951Z</time></trkpt><trkpt lat="45.5037917" lon="8.479405"><ele>178.0</ele><time>2026-04-19T12:16:06.951Z</time></trkpt><trkpt lat="45.5038067" lon="8.4795733"><ele>177.75</ele><time>2026-04-19T12:16:07.951Z</time></trkpt><trkpt lat="45.5038383" lon="8.4797433"><ele>177.5</ele><time>2026-04-19T12:16:08.952Z</time></trkpt><trkpt lat="45.503885" lon="8.47991"><ele>177.25</ele><time>2026-04-19T12:16:09.952Z</time></trkpt><trkpt lat="45.5039217" lon="8.480085"><ele>177.0</ele><time>2026-04-19T12:16:10.952Z</time></trkpt><trkpt lat="45.503945" lon="8.480255"><ele>177.25</ele><time>2026-04-19T12:16:11.952Z</time></trkpt><trkpt lat="45.503965" lon="8.48044"><ele>177.5</ele><time>2026-04-19T12:16:12.952Z</time></trkpt><trkpt lat="45.504015" lon="8.4806133"><ele>177.75</ele><time>2026-04-19T12:16:13.952Z</time></trkpt><trkpt lat="45.5040767" lon="8.4807933"><ele>178.0</ele><time>2026-04-19T12:16:14.951Z</time></trkpt><trkpt lat="45.5041367" lon="8.4809767"><ele>178.0</ele><time>2026-04-19T12:16:15.952Z</time></trkpt><trkpt lat="45.5042017" lon="8.4811567"><ele>178.0</ele><time>2026-04-19T12:16:16.952Z</time></trkpt><trkpt lat="45.5042617" lon="8.4813383"><ele>178.0</ele><time>2026-04-19T12:16:17.952Z</time></trkpt><trkpt lat="45.50432" lon="8.481515"><ele>178.0</ele><time>2026-04-19T12:16:18.952Z</time></trkpt><trkpt lat="45.50438" lon="8.481685"><ele>177.75</ele><time>2026-04-19T12:16:19.952Z</time></trkpt><trkpt lat="45.504435" lon="8.48186"><ele>177.5</ele><time>2026-04-19T12:16:20.952Z</time></trkpt><trkpt lat="45.5044967" lon="8.48203"><ele>177.25</ele><time>2026-04-19T12:16:21.952Z</time></trkpt><trkpt lat="45.5045583" lon="8.4822017"><ele>177.0</ele><time>2026-04-19T12:16:22.952Z</time></trkpt><trkpt lat="45.5046133" lon="8.4823783"><ele>177.0</ele><time>2026-04-19T12:16:23.952Z</time></trkpt><trkpt lat="45.504665" lon="8.48255"><ele>177.0</ele><time>2026-04-19T12:16:24.952Z</time></trkpt><trkpt lat="45.5047217" lon="8.482715"><ele>177.0</ele><time>2026-04-19T12:16:25.951Z</time></trkpt><trkpt lat="45.504775" lon="8.482875"><ele>177.0</ele><time>2026-04-19T12:16:26.951Z</time></trkpt><trkpt lat="45.5048333" lon="8.483025"><ele>176.75</ele><time>2026-04-19T12:16:27.952Z</time></trkpt><trkpt lat="45.50489" lon="8.4831767"><ele>176.5</ele><time>2026-04-19T12:16:28.952Z</time></trkpt><trkpt lat="45.5049367" lon="8.4833267"><ele>176.25</ele><time>2026-04-19T12:16:29.952Z</time></trkpt><trkpt lat="45.5049883" lon="8.4834767"><ele>176.0</ele><time>2026-04-19T12:16:30.952Z</time></trkpt><trkpt lat="45.5050517" lon="8.4836233"><ele>176.60000000000002</ele><time>2026-04-19T12:16:31.952Z</time></trkpt><trkpt lat="45.5051167" lon="8.483775"><ele>177.2</ele><time>2026-04-19T12:16:32.952Z</time></trkpt><trkpt lat="45.5051667" lon="8.4839267"><ele>177.8</ele><time>2026-04-19T12:16:33.952Z</time></trkpt><trkpt lat="45.505205" lon="8.4840667"><ele>178.39999999999998</ele><time>2026-04-19T12:16:34.952Z</time></trkpt><trkpt lat="45.5052367" lon="8.4841883"><ele>179.0</ele><time>2026-04-19T12:16:35.951Z</time></trkpt><trkpt lat="45.505255" lon="8.4843133"><ele>179.0</ele><time>2026-04-19T12:16:36.952Z</time></trkpt><trkpt lat="45.5052583" lon="8.48446"><ele>179.0</ele><time>2026-04-19T12:16:37.952Z</time></trkpt><trkpt lat="45.5052883" lon="8.4845717"><ele>179.0</ele><time>2026-04-19T12:16:38.952Z</time></trkpt><trkpt lat="45.50533" lon="8.48471"><ele>179.0</ele><time>2026-04-19T12:16:39.951Z</time></trkpt><trkpt lat="45.5053717" lon="8.4848467"><ele>179.0</ele><time>2026-04-19T12:16:40.951Z</time></trkpt><trkpt lat="45.5054133" lon="8.485"><ele>178.75</ele><time>2026-04-19T12:16:41.952Z</time></trkpt><trkpt lat="45.505445" lon="8.4851667"><ele>178.5</ele><time>2026-04-19T12:16:42.952Z</time></trkpt><trkpt lat="45.50546" lon="8.4853383"><ele>178.25</ele><time>2026-04-19T12:16:43.951Z</time></trkpt><trkpt lat="45.50547" lon="8.48552"><ele>178.0</ele><time>2026-04-19T12:16:44.952Z</time></trkpt><trkpt lat="45.50548" lon="8.4857117"><ele>178.0</ele><time>2026-04-19T12:16:45.952Z</time></trkpt><trkpt lat="45.5054967" lon="8.48591"><ele>178.0</ele><time>2026-04-19T12:16:46.952Z</time></trkpt><trkpt lat="45.5055033" lon="8.4861067"><ele>178.0</ele><time>2026-04-19T12:16:47.952Z</time></trkpt><trkpt lat="45.5055267" lon="8.4863133"><ele>178.0</ele><time>2026-04-19T12:16:48.951Z</time></trkpt><trkpt lat="45.5055617" lon="8.4865183"><ele>178.25</ele><time>2026-04-19T12:16:49.952Z</time></trkpt><trkpt lat="45.5056067" lon="8.4867183"><ele>178.5</ele><time>2026-04-19T12:16:50.952Z</time></trkpt><trkpt lat="45.505655" lon="8.48692"><ele>178.75</ele><time>2026-04-19T12:16:51.952Z</time></trkpt><trkpt lat="45.50571" lon="8.4871183"><ele>179.0</ele><time>2026-04-19T12:16:52.951Z</time></trkpt><trkpt lat="45.5057633" lon="8.4873133"><ele>179.0</ele><time>2026-04-19T12:16:53.951Z</time></trkpt><trkpt lat="45.5058167" lon="8.4875133"><ele>179.0</ele><time>2026-04-19T12:16:54.952Z</time></trkpt><trkpt lat="45.5058533" lon="8.4877183"><ele>179.0</ele><time>2026-04-19T12:16:55.951Z</time></trkpt><trkpt lat="45.5058917" lon="8.4879267"><ele>179.0</ele><time>2026-04-19T12:16:56.952Z</time></trkpt><trkpt lat="45.5059283" lon="8.4881433"><ele>178.66666666666666</ele><time>2026-04-19T12:16:57.952Z</time></trkpt><trkpt lat="45.5059633" lon="8.4883617"><ele>178.33333333333334</ele><time>2026-04-19T12:16:58.952Z</time></trkpt><trkpt lat="45.5060017" lon="8.4885733"><ele>178.0</ele><time>2026-04-19T12:16:59.952Z</time></trkpt><trkpt lat="45.5060367" lon="8.4887817"><ele>177.75</ele><time>2026-04-19T12:17:00.951Z</time></trkpt><trkpt lat="45.506075" lon="8.4889767"><ele>177.5</ele><time>2026-04-19T12:17:01.952Z</time></trkpt><trkpt lat="45.5061083" lon="8.4891783"><ele>177.25</ele><time>2026-04-19T12:17:02.952Z</time></trkpt><trkpt lat="45.506125" lon="8.4893533"><ele>177.0</ele><time>2026-04-19T12:17:03.952Z</time></trkpt><trkpt lat="45.50613" lon="8.489555"><ele>177.0</ele><time>2026-04-19T12:17:04.952Z</time></trkpt><trkpt lat="45.5061167" lon="8.4897517"><ele>177.0</ele><time>2026-04-19T12:17:05.952Z</time></trkpt><trkpt lat="45.5060967" lon="8.48995"><ele>177.0</ele><time>2026-04-19T12:17:06.952Z</time></trkpt><trkpt lat="45.5060883" lon="8.49013"><ele>177.0</ele><time>2026-04-19T12:17:07.951Z</time></trkpt><trkpt lat="45.5060733" lon="8.4902983"><ele>177.2</ele><time>2026-04-19T12:17:08.951Z</time></trkpt><trkpt lat="45.5060567" lon="8.490455"><ele>177.39999999999998</ele><time>2026-04-19T12:17:09.951Z</time></trkpt><trkpt lat="45.5060533" lon="8.4905983"><ele>177.60000000000002</ele><time>2026-04-19T12:17:10.95Z</time></trkpt><trkpt lat="45.5060467" lon="8.4907183"><ele>177.8</ele><time>2026-04-19T12:17:11.951Z</time></trkpt><trkpt lat="45.50603" lon="8.490825"><ele>178.0</ele><time>2026-04-19T12:17:12.95Z</time></trkpt><trkpt lat="45.5060067" lon="8.4909517"><ele>178.0</ele><time>2026-04-19T12:17:14.95Z</time></trkpt><trkpt lat="45.5060067" lon="8.4911183"><ele>178.0</ele><time>2026-04-19T12:17:17.951Z</time></trkpt><trkpt lat="45.5059983" lon="8.49123"><ele>178.0</ele><time>2026-04-19T12:17:18.951Z</time></trkpt><trkpt lat="45.5059883" lon="8.49136"><ele>178.0</ele><time>2026-04-19T12:17:19.951Z</time></trkpt><trkpt lat="45.5059783" lon="8.4915033"><ele>178.0</ele><time>2026-04-19T12:17:20.95Z</time></trkpt><trkpt lat="45.5059717" lon="8.49168"><ele>178.25</ele><time>2026-04-19T12:17:21.951Z</time></trkpt><trkpt lat="45.5059583" lon="8.4918483"><ele>178.5</ele><time>2026-04-19T12:17:22.951Z</time></trkpt><trkpt lat="45.505945" lon="8.4920517"><ele>178.75</ele><time>2026-04-19T12:17:23.95Z</time></trkpt><trkpt lat="45.505935" lon="8.4922433"><ele>179.0</ele><time>2026-04-19T12:17:24.951Z</time></trkpt><trkpt lat="45.5059117" lon="8.4924483"><ele>178.5</ele><time>2026-04-19T12:17:25.95Z</time></trkpt><trkpt lat="45.5058833" lon="8.49265"><ele>178.0</ele><time>2026-04-19T12:17:26.951Z</time></trkpt><trkpt lat="45.5058517" lon="8.4928483"><ele>177.5</ele><time>2026-04-19T12:17:27.95Z</time></trkpt><trkpt lat="45.5058333" lon="8.4930583"><ele>177.0</ele><time>2026-04-19T12:17:28.95Z</time></trkpt><trkpt lat="45.50582" lon="8.4932717"><ele>176.66666666666666</ele><time>2026-04-19T12:17:29.95Z</time></trkpt><trkpt lat="45.5058" lon="8.4934833"><ele>176.33333333333331</ele><time>2026-04-19T12:17:30.951Z</time></trkpt><trkpt lat="45.5057833" lon="8.4936983"><ele>176.0</ele><time>2026-04-19T12:17:31.951Z</time></trkpt><trkpt lat="45.5057667" lon="8.493915"><ele>175.66666666666666</ele><time>2026-04-19T12:17:32.951Z</time></trkpt><trkpt lat="45.5057517" lon="8.49413"><ele>175.33333333333334</ele><time>2026-04-19T12:17:33.95Z</time></trkpt><trkpt lat="45.5057383" lon="8.4943433"><ele>175.0</ele><time>2026-04-19T12:17:34.951Z</time></trkpt><trkpt lat="45.505725" lon="8.4945567"><ele>175.33333333333334</ele><time>2026-04-19T12:17:35.951Z</time></trkpt><trkpt lat="45.505715" lon="8.4947883"><ele>175.66666666666666</ele><time>2026-04-19T12:17:36.95Z</time></trkpt><trkpt lat="45.5057" lon="8.495025"><ele>176.0</ele><time>2026-04-19T12:17:37.95Z</time></trkpt><trkpt lat="45.505685" lon="8.4952517"><ele>175.33333333333331</ele><time>2026-04-19T12:17:38.95Z</time></trkpt><trkpt lat="45.50567" lon="8.495475"><ele>174.66666666666666</ele><time>2026-04-19T12:17:39.95Z</time></trkpt><trkpt lat="45.50565" lon="8.4957033"><ele>174.0</ele><time>2026-04-19T12:17:40.951Z</time></trkpt><trkpt lat="45.5056333" lon="8.49593"><ele>174.0</ele><time>2026-04-19T12:17:41.95Z</time></trkpt><trkpt lat="45.5056183" lon="8.4961483"><ele>174.0</ele><time>2026-04-19T12:17:42.95Z</time></trkpt><trkpt lat="45.5056033" lon="8.496365"><ele>174.0</ele><time>2026-04-19T12:17:43.95Z</time></trkpt><trkpt lat="45.50559" lon="8.49659"><ele>174.0</ele><time>2026-04-19T12:17:44.95Z</time></trkpt><trkpt lat="45.5055783" lon="8.4968167"><ele>174.0</ele><time>2026-04-19T12:17:45.951Z</time></trkpt><trkpt lat="45.5055633" lon="8.4970417"><ele>174.0</ele><time>2026-04-19T12:17:46.951Z</time></trkpt><trkpt lat="45.5055433" lon="8.4972767"><ele>174.0</ele><time>2026-04-19T12:17:47.95Z</time></trkpt><trkpt lat="45.5055267" lon="8.497495"><ele>174.0</ele><time>2026-04-19T12:17:48.95Z</time></trkpt><trkpt lat="45.5055083" lon="8.4977167"><ele>174.0</ele><time>2026-04-19T12:17:49.951Z</time></trkpt><trkpt lat="45.5054883" lon="8.4979333"><ele>174.0</ele><time>2026-04-19T12:17:50.95Z</time></trkpt><trkpt lat="45.5054667" lon="8.498135"><ele>174.0</ele><time>2026-04-19T12:17:51.95Z</time></trkpt><trkpt lat="45.5054567" lon="8.4983317"><ele>174.0</ele><time>2026-04-19T12:17:52.951Z</time></trkpt><trkpt lat="45.5054433" lon="8.4985233"><ele>174.0</ele><time>2026-04-19T12:17:53.951Z</time></trkpt><trkpt lat="45.5054333" lon="8.4987167"><ele>174.0</ele><time>2026-04-19T12:17:54.95Z</time></trkpt><trkpt lat="45.50542" lon="8.49892"><ele>174.0</ele><time>2026-04-19T12:17:55.95Z</time></trkpt><trkpt lat="45.5054133" lon="8.4991167"><ele>174.0</ele><time>2026-04-19T12:17:56.951Z</time></trkpt><trkpt lat="45.5054033" lon="8.499325"><ele>174.0</ele><time>2026-04-19T12:17:57.951Z</time></trkpt><trkpt lat="45.5053867" lon="8.4995433"><ele>173.66666666666666</ele><time>2026-04-19T12:17:58.951Z</time></trkpt><trkpt lat="45.50537" lon="8.4997617"><ele>173.33333333333331</ele><time>2026-04-19T12:17:59.95Z</time></trkpt><trkpt lat="45.5053467" lon="8.4999833"><ele>173.0</ele><time>2026-04-19T12:18:00.95Z</time></trkpt><trkpt lat="45.5053283" lon="8.5002117"><ele>173.0</ele><time>2026-04-19T12:18:01.95Z</time></trkpt><trkpt lat="45.5053117" lon="8.5004517"><ele>173.0</ele><time>2026-04-19T12:18:02.951Z</time></trkpt><trkpt lat="45.5053" lon="8.500705"><ele>173.0</ele><time>2026-04-19T12:18:03.951Z</time></trkpt><trkpt lat="45.5052867" lon="8.5009583"><ele>173.0</ele><time>2026-04-19T12:18:04.951Z</time></trkpt><trkpt lat="45.5052717" lon="8.50119"><ele>173.0</ele><time>2026-04-19T12:18:05.95Z</time></trkpt><trkpt lat="45.5052583" lon="8.501415"><ele>173.0</ele><time>2026-04-19T12:18:06.95Z</time></trkpt><trkpt lat="45.5052433" lon="8.5016433"><ele>173.33333333333331</ele><time>2026-04-19T12:18:07.951Z</time></trkpt><trkpt lat="45.50522" lon="8.50187"><ele>173.66666666666666</ele><time>2026-04-19T12:18:08.951Z</time></trkpt><trkpt lat="45.5052033" lon="8.5020867"><ele>174.0</ele><time>2026-04-19T12:18:09.951Z</time></trkpt><trkpt lat="45.5051867" lon="8.50231"><ele>174.0</ele><time>2026-04-19T12:18:10.951Z</time></trkpt><trkpt lat="45.5051667" lon="8.5025217"><ele>174.0</ele><time>2026-04-19T12:18:11.95Z</time></trkpt><trkpt lat="45.5051517" lon="8.5027283"><ele>174.0</ele><time>2026-04-19T12:18:12.951Z</time></trkpt><trkpt lat="45.5051367" lon="8.5029433"><ele>174.0</ele><time>2026-04-19T12:18:13.95Z</time></trkpt><trkpt lat="45.505125" lon="8.503155"><ele>173.75</ele><time>2026-04-19T12:18:14.951Z</time></trkpt><trkpt lat="45.505115" lon="8.50336"><ele>173.5</ele><time>2026-04-19T12:18:15.951Z</time></trkpt><trkpt lat="45.5051067" lon="8.5035433"><ele>173.25</ele><time>2026-04-19T12:18:16.951Z</time></trkpt><trkpt lat="45.5050883" lon="8.5037133"><ele>173.0</ele><time>2026-04-19T12:18:17.951Z</time></trkpt><trkpt lat="45.5050717" lon="8.5038583"><ele>173.0</ele><time>2026-04-19T12:18:18.951Z</time></trkpt><trkpt lat="45.5050567" lon="8.5039783"><ele>173.0</ele><time>2026-04-19T12:18:19.951Z</time></trkpt><trkpt lat="45.5050483" lon="8.5040817"><ele>173.0</ele><time>2026-04-19T12:18:20.951Z</time></trkpt><trkpt lat="45.505055" lon="8.5042017"><ele>173.0</ele><time>2026-04-19T12:18:22.951Z</time></trkpt><trkpt lat="45.5051267" lon="8.50432"><ele>173.0</ele><time>2026-04-19T12:18:25.95Z</time></trkpt><trkpt lat="45.5052117" lon="8.5044633"><ele>173.2</ele><time>2026-04-19T12:18:27.951Z</time></trkpt><trkpt lat="45.5052417" lon="8.5045917"><ele>173.4</ele><time>2026-04-19T12:18:28.951Z</time></trkpt><trkpt lat="45.5052667" lon="8.50474"><ele>173.6</ele><time>2026-04-19T12:18:29.951Z</time></trkpt><trkpt lat="45.50529" lon="8.5048917"><ele>173.79999999999998</ele><time>2026-04-19T12:18:30.95Z</time></trkpt><trkpt lat="45.5053167" lon="8.505035"><ele>174.0</ele><time>2026-04-19T12:18:31.951Z</time></trkpt><trkpt lat="45.5053417" lon="8.5051733"><ele>174.0</ele><time>2026-04-19T12:18:32.951Z</time></trkpt><trkpt lat="45.5053733" lon="8.5053133"><ele>174.0</ele><time>2026-04-19T12:18:33.951Z</time></trkpt><trkpt lat="45.50541" lon="8.5054483"><ele>174.0</ele><time>2026-04-19T12:18:34.951Z</time></trkpt><trkpt lat="45.5054467" lon="8.5055883"><ele>174.0</ele><time>2026-04-19T12:18:35.951Z</time></trkpt><trkpt lat="45.5054783" lon="8.5057283"><ele>174.0</ele><time>2026-04-19T12:18:36.951Z</time></trkpt><trkpt lat="45.5055033" lon="8.50587"><ele>173.83333333333334</ele><time>2026-04-19T12:18:37.951Z</time></trkpt><trkpt lat="45.50553" lon="8.5059933"><ele>173.66666666666666</ele><time>2026-04-19T12:18:38.951Z</time></trkpt><trkpt lat="45.5055533" lon="8.5061"><ele>173.5</ele><time>2026-04-19T12:18:39.951Z</time></trkpt><trkpt lat="45.50558" lon="8.5062067"><ele>173.33333333333331</ele><time>2026-04-19T12:18:40.951Z</time></trkpt><trkpt lat="45.5055983" lon="8.5063083"><ele>173.16666666666666</ele><time>2026-04-19T12:18:41.95Z</time></trkpt><trkpt lat="45.5055917" lon="8.5064467"><ele>173.0</ele><time>2026-04-19T12:18:43.95Z</time></trkpt><trkpt lat="45.50549" lon="8.5065583"><ele>173.0</ele><time>2026-04-19T12:18:45.951Z</time></trkpt><trkpt lat="45.5054033" lon="8.50659"><ele>173.0</ele><time>2026-04-19T12:18:46.951Z</time></trkpt><trkpt lat="45.5053133" lon="8.5066167"><ele>173.0</ele><time>2026-04-19T12:18:47.951Z</time></trkpt><trkpt lat="45.5052283" lon="8.506645"><ele>173.0</ele><time>2026-04-19T12:18:48.951Z</time></trkpt><trkpt lat="45.5051517" lon="8.5066783"><ele>173.0</ele><time>2026-04-19T12:18:49.95Z</time></trkpt><trkpt lat="45.5050817" lon="8.506715"><ele>173.0</ele><time>2026-04-19T12:18:50.95Z</time></trkpt><trkpt lat="45.5050183" lon="8.50676"><ele>173.0</ele><time>2026-04-19T12:18:51.951Z</time></trkpt><trkpt lat="45.5049467" lon="8.50688"><ele>173.0</ele><time>2026-04-19T12:18:53.951Z</time></trkpt><trkpt lat="45.504925" lon="8.5069733"><ele>173.0</ele><time>2026-04-19T12:18:54.95Z</time></trkpt><trkpt lat="45.5049267" lon="8.5070983"><ele>173.0</ele><time>2026-04-19T12:18:55.951Z</time></trkpt><trkpt lat="45.504955" lon="8.50723"><ele>173.0</ele><time>2026-04-19T12:18:56.951Z</time></trkpt><trkpt lat="45.5049883" lon="8.5073667"><ele>173.0</ele><time>2026-04-19T12:18:57.95Z</time></trkpt><trkpt lat="45.5050183" lon="8.507525"><ele>173.0</ele><time>2026-04-19T12:18:58.95Z</time></trkpt><trkpt lat="45.5050483" lon="8.5076883"><ele>173.0</ele><time>2026-04-19T12:18:59.951Z</time></trkpt><trkpt lat="45.5050783" lon="8.5078567"><ele>173.0</ele><time>2026-04-19T12:19:00.951Z</time></trkpt><trkpt lat="45.5051067" lon="8.5080267"><ele>172.75</ele><time>2026-04-19T12:19:01.95Z</time></trkpt><trkpt lat="45.5051383" lon="8.508205"><ele>172.5</ele><time>2026-04-19T12:19:02.95Z</time></trkpt><trkpt lat="45.505175" lon="8.5083817"><ele>172.25</ele><time>2026-04-19T12:19:03.95Z</time></trkpt><trkpt lat="45.5052017" lon="8.5085567"><ele>172.0</ele><time>2026-04-19T12:19:04.951Z</time></trkpt><trkpt lat="45.5052317" lon="8.50874"><ele>172.25</ele><time>2026-04-19T12:19:05.95Z</time></trkpt><trkpt lat="45.5052683" lon="8.5089317"><ele>172.5</ele><time>2026-04-19T12:19:06.95Z</time></trkpt><trkpt lat="45.5052967" lon="8.5091267"><ele>172.75</ele><time>2026-04-19T12:19:07.95Z</time></trkpt><trkpt lat="45.50532" lon="8.5093167"><ele>173.0</ele><time>2026-04-19T12:19:08.951Z</time></trkpt><trkpt lat="45.5053483" lon="8.5095017"><ele>173.0</ele><time>2026-04-19T12:19:09.95Z</time></trkpt><trkpt lat="45.5053817" lon="8.5096833"><ele>173.0</ele><time>2026-04-19T12:19:10.951Z</time></trkpt><trkpt lat="45.5054117" lon="8.5098483"><ele>173.0</ele><time>2026-04-19T12:19:11.951Z</time></trkpt><trkpt lat="45.5054383" lon="8.510005"><ele>173.0</ele><time>2026-04-19T12:19:12.95Z</time></trkpt><trkpt lat="45.5054683" lon="8.5101367"><ele>173.0</ele><time>2026-04-19T12:19:13.95Z</time></trkpt><trkpt lat="45.505485" lon="8.51025"><ele>173.0</ele><time>2026-04-19T12:19:14.951Z</time></trkpt><trkpt lat="45.5055033" lon="8.5103617"><ele>173.0</ele><time>2026-04-19T12:19:15.95Z</time></trkpt><trkpt lat="45.5055183" lon="8.51047"><ele>173.0</ele><time>2026-04-19T12:19:16.95Z</time></trkpt><trkpt lat="45.5055383" lon="8.5105717"><ele>173.0</ele><time>2026-04-19T12:19:17.951Z</time></trkpt><trkpt lat="45.50556" lon="8.5106883"><ele>173.0</ele><time>2026-04-19T12:19:18.95Z</time></trkpt><trkpt lat="45.5055783" lon="8.510805"><ele>173.2</ele><time>2026-04-19T12:19:19.951Z</time></trkpt><trkpt lat="45.5056017" lon="8.5109333"><ele>173.4</ele><time>2026-04-19T12:19:20.951Z</time></trkpt><trkpt lat="45.505635" lon="8.5110717"><ele>173.6</ele><time>2026-04-19T12:19:21.951Z</time></trkpt><trkpt lat="45.505675" lon="8.5112033"><ele>173.79999999999998</ele><time>2026-04-19T12:19:22.95Z</time></trkpt><trkpt lat="45.5057233" lon="8.5113417"><ele>174.0</ele><time>2026-04-19T12:19:23.951Z</time></trkpt><trkpt lat="45.5057783" lon="8.511485"><ele>174.0</ele><time>2026-04-19T12:19:24.951Z</time></trkpt><trkpt lat="45.5058367" lon="8.5116383"><ele>174.0</ele><time>2026-04-19T12:19:25.951Z</time></trkpt><trkpt lat="45.5059033" lon="8.5117917"><ele>174.0</ele><time>2026-04-19T12:19:26.95Z</time></trkpt><trkpt lat="45.505975" lon="8.511955"><ele>174.0</ele><time>2026-04-19T12:19:27.951Z</time></trkpt><trkpt lat="45.5060433" lon="8.51212"><ele>174.25</ele><time>2026-04-19T12:19:28.951Z</time></trkpt><trkpt lat="45.5061083" lon="8.5122917"><ele>174.5</ele><time>2026-04-19T12:19:29.951Z</time></trkpt><trkpt lat="45.5061683" lon="8.5124683"><ele>174.75</ele><time>2026-04-19T12:19:30.951Z</time></trkpt><trkpt lat="45.5062233" lon="8.5126433"><ele>175.0</ele><time>2026-04-19T12:19:31.951Z</time></trkpt><trkpt lat="45.506275" lon="8.5128183"><ele>174.75</ele><time>2026-04-19T12:19:32.951Z</time></trkpt><trkpt lat="45.5063383" lon="8.5129933"><ele>174.5</ele><time>2026-04-19T12:19:33.951Z</time></trkpt><trkpt lat="45.5063917" lon="8.51317"><ele>174.25</ele><time>2026-04-19T12:19:34.951Z</time></trkpt><trkpt lat="45.5064483" lon="8.5133533"><ele>174.0</ele><time>2026-04-19T12:19:35.951Z</time></trkpt><trkpt lat="45.50651" lon="8.5135317"><ele>174.0</ele><time>2026-04-19T12:19:36.951Z</time></trkpt><trkpt lat="45.50657" lon="8.5137267"><ele>174.0</ele><time>2026-04-19T12:19:37.951Z</time></trkpt><trkpt lat="45.506635" lon="8.51391"><ele>174.0</ele><time>2026-04-19T12:19:38.951Z</time></trkpt><trkpt lat="45.506695" lon="8.514095"><ele>174.0</ele><time>2026-04-19T12:19:39.951Z</time></trkpt><trkpt lat="45.5067567" lon="8.5142833"><ele>173.75</ele><time>2026-04-19T12:19:40.951Z</time></trkpt><trkpt lat="45.50682" lon="8.5144783"><ele>173.5</ele><time>2026-04-19T12:19:41.95Z</time></trkpt><trkpt lat="45.5068867" lon="8.5146733"><ele>173.25</ele><time>2026-04-19T12:19:42.95Z</time></trkpt><trkpt lat="45.5069483" lon="8.5148617"><ele>173.0</ele><time>2026-04-19T12:19:43.951Z</time></trkpt><trkpt lat="45.5070083" lon="8.51505"><ele>173.0</ele><time>2026-04-19T12:19:44.95Z</time></trkpt><trkpt lat="45.5070767" lon="8.5152333"><ele>173.0</ele><time>2026-04-19T12:19:45.95Z</time></trkpt><trkpt lat="45.5071417" lon="8.51542"><ele>173.0</ele><time>2026-04-19T12:19:46.951Z</time></trkpt><trkpt lat="45.5072033" lon="8.515605"><ele>173.0</ele><time>2026-04-19T12:19:47.951Z</time></trkpt><trkpt lat="45.5072633" lon="8.515795"><ele>173.25</ele><time>2026-04-19T12:19:48.95Z</time></trkpt><trkpt lat="45.5073283" lon="8.515985"><ele>173.5</ele><time>2026-04-19T12:19:49.95Z</time></trkpt><trkpt lat="45.507385" lon="8.51617"><ele>173.75</ele><time>2026-04-19T12:19:50.951Z</time></trkpt><trkpt lat="45.5074383" lon="8.51634"><ele>174.0</ele><time>2026-04-19T12:19:51.951Z</time></trkpt><trkpt lat="45.5074883" lon="8.516495"><ele>174.0</ele><time>2026-04-19T12:19:52.951Z</time></trkpt><trkpt lat="45.5075317" lon="8.5166467"><ele>174.0</ele><time>2026-04-19T12:19:53.951Z</time></trkpt><trkpt lat="45.50758" lon="8.516775"><ele>174.0</ele><time>2026-04-19T12:19:54.951Z</time></trkpt><trkpt lat="45.5076217" lon="8.5169"><ele>174.0</ele><time>2026-04-19T12:19:55.95Z</time></trkpt><trkpt lat="45.5076633" lon="8.5169983"><ele>174.0</ele><time>2026-04-19T12:19:56.951Z</time></trkpt><trkpt lat="45.5076967" lon="8.5170933"><ele>174.0</ele><time>2026-04-19T12:19:57.95Z</time></trkpt><trkpt lat="45.507785" lon="8.5171717"><ele>174.0</ele><time>2026-04-19T12:19:59.95Z</time></trkpt><trkpt lat="45.5079217" lon="8.51715"><ele>174.0</ele><time>2026-04-19T12:20:01.951Z</time></trkpt><trkpt lat="45.508005" lon="8.5171217"><ele>174.0</ele><time>2026-04-19T12:20:02.95Z</time></trkpt><trkpt lat="45.5080967" lon="8.5170783"><ele>174.0</ele><time>2026-04-19T12:20:03.951Z</time></trkpt><trkpt lat="45.5081967" lon="8.5170367"><ele>173.6</ele><time>2026-04-19T12:20:04.951Z</time></trkpt><trkpt lat="45.5082933" lon="8.517"><ele>173.2</ele><time>2026-04-19T12:20:05.951Z</time></trkpt><trkpt lat="45.5083983" lon="8.5169617"><ele>172.79999999999998</ele><time>2026-04-19T12:20:06.95Z</time></trkpt><trkpt lat="45.5085083" lon="8.516925"><ele>172.39999999999998</ele><time>2026-04-19T12:20:07.951Z</time></trkpt><trkpt lat="45.5086233" lon="8.5168717"><ele>172.0</ele><time>2026-04-19T12:20:08.951Z</time></trkpt><trkpt lat="45.5087383" lon="8.5168267"><ele>173.25</ele><time>2026-04-19T12:20:09.951Z</time></trkpt><trkpt lat="45.5088583" lon="8.5167717"><ele>174.5</ele><time>2026-04-19T12:20:10.951Z</time></trkpt><trkpt lat="45.5089817" lon="8.5167083"><ele>175.75</ele><time>2026-04-19T12:20:11.951Z</time></trkpt><trkpt lat="45.5091" lon="8.5166467"><ele>177.0</ele><time>2026-04-19T12:20:12.951Z</time></trkpt><trkpt lat="45.5092233" lon="8.5165967"><ele>177.0</ele><time>2026-04-19T12:20:13.951Z</time></trkpt><trkpt lat="45.5093433" lon="8.5165533"><ele>177.0</ele><time>2026-04-19T12:20:14.951Z</time></trkpt><trkpt lat="45.50946" lon="8.5164983"><ele>177.0</ele><time>2026-04-19T12:20:15.95Z</time></trkpt><trkpt lat="45.5095833" lon="8.5164433"><ele>177.0</ele><time>2026-04-19T12:20:16.951Z</time></trkpt><trkpt lat="45.509705" lon="8.5163883"><ele>176.8</ele><time>2026-04-19T12:20:17.951Z</time></trkpt><trkpt lat="45.5098183" lon="8.5163333"><ele>176.6</ele><time>2026-04-19T12:20:18.95Z</time></trkpt><trkpt lat="45.509925" lon="8.5163033"><ele>176.4</ele><time>2026-04-19T12:20:19.95Z</time></trkpt><trkpt lat="45.51001" lon="8.5162617"><ele>176.20000000000002</ele><time>2026-04-19T12:20:20.95Z</time></trkpt><trkpt lat="45.51009" lon="8.5162233"><ele>176.0</ele><time>2026-04-19T12:20:21.951Z</time></trkpt><trkpt lat="45.51017" lon="8.5162"><ele>176.0</ele><time>2026-04-19T12:20:22.951Z</time></trkpt><trkpt lat="45.5102333" lon="8.516205"><ele>176.0</ele><time>2026-04-19T12:20:23.951Z</time></trkpt><trkpt lat="45.5103383" lon="8.516285"><ele>176.0</ele><time>2026-04-19T12:20:25.951Z</time></trkpt><trkpt lat="45.51038" lon="8.516375"><ele>176.0</ele><time>2026-04-19T12:20:26.951Z</time></trkpt><trkpt lat="45.5104183" lon="8.516515"><ele>176.0</ele><time>2026-04-19T12:20:27.951Z</time></trkpt><trkpt lat="45.5104467" lon="8.516675"><ele>176.0</ele><time>2026-04-19T12:20:28.951Z</time></trkpt><trkpt lat="45.5104683" lon="8.5168383"><ele>176.0</ele><time>2026-04-19T12:20:29.95Z</time></trkpt><trkpt lat="45.5104967" lon="8.5170133"><ele>176.0</ele><time>2026-04-19T12:20:30.95Z</time></trkpt><trkpt lat="45.51053" lon="8.5172033"><ele>176.0</ele><time>2026-04-19T12:20:31.951Z</time></trkpt><trkpt lat="45.5105767" lon="8.5174017"><ele>176.0</ele><time>2026-04-19T12:20:32.95Z</time></trkpt><trkpt lat="45.5106233" lon="8.5176167"><ele>176.0</ele><time>2026-04-19T12:20:33.951Z</time></trkpt><trkpt lat="45.5106617" lon="8.5178267"><ele>176.0</ele><time>2026-04-19T12:20:34.951Z</time></trkpt><trkpt lat="45.5106983" lon="8.5180317"><ele>176.0</ele><time>2026-04-19T12:20:35.95Z</time></trkpt><trkpt lat="45.5107483" lon="8.5182433"><ele>176.0</ele><time>2026-04-19T12:20:36.951Z</time></trkpt><trkpt lat="45.5107917" lon="8.5184517"><ele>176.0</ele><time>2026-04-19T12:20:37.951Z</time></trkpt><trkpt lat="45.510835" lon="8.5186583"><ele>175.5</ele><time>2026-04-19T12:20:38.951Z</time></trkpt><trkpt lat="45.5108817" lon="8.5188617"><ele>175.0</ele><time>2026-04-19T12:20:39.951Z</time></trkpt><trkpt lat="45.510925" lon="8.51907"><ele>174.5</ele><time>2026-04-19T12:20:40.951Z</time></trkpt><trkpt lat="45.5109667" lon="8.519265"><ele>174.0</ele><time>2026-04-19T12:20:41.951Z</time></trkpt><trkpt lat="45.5110083" lon="8.5194633"><ele>174.5</ele><time>2026-04-19T12:20:42.95Z</time></trkpt><trkpt lat="45.5110483" lon="8.519655"><ele>175.0</ele><time>2026-04-19T12:20:43.951Z</time></trkpt><trkpt lat="45.5110883" lon="8.519845"><ele>175.5</ele><time>2026-04-19T12:20:44.951Z</time></trkpt><trkpt lat="45.5111317" lon="8.5200417"><ele>176.0</ele><time>2026-04-19T12:20:45.95Z</time></trkpt><trkpt lat="45.5111667" lon="8.5202317"><ele>176.0</ele><time>2026-04-19T12:20:46.951Z</time></trkpt><trkpt lat="45.51121" lon="8.5204283"><ele>176.0</ele><time>2026-04-19T12:20:47.95Z</time></trkpt><trkpt lat="45.511255" lon="8.5206317"><ele>176.0</ele><time>2026-04-19T12:20:48.951Z</time></trkpt><trkpt lat="45.5112917" lon="8.5208233"><ele>176.0</ele><time>2026-04-19T12:20:49.95Z</time></trkpt><trkpt lat="45.5113333" lon="8.5210133"><ele>175.75</ele><time>2026-04-19T12:20:50.95Z</time></trkpt><trkpt lat="45.5113733" lon="8.5212117"><ele>175.5</ele><time>2026-04-19T12:20:51.951Z</time></trkpt><trkpt lat="45.5114167" lon="8.5214083"><ele>175.25</ele><time>2026-04-19T12:20:52.951Z</time></trkpt><trkpt lat="45.5114533" lon="8.5215983"><ele>175.0</ele><time>2026-04-19T12:20:53.951Z</time></trkpt><trkpt lat="45.5114917" lon="8.5217933"><ele>175.25</ele><time>2026-04-19T12:20:54.95Z</time></trkpt><trkpt lat="45.5115267" lon="8.5219917"><ele>175.5</ele><time>2026-04-19T12:20:55.95Z</time></trkpt><trkpt lat="45.5115633" lon="8.52218"><ele>175.75</ele><time>2026-04-19T12:20:56.95Z</time></trkpt><trkpt lat="45.5116" lon="8.5223617"><ele>176.0</ele><time>2026-04-19T12:20:57.95Z</time></trkpt><trkpt lat="45.5116367" lon="8.5225517"><ele>176.0</ele><time>2026-04-19T12:20:58.95Z</time></trkpt><trkpt lat="45.5116833" lon="8.522745"><ele>176.0</ele><time>2026-04-19T12:20:59.95Z</time></trkpt><trkpt lat="45.51173" lon="8.52295"><ele>176.0</ele><time>2026-04-19T12:21:00.95Z</time></trkpt><trkpt lat="45.51177" lon="8.5231467"><ele>176.0</ele><time>2026-04-19T12:21:01.949Z</time></trkpt><trkpt lat="45.51181" lon="8.5233417"><ele>176.25</ele><time>2026-04-19T12:21:02.95Z</time></trkpt><trkpt lat="45.511845" lon="8.52352"><ele>176.5</ele><time>2026-04-19T12:21:03.949Z</time></trkpt><trkpt lat="45.51188" lon="8.523685"><ele>176.75</ele><time>2026-04-19T12:21:04.95Z</time></trkpt><trkpt lat="45.5119167" lon="8.5238433"><ele>177.0</ele><time>2026-04-19T12:21:05.95Z</time></trkpt><trkpt lat="45.51195" lon="8.5239917"><ele>176.83333333333334</ele><time>2026-04-19T12:21:06.95Z</time></trkpt><trkpt lat="45.51198" lon="8.5241333"><ele>176.66666666666666</ele><time>2026-04-19T12:21:07.95Z</time></trkpt><trkpt lat="45.5119967" lon="8.5242533"><ele>176.5</ele><time>2026-04-19T12:21:08.95Z</time></trkpt><trkpt lat="45.51203" lon="8.5243533"><ele>176.33333333333331</ele><time>2026-04-19T12:21:09.949Z</time></trkpt><trkpt lat="45.5120717" lon="8.5244483"><ele>176.16666666666666</ele><time>2026-04-19T12:21:10.949Z</time></trkpt><trkpt lat="45.5121333" lon="8.52453"><ele>176.0</ele><time>2026-04-19T12:21:11.949Z</time></trkpt><trkpt lat="45.512205" lon="8.52459"><ele>176.0</ele><time>2026-04-19T12:21:12.949Z</time></trkpt><trkpt lat="45.512275" lon="8.5246333"><ele>176.0</ele><time>2026-04-19T12:21:13.95Z</time></trkpt><trkpt lat="45.5123517" lon="8.5246417"><ele>176.0</ele><time>2026-04-19T12:21:14.95Z</time></trkpt><trkpt lat="45.5124417" lon="8.5246283"><ele>176.0</ele><time>2026-04-19T12:21:15.949Z</time></trkpt><trkpt lat="45.51254" lon="8.52459"><ele>176.0</ele><time>2026-04-19T12:21:16.95Z</time></trkpt><trkpt lat="45.5126517" lon="8.5245517"><ele>175.8</ele><time>2026-04-19T12:21:17.95Z</time></trkpt><trkpt lat="45.5127567" lon="8.5245267"><ele>175.60000000000002</ele><time>2026-04-19T12:21:18.95Z</time></trkpt><trkpt lat="45.5128667" lon="8.5244967"><ele>175.4</ele><time>2026-04-19T12:21:19.95Z</time></trkpt><trkpt lat="45.51298" lon="8.524465"><ele>175.2</ele><time>2026-04-19T12:21:20.95Z</time></trkpt><trkpt lat="45.5130817" lon="8.524435"><ele>175.0</ele><time>2026-04-19T12:21:21.95Z</time></trkpt><trkpt lat="45.5131833" lon="8.524405"><ele>175.0</ele><time>2026-04-19T12:21:22.949Z</time></trkpt><trkpt lat="45.513275" lon="8.5243767"><ele>175.0</ele><time>2026-04-19T12:21:23.95Z</time></trkpt><trkpt lat="45.51337" lon="8.5243517"><ele>175.0</ele><time>2026-04-19T12:21:24.949Z</time></trkpt><trkpt lat="45.5134583" lon="8.5243233"><ele>175.0</ele><time>2026-04-19T12:21:25.95Z</time></trkpt><trkpt lat="45.5135483" lon="8.5242983"><ele>175.0</ele><time>2026-04-19T12:21:26.95Z</time></trkpt><trkpt lat="45.5136283" lon="8.524275"><ele>175.0</ele><time>2026-04-19T12:21:27.949Z</time></trkpt><trkpt lat="45.51372" lon="8.52425"><ele>175.0</ele><time>2026-04-19T12:21:28.95Z</time></trkpt><trkpt lat="45.5138117" lon="8.5242283"><ele>175.0</ele><time>2026-04-19T12:21:29.95Z</time></trkpt><trkpt lat="45.5139117" lon="8.5242183"><ele>175.0</ele><time>2026-04-19T12:21:30.95Z</time></trkpt><trkpt lat="45.5140117" lon="8.5242217"><ele>175.0</ele><time>2026-04-19T12:21:31.95Z</time></trkpt><trkpt lat="45.5141167" lon="8.52424"><ele>175.0</ele><time>2026-04-19T12:21:32.95Z</time></trkpt><trkpt lat="45.5142167" lon="8.5242867"><ele>175.0</ele><time>2026-04-19T12:21:33.949Z</time></trkpt><trkpt lat="45.51431" lon="8.5243633"><ele>175.0</ele><time>2026-04-19T12:21:34.95Z</time></trkpt><trkpt lat="45.5144067" lon="8.5244617"><ele>175.0</ele><time>2026-04-19T12:21:35.95Z</time></trkpt><trkpt lat="45.5144983" lon="8.524575"><ele>175.5</ele><time>2026-04-19T12:21:36.95Z</time></trkpt><trkpt lat="45.51459" lon="8.5246867"><ele>176.0</ele><time>2026-04-19T12:21:37.949Z</time></trkpt><trkpt lat="45.5146817" lon="8.5248033"><ele>176.5</ele><time>2026-04-19T12:21:38.95Z</time></trkpt><trkpt lat="45.5147733" lon="8.5249167"><ele>177.0</ele><time>2026-04-19T12:21:39.95Z</time></trkpt><trkpt lat="45.5148683" lon="8.5250383"><ele>177.0</ele><time>2026-04-19T12:21:40.95Z</time></trkpt><trkpt lat="45.514965" lon="8.5251617"><ele>177.0</ele><time>2026-04-19T12:21:41.95Z</time></trkpt><trkpt lat="45.51506" lon="8.5252833"><ele>177.0</ele><time>2026-04-19T12:21:42.95Z</time></trkpt><trkpt lat="45.5151533" lon="8.5254083"><ele>177.0</ele><time>2026-04-19T12:21:43.95Z</time></trkpt><trkpt lat="45.5152433" lon="8.5255333"><ele>177.2</ele><time>2026-04-19T12:21:44.949Z</time></trkpt><trkpt lat="45.5153283" lon="8.525655"><ele>177.39999999999998</ele><time>2026-04-19T12:21:45.949Z</time></trkpt><trkpt lat="45.515405" lon="8.5257583"><ele>177.60000000000002</ele><time>2026-04-19T12:21:46.949Z</time></trkpt><trkpt lat="45.5154767" lon="8.5258633"><ele>177.8</ele><time>2026-04-19T12:21:47.95Z</time></trkpt><trkpt lat="45.5155533" lon="8.5259617"><ele>178.0</ele><time>2026-04-19T12:21:48.95Z</time></trkpt><trkpt lat="45.51564" lon="8.5260483"><ele>178.4</ele><time>2026-04-19T12:21:49.949Z</time></trkpt><trkpt lat="45.51573" lon="8.5261117"><ele>178.8</ele><time>2026-04-19T12:21:50.949Z</time></trkpt><trkpt lat="45.515825" lon="8.5261467"><ele>179.2</ele><time>2026-04-19T12:21:51.949Z</time></trkpt><trkpt lat="45.51593" lon="8.5261367"><ele>179.6</ele><time>2026-04-19T12:21:52.949Z</time></trkpt><trkpt lat="45.5160333" lon="8.5261183"><ele>180.0</ele><time>2026-04-19T12:21:53.95Z</time></trkpt><trkpt lat="45.5161467" lon="8.5261017"><ele>179.8</ele><time>2026-04-19T12:21:54.95Z</time></trkpt><trkpt lat="45.516255" lon="8.52611"><ele>179.6</ele><time>2026-04-19T12:21:55.949Z</time></trkpt><trkpt lat="45.51636" lon="8.5261417"><ele>179.39999999999998</ele><time>2026-04-19T12:21:56.949Z</time></trkpt><trkpt lat="45.516445" lon="8.526225"><ele>179.2</ele><time>2026-04-19T12:21:57.95Z</time></trkpt><trkpt lat="45.5165417" lon="8.526295"><ele>179.0</ele><time>2026-04-19T12:21:58.95Z</time></trkpt><trkpt lat="45.5166033" lon="8.5263917"><ele>179.0</ele><time>2026-04-19T12:21:59.95Z</time></trkpt><trkpt lat="45.5166517" lon="8.5264967"><ele>179.0</ele><time>2026-04-19T12:22:00.95Z</time></trkpt><trkpt lat="45.5166967" lon="8.52661"><ele>179.0</ele><time>2026-04-19T12:22:01.95Z</time></trkpt><trkpt lat="45.51672" lon="8.526725"><ele>179.0</ele><time>2026-04-19T12:22:02.95Z</time></trkpt><trkpt lat="45.5167217" lon="8.5268333"><ele>179.0</ele><time>2026-04-19T12:22:03.95Z</time></trkpt><trkpt lat="45.5166917" lon="8.526945"><ele>179.0</ele><time>2026-04-19T12:22:04.949Z</time></trkpt><trkpt lat="45.5166417" lon="8.5270433"><ele>178.83333333333331</ele><time>2026-04-19T12:22:05.95Z</time></trkpt><trkpt lat="45.5166233" lon="8.5271433"><ele>178.66666666666666</ele><time>2026-04-19T12:22:06.949Z</time></trkpt><trkpt lat="45.5166383" lon="8.5272467"><ele>178.5</ele><time>2026-04-19T12:22:07.95Z</time></trkpt><trkpt lat="45.516685" lon="8.5273333"><ele>178.33333333333334</ele><time>2026-04-19T12:22:08.95Z</time></trkpt><trkpt lat="45.5167467" lon="8.5274067"><ele>178.16666666666669</ele><time>2026-04-19T12:22:09.95Z</time></trkpt><trkpt lat="45.5168233" lon="8.52748"><ele>178.0</ele><time>2026-04-19T12:22:10.95Z</time></trkpt><trkpt lat="45.5169067" lon="8.5275533"><ele>178.0</ele><time>2026-04-19T12:22:11.95Z</time></trkpt><trkpt lat="45.5170017" lon="8.5276333"><ele>178.0</ele><time>2026-04-19T12:22:12.95Z</time></trkpt><trkpt lat="45.5170967" lon="8.527715"><ele>178.0</ele><time>2026-04-19T12:22:13.95Z</time></trkpt><trkpt lat="45.5171883" lon="8.5278033"><ele>178.0</ele><time>2026-04-19T12:22:14.95Z</time></trkpt><trkpt lat="45.5172717" lon="8.5278883"><ele>178.0</ele><time>2026-04-19T12:22:15.95Z</time></trkpt><trkpt lat="45.517355" lon="8.5279833"><ele>178.0</ele><time>2026-04-19T12:22:16.949Z</time></trkpt><trkpt lat="45.517445" lon="8.5280733"><ele>178.0</ele><time>2026-04-19T12:22:17.95Z</time></trkpt><trkpt lat="45.517535" lon="8.5281717"><ele>178.0</ele><time>2026-04-19T12:22:18.95Z</time></trkpt><trkpt lat="45.5176233" lon="8.5282683"><ele>178.0</ele><time>2026-04-19T12:22:19.95Z</time></trkpt><trkpt lat="45.5177117" lon="8.5283583"><ele>178.0</ele><time>2026-04-19T12:22:20.95Z</time></trkpt><trkpt lat="45.5178" lon="8.5284467"><ele>178.0</ele><time>2026-04-19T12:22:21.95Z</time></trkpt><trkpt lat="45.51789" lon="8.5285367"><ele>178.0</ele><time>2026-04-19T12:22:22.95Z</time></trkpt><trkpt lat="45.5179767" lon="8.5286267"><ele>178.0</ele><time>2026-04-19T12:22:23.95Z</time></trkpt><trkpt lat="45.51807" lon="8.52872"><ele>178.0</ele><time>2026-04-19T12:22:24.95Z</time></trkpt><trkpt lat="45.5181683" lon="8.5288183"><ele>178.25</ele><time>2026-04-19T12:22:25.949Z</time></trkpt><trkpt lat="45.51827" lon="8.5289183"><ele>178.5</ele><time>2026-04-19T12:22:26.95Z</time></trkpt><trkpt lat="45.5183717" lon="8.52902"><ele>178.75</ele><time>2026-04-19T12:22:27.949Z</time></trkpt><trkpt lat="45.5184767" lon="8.5291367"><ele>179.0</ele><time>2026-04-19T12:22:28.95Z</time></trkpt><trkpt lat="45.5185783" lon="8.529245"><ele>179.0</ele><time>2026-04-19T12:22:29.949Z</time></trkpt><trkpt lat="45.5186783" lon="8.5293433"><ele>179.0</ele><time>2026-04-19T12:22:30.949Z</time></trkpt><trkpt lat="45.5187717" lon="8.5294417"><ele>179.0</ele><time>2026-04-19T12:22:31.95Z</time></trkpt><trkpt lat="45.5188533" lon="8.529525"><ele>179.0</ele><time>2026-04-19T12:22:32.949Z</time></trkpt><trkpt lat="45.5189267" lon="8.5296033"><ele>179.0</ele><time>2026-04-19T12:22:33.95Z</time></trkpt><trkpt lat="45.5189917" lon="8.5296717"><ele>179.14285714285717</ele><time>2026-04-19T12:22:34.95Z</time></trkpt><trkpt lat="45.519045" lon="8.529725"><ele>179.28571428571428</ele><time>2026-04-19T12:22:35.949Z</time></trkpt><trkpt lat="45.5191033" lon="8.52978"><ele>179.42857142857144</ele><time>2026-04-19T12:22:37.95Z</time></trkpt><trkpt lat="45.519155" lon="8.5298567"><ele>179.57142857142858</ele><time>2026-04-19T12:22:44.95Z</time></trkpt><trkpt lat="45.519155" lon="8.5299683"><ele>179.71428571428572</ele><time>2026-04-19T12:22:46.95Z</time></trkpt><trkpt lat="45.51913" lon="8.5300517"><ele>179.85714285714286</ele><time>2026-04-19T12:22:47.95Z</time></trkpt><trkpt lat="45.519085" lon="8.5301517"><ele>180.0</ele><time>2026-04-19T12:22:48.949Z</time></trkpt><trkpt lat="45.5190333" lon="8.5302633"><ele>180.0</ele><time>2026-04-19T12:22:49.949Z</time></trkpt><trkpt lat="45.51898" lon="8.5303867"><ele>180.0</ele><time>2026-04-19T12:22:50.95Z</time></trkpt><trkpt lat="45.5189283" lon="8.530535"><ele>180.0</ele><time>2026-04-19T12:22:51.95Z</time></trkpt><trkpt lat="45.5188717" lon="8.5306767"><ele>180.0</ele><time>2026-04-19T12:22:52.95Z</time></trkpt><trkpt lat="45.5188083" lon="8.5308283"><ele>180.0</ele><time>2026-04-19T12:22:53.95Z</time></trkpt><trkpt lat="45.5187483" lon="8.5310033"><ele>180.0</ele><time>2026-04-19T12:22:54.95Z</time></trkpt><trkpt lat="45.5186817" lon="8.5311767"><ele>180.0</ele><time>2026-04-19T12:22:55.95Z</time></trkpt><trkpt lat="45.51861" lon="8.5313567"><ele>180.0</ele><time>2026-04-19T12:22:56.95Z</time></trkpt><trkpt lat="45.5185367" lon="8.5315417"><ele>180.0</ele><time>2026-04-19T12:22:57.949Z</time></trkpt><trkpt lat="45.51846" lon="8.531725"><ele>180.0</ele><time>2026-04-19T12:22:58.949Z</time></trkpt><trkpt lat="45.5183767" lon="8.5319183"><ele>180.0</ele><time>2026-04-19T12:22:59.95Z</time></trkpt><trkpt lat="45.518295" lon="8.5321083"><ele>180.0</ele><time>2026-04-19T12:23:00.949Z</time></trkpt><trkpt lat="45.5182133" lon="8.5322983"><ele>180.0</ele><time>2026-04-19T12:23:01.95Z</time></trkpt><trkpt lat="45.5181283" lon="8.53249"><ele>180.0</ele><time>2026-04-19T12:23:02.95Z</time></trkpt><trkpt lat="45.5180383" lon="8.5326817"><ele>180.0</ele><time>2026-04-19T12:23:03.95Z</time></trkpt><trkpt lat="45.5179517" lon="8.5328667"><ele>180.0</ele><time>2026-04-19T12:23:04.949Z</time></trkpt><trkpt lat="45.51786" lon="8.5330467"><ele>180.0</ele><time>2026-04-19T12:23:05.949Z</time></trkpt><trkpt lat="45.5177733" lon="8.5332133"><ele>179.75</ele><time>2026-04-19T12:23:06.95Z</time></trkpt><trkpt lat="45.5176867" lon="8.533385"><ele>179.5</ele><time>2026-04-19T12:23:07.95Z</time></trkpt><trkpt lat="45.5175967" lon="8.5335367"><ele>179.25</ele><time>2026-04-19T12:23:08.95Z</time></trkpt><trkpt lat="45.5175017" lon="8.5336833"><ele>179.0</ele><time>2026-04-19T12:23:09.949Z</time></trkpt><trkpt lat="45.5174067" lon="8.5338333"><ele>179.0</ele><time>2026-04-19T12:23:10.95Z</time></trkpt><trkpt lat="45.5173083" lon="8.5339683"><ele>179.0</ele><time>2026-04-19T12:23:11.95Z</time></trkpt><trkpt lat="45.5172133" lon="8.534105"><ele>179.0</ele><time>2026-04-19T12:23:12.95Z</time></trkpt><trkpt lat="45.51711" lon="8.53423"><ele>179.0</ele><time>2026-04-19T12:23:13.95Z</time></trkpt><trkpt lat="45.5170167" lon="8.5343633"><ele>178.75</ele><time>2026-04-19T12:23:14.95Z</time></trkpt><trkpt lat="45.516915" lon="8.5344883"><ele>178.5</ele><time>2026-04-19T12:23:15.949Z</time></trkpt><trkpt lat="45.5168067" lon="8.5346183"><ele>178.25</ele><time>2026-04-19T12:23:16.95Z</time></trkpt><trkpt lat="45.5167083" lon="8.534755"><ele>178.0</ele><time>2026-04-19T12:23:17.949Z</time></trkpt><trkpt lat="45.5166033" lon="8.53489"><ele>177.75</ele><time>2026-04-19T12:23:18.95Z</time></trkpt><trkpt lat="45.5165033" lon="8.5350233"><ele>177.5</ele><time>2026-04-19T12:23:19.95Z</time></trkpt><trkpt lat="45.5164" lon="8.535145"><ele>177.25</ele><time>2026-04-19T12:23:20.95Z</time></trkpt><trkpt lat="45.5162933" lon="8.5352867"><ele>177.0</ele><time>2026-04-19T12:23:21.949Z</time></trkpt><trkpt lat="45.5161883" lon="8.5354367"><ele>177.0</ele><time>2026-04-19T12:23:22.95Z</time></trkpt><trkpt lat="45.51609" lon="8.5355767"><ele>177.0</ele><time>2026-04-19T12:23:23.95Z</time></trkpt><trkpt lat="45.5159883" lon="8.535715"><ele>177.0</ele><time>2026-04-19T12:23:24.95Z</time></trkpt><trkpt lat="45.5158733" lon="8.5358633"><ele>177.0</ele><time>2026-04-19T12:23:25.95Z</time></trkpt><trkpt lat="45.5157567" lon="8.5360083"><ele>177.0</ele><time>2026-04-19T12:23:26.95Z</time></trkpt><trkpt lat="45.5156433" lon="8.5361567"><ele>177.0</ele><time>2026-04-19T12:23:27.949Z</time></trkpt><trkpt lat="45.5155367" lon="8.536305"><ele>177.0</ele><time>2026-04-19T12:23:28.95Z</time></trkpt><trkpt lat="45.5154317" lon="8.5364533"><ele>177.5</ele><time>2026-04-19T12:23:29.95Z</time></trkpt><trkpt lat="45.5153233" lon="8.5365883"><ele>178.0</ele><time>2026-04-19T12:23:30.95Z</time></trkpt><trkpt lat="45.51522" lon="8.53672"><ele>178.5</ele><time>2026-04-19T12:23:31.95Z</time></trkpt><trkpt lat="45.5151133" lon="8.536855"><ele>179.0</ele><time>2026-04-19T12:23:32.95Z</time></trkpt><trkpt lat="45.5150033" lon="8.536995"><ele>179.25</ele><time>2026-04-19T12:23:33.949Z</time></trkpt><trkpt lat="45.5148933" lon="8.537135"><ele>179.5</ele><time>2026-04-19T12:23:34.95Z</time></trkpt><trkpt lat="45.51479" lon="8.53727"><ele>179.75</ele><time>2026-04-19T12:23:35.95Z</time></trkpt><trkpt lat="45.5146767" lon="8.5373967"><ele>180.0</ele><time>2026-04-19T12:23:36.95Z</time></trkpt><trkpt lat="45.51457" lon="8.53753"><ele>179.5</ele><time>2026-04-19T12:23:37.949Z</time></trkpt><trkpt lat="45.5144567" lon="8.5376683"><ele>179.0</ele><time>2026-04-19T12:23:38.95Z</time></trkpt><trkpt lat="45.51435" lon="8.5378017"><ele>178.5</ele><time>2026-04-19T12:23:39.949Z</time></trkpt><trkpt lat="45.5142433" lon="8.537945"><ele>178.0</ele><time>2026-04-19T12:23:40.95Z</time></trkpt><trkpt lat="45.5141333" lon="8.5380817"><ele>178.0</ele><time>2026-04-19T12:23:41.949Z</time></trkpt><trkpt lat="45.5140267" lon="8.53823"><ele>178.0</ele><time>2026-04-19T12:23:42.95Z</time></trkpt><trkpt lat="45.5139217" lon="8.53837"><ele>178.0</ele><time>2026-04-19T12:23:43.949Z</time></trkpt><trkpt lat="45.5138183" lon="8.538515"><ele>178.0</ele><time>2026-04-19T12:23:44.949Z</time></trkpt><trkpt lat="45.5137133" lon="8.538665"><ele>178.0</ele><time>2026-04-19T12:23:45.949Z</time></trkpt><trkpt lat="45.5136033" lon="8.5388033"><ele>178.0</ele><time>2026-04-19T12:23:46.95Z</time></trkpt><trkpt lat="45.5134933" lon="8.53894"><ele>178.0</ele><time>2026-04-19T12:23:47.949Z</time></trkpt><trkpt lat="45.5133717" lon="8.5390783"><ele>178.0</ele><time>2026-04-19T12:23:48.95Z</time></trkpt><trkpt lat="45.5132617" lon="8.5392217"><ele>178.0</ele><time>2026-04-19T12:23:49.95Z</time></trkpt><trkpt lat="45.513145" lon="8.5393667"><ele>178.0</ele><time>2026-04-19T12:23:50.949Z</time></trkpt><trkpt lat="45.5130233" lon="8.5395067"><ele>178.0</ele><time>2026-04-19T12:23:51.95Z</time></trkpt><trkpt lat="45.5129083" lon="8.5396483"><ele>177.33333333333334</ele><time>2026-04-19T12:23:52.949Z</time></trkpt><trkpt lat="45.5127967" lon="8.5397867"><ele>176.66666666666666</ele><time>2026-04-19T12:23:53.949Z</time></trkpt><trkpt lat="45.5126783" lon="8.53993"><ele>176.0</ele><time>2026-04-19T12:23:54.95Z</time></trkpt><trkpt lat="45.5125617" lon="8.5400733"><ele>176.0</ele><time>2026-04-19T12:23:55.949Z</time></trkpt><trkpt lat="45.5124483" lon="8.5402233"><ele>176.0</ele><time>2026-04-19T12:23:56.95Z</time></trkpt><trkpt lat="45.51233" lon="8.5403783"><ele>176.0</ele><time>2026-04-19T12:23:57.949Z</time></trkpt><trkpt lat="45.512215" lon="8.5405367"><ele>176.0</ele><time>2026-04-19T12:23:58.949Z</time></trkpt><trkpt lat="45.512105" lon="8.5406817"><ele>176.0</ele><time>2026-04-19T12:23:59.949Z</time></trkpt><trkpt lat="45.5120083" lon="8.540825"><ele>176.0</ele><time>2026-04-19T12:24:00.949Z</time></trkpt><trkpt lat="45.511915" lon="8.5409617"><ele>176.0</ele><time>2026-04-19T12:24:01.949Z</time></trkpt><trkpt lat="45.5118283" lon="8.5410883"><ele>176.0</ele><time>2026-04-19T12:24:02.949Z</time></trkpt><trkpt lat="45.5117383" lon="8.5412017"><ele>176.0</ele><time>2026-04-19T12:24:03.95Z</time></trkpt><trkpt lat="45.511665" lon="8.5413017"><ele>176.0</ele><time>2026-04-19T12:24:04.95Z</time></trkpt><trkpt lat="45.5116183" lon="8.5414267"><ele>176.0</ele><time>2026-04-19T12:24:05.949Z</time></trkpt><trkpt lat="45.5116017" lon="8.5415683"><ele>176.0</ele><time>2026-04-19T12:24:06.949Z</time></trkpt><trkpt lat="45.51163" lon="8.5417117"><ele>176.0</ele><time>2026-04-19T12:24:07.949Z</time></trkpt><trkpt lat="45.5116817" lon="8.5418533"><ele>176.0</ele><time>2026-04-19T12:24:08.949Z</time></trkpt><trkpt lat="45.5117317" lon="8.54201"><ele>176.0</ele><time>2026-04-19T12:24:09.95Z</time></trkpt><trkpt lat="45.511785" lon="8.5421733"><ele>176.0</ele><time>2026-04-19T12:24:10.95Z</time></trkpt><trkpt lat="45.51183" lon="8.5423333"><ele>176.0</ele><time>2026-04-19T12:24:11.949Z</time></trkpt><trkpt lat="45.5118767" lon="8.54249"><ele>176.0</ele><time>2026-04-19T12:24:12.95Z</time></trkpt><trkpt lat="45.5119183" lon="8.5426467"><ele>176.0</ele><time>2026-04-19T12:24:13.95Z</time></trkpt><trkpt lat="45.5119633" lon="8.5427967"><ele>176.0</ele><time>2026-04-19T12:24:14.949Z</time></trkpt><trkpt lat="45.5120117" lon="8.542945"><ele>176.0</ele><time>2026-04-19T12:24:15.95Z</time></trkpt><trkpt lat="45.5120567" lon="8.5431033"><ele>176.0</ele><time>2026-04-19T12:24:16.95Z</time></trkpt><trkpt lat="45.5120967" lon="8.54327"><ele>176.0</ele><time>2026-04-19T12:24:17.95Z</time></trkpt><trkpt lat="45.5121433" lon="8.543425"><ele>176.0</ele><time>2026-04-19T12:24:18.949Z</time></trkpt><trkpt lat="45.512195" lon="8.5435917"><ele>175.75</ele><time>2026-04-19T12:24:19.95Z</time></trkpt><trkpt lat="45.5122467" lon="8.543745"><ele>175.5</ele><time>2026-04-19T12:24:20.949Z</time></trkpt><trkpt lat="45.5123033" lon="8.543905"><ele>175.25</ele><time>2026-04-19T12:24:21.949Z</time></trkpt><trkpt lat="45.5123917" lon="8.54406"><ele>175.0</ele><time>2026-04-19T12:24:22.949Z</time></trkpt><trkpt lat="45.5125" lon="8.5441867"><ele>175.0</ele><time>2026-04-19T12:24:23.949Z</time></trkpt><trkpt lat="45.5126117" lon="8.544275"><ele>175.0</ele><time>2026-04-19T12:24:24.95Z</time></trkpt><trkpt lat="45.5127283" lon="8.5443417"><ele>175.0</ele><time>2026-04-19T12:24:25.949Z</time></trkpt><trkpt lat="45.512855" lon="8.544355"><ele>175.0</ele><time>2026-04-19T12:24:26.95Z</time></trkpt><trkpt lat="45.5129917" lon="8.5443517"><ele>175.5</ele><time>2026-04-19T12:24:27.949Z</time></trkpt><trkpt lat="45.5131317" lon="8.54434"><ele>176.0</ele><time>2026-04-19T12:24:28.95Z</time></trkpt><trkpt lat="45.5132783" lon="8.5443283"><ele>176.5</ele><time>2026-04-19T12:24:29.949Z</time></trkpt><trkpt lat="45.513425" lon="8.5443117"><ele>177.0</ele><time>2026-04-19T12:24:30.95Z</time></trkpt><trkpt lat="45.5135833" lon="8.5442917"><ele>177.0</ele><time>2026-04-19T12:24:31.949Z</time></trkpt><trkpt lat="45.5137283" lon="8.5442833"><ele>177.0</ele><time>2026-04-19T12:24:32.95Z</time></trkpt><trkpt lat="45.5138733" lon="8.54427"><ele>177.0</ele><time>2026-04-19T12:24:33.95Z</time></trkpt><trkpt lat="45.5140183" lon="8.5442617"><ele>177.0</ele><time>2026-04-19T12:24:34.949Z</time></trkpt><trkpt lat="45.51416" lon="8.54426"><ele>177.0</ele><time>2026-04-19T12:24:35.95Z</time></trkpt><trkpt lat="45.5144717" lon="8.54424"><ele>177.0</ele><time>2026-04-19T12:24:37.949Z</time></trkpt><trkpt lat="45.514625" lon="8.54423"><ele>177.0</ele><time>2026-04-19T12:24:38.949Z</time></trkpt><trkpt lat="45.5147783" lon="8.5442167"><ele>177.0</ele><time>2026-04-19T12:24:39.948Z</time></trkpt><trkpt lat="45.5149333" lon="8.5442033"><ele>177.0</ele><time>2026-04-19T12:24:40.949Z</time></trkpt><trkpt lat="45.5150917" lon="8.5441933"><ele>177.0</ele><time>2026-04-19T12:24:41.948Z</time></trkpt><trkpt lat="45.5152433" lon="8.54418"><ele>177.0</ele><time>2026-04-19T12:24:42.948Z</time></trkpt><trkpt lat="45.5153917" lon="8.5441733"><ele>177.0</ele><time>2026-04-19T12:24:43.949Z</time></trkpt><trkpt lat="45.515545" lon="8.5441617"><ele>177.66666666666666</ele><time>2026-04-19T12:24:44.948Z</time></trkpt><trkpt lat="45.5156983" lon="8.5441517"><ele>178.33333333333331</ele><time>2026-04-19T12:24:45.949Z</time></trkpt><trkpt lat="45.515845" lon="8.544145"><ele>179.0</ele><time>2026-04-19T12:24:46.948Z</time></trkpt><trkpt lat="45.5159983" lon="8.5441217"><ele>179.0</ele><time>2026-04-19T12:24:47.948Z</time></trkpt><trkpt lat="45.5161517" lon="8.5441067"><ele>179.0</ele><time>2026-04-19T12:24:48.948Z</time></trkpt><trkpt lat="45.516305" lon="8.544105"><ele>179.0</ele><time>2026-04-19T12:24:49.948Z</time></trkpt><trkpt lat="45.5164583" lon="8.5440983"><ele>179.5</ele><time>2026-04-19T12:24:50.949Z</time></trkpt><trkpt lat="45.5166083" lon="8.54408"><ele>180.0</ele><time>2026-04-19T12:24:51.948Z</time></trkpt><trkpt lat="45.516765" lon="8.5440683"><ele>180.5</ele><time>2026-04-19T12:24:52.949Z</time></trkpt><trkpt lat="45.5168967" lon="8.5440517"><ele>181.0</ele><time>2026-04-19T12:24:53.949Z</time></trkpt><trkpt lat="45.5170217" lon="8.5440433"><ele>180.25</ele><time>2026-04-19T12:24:54.948Z</time></trkpt><trkpt lat="45.51715" lon="8.54404"><ele>179.5</ele><time>2026-04-19T12:24:55.949Z</time></trkpt><trkpt lat="45.5172783" lon="8.5440267"><ele>178.75</ele><time>2026-04-19T12:24:56.948Z</time></trkpt><trkpt lat="45.5174033" lon="8.5440167"><ele>178.0</ele><time>2026-04-19T12:24:57.949Z</time></trkpt><trkpt lat="45.5175283" lon="8.5439967"><ele>178.0</ele><time>2026-04-19T12:24:58.948Z</time></trkpt><trkpt lat="45.5176583" lon="8.5439833"><ele>178.0</ele><time>2026-04-19T12:24:59.949Z</time></trkpt><trkpt lat="45.5177883" lon="8.543975"><ele>178.0</ele><time>2026-04-19T12:25:00.948Z</time></trkpt><trkpt lat="45.5179167" lon="8.5439667"><ele>178.0</ele><time>2026-04-19T12:25:01.948Z</time></trkpt><trkpt lat="45.51805" lon="8.5439583"><ele>179.0</ele><time>2026-04-19T12:25:02.948Z</time></trkpt><trkpt lat="45.518185" lon="8.54397"><ele>180.0</ele><time>2026-04-19T12:25:03.948Z</time></trkpt><trkpt lat="45.5183217" lon="8.5439833"><ele>181.0</ele><time>2026-04-19T12:25:04.948Z</time></trkpt><trkpt lat="45.5184467" lon="8.5440233"><ele>182.0</ele><time>2026-04-19T12:25:05.949Z</time></trkpt><trkpt lat="45.5185667" lon="8.54405"><ele>182.0</ele><time>2026-04-19T12:25:06.949Z</time></trkpt><trkpt lat="45.5187117" lon="8.5440517"><ele>182.0</ele><time>2026-04-19T12:25:07.949Z</time></trkpt><trkpt lat="45.5188467" lon="8.5440433"><ele>182.0</ele><time>2026-04-19T12:25:08.949Z</time></trkpt><trkpt lat="45.5189833" lon="8.5440483"><ele>182.0</ele><time>2026-04-19T12:25:09.948Z</time></trkpt><trkpt lat="45.5191183" lon="8.5440583"><ele>181.75</ele><time>2026-04-19T12:25:10.949Z</time></trkpt><trkpt lat="45.51925" lon="8.54407"><ele>181.5</ele><time>2026-04-19T12:25:11.948Z</time></trkpt><trkpt lat="45.5193733" lon="8.54408"><ele>181.25</ele><time>2026-04-19T12:25:12.949Z</time></trkpt><trkpt lat="45.51949" lon="8.5440967"><ele>181.0</ele><time>2026-04-19T12:25:13.948Z</time></trkpt><trkpt lat="45.5196067" lon="8.5441033"><ele>180.75</ele><time>2026-04-19T12:25:14.949Z</time></trkpt><trkpt lat="45.51973" lon="8.5441067"><ele>180.5</ele><time>2026-04-19T12:25:15.948Z</time></trkpt><trkpt lat="45.5198483" lon="8.5441067"><ele>180.25</ele><time>2026-04-19T12:25:16.948Z</time></trkpt><trkpt lat="45.5199783" lon="8.5441133"><ele>180.0</ele><time>2026-04-19T12:25:17.948Z</time></trkpt><trkpt lat="45.5200983" lon="8.5441133"><ele>180.0</ele><time>2026-04-19T12:25:18.949Z</time></trkpt><trkpt lat="45.5202233" lon="8.5441217"><ele>180.0</ele><time>2026-04-19T12:25:19.948Z</time></trkpt><trkpt lat="45.5203417" lon="8.5441317"><ele>180.0</ele><time>2026-04-19T12:25:20.949Z</time></trkpt><trkpt lat="45.5204533" lon="8.5441283"><ele>180.0</ele><time>2026-04-19T12:25:21.949Z</time></trkpt><trkpt lat="45.520555" lon="8.5441283"><ele>180.5</ele><time>2026-04-19T12:25:22.949Z</time></trkpt><trkpt lat="45.520635" lon="8.54413"><ele>181.0</ele><time>2026-04-19T12:25:23.949Z</time></trkpt><trkpt lat="45.520735" lon="8.5441217"><ele>181.5</ele><time>2026-04-19T12:25:25.948Z</time></trkpt><trkpt lat="45.5208017" lon="8.5441083"><ele>182.0</ele><time>2026-04-19T12:25:28.949Z</time></trkpt><trkpt lat="45.520745" lon="8.5440533"><ele>182.5</ele><time>2026-04-19T12:25:32.948Z</time></trkpt><trkpt lat="45.5206267" lon="8.5440783"><ele>183.0</ele><time>2026-04-19T12:25:34.949Z</time></trkpt><trkpt lat="45.5205367" lon="8.5440717"><ele>183.0</ele><time>2026-04-19T12:25:35.948Z</time></trkpt><trkpt lat="45.52043" lon="8.5440717"><ele>183.0</ele><time>2026-04-19T12:25:36.948Z</time></trkpt><trkpt lat="45.5203" lon="8.544075"><ele>183.0</ele><time>2026-04-19T12:25:37.949Z</time></trkpt><trkpt lat="45.5201517" lon="8.5440733"><ele>183.0</ele><time>2026-04-19T12:25:38.948Z</time></trkpt><trkpt lat="45.5200167" lon="8.544065"><ele>182.5</ele><time>2026-04-19T12:25:39.948Z</time></trkpt><trkpt lat="45.5198817" lon="8.5440533"><ele>182.0</ele><time>2026-04-19T12:25:40.949Z</time></trkpt><trkpt lat="45.5197533" lon="8.54405"><ele>181.5</ele><time>2026-04-19T12:25:41.949Z</time></trkpt><trkpt lat="45.51963" lon="8.5440533"><ele>181.0</ele><time>2026-04-19T12:25:42.948Z</time></trkpt><trkpt lat="45.51951" lon="8.54405"><ele>181.0</ele><time>2026-04-19T12:25:43.949Z</time></trkpt><trkpt lat="45.519385" lon="8.5440417"><ele>181.0</ele><time>2026-04-19T12:25:44.948Z</time></trkpt><trkpt lat="45.5192767" lon="8.544035"><ele>181.0</ele><time>2026-04-19T12:25:45.949Z</time></trkpt><trkpt lat="45.519165" lon="8.5440367"><ele>181.0</ele><time>2026-04-19T12:25:46.948Z</time></trkpt><trkpt lat="45.5190583" lon="8.54403"><ele>181.0</ele><time>2026-04-19T12:25:47.949Z</time></trkpt><trkpt lat="45.5189583" lon="8.5440267"><ele>181.0</ele><time>2026-04-19T12:25:48.949Z</time></trkpt><trkpt lat="45.5188667" lon="8.5440133"><ele>181.0</ele><time>2026-04-19T12:25:49.948Z</time></trkpt><trkpt lat="45.5187783" lon="8.544015"><ele>181.0</ele><time>2026-04-19T12:25:50.948Z</time></trkpt><trkpt lat="45.5187" lon="8.5440133"><ele>181.0</ele><time>2026-04-19T12:25:51.948Z</time></trkpt><trkpt lat="45.518615" lon="8.54406"><ele>181.0</ele><time>2026-04-19T12:25:53.949Z</time></trkpt><trkpt lat="45.5186" lon="8.5441833"><ele>181.0</ele><time>2026-04-19T12:25:55.949Z</time></trkpt><trkpt lat="45.5186533" lon="8.544275"><ele>181.0</ele><time>2026-04-19T12:25:56.949Z</time></trkpt><trkpt lat="45.518695" lon="8.54439"><ele>181.0</ele><time>2026-04-19T12:25:57.949Z</time></trkpt><trkpt lat="45.51875" lon="8.5445133"><ele>181.0</ele><time>2026-04-19T12:25:58.949Z</time></trkpt><trkpt lat="45.5188017" lon="8.5446633"><ele>181.25</ele><time>2026-04-19T12:25:59.949Z</time></trkpt><trkpt lat="45.5188517" lon="8.54482"><ele>181.5</ele><time>2026-04-19T12:26:00.948Z</time></trkpt><trkpt lat="45.5189033" lon="8.5449717"><ele>181.75</ele><time>2026-04-19T12:26:01.949Z</time></trkpt><trkpt lat="45.5189367" lon="8.545145"><ele>182.0</ele><time>2026-04-19T12:26:02.948Z</time></trkpt><trkpt lat="45.5190017" lon="8.5452833"><ele>181.8</ele><time>2026-04-19T12:26:03.948Z</time></trkpt><trkpt lat="45.5190633" lon="8.5454017"><ele>181.6</ele><time>2026-04-19T12:26:04.949Z</time></trkpt><trkpt lat="45.5191383" lon="8.545525"><ele>181.4</ele><time>2026-04-19T12:26:05.948Z</time></trkpt><trkpt lat="45.5192233" lon="8.54564"><ele>181.20000000000002</ele><time>2026-04-19T12:26:06.948Z</time></trkpt><trkpt lat="45.5192933" lon="8.5457667"><ele>181.0</ele><time>2026-04-19T12:26:07.949Z</time></trkpt><trkpt lat="45.51936" lon="8.5458967"><ele>181.0</ele><time>2026-04-19T12:26:08.949Z</time></trkpt><trkpt lat="45.5194217" lon="8.54603"><ele>181.0</ele><time>2026-04-19T12:26:09.949Z</time></trkpt><trkpt lat="45.519485" lon="8.5461567"><ele>181.0</ele><time>2026-04-19T12:26:10.948Z</time></trkpt><trkpt lat="45.5195467" lon="8.5462867"><ele>181.0</ele><time>2026-04-19T12:26:11.949Z</time></trkpt><trkpt lat="45.5196117" lon="8.546405"><ele>181.0</ele><time>2026-04-19T12:26:12.949Z</time></trkpt><trkpt lat="45.519675" lon="8.5465333"><ele>181.0</ele><time>2026-04-19T12:26:13.949Z</time></trkpt><trkpt lat="45.51972" lon="8.54666"><ele>181.0</ele><time>2026-04-19T12:26:14.948Z</time></trkpt><trkpt lat="45.5197667" lon="8.5467733"><ele>181.0</ele><time>2026-04-19T12:26:15.948Z</time></trkpt><trkpt lat="45.519805" lon="8.5468783"><ele>181.0</ele><time>2026-04-19T12:26:16.949Z</time></trkpt><trkpt lat="45.519845" lon="8.5469667"><ele>181.0</ele><time>2026-04-19T12:26:17.949Z</time></trkpt><trkpt lat="45.5198983" lon="8.5470517"><ele>181.0</ele><time>2026-04-19T12:26:18.949Z</time></trkpt><trkpt lat="45.51997" lon="8.5471183"><ele>180.60000000000002</ele><time>2026-04-19T12:26:19.949Z</time></trkpt><trkpt lat="45.5200483" lon="8.5471783"><ele>180.2</ele><time>2026-04-19T12:26:20.949Z</time></trkpt><trkpt lat="45.52013" lon="8.5472167"><ele>179.8</ele><time>2026-04-19T12:26:21.949Z</time></trkpt><trkpt lat="45.5202267" lon="8.5472267"><ele>179.39999999999998</ele><time>2026-04-19T12:26:22.948Z</time></trkpt><trkpt lat="45.52033" lon="8.5472317"><ele>179.0</ele><time>2026-04-19T12:26:23.949Z</time></trkpt><trkpt lat="45.5204283" lon="8.5472533"><ele>179.0</ele><time>2026-04-19T12:26:24.949Z</time></trkpt><trkpt lat="45.52053" lon="8.54726"><ele>179.0</ele><time>2026-04-19T12:26:25.949Z</time></trkpt><trkpt lat="45.5206417" lon="8.5472617"><ele>179.0</ele><time>2026-04-19T12:26:26.949Z</time></trkpt><trkpt lat="45.5207483" lon="8.5472667"><ele>179.0</ele><time>2026-04-19T12:26:27.949Z</time></trkpt><trkpt lat="45.5208433" lon="8.547265"><ele>179.0</ele><time>2026-04-19T12:26:28.948Z</time></trkpt><trkpt lat="45.520935" lon="8.5472683"><ele>179.0</ele><time>2026-04-19T12:26:29.949Z</time></trkpt><trkpt lat="45.5210183" lon="8.5472783"><ele>179.0</ele><time>2026-04-19T12:26:30.948Z</time></trkpt><trkpt lat="45.5210917" lon="8.5472867"><ele>179.0</ele><time>2026-04-19T12:26:31.948Z</time></trkpt><trkpt lat="45.52116" lon="8.547285"><ele>179.0</ele><time>2026-04-19T12:26:32.948Z</time></trkpt><trkpt lat="45.5212283" lon="8.5472717"><ele>179.0</ele><time>2026-04-19T12:26:33.949Z</time></trkpt><trkpt lat="45.5212917" lon="8.547255"><ele>179.0</ele><time>2026-04-19T12:26:34.949Z</time></trkpt><trkpt lat="45.52141" lon="8.5472367"><ele>179.16666666666666</ele><time>2026-04-19T12:26:36.948Z</time></trkpt><trkpt lat="45.5214733" lon="8.5472383"><ele>179.33333333333331</ele><time>2026-04-19T12:26:37.948Z</time></trkpt><trkpt lat="45.5215817" lon="8.5472583"><ele>179.5</ele><time>2026-04-19T12:26:39.949Z</time></trkpt><trkpt lat="45.52166" lon="8.5473333"><ele>179.66666666666666</ele><time>2026-04-19T12:26:41.948Z</time></trkpt><trkpt lat="45.521715" lon="8.5473783"><ele>179.83333333333334</ele><time>2026-04-19T12:26:42.948Z</time></trkpt><trkpt lat="45.5218183" lon="8.5474283"><ele>180.0</ele><time>2026-04-19T12:26:44.948Z</time></trkpt><trkpt lat="45.52192" lon="8.54736"><ele>180.0</ele><time>2026-04-19T12:26:46.949Z</time></trkpt><trkpt lat="45.52197" lon="8.5473017"><ele>180.0</ele><time>2026-04-19T12:26:47.947Z</time></trkpt><trkpt lat="45.52203" lon="8.54723"><ele>180.0</ele><time>2026-04-19T12:26:48.949Z</time></trkpt><trkpt lat="45.522105" lon="8.5471583"><ele>180.0</ele><time>2026-04-19T12:26:49.949Z</time></trkpt><trkpt lat="45.52219" lon="8.5470933"><ele>180.0</ele><time>2026-04-19T12:26:50.949Z</time></trkpt><trkpt lat="45.5222767" lon="8.5470417"><ele>180.0</ele><time>2026-04-19T12:26:51.949Z</time></trkpt><trkpt lat="45.5223683" lon="8.5469617"><ele>180.25</ele><time>2026-04-19T12:26:52.949Z</time></trkpt><trkpt lat="45.5224633" lon="8.5468733"><ele>180.5</ele><time>2026-04-19T12:26:53.949Z</time></trkpt><trkpt lat="45.5225633" lon="8.5467717"><ele>180.75</ele><time>2026-04-19T12:26:54.949Z</time></trkpt><trkpt lat="45.52267" lon="8.5466917"><ele>181.0</ele><time>2026-04-19T12:26:55.949Z</time></trkpt><trkpt lat="45.5227733" lon="8.5466067"><ele>181.0</ele><time>2026-04-19T12:26:56.949Z</time></trkpt><trkpt lat="45.522875" lon="8.54652"><ele>181.0</ele><time>2026-04-19T12:26:57.949Z</time></trkpt><trkpt lat="45.5229717" lon="8.5464467"><ele>181.0</ele><time>2026-04-19T12:26:58.948Z</time></trkpt><trkpt lat="45.52306" lon="8.5463867"><ele>181.0</ele><time>2026-04-19T12:26:59.949Z</time></trkpt><trkpt lat="45.5231533" lon="8.5463333"><ele>181.0</ele><time>2026-04-19T12:27:00.949Z</time></trkpt><trkpt lat="45.5232383" lon="8.5462867"><ele>181.5</ele><time>2026-04-19T12:27:01.949Z</time></trkpt><trkpt lat="45.52333" lon="8.5462533"><ele>182.0</ele><time>2026-04-19T12:27:02.949Z</time></trkpt><trkpt lat="45.5234117" lon="8.5462283"><ele>182.5</ele><time>2026-04-19T12:27:03.949Z</time></trkpt><trkpt lat="45.5234867" lon="8.5462117"><ele>183.0</ele><time>2026-04-19T12:27:04.949Z</time></trkpt><trkpt lat="45.523555" lon="8.5461983"><ele>183.5</ele><time>2026-04-19T12:27:05.949Z</time></trkpt><trkpt lat="45.5236717" lon="8.5462117"><ele>184.0</ele><time>2026-04-19T12:27:07.949Z</time></trkpt><trkpt lat="45.5237383" lon="8.5463533"><ele>184.0</ele><time>2026-04-19T12:27:09.948Z</time></trkpt><trkpt lat="45.52376" lon="8.5464783"><ele>184.0</ele><time>2026-04-19T12:27:10.949Z</time></trkpt><trkpt lat="45.5237867" lon="8.5466217"><ele>184.0</ele><time>2026-04-19T12:27:11.949Z</time></trkpt><trkpt lat="45.5238267" lon="8.5467817"><ele>184.0</ele><time>2026-04-19T12:27:12.949Z</time></trkpt><trkpt lat="45.5238633" lon="8.546945"><ele>184.0</ele><time>2026-04-19T12:27:13.949Z</time></trkpt><trkpt lat="45.5238983" lon="8.547115"><ele>184.0</ele><time>2026-04-19T12:27:14.949Z</time></trkpt><trkpt lat="45.52391" lon="8.5472633"><ele>184.0</ele><time>2026-04-19T12:27:15.949Z</time></trkpt><trkpt lat="45.5239283" lon="8.5473967"><ele>184.0</ele><time>2026-04-19T12:27:16.949Z</time></trkpt><trkpt lat="45.5239467" lon="8.5475267"><ele>184.0</ele><time>2026-04-19T12:27:17.949Z</time></trkpt><trkpt lat="45.5239733" lon="8.5476617"><ele>184.0</ele><time>2026-04-19T12:27:18.948Z</time></trkpt><trkpt lat="45.52402" lon="8.54781"><ele>183.79999999999998</ele><time>2026-04-19T12:27:19.948Z</time></trkpt><trkpt lat="45.5240567" lon="8.54794"><ele>183.6</ele><time>2026-04-19T12:27:20.948Z</time></trkpt><trkpt lat="45.5240783" lon="8.5480883"><ele>183.4</ele><time>2026-04-19T12:27:21.949Z</time></trkpt><trkpt lat="45.524085" lon="8.548235"><ele>183.2</ele><time>2026-04-19T12:27:22.949Z</time></trkpt><trkpt lat="45.5240883" lon="8.548395"><ele>183.0</ele><time>2026-04-19T12:27:23.949Z</time></trkpt><trkpt lat="45.5240983" lon="8.54854"><ele>183.0</ele><time>2026-04-19T12:27:24.949Z</time></trkpt><trkpt lat="45.5240883" lon="8.54868"><ele>183.0</ele><time>2026-04-19T12:27:25.948Z</time></trkpt><trkpt lat="45.5240583" lon="8.5488167"><ele>183.0</ele><time>2026-04-19T12:27:26.949Z</time></trkpt><trkpt lat="45.5240367" lon="8.5489517"><ele>183.0</ele><time>2026-04-19T12:27:27.949Z</time></trkpt><trkpt lat="45.5240317" lon="8.5491"><ele>183.0</ele><time>2026-04-19T12:27:28.948Z</time></trkpt><trkpt lat="45.524025" lon="8.54925"><ele>183.0</ele><time>2026-04-19T12:27:29.948Z</time></trkpt><trkpt lat="45.52399" lon="8.5493967"><ele>183.0</ele><time>2026-04-19T12:27:30.949Z</time></trkpt><trkpt lat="45.5239483" lon="8.5495583"><ele>183.0</ele><time>2026-04-19T12:27:31.949Z</time></trkpt><trkpt lat="45.52392" lon="8.549725"><ele>183.0</ele><time>2026-04-19T12:27:32.948Z</time></trkpt><trkpt lat="45.5238933" lon="8.5498883"><ele>183.0</ele><time>2026-04-19T12:27:33.948Z</time></trkpt><trkpt lat="45.5238767" lon="8.5500433"><ele>183.0</ele><time>2026-04-19T12:27:34.948Z</time></trkpt><trkpt lat="45.5238517" lon="8.5502133"><ele>183.0</ele><time>2026-04-19T12:27:35.949Z</time></trkpt><trkpt lat="45.52383" lon="8.5503783"><ele>183.0</ele><time>2026-04-19T12:27:36.949Z</time></trkpt><trkpt lat="45.523805" lon="8.5505517"><ele>183.0</ele><time>2026-04-19T12:27:37.948Z</time></trkpt><trkpt lat="45.5237783" lon="8.55072"><ele>183.0</ele><time>2026-04-19T12:27:38.949Z</time></trkpt><trkpt lat="45.52375" lon="8.550905"><ele>183.0</ele><time>2026-04-19T12:27:39.948Z</time></trkpt><trkpt lat="45.523725" lon="8.551085"><ele>183.0</ele><time>2026-04-19T12:27:40.949Z</time></trkpt><trkpt lat="45.5236983" lon="8.5512617"><ele>182.5</ele><time>2026-04-19T12:27:41.948Z</time></trkpt><trkpt lat="45.5236667" lon="8.5514367"><ele>182.0</ele><time>2026-04-19T12:27:42.949Z</time></trkpt><trkpt lat="45.5236317" lon="8.5516217"><ele>181.5</ele><time>2026-04-19T12:27:43.948Z</time></trkpt><trkpt lat="45.523595" lon="8.5518"><ele>181.0</ele><time>2026-04-19T12:27:44.949Z</time></trkpt><trkpt lat="45.5235633" lon="8.5519767"><ele>181.20000000000002</ele><time>2026-04-19T12:27:45.949Z</time></trkpt><trkpt lat="45.5235433" lon="8.552145"><ele>181.4</ele><time>2026-04-19T12:27:46.949Z</time></trkpt><trkpt lat="45.5235117" lon="8.5522933"><ele>181.6</ele><time>2026-04-19T12:27:47.948Z</time></trkpt><trkpt lat="45.5234933" lon="8.5524333"><ele>181.8</ele><time>2026-04-19T12:27:48.949Z</time></trkpt><trkpt lat="45.5234967" lon="8.5525617"><ele>182.0</ele><time>2026-04-19T12:27:49.949Z</time></trkpt><trkpt lat="45.52353" lon="8.5526833"><ele>182.0</ele><time>2026-04-19T12:27:50.948Z</time></trkpt><trkpt lat="45.5235983" lon="8.55279"><ele>182.0</ele><time>2026-04-19T12:27:51.949Z</time></trkpt><trkpt lat="45.5236783" lon="8.5528817"><ele>182.0</ele><time>2026-04-19T12:27:52.948Z</time></trkpt><trkpt lat="45.5237567" lon="8.55297"><ele>182.0</ele><time>2026-04-19T12:27:53.949Z</time></trkpt><trkpt lat="45.5237967" lon="8.5530733"><ele>182.0</ele><time>2026-04-19T12:27:54.949Z</time></trkpt><trkpt lat="45.5238083" lon="8.553185"><ele>182.0</ele><time>2026-04-19T12:27:55.949Z</time></trkpt><trkpt lat="45.523785" lon="8.55332"><ele>182.0</ele><time>2026-04-19T12:27:56.949Z</time></trkpt><trkpt lat="45.5237383" lon="8.553485"><ele>182.0</ele><time>2026-04-19T12:27:57.948Z</time></trkpt><trkpt lat="45.5236983" lon="8.553655"><ele>182.0</ele><time>2026-04-19T12:27:58.949Z</time></trkpt><trkpt lat="45.523655" lon="8.5538317"><ele>181.75</ele><time>2026-04-19T12:27:59.949Z</time></trkpt><trkpt lat="45.5236117" lon="8.55401"><ele>181.5</ele><time>2026-04-19T12:28:00.949Z</time></trkpt><trkpt lat="45.52357" lon="8.5542"><ele>181.25</ele><time>2026-04-19T12:28:01.948Z</time></trkpt><trkpt lat="45.5235217" lon="8.5543783"><ele>181.0</ele><time>2026-04-19T12:28:02.949Z</time></trkpt><trkpt lat="45.523485" lon="8.5545583"><ele>181.0</ele><time>2026-04-19T12:28:03.948Z</time></trkpt><trkpt lat="45.523445" lon="8.5547333"><ele>181.0</ele><time>2026-04-19T12:28:04.949Z</time></trkpt><trkpt lat="45.5234" lon="8.5548883"><ele>181.0</ele><time>2026-04-19T12:28:05.948Z</time></trkpt><trkpt lat="45.5233733" lon="8.5550533"><ele>181.0</ele><time>2026-04-19T12:28:06.948Z</time></trkpt><trkpt lat="45.5233617" lon="8.5552367"><ele>181.0</ele><time>2026-04-19T12:28:07.949Z</time></trkpt><trkpt lat="45.5233633" lon="8.5554167"><ele>181.0</ele><time>2026-04-19T12:28:08.949Z</time></trkpt><trkpt lat="45.52337" lon="8.5555967"><ele>181.0</ele><time>2026-04-19T12:28:09.949Z</time></trkpt><trkpt lat="45.5233767" lon="8.555765"><ele>181.0</ele><time>2026-04-19T12:28:10.949Z</time></trkpt><trkpt lat="45.5233783" lon="8.5559183"><ele>181.0</ele><time>2026-04-19T12:28:11.948Z</time></trkpt><trkpt lat="45.52338" lon="8.5560567"><ele>181.0</ele><time>2026-04-19T12:28:12.949Z</time></trkpt><trkpt lat="45.523375" lon="8.55619"><ele>181.0</ele><time>2026-04-19T12:28:13.948Z</time></trkpt><trkpt lat="45.5233783" lon="8.5563117"><ele>181.0</ele><time>2026-04-19T12:28:14.948Z</time></trkpt><trkpt lat="45.5233783" lon="8.5564117"><ele>181.0</ele><time>2026-04-19T12:28:15.948Z</time></trkpt><trkpt lat="45.5234233" lon="8.5565617"><ele>181.0</ele><time>2026-04-19T12:28:17.948Z</time></trkpt><trkpt lat="45.5235083" lon="8.5566133"><ele>181.0</ele><time>2026-04-19T12:28:19.949Z</time></trkpt><trkpt lat="45.5235733" lon="8.5566283"><ele>181.0</ele><time>2026-04-19T12:28:20.949Z</time></trkpt><trkpt lat="45.52365" lon="8.55665"><ele>181.0</ele><time>2026-04-19T12:28:21.949Z</time></trkpt><trkpt lat="45.5237317" lon="8.5566933"><ele>181.0</ele><time>2026-04-19T12:28:22.947Z</time></trkpt><trkpt lat="45.523835" lon="8.55675"><ele>181.0</ele><time>2026-04-19T12:28:23.948Z</time></trkpt><trkpt lat="45.5239517" lon="8.5568217"><ele>181.0</ele><time>2026-04-19T12:28:24.948Z</time></trkpt><trkpt lat="45.5240783" lon="8.55689"><ele>181.0</ele><time>2026-04-19T12:28:25.948Z</time></trkpt><trkpt lat="45.5242067" lon="8.556965"><ele>181.0</ele><time>2026-04-19T12:28:26.948Z</time></trkpt><trkpt lat="45.5243383" lon="8.5570467"><ele>181.0</ele><time>2026-04-19T12:28:27.948Z</time></trkpt><trkpt lat="45.5244783" lon="8.5571217"><ele>181.5</ele><time>2026-04-19T12:28:28.948Z</time></trkpt><trkpt lat="45.5246117" lon="8.5571967"><ele>182.0</ele><time>2026-04-19T12:28:29.948Z</time></trkpt><trkpt lat="45.52474" lon="8.5572767"><ele>182.5</ele><time>2026-04-19T12:28:30.948Z</time></trkpt><trkpt lat="45.52487" lon="8.5573483"><ele>183.0</ele><time>2026-04-19T12:28:31.948Z</time></trkpt><trkpt lat="45.5249933" lon="8.5574283"><ele>183.0</ele><time>2026-04-19T12:28:32.947Z</time></trkpt><trkpt lat="45.5251217" lon="8.5575033"><ele>183.0</ele><time>2026-04-19T12:28:33.948Z</time></trkpt><trkpt lat="45.5252467" lon="8.5575683"><ele>183.0</ele><time>2026-04-19T12:28:34.948Z</time></trkpt><trkpt lat="45.525355" lon="8.55764"><ele>183.0</ele><time>2026-04-19T12:28:35.948Z</time></trkpt><trkpt lat="45.52546" lon="8.5577033"><ele>183.4</ele><time>2026-04-19T12:28:36.947Z</time></trkpt><trkpt lat="45.52556" lon="8.5577667"><ele>183.8</ele><time>2026-04-19T12:28:37.947Z</time></trkpt><trkpt lat="45.5256533" lon="8.5578133"><ele>184.2</ele><time>2026-04-19T12:28:38.947Z</time></trkpt><trkpt lat="45.5257467" lon="8.5578633"><ele>184.6</ele><time>2026-04-19T12:28:39.948Z</time></trkpt><trkpt lat="45.525835" lon="8.5579067"><ele>185.0</ele><time>2026-04-19T12:28:40.948Z</time></trkpt><trkpt lat="45.525925" lon="8.55793"><ele>185.0</ele><time>2026-04-19T12:28:41.948Z</time></trkpt><trkpt lat="45.5260083" lon="8.5579583"><ele>185.0</ele><time>2026-04-19T12:28:42.947Z</time></trkpt><trkpt lat="45.5260917" lon="8.557985"><ele>185.0</ele><time>2026-04-19T12:28:43.948Z</time></trkpt><trkpt lat="45.5261717" lon="8.5580233"><ele>185.0</ele><time>2026-04-19T12:28:44.947Z</time></trkpt><trkpt lat="45.5262517" lon="8.5580533"><ele>185.0</ele><time>2026-04-19T12:28:45.948Z</time></trkpt><trkpt lat="45.526335" lon="8.5580983"><ele>185.0</ele><time>2026-04-19T12:28:46.947Z</time></trkpt><trkpt lat="45.526415" lon="8.5581233"><ele>185.6</ele><time>2026-04-19T12:28:47.948Z</time></trkpt><trkpt lat="45.5265117" lon="8.5581567"><ele>186.2</ele><time>2026-04-19T12:28:48.948Z</time></trkpt><trkpt lat="45.526605" lon="8.5581783"><ele>186.8</ele><time>2026-04-19T12:28:49.947Z</time></trkpt><trkpt lat="45.52671" lon="8.5581983"><ele>187.4</ele><time>2026-04-19T12:28:50.948Z</time></trkpt><trkpt lat="45.5268067" lon="8.5582283"><ele>188.0</ele><time>2026-04-19T12:28:51.948Z</time></trkpt><trkpt lat="45.526885" lon="8.5582533"><ele>188.0</ele><time>2026-04-19T12:28:52.948Z</time></trkpt><trkpt lat="45.5269817" lon="8.5582917"><ele>188.0</ele><time>2026-04-19T12:28:54.948Z</time></trkpt><trkpt lat="45.5270567" lon="8.5583683"><ele>188.0</ele><time>2026-04-19T12:28:56.948Z</time></trkpt><trkpt lat="45.52707" lon="8.5584583"><ele>188.0</ele><time>2026-04-19T12:28:58.948Z</time></trkpt><trkpt lat="45.5269583" lon="8.5585483"><ele>188.0</ele><time>2026-04-19T12:29:00.947Z</time></trkpt><trkpt lat="45.5268767" lon="8.558595"><ele>188.0</ele><time>2026-04-19T12:29:01.948Z</time></trkpt><trkpt lat="45.5267783" lon="8.558665"><ele>188.0</ele><time>2026-04-19T12:29:02.947Z</time></trkpt><trkpt lat="45.5266667" lon="8.5587333"><ele>188.0</ele><time>2026-04-19T12:29:03.947Z</time></trkpt><trkpt lat="45.5265633" lon="8.5588167"><ele>188.0</ele><time>2026-04-19T12:29:04.947Z</time></trkpt><trkpt lat="45.5264783" lon="8.55894"><ele>187.75</ele><time>2026-04-19T12:29:05.948Z</time></trkpt><trkpt lat="45.5264267" lon="8.5591033"><ele>187.5</ele><time>2026-04-19T12:29:06.948Z</time></trkpt><trkpt lat="45.5263783" lon="8.5592817"><ele>187.25</ele><time>2026-04-19T12:29:07.948Z</time></trkpt><trkpt lat="45.52635" lon="8.5594417"><ele>187.0</ele><time>2026-04-19T12:29:08.947Z</time></trkpt><trkpt lat="45.5263317" lon="8.559585"><ele>186.8</ele><time>2026-04-19T12:29:09.948Z</time></trkpt><trkpt lat="45.5263267" lon="8.5597233"><ele>186.6</ele><time>2026-04-19T12:29:10.947Z</time></trkpt><trkpt lat="45.5263533" lon="8.55987"><ele>186.4</ele><time>2026-04-19T12:29:11.948Z</time></trkpt><trkpt lat="45.5263917" lon="8.560025"><ele>186.20000000000002</ele><time>2026-04-19T12:29:12.948Z</time></trkpt><trkpt lat="45.526435" lon="8.5601867"><ele>186.0</ele><time>2026-04-19T12:29:13.947Z</time></trkpt><trkpt lat="45.5264717" lon="8.560335"><ele>185.5</ele><time>2026-04-19T12:29:14.947Z</time></trkpt><trkpt lat="45.5265117" lon="8.560475"><ele>185.0</ele><time>2026-04-19T12:29:15.948Z</time></trkpt><trkpt lat="45.5265867" lon="8.5606033"><ele>184.5</ele><time>2026-04-19T12:29:16.948Z</time></trkpt><trkpt lat="45.5266717" lon="8.5607283"><ele>184.0</ele><time>2026-04-19T12:29:17.947Z</time></trkpt><trkpt lat="45.526755" lon="8.5608483"><ele>184.0</ele><time>2026-04-19T12:29:18.948Z</time></trkpt><trkpt lat="45.526815" lon="8.56097"><ele>184.0</ele><time>2026-04-19T12:29:19.948Z</time></trkpt><trkpt lat="45.526845" lon="8.561115"><ele>184.0</ele><time>2026-04-19T12:29:20.948Z</time></trkpt><trkpt lat="45.526855" lon="8.56128"><ele>184.0</ele><time>2026-04-19T12:29:21.947Z</time></trkpt><trkpt lat="45.52686" lon="8.5614633"><ele>184.0</ele><time>2026-04-19T12:29:22.947Z</time></trkpt><trkpt lat="45.5268683" lon="8.561655"><ele>184.0</ele><time>2026-04-19T12:29:23.948Z</time></trkpt><trkpt lat="45.5268683" lon="8.5618417"><ele>184.0</ele><time>2026-04-19T12:29:24.947Z</time></trkpt><trkpt lat="45.5268817" lon="8.562035"><ele>184.0</ele><time>2026-04-19T12:29:25.948Z</time></trkpt><trkpt lat="45.5268933" lon="8.5622333"><ele>184.0</ele><time>2026-04-19T12:29:26.947Z</time></trkpt><trkpt lat="45.5269017" lon="8.5624317"><ele>184.0</ele><time>2026-04-19T12:29:27.948Z</time></trkpt><trkpt lat="45.5269183" lon="8.5626233"><ele>184.0</ele><time>2026-04-19T12:29:28.948Z</time></trkpt><trkpt lat="45.5269383" lon="8.5628183"><ele>184.0</ele><time>2026-04-19T12:29:29.948Z</time></trkpt><trkpt lat="45.52695" lon="8.5630167"><ele>183.75</ele><time>2026-04-19T12:29:30.947Z</time></trkpt><trkpt lat="45.52696" lon="8.5632183"><ele>183.5</ele><time>2026-04-19T12:29:31.948Z</time></trkpt><trkpt lat="45.52697" lon="8.5634167"><ele>183.25</ele><time>2026-04-19T12:29:32.948Z</time></trkpt><trkpt lat="45.5269733" lon="8.56362"><ele>183.0</ele><time>2026-04-19T12:29:33.948Z</time></trkpt><trkpt lat="45.5269783" lon="8.563825"><ele>183.0</ele><time>2026-04-19T12:29:34.948Z</time></trkpt><trkpt lat="45.5269817" lon="8.564025"><ele>183.0</ele><time>2026-04-19T12:29:35.948Z</time></trkpt><trkpt lat="45.5269833" lon="8.56422"><ele>183.0</ele><time>2026-04-19T12:29:36.947Z</time></trkpt><trkpt lat="45.5269933" lon="8.564405"><ele>183.0</ele><time>2026-04-19T12:29:37.947Z</time></trkpt><trkpt lat="45.527" lon="8.564615"><ele>182.5</ele><time>2026-04-19T12:29:38.947Z</time></trkpt><trkpt lat="45.527015" lon="8.5648217"><ele>182.0</ele><time>2026-04-19T12:29:39.948Z</time></trkpt><trkpt lat="45.5270283" lon="8.5650233"><ele>181.5</ele><time>2026-04-19T12:29:40.948Z</time></trkpt><trkpt lat="45.527035" lon="8.565225"><ele>181.0</ele><time>2026-04-19T12:29:41.947Z</time></trkpt><trkpt lat="45.52705" lon="8.5654233"><ele>182.0</ele><time>2026-04-19T12:29:42.947Z</time></trkpt><trkpt lat="45.5270583" lon="8.56562"><ele>183.0</ele><time>2026-04-19T12:29:43.947Z</time></trkpt><trkpt lat="45.5270717" lon="8.5658083"><ele>184.0</ele><time>2026-04-19T12:29:44.948Z</time></trkpt><trkpt lat="45.5270883" lon="8.5659967"><ele>185.0</ele><time>2026-04-19T12:29:45.948Z</time></trkpt><trkpt lat="45.527095" lon="8.56617"><ele>186.25</ele><time>2026-04-19T12:29:46.947Z</time></trkpt><trkpt lat="45.5271017" lon="8.566355"><ele>187.5</ele><time>2026-04-19T12:29:47.948Z</time></trkpt><trkpt lat="45.52711" lon="8.566535"><ele>188.75</ele><time>2026-04-19T12:29:48.947Z</time></trkpt><trkpt lat="45.527125" lon="8.5667133"><ele>190.0</ele><time>2026-04-19T12:29:49.948Z</time></trkpt><trkpt lat="45.52714" lon="8.56689"><ele>190.0</ele><time>2026-04-19T12:29:50.947Z</time></trkpt><trkpt lat="45.5271567" lon="8.5670833"><ele>190.0</ele><time>2026-04-19T12:29:51.948Z</time></trkpt><trkpt lat="45.5271883" lon="8.5672567"><ele>190.0</ele><time>2026-04-19T12:29:52.948Z</time></trkpt><trkpt lat="45.5272233" lon="8.567415"><ele>190.0</ele><time>2026-04-19T12:29:53.947Z</time></trkpt><trkpt lat="45.5272617" lon="8.5675633"><ele>190.0</ele><time>2026-04-19T12:29:54.947Z</time></trkpt><trkpt lat="45.5272917" lon="8.5676983"><ele>190.0</ele><time>2026-04-19T12:29:55.948Z</time></trkpt><trkpt lat="45.5273267" lon="8.5678233"><ele>190.0</ele><time>2026-04-19T12:29:56.948Z</time></trkpt><trkpt lat="45.52737" lon="8.5679483"><ele>190.0</ele><time>2026-04-19T12:29:57.947Z</time></trkpt><trkpt lat="45.5274133" lon="8.56805"><ele>190.0</ele><time>2026-04-19T12:29:58.948Z</time></trkpt><trkpt lat="45.5274483" lon="8.5681267"><ele>190.0</ele><time>2026-04-19T12:29:59.947Z</time></trkpt><trkpt lat="45.5273967" lon="8.5682233"><ele>189.4</ele><time>2026-04-19T12:30:02.948Z</time></trkpt><trkpt lat="45.52726" lon="8.5682167"><ele>188.8</ele><time>2026-04-19T12:30:04.947Z</time></trkpt><trkpt lat="45.5271733" lon="8.5682117"><ele>188.2</ele><time>2026-04-19T12:30:05.947Z</time></trkpt><trkpt lat="45.5270767" lon="8.5681967"><ele>187.6</ele><time>2026-04-19T12:30:06.948Z</time></trkpt><trkpt lat="45.526965" lon="8.5681867"><ele>187.0</ele><time>2026-04-19T12:30:07.948Z</time></trkpt><trkpt lat="45.5268583" lon="8.568165"><ele>187.0</ele><time>2026-04-19T12:30:08.948Z</time></trkpt><trkpt lat="45.5267433" lon="8.5681433"><ele>187.0</ele><time>2026-04-19T12:30:09.948Z</time></trkpt><trkpt lat="45.5266333" lon="8.5681233"><ele>187.0</ele><time>2026-04-19T12:30:10.948Z</time></trkpt><trkpt lat="45.52653" lon="8.5681083"><ele>187.0</ele><time>2026-04-19T12:30:11.948Z</time></trkpt><trkpt lat="45.526425" lon="8.568095"><ele>187.0</ele><time>2026-04-19T12:30:12.948Z</time></trkpt><trkpt lat="45.5263233" lon="8.56809"><ele>187.0</ele><time>2026-04-19T12:30:13.948Z</time></trkpt><trkpt lat="45.5262167" lon="8.5680767"><ele>187.0</ele><time>2026-04-19T12:30:14.948Z</time></trkpt><trkpt lat="45.5261033" lon="8.5680783"><ele>187.0</ele><time>2026-04-19T12:30:15.948Z</time></trkpt><trkpt lat="45.5260017" lon="8.5680933"><ele>187.0</ele><time>2026-04-19T12:30:16.948Z</time></trkpt><trkpt lat="45.5258983" lon="8.5681283"><ele>187.0</ele><time>2026-04-19T12:30:17.948Z</time></trkpt><trkpt lat="45.5257883" lon="8.5681633"><ele>187.0</ele><time>2026-04-19T12:30:18.947Z</time></trkpt><trkpt lat="45.52568" lon="8.5682017"><ele>187.0</ele><time>2026-04-19T12:30:19.948Z</time></trkpt><trkpt lat="45.525575" lon="8.5682383"><ele>187.0</ele><time>2026-04-19T12:30:20.947Z</time></trkpt><trkpt lat="45.525475" lon="8.5682817"><ele>187.0</ele><time>2026-04-19T12:30:21.947Z</time></trkpt><trkpt lat="45.5253667" lon="8.5683383"><ele>187.0</ele><time>2026-04-19T12:30:22.948Z</time></trkpt><trkpt lat="45.5252633" lon="8.5684133"><ele>186.8</ele><time>2026-04-19T12:30:23.948Z</time></trkpt><trkpt lat="45.5251633" lon="8.5685067"><ele>186.6</ele><time>2026-04-19T12:30:24.947Z</time></trkpt><trkpt lat="45.5250583" lon="8.5685883"><ele>186.4</ele><time>2026-04-19T12:30:25.948Z</time></trkpt><trkpt lat="45.5249767" lon="8.5686667"><ele>186.20000000000002</ele><time>2026-04-19T12:30:26.948Z</time></trkpt><trkpt lat="45.5248967" lon="8.56874"><ele>186.0</ele><time>2026-04-19T12:30:27.948Z</time></trkpt><trkpt lat="45.5248217" lon="8.5687983"><ele>186.0</ele><time>2026-04-19T12:30:28.945Z</time></trkpt><trkpt lat="45.524745" lon="8.5688633"><ele>186.0</ele><time>2026-04-19T12:30:29.948Z</time></trkpt><trkpt lat="45.5246633" lon="8.5689367"><ele>186.0</ele><time>2026-04-19T12:30:30.948Z</time></trkpt><trkpt lat="45.524585" lon="8.5690067"><ele>186.0</ele><time>2026-04-19T12:30:31.947Z</time></trkpt><trkpt lat="45.5245117" lon="8.5690833"><ele>186.0</ele><time>2026-04-19T12:30:32.948Z</time></trkpt><trkpt lat="45.5244567" lon="8.56915"><ele>186.0</ele><time>2026-04-19T12:30:33.947Z</time></trkpt><trkpt lat="45.5243967" lon="8.569205"><ele>186.20000000000002</ele><time>2026-04-19T12:30:34.948Z</time></trkpt><trkpt lat="45.5243267" lon="8.5692617"><ele>186.4</ele><time>2026-04-19T12:30:35.948Z</time></trkpt><trkpt lat="45.524255" lon="8.569325"><ele>186.6</ele><time>2026-04-19T12:30:36.948Z</time></trkpt><trkpt lat="45.5241667" lon="8.56939"><ele>186.8</ele><time>2026-04-19T12:30:37.948Z</time></trkpt><trkpt lat="45.5240767" lon="8.569465"><ele>187.0</ele><time>2026-04-19T12:30:38.948Z</time></trkpt><trkpt lat="45.5239883" lon="8.569545"><ele>187.0</ele><time>2026-04-19T12:30:39.947Z</time></trkpt><trkpt lat="45.523895" lon="8.569635"><ele>187.0</ele><time>2026-04-19T12:30:40.947Z</time></trkpt><trkpt lat="45.5238067" lon="8.569715"><ele>187.0</ele><time>2026-04-19T12:30:41.948Z</time></trkpt><trkpt lat="45.5237167" lon="8.56979"><ele>187.0</ele><time>2026-04-19T12:30:42.947Z</time></trkpt><trkpt lat="45.523625" lon="8.5698567"><ele>187.0</ele><time>2026-04-19T12:30:43.947Z</time></trkpt><trkpt lat="45.5235283" lon="8.5699283"><ele>187.0</ele><time>2026-04-19T12:30:44.948Z</time></trkpt><trkpt lat="45.52343" lon="8.56999"><ele>187.0</ele><time>2026-04-19T12:30:45.947Z</time></trkpt><trkpt lat="45.5233383" lon="8.57006"><ele>187.0</ele><time>2026-04-19T12:30:46.947Z</time></trkpt><trkpt lat="45.5232617" lon="8.5701183"><ele>187.0</ele><time>2026-04-19T12:30:47.948Z</time></trkpt><trkpt lat="45.5231967" lon="8.5701733"><ele>187.0</ele><time>2026-04-19T12:30:48.947Z</time></trkpt><trkpt lat="45.5231317" lon="8.5702217"><ele>187.0</ele><time>2026-04-19T12:30:49.948Z</time></trkpt><trkpt lat="45.5230667" lon="8.5702717"><ele>187.0</ele><time>2026-04-19T12:30:50.948Z</time></trkpt><trkpt lat="45.5230067" lon="8.5703217"><ele>187.0</ele><time>2026-04-19T12:30:51.947Z</time></trkpt><trkpt lat="45.5229467" lon="8.5703567"><ele>187.0</ele><time>2026-04-19T12:30:52.948Z</time></trkpt><trkpt lat="45.5228383" lon="8.5704"><ele>187.0</ele><time>2026-04-19T12:30:54.947Z</time></trkpt><trkpt lat="45.52273" lon="8.5703317"><ele>187.0</ele><time>2026-04-19T12:30:56.947Z</time></trkpt><trkpt lat="45.522665" lon="8.5702467"><ele>187.0</ele><time>2026-04-19T12:30:57.947Z</time></trkpt><trkpt lat="45.5225967" lon="8.57015"><ele>187.0</ele><time>2026-04-19T12:30:58.948Z</time></trkpt><trkpt lat="45.5225233" lon="8.5700517"><ele>187.0</ele><time>2026-04-19T12:30:59.947Z</time></trkpt><trkpt lat="45.5224517" lon="8.56996"><ele>187.0</ele><time>2026-04-19T12:31:00.947Z</time></trkpt><trkpt lat="45.5223833" lon="8.5698817"><ele>187.0</ele><time>2026-04-19T12:31:01.947Z</time></trkpt><trkpt lat="45.5223267" lon="8.5698283"><ele>187.0</ele><time>2026-04-19T12:31:02.948Z</time></trkpt><trkpt lat="45.5222667" lon="8.56979"><ele>187.0</ele><time>2026-04-19T12:31:03.947Z</time></trkpt><trkpt lat="45.522205" lon="8.56977"><ele>187.0</ele><time>2026-04-19T12:31:04.948Z</time></trkpt><trkpt lat="45.52214" lon="8.569755"><ele>187.0</ele><time>2026-04-19T12:31:05.948Z</time></trkpt><trkpt lat="45.5220733" lon="8.569765"><ele>187.0</ele><time>2026-04-19T12:31:06.948Z</time></trkpt><trkpt lat="45.5219683" lon="8.5698617"><ele>187.0</ele><time>2026-04-19T12:31:08.948Z</time></trkpt><trkpt lat="45.5219167" lon="8.5699517"><ele>187.0</ele><time>2026-04-19T12:31:09.947Z</time></trkpt><trkpt lat="45.521865" lon="8.570045"><ele>186.5</ele><time>2026-04-19T12:31:10.948Z</time></trkpt><trkpt lat="45.52181" lon="8.570145"><ele>186.0</ele><time>2026-04-19T12:31:11.947Z</time></trkpt><trkpt lat="45.5217717" lon="8.5702317"><ele>185.5</ele><time>2026-04-19T12:31:12.947Z</time></trkpt><trkpt lat="45.521735" lon="8.570325"><ele>185.0</ele><time>2026-04-19T12:31:13.947Z</time></trkpt><trkpt lat="45.521695" lon="8.5704183"><ele>184.5</ele><time>2026-04-19T12:31:14.948Z</time></trkpt><trkpt lat="45.5216583" lon="8.57052"><ele>184.0</ele><time>2026-04-19T12:31:15.947Z</time></trkpt><trkpt lat="45.5216217" lon="8.5706167"><ele>184.0</ele><time>2026-04-19T12:31:16.947Z</time></trkpt><trkpt lat="45.5215817" lon="8.5707167"><ele>184.0</ele><time>2026-04-19T12:31:17.947Z</time></trkpt><trkpt lat="45.52154" lon="8.57082"><ele>184.0</ele><time>2026-04-19T12:31:18.947Z</time></trkpt><trkpt lat="45.521505" lon="8.5709167"><ele>184.0</ele><time>2026-04-19T12:31:19.948Z</time></trkpt><trkpt lat="45.5214683" lon="8.5710167"><ele>184.0</ele><time>2026-04-19T12:31:20.947Z</time></trkpt><trkpt lat="45.52142" lon="8.5711183"><ele>184.0</ele><time>2026-04-19T12:31:21.948Z</time></trkpt><trkpt lat="45.521375" lon="8.571215"><ele>184.16666666666669</ele><time>2026-04-19T12:31:22.948Z</time></trkpt><trkpt lat="45.521335" lon="8.571305"><ele>184.33333333333334</ele><time>2026-04-19T12:31:23.947Z</time></trkpt><trkpt lat="45.5212983" lon="8.5713933"><ele>184.5</ele><time>2026-04-19T12:31:24.947Z</time></trkpt><trkpt lat="45.521255" lon="8.5714733"><ele>184.66666666666666</ele><time>2026-04-19T12:31:25.947Z</time></trkpt><trkpt lat="45.5211783" lon="8.5715783"><ele>184.83333333333331</ele><time>2026-04-19T12:31:27.948Z</time></trkpt><trkpt lat="45.5211117" lon="8.5715833"><ele>185.0</ele><time>2026-04-19T12:31:29.948Z</time></trkpt><trkpt lat="45.5210383" lon="8.5716117"><ele>185.0</ele><time>2026-04-19T12:31:31.948Z</time></trkpt><trkpt lat="45.5209783" lon="8.5716467"><ele>185.0</ele><time>2026-04-19T12:31:33.948Z</time></trkpt><trkpt lat="45.5209" lon="8.5716767"><ele>185.0</ele><time>2026-04-19T12:31:36.948Z</time></trkpt><trkpt lat="45.5208167" lon="8.57175"><ele>185.0</ele><time>2026-04-19T12:31:38.948Z</time></trkpt><trkpt lat="45.52075" lon="8.5717967"><ele>185.0</ele><time>2026-04-19T12:31:39.948Z</time></trkpt><trkpt lat="45.5206667" lon="8.5718417"><ele>185.0</ele><time>2026-04-19T12:31:40.948Z</time></trkpt><trkpt lat="45.5205783" lon="8.5718833"><ele>185.0</ele><time>2026-04-19T12:31:41.948Z</time></trkpt><trkpt lat="45.5204833" lon="8.571915"><ele>185.0</ele><time>2026-04-19T12:31:42.948Z</time></trkpt><trkpt lat="45.5203833" lon="8.5719383"><ele>185.0</ele><time>2026-04-19T12:31:43.948Z</time></trkpt><trkpt lat="45.5202917" lon="8.5719517"><ele>185.0</ele><time>2026-04-19T12:31:44.947Z</time></trkpt><trkpt lat="45.5202" lon="8.5719733"><ele>185.0</ele><time>2026-04-19T12:31:45.948Z</time></trkpt><trkpt lat="45.52012" lon="8.57199"><ele>184.5</ele><time>2026-04-19T12:31:46.947Z</time></trkpt><trkpt lat="45.520035" lon="8.5720083"><ele>184.0</ele><time>2026-04-19T12:31:47.947Z</time></trkpt><trkpt lat="45.5199533" lon="8.5720367"><ele>183.5</ele><time>2026-04-19T12:31:48.948Z</time></trkpt><trkpt lat="45.5198833" lon="8.5720583"><ele>183.0</ele><time>2026-04-19T12:31:49.948Z</time></trkpt><trkpt lat="45.519755" lon="8.5720567"><ele>182.5</ele><time>2026-04-19T12:31:51.947Z</time></trkpt><trkpt lat="45.5196767" lon="8.5720633"><ele>182.0</ele><time>2026-04-19T12:31:52.948Z</time></trkpt><trkpt lat="45.5195917" lon="8.5720883"><ele>181.25</ele><time>2026-04-19T12:31:53.947Z</time></trkpt><trkpt lat="45.5194983" lon="8.5721383"><ele>180.5</ele><time>2026-04-19T12:31:54.948Z</time></trkpt><trkpt lat="45.5193983" lon="8.5722"><ele>179.75</ele><time>2026-04-19T12:31:55.947Z</time></trkpt><trkpt lat="45.5192833" lon="8.5722517"><ele>179.0</ele><time>2026-04-19T12:31:56.947Z</time></trkpt><trkpt lat="45.519165" lon="8.572305"><ele>179.0</ele><time>2026-04-19T12:31:57.947Z</time></trkpt><trkpt lat="45.5190483" lon="8.5723517"><ele>179.0</ele><time>2026-04-19T12:31:58.948Z</time></trkpt><trkpt lat="45.518925" lon="8.572385"><ele>179.0</ele><time>2026-04-19T12:31:59.947Z</time></trkpt><trkpt lat="45.5188067" lon="8.5724233"><ele>179.0</ele><time>2026-04-19T12:32:00.947Z</time></trkpt><trkpt lat="45.5186917" lon="8.572455"><ele>179.0</ele><time>2026-04-19T12:32:01.948Z</time></trkpt><trkpt lat="45.5185733" lon="8.5724783"><ele>179.0</ele><time>2026-04-19T12:32:02.948Z</time></trkpt><trkpt lat="45.5184533" lon="8.5725117"><ele>179.0</ele><time>2026-04-19T12:32:03.948Z</time></trkpt><trkpt lat="45.51833" lon="8.572555"><ele>179.0</ele><time>2026-04-19T12:32:04.948Z</time></trkpt><trkpt lat="45.5182067" lon="8.5725917"><ele>179.0</ele><time>2026-04-19T12:32:05.947Z</time></trkpt><trkpt lat="45.5180733" lon="8.57263"><ele>179.0</ele><time>2026-04-19T12:32:06.946Z</time></trkpt><trkpt lat="45.5179417" lon="8.5726783"><ele>179.0</ele><time>2026-04-19T12:32:07.947Z</time></trkpt><trkpt lat="45.5178117" lon="8.5727217"><ele>179.0</ele><time>2026-04-19T12:32:08.947Z</time></trkpt><trkpt lat="45.51768" lon="8.57276"><ele>179.5</ele><time>2026-04-19T12:32:09.946Z</time></trkpt><trkpt lat="45.5175567" lon="8.5727983"><ele>180.0</ele><time>2026-04-19T12:32:10.947Z</time></trkpt><trkpt lat="45.5174333" lon="8.572845"><ele>180.5</ele><time>2026-04-19T12:32:11.947Z</time></trkpt><trkpt lat="45.5173133" lon="8.57288"><ele>181.0</ele><time>2026-04-19T12:32:12.946Z</time></trkpt><trkpt lat="45.517195" lon="8.57292"><ele>181.4</ele><time>2026-04-19T12:32:13.947Z</time></trkpt><trkpt lat="45.51708" lon="8.5729517"><ele>181.8</ele><time>2026-04-19T12:32:14.947Z</time></trkpt><trkpt lat="45.516965" lon="8.5729817"><ele>182.20000000000002</ele><time>2026-04-19T12:32:15.947Z</time></trkpt><trkpt lat="45.51686" lon="8.5730067"><ele>182.60000000000002</ele><time>2026-04-19T12:32:16.946Z</time></trkpt><trkpt lat="45.5167617" lon="8.5730383"><ele>183.0</ele><time>2026-04-19T12:32:17.947Z</time></trkpt><trkpt lat="45.5166767" lon="8.5730733"><ele>183.0</ele><time>2026-04-19T12:32:18.946Z</time></trkpt><trkpt lat="45.5166" lon="8.5731033"><ele>183.0</ele><time>2026-04-19T12:32:19.947Z</time></trkpt><trkpt lat="45.516535" lon="8.5731183"><ele>183.0</ele><time>2026-04-19T12:32:20.947Z</time></trkpt><trkpt lat="45.5164333" lon="8.5731483"><ele>183.0</ele><time>2026-04-19T12:32:22.947Z</time></trkpt><trkpt lat="45.5163783" lon="8.5732683"><ele>183.0</ele><time>2026-04-19T12:32:24.946Z</time></trkpt><trkpt lat="45.5163733" lon="8.5733617"><ele>183.0</ele><time>2026-04-19T12:32:25.946Z</time></trkpt><trkpt lat="45.516365" lon="8.573485"><ele>183.0</ele><time>2026-04-19T12:32:26.947Z</time></trkpt><trkpt lat="45.5163567" lon="8.5736133"><ele>183.0</ele><time>2026-04-19T12:32:27.947Z</time></trkpt><trkpt lat="45.5163533" lon="8.5737633"><ele>183.0</ele><time>2026-04-19T12:32:28.947Z</time></trkpt><trkpt lat="45.5163383" lon="8.573915"><ele>183.0</ele><time>2026-04-19T12:32:29.947Z</time></trkpt><trkpt lat="45.5163217" lon="8.5740533"><ele>183.0</ele><time>2026-04-19T12:32:30.946Z</time></trkpt><trkpt lat="45.5163017" lon="8.5742"><ele>183.2</ele><time>2026-04-19T12:32:31.947Z</time></trkpt><trkpt lat="45.5162833" lon="8.5743467"><ele>183.4</ele><time>2026-04-19T12:32:32.947Z</time></trkpt><trkpt lat="45.51625" lon="8.574495"><ele>183.6</ele><time>2026-04-19T12:32:33.947Z</time></trkpt><trkpt lat="45.5161983" lon="8.5746333"><ele>183.79999999999998</ele><time>2026-04-19T12:32:34.947Z</time></trkpt><trkpt lat="45.5161483" lon="8.57475"><ele>184.0</ele><time>2026-04-19T12:32:35.947Z</time></trkpt><trkpt lat="45.5160967" lon="8.5748617"><ele>182.6</ele><time>2026-04-19T12:32:36.946Z</time></trkpt><trkpt lat="45.5160533" lon="8.5749933"><ele>181.2</ele><time>2026-04-19T12:32:37.947Z</time></trkpt><trkpt lat="45.5160333" lon="8.575145"><ele>179.79999999999998</ele><time>2026-04-19T12:32:38.947Z</time></trkpt><trkpt lat="45.5160283" lon="8.5753033"><ele>178.39999999999998</ele><time>2026-04-19T12:32:39.946Z</time></trkpt><trkpt lat="45.516025" lon="8.5754667"><ele>177.0</ele><time>2026-04-19T12:32:40.947Z</time></trkpt><trkpt lat="45.5160183" lon="8.5756217"><ele>177.0</ele><time>2026-04-19T12:32:41.946Z</time></trkpt><trkpt lat="45.51602" lon="8.5757817"><ele>177.0</ele><time>2026-04-19T12:32:42.946Z</time></trkpt><trkpt lat="45.5160133" lon="8.5759183"><ele>177.0</ele><time>2026-04-19T12:32:43.947Z</time></trkpt><trkpt lat="45.5160083" lon="8.5760333"><ele>177.0</ele><time>2026-04-19T12:32:44.947Z</time></trkpt><trkpt lat="45.5160183" lon="8.5761367"><ele>177.0</ele><time>2026-04-19T12:32:45.946Z</time></trkpt><trkpt lat="45.516055" lon="8.5762283"><ele>177.0</ele><time>2026-04-19T12:32:46.947Z</time></trkpt><trkpt lat="45.5161133" lon="8.5763283"><ele>177.0</ele><time>2026-04-19T12:32:47.947Z</time></trkpt><trkpt lat="45.51618" lon="8.5764233"><ele>177.0</ele><time>2026-04-19T12:32:48.947Z</time></trkpt><trkpt lat="45.5162333" lon="8.5765267"><ele>177.0</ele><time>2026-04-19T12:32:49.947Z</time></trkpt><trkpt lat="45.5162767" lon="8.576625"><ele>177.0</ele><time>2026-04-19T12:32:50.947Z</time></trkpt><trkpt lat="45.5163" lon="8.576725"><ele>177.0</ele><time>2026-04-19T12:32:51.947Z</time></trkpt><trkpt lat="45.5162883" lon="8.5768367"><ele>177.0</ele><time>2026-04-19T12:32:52.947Z</time></trkpt><trkpt lat="45.5162483" lon="8.576975"><ele>177.0</ele><time>2026-04-19T12:32:53.947Z</time></trkpt><trkpt lat="45.5162033" lon="8.5771017"><ele>177.0</ele><time>2026-04-19T12:32:54.947Z</time></trkpt><trkpt lat="45.5161567" lon="8.57722"><ele>177.0</ele><time>2026-04-19T12:32:55.946Z</time></trkpt><trkpt lat="45.516115" lon="8.577355"><ele>177.0</ele><time>2026-04-19T12:32:56.947Z</time></trkpt><trkpt lat="45.5160833" lon="8.5774917"><ele>177.0</ele><time>2026-04-19T12:32:57.947Z</time></trkpt><trkpt lat="45.5160617" lon="8.5775983"><ele>177.0</ele><time>2026-04-19T12:32:58.946Z</time></trkpt><trkpt lat="45.516095" lon="8.5777717"><ele>177.0</ele><time>2026-04-19T12:33:00.947Z</time></trkpt><trkpt lat="45.5161467" lon="8.5778433"><ele>177.0</ele><time>2026-04-19T12:33:01.947Z</time></trkpt><trkpt lat="45.5162267" lon="8.57789"><ele>177.0</ele><time>2026-04-19T12:33:02.947Z</time></trkpt><trkpt lat="45.516315" lon="8.57793"><ele>177.0</ele><time>2026-04-19T12:33:03.947Z</time></trkpt><trkpt lat="45.5164167" lon="8.577965"><ele>177.75</ele><time>2026-04-19T12:33:04.947Z</time></trkpt><trkpt lat="45.51652" lon="8.5780033"><ele>178.5</ele><time>2026-04-19T12:33:05.946Z</time></trkpt><trkpt lat="45.5166333" lon="8.5780367"><ele>179.25</ele><time>2026-04-19T12:33:06.947Z</time></trkpt><trkpt lat="45.5167533" lon="8.57806"><ele>180.0</ele><time>2026-04-19T12:33:07.947Z</time></trkpt><trkpt lat="45.5168683" lon="8.57808"><ele>180.0</ele><time>2026-04-19T12:33:08.947Z</time></trkpt><trkpt lat="45.5169683" lon="8.578105"><ele>180.0</ele><time>2026-04-19T12:33:09.947Z</time></trkpt><trkpt lat="45.517055" lon="8.5781283"><ele>180.0</ele><time>2026-04-19T12:33:10.947Z</time></trkpt><trkpt lat="45.51713" lon="8.5781483"><ele>180.0</ele><time>2026-04-19T12:33:11.947Z</time></trkpt><trkpt lat="45.5171883" lon="8.578195"><ele>180.0</ele><time>2026-04-19T12:33:12.947Z</time></trkpt><trkpt lat="45.517235" lon="8.5782783"><ele>180.0</ele><time>2026-04-19T12:33:13.947Z</time></trkpt><trkpt lat="45.5172467" lon="8.5783967"><ele>179.6</ele><time>2026-04-19T12:33:14.946Z</time></trkpt><trkpt lat="45.5172467" lon="8.57853"><ele>179.2</ele><time>2026-04-19T12:33:15.947Z</time></trkpt><trkpt lat="45.5172483" lon="8.5786767"><ele>178.8</ele><time>2026-04-19T12:33:16.947Z</time></trkpt><trkpt lat="45.517255" lon="8.5788433"><ele>178.4</ele><time>2026-04-19T12:33:17.946Z</time></trkpt><trkpt lat="45.5172567" lon="8.579015"><ele>178.0</ele><time>2026-04-19T12:33:18.946Z</time></trkpt><trkpt lat="45.5172667" lon="8.5792"><ele>177.75</ele><time>2026-04-19T12:33:19.946Z</time></trkpt><trkpt lat="45.5172733" lon="8.5793983"><ele>177.5</ele><time>2026-04-19T12:33:20.947Z</time></trkpt><trkpt lat="45.5172833" lon="8.5796083"><ele>177.25</ele><time>2026-04-19T12:33:21.946Z</time></trkpt><trkpt lat="45.5172867" lon="8.5798133"><ele>177.0</ele><time>2026-04-19T12:33:22.946Z</time></trkpt><trkpt lat="45.5172867" lon="8.5800267"><ele>177.0</ele><time>2026-04-19T12:33:23.947Z</time></trkpt><trkpt lat="45.517285" lon="8.5802333"><ele>177.0</ele><time>2026-04-19T12:33:24.946Z</time></trkpt><trkpt lat="45.5172883" lon="8.5804333"><ele>177.0</ele><time>2026-04-19T12:33:25.946Z</time></trkpt><trkpt lat="45.5172933" lon="8.5806383"><ele>177.0</ele><time>2026-04-19T12:33:26.946Z</time></trkpt><trkpt lat="45.51729" lon="8.5808417"><ele>177.0</ele><time>2026-04-19T12:33:27.947Z</time></trkpt><trkpt lat="45.5172867" lon="8.581045"><ele>177.0</ele><time>2026-04-19T12:33:28.946Z</time></trkpt><trkpt lat="45.517285" lon="8.5812467"><ele>177.0</ele><time>2026-04-19T12:33:29.947Z</time></trkpt><trkpt lat="45.51728" lon="8.5814467"><ele>177.0</ele><time>2026-04-19T12:33:30.947Z</time></trkpt><trkpt lat="45.5172767" lon="8.581645"><ele>177.0</ele><time>2026-04-19T12:33:31.947Z</time></trkpt><trkpt lat="45.5172817" lon="8.58184"><ele>177.0</ele><time>2026-04-19T12:33:32.946Z</time></trkpt><trkpt lat="45.51728" lon="8.5820383"><ele>177.0</ele><time>2026-04-19T12:33:33.947Z</time></trkpt><trkpt lat="45.5172783" lon="8.5822283"><ele>177.0</ele><time>2026-04-19T12:33:34.947Z</time></trkpt><trkpt lat="45.5172817" lon="8.58242"><ele>176.5</ele><time>2026-04-19T12:33:35.947Z</time></trkpt><trkpt lat="45.517285" lon="8.5826083"><ele>176.0</ele><time>2026-04-19T12:33:36.947Z</time></trkpt><trkpt lat="45.5172883" lon="8.5827917"><ele>175.5</ele><time>2026-04-19T12:33:37.947Z</time></trkpt><trkpt lat="45.5172817" lon="8.5829667"><ele>175.0</ele><time>2026-04-19T12:33:38.946Z</time></trkpt><trkpt lat="45.5172717" lon="8.5831283"><ele>175.0</ele><time>2026-04-19T12:33:39.947Z</time></trkpt><trkpt lat="45.517265" lon="8.58328"><ele>175.0</ele><time>2026-04-19T12:33:40.946Z</time></trkpt><trkpt lat="45.5172583" lon="8.5834133"><ele>175.0</ele><time>2026-04-19T12:33:41.946Z</time></trkpt><trkpt lat="45.5172517" lon="8.5835467"><ele>175.0</ele><time>2026-04-19T12:33:42.946Z</time></trkpt><trkpt lat="45.5172517" lon="8.5836667"><ele>175.0</ele><time>2026-04-19T12:33:43.946Z</time></trkpt><trkpt lat="45.517255" lon="8.583775"><ele>175.33333333333334</ele><time>2026-04-19T12:33:44.947Z</time></trkpt><trkpt lat="45.5172517" lon="8.5838767"><ele>175.66666666666669</ele><time>2026-04-19T12:33:45.947Z</time></trkpt><trkpt lat="45.517235" lon="8.5839867"><ele>176.0</ele><time>2026-04-19T12:33:46.946Z</time></trkpt><trkpt lat="45.517215" lon="8.58409"><ele>176.33333333333334</ele><time>2026-04-19T12:33:47.946Z</time></trkpt><trkpt lat="45.51718" lon="8.5841717"><ele>176.66666666666666</ele><time>2026-04-19T12:33:48.947Z</time></trkpt><trkpt lat="45.5171183" lon="8.5842467"><ele>177.0</ele><time>2026-04-19T12:33:49.947Z</time></trkpt><trkpt lat="45.5170433" lon="8.5842967"><ele>177.0</ele><time>2026-04-19T12:33:50.946Z</time></trkpt><trkpt lat="45.51697" lon="8.584305"><ele>177.0</ele><time>2026-04-19T12:33:51.946Z</time></trkpt><trkpt lat="45.5168633" lon="8.584365"><ele>177.0</ele><time>2026-04-19T12:33:53.946Z</time></trkpt><trkpt lat="45.5168317" lon="8.584535"><ele>177.0</ele><time>2026-04-19T12:33:55.947Z</time></trkpt><trkpt lat="45.516805" lon="8.5846217"><ele>177.0</ele><time>2026-04-19T12:33:56.946Z</time></trkpt><trkpt lat="45.5167633" lon="8.5847167"><ele>177.2</ele><time>2026-04-19T12:33:57.946Z</time></trkpt><trkpt lat="45.5167117" lon="8.5848267"><ele>177.39999999999998</ele><time>2026-04-19T12:33:58.947Z</time></trkpt><trkpt lat="45.51667" lon="8.5849567"><ele>177.60000000000002</ele><time>2026-04-19T12:33:59.947Z</time></trkpt><trkpt lat="45.516635" lon="8.585095"><ele>177.8</ele><time>2026-04-19T12:34:00.946Z</time></trkpt><trkpt lat="45.5166017" lon="8.58524"><ele>178.0</ele><time>2026-04-19T12:34:01.946Z</time></trkpt><trkpt lat="45.5165617" lon="8.585395"><ele>178.25</ele><time>2026-04-19T12:34:02.947Z</time></trkpt><trkpt lat="45.5165367" lon="8.585565"><ele>178.5</ele><time>2026-04-19T12:34:03.947Z</time></trkpt><trkpt lat="45.51654" lon="8.58574"><ele>178.75</ele><time>2026-04-19T12:34:04.947Z</time></trkpt><trkpt lat="45.516565" lon="8.5859167"><ele>179.0</ele><time>2026-04-19T12:34:05.947Z</time></trkpt><trkpt lat="45.5165817" lon="8.5860967"><ele>178.75</ele><time>2026-04-19T12:34:06.947Z</time></trkpt><trkpt lat="45.5166367" lon="8.586255"><ele>178.5</ele><time>2026-04-19T12:34:07.947Z</time></trkpt><trkpt lat="45.5166933" lon="8.5864083"><ele>178.25</ele><time>2026-04-19T12:34:08.946Z</time></trkpt><trkpt lat="45.5167267" lon="8.58657"><ele>178.0</ele><time>2026-04-19T12:34:09.946Z</time></trkpt><trkpt lat="45.5167667" lon="8.5867317"><ele>178.0</ele><time>2026-04-19T12:34:10.946Z</time></trkpt><trkpt lat="45.5168017" lon="8.58689"><ele>178.0</ele><time>2026-04-19T12:34:11.947Z</time></trkpt><trkpt lat="45.51684" lon="8.5870533"><ele>178.0</ele><time>2026-04-19T12:34:12.947Z</time></trkpt><trkpt lat="45.5168717" lon="8.5872117"><ele>178.0</ele><time>2026-04-19T12:34:13.947Z</time></trkpt><trkpt lat="45.516905" lon="8.5873567"><ele>178.0</ele><time>2026-04-19T12:34:14.947Z</time></trkpt><trkpt lat="45.51693" lon="8.5875"><ele>178.0</ele><time>2026-04-19T12:34:15.946Z</time></trkpt><trkpt lat="45.516955" lon="8.587645"><ele>178.0</ele><time>2026-04-19T12:34:16.947Z</time></trkpt><trkpt lat="45.5169833" lon="8.5877733"><ele>178.0</ele><time>2026-04-19T12:34:17.946Z</time></trkpt><trkpt lat="45.51701" lon="8.5879183"><ele>178.0</ele><time>2026-04-19T12:34:18.947Z</time></trkpt><trkpt lat="45.517035" lon="8.5880583"><ele>178.0</ele><time>2026-04-19T12:34:19.947Z</time></trkpt><trkpt lat="45.51706" lon="8.5882167"><ele>178.0</ele><time>2026-04-19T12:34:20.946Z</time></trkpt><trkpt lat="45.51709" lon="8.5883667"><ele>178.0</ele><time>2026-04-19T12:34:21.946Z</time></trkpt><trkpt lat="45.517115" lon="8.5885167"><ele>178.0</ele><time>2026-04-19T12:34:22.946Z</time></trkpt><trkpt lat="45.51714" lon="8.5886733"><ele>178.0</ele><time>2026-04-19T12:34:23.947Z</time></trkpt><trkpt lat="45.5171717" lon="8.5888267"><ele>178.0</ele><time>2026-04-19T12:34:24.947Z</time></trkpt><trkpt lat="45.5172033" lon="8.58899"><ele>178.0</ele><time>2026-04-19T12:34:25.946Z</time></trkpt><trkpt lat="45.5172417" lon="8.5891567"><ele>178.0</ele><time>2026-04-19T12:34:26.946Z</time></trkpt><trkpt lat="45.5172617" lon="8.58932"><ele>178.0</ele><time>2026-04-19T12:34:27.946Z</time></trkpt><trkpt lat="45.51728" lon="8.5894783"><ele>178.0</ele><time>2026-04-19T12:34:28.946Z</time></trkpt><trkpt lat="45.5173083" lon="8.5896217"><ele>178.0</ele><time>2026-04-19T12:34:29.947Z</time></trkpt><trkpt lat="45.5173383" lon="8.5897483"><ele>178.0</ele><time>2026-04-19T12:34:30.946Z</time></trkpt><trkpt lat="45.5173633" lon="8.5898733"><ele>178.0</ele><time>2026-04-19T12:34:31.946Z</time></trkpt><trkpt lat="45.5173833" lon="8.5899883"><ele>178.0</ele><time>2026-04-19T12:34:32.947Z</time></trkpt><trkpt lat="45.5173983" lon="8.590085"><ele>178.0</ele><time>2026-04-19T12:34:33.947Z</time></trkpt><trkpt lat="45.51741" lon="8.59018"><ele>178.0</ele><time>2026-04-19T12:34:35.946Z</time></trkpt><trkpt lat="45.517415" lon="8.5903067"><ele>178.0</ele><time>2026-04-19T12:35:15.947Z</time></trkpt><trkpt lat="45.5173817" lon="8.5904117"><ele>178.0</ele><time>2026-04-19T12:35:17.947Z</time></trkpt><trkpt lat="45.5173083" lon="8.590445"><ele>178.0</ele><time>2026-04-19T12:35:18.947Z</time></trkpt><trkpt lat="45.5172283" lon="8.590485"><ele>178.0</ele><time>2026-04-19T12:35:19.947Z</time></trkpt><trkpt lat="45.5171483" lon="8.5905217"><ele>178.0</ele><time>2026-04-19T12:35:20.947Z</time></trkpt><trkpt lat="45.517065" lon="8.590565"><ele>178.0</ele><time>2026-04-19T12:35:21.947Z</time></trkpt><trkpt lat="45.51698" lon="8.590605"><ele>178.0</ele><time>2026-04-19T12:35:22.946Z</time></trkpt><trkpt lat="45.5168917" lon="8.5906383"><ele>178.0</ele><time>2026-04-19T12:35:23.947Z</time></trkpt><trkpt lat="45.5168033" lon="8.5906767"><ele>178.0</ele><time>2026-04-19T12:35:24.947Z</time></trkpt><trkpt lat="45.5167" lon="8.59073"><ele>178.0</ele><time>2026-04-19T12:35:25.947Z</time></trkpt><trkpt lat="45.51659" lon="8.5907983"><ele>178.0</ele><time>2026-04-19T12:35:26.947Z</time></trkpt><trkpt lat="45.5164767" lon="8.5908517"><ele>178.0</ele><time>2026-04-19T12:35:27.947Z</time></trkpt><trkpt lat="45.51635" lon="8.5909217"><ele>178.0</ele><time>2026-04-19T12:35:28.946Z</time></trkpt><trkpt lat="45.516215" lon="8.59099"><ele>178.0</ele><time>2026-04-19T12:35:29.946Z</time></trkpt><trkpt lat="45.516075" lon="8.591055"><ele>178.0</ele><time>2026-04-19T12:35:30.946Z</time></trkpt><trkpt lat="45.5159383" lon="8.5911333"><ele>178.0</ele><time>2026-04-19T12:35:31.947Z</time></trkpt><trkpt lat="45.515795" lon="8.5911983"><ele>178.0</ele><time>2026-04-19T12:35:32.947Z</time></trkpt><trkpt lat="45.51565" lon="8.5912767"><ele>177.33333333333334</ele><time>2026-04-19T12:35:33.947Z</time></trkpt><trkpt lat="45.5155033" lon="8.5913483"><ele>176.66666666666666</ele><time>2026-04-19T12:35:34.946Z</time></trkpt><trkpt lat="45.51535" lon="8.5914333"><ele>176.0</ele><time>2026-04-19T12:35:35.947Z</time></trkpt><trkpt lat="45.51519" lon="8.5915067"><ele>176.0</ele><time>2026-04-19T12:35:36.947Z</time></trkpt><trkpt lat="45.51503" lon="8.591595"><ele>176.0</ele><time>2026-04-19T12:35:37.947Z</time></trkpt><trkpt lat="45.5148767" lon="8.591675"><ele>176.0</ele><time>2026-04-19T12:35:38.947Z</time></trkpt><trkpt lat="45.514715" lon="8.591745"><ele>176.0</ele><time>2026-04-19T12:35:39.947Z</time></trkpt><trkpt lat="45.5145533" lon="8.5918233"><ele>176.0</ele><time>2026-04-19T12:35:40.947Z</time></trkpt><trkpt lat="45.514395" lon="8.59191"><ele>176.0</ele><time>2026-04-19T12:35:41.947Z</time></trkpt><trkpt lat="45.5142367" lon="8.59199"><ele>176.0</ele><time>2026-04-19T12:35:42.946Z</time></trkpt><trkpt lat="45.5140833" lon="8.5920817"><ele>176.0</ele><time>2026-04-19T12:35:43.946Z</time></trkpt><trkpt lat="45.51393" lon="8.5921517"><ele>176.0</ele><time>2026-04-19T12:35:44.947Z</time></trkpt><trkpt lat="45.51377" lon="8.5922317"><ele>176.0</ele><time>2026-04-19T12:35:45.947Z</time></trkpt><trkpt lat="45.5136133" lon="8.592315"><ele>176.0</ele><time>2026-04-19T12:35:46.947Z</time></trkpt><trkpt lat="45.5134567" lon="8.5924033"><ele>176.0</ele><time>2026-04-19T12:35:47.946Z</time></trkpt><trkpt lat="45.5133033" lon="8.5924833"><ele>176.0</ele><time>2026-04-19T12:35:48.947Z</time></trkpt><trkpt lat="45.5131467" lon="8.59256"><ele>176.0</ele><time>2026-04-19T12:35:49.946Z</time></trkpt><trkpt lat="45.51299" lon="8.5926383"><ele>176.0</ele><time>2026-04-19T12:35:50.945Z</time></trkpt><trkpt lat="45.5128417" lon="8.5927167"><ele>175.66666666666666</ele><time>2026-04-19T12:35:51.946Z</time></trkpt><trkpt lat="45.5126883" lon="8.5927933"><ele>175.33333333333334</ele><time>2026-04-19T12:35:52.945Z</time></trkpt><trkpt lat="45.5125433" lon="8.5928717"><ele>175.0</ele><time>2026-04-19T12:35:53.946Z</time></trkpt><trkpt lat="45.51239" lon="8.5929483"><ele>175.0</ele><time>2026-04-19T12:35:54.946Z</time></trkpt><trkpt lat="45.5122433" lon="8.5930317"><ele>175.0</ele><time>2026-04-19T12:35:55.945Z</time></trkpt><trkpt lat="45.51209" lon="8.59311"><ele>175.0</ele><time>2026-04-19T12:35:56.945Z</time></trkpt><trkpt lat="45.5119367" lon="8.5931783"><ele>175.0</ele><time>2026-04-19T12:35:57.945Z</time></trkpt><trkpt lat="45.51178" lon="8.5932533"><ele>175.0</ele><time>2026-04-19T12:35:58.946Z</time></trkpt><trkpt lat="45.5116267" lon="8.593325"><ele>175.0</ele><time>2026-04-19T12:35:59.945Z</time></trkpt><trkpt lat="45.5114833" lon="8.5934033"><ele>175.0</ele><time>2026-04-19T12:36:00.945Z</time></trkpt><trkpt lat="45.511335" lon="8.5934867"><ele>175.0</ele><time>2026-04-19T12:36:01.945Z</time></trkpt><trkpt lat="45.5111917" lon="8.5935717"><ele>175.0</ele><time>2026-04-19T12:36:02.946Z</time></trkpt><trkpt lat="45.511045" lon="8.5936467"><ele>175.0</ele><time>2026-04-19T12:36:03.945Z</time></trkpt><trkpt lat="45.510895" lon="8.5937333"><ele>175.0</ele><time>2026-04-19T12:36:04.945Z</time></trkpt><trkpt lat="45.51074" lon="8.5938233"><ele>175.0</ele><time>2026-04-19T12:36:05.946Z</time></trkpt><trkpt lat="45.5105983" lon="8.593925"><ele>175.0</ele><time>2026-04-19T12:36:06.946Z</time></trkpt><trkpt lat="45.5104583" lon="8.5940367"><ele>175.0</ele><time>2026-04-19T12:36:07.946Z</time></trkpt><trkpt lat="45.51032" lon="8.5941467"><ele>175.0</ele><time>2026-04-19T12:36:08.946Z</time></trkpt><trkpt lat="45.5101733" lon="8.59426"><ele>174.66666666666669</ele><time>2026-04-19T12:36:09.945Z</time></trkpt><trkpt lat="45.5100283" lon="8.5943767"><ele>174.33333333333334</ele><time>2026-04-19T12:36:10.945Z</time></trkpt><trkpt lat="45.509885" lon="8.59449"><ele>174.0</ele><time>2026-04-19T12:36:11.946Z</time></trkpt><trkpt lat="45.5097367" lon="8.5945967"><ele>174.0</ele><time>2026-04-19T12:36:12.946Z</time></trkpt><trkpt lat="45.509595" lon="8.5947083"><ele>174.0</ele><time>2026-04-19T12:36:13.946Z</time></trkpt><trkpt lat="45.5094533" lon="8.594825"><ele>174.0</ele><time>2026-04-19T12:36:14.946Z</time></trkpt><trkpt lat="45.5093083" lon="8.5949433"><ele>173.66666666666666</ele><time>2026-04-19T12:36:15.946Z</time></trkpt><trkpt lat="45.5091667" lon="8.5950567"><ele>173.33333333333331</ele><time>2026-04-19T12:36:16.945Z</time></trkpt><trkpt lat="45.5090167" lon="8.5951767"><ele>173.0</ele><time>2026-04-19T12:36:17.945Z</time></trkpt><trkpt lat="45.5088683" lon="8.59529"><ele>172.66666666666666</ele><time>2026-04-19T12:36:18.945Z</time></trkpt><trkpt lat="45.508725" lon="8.59541"><ele>172.33333333333334</ele><time>2026-04-19T12:36:19.946Z</time></trkpt><trkpt lat="45.5085783" lon="8.5955317"><ele>172.0</ele><time>2026-04-19T12:36:20.946Z</time></trkpt><trkpt lat="45.5084217" lon="8.59565"><ele>172.0</ele><time>2026-04-19T12:36:21.945Z</time></trkpt><trkpt lat="45.50827" lon="8.5957667"><ele>172.0</ele><time>2026-04-19T12:36:22.946Z</time></trkpt><trkpt lat="45.5081133" lon="8.5958833"><ele>172.0</ele><time>2026-04-19T12:36:23.945Z</time></trkpt><trkpt lat="45.507955" lon="8.596005"><ele>172.0</ele><time>2026-04-19T12:36:24.946Z</time></trkpt><trkpt lat="45.5078033" lon="8.5961217"><ele>172.0</ele><time>2026-04-19T12:36:25.946Z</time></trkpt><trkpt lat="45.5076483" lon="8.596245"><ele>172.0</ele><time>2026-04-19T12:36:26.945Z</time></trkpt><trkpt lat="45.5074967" lon="8.59636"><ele>172.0</ele><time>2026-04-19T12:36:27.945Z</time></trkpt><trkpt lat="45.50735" lon="8.5964833"><ele>172.0</ele><time>2026-04-19T12:36:28.945Z</time></trkpt><trkpt lat="45.5071917" lon="8.5966"><ele>172.0</ele><time>2026-04-19T12:36:29.946Z</time></trkpt><trkpt lat="45.5070383" lon="8.5967217"><ele>172.33333333333334</ele><time>2026-04-19T12:36:30.946Z</time></trkpt><trkpt lat="45.5068833" lon="8.596835"><ele>172.66666666666666</ele><time>2026-04-19T12:36:31.945Z</time></trkpt><trkpt lat="45.5067317" lon="8.5969517"><ele>173.0</ele><time>2026-04-19T12:36:32.946Z</time></trkpt><trkpt lat="45.50658" lon="8.5970733"><ele>172.0</ele><time>2026-04-19T12:36:33.946Z</time></trkpt><trkpt lat="45.5064317" lon="8.5972033"><ele>171.0</ele><time>2026-04-19T12:36:34.945Z</time></trkpt><trkpt lat="45.5062833" lon="8.5973267"><ele>170.0</ele><time>2026-04-19T12:36:35.946Z</time></trkpt><trkpt lat="45.5061283" lon="8.597445"><ele>170.0</ele><time>2026-04-19T12:36:36.946Z</time></trkpt><trkpt lat="45.5059733" lon="8.597565"><ele>170.0</ele><time>2026-04-19T12:36:37.945Z</time></trkpt><trkpt lat="45.505815" lon="8.5976817"><ele>170.0</ele><time>2026-04-19T12:36:38.945Z</time></trkpt><trkpt lat="45.5056633" lon="8.5978033"><ele>170.33333333333331</ele><time>2026-04-19T12:36:39.946Z</time></trkpt><trkpt lat="45.5055117" lon="8.5979233"><ele>170.66666666666666</ele><time>2026-04-19T12:36:40.946Z</time></trkpt><trkpt lat="45.505365" lon="8.5980417"><ele>171.0</ele><time>2026-04-19T12:36:41.946Z</time></trkpt><trkpt lat="45.5052017" lon="8.5981633"><ele>171.0</ele><time>2026-04-19T12:36:42.946Z</time></trkpt><trkpt lat="45.505045" lon="8.5982817"><ele>171.0</ele><time>2026-04-19T12:36:43.946Z</time></trkpt><trkpt lat="45.504895" lon="8.5983983"><ele>171.0</ele><time>2026-04-19T12:36:44.946Z</time></trkpt><trkpt lat="45.5047417" lon="8.5985233"><ele>171.0</ele><time>2026-04-19T12:36:45.946Z</time></trkpt><trkpt lat="45.504585" lon="8.5986417"><ele>171.0</ele><time>2026-04-19T12:36:46.945Z</time></trkpt><trkpt lat="45.504435" lon="8.5987617"><ele>171.0</ele><time>2026-04-19T12:36:47.945Z</time></trkpt><trkpt lat="45.5042733" lon="8.598875"><ele>170.33333333333334</ele><time>2026-04-19T12:36:48.946Z</time></trkpt><trkpt lat="45.5041217" lon="8.599"><ele>169.66666666666669</ele><time>2026-04-19T12:36:49.945Z</time></trkpt><trkpt lat="45.5039733" lon="8.5991267"><ele>169.0</ele><time>2026-04-19T12:36:50.945Z</time></trkpt><trkpt lat="45.5038217" lon="8.5992533"><ele>168.33333333333334</ele><time>2026-04-19T12:36:51.946Z</time></trkpt><trkpt lat="45.50367" lon="8.5993783"><ele>167.66666666666666</ele><time>2026-04-19T12:36:52.946Z</time></trkpt><trkpt lat="45.5035183" lon="8.5995017"><ele>167.0</ele><time>2026-04-19T12:36:53.945Z</time></trkpt><trkpt lat="45.50337" lon="8.5996267"><ele>167.0</ele><time>2026-04-19T12:36:54.946Z</time></trkpt><trkpt lat="45.50323" lon="8.599745"><ele>167.0</ele><time>2026-04-19T12:36:55.946Z</time></trkpt><trkpt lat="45.5030767" lon="8.59986"><ele>167.0</ele><time>2026-04-19T12:36:56.946Z</time></trkpt><trkpt lat="45.5029217" lon="8.5999833"><ele>166.66666666666666</ele><time>2026-04-19T12:36:57.946Z</time></trkpt><trkpt lat="45.502765" lon="8.600105"><ele>166.33333333333334</ele><time>2026-04-19T12:36:58.945Z</time></trkpt><trkpt lat="45.5026133" lon="8.6002217"><ele>166.0</ele><time>2026-04-19T12:36:59.946Z</time></trkpt><trkpt lat="45.5024567" lon="8.6003433"><ele>166.0</ele><time>2026-04-19T12:37:00.946Z</time></trkpt><trkpt lat="45.502295" lon="8.6004683"><ele>166.0</ele><time>2026-04-19T12:37:01.945Z</time></trkpt><trkpt lat="45.5021383" lon="8.60059"><ele>166.0</ele><time>2026-04-19T12:37:02.946Z</time></trkpt><trkpt lat="45.50198" lon="8.6007183"><ele>166.33333333333334</ele><time>2026-04-19T12:37:03.946Z</time></trkpt><trkpt lat="45.5018183" lon="8.6008367"><ele>166.66666666666666</ele><time>2026-04-19T12:37:04.946Z</time></trkpt><trkpt lat="45.5016567" lon="8.60096"><ele>167.0</ele><time>2026-04-19T12:37:05.945Z</time></trkpt><trkpt lat="45.5014967" lon="8.6010783"><ele>167.33333333333331</ele><time>2026-04-19T12:37:06.945Z</time></trkpt><trkpt lat="45.5013433" lon="8.601205"><ele>167.66666666666666</ele><time>2026-04-19T12:37:07.945Z</time></trkpt><trkpt lat="45.5011883" lon="8.6013333"><ele>168.0</ele><time>2026-04-19T12:37:08.946Z</time></trkpt><trkpt lat="45.501035" lon="8.60146"><ele>167.33333333333334</ele><time>2026-04-19T12:37:09.946Z</time></trkpt><trkpt lat="45.50088" lon="8.601585"><ele>166.66666666666669</ele><time>2026-04-19T12:37:10.946Z</time></trkpt><trkpt lat="45.50072" lon="8.6017083"><ele>166.0</ele><time>2026-04-19T12:37:11.946Z</time></trkpt><trkpt lat="45.5005617" lon="8.6018317"><ele>166.0</ele><time>2026-04-19T12:37:12.945Z</time></trkpt><trkpt lat="45.5004033" lon="8.6019617"><ele>166.0</ele><time>2026-04-19T12:37:13.946Z</time></trkpt><trkpt lat="45.5002533" lon="8.602085"><ele>166.0</ele><time>2026-04-19T12:37:14.945Z</time></trkpt><trkpt lat="45.5000933" lon="8.602205"><ele>166.0</ele><time>2026-04-19T12:37:15.945Z</time></trkpt><trkpt lat="45.4999383" lon="8.6023333"><ele>166.0</ele><time>2026-04-19T12:37:16.945Z</time></trkpt><trkpt lat="45.499775" lon="8.6024583"><ele>166.0</ele><time>2026-04-19T12:37:17.945Z</time></trkpt><trkpt lat="45.49962" lon="8.6025833"><ele>166.0</ele><time>2026-04-19T12:37:18.946Z</time></trkpt><trkpt lat="45.4994617" lon="8.6027067"><ele>166.0</ele><time>2026-04-19T12:37:19.946Z</time></trkpt><trkpt lat="45.4992983" lon="8.6028317"><ele>166.0</ele><time>2026-04-19T12:37:20.946Z</time></trkpt><trkpt lat="45.499135" lon="8.6029617"><ele>166.33333333333334</ele><time>2026-04-19T12:37:21.946Z</time></trkpt><trkpt lat="45.4989817" lon="8.6031"><ele>166.66666666666666</ele><time>2026-04-19T12:37:22.945Z</time></trkpt><trkpt lat="45.4988367" lon="8.6032283"><ele>167.0</ele><time>2026-04-19T12:37:23.945Z</time></trkpt><trkpt lat="45.4987017" lon="8.6033633"><ele>166.33333333333331</ele><time>2026-04-19T12:37:24.946Z</time></trkpt><trkpt lat="45.4985683" lon="8.6035083"><ele>165.66666666666666</ele><time>2026-04-19T12:37:25.946Z</time></trkpt><trkpt lat="45.4984417" lon="8.6036533"><ele>165.0</ele><time>2026-04-19T12:37:26.945Z</time></trkpt><trkpt lat="45.4983233" lon="8.6038"><ele>164.75</ele><time>2026-04-19T12:37:27.945Z</time></trkpt><trkpt lat="45.4982167" lon="8.6039317"><ele>164.5</ele><time>2026-04-19T12:37:28.946Z</time></trkpt><trkpt lat="45.4981217" lon="8.60406"><ele>164.25</ele><time>2026-04-19T12:37:29.946Z</time></trkpt><trkpt lat="45.498025" lon="8.6041717"><ele>164.0</ele><time>2026-04-19T12:37:30.945Z</time></trkpt><trkpt lat="45.4979333" lon="8.60425"><ele>164.39999999999998</ele><time>2026-04-19T12:37:31.946Z</time></trkpt><trkpt lat="45.4978383" lon="8.6042967"><ele>164.8</ele><time>2026-04-19T12:37:32.945Z</time></trkpt><trkpt lat="45.4977467" lon="8.604295"><ele>165.2</ele><time>2026-04-19T12:37:33.946Z</time></trkpt><trkpt lat="45.4976633" lon="8.6042467"><ele>165.60000000000002</ele><time>2026-04-19T12:37:34.946Z</time></trkpt><trkpt lat="45.4975917" lon="8.6041883"><ele>166.0</ele><time>2026-04-19T12:37:35.946Z</time></trkpt><trkpt lat="45.4975133" lon="8.60414"><ele>166.0</ele><time>2026-04-19T12:37:36.946Z</time></trkpt><trkpt lat="45.49744" lon="8.6041117"><ele>166.0</ele><time>2026-04-19T12:37:37.946Z</time></trkpt><trkpt lat="45.4973717" lon="8.6041217"><ele>166.0</ele><time>2026-04-19T12:37:38.946Z</time></trkpt><trkpt lat="45.4973017" lon="8.60418"><ele>166.0</ele><time>2026-04-19T12:37:39.946Z</time></trkpt><trkpt lat="45.497235" lon="8.6042967"><ele>166.0</ele><time>2026-04-19T12:37:40.946Z</time></trkpt><trkpt lat="45.4971933" lon="8.60444"><ele>166.0</ele><time>2026-04-19T12:37:41.946Z</time></trkpt><trkpt lat="45.4971617" lon="8.6045883"><ele>166.0</ele><time>2026-04-19T12:37:42.945Z</time></trkpt><trkpt lat="45.49709" lon="8.6047117"><ele>166.0</ele><time>2026-04-19T12:37:43.946Z</time></trkpt><trkpt lat="45.4969967" lon="8.604805"><ele>166.0</ele><time>2026-04-19T12:37:44.946Z</time></trkpt><trkpt lat="45.4968817" lon="8.604865"><ele>166.0</ele><time>2026-04-19T12:37:45.945Z</time></trkpt><trkpt lat="45.496765" lon="8.6049"><ele>165.75</ele><time>2026-04-19T12:37:46.946Z</time></trkpt><trkpt lat="45.4966383" lon="8.6049683"><ele>165.5</ele><time>2026-04-19T12:37:47.946Z</time></trkpt><trkpt lat="45.4965033" lon="8.6050467"><ele>165.25</ele><time>2026-04-19T12:37:48.945Z</time></trkpt><trkpt lat="45.49636" lon="8.6051417"><ele>165.0</ele><time>2026-04-19T12:37:49.946Z</time></trkpt><trkpt lat="45.496215" lon="8.6052367"><ele>164.66666666666666</ele><time>2026-04-19T12:37:50.946Z</time></trkpt><trkpt lat="45.4960633" lon="8.605335"><ele>164.33333333333331</ele><time>2026-04-19T12:37:51.946Z</time></trkpt><trkpt lat="45.49591" lon="8.6054283"><ele>164.0</ele><time>2026-04-19T12:37:52.946Z</time></trkpt><trkpt lat="45.4957467" lon="8.6055267"><ele>164.0</ele><time>2026-04-19T12:37:53.946Z</time></trkpt><trkpt lat="45.49559" lon="8.6056133"><ele>164.0</ele><time>2026-04-19T12:37:54.946Z</time></trkpt><trkpt lat="45.4954417" lon="8.605705"><ele>164.0</ele><time>2026-04-19T12:37:55.945Z</time></trkpt><trkpt lat="45.4952883" lon="8.6057917"><ele>164.66666666666666</ele><time>2026-04-19T12:37:56.946Z</time></trkpt><trkpt lat="45.495125" lon="8.6058833"><ele>165.33333333333334</ele><time>2026-04-19T12:37:57.946Z</time></trkpt><trkpt lat="45.4949583" lon="8.6059783"><ele>166.0</ele><time>2026-04-19T12:37:58.945Z</time></trkpt><trkpt lat="45.4947917" lon="8.6060833"><ele>165.66666666666669</ele><time>2026-04-19T12:37:59.945Z</time></trkpt><trkpt lat="45.4946217" lon="8.60617"><ele>165.33333333333334</ele><time>2026-04-19T12:38:00.945Z</time></trkpt><trkpt lat="45.494455" lon="8.6062717"><ele>165.0</ele><time>2026-04-19T12:38:01.946Z</time></trkpt><trkpt lat="45.49429" lon="8.6063683"><ele>165.0</ele><time>2026-04-19T12:38:02.945Z</time></trkpt><trkpt lat="45.4941283" lon="8.606475"><ele>165.0</ele><time>2026-04-19T12:38:03.946Z</time></trkpt><trkpt lat="45.4939667" lon="8.6065733"><ele>165.0</ele><time>2026-04-19T12:38:04.945Z</time></trkpt><trkpt lat="45.4937933" lon="8.6066683"><ele>165.0</ele><time>2026-04-19T12:38:05.945Z</time></trkpt><trkpt lat="45.493625" lon="8.60677"><ele>165.0</ele><time>2026-04-19T12:38:06.945Z</time></trkpt><trkpt lat="45.4934567" lon="8.6068767"><ele>165.0</ele><time>2026-04-19T12:38:07.946Z</time></trkpt><trkpt lat="45.493295" lon="8.60698"><ele>164.66666666666666</ele><time>2026-04-19T12:38:08.946Z</time></trkpt><trkpt lat="45.493135" lon="8.6070867"><ele>164.33333333333331</ele><time>2026-04-19T12:38:09.945Z</time></trkpt><trkpt lat="45.4929667" lon="8.607185"><ele>164.0</ele><time>2026-04-19T12:38:10.946Z</time></trkpt><trkpt lat="45.4927867" lon="8.6072783"><ele>163.66666666666666</ele><time>2026-04-19T12:38:11.946Z</time></trkpt><trkpt lat="45.4926167" lon="8.6073783"><ele>163.33333333333334</ele><time>2026-04-19T12:38:12.946Z</time></trkpt><trkpt lat="45.4924483" lon="8.6074633"><ele>163.0</ele><time>2026-04-19T12:38:13.946Z</time></trkpt><trkpt lat="45.49228" lon="8.6075633"><ele>163.0</ele><time>2026-04-19T12:38:14.946Z</time></trkpt><trkpt lat="45.4921167" lon="8.607665"><ele>163.0</ele><time>2026-04-19T12:38:15.946Z</time></trkpt><trkpt lat="45.4919483" lon="8.607755"><ele>163.0</ele><time>2026-04-19T12:38:16.945Z</time></trkpt><trkpt lat="45.4917783" lon="8.6078417"><ele>162.66666666666669</ele><time>2026-04-19T12:38:17.946Z</time></trkpt><trkpt lat="45.49161" lon="8.6079367"><ele>162.33333333333334</ele><time>2026-04-19T12:38:18.945Z</time></trkpt><trkpt lat="45.4914433" lon="8.6080417"><ele>162.0</ele><time>2026-04-19T12:38:19.946Z</time></trkpt><trkpt lat="45.491275" lon="8.6081467"><ele>162.0</ele><time>2026-04-19T12:38:20.946Z</time></trkpt><trkpt lat="45.49111" lon="8.608255"><ele>162.0</ele><time>2026-04-19T12:38:21.946Z</time></trkpt><trkpt lat="45.490945" lon="8.60835"><ele>162.0</ele><time>2026-04-19T12:38:22.945Z</time></trkpt><trkpt lat="45.4907733" lon="8.6084417"><ele>162.0</ele><time>2026-04-19T12:38:23.946Z</time></trkpt><trkpt lat="45.4906117" lon="8.60853"><ele>162.0</ele><time>2026-04-19T12:38:24.946Z</time></trkpt><trkpt lat="45.490455" lon="8.6086167"><ele>162.0</ele><time>2026-04-19T12:38:25.945Z</time></trkpt><trkpt lat="45.490315" lon="8.6086967"><ele>162.25</ele><time>2026-04-19T12:38:26.945Z</time></trkpt><trkpt lat="45.4901767" lon="8.60877"><ele>162.5</ele><time>2026-04-19T12:38:27.946Z</time></trkpt><trkpt lat="45.4900417" lon="8.6088283"><ele>162.75</ele><time>2026-04-19T12:38:28.945Z</time></trkpt><trkpt lat="45.4899117" lon="8.608875"><ele>163.0</ele><time>2026-04-19T12:38:29.945Z</time></trkpt><trkpt lat="45.489795" lon="8.60892"><ele>163.0</ele><time>2026-04-19T12:38:30.945Z</time></trkpt><trkpt lat="45.4897" lon="8.6089517"><ele>163.0</ele><time>2026-04-19T12:38:31.945Z</time></trkpt><trkpt lat="45.4896217" lon="8.6089817"><ele>163.0</ele><time>2026-04-19T12:38:32.946Z</time></trkpt><trkpt lat="45.4895233" lon="8.609005"><ele>163.0</ele><time>2026-04-19T12:38:34.946Z</time></trkpt><trkpt lat="45.48946" lon="8.6090483"><ele>163.0</ele><time>2026-04-19T12:38:37.945Z</time></trkpt><trkpt lat="45.4894717" lon="8.60916"><ele>163.0</ele><time>2026-04-19T12:38:39.945Z</time></trkpt><trkpt lat="45.4894933" lon="8.6092717"><ele>162.8</ele><time>2026-04-19T12:38:40.946Z</time></trkpt><trkpt lat="45.489515" lon="8.6094017"><ele>162.60000000000002</ele><time>2026-04-19T12:38:41.945Z</time></trkpt><trkpt lat="45.489535" lon="8.60954"><ele>162.39999999999998</ele><time>2026-04-19T12:38:42.946Z</time></trkpt><trkpt lat="45.489555" lon="8.6096867"><ele>162.2</ele><time>2026-04-19T12:38:43.945Z</time></trkpt><trkpt lat="45.489575" lon="8.6098367"><ele>162.0</ele><time>2026-04-19T12:38:44.945Z</time></trkpt><trkpt lat="45.4895983" lon="8.61"><ele>161.75</ele><time>2026-04-19T12:38:45.946Z</time></trkpt><trkpt lat="45.48962" lon="8.6101817"><ele>161.5</ele><time>2026-04-19T12:38:46.946Z</time></trkpt><trkpt lat="45.4896483" lon="8.6103717"><ele>161.25</ele><time>2026-04-19T12:38:47.946Z</time></trkpt><trkpt lat="45.4896817" lon="8.6105717"><ele>161.0</ele><time>2026-04-19T12:38:48.946Z</time></trkpt><trkpt lat="45.489715" lon="8.610765"><ele>161.0</ele><time>2026-04-19T12:38:49.946Z</time></trkpt><trkpt lat="45.4897433" lon="8.61096"><ele>161.0</ele><time>2026-04-19T12:38:50.945Z</time></trkpt><trkpt lat="45.489765" lon="8.6111667"><ele>161.0</ele><time>2026-04-19T12:38:51.945Z</time></trkpt><trkpt lat="45.4897867" lon="8.6113867"><ele>161.0</ele><time>2026-04-19T12:38:52.946Z</time></trkpt><trkpt lat="45.4898167" lon="8.6116133"><ele>161.0</ele><time>2026-04-19T12:38:53.946Z</time></trkpt><trkpt lat="45.4898367" lon="8.61184"><ele>161.0</ele><time>2026-04-19T12:38:54.945Z</time></trkpt><trkpt lat="45.4898333" lon="8.6120833"><ele>161.0</ele><time>2026-04-19T12:38:55.945Z</time></trkpt><trkpt lat="45.48983" lon="8.61231"><ele>161.0</ele><time>2026-04-19T12:38:56.946Z</time></trkpt><trkpt lat="45.489825" lon="8.6125317"><ele>161.0</ele><time>2026-04-19T12:38:57.945Z</time></trkpt><trkpt lat="45.4898267" lon="8.612745"><ele>161.0</ele><time>2026-04-19T12:38:58.945Z</time></trkpt><trkpt lat="45.4898317" lon="8.6129483"><ele>161.0</ele><time>2026-04-19T12:38:59.946Z</time></trkpt><trkpt lat="45.489835" lon="8.6131417"><ele>161.20000000000002</ele><time>2026-04-19T12:39:00.945Z</time></trkpt><trkpt lat="45.4898367" lon="8.6133117"><ele>161.4</ele><time>2026-04-19T12:39:01.946Z</time></trkpt><trkpt lat="45.4898417" lon="8.61346"><ele>161.6</ele><time>2026-04-19T12:39:02.945Z</time></trkpt><trkpt lat="45.4898433" lon="8.6136017"><ele>161.8</ele><time>2026-04-19T12:39:03.946Z</time></trkpt><trkpt lat="45.489845" lon="8.6137233"><ele>162.0</ele><time>2026-04-19T12:39:04.945Z</time></trkpt><trkpt lat="45.4898483" lon="8.6138533"><ele>162.0</ele><time>2026-04-19T12:39:05.945Z</time></trkpt><trkpt lat="45.4898633" lon="8.6140083"><ele>162.0</ele><time>2026-04-19T12:39:06.946Z</time></trkpt><trkpt lat="45.4898767" lon="8.6141917"><ele>162.0</ele><time>2026-04-19T12:39:07.946Z</time></trkpt><trkpt lat="45.4899" lon="8.6143817"><ele>162.0</ele><time>2026-04-19T12:39:08.946Z</time></trkpt><trkpt lat="45.489925" lon="8.6145783"><ele>162.25</ele><time>2026-04-19T12:39:09.946Z</time></trkpt><trkpt lat="45.489955" lon="8.6147867"><ele>162.5</ele><time>2026-04-19T12:39:10.945Z</time></trkpt><trkpt lat="45.4899767" lon="8.6149983"><ele>162.75</ele><time>2026-04-19T12:39:11.946Z</time></trkpt><trkpt lat="45.49" lon="8.61521"><ele>163.0</ele><time>2026-04-19T12:39:12.946Z</time></trkpt><trkpt lat="45.4900317" lon="8.61542"><ele>163.0</ele><time>2026-04-19T12:39:13.946Z</time></trkpt><trkpt lat="45.4900667" lon="8.6156383"><ele>163.0</ele><time>2026-04-19T12:39:14.946Z</time></trkpt><trkpt lat="45.4900983" lon="8.6158417"><ele>163.0</ele><time>2026-04-19T12:39:15.946Z</time></trkpt><trkpt lat="45.4901267" lon="8.6160367"><ele>163.0</ele><time>2026-04-19T12:39:16.946Z</time></trkpt><trkpt lat="45.4901517" lon="8.616225"><ele>162.8</ele><time>2026-04-19T12:39:17.946Z</time></trkpt><trkpt lat="45.4901783" lon="8.6163967"><ele>162.60000000000002</ele><time>2026-04-19T12:39:18.946Z</time></trkpt><trkpt lat="45.4902033" lon="8.6165533"><ele>162.39999999999998</ele><time>2026-04-19T12:39:19.946Z</time></trkpt><trkpt lat="45.490235" lon="8.6167"><ele>162.2</ele><time>2026-04-19T12:39:20.946Z</time></trkpt><trkpt lat="45.4902833" lon="8.6168317"><ele>162.0</ele><time>2026-04-19T12:39:21.945Z</time></trkpt><trkpt lat="45.4903433" lon="8.61696"><ele>161.75</ele><time>2026-04-19T12:39:22.945Z</time></trkpt><trkpt lat="45.4904" lon="8.6171"><ele>161.5</ele><time>2026-04-19T12:39:23.945Z</time></trkpt><trkpt lat="45.49044" lon="8.6172533"><ele>161.25</ele><time>2026-04-19T12:39:24.945Z</time></trkpt><trkpt lat="45.490465" lon="8.6174317"><ele>161.0</ele><time>2026-04-19T12:39:25.946Z</time></trkpt><trkpt lat="45.4904867" lon="8.6176233"><ele>161.0</ele><time>2026-04-19T12:39:26.945Z</time></trkpt><trkpt lat="45.4905133" lon="8.61781"><ele>161.0</ele><time>2026-04-19T12:39:27.946Z</time></trkpt><trkpt lat="45.49054" lon="8.6179983"><ele>161.0</ele><time>2026-04-19T12:39:28.945Z</time></trkpt><trkpt lat="45.49058" lon="8.6181917"><ele>161.0</ele><time>2026-04-19T12:39:29.946Z</time></trkpt><trkpt lat="45.4906067" lon="8.61837"><ele>161.0</ele><time>2026-04-19T12:39:30.945Z</time></trkpt><trkpt lat="45.49062" lon="8.6185433"><ele>161.0</ele><time>2026-04-19T12:39:31.946Z</time></trkpt><trkpt lat="45.4906233" lon="8.618705"><ele>161.0</ele><time>2026-04-19T12:39:32.946Z</time></trkpt><trkpt lat="45.490615" lon="8.618855"><ele>161.0</ele><time>2026-04-19T12:39:33.945Z</time></trkpt><trkpt lat="45.4905917" lon="8.6189933"><ele>161.0</ele><time>2026-04-19T12:39:34.945Z</time></trkpt><trkpt lat="45.4905317" lon="8.6191283"><ele>161.0</ele><time>2026-04-19T12:39:35.944Z</time></trkpt><trkpt lat="45.49046" lon="8.61926"><ele>161.0</ele><time>2026-04-19T12:39:36.944Z</time></trkpt><trkpt lat="45.4903783" lon="8.6193983"><ele>161.0</ele><time>2026-04-19T12:39:37.945Z</time></trkpt><trkpt lat="45.4902867" lon="8.6195433"><ele>161.0</ele><time>2026-04-19T12:39:38.944Z</time></trkpt><trkpt lat="45.4901983" lon="8.61969"><ele>160.5</ele><time>2026-04-19T12:39:39.945Z</time></trkpt><trkpt lat="45.4901167" lon="8.6198467"><ele>160.0</ele><time>2026-04-19T12:39:40.944Z</time></trkpt><trkpt lat="45.4900533" lon="8.6200017"><ele>159.5</ele><time>2026-04-19T12:39:41.945Z</time></trkpt><trkpt lat="45.4900067" lon="8.620155"><ele>159.0</ele><time>2026-04-19T12:39:42.945Z</time></trkpt><trkpt lat="45.4899783" lon="8.6203"><ele>159.0</ele><time>2026-04-19T12:39:43.945Z</time></trkpt><trkpt lat="45.4899833" lon="8.6204433"><ele>159.0</ele><time>2026-04-19T12:39:44.944Z</time></trkpt><trkpt lat="45.4900167" lon="8.6205767"><ele>159.0</ele><time>2026-04-19T12:39:45.944Z</time></trkpt><trkpt lat="45.4900683" lon="8.620715"><ele>159.0</ele><time>2026-04-19T12:39:46.944Z</time></trkpt><trkpt lat="45.4901283" lon="8.6208567"><ele>159.0</ele><time>2026-04-19T12:39:47.944Z</time></trkpt><trkpt lat="45.490185" lon="8.6210083"><ele>158.5</ele><time>2026-04-19T12:39:48.944Z</time></trkpt><trkpt lat="45.49023" lon="8.621165"><ele>158.0</ele><time>2026-04-19T12:39:49.945Z</time></trkpt><trkpt lat="45.4902617" lon="8.6213317"><ele>157.5</ele><time>2026-04-19T12:39:50.944Z</time></trkpt><trkpt lat="45.49028" lon="8.6215033"><ele>157.0</ele><time>2026-04-19T12:39:51.944Z</time></trkpt><trkpt lat="45.4902717" lon="8.621685"><ele>157.0</ele><time>2026-04-19T12:39:52.945Z</time></trkpt><trkpt lat="45.490245" lon="8.6218683"><ele>157.0</ele><time>2026-04-19T12:39:53.945Z</time></trkpt><trkpt lat="45.4901967" lon="8.6220383"><ele>157.0</ele><time>2026-04-19T12:39:54.945Z</time></trkpt><trkpt lat="45.4901333" lon="8.622205"><ele>157.0</ele><time>2026-04-19T12:39:55.945Z</time></trkpt><trkpt lat="45.4900583" lon="8.62237"><ele>157.25</ele><time>2026-04-19T12:39:56.944Z</time></trkpt><trkpt lat="45.4899717" lon="8.622525"><ele>157.5</ele><time>2026-04-19T12:39:57.945Z</time></trkpt><trkpt lat="45.4898883" lon="8.622685"><ele>157.75</ele><time>2026-04-19T12:39:58.945Z</time></trkpt><trkpt lat="45.4898117" lon="8.6228367"><ele>158.0</ele><time>2026-04-19T12:39:59.945Z</time></trkpt><trkpt lat="45.4897283" lon="8.6229933"><ele>158.25</ele><time>2026-04-19T12:40:00.945Z</time></trkpt><trkpt lat="45.48965" lon="8.6231383"><ele>158.5</ele><time>2026-04-19T12:40:01.945Z</time></trkpt><trkpt lat="45.489575" lon="8.6232717"><ele>158.75</ele><time>2026-04-19T12:40:02.944Z</time></trkpt><trkpt lat="45.4895167" lon="8.6234017"><ele>159.0</ele><time>2026-04-19T12:40:03.945Z</time></trkpt><trkpt lat="45.4894717" lon="8.6235233"><ele>158.66666666666666</ele><time>2026-04-19T12:40:04.945Z</time></trkpt><trkpt lat="45.4894383" lon="8.6236367"><ele>158.33333333333334</ele><time>2026-04-19T12:40:05.944Z</time></trkpt><trkpt lat="45.4894033" lon="8.6237517"><ele>158.0</ele><time>2026-04-19T12:40:06.945Z</time></trkpt><trkpt lat="45.4893633" lon="8.6238383"><ele>157.66666666666669</ele><time>2026-04-19T12:40:07.945Z</time></trkpt><trkpt lat="45.4893067" lon="8.6239033"><ele>157.33333333333334</ele><time>2026-04-19T12:40:08.944Z</time></trkpt><trkpt lat="45.4892367" lon="8.6239433"><ele>157.0</ele><time>2026-04-19T12:40:09.945Z</time></trkpt><trkpt lat="45.48915" lon="8.6239617"><ele>157.0</ele><time>2026-04-19T12:40:10.944Z</time></trkpt><trkpt lat="45.4890567" lon="8.623955"><ele>157.0</ele><time>2026-04-19T12:40:11.945Z</time></trkpt><trkpt lat="45.4889517" lon="8.6239433"><ele>157.0</ele><time>2026-04-19T12:40:12.944Z</time></trkpt><trkpt lat="45.4888467" lon="8.6239483"><ele>157.0</ele><time>2026-04-19T12:40:13.945Z</time></trkpt><trkpt lat="45.4887417" lon="8.6239483"><ele>157.0</ele><time>2026-04-19T12:40:14.944Z</time></trkpt><trkpt lat="45.4886333" lon="8.6239467"><ele>157.0</ele><time>2026-04-19T12:40:15.945Z</time></trkpt><trkpt lat="45.4885267" lon="8.623945"><ele>157.0</ele><time>2026-04-19T12:40:16.944Z</time></trkpt><trkpt lat="45.4884283" lon="8.6239517"><ele>157.0</ele><time>2026-04-19T12:40:17.945Z</time></trkpt><trkpt lat="45.4883267" lon="8.6239583"><ele>157.0</ele><time>2026-04-19T12:40:18.944Z</time></trkpt><trkpt lat="45.4882383" lon="8.623955"><ele>157.0</ele><time>2026-04-19T12:40:19.945Z</time></trkpt><trkpt lat="45.4881467" lon="8.6239467"><ele>157.0</ele><time>2026-04-19T12:40:20.944Z</time></trkpt><trkpt lat="45.4880667" lon="8.62395"><ele>157.0</ele><time>2026-04-19T12:40:21.945Z</time></trkpt><trkpt lat="45.4879633" lon="8.623975"><ele>157.0</ele><time>2026-04-19T12:40:23.945Z</time></trkpt><trkpt lat="45.4879183" lon="8.6240883"><ele>157.0</ele><time>2026-04-19T12:40:25.944Z</time></trkpt><trkpt lat="45.4879333" lon="8.6242717"><ele>157.0</ele><time>2026-04-19T12:40:27.945Z</time></trkpt><trkpt lat="45.4879383" lon="8.6243667"><ele>157.0</ele><time>2026-04-19T12:40:28.945Z</time></trkpt><trkpt lat="45.4879433" lon="8.62454"><ele>157.0</ele><time>2026-04-19T12:40:30.945Z</time></trkpt><trkpt lat="45.487945" lon="8.62463"><ele>157.0</ele><time>2026-04-19T12:40:31.944Z</time></trkpt><trkpt lat="45.4879667" lon="8.6247683"><ele>157.0</ele><time>2026-04-19T12:40:33.945Z</time></trkpt><trkpt lat="45.4880117" lon="8.6248383"><ele>157.0</ele><time>2026-04-19T12:40:35.945Z</time></trkpt><trkpt lat="45.4881117" lon="8.6248667"><ele>157.0</ele><time>2026-04-19T12:40:37.945Z</time></trkpt><trkpt lat="45.4881767" lon="8.6248383"><ele>157.0</ele><time>2026-04-19T12:40:38.945Z</time></trkpt><trkpt lat="45.488265" lon="8.6248083"><ele>157.0</ele><time>2026-04-19T12:40:39.945Z</time></trkpt><trkpt lat="45.48837" lon="8.624795"><ele>157.0</ele><time>2026-04-19T12:40:40.945Z</time></trkpt><trkpt lat="45.488485" lon="8.624785"><ele>157.0</ele><time>2026-04-19T12:40:41.945Z</time></trkpt><trkpt lat="45.4886083" lon="8.62479"><ele>157.0</ele><time>2026-04-19T12:40:42.945Z</time></trkpt><trkpt lat="45.4887333" lon="8.6248167"><ele>157.0</ele><time>2026-04-19T12:40:43.944Z</time></trkpt><trkpt lat="45.488865" lon="8.62486"><ele>157.0</ele><time>2026-04-19T12:40:44.944Z</time></trkpt><trkpt lat="45.489" lon="8.624925"><ele>157.0</ele><time>2026-04-19T12:40:45.945Z</time></trkpt><trkpt lat="45.4891383" lon="8.6250183"><ele>156.66666666666669</ele><time>2026-04-19T12:40:46.944Z</time></trkpt><trkpt lat="45.4892717" lon="8.62514"><ele>156.33333333333334</ele><time>2026-04-19T12:40:47.945Z</time></trkpt><trkpt lat="45.4893983" lon="8.625295"><ele>156.0</ele><time>2026-04-19T12:40:48.944Z</time></trkpt><trkpt lat="45.4895067" lon="8.6254867"><ele>156.66666666666666</ele><time>2026-04-19T12:40:49.945Z</time></trkpt><trkpt lat="45.4895933" lon="8.625695"><ele>157.33333333333331</ele><time>2026-04-19T12:40:50.945Z</time></trkpt><trkpt lat="45.48967" lon="8.6259067"><ele>158.0</ele><time>2026-04-19T12:40:51.945Z</time></trkpt><trkpt lat="45.48971" lon="8.6261417"><ele>158.0</ele><time>2026-04-19T12:40:52.944Z</time></trkpt><trkpt lat="45.4897433" lon="8.6263583"><ele>158.0</ele><time>2026-04-19T12:40:53.945Z</time></trkpt><trkpt lat="45.4897717" lon="8.62657"><ele>158.0</ele><time>2026-04-19T12:40:54.945Z</time></trkpt><trkpt lat="45.4898017" lon="8.62679"><ele>158.33333333333331</ele><time>2026-04-19T12:40:55.945Z</time></trkpt><trkpt lat="45.48983" lon="8.6270233"><ele>158.66666666666666</ele><time>2026-04-19T12:40:56.945Z</time></trkpt><trkpt lat="45.48986" lon="8.6272567"><ele>159.0</ele><time>2026-04-19T12:40:57.944Z</time></trkpt><trkpt lat="45.4898917" lon="8.6274933"><ele>159.0</ele><time>2026-04-19T12:40:58.945Z</time></trkpt><trkpt lat="45.4899233" lon="8.6277067"><ele>159.0</ele><time>2026-04-19T12:40:59.945Z</time></trkpt><trkpt lat="45.4899483" lon="8.6279033"><ele>159.0</ele><time>2026-04-19T12:41:00.945Z</time></trkpt><trkpt lat="45.4899633" lon="8.628065"><ele>159.0</ele><time>2026-04-19T12:41:01.945Z</time></trkpt><trkpt lat="45.4899867" lon="8.6281983"><ele>159.16666666666666</ele><time>2026-04-19T12:41:02.944Z</time></trkpt><trkpt lat="45.49001" lon="8.6283167"><ele>159.33333333333334</ele><time>2026-04-19T12:41:03.944Z</time></trkpt><trkpt lat="45.4900133" lon="8.62843"><ele>159.5</ele><time>2026-04-19T12:41:04.945Z</time></trkpt><trkpt lat="45.4900067" lon="8.6285367"><ele>159.66666666666669</ele><time>2026-04-19T12:41:05.944Z</time></trkpt><trkpt lat="45.489995" lon="8.6286433"><ele>159.83333333333334</ele><time>2026-04-19T12:41:06.944Z</time></trkpt><trkpt lat="45.4899967" lon="8.6287633"><ele>160.0</ele><time>2026-04-19T12:41:07.945Z</time></trkpt><trkpt lat="45.4900167" lon="8.6288967"><ele>160.2</ele><time>2026-04-19T12:41:08.945Z</time></trkpt><trkpt lat="45.490045" lon="8.629035"><ele>160.4</ele><time>2026-04-19T12:41:09.945Z</time></trkpt><trkpt lat="45.4900783" lon="8.6291717"><ele>160.60000000000002</ele><time>2026-04-19T12:41:10.945Z</time></trkpt><trkpt lat="45.4901133" lon="8.6293133"><ele>160.8</ele><time>2026-04-19T12:41:11.944Z</time></trkpt><trkpt lat="45.4901367" lon="8.629455"><ele>161.0</ele><time>2026-04-19T12:41:12.945Z</time></trkpt><trkpt lat="45.4901483" lon="8.6295817"><ele>160.66666666666666</ele><time>2026-04-19T12:41:13.945Z</time></trkpt><trkpt lat="45.490165" lon="8.6297033"><ele>160.33333333333331</ele><time>2026-04-19T12:41:14.945Z</time></trkpt><trkpt lat="45.4901867" lon="8.62983"><ele>160.0</ele><time>2026-04-19T12:41:15.945Z</time></trkpt><trkpt lat="45.490205" lon="8.6299367"><ele>159.66666666666666</ele><time>2026-04-19T12:41:16.944Z</time></trkpt><trkpt lat="45.4902267" lon="8.63003"><ele>159.33333333333334</ele><time>2026-04-19T12:41:17.944Z</time></trkpt><trkpt lat="45.4902533" lon="8.6301567"><ele>159.0</ele><time>2026-04-19T12:41:19.945Z</time></trkpt><trkpt lat="45.4902317" lon="8.630265"><ele>159.0</ele><time>2026-04-19T12:41:21.945Z</time></trkpt><trkpt lat="45.4901167" lon="8.6303333"><ele>159.0</ele><time>2026-04-19T12:41:23.945Z</time></trkpt><trkpt lat="45.4900317" lon="8.6303333"><ele>159.0</ele><time>2026-04-19T12:41:24.944Z</time></trkpt><trkpt lat="45.4899233" lon="8.6303167"><ele>159.0</ele><time>2026-04-19T12:41:25.944Z</time></trkpt><trkpt lat="45.48981" lon="8.630315"><ele>159.0</ele><time>2026-04-19T12:41:26.944Z</time></trkpt><trkpt lat="45.489695" lon="8.6303267"><ele>158.6</ele><time>2026-04-19T12:41:27.945Z</time></trkpt><trkpt lat="45.4895717" lon="8.63035"><ele>158.2</ele><time>2026-04-19T12:41:28.945Z</time></trkpt><trkpt lat="45.48946" lon="8.6303717"><ele>157.79999999999998</ele><time>2026-04-19T12:41:29.945Z</time></trkpt><trkpt lat="45.48937" lon="8.630385"><ele>157.4</ele><time>2026-04-19T12:41:30.944Z</time></trkpt><trkpt lat="45.4892983" lon="8.6303867"><ele>157.0</ele><time>2026-04-19T12:41:31.945Z</time></trkpt><trkpt lat="45.4892333" lon="8.6303933"><ele>157.0</ele><time>2026-04-19T12:41:32.945Z</time></trkpt><trkpt lat="45.4891383" lon="8.6304483"><ele>157.0</ele><time>2026-04-19T12:41:34.944Z</time></trkpt><trkpt lat="45.4890967" lon="8.6305867"><ele>157.0</ele><time>2026-04-19T12:41:36.944Z</time></trkpt><trkpt lat="45.4890967" lon="8.6306917"><ele>157.0</ele><time>2026-04-19T12:41:37.945Z</time></trkpt><trkpt lat="45.48911" lon="8.6308133"><ele>157.0</ele><time>2026-04-19T12:41:38.945Z</time></trkpt><trkpt lat="45.4891317" lon="8.6309533"><ele>157.0</ele><time>2026-04-19T12:41:39.945Z</time></trkpt><trkpt lat="45.48915" lon="8.631095"><ele>157.0</ele><time>2026-04-19T12:41:40.945Z</time></trkpt><trkpt lat="45.489175" lon="8.631235"><ele>157.0</ele><time>2026-04-19T12:41:41.945Z</time></trkpt><trkpt lat="45.4892117" lon="8.6313817"><ele>157.0</ele><time>2026-04-19T12:41:42.944Z</time></trkpt><trkpt lat="45.4892517" lon="8.6315467"><ele>157.0</ele><time>2026-04-19T12:41:43.945Z</time></trkpt><trkpt lat="45.4893017" lon="8.63172"><ele>157.0</ele><time>2026-04-19T12:41:44.945Z</time></trkpt><trkpt lat="45.4893433" lon="8.6319"><ele>157.0</ele><time>2026-04-19T12:41:45.945Z</time></trkpt><trkpt lat="45.48939" lon="8.6320867"><ele>157.0</ele><time>2026-04-19T12:41:46.945Z</time></trkpt><trkpt lat="45.489445" lon="8.6322767"><ele>157.0</ele><time>2026-04-19T12:41:47.945Z</time></trkpt><trkpt lat="45.4894933" lon="8.6324733"><ele>157.0</ele><time>2026-04-19T12:41:48.945Z</time></trkpt><trkpt lat="45.48953" lon="8.63267"><ele>157.0</ele><time>2026-04-19T12:41:49.945Z</time></trkpt><trkpt lat="45.489575" lon="8.632875"><ele>157.0</ele><time>2026-04-19T12:41:50.945Z</time></trkpt><trkpt lat="45.4896183" lon="8.6330717"><ele>157.0</ele><time>2026-04-19T12:41:51.945Z</time></trkpt><trkpt lat="45.4896633" lon="8.63327"><ele>157.0</ele><time>2026-04-19T12:41:52.945Z</time></trkpt><trkpt lat="45.4897" lon="8.6334667"><ele>157.0</ele><time>2026-04-19T12:41:53.944Z</time></trkpt><trkpt lat="45.48974" lon="8.6336517"><ele>157.0</ele><time>2026-04-19T12:41:54.945Z</time></trkpt><trkpt lat="45.4897717" lon="8.6338333"><ele>157.0</ele><time>2026-04-19T12:41:55.945Z</time></trkpt><trkpt lat="45.4898067" lon="8.6340217"><ele>157.25</ele><time>2026-04-19T12:41:56.944Z</time></trkpt><trkpt lat="45.4898433" lon="8.6342"><ele>157.5</ele><time>2026-04-19T12:41:57.945Z</time></trkpt><trkpt lat="45.4898817" lon="8.6343883"><ele>157.75</ele><time>2026-04-19T12:41:58.945Z</time></trkpt><trkpt lat="45.4899217" lon="8.63457"><ele>158.0</ele><time>2026-04-19T12:41:59.944Z</time></trkpt><trkpt lat="45.4899567" lon="8.6347533"><ele>157.5</ele><time>2026-04-19T12:42:00.945Z</time></trkpt><trkpt lat="45.4900083" lon="8.634945"><ele>157.0</ele><time>2026-04-19T12:42:01.945Z</time></trkpt><trkpt lat="45.4900717" lon="8.6351317"><ele>156.5</ele><time>2026-04-19T12:42:02.944Z</time></trkpt><trkpt lat="45.490135" lon="8.6353117"><ele>156.0</ele><time>2026-04-19T12:42:03.944Z</time></trkpt><trkpt lat="45.4901917" lon="8.6354967"><ele>156.0</ele><time>2026-04-19T12:42:04.945Z</time></trkpt><trkpt lat="45.4902383" lon="8.635695"><ele>156.0</ele><time>2026-04-19T12:42:05.944Z</time></trkpt><trkpt lat="45.4902867" lon="8.6358867"><ele>156.0</ele><time>2026-04-19T12:42:06.945Z</time></trkpt><trkpt lat="45.4903333" lon="8.6360833"><ele>156.0</ele><time>2026-04-19T12:42:07.944Z</time></trkpt><trkpt lat="45.490375" lon="8.636275"><ele>156.0</ele><time>2026-04-19T12:42:08.945Z</time></trkpt><trkpt lat="45.490415" lon="8.6364483"><ele>156.0</ele><time>2026-04-19T12:42:09.944Z</time></trkpt><trkpt lat="45.4904483" lon="8.636615"><ele>156.0</ele><time>2026-04-19T12:42:10.945Z</time></trkpt><trkpt lat="45.49048" lon="8.636775"><ele>156.0</ele><time>2026-04-19T12:42:11.945Z</time></trkpt><trkpt lat="45.4905183" lon="8.6369283"><ele>156.0</ele><time>2026-04-19T12:42:12.944Z</time></trkpt><trkpt lat="45.4905533" lon="8.63708"><ele>156.0</ele><time>2026-04-19T12:42:13.944Z</time></trkpt><trkpt lat="45.4905867" lon="8.63722"><ele>156.0</ele><time>2026-04-19T12:42:14.945Z</time></trkpt><trkpt lat="45.49062" lon="8.63735"><ele>156.0</ele><time>2026-04-19T12:42:15.945Z</time></trkpt><trkpt lat="45.4906517" lon="8.6374683"><ele>156.0</ele><time>2026-04-19T12:42:16.945Z</time></trkpt><trkpt lat="45.490675" lon="8.63759"><ele>156.0</ele><time>2026-04-19T12:42:17.945Z</time></trkpt><trkpt lat="45.4906983" lon="8.6377233"><ele>156.0</ele><time>2026-04-19T12:42:18.945Z</time></trkpt><trkpt lat="45.4907317" lon="8.63784"><ele>156.0</ele><time>2026-04-19T12:42:19.944Z</time></trkpt><trkpt lat="45.4907533" lon="8.6379567"><ele>156.0</ele><time>2026-04-19T12:42:20.944Z</time></trkpt><trkpt lat="45.4907667" lon="8.6380683"><ele>156.0</ele><time>2026-04-19T12:42:21.945Z</time></trkpt><trkpt lat="45.4907933" lon="8.6381633"><ele>156.0</ele><time>2026-04-19T12:42:22.944Z</time></trkpt><trkpt lat="45.4908217" lon="8.63826"><ele>156.4</ele><time>2026-04-19T12:42:23.945Z</time></trkpt><trkpt lat="45.490865" lon="8.63842"><ele>156.8</ele><time>2026-04-19T12:42:25.944Z</time></trkpt><trkpt lat="45.4909" lon="8.638555"><ele>157.20000000000002</ele><time>2026-04-19T12:42:27.945Z</time></trkpt><trkpt lat="45.4909217" lon="8.6386833"><ele>157.6</ele><time>2026-04-19T12:42:29.945Z</time></trkpt><trkpt lat="45.4908717" lon="8.63881"><ele>158.0</ele><time>2026-04-19T12:42:31.945Z</time></trkpt><trkpt lat="45.4907567" lon="8.6388917"><ele>157.83333333333331</ele><time>2026-04-19T12:42:33.945Z</time></trkpt><trkpt lat="45.490685" lon="8.6389183"><ele>157.66666666666666</ele><time>2026-04-19T12:42:34.945Z</time></trkpt><trkpt lat="45.4906067" lon="8.6389433"><ele>157.5</ele><time>2026-04-19T12:42:35.945Z</time></trkpt><trkpt lat="45.4905217" lon="8.6389683"><ele>157.33333333333334</ele><time>2026-04-19T12:42:36.945Z</time></trkpt><trkpt lat="45.490435" lon="8.6390033"><ele>157.16666666666669</ele><time>2026-04-19T12:42:37.945Z</time></trkpt><trkpt lat="45.4903517" lon="8.6390333"><ele>157.0</ele><time>2026-04-19T12:42:38.944Z</time></trkpt><trkpt lat="45.49027" lon="8.6390767"><ele>157.0</ele><time>2026-04-19T12:42:39.944Z</time></trkpt><trkpt lat="45.4901883" lon="8.63912"><ele>157.0</ele><time>2026-04-19T12:42:40.945Z</time></trkpt><trkpt lat="45.4900967" lon="8.6391517"><ele>157.0</ele><time>2026-04-19T12:42:41.944Z</time></trkpt><trkpt lat="45.4900083" lon="8.6391817"><ele>157.0</ele><time>2026-04-19T12:42:42.944Z</time></trkpt><trkpt lat="45.4899067" lon="8.6392167"><ele>157.0</ele><time>2026-04-19T12:42:43.945Z</time></trkpt><trkpt lat="45.4898083" lon="8.6392483"><ele>157.0</ele><time>2026-04-19T12:42:44.944Z</time></trkpt><trkpt lat="45.4897" lon="8.6392883"><ele>157.0</ele><time>2026-04-19T12:42:45.945Z</time></trkpt><trkpt lat="45.4895933" lon="8.63932"><ele>157.0</ele><time>2026-04-19T12:42:46.945Z</time></trkpt><trkpt lat="45.489485" lon="8.6393633"><ele>157.0</ele><time>2026-04-19T12:42:47.944Z</time></trkpt><trkpt lat="45.4893783" lon="8.6394"><ele>157.0</ele><time>2026-04-19T12:42:48.945Z</time></trkpt><trkpt lat="45.4892783" lon="8.63944"><ele>157.0</ele><time>2026-04-19T12:42:49.944Z</time></trkpt><trkpt lat="45.48918" lon="8.6394817"><ele>157.0</ele><time>2026-04-19T12:42:50.945Z</time></trkpt><trkpt lat="45.48909" lon="8.6395167"><ele>157.0</ele><time>2026-04-19T12:42:51.945Z</time></trkpt><trkpt lat="45.489" lon="8.639545"><ele>157.0</ele><time>2026-04-19T12:42:52.945Z</time></trkpt><trkpt lat="45.48893" lon="8.6395683"><ele>157.0</ele><time>2026-04-19T12:42:53.945Z</time></trkpt><trkpt lat="45.4888633" lon="8.6395883"><ele>157.0</ele><time>2026-04-19T12:42:54.944Z</time></trkpt><trkpt lat="45.4887517" lon="8.6396517"><ele>157.0</ele><time>2026-04-19T12:42:56.945Z</time></trkpt><trkpt lat="45.4887033" lon="8.6397883"><ele>157.0</ele><time>2026-04-19T12:42:58.945Z</time></trkpt><trkpt lat="45.4887067" lon="8.6398917"><ele>157.0</ele><time>2026-04-19T12:42:59.945Z</time></trkpt><trkpt lat="45.4887117" lon="8.640025"><ele>157.0</ele><time>2026-04-19T12:43:00.945Z</time></trkpt><trkpt lat="45.488715" lon="8.6401583"><ele>157.0</ele><time>2026-04-19T12:43:01.945Z</time></trkpt><trkpt lat="45.4887233" lon="8.6403167"><ele>157.0</ele><time>2026-04-19T12:43:02.945Z</time></trkpt><trkpt lat="45.48872" lon="8.6404683"><ele>157.0</ele><time>2026-04-19T12:43:03.944Z</time></trkpt><trkpt lat="45.4887217" lon="8.64062"><ele>157.0</ele><time>2026-04-19T12:43:04.944Z</time></trkpt><trkpt lat="45.48872" lon="8.6407567"><ele>157.0</ele><time>2026-04-19T12:43:05.944Z</time></trkpt><trkpt lat="45.488715" lon="8.64089"><ele>157.0</ele><time>2026-04-19T12:43:06.944Z</time></trkpt><trkpt lat="45.48872" lon="8.64103"><ele>157.0</ele><time>2026-04-19T12:43:07.944Z</time></trkpt><trkpt lat="45.4887217" lon="8.6411717"><ele>157.0</ele><time>2026-04-19T12:43:08.945Z</time></trkpt><trkpt lat="45.488725" lon="8.6413067"><ele>157.0</ele><time>2026-04-19T12:43:09.945Z</time></trkpt><trkpt lat="45.4887183" lon="8.6414283"><ele>157.0</ele><time>2026-04-19T12:43:10.944Z</time></trkpt><trkpt lat="45.4887183" lon="8.64155"><ele>157.0</ele><time>2026-04-19T12:43:11.945Z</time></trkpt><trkpt lat="45.4887217" lon="8.64165"><ele>157.0</ele><time>2026-04-19T12:43:12.945Z</time></trkpt><trkpt lat="45.4887283" lon="8.6418183"><ele>157.2</ele><time>2026-04-19T12:43:14.944Z</time></trkpt><trkpt lat="45.4886583" lon="8.6419717"><ele>157.39999999999998</ele><time>2026-04-19T12:43:16.945Z</time></trkpt><trkpt lat="45.4886083" lon="8.6420467"><ele>157.60000000000002</ele><time>2026-04-19T12:43:17.944Z</time></trkpt><trkpt lat="45.48857" lon="8.642155"><ele>157.8</ele><time>2026-04-19T12:43:18.943Z</time></trkpt><trkpt lat="45.4885483" lon="8.642275"><ele>158.0</ele><time>2026-04-19T12:43:19.944Z</time></trkpt><trkpt lat="45.488545" lon="8.64241"><ele>158.0</ele><time>2026-04-19T12:43:20.943Z</time></trkpt><trkpt lat="45.48855" lon="8.6425417"><ele>158.0</ele><time>2026-04-19T12:43:21.944Z</time></trkpt><trkpt lat="45.488565" lon="8.64267"><ele>158.0</ele><time>2026-04-19T12:43:22.944Z</time></trkpt><trkpt lat="45.4885717" lon="8.642795"><ele>158.0</ele><time>2026-04-19T12:43:23.944Z</time></trkpt><trkpt lat="45.4885767" lon="8.6429233"><ele>158.0</ele><time>2026-04-19T12:43:24.943Z</time></trkpt><trkpt lat="45.4885733" lon="8.64306"><ele>158.0</ele><time>2026-04-19T12:43:25.944Z</time></trkpt><trkpt lat="45.48858" lon="8.6432083"><ele>158.0</ele><time>2026-04-19T12:43:26.944Z</time></trkpt><trkpt lat="45.488595" lon="8.6433433"><ele>158.0</ele><time>2026-04-19T12:43:27.943Z</time></trkpt><trkpt lat="45.488605" lon="8.6434683"><ele>158.0</ele><time>2026-04-19T12:43:28.944Z</time></trkpt><trkpt lat="45.4886167" lon="8.643595"><ele>158.0</ele><time>2026-04-19T12:43:29.944Z</time></trkpt><trkpt lat="45.4886267" lon="8.6437067"><ele>157.83333333333331</ele><time>2026-04-19T12:43:30.943Z</time></trkpt><trkpt lat="45.4886367" lon="8.64381"><ele>157.66666666666666</ele><time>2026-04-19T12:43:31.943Z</time></trkpt><trkpt lat="45.4886517" lon="8.643975"><ele>157.5</ele><time>2026-04-19T12:43:33.943Z</time></trkpt><trkpt lat="45.4886583" lon="8.6440667"><ele>157.33333333333334</ele><time>2026-04-19T12:43:34.943Z</time></trkpt><trkpt lat="45.4886633" lon="8.6441633"><ele>157.16666666666669</ele><time>2026-04-19T12:43:35.943Z</time></trkpt><trkpt lat="45.4886667" lon="8.644275"><ele>157.0</ele><time>2026-04-19T12:43:36.944Z</time></trkpt><trkpt lat="45.48866" lon="8.6443767"><ele>157.0</ele><time>2026-04-19T12:43:37.943Z</time></trkpt><trkpt lat="45.48865" lon="8.6444833"><ele>157.0</ele><time>2026-04-19T12:43:38.944Z</time></trkpt><trkpt lat="45.48864" lon="8.6446"><ele>157.0</ele><time>2026-04-19T12:43:39.943Z</time></trkpt><trkpt lat="45.4886267" lon="8.644715"><ele>157.0</ele><time>2026-04-19T12:43:40.944Z</time></trkpt><trkpt lat="45.4886133" lon="8.6448367"><ele>157.0</ele><time>2026-04-19T12:43:41.943Z</time></trkpt><trkpt lat="45.4886067" lon="8.6449617"><ele>157.0</ele><time>2026-04-19T12:43:42.943Z</time></trkpt><trkpt lat="45.4886017" lon="8.6450933"><ele>157.0</ele><time>2026-04-19T12:43:43.944Z</time></trkpt><trkpt lat="45.4886033" lon="8.645235"><ele>157.0</ele><time>2026-04-19T12:43:44.943Z</time></trkpt><trkpt lat="45.48861" lon="8.6453683"><ele>157.0</ele><time>2026-04-19T12:43:45.943Z</time></trkpt><trkpt lat="45.48862" lon="8.6455167"><ele>157.0</ele><time>2026-04-19T12:43:46.943Z</time></trkpt><trkpt lat="45.4886333" lon="8.645675"><ele>157.0</ele><time>2026-04-19T12:43:47.943Z</time></trkpt><trkpt lat="45.48865" lon="8.6458317"><ele>157.2</ele><time>2026-04-19T12:43:48.943Z</time></trkpt><trkpt lat="45.48867" lon="8.6459783"><ele>157.39999999999998</ele><time>2026-04-19T12:43:49.943Z</time></trkpt><trkpt lat="45.4886933" lon="8.6461417"><ele>157.60000000000002</ele><time>2026-04-19T12:43:50.944Z</time></trkpt><trkpt lat="45.488725" lon="8.6462967"><ele>157.8</ele><time>2026-04-19T12:43:51.944Z</time></trkpt><trkpt lat="45.4887533" lon="8.6464483"><ele>158.0</ele><time>2026-04-19T12:43:52.944Z</time></trkpt><trkpt lat="45.4887783" lon="8.6466017"><ele>157.4</ele><time>2026-04-19T12:43:53.944Z</time></trkpt><trkpt lat="45.4887917" lon="8.6467483"><ele>156.8</ele><time>2026-04-19T12:43:54.943Z</time></trkpt><trkpt lat="45.4888133" lon="8.6468917"><ele>156.2</ele><time>2026-04-19T12:43:55.944Z</time></trkpt><trkpt lat="45.488835" lon="8.647035"><ele>155.6</ele><time>2026-04-19T12:43:56.943Z</time></trkpt><trkpt lat="45.48886" lon="8.6471917"><ele>155.0</ele><time>2026-04-19T12:43:57.943Z</time></trkpt><trkpt lat="45.488885" lon="8.6473483"><ele>155.0</ele><time>2026-04-19T12:43:58.943Z</time></trkpt><trkpt lat="45.4889017" lon="8.6475167"><ele>155.0</ele><time>2026-04-19T12:43:59.943Z</time></trkpt><trkpt lat="45.4889283" lon="8.647675"><ele>155.0</ele><time>2026-04-19T12:44:00.944Z</time></trkpt><trkpt lat="45.48895" lon="8.6478167"><ele>155.0</ele><time>2026-04-19T12:44:01.943Z</time></trkpt><trkpt lat="45.4889633" lon="8.6479467"><ele>155.0</ele><time>2026-04-19T12:44:02.943Z</time></trkpt><trkpt lat="45.4889667" lon="8.64806"><ele>155.0</ele><time>2026-04-19T12:44:03.943Z</time></trkpt><trkpt lat="45.4889617" lon="8.64816"><ele>155.0</ele><time>2026-04-19T12:44:04.944Z</time></trkpt><trkpt lat="45.488945" lon="8.6482467"><ele>155.0</ele><time>2026-04-19T12:44:05.944Z</time></trkpt><trkpt lat="45.4888333" lon="8.6483567"><ele>155.0</ele><time>2026-04-19T12:44:07.944Z</time></trkpt><trkpt lat="45.4887467" lon="8.6484117"><ele>155.0</ele><time>2026-04-19T12:44:08.944Z</time></trkpt><trkpt lat="45.488665" lon="8.64847"><ele>155.4</ele><time>2026-04-19T12:44:09.944Z</time></trkpt><trkpt lat="45.4885967" lon="8.6485467"><ele>155.8</ele><time>2026-04-19T12:44:10.944Z</time></trkpt><trkpt lat="45.4885433" lon="8.6486617"><ele>156.2</ele><time>2026-04-19T12:44:11.944Z</time></trkpt><trkpt lat="45.4885167" lon="8.6487883"><ele>156.6</ele><time>2026-04-19T12:44:12.943Z</time></trkpt><trkpt lat="45.4885017" lon="8.648925"><ele>157.0</ele><time>2026-04-19T12:44:13.944Z</time></trkpt><trkpt lat="45.488495" lon="8.6490683"><ele>157.0</ele><time>2026-04-19T12:44:14.944Z</time></trkpt><trkpt lat="45.4884983" lon="8.6492167"><ele>157.0</ele><time>2026-04-19T12:44:15.944Z</time></trkpt><trkpt lat="45.4885" lon="8.6493633"><ele>157.0</ele><time>2026-04-19T12:44:16.943Z</time></trkpt><trkpt lat="45.4884983" lon="8.649515"><ele>157.0</ele><time>2026-04-19T12:44:17.944Z</time></trkpt><trkpt lat="45.4884883" lon="8.649675"><ele>157.0</ele><time>2026-04-19T12:44:18.944Z</time></trkpt><trkpt lat="45.488485" lon="8.6498283"><ele>157.0</ele><time>2026-04-19T12:44:19.943Z</time></trkpt><trkpt lat="45.48849" lon="8.6499917"><ele>157.0</ele><time>2026-04-19T12:44:20.943Z</time></trkpt><trkpt lat="45.4884917" lon="8.6501517"><ele>157.0</ele><time>2026-04-19T12:44:21.944Z</time></trkpt><trkpt lat="45.4884917" lon="8.6503217"><ele>157.0</ele><time>2026-04-19T12:44:22.943Z</time></trkpt><trkpt lat="45.48849" lon="8.6504717"><ele>157.0</ele><time>2026-04-19T12:44:23.944Z</time></trkpt><trkpt lat="45.4884767" lon="8.6506083"><ele>157.0</ele><time>2026-04-19T12:44:24.943Z</time></trkpt><trkpt lat="45.4884717" lon="8.6507233"><ele>157.0</ele><time>2026-04-19T12:44:25.943Z</time></trkpt><trkpt lat="45.48846" lon="8.6508233"><ele>157.0</ele><time>2026-04-19T12:44:26.944Z</time></trkpt><trkpt lat="45.488435" lon="8.65097"><ele>157.0</ele><time>2026-04-19T12:44:28.944Z</time></trkpt><trkpt lat="45.488355" lon="8.65102"><ele>157.0</ele><time>2026-04-19T12:44:43.944Z</time></trkpt><trkpt lat="45.4882817" lon="8.651"><ele>157.0</ele><time>2026-04-19T12:44:44.943Z</time></trkpt><trkpt lat="45.4882067" lon="8.65096"><ele>157.0</ele><time>2026-04-19T12:44:45.943Z</time></trkpt><trkpt lat="45.4881417" lon="8.65092"><ele>157.0</ele><time>2026-04-19T12:44:46.943Z</time></trkpt><trkpt lat="45.4880483" lon="8.6509433"><ele>157.0</ele><time>2026-04-19T12:44:48.943Z</time></trkpt><trkpt lat="45.4880183" lon="8.6510367"><ele>157.0</ele><time>2026-04-19T12:44:49.944Z</time></trkpt><trkpt lat="45.48799" lon="8.65117"><ele>157.0</ele><time>2026-04-19T12:44:50.944Z</time></trkpt><trkpt lat="45.48797" lon="8.65133"><ele>157.25</ele><time>2026-04-19T12:44:51.944Z</time></trkpt><trkpt lat="45.48796" lon="8.6515117"><ele>157.5</ele><time>2026-04-19T12:44:52.944Z</time></trkpt><trkpt lat="45.4879533" lon="8.6516883"><ele>157.75</ele><time>2026-04-19T12:44:53.944Z</time></trkpt><trkpt lat="45.487945" lon="8.6518667"><ele>158.0</ele><time>2026-04-19T12:44:54.943Z</time></trkpt><trkpt lat="45.487945" lon="8.6520583"><ele>158.0</ele><time>2026-04-19T12:44:55.944Z</time></trkpt><trkpt lat="45.487945" lon="8.6522483"><ele>158.0</ele><time>2026-04-19T12:44:56.944Z</time></trkpt><trkpt lat="45.4879367" lon="8.6524617"><ele>158.0</ele><time>2026-04-19T12:44:57.944Z</time></trkpt><trkpt lat="45.48793" lon="8.652675"><ele>158.0</ele><time>2026-04-19T12:44:58.944Z</time></trkpt><trkpt lat="45.4879267" lon="8.652885"><ele>158.0</ele><time>2026-04-19T12:44:59.944Z</time></trkpt><trkpt lat="45.48793" lon="8.653095"><ele>158.0</ele><time>2026-04-19T12:45:00.943Z</time></trkpt><trkpt lat="45.487935" lon="8.6532933"><ele>158.0</ele><time>2026-04-19T12:45:01.944Z</time></trkpt><trkpt lat="45.48794" lon="8.65348"><ele>158.0</ele><time>2026-04-19T12:45:02.944Z</time></trkpt><trkpt lat="45.487935" lon="8.6536717"><ele>157.75</ele><time>2026-04-19T12:45:03.944Z</time></trkpt><trkpt lat="45.487935" lon="8.6538467"><ele>157.5</ele><time>2026-04-19T12:45:04.944Z</time></trkpt><trkpt lat="45.4879333" lon="8.654015"><ele>157.25</ele><time>2026-04-19T12:45:05.944Z</time></trkpt><trkpt lat="45.4879283" lon="8.6541917"><ele>157.0</ele><time>2026-04-19T12:45:06.944Z</time></trkpt><trkpt lat="45.4879133" lon="8.6543683"><ele>157.0</ele><time>2026-04-19T12:45:07.944Z</time></trkpt><trkpt lat="45.48791" lon="8.654535"><ele>157.0</ele><time>2026-04-19T12:45:08.944Z</time></trkpt><trkpt lat="45.4879033" lon="8.6547083"><ele>157.0</ele><time>2026-04-19T12:45:09.944Z</time></trkpt><trkpt lat="45.4878917" lon="8.6548867"><ele>157.0</ele><time>2026-04-19T12:45:10.944Z</time></trkpt><trkpt lat="45.4878833" lon="8.65505"><ele>157.0</ele><time>2026-04-19T12:45:11.944Z</time></trkpt><trkpt lat="45.4878683" lon="8.6552167"><ele>157.0</ele><time>2026-04-19T12:45:12.943Z</time></trkpt><trkpt lat="45.4878567" lon="8.6553667"><ele>157.0</ele><time>2026-04-19T12:45:13.943Z</time></trkpt><trkpt lat="45.4878483" lon="8.6555267"><ele>157.0</ele><time>2026-04-19T12:45:14.944Z</time></trkpt><trkpt lat="45.4878433" lon="8.6556917"><ele>157.0</ele><time>2026-04-19T12:45:15.944Z</time></trkpt><trkpt lat="45.487845" lon="8.65586"><ele>157.0</ele><time>2026-04-19T12:45:16.944Z</time></trkpt><trkpt lat="45.4878417" lon="8.6560517"><ele>157.0</ele><time>2026-04-19T12:45:17.944Z</time></trkpt><trkpt lat="45.4878367" lon="8.6562317"><ele>157.0</ele><time>2026-04-19T12:45:18.943Z</time></trkpt><trkpt lat="45.4878233" lon="8.6564167"><ele>157.0</ele><time>2026-04-19T12:45:19.943Z</time></trkpt><trkpt lat="45.487815" lon="8.6565833"><ele>157.0</ele><time>2026-04-19T12:45:20.944Z</time></trkpt><trkpt lat="45.4878033" lon="8.6567583"><ele>157.0</ele><time>2026-04-19T12:45:21.944Z</time></trkpt><trkpt lat="45.4878017" lon="8.6569367"><ele>157.0</ele><time>2026-04-19T12:45:22.943Z</time></trkpt><trkpt lat="45.4878083" lon="8.65711"><ele>157.25</ele><time>2026-04-19T12:45:23.944Z</time></trkpt><trkpt lat="45.4878067" lon="8.65729"><ele>157.5</ele><time>2026-04-19T12:45:24.944Z</time></trkpt><trkpt lat="45.4878033" lon="8.6574683"><ele>157.75</ele><time>2026-04-19T12:45:25.943Z</time></trkpt><trkpt lat="45.4878033" lon="8.6576517"><ele>158.0</ele><time>2026-04-19T12:45:26.944Z</time></trkpt><trkpt lat="45.4878033" lon="8.657845"><ele>157.5</ele><time>2026-04-19T12:45:27.944Z</time></trkpt><trkpt lat="45.4877983" lon="8.6580267"><ele>157.0</ele><time>2026-04-19T12:45:28.943Z</time></trkpt><trkpt lat="45.4878" lon="8.6581683"><ele>156.5</ele><time>2026-04-19T12:45:29.944Z</time></trkpt><trkpt lat="45.4877983" lon="8.6583583"><ele>156.0</ele><time>2026-04-19T12:45:30.943Z</time></trkpt><trkpt lat="45.4878" lon="8.65852"><ele>155.8</ele><time>2026-04-19T12:45:31.944Z</time></trkpt><trkpt lat="45.48779" lon="8.6586883"><ele>155.6</ele><time>2026-04-19T12:45:32.943Z</time></trkpt><trkpt lat="45.4877833" lon="8.6588367"><ele>155.4</ele><time>2026-04-19T12:45:33.944Z</time></trkpt><trkpt lat="45.4877817" lon="8.65897"><ele>155.2</ele><time>2026-04-19T12:45:34.944Z</time></trkpt><trkpt lat="45.487775" lon="8.6590867"><ele>155.0</ele><time>2026-04-19T12:45:35.944Z</time></trkpt><trkpt lat="45.4877767" lon="8.659185"><ele>155.0</ele><time>2026-04-19T12:45:36.943Z</time></trkpt><trkpt lat="45.48777" lon="8.6592867"><ele>155.0</ele><time>2026-04-19T12:45:37.943Z</time></trkpt><trkpt lat="45.4877783" lon="8.6594533"><ele>155.0</ele><time>2026-04-19T12:45:39.944Z</time></trkpt><trkpt lat="45.48784" lon="8.6596067"><ele>155.0</ele><time>2026-04-19T12:45:41.943Z</time></trkpt><trkpt lat="45.48794" lon="8.6596917"><ele>155.0</ele><time>2026-04-19T12:45:43.943Z</time></trkpt><trkpt lat="45.4880117" lon="8.6596967"><ele>155.25</ele><time>2026-04-19T12:45:44.944Z</time></trkpt><trkpt lat="45.488105" lon="8.6596933"><ele>155.5</ele><time>2026-04-19T12:45:45.943Z</time></trkpt><trkpt lat="45.4882117" lon="8.659695"><ele>155.75</ele><time>2026-04-19T12:45:46.944Z</time></trkpt><trkpt lat="45.488345" lon="8.6596967"><ele>156.0</ele><time>2026-04-19T12:45:47.943Z</time></trkpt><trkpt lat="45.48848" lon="8.6596917"><ele>156.0</ele><time>2026-04-19T12:45:48.943Z</time></trkpt><trkpt lat="45.4886" lon="8.6596833"><ele>156.0</ele><time>2026-04-19T12:45:49.944Z</time></trkpt><trkpt lat="45.4887133" lon="8.6596733"><ele>156.0</ele><time>2026-04-19T12:45:50.944Z</time></trkpt><trkpt lat="45.48883" lon="8.6596333"><ele>156.0</ele><time>2026-04-19T12:45:51.944Z</time></trkpt><trkpt lat="45.4889467" lon="8.659585"><ele>155.75</ele><time>2026-04-19T12:45:52.944Z</time></trkpt><trkpt lat="45.4890683" lon="8.65953"><ele>155.5</ele><time>2026-04-19T12:45:53.944Z</time></trkpt><trkpt lat="45.489195" lon="8.6594767"><ele>155.25</ele><time>2026-04-19T12:45:54.944Z</time></trkpt><trkpt lat="45.4893267" lon="8.6594183"><ele>155.0</ele><time>2026-04-19T12:45:55.944Z</time></trkpt><trkpt lat="45.48947" lon="8.6593633"><ele>155.66666666666666</ele><time>2026-04-19T12:45:56.944Z</time></trkpt><trkpt lat="45.4896183" lon="8.65931"><ele>156.33333333333334</ele><time>2026-04-19T12:45:57.944Z</time></trkpt><trkpt lat="45.4897617" lon="8.6592533"><ele>157.0</ele><time>2026-04-19T12:45:58.944Z</time></trkpt><trkpt lat="45.48991" lon="8.6592"><ele>157.0</ele><time>2026-04-19T12:45:59.944Z</time></trkpt><trkpt lat="45.4900683" lon="8.6591533"><ele>157.0</ele><time>2026-04-19T12:46:00.943Z</time></trkpt><trkpt lat="45.490235" lon="8.6591033"><ele>157.0</ele><time>2026-04-19T12:46:01.944Z</time></trkpt><trkpt lat="45.4904" lon="8.6590483"><ele>157.66666666666669</ele><time>2026-04-19T12:46:02.944Z</time></trkpt><trkpt lat="45.4905617" lon="8.6589967"><ele>158.33333333333334</ele><time>2026-04-19T12:46:03.944Z</time></trkpt><trkpt lat="45.490715" lon="8.658945"><ele>159.0</ele><time>2026-04-19T12:46:04.944Z</time></trkpt><trkpt lat="45.4908667" lon="8.6588917"><ele>159.0</ele><time>2026-04-19T12:46:05.944Z</time></trkpt><trkpt lat="45.4910117" lon="8.65884"><ele>159.0</ele><time>2026-04-19T12:46:06.944Z</time></trkpt><trkpt lat="45.4911533" lon="8.6587983"><ele>159.0</ele><time>2026-04-19T12:46:07.944Z</time></trkpt><trkpt lat="45.491295" lon="8.658755"><ele>159.0</ele><time>2026-04-19T12:46:08.943Z</time></trkpt><trkpt lat="45.49143" lon="8.65872"><ele>158.75</ele><time>2026-04-19T12:46:09.943Z</time></trkpt><trkpt lat="45.4915683" lon="8.658685"><ele>158.5</ele><time>2026-04-19T12:46:10.944Z</time></trkpt><trkpt lat="45.4917067" lon="8.658665"><ele>158.25</ele><time>2026-04-19T12:46:11.943Z</time></trkpt><trkpt lat="45.49184" lon="8.6586433"><ele>158.0</ele><time>2026-04-19T12:46:12.944Z</time></trkpt><trkpt lat="45.49198" lon="8.658625"><ele>158.0</ele><time>2026-04-19T12:46:13.943Z</time></trkpt><trkpt lat="45.4921067" lon="8.6586017"><ele>158.0</ele><time>2026-04-19T12:46:14.944Z</time></trkpt><trkpt lat="45.4922283" lon="8.6585917"><ele>158.0</ele><time>2026-04-19T12:46:15.943Z</time></trkpt><trkpt lat="45.4923583" lon="8.6585567"><ele>158.0</ele><time>2026-04-19T12:46:16.943Z</time></trkpt><trkpt lat="45.49249" lon="8.6585167"><ele>158.0</ele><time>2026-04-19T12:46:17.943Z</time></trkpt><trkpt lat="45.4926233" lon="8.6584917"><ele>158.0</ele><time>2026-04-19T12:46:18.943Z</time></trkpt><trkpt lat="45.4927667" lon="8.658445"><ele>158.0</ele><time>2026-04-19T12:46:19.944Z</time></trkpt><trkpt lat="45.4929" lon="8.658425"><ele>158.0</ele><time>2026-04-19T12:46:20.944Z</time></trkpt><trkpt lat="45.49305" lon="8.6583933"><ele>158.66666666666666</ele><time>2026-04-19T12:46:21.944Z</time></trkpt><trkpt lat="45.493205" lon="8.6583633"><ele>159.33333333333334</ele><time>2026-04-19T12:46:22.944Z</time></trkpt><trkpt lat="45.4933567" lon="8.6583467"><ele>160.0</ele><time>2026-04-19T12:46:23.944Z</time></trkpt><trkpt lat="45.493515" lon="8.6583433"><ele>160.0</ele><time>2026-04-19T12:46:24.944Z</time></trkpt><trkpt lat="45.4936817" lon="8.6583533"><ele>160.0</ele><time>2026-04-19T12:46:25.944Z</time></trkpt><trkpt lat="45.4938433" lon="8.658365"><ele>160.0</ele><time>2026-04-19T12:46:26.943Z</time></trkpt><trkpt lat="45.494005" lon="8.6583817"><ele>160.0</ele><time>2026-04-19T12:46:27.943Z</time></trkpt><trkpt lat="45.4941617" lon="8.6583833"><ele>160.0</ele><time>2026-04-19T12:46:28.944Z</time></trkpt><trkpt lat="45.4943333" lon="8.658395"><ele>160.0</ele><time>2026-04-19T12:46:29.943Z</time></trkpt><trkpt lat="45.4944917" lon="8.6584"><ele>160.0</ele><time>2026-04-19T12:46:30.943Z</time></trkpt><trkpt lat="45.49465" lon="8.6584033"><ele>160.0</ele><time>2026-04-19T12:46:31.943Z</time></trkpt><trkpt lat="45.4948033" lon="8.6583983"><ele>160.0</ele><time>2026-04-19T12:46:32.944Z</time></trkpt><trkpt lat="45.4949517" lon="8.6583767"><ele>160.0</ele><time>2026-04-19T12:46:33.944Z</time></trkpt><trkpt lat="45.495095" lon="8.6583517"><ele>160.0</ele><time>2026-04-19T12:46:34.944Z</time></trkpt><trkpt lat="45.4952283" lon="8.6583283"><ele>160.0</ele><time>2026-04-19T12:46:35.943Z</time></trkpt><trkpt lat="45.4953433" lon="8.65831"><ele>160.0</ele><time>2026-04-19T12:46:36.943Z</time></trkpt><trkpt lat="45.4954417" lon="8.6582867"><ele>160.33333333333334</ele><time>2026-04-19T12:46:37.944Z</time></trkpt><trkpt lat="45.495515" lon="8.658275"><ele>160.66666666666669</ele><time>2026-04-19T12:46:38.943Z</time></trkpt><trkpt lat="45.49561" lon="8.6582417"><ele>161.0</ele><time>2026-04-19T12:46:40.944Z</time></trkpt><trkpt lat="45.495695" lon="8.6582467"><ele>161.33333333333334</ele><time>2026-04-19T12:46:42.944Z</time></trkpt><trkpt lat="45.4957583" lon="8.6582933"><ele>161.66666666666666</ele><time>2026-04-19T12:46:43.944Z</time></trkpt><trkpt lat="45.4958367" lon="8.6583733"><ele>162.0</ele><time>2026-04-19T12:46:44.943Z</time></trkpt><trkpt lat="45.4959233" lon="8.6584767"><ele>162.0</ele><time>2026-04-19T12:46:45.943Z</time></trkpt><trkpt lat="45.49603" lon="8.65858"><ele>162.0</ele><time>2026-04-19T12:46:46.943Z</time></trkpt><trkpt lat="45.4961517" lon="8.6587"><ele>162.0</ele><time>2026-04-19T12:46:47.944Z</time></trkpt><trkpt lat="45.4962733" lon="8.65881"><ele>162.0</ele><time>2026-04-19T12:46:48.944Z</time></trkpt><trkpt lat="45.4963933" lon="8.6589433"><ele>161.75</ele><time>2026-04-19T12:46:49.943Z</time></trkpt><trkpt lat="45.4965183" lon="8.6590533"><ele>161.5</ele><time>2026-04-19T12:46:50.944Z</time></trkpt><trkpt lat="45.4966333" lon="8.65918"><ele>161.25</ele><time>2026-04-19T12:46:51.943Z</time></trkpt><trkpt lat="45.49675" lon="8.6593033"><ele>161.0</ele><time>2026-04-19T12:46:52.943Z</time></trkpt><trkpt lat="45.49686" lon="8.6594233"><ele>161.0</ele><time>2026-04-19T12:46:53.943Z</time></trkpt><trkpt lat="45.4969817" lon="8.659535"><ele>161.0</ele><time>2026-04-19T12:46:54.944Z</time></trkpt><trkpt lat="45.497095" lon="8.65965"><ele>161.0</ele><time>2026-04-19T12:46:55.943Z</time></trkpt><trkpt lat="45.4972083" lon="8.6597583"><ele>161.0</ele><time>2026-04-19T12:46:56.943Z</time></trkpt><trkpt lat="45.4973117" lon="8.6598717"><ele>161.0</ele><time>2026-04-19T12:46:57.943Z</time></trkpt><trkpt lat="45.4974133" lon="8.6599717"><ele>161.0</ele><time>2026-04-19T12:46:58.944Z</time></trkpt><trkpt lat="45.4975233" lon="8.6600767"><ele>161.0</ele><time>2026-04-19T12:46:59.943Z</time></trkpt><trkpt lat="45.4976333" lon="8.6601833"><ele>161.0</ele><time>2026-04-19T12:47:00.942Z</time></trkpt><trkpt lat="45.4977383" lon="8.6602917"><ele>161.25</ele><time>2026-04-19T12:47:01.943Z</time></trkpt><trkpt lat="45.4978483" lon="8.660395"><ele>161.5</ele><time>2026-04-19T12:47:02.943Z</time></trkpt><trkpt lat="45.4979617" lon="8.6604917"><ele>161.75</ele><time>2026-04-19T12:47:03.943Z</time></trkpt><trkpt lat="45.4980633" lon="8.6605967"><ele>162.0</ele><time>2026-04-19T12:47:04.943Z</time></trkpt><trkpt lat="45.4981633" lon="8.6607033"><ele>162.25</ele><time>2026-04-19T12:47:05.943Z</time></trkpt><trkpt lat="45.498255" lon="8.6608233"><ele>162.5</ele><time>2026-04-19T12:47:06.943Z</time></trkpt><trkpt lat="45.498345" lon="8.6609333"><ele>162.75</ele><time>2026-04-19T12:47:07.942Z</time></trkpt><trkpt lat="45.498415" lon="8.6610467"><ele>163.0</ele><time>2026-04-19T12:47:08.943Z</time></trkpt><trkpt lat="45.49849" lon="8.6611617"><ele>163.0</ele><time>2026-04-19T12:47:09.943Z</time></trkpt><trkpt lat="45.4985617" lon="8.66127"><ele>163.0</ele><time>2026-04-19T12:47:10.943Z</time></trkpt><trkpt lat="45.4986183" lon="8.6613767"><ele>163.0</ele><time>2026-04-19T12:47:11.943Z</time></trkpt><trkpt lat="45.498685" lon="8.6614583"><ele>163.0</ele><time>2026-04-19T12:47:12.943Z</time></trkpt><trkpt lat="45.498745" lon="8.6615333"><ele>163.0</ele><time>2026-04-19T12:47:13.943Z</time></trkpt><trkpt lat="45.4988017" lon="8.661685"><ele>163.0</ele><time>2026-04-19T12:47:15.943Z</time></trkpt><trkpt lat="45.4988" lon="8.6618817"><ele>163.0</ele><time>2026-04-19T12:47:17.942Z</time></trkpt><trkpt lat="45.4987083" lon="8.662035"><ele>163.0</ele><time>2026-04-19T12:47:18.943Z</time></trkpt><trkpt lat="45.4986417" lon="8.6622267"><ele>163.0</ele><time>2026-04-19T12:47:19.942Z</time></trkpt><trkpt lat="45.4985867" lon="8.6624083"><ele>163.0</ele><time>2026-04-19T12:47:20.943Z</time></trkpt><trkpt lat="45.4985283" lon="8.66258"><ele>163.0</ele><time>2026-04-19T12:47:21.943Z</time></trkpt><trkpt lat="45.4984717" lon="8.662755"><ele>163.0</ele><time>2026-04-19T12:47:22.943Z</time></trkpt><trkpt lat="45.498395" lon="8.662915"><ele>163.0</ele><time>2026-04-19T12:47:23.943Z</time></trkpt><trkpt lat="45.49835" lon="8.6631"><ele>163.0</ele><time>2026-04-19T12:47:24.942Z</time></trkpt><trkpt lat="45.4983367" lon="8.6632867"><ele>163.0</ele><time>2026-04-19T12:47:25.943Z</time></trkpt><trkpt lat="45.49835" lon="8.6634683"><ele>163.0</ele><time>2026-04-19T12:47:26.943Z</time></trkpt><trkpt lat="45.4983767" lon="8.6636217"><ele>163.0</ele><time>2026-04-19T12:47:27.942Z</time></trkpt><trkpt lat="45.4983833" lon="8.6637583"><ele>163.2</ele><time>2026-04-19T12:47:28.943Z</time></trkpt><trkpt lat="45.4983883" lon="8.6638733"><ele>163.4</ele><time>2026-04-19T12:47:29.943Z</time></trkpt><trkpt lat="45.4984217" lon="8.6639683"><ele>163.6</ele><time>2026-04-19T12:47:30.942Z</time></trkpt><trkpt lat="45.49844" lon="8.6640917"><ele>163.79999999999998</ele><time>2026-04-19T12:47:31.942Z</time></trkpt><trkpt lat="45.4984517" lon="8.6642367"><ele>164.0</ele><time>2026-04-19T12:47:32.942Z</time></trkpt><trkpt lat="45.4984433" lon="8.6644117"><ele>163.75</ele><time>2026-04-19T12:47:33.943Z</time></trkpt><trkpt lat="45.4984467" lon="8.6645967"><ele>163.5</ele><time>2026-04-19T12:47:34.942Z</time></trkpt><trkpt lat="45.4984567" lon="8.6647933"><ele>163.25</ele><time>2026-04-19T12:47:35.943Z</time></trkpt><trkpt lat="45.498485" lon="8.6649967"><ele>163.0</ele><time>2026-04-19T12:47:36.942Z</time></trkpt><trkpt lat="45.4985183" lon="8.6651983"><ele>163.0</ele><time>2026-04-19T12:47:37.943Z</time></trkpt><trkpt lat="45.4985433" lon="8.6653817"><ele>163.0</ele><time>2026-04-19T12:47:38.943Z</time></trkpt><trkpt lat="45.498575" lon="8.665565"><ele>163.0</ele><time>2026-04-19T12:47:39.942Z</time></trkpt><trkpt lat="45.4985917" lon="8.66574"><ele>163.0</ele><time>2026-04-19T12:47:40.943Z</time></trkpt><trkpt lat="45.4986133" lon="8.6659117"><ele>163.0</ele><time>2026-04-19T12:47:41.943Z</time></trkpt><trkpt lat="45.498625" lon="8.6661"><ele>163.0</ele><time>2026-04-19T12:47:42.943Z</time></trkpt><trkpt lat="45.4986333" lon="8.6662817"><ele>163.0</ele><time>2026-04-19T12:47:43.943Z</time></trkpt><trkpt lat="45.4986633" lon="8.6664817"><ele>163.0</ele><time>2026-04-19T12:47:44.943Z</time></trkpt><trkpt lat="45.4986867" lon="8.6666717"><ele>163.0</ele><time>2026-04-19T12:47:45.942Z</time></trkpt><trkpt lat="45.4987167" lon="8.666865"><ele>163.0</ele><time>2026-04-19T12:47:46.943Z</time></trkpt><trkpt lat="45.4987433" lon="8.66705"><ele>163.0</ele><time>2026-04-19T12:47:47.943Z</time></trkpt><trkpt lat="45.49877" lon="8.667225"><ele>163.0</ele><time>2026-04-19T12:47:48.943Z</time></trkpt><trkpt lat="45.4988" lon="8.667385"><ele>163.16666666666669</ele><time>2026-04-19T12:47:49.942Z</time></trkpt><trkpt lat="45.4988233" lon="8.66752"><ele>163.33333333333334</ele><time>2026-04-19T12:47:50.942Z</time></trkpt><trkpt lat="45.4988467" lon="8.66763"><ele>163.5</ele><time>2026-04-19T12:47:51.943Z</time></trkpt><trkpt lat="45.4988617" lon="8.6677367"><ele>163.66666666666666</ele><time>2026-04-19T12:47:52.943Z</time></trkpt><trkpt lat="45.4988817" lon="8.6678233"><ele>163.83333333333331</ele><time>2026-04-19T12:47:53.942Z</time></trkpt><trkpt lat="45.4988817" lon="8.6679517"><ele>164.0</ele><time>2026-04-19T12:47:55.942Z</time></trkpt><trkpt lat="45.4988033" lon="8.66806"><ele>163.75</ele><time>2026-04-19T12:47:57.943Z</time></trkpt><trkpt lat="45.4987267" lon="8.66812"><ele>163.5</ele><time>2026-04-19T12:47:58.943Z</time></trkpt><trkpt lat="45.4986233" lon="8.6681983"><ele>163.25</ele><time>2026-04-19T12:47:59.942Z</time></trkpt><trkpt lat="45.4985067" lon="8.668295"><ele>163.0</ele><time>2026-04-19T12:48:00.942Z</time></trkpt><trkpt lat="45.4983867" lon="8.6683867"><ele>163.0</ele><time>2026-04-19T12:48:01.942Z</time></trkpt><trkpt lat="45.4982717" lon="8.66847"><ele>163.0</ele><time>2026-04-19T12:48:02.943Z</time></trkpt><trkpt lat="45.4981583" lon="8.6685817"><ele>163.0</ele><time>2026-04-19T12:48:03.942Z</time></trkpt><trkpt lat="45.4980433" lon="8.6686783"><ele>163.0</ele><time>2026-04-19T12:48:04.943Z</time></trkpt><trkpt lat="45.49792" lon="8.66878"><ele>163.25</ele><time>2026-04-19T12:48:05.943Z</time></trkpt><trkpt lat="45.4978033" lon="8.6688867"><ele>163.5</ele><time>2026-04-19T12:48:06.943Z</time></trkpt><trkpt lat="45.497695" lon="8.6689867"><ele>163.75</ele><time>2026-04-19T12:48:07.943Z</time></trkpt><trkpt lat="45.4975717" lon="8.669085"><ele>164.0</ele><time>2026-04-19T12:48:08.942Z</time></trkpt><trkpt lat="45.4974633" lon="8.6691883"><ele>164.0</ele><time>2026-04-19T12:48:09.943Z</time></trkpt><trkpt lat="45.4973517" lon="8.6692767"><ele>164.0</ele><time>2026-04-19T12:48:10.943Z</time></trkpt><trkpt lat="45.4972267" lon="8.669375"><ele>164.0</ele><time>2026-04-19T12:48:11.943Z</time></trkpt><trkpt lat="45.4971133" lon="8.6694767"><ele>164.0</ele><time>2026-04-19T12:48:12.943Z</time></trkpt><trkpt lat="45.4970117" lon="8.6695767"><ele>163.75</ele><time>2026-04-19T12:48:13.942Z</time></trkpt><trkpt lat="45.4969083" lon="8.66966"><ele>163.5</ele><time>2026-04-19T12:48:14.943Z</time></trkpt><trkpt lat="45.4968033" lon="8.669745"><ele>163.25</ele><time>2026-04-19T12:48:15.942Z</time></trkpt><trkpt lat="45.4966967" lon="8.6698483"><ele>163.0</ele><time>2026-04-19T12:48:16.942Z</time></trkpt><trkpt lat="45.496575" lon="8.66997"><ele>163.0</ele><time>2026-04-19T12:48:17.943Z</time></trkpt><trkpt lat="45.4964433" lon="8.670105"><ele>163.0</ele><time>2026-04-19T12:48:18.943Z</time></trkpt><trkpt lat="45.4963" lon="8.6702283"><ele>163.0</ele><time>2026-04-19T12:48:19.943Z</time></trkpt><trkpt lat="45.4961383" lon="8.6703617"><ele>162.0</ele><time>2026-04-19T12:48:20.943Z</time></trkpt><trkpt lat="45.4959833" lon="8.6704867"><ele>161.0</ele><time>2026-04-19T12:48:21.943Z</time></trkpt><trkpt lat="45.4958283" lon="8.6706083"><ele>160.0</ele><time>2026-04-19T12:48:22.943Z</time></trkpt><trkpt lat="45.4956783" lon="8.6707317"><ele>160.0</ele><time>2026-04-19T12:48:23.942Z</time></trkpt><trkpt lat="45.4955383" lon="8.6708567"><ele>160.0</ele><time>2026-04-19T12:48:24.943Z</time></trkpt><trkpt lat="45.4954" lon="8.670975"><ele>160.0</ele><time>2026-04-19T12:48:25.942Z</time></trkpt><trkpt lat="45.4952567" lon="8.671095"><ele>160.0</ele><time>2026-04-19T12:48:26.942Z</time></trkpt><trkpt lat="45.49512" lon="8.6712233"><ele>160.0</ele><time>2026-04-19T12:48:27.943Z</time></trkpt><trkpt lat="45.4949867" lon="8.67134"><ele>160.0</ele><time>2026-04-19T12:48:28.942Z</time></trkpt><trkpt lat="45.4948533" lon="8.6714583"><ele>160.0</ele><time>2026-04-19T12:48:29.943Z</time></trkpt><trkpt lat="45.4947383" lon="8.67157"><ele>160.0</ele><time>2026-04-19T12:48:30.942Z</time></trkpt><trkpt lat="45.494625" lon="8.6716767"><ele>160.0</ele><time>2026-04-19T12:48:31.942Z</time></trkpt><trkpt lat="45.49451" lon="8.6717833"><ele>160.0</ele><time>2026-04-19T12:48:32.942Z</time></trkpt><trkpt lat="45.4944133" lon="8.6718833"><ele>160.0</ele><time>2026-04-19T12:48:33.943Z</time></trkpt><trkpt lat="45.4943467" lon="8.6719967"><ele>160.0</ele><time>2026-04-19T12:48:34.943Z</time></trkpt><trkpt lat="45.4943133" lon="8.6721167"><ele>160.0</ele><time>2026-04-19T12:48:35.942Z</time></trkpt><trkpt lat="45.4942733" lon="8.6722233"><ele>160.0</ele><time>2026-04-19T12:48:36.943Z</time></trkpt><trkpt lat="45.4942183" lon="8.6723067"><ele>160.0</ele><time>2026-04-19T12:48:37.942Z</time></trkpt><trkpt lat="45.4941367" lon="8.6723667"><ele>160.0</ele><time>2026-04-19T12:48:38.943Z</time></trkpt><trkpt lat="45.4940317" lon="8.6724017"><ele>160.0</ele><time>2026-04-19T12:48:39.942Z</time></trkpt><trkpt lat="45.4939067" lon="8.6724333"><ele>160.0</ele><time>2026-04-19T12:48:40.943Z</time></trkpt><trkpt lat="45.4937733" lon="8.6724817"><ele>160.0</ele><time>2026-04-19T12:48:41.943Z</time></trkpt><trkpt lat="45.4936367" lon="8.6725667"><ele>159.33333333333334</ele><time>2026-04-19T12:48:42.943Z</time></trkpt><trkpt lat="45.4935" lon="8.6726617"><ele>158.66666666666666</ele><time>2026-04-19T12:48:43.942Z</time></trkpt><trkpt lat="45.4933467" lon="8.67277"><ele>158.0</ele><time>2026-04-19T12:48:44.943Z</time></trkpt><trkpt lat="45.4931933" lon="8.672895"><ele>158.0</ele><time>2026-04-19T12:48:45.943Z</time></trkpt><trkpt lat="45.4930417" lon="8.673025"><ele>158.0</ele><time>2026-04-19T12:48:46.943Z</time></trkpt><trkpt lat="45.4928917" lon="8.6731583"><ele>158.0</ele><time>2026-04-19T12:48:47.943Z</time></trkpt><trkpt lat="45.4927367" lon="8.673295"><ele>157.66666666666666</ele><time>2026-04-19T12:48:48.942Z</time></trkpt><trkpt lat="45.4925767" lon="8.6734283"><ele>157.33333333333334</ele><time>2026-04-19T12:48:49.942Z</time></trkpt><trkpt lat="45.4924217" lon="8.67357"><ele>157.0</ele><time>2026-04-19T12:48:50.943Z</time></trkpt><trkpt lat="45.4922733" lon="8.6736983"><ele>157.0</ele><time>2026-04-19T12:48:51.943Z</time></trkpt><trkpt lat="45.4921283" lon="8.6738283"><ele>157.0</ele><time>2026-04-19T12:48:52.943Z</time></trkpt><trkpt lat="45.491985" lon="8.6739633"><ele>157.0</ele><time>2026-04-19T12:48:53.943Z</time></trkpt><trkpt lat="45.4918483" lon="8.6740883"><ele>157.66666666666669</ele><time>2026-04-19T12:48:54.942Z</time></trkpt><trkpt lat="45.4917083" lon="8.6742117"><ele>158.33333333333334</ele><time>2026-04-19T12:48:55.943Z</time></trkpt><trkpt lat="45.491565" lon="8.6743383"><ele>159.0</ele><time>2026-04-19T12:48:56.943Z</time></trkpt><trkpt lat="45.4914167" lon="8.6744583"><ele>159.33333333333334</ele><time>2026-04-19T12:48:57.943Z</time></trkpt><trkpt lat="45.4912667" lon="8.674595"><ele>159.66666666666669</ele><time>2026-04-19T12:48:58.943Z</time></trkpt><trkpt lat="45.4910983" lon="8.674745"><ele>160.0</ele><time>2026-04-19T12:48:59.942Z</time></trkpt><trkpt lat="45.4909267" lon="8.6748983"><ele>159.0</ele><time>2026-04-19T12:49:00.943Z</time></trkpt><trkpt lat="45.49076" lon="8.6750433"><ele>158.0</ele><time>2026-04-19T12:49:01.943Z</time></trkpt><trkpt lat="45.4905867" lon="8.675175"><ele>157.0</ele><time>2026-04-19T12:49:02.943Z</time></trkpt><trkpt lat="45.4904133" lon="8.6753067"><ele>157.0</ele><time>2026-04-19T12:49:03.943Z</time></trkpt><trkpt lat="45.49024" lon="8.6754283"><ele>157.0</ele><time>2026-04-19T12:49:04.943Z</time></trkpt><trkpt lat="45.4900733" lon="8.67558"><ele>157.0</ele><time>2026-04-19T12:49:05.942Z</time></trkpt><trkpt lat="45.4899167" lon="8.6757517"><ele>157.0</ele><time>2026-04-19T12:49:06.943Z</time></trkpt><trkpt lat="45.4897567" lon="8.6759267"><ele>157.0</ele><time>2026-04-19T12:49:07.943Z</time></trkpt><trkpt lat="45.48961" lon="8.6761167"><ele>157.0</ele><time>2026-04-19T12:49:08.942Z</time></trkpt><trkpt lat="45.48947" lon="8.6763217"><ele>157.0</ele><time>2026-04-19T12:49:09.943Z</time></trkpt><trkpt lat="45.48934" lon="8.67652"><ele>157.0</ele><time>2026-04-19T12:49:10.943Z</time></trkpt><trkpt lat="45.4892133" lon="8.6767283"><ele>157.0</ele><time>2026-04-19T12:49:11.943Z</time></trkpt><trkpt lat="45.4890917" lon="8.6769367"><ele>156.66666666666669</ele><time>2026-04-19T12:49:12.942Z</time></trkpt><trkpt lat="45.488965" lon="8.67713"><ele>156.33333333333334</ele><time>2026-04-19T12:49:13.943Z</time></trkpt><trkpt lat="45.48884" lon="8.67733"><ele>156.0</ele><time>2026-04-19T12:49:14.943Z</time></trkpt><trkpt lat="45.4887183" lon="8.6775283"><ele>155.66666666666666</ele><time>2026-04-19T12:49:15.942Z</time></trkpt><trkpt lat="45.488595" lon="8.6777183"><ele>155.33333333333331</ele><time>2026-04-19T12:49:16.942Z</time></trkpt><trkpt lat="45.4884717" lon="8.6779167"><ele>155.0</ele><time>2026-04-19T12:49:17.943Z</time></trkpt><trkpt lat="45.4883517" lon="8.678115"><ele>154.66666666666666</ele><time>2026-04-19T12:49:18.942Z</time></trkpt><trkpt lat="45.4882283" lon="8.6783233"><ele>154.33333333333334</ele><time>2026-04-19T12:49:19.943Z</time></trkpt><trkpt lat="45.4881033" lon="8.678525"><ele>154.0</ele><time>2026-04-19T12:49:20.943Z</time></trkpt><trkpt lat="45.4879783" lon="8.678725"><ele>155.33333333333334</ele><time>2026-04-19T12:49:21.942Z</time></trkpt><trkpt lat="45.4878533" lon="8.67893"><ele>156.66666666666666</ele><time>2026-04-19T12:49:22.942Z</time></trkpt><trkpt lat="45.487725" lon="8.67912"><ele>158.0</ele><time>2026-04-19T12:49:23.942Z</time></trkpt><trkpt lat="45.4875967" lon="8.6793267"><ele>157.33333333333331</ele><time>2026-04-19T12:49:24.942Z</time></trkpt><trkpt lat="45.4874667" lon="8.6795333"><ele>156.66666666666666</ele><time>2026-04-19T12:49:25.943Z</time></trkpt><trkpt lat="45.4873383" lon="8.679735"><ele>156.0</ele><time>2026-04-19T12:49:26.943Z</time></trkpt><trkpt lat="45.48721" lon="8.67994"><ele>156.0</ele><time>2026-04-19T12:49:27.943Z</time></trkpt><trkpt lat="45.4870883" lon="8.680145"><ele>156.0</ele><time>2026-04-19T12:49:28.942Z</time></trkpt><trkpt lat="45.4869617" lon="8.6803417"><ele>156.0</ele><time>2026-04-19T12:49:29.943Z</time></trkpt><trkpt lat="45.4868267" lon="8.6805483"><ele>156.0</ele><time>2026-04-19T12:49:30.942Z</time></trkpt><trkpt lat="45.4866967" lon="8.6807433"><ele>156.0</ele><time>2026-04-19T12:49:31.943Z</time></trkpt><trkpt lat="45.4865583" lon="8.6809417"><ele>156.0</ele><time>2026-04-19T12:49:32.942Z</time></trkpt><trkpt lat="45.4864333" lon="8.6811417"><ele>155.33333333333334</ele><time>2026-04-19T12:49:33.943Z</time></trkpt><trkpt lat="45.4863067" lon="8.681345"><ele>154.66666666666669</ele><time>2026-04-19T12:49:34.942Z</time></trkpt><trkpt lat="45.4861767" lon="8.6815567"><ele>154.0</ele><time>2026-04-19T12:49:35.943Z</time></trkpt><trkpt lat="45.4860467" lon="8.6817617"><ele>154.33333333333334</ele><time>2026-04-19T12:49:36.942Z</time></trkpt><trkpt lat="45.4859233" lon="8.6819617"><ele>154.66666666666666</ele><time>2026-04-19T12:49:37.943Z</time></trkpt><trkpt lat="45.485795" lon="8.682165"><ele>155.0</ele><time>2026-04-19T12:49:38.942Z</time></trkpt><trkpt lat="45.48566" lon="8.6823733"><ele>155.0</ele><time>2026-04-19T12:49:39.942Z</time></trkpt><trkpt lat="45.485535" lon="8.6825733"><ele>155.0</ele><time>2026-04-19T12:49:40.942Z</time></trkpt><trkpt lat="45.4854067" lon="8.682775"><ele>155.0</ele><time>2026-04-19T12:49:41.943Z</time></trkpt><trkpt lat="45.48528" lon="8.6829833"><ele>154.66666666666666</ele><time>2026-04-19T12:49:42.943Z</time></trkpt><trkpt lat="45.4851533" lon="8.683185"><ele>154.33333333333334</ele><time>2026-04-19T12:49:43.943Z</time></trkpt><trkpt lat="45.485025" lon="8.6833717"><ele>154.0</ele><time>2026-04-19T12:49:44.943Z</time></trkpt><trkpt lat="45.4848917" lon="8.6835817"><ele>154.33333333333334</ele><time>2026-04-19T12:49:45.943Z</time></trkpt><trkpt lat="45.4847633" lon="8.6837733"><ele>154.66666666666666</ele><time>2026-04-19T12:49:46.942Z</time></trkpt><trkpt lat="45.484635" lon="8.6839817"><ele>155.0</ele><time>2026-04-19T12:49:47.942Z</time></trkpt><trkpt lat="45.484505" lon="8.6841767"><ele>155.0</ele><time>2026-04-19T12:49:48.942Z</time></trkpt><trkpt lat="45.4843767" lon="8.684385"><ele>155.0</ele><time>2026-04-19T12:49:49.943Z</time></trkpt><trkpt lat="45.4842517" lon="8.6845833"><ele>155.0</ele><time>2026-04-19T12:49:50.942Z</time></trkpt><trkpt lat="45.484115" lon="8.6847917"><ele>155.0</ele><time>2026-04-19T12:49:51.942Z</time></trkpt><trkpt lat="45.483985" lon="8.685"><ele>155.0</ele><time>2026-04-19T12:49:52.943Z</time></trkpt><trkpt lat="45.483855" lon="8.685205"><ele>155.0</ele><time>2026-04-19T12:49:53.942Z</time></trkpt><trkpt lat="45.48373" lon="8.68541"><ele>155.33333333333331</ele><time>2026-04-19T12:49:54.943Z</time></trkpt><trkpt lat="45.4836033" lon="8.68563"><ele>155.66666666666666</ele><time>2026-04-19T12:49:55.943Z</time></trkpt><trkpt lat="45.48346" lon="8.68584"><ele>156.0</ele><time>2026-04-19T12:49:56.942Z</time></trkpt><trkpt lat="45.4833283" lon="8.6860283"><ele>155.33333333333334</ele><time>2026-04-19T12:49:57.943Z</time></trkpt><trkpt lat="45.4832033" lon="8.68622"><ele>154.66666666666669</ele><time>2026-04-19T12:49:58.943Z</time></trkpt><trkpt lat="45.4830917" lon="8.6863967"><ele>154.0</ele><time>2026-04-19T12:49:59.942Z</time></trkpt><trkpt lat="45.4829817" lon="8.68657"><ele>154.0</ele><time>2026-04-19T12:50:00.943Z</time></trkpt><trkpt lat="45.48289" lon="8.6867333"><ele>154.0</ele><time>2026-04-19T12:50:01.943Z</time></trkpt><trkpt lat="45.4827917" lon="8.68689"><ele>154.0</ele><time>2026-04-19T12:50:02.942Z</time></trkpt><trkpt lat="45.482705" lon="8.6870333"><ele>154.0</ele><time>2026-04-19T12:50:03.943Z</time></trkpt><trkpt lat="45.4826133" lon="8.6871683"><ele>154.0</ele><time>2026-04-19T12:50:04.942Z</time></trkpt><trkpt lat="45.4825233" lon="8.6872983"><ele>154.0</ele><time>2026-04-19T12:50:05.942Z</time></trkpt><trkpt lat="45.4824467" lon="8.68742"><ele>154.0</ele><time>2026-04-19T12:50:06.942Z</time></trkpt><trkpt lat="45.4823633" lon="8.6875467"><ele>154.0</ele><time>2026-04-19T12:50:07.942Z</time></trkpt><trkpt lat="45.4822833" lon="8.6876733"><ele>154.0</ele><time>2026-04-19T12:50:08.943Z</time></trkpt><trkpt lat="45.4822033" lon="8.6877967"><ele>154.0</ele><time>2026-04-19T12:50:09.943Z</time></trkpt><trkpt lat="45.4821233" lon="8.6879283"><ele>154.0</ele><time>2026-04-19T12:50:10.943Z</time></trkpt><trkpt lat="45.4820533" lon="8.6880483"><ele>154.0</ele><time>2026-04-19T12:50:11.943Z</time></trkpt><trkpt lat="45.481985" lon="8.6881583"><ele>154.0</ele><time>2026-04-19T12:50:12.943Z</time></trkpt><trkpt lat="45.48191" lon="8.6882767"><ele>154.0</ele><time>2026-04-19T12:50:13.943Z</time></trkpt><trkpt lat="45.4818433" lon="8.6883767"><ele>154.0</ele><time>2026-04-19T12:50:14.943Z</time></trkpt><trkpt lat="45.4817717" lon="8.6884683"><ele>154.0</ele><time>2026-04-19T12:50:15.943Z</time></trkpt><trkpt lat="45.4817033" lon="8.6885367"><ele>154.0</ele><time>2026-04-19T12:50:16.942Z</time></trkpt><trkpt lat="45.4816283" lon="8.6886433"><ele>154.0</ele><time>2026-04-19T12:50:18.943Z</time></trkpt><trkpt lat="45.4815917" lon="8.6887167"><ele>154.0</ele><time>2026-04-19T12:50:21.943Z</time></trkpt><trkpt lat="45.48154" lon="8.68886"><ele>154.0</ele><time>2026-04-19T12:50:25.943Z</time></trkpt><trkpt lat="45.481485" lon="8.6889517"><ele>154.0</ele><time>2026-04-19T12:50:26.942Z</time></trkpt><trkpt lat="45.4814317" lon="8.6890433"><ele>154.0</ele><time>2026-04-19T12:50:27.943Z</time></trkpt><trkpt lat="45.4813733" lon="8.68914"><ele>154.0</ele><time>2026-04-19T12:50:28.943Z</time></trkpt><trkpt lat="45.4813117" lon="8.6892417"><ele>154.16666666666669</ele><time>2026-04-19T12:50:29.943Z</time></trkpt><trkpt lat="45.481245" lon="8.6893483"><ele>154.33333333333334</ele><time>2026-04-19T12:50:30.942Z</time></trkpt><trkpt lat="45.4811783" lon="8.68943"><ele>154.5</ele><time>2026-04-19T12:50:31.942Z</time></trkpt><trkpt lat="45.48112" lon="8.68949"><ele>154.66666666666666</ele><time>2026-04-19T12:50:33.943Z</time></trkpt><trkpt lat="45.48107" lon="8.6895467"><ele>154.83333333333331</ele><time>2026-04-19T12:50:37.942Z</time></trkpt><trkpt lat="45.481005" lon="8.6896333"><ele>155.0</ele><time>2026-04-19T12:50:40.941Z</time></trkpt><trkpt lat="45.4809667" lon="8.6897117"><ele>155.0</ele><time>2026-04-19T12:50:42.941Z</time></trkpt><trkpt lat="45.4809" lon="8.689785"><ele>155.0</ele><time>2026-04-19T12:50:44.942Z</time></trkpt><trkpt lat="45.4808667" lon="8.689875"><ele>155.0</ele><time>2026-04-19T12:50:46.941Z</time></trkpt><trkpt lat="45.4808383" lon="8.6899783"><ele>155.0</ele><time>2026-04-19T12:50:49.942Z</time></trkpt><trkpt lat="45.4807883" lon="8.6900733"><ele>155.0</ele><time>2026-04-19T12:50:56.942Z</time></trkpt><trkpt lat="45.4807933" lon="8.6902133"><ele>155.0</ele><time>2026-04-19T12:50:58.942Z</time></trkpt><trkpt lat="45.4808117" lon="8.6903017"><ele>155.33333333333331</ele><time>2026-04-19T12:50:59.942Z</time></trkpt><trkpt lat="45.48083" lon="8.69039"><ele>155.66666666666666</ele><time>2026-04-19T12:51:00.942Z</time></trkpt><trkpt lat="45.4808517" lon="8.690475"><ele>156.0</ele><time>2026-04-19T12:51:01.941Z</time></trkpt><trkpt lat="45.4808933" lon="8.6906583"><ele>156.33333333333334</ele><time>2026-04-19T12:51:03.942Z</time></trkpt><trkpt lat="45.4809217" lon="8.69076"><ele>156.66666666666669</ele><time>2026-04-19T12:51:04.941Z</time></trkpt><trkpt lat="45.4809483" lon="8.6908633"><ele>157.0</ele><time>2026-04-19T12:51:05.942Z</time></trkpt><trkpt lat="45.480975" lon="8.6909517"><ele>156.99999999999997</ele><time>2026-04-19T12:51:06.942Z</time></trkpt><trkpt lat="45.480985" lon="8.6910417"><ele>157.0</ele><time>2026-04-19T12:51:07.942Z</time></trkpt><trkpt lat="45.4809667" lon="8.6911383"><ele>157.0</ele><time>2026-04-19T12:51:08.942Z</time></trkpt><trkpt lat="45.480955" lon="8.6912267"><ele>157.0</ele><time>2026-04-19T12:51:09.941Z</time></trkpt><trkpt lat="45.4809433" lon="8.6913217"><ele>157.0</ele><time>2026-04-19T12:51:10.942Z</time></trkpt><trkpt lat="45.4809367" lon="8.69142"><ele>156.99999999999997</ele><time>2026-04-19T12:51:11.941Z</time></trkpt><trkpt lat="45.4809333" lon="8.6915283"><ele>157.0</ele><time>2026-04-19T12:51:12.941Z</time></trkpt><trkpt lat="45.48094" lon="8.6916317"><ele>157.0</ele><time>2026-04-19T12:51:13.941Z</time></trkpt><trkpt lat="45.4809583" lon="8.691735"><ele>157.0</ele><time>2026-04-19T12:51:14.942Z</time></trkpt><trkpt lat="45.4809833" lon="8.6918433"><ele>157.0</ele><time>2026-04-19T12:51:15.941Z</time></trkpt><trkpt lat="45.4810183" lon="8.691955"><ele>157.0</ele><time>2026-04-19T12:51:16.941Z</time></trkpt><trkpt lat="45.481045" lon="8.692065"><ele>157.0</ele><time>2026-04-19T12:51:17.941Z</time></trkpt><trkpt lat="45.481075" lon="8.6921783"><ele>157.0</ele><time>2026-04-19T12:51:18.941Z</time></trkpt><trkpt lat="45.4811083" lon="8.6922933"><ele>156.79999999999998</ele><time>2026-04-19T12:51:19.941Z</time></trkpt><trkpt lat="45.4811417" lon="8.6924217"><ele>156.6</ele><time>2026-04-19T12:51:20.942Z</time></trkpt><trkpt lat="45.48118" lon="8.6925583"><ele>156.39999999999998</ele><time>2026-04-19T12:51:21.942Z</time></trkpt><trkpt lat="45.4812083" lon="8.6926917"><ele>156.2</ele><time>2026-04-19T12:51:22.942Z</time></trkpt><trkpt lat="45.4812417" lon="8.6928217"><ele>156.0</ele><time>2026-04-19T12:51:23.941Z</time></trkpt><trkpt lat="45.481285" lon="8.692955"><ele>155.6</ele><time>2026-04-19T12:51:24.942Z</time></trkpt><trkpt lat="45.48132" lon="8.69308"><ele>155.2</ele><time>2026-04-19T12:51:25.941Z</time></trkpt><trkpt lat="45.48136" lon="8.6932"><ele>154.8</ele><time>2026-04-19T12:51:26.942Z</time></trkpt><trkpt lat="45.4813983" lon="8.6933183"><ele>154.4</ele><time>2026-04-19T12:51:27.942Z</time></trkpt><trkpt lat="45.4814383" lon="8.6934217"><ele>154.0</ele><time>2026-04-19T12:51:28.942Z</time></trkpt><trkpt lat="45.4814917" lon="8.6935367"><ele>153.8</ele><time>2026-04-19T12:51:29.941Z</time></trkpt><trkpt lat="45.4815433" lon="8.6936433"><ele>153.60000000000002</ele><time>2026-04-19T12:51:30.941Z</time></trkpt><trkpt lat="45.4816233" lon="8.6937283"><ele>153.4</ele><time>2026-04-19T12:51:31.942Z</time></trkpt><trkpt lat="45.4817" lon="8.693805"><ele>153.20000000000002</ele><time>2026-04-19T12:51:32.942Z</time></trkpt><trkpt lat="45.48177" lon="8.6938933"><ele>153.0</ele><time>2026-04-19T12:51:33.941Z</time></trkpt><trkpt lat="45.4818317" lon="8.6939983"><ele>153.0</ele><time>2026-04-19T12:51:34.942Z</time></trkpt><trkpt lat="45.4818817" lon="8.6941217"><ele>153.0</ele><time>2026-04-19T12:51:35.942Z</time></trkpt><trkpt lat="45.481925" lon="8.6942683"><ele>153.0</ele><time>2026-04-19T12:51:36.942Z</time></trkpt><trkpt lat="45.4819667" lon="8.6944217"><ele>153.0</ele><time>2026-04-19T12:51:37.942Z</time></trkpt><trkpt lat="45.4820017" lon="8.6945567"><ele>153.0</ele><time>2026-04-19T12:51:38.942Z</time></trkpt><trkpt lat="45.48204" lon="8.6946833"><ele>153.20000000000002</ele><time>2026-04-19T12:51:39.942Z</time></trkpt><trkpt lat="45.48207" lon="8.69481"><ele>153.4</ele><time>2026-04-19T12:51:40.941Z</time></trkpt><trkpt lat="45.4821133" lon="8.6949333"><ele>153.60000000000002</ele><time>2026-04-19T12:51:41.942Z</time></trkpt><trkpt lat="45.4821467" lon="8.69506"><ele>153.8</ele><time>2026-04-19T12:51:42.941Z</time></trkpt><trkpt lat="45.482185" lon="8.6951983"><ele>154.0</ele><time>2026-04-19T12:51:43.942Z</time></trkpt><trkpt lat="45.4822317" lon="8.6953167"><ele>154.0</ele><time>2026-04-19T12:51:44.941Z</time></trkpt><trkpt lat="45.482275" lon="8.6954533"><ele>154.0</ele><time>2026-04-19T12:51:45.941Z</time></trkpt><trkpt lat="45.4823133" lon="8.6955833"><ele>154.0</ele><time>2026-04-19T12:51:46.941Z</time></trkpt><trkpt lat="45.482365" lon="8.6957083"><ele>154.0</ele><time>2026-04-19T12:51:47.942Z</time></trkpt><trkpt lat="45.4824067" lon="8.6958167"><ele>154.0</ele><time>2026-04-19T12:51:48.941Z</time></trkpt><trkpt lat="45.4824533" lon="8.695925"><ele>154.0</ele><time>2026-04-19T12:51:49.942Z</time></trkpt><trkpt lat="45.4824967" lon="8.6960217"><ele>154.0</ele><time>2026-04-19T12:51:50.942Z</time></trkpt><trkpt lat="45.48253" lon="8.6961133"><ele>154.0</ele><time>2026-04-19T12:51:51.942Z</time></trkpt><trkpt lat="45.4825667" lon="8.6962"><ele>154.0</ele><time>2026-04-19T12:51:52.942Z</time></trkpt><trkpt lat="45.482605" lon="8.6962867"><ele>154.0</ele><time>2026-04-19T12:51:53.942Z</time></trkpt><trkpt lat="45.4826433" lon="8.6963633"><ele>154.0</ele><time>2026-04-19T12:51:54.941Z</time></trkpt><trkpt lat="45.482705" lon="8.69648"><ele>154.0</ele><time>2026-04-19T12:51:56.942Z</time></trkpt><trkpt lat="45.4827683" lon="8.6965717"><ele>154.0</ele><time>2026-04-19T12:51:59.941Z</time></trkpt><trkpt lat="45.482825" lon="8.6966333"><ele>154.0</ele><time>2026-04-19T12:52:01.942Z</time></trkpt><trkpt lat="45.4828883" lon="8.69668"><ele>154.0</ele><time>2026-04-19T12:52:03.941Z</time></trkpt><trkpt lat="45.48295" lon="8.6966567"><ele>154.0</ele><time>2026-04-19T12:52:06.941Z</time></trkpt><trkpt lat="45.4829267" lon="8.6965483"><ele>154.0</ele><time>2026-04-19T12:52:08.941Z</time></trkpt><trkpt lat="45.482885" lon="8.6964617"><ele>154.0</ele><time>2026-04-19T12:52:09.941Z</time></trkpt><trkpt lat="45.4828283" lon="8.6963517"><ele>154.0</ele><time>2026-04-19T12:52:10.942Z</time></trkpt><trkpt lat="45.4827683" lon="8.69621"><ele>154.0</ele><time>2026-04-19T12:52:11.941Z</time></trkpt><trkpt lat="45.4826933" lon="8.6960683"><ele>154.0</ele><time>2026-04-19T12:52:12.942Z</time></trkpt><trkpt lat="45.4826183" lon="8.6959167"><ele>154.0</ele><time>2026-04-19T12:52:13.942Z</time></trkpt><trkpt lat="45.4825467" lon="8.6957717"><ele>154.0</ele><time>2026-04-19T12:52:14.941Z</time></trkpt><trkpt lat="45.48249" lon="8.6956267"><ele>154.0</ele><time>2026-04-19T12:52:15.941Z</time></trkpt><trkpt lat="45.4824333" lon="8.6954833"><ele>154.0</ele><time>2026-04-19T12:52:16.942Z</time></trkpt><trkpt lat="45.4823783" lon="8.6953183"><ele>154.5</ele><time>2026-04-19T12:52:17.941Z</time></trkpt><trkpt lat="45.4823317" lon="8.6951567"><ele>155.0</ele><time>2026-04-19T12:52:18.941Z</time></trkpt><trkpt lat="45.4822783" lon="8.69501"><ele>155.5</ele><time>2026-04-19T12:52:19.942Z</time></trkpt><trkpt lat="45.4822283" lon="8.6948567"><ele>156.0</ele><time>2026-04-19T12:52:20.942Z</time></trkpt><trkpt lat="45.4821967" lon="8.6946983"><ele>156.0</ele><time>2026-04-19T12:52:21.942Z</time></trkpt><trkpt lat="45.4821633" lon="8.6945467"><ele>156.0</ele><time>2026-04-19T12:52:22.942Z</time></trkpt><trkpt lat="45.4821383" lon="8.6944117"><ele>156.0</ele><time>2026-04-19T12:52:23.942Z</time></trkpt><trkpt lat="45.4821283" lon="8.6942983"><ele>156.0</ele><time>2026-04-19T12:52:24.942Z</time></trkpt><trkpt lat="45.4821267" lon="8.6942017"><ele>156.0</ele><time>2026-04-19T12:52:25.941Z</time></trkpt><trkpt lat="45.4821717" lon="8.6940517"><ele>156.0</ele><time>2026-04-19T12:52:27.941Z</time></trkpt><trkpt lat="45.4822367" lon="8.6940167"><ele>156.0</ele><time>2026-04-19T12:52:28.942Z</time></trkpt><trkpt lat="45.4823083" lon="8.693995"><ele>156.0</ele><time>2026-04-19T12:52:29.942Z</time></trkpt><trkpt lat="45.4824117" lon="8.6939817"><ele>156.0</ele><time>2026-04-19T12:52:30.942Z</time></trkpt><trkpt lat="45.482535" lon="8.693955"><ele>156.0</ele><time>2026-04-19T12:52:31.941Z</time></trkpt><trkpt lat="45.4826617" lon="8.6939267"><ele>156.0</ele><time>2026-04-19T12:52:32.941Z</time></trkpt><trkpt lat="45.482805" lon="8.693895"><ele>156.0</ele><time>2026-04-19T12:52:33.942Z</time></trkpt><trkpt lat="45.4829367" lon="8.6938383"><ele>156.0</ele><time>2026-04-19T12:52:34.941Z</time></trkpt><trkpt lat="45.4830717" lon="8.6937817"><ele>156.0</ele><time>2026-04-19T12:52:35.942Z</time></trkpt><trkpt lat="45.4832033" lon="8.6937217"><ele>155.5</ele><time>2026-04-19T12:52:36.942Z</time></trkpt><trkpt lat="45.4833333" lon="8.69366"><ele>155.0</ele><time>2026-04-19T12:52:37.941Z</time></trkpt><trkpt lat="45.4834633" lon="8.693595"><ele>154.5</ele><time>2026-04-19T12:52:38.942Z</time></trkpt><trkpt lat="45.4835833" lon="8.6935533"><ele>154.0</ele><time>2026-04-19T12:52:39.941Z</time></trkpt><trkpt lat="45.4837" lon="8.6935083"><ele>154.25</ele><time>2026-04-19T12:52:40.941Z</time></trkpt><trkpt lat="45.483825" lon="8.69346"><ele>154.5</ele><time>2026-04-19T12:52:41.942Z</time></trkpt><trkpt lat="45.4839417" lon="8.6933983"><ele>154.75</ele><time>2026-04-19T12:52:42.942Z</time></trkpt><trkpt lat="45.484065" lon="8.6933517"><ele>155.0</ele><time>2026-04-19T12:52:43.942Z</time></trkpt><trkpt lat="45.4841833" lon="8.6933033"><ele>155.0</ele><time>2026-04-19T12:52:44.941Z</time></trkpt><trkpt lat="45.4842983" lon="8.693255"><ele>155.0</ele><time>2026-04-19T12:52:45.942Z</time></trkpt><trkpt lat="45.484415" lon="8.69322"><ele>155.0</ele><time>2026-04-19T12:52:46.941Z</time></trkpt><trkpt lat="45.4845217" lon="8.693185"><ele>155.0</ele><time>2026-04-19T12:52:47.942Z</time></trkpt><trkpt lat="45.4846217" lon="8.69315"><ele>154.8</ele><time>2026-04-19T12:52:48.941Z</time></trkpt><trkpt lat="45.4847117" lon="8.6931233"><ele>154.6</ele><time>2026-04-19T12:52:49.942Z</time></trkpt><trkpt lat="45.4847983" lon="8.6931083"><ele>154.4</ele><time>2026-04-19T12:52:50.942Z</time></trkpt><trkpt lat="45.4848883" lon="8.6930967"><ele>154.2</ele><time>2026-04-19T12:52:51.941Z</time></trkpt><trkpt lat="45.4849867" lon="8.6930783"><ele>154.0</ele><time>2026-04-19T12:52:52.942Z</time></trkpt><trkpt lat="45.4851067" lon="8.6930517"><ele>154.0</ele><time>2026-04-19T12:52:53.942Z</time></trkpt><trkpt lat="45.4852333" lon="8.6930267"><ele>154.0</ele><time>2026-04-19T12:52:54.941Z</time></trkpt><trkpt lat="45.4853567" lon="8.692995"><ele>154.0</ele><time>2026-04-19T12:52:55.942Z</time></trkpt><trkpt lat="45.4854783" lon="8.692955"><ele>154.0</ele><time>2026-04-19T12:52:56.942Z</time></trkpt><trkpt lat="45.4856117" lon="8.6929117"><ele>154.0</ele><time>2026-04-19T12:52:57.942Z</time></trkpt><trkpt lat="45.4857383" lon="8.6928583"><ele>154.0</ele><time>2026-04-19T12:52:58.942Z</time></trkpt><trkpt lat="45.4858633" lon="8.6928133"><ele>154.0</ele><time>2026-04-19T12:52:59.942Z</time></trkpt><trkpt lat="45.4859917" lon="8.6927583"><ele>154.0</ele><time>2026-04-19T12:53:00.941Z</time></trkpt><trkpt lat="45.4861183" lon="8.6926967"><ele>154.25</ele><time>2026-04-19T12:53:01.941Z</time></trkpt><trkpt lat="45.4862417" lon="8.6926433"><ele>154.5</ele><time>2026-04-19T12:53:02.942Z</time></trkpt><trkpt lat="45.4863583" lon="8.6925967"><ele>154.75</ele><time>2026-04-19T12:53:03.941Z</time></trkpt><trkpt lat="45.486475" lon="8.6925467"><ele>155.0</ele><time>2026-04-19T12:53:04.941Z</time></trkpt><trkpt lat="45.486585" lon="8.6924983"><ele>155.0</ele><time>2026-04-19T12:53:05.941Z</time></trkpt><trkpt lat="45.486685" lon="8.6924467"><ele>155.0</ele><time>2026-04-19T12:53:06.942Z</time></trkpt><trkpt lat="45.486785" lon="8.6924033"><ele>155.0</ele><time>2026-04-19T12:53:07.942Z</time></trkpt><trkpt lat="45.4868783" lon="8.6923617"><ele>155.0</ele><time>2026-04-19T12:53:08.941Z</time></trkpt><trkpt lat="45.486955" lon="8.6923017"><ele>155.0</ele><time>2026-04-19T12:53:09.942Z</time></trkpt><trkpt lat="45.487025" lon="8.6922233"><ele>155.0</ele><time>2026-04-19T12:53:10.942Z</time></trkpt><trkpt lat="45.4870833" lon="8.6921567"><ele>155.0</ele><time>2026-04-19T12:53:11.941Z</time></trkpt><trkpt lat="45.4871467" lon="8.6921117"><ele>155.0</ele><time>2026-04-19T12:53:12.941Z</time></trkpt><trkpt lat="45.4872167" lon="8.692085"><ele>155.0</ele><time>2026-04-19T12:53:13.942Z</time></trkpt><trkpt lat="45.4873067" lon="8.6920767"><ele>155.0</ele><time>2026-04-19T12:53:14.941Z</time></trkpt><trkpt lat="45.4873933" lon="8.692075"><ele>155.0</ele><time>2026-04-19T12:53:15.942Z</time></trkpt><trkpt lat="45.4874733" lon="8.69207"><ele>155.0</ele><time>2026-04-19T12:53:16.941Z</time></trkpt><trkpt lat="45.4875567" lon="8.692045"><ele>155.0</ele><time>2026-04-19T12:53:17.942Z</time></trkpt><trkpt lat="45.4876533" lon="8.6919783"><ele>155.0</ele><time>2026-04-19T12:53:18.942Z</time></trkpt><trkpt lat="45.4877633" lon="8.69189"><ele>155.0</ele><time>2026-04-19T12:53:19.941Z</time></trkpt><trkpt lat="45.487895" lon="8.691805"><ele>155.5</ele><time>2026-04-19T12:53:20.941Z</time></trkpt><trkpt lat="45.4880217" lon="8.69173"><ele>156.0</ele><time>2026-04-19T12:53:21.942Z</time></trkpt><trkpt lat="45.4881533" lon="8.69166"><ele>156.5</ele><time>2026-04-19T12:53:22.942Z</time></trkpt><trkpt lat="45.48828" lon="8.691595"><ele>157.0</ele><time>2026-04-19T12:53:23.942Z</time></trkpt><trkpt lat="45.4884" lon="8.6915217"><ele>157.0</ele><time>2026-04-19T12:53:24.941Z</time></trkpt><trkpt lat="45.48853" lon="8.6914367"><ele>157.0</ele><time>2026-04-19T12:53:25.942Z</time></trkpt><trkpt lat="45.4886667" lon="8.6913583"><ele>157.0</ele><time>2026-04-19T12:53:26.942Z</time></trkpt><trkpt lat="45.4888083" lon="8.6912817"><ele>157.0</ele><time>2026-04-19T12:53:27.941Z</time></trkpt><trkpt lat="45.48896" lon="8.691205"><ele>157.0</ele><time>2026-04-19T12:53:28.941Z</time></trkpt><trkpt lat="45.4891217" lon="8.691135"><ele>157.0</ele><time>2026-04-19T12:53:29.941Z</time></trkpt><trkpt lat="45.489265" lon="8.691075"><ele>157.0</ele><time>2026-04-19T12:53:30.942Z</time></trkpt><trkpt lat="45.4894017" lon="8.6910217"><ele>157.0</ele><time>2026-04-19T12:53:31.942Z</time></trkpt><trkpt lat="45.48954" lon="8.690975"><ele>157.0</ele><time>2026-04-19T12:53:32.942Z</time></trkpt><trkpt lat="45.4896717" lon="8.690925"><ele>157.0</ele><time>2026-04-19T12:53:33.942Z</time></trkpt><trkpt lat="45.4898067" lon="8.690875"><ele>157.0</ele><time>2026-04-19T12:53:34.942Z</time></trkpt><trkpt lat="45.48995" lon="8.69083"><ele>156.75</ele><time>2026-04-19T12:53:35.942Z</time></trkpt><trkpt lat="45.4900983" lon="8.6907967"><ele>156.5</ele><time>2026-04-19T12:53:36.941Z</time></trkpt><trkpt lat="45.4902467" lon="8.6907633"><ele>156.25</ele><time>2026-04-19T12:53:37.941Z</time></trkpt><trkpt lat="45.4903867" lon="8.6907117"><ele>156.0</ele><time>2026-04-19T12:53:38.942Z</time></trkpt><trkpt lat="45.4905283" lon="8.69065"><ele>156.5</ele><time>2026-04-19T12:53:39.942Z</time></trkpt><trkpt lat="45.490655" lon="8.69059"><ele>157.0</ele><time>2026-04-19T12:53:40.942Z</time></trkpt><trkpt lat="45.4907783" lon="8.6905433"><ele>157.5</ele><time>2026-04-19T12:53:41.941Z</time></trkpt><trkpt lat="45.4909133" lon="8.6905333"><ele>158.0</ele><time>2026-04-19T12:53:42.941Z</time></trkpt><trkpt lat="45.4910483" lon="8.6905417"><ele>158.0</ele><time>2026-04-19T12:53:43.942Z</time></trkpt><trkpt lat="45.4911917" lon="8.6905633"><ele>158.0</ele><time>2026-04-19T12:53:44.941Z</time></trkpt><trkpt lat="45.4913383" lon="8.690575"><ele>158.0</ele><time>2026-04-19T12:53:45.942Z</time></trkpt><trkpt lat="45.49149" lon="8.6905817"><ele>158.0</ele><time>2026-04-19T12:53:46.941Z</time></trkpt><trkpt lat="45.4916383" lon="8.6905733"><ele>158.25</ele><time>2026-04-19T12:53:47.942Z</time></trkpt><trkpt lat="45.4917767" lon="8.690555"><ele>158.5</ele><time>2026-04-19T12:53:48.941Z</time></trkpt><trkpt lat="45.4918983" lon="8.6905367"><ele>158.75</ele><time>2026-04-19T12:53:49.942Z</time></trkpt><trkpt lat="45.492025" lon="8.6905117"><ele>159.0</ele><time>2026-04-19T12:53:50.941Z</time></trkpt><trkpt lat="45.4921367" lon="8.6904967"><ele>159.16666666666666</ele><time>2026-04-19T12:53:51.942Z</time></trkpt><trkpt lat="45.4922433" lon="8.6904817"><ele>159.33333333333334</ele><time>2026-04-19T12:53:52.942Z</time></trkpt><trkpt lat="45.49234" lon="8.6904717"><ele>159.5</ele><time>2026-04-19T12:53:53.942Z</time></trkpt><trkpt lat="45.4924267" lon="8.6904533"><ele>159.66666666666669</ele><time>2026-04-19T12:53:54.941Z</time></trkpt><trkpt lat="45.49251" lon="8.6904333"><ele>159.83333333333334</ele><time>2026-04-19T12:53:55.941Z</time></trkpt><trkpt lat="45.4925783" lon="8.6904233"><ele>160.0</ele><time>2026-04-19T12:53:56.942Z</time></trkpt><trkpt lat="45.492645" lon="8.6904467"><ele>160.0</ele><time>2026-04-19T12:53:57.941Z</time></trkpt><trkpt lat="45.4927267" lon="8.6905617"><ele>160.0</ele><time>2026-04-19T12:53:59.942Z</time></trkpt><trkpt lat="45.492735" lon="8.6906567"><ele>160.0</ele><time>2026-04-19T12:54:00.942Z</time></trkpt><trkpt lat="45.4927317" lon="8.690795"><ele>160.0</ele><time>2026-04-19T12:54:01.941Z</time></trkpt><trkpt lat="45.4927317" lon="8.6909533"><ele>160.0</ele><time>2026-04-19T12:54:02.941Z</time></trkpt><trkpt lat="45.4927367" lon="8.6911117"><ele>160.0</ele><time>2026-04-19T12:54:03.941Z</time></trkpt><trkpt lat="45.4927317" lon="8.6912583"><ele>160.0</ele><time>2026-04-19T12:54:04.942Z</time></trkpt><trkpt lat="45.4927367" lon="8.6914133"><ele>160.0</ele><time>2026-04-19T12:54:05.942Z</time></trkpt><trkpt lat="45.492745" lon="8.69157"><ele>160.0</ele><time>2026-04-19T12:54:06.941Z</time></trkpt><trkpt lat="45.4927567" lon="8.6917267"><ele>160.0</ele><time>2026-04-19T12:54:07.942Z</time></trkpt><trkpt lat="45.4927817" lon="8.6919033"><ele>159.25</ele><time>2026-04-19T12:54:08.941Z</time></trkpt><trkpt lat="45.4928067" lon="8.6920617"><ele>158.5</ele><time>2026-04-19T12:54:09.941Z</time></trkpt><trkpt lat="45.4928267" lon="8.6922317"><ele>157.75</ele><time>2026-04-19T12:54:10.941Z</time></trkpt><trkpt lat="45.4928383" lon="8.6924017"><ele>157.0</ele><time>2026-04-19T12:54:11.942Z</time></trkpt><trkpt lat="45.4928517" lon="8.69256"><ele>157.0</ele><time>2026-04-19T12:54:12.942Z</time></trkpt><trkpt lat="45.49287" lon="8.6926933"><ele>157.0</ele><time>2026-04-19T12:54:13.941Z</time></trkpt><trkpt lat="45.492885" lon="8.6928083"><ele>157.0</ele><time>2026-04-19T12:54:14.941Z</time></trkpt><trkpt lat="45.4929" lon="8.692915"><ele>157.0</ele><time>2026-04-19T12:54:15.941Z</time></trkpt><trkpt lat="45.4929133" lon="8.69301"><ele>157.0</ele><time>2026-04-19T12:54:16.941Z</time></trkpt><trkpt lat="45.4928917" lon="8.6931667"><ele>157.0</ele><time>2026-04-19T12:54:18.941Z</time></trkpt><trkpt lat="45.4927483" lon="8.6932867"><ele>157.0</ele><time>2026-04-19T12:54:20.941Z</time></trkpt><trkpt lat="45.4926283" lon="8.6933467"><ele>157.0</ele><time>2026-04-19T12:54:21.94Z</time></trkpt><trkpt lat="45.49251" lon="8.6934117"><ele>157.0</ele><time>2026-04-19T12:54:22.94Z</time></trkpt><trkpt lat="45.4923733" lon="8.693515"><ele>157.0</ele><time>2026-04-19T12:54:23.941Z</time></trkpt><trkpt lat="45.49224" lon="8.6936283"><ele>157.0</ele><time>2026-04-19T12:54:24.94Z</time></trkpt><trkpt lat="45.4921067" lon="8.69375"><ele>157.0</ele><time>2026-04-19T12:54:25.94Z</time></trkpt><trkpt lat="45.491985" lon="8.69385"><ele>157.0</ele><time>2026-04-19T12:54:26.94Z</time></trkpt><trkpt lat="45.4918617" lon="8.69395"><ele>157.0</ele><time>2026-04-19T12:54:27.941Z</time></trkpt><trkpt lat="45.4917467" lon="8.6940733"><ele>157.75</ele><time>2026-04-19T12:54:28.941Z</time></trkpt><trkpt lat="45.49164" lon="8.69421"><ele>158.5</ele><time>2026-04-19T12:54:29.941Z</time></trkpt><trkpt lat="45.4915367" lon="8.6943517"><ele>159.25</ele><time>2026-04-19T12:54:30.94Z</time></trkpt><trkpt lat="45.4914333" lon="8.6944917"><ele>160.0</ele><time>2026-04-19T12:54:31.94Z</time></trkpt><trkpt lat="45.4913467" lon="8.6946283"><ele>160.0</ele><time>2026-04-19T12:54:32.941Z</time></trkpt><trkpt lat="45.491265" lon="8.69476"><ele>160.0</ele><time>2026-04-19T12:54:33.94Z</time></trkpt><trkpt lat="45.4911783" lon="8.6948883"><ele>160.0</ele><time>2026-04-19T12:54:34.941Z</time></trkpt><trkpt lat="45.491095" lon="8.69501"><ele>160.0</ele><time>2026-04-19T12:54:35.94Z</time></trkpt><trkpt lat="45.4910117" lon="8.695125"><ele>159.25</ele><time>2026-04-19T12:54:36.941Z</time></trkpt><trkpt lat="45.4909267" lon="8.6952333"><ele>158.5</ele><time>2026-04-19T12:54:37.94Z</time></trkpt><trkpt lat="45.4908417" lon="8.6953517"><ele>157.75</ele><time>2026-04-19T12:54:38.94Z</time></trkpt><trkpt lat="45.4907567" lon="8.6954767"><ele>157.0</ele><time>2026-04-19T12:54:39.94Z</time></trkpt><trkpt lat="45.4906733" lon="8.6955917"><ele>157.0</ele><time>2026-04-19T12:54:40.941Z</time></trkpt><trkpt lat="45.4905917" lon="8.6956933"><ele>157.0</ele><time>2026-04-19T12:54:41.941Z</time></trkpt><trkpt lat="45.4905017" lon="8.6957917"><ele>157.0</ele><time>2026-04-19T12:54:42.941Z</time></trkpt><trkpt lat="45.490415" lon="8.6958883"><ele>157.0</ele><time>2026-04-19T12:54:43.94Z</time></trkpt><trkpt lat="45.4903233" lon="8.6959917"><ele>157.0</ele><time>2026-04-19T12:54:44.94Z</time></trkpt><trkpt lat="45.490235" lon="8.696095"><ele>157.0</ele><time>2026-04-19T12:54:45.94Z</time></trkpt><trkpt lat="45.49014" lon="8.6962"><ele>157.0</ele><time>2026-04-19T12:54:46.941Z</time></trkpt><trkpt lat="45.4900433" lon="8.69629"><ele>157.0</ele><time>2026-04-19T12:54:47.941Z</time></trkpt><trkpt lat="45.489945" lon="8.69639"><ele>157.0</ele><time>2026-04-19T12:54:48.941Z</time></trkpt><trkpt lat="45.489845" lon="8.6964867"><ele>157.0</ele><time>2026-04-19T12:54:49.941Z</time></trkpt><trkpt lat="45.4897433" lon="8.6965733"><ele>157.0</ele><time>2026-04-19T12:54:50.941Z</time></trkpt><trkpt lat="45.4896533" lon="8.6966633"><ele>157.0</ele><time>2026-04-19T12:54:51.941Z</time></trkpt><trkpt lat="45.4895633" lon="8.696755"><ele>157.0</ele><time>2026-04-19T12:54:52.94Z</time></trkpt><trkpt lat="45.4894767" lon="8.69686"><ele>155.75</ele><time>2026-04-19T12:54:53.941Z</time></trkpt><trkpt lat="45.4893867" lon="8.6969667"><ele>154.5</ele><time>2026-04-19T12:54:54.941Z</time></trkpt><trkpt lat="45.4892933" lon="8.697085"><ele>153.25</ele><time>2026-04-19T12:54:55.94Z</time></trkpt><trkpt lat="45.4892067" lon="8.6972033"><ele>152.0</ele><time>2026-04-19T12:54:56.94Z</time></trkpt><trkpt lat="45.4891233" lon="8.6973217"><ele>152.0</ele><time>2026-04-19T12:54:57.941Z</time></trkpt><trkpt lat="45.4890367" lon="8.6974367"><ele>152.0</ele><time>2026-04-19T12:54:58.94Z</time></trkpt><trkpt lat="45.4889483" lon="8.69756"><ele>152.0</ele><time>2026-04-19T12:54:59.94Z</time></trkpt><trkpt lat="45.4888667" lon="8.6976583"><ele>152.0</ele><time>2026-04-19T12:55:00.94Z</time></trkpt><trkpt lat="45.4887833" lon="8.697775"><ele>152.25</ele><time>2026-04-19T12:55:01.941Z</time></trkpt><trkpt lat="45.4887" lon="8.69789"><ele>152.5</ele><time>2026-04-19T12:55:02.941Z</time></trkpt><trkpt lat="45.488615" lon="8.698005"><ele>152.75</ele><time>2026-04-19T12:55:03.94Z</time></trkpt><trkpt lat="45.488525" lon="8.6981233"><ele>153.0</ele><time>2026-04-19T12:55:04.941Z</time></trkpt><trkpt lat="45.4884417" lon="8.69824"><ele>153.0</ele><time>2026-04-19T12:55:05.941Z</time></trkpt><trkpt lat="45.4883517" lon="8.6983533"><ele>153.0</ele><time>2026-04-19T12:55:06.941Z</time></trkpt><trkpt lat="45.4882483" lon="8.6984633"><ele>153.0</ele><time>2026-04-19T12:55:07.94Z</time></trkpt><trkpt lat="45.4881517" lon="8.698555"><ele>153.0</ele><time>2026-04-19T12:55:08.94Z</time></trkpt><trkpt lat="45.4880667" lon="8.698645"><ele>153.4</ele><time>2026-04-19T12:55:09.94Z</time></trkpt><trkpt lat="45.4879817" lon="8.6987383"><ele>153.8</ele><time>2026-04-19T12:55:10.941Z</time></trkpt><trkpt lat="45.487895" lon="8.6988217"><ele>154.2</ele><time>2026-04-19T12:55:11.941Z</time></trkpt><trkpt lat="45.4878183" lon="8.6988967"><ele>154.6</ele><time>2026-04-19T12:55:12.941Z</time></trkpt><trkpt lat="45.4877517" lon="8.6989633"><ele>155.0</ele><time>2026-04-19T12:55:13.941Z</time></trkpt><trkpt lat="45.4876883" lon="8.69901"><ele>155.2</ele><time>2026-04-19T12:55:14.94Z</time></trkpt><trkpt lat="45.4875967" lon="8.6990783"><ele>155.4</ele><time>2026-04-19T12:55:16.941Z</time></trkpt><trkpt lat="45.4875317" lon="8.6991367"><ele>155.6</ele><time>2026-04-19T12:55:19.94Z</time></trkpt><trkpt lat="45.487465" lon="8.6991267"><ele>155.8</ele><time>2026-04-19T12:55:22.941Z</time></trkpt><trkpt lat="45.4873767" lon="8.699055"><ele>156.0</ele><time>2026-04-19T12:55:24.941Z</time></trkpt><trkpt lat="45.4872833" lon="8.6991683"><ele>156.0</ele><time>2026-04-19T12:55:26.94Z</time></trkpt><trkpt lat="45.4872717" lon="8.6992833"><ele>156.0</ele><time>2026-04-19T12:55:27.941Z</time></trkpt><trkpt lat="45.4872717" lon="8.699415"><ele>156.0</ele><time>2026-04-19T12:55:28.94Z</time></trkpt><trkpt lat="45.487275" lon="8.6995583"><ele>156.0</ele><time>2026-04-19T12:55:29.94Z</time></trkpt><trkpt lat="45.4872783" lon="8.69971"><ele>156.0</ele><time>2026-04-19T12:55:30.94Z</time></trkpt><trkpt lat="45.4872783" lon="8.6998667"><ele>155.8</ele><time>2026-04-19T12:55:31.941Z</time></trkpt><trkpt lat="45.4872783" lon="8.7000217"><ele>155.6</ele><time>2026-04-19T12:55:32.941Z</time></trkpt><trkpt lat="45.487275" lon="8.7001767"><ele>155.4</ele><time>2026-04-19T12:55:33.941Z</time></trkpt><trkpt lat="45.4872783" lon="8.70032"><ele>155.2</ele><time>2026-04-19T12:55:34.941Z</time></trkpt><trkpt lat="45.4872867" lon="8.7004583"><ele>155.0</ele><time>2026-04-19T12:55:35.94Z</time></trkpt><trkpt lat="45.48729" lon="8.700585"><ele>155.0</ele><time>2026-04-19T12:55:36.941Z</time></trkpt><trkpt lat="45.4872867" lon="8.7007017"><ele>155.0</ele><time>2026-04-19T12:55:37.94Z</time></trkpt><trkpt lat="45.4872783" lon="8.700805"><ele>155.0</ele><time>2026-04-19T12:55:38.941Z</time></trkpt><trkpt lat="45.4872667" lon="8.700975"><ele>155.0</ele><time>2026-04-19T12:55:40.941Z</time></trkpt><trkpt lat="45.4872533" lon="8.7010867"><ele>155.0</ele><time>2026-04-19T12:55:41.94Z</time></trkpt><trkpt lat="45.4872417" lon="8.7012033"><ele>155.0</ele><time>2026-04-19T12:55:42.941Z</time></trkpt><trkpt lat="45.4872283" lon="8.7013333"><ele>155.0</ele><time>2026-04-19T12:55:43.941Z</time></trkpt><trkpt lat="45.4872167" lon="8.7014667"><ele>155.0</ele><time>2026-04-19T12:55:44.941Z</time></trkpt><trkpt lat="45.48721" lon="8.701605"><ele>155.0</ele><time>2026-04-19T12:55:45.94Z</time></trkpt><trkpt lat="45.4872117" lon="8.701755"><ele>155.0</ele><time>2026-04-19T12:55:46.94Z</time></trkpt><trkpt lat="45.4872083" lon="8.7019133"><ele>155.0</ele><time>2026-04-19T12:55:47.94Z</time></trkpt><trkpt lat="45.487205" lon="8.702075"><ele>155.0</ele><time>2026-04-19T12:55:48.94Z</time></trkpt><trkpt lat="45.4872017" lon="8.7022433"><ele>155.0</ele><time>2026-04-19T12:55:49.941Z</time></trkpt><trkpt lat="45.487195" lon="8.7024217"><ele>155.0</ele><time>2026-04-19T12:55:50.94Z</time></trkpt><trkpt lat="45.48719" lon="8.70261"><ele>155.0</ele><time>2026-04-19T12:55:51.94Z</time></trkpt><trkpt lat="45.4871917" lon="8.7027883"><ele>155.5</ele><time>2026-04-19T12:55:52.94Z</time></trkpt><trkpt lat="45.4871983" lon="8.7029667"><ele>156.0</ele><time>2026-04-19T12:55:53.941Z</time></trkpt><trkpt lat="45.487205" lon="8.7031433"><ele>156.5</ele><time>2026-04-19T12:55:54.941Z</time></trkpt><trkpt lat="45.4872017" lon="8.7033233"><ele>157.0</ele><time>2026-04-19T12:55:55.941Z</time></trkpt><trkpt lat="45.4871933" lon="8.70351"><ele>156.75</ele><time>2026-04-19T12:55:56.941Z</time></trkpt><trkpt lat="45.4871883" lon="8.7036933"><ele>156.5</ele><time>2026-04-19T12:55:57.94Z</time></trkpt><trkpt lat="45.4871867" lon="8.70389"><ele>156.25</ele><time>2026-04-19T12:55:58.94Z</time></trkpt><trkpt lat="45.4871867" lon="8.704095"><ele>156.0</ele><time>2026-04-19T12:55:59.941Z</time></trkpt><trkpt lat="45.487185" lon="8.7042983"><ele>156.0</ele><time>2026-04-19T12:56:00.941Z</time></trkpt><trkpt lat="45.4871733" lon="8.7045067"><ele>156.0</ele><time>2026-04-19T12:56:01.941Z</time></trkpt><trkpt lat="45.4871683" lon="8.704725"><ele>156.0</ele><time>2026-04-19T12:56:02.94Z</time></trkpt><trkpt lat="45.4871533" lon="8.7049383"><ele>156.0</ele><time>2026-04-19T12:56:03.941Z</time></trkpt><trkpt lat="45.4871417" lon="8.705155"><ele>156.0</ele><time>2026-04-19T12:56:04.941Z</time></trkpt><trkpt lat="45.4871283" lon="8.7053783"><ele>156.0</ele><time>2026-04-19T12:56:05.941Z</time></trkpt><trkpt lat="45.4871267" lon="8.705595"><ele>156.0</ele><time>2026-04-19T12:56:06.941Z</time></trkpt><trkpt lat="45.487125" lon="8.7058083"><ele>156.0</ele><time>2026-04-19T12:56:07.941Z</time></trkpt><trkpt lat="45.48712" lon="8.7060333"><ele>156.0</ele><time>2026-04-19T12:56:08.94Z</time></trkpt><trkpt lat="45.4871117" lon="8.7062367"><ele>156.0</ele><time>2026-04-19T12:56:09.94Z</time></trkpt><trkpt lat="45.48711" lon="8.706445"><ele>156.0</ele><time>2026-04-19T12:56:10.941Z</time></trkpt><trkpt lat="45.4871033" lon="8.7066483"><ele>156.0</ele><time>2026-04-19T12:56:11.94Z</time></trkpt><trkpt lat="45.4870983" lon="8.7068267"><ele>156.0</ele><time>2026-04-19T12:56:12.941Z</time></trkpt><trkpt lat="45.487085" lon="8.7069967"><ele>155.5</ele><time>2026-04-19T12:56:13.941Z</time></trkpt><trkpt lat="45.4870733" lon="8.707155"><ele>155.0</ele><time>2026-04-19T12:56:14.941Z</time></trkpt><trkpt lat="45.4870583" lon="8.707305"><ele>154.5</ele><time>2026-04-19T12:56:15.941Z</time></trkpt><trkpt lat="45.4870517" lon="8.7074333"><ele>154.0</ele><time>2026-04-19T12:56:16.941Z</time></trkpt><trkpt lat="45.48704" lon="8.7075317"><ele>153.5</ele><time>2026-04-19T12:56:17.941Z</time></trkpt><trkpt lat="45.4870333" lon="8.7076233"><ele>153.0</ele><time>2026-04-19T12:56:18.941Z</time></trkpt><trkpt lat="45.487" lon="8.7077333"><ele>153.0</ele><time>2026-04-19T12:56:20.941Z</time></trkpt><trkpt lat="45.4870033" lon="8.7078817"><ele>153.0</ele><time>2026-04-19T12:56:23.941Z</time></trkpt><trkpt lat="45.4870483" lon="8.707965"><ele>153.0</ele><time>2026-04-19T12:56:24.94Z</time></trkpt><trkpt lat="45.4871167" lon="8.70806"><ele>153.0</ele><time>2026-04-19T12:56:25.941Z</time></trkpt><trkpt lat="45.4871967" lon="8.708175"><ele>153.0</ele><time>2026-04-19T12:56:26.941Z</time></trkpt><trkpt lat="45.487285" lon="8.7083033"><ele>153.25</ele><time>2026-04-19T12:56:27.941Z</time></trkpt><trkpt lat="45.48738" lon="8.7084433"><ele>153.5</ele><time>2026-04-19T12:56:28.94Z</time></trkpt><trkpt lat="45.487475" lon="8.708585"><ele>153.75</ele><time>2026-04-19T12:56:29.94Z</time></trkpt><trkpt lat="45.487575" lon="8.7087217"><ele>154.0</ele><time>2026-04-19T12:56:30.941Z</time></trkpt><trkpt lat="45.4876733" lon="8.7088517"><ele>154.0</ele><time>2026-04-19T12:56:31.941Z</time></trkpt><trkpt lat="45.4877683" lon="8.7089767"><ele>154.0</ele><time>2026-04-19T12:56:32.94Z</time></trkpt><trkpt lat="45.4878517" lon="8.7090967"><ele>154.0</ele><time>2026-04-19T12:56:33.941Z</time></trkpt><trkpt lat="45.4879417" lon="8.7092133"><ele>154.0</ele><time>2026-04-19T12:56:34.941Z</time></trkpt><trkpt lat="45.48803" lon="8.709335"><ele>154.25</ele><time>2026-04-19T12:56:35.941Z</time></trkpt><trkpt lat="45.488115" lon="8.7094767"><ele>154.5</ele><time>2026-04-19T12:56:36.94Z</time></trkpt><trkpt lat="45.4881867" lon="8.709615"><ele>154.75</ele><time>2026-04-19T12:56:37.94Z</time></trkpt><trkpt lat="45.4882317" lon="8.709775"><ele>155.0</ele><time>2026-04-19T12:56:38.941Z</time></trkpt><trkpt lat="45.4882433" lon="8.7099433"><ele>155.0</ele><time>2026-04-19T12:56:39.94Z</time></trkpt><trkpt lat="45.4882233" lon="8.7101183"><ele>155.0</ele><time>2026-04-19T12:56:40.94Z</time></trkpt><trkpt lat="45.4881917" lon="8.7102767"><ele>155.0</ele><time>2026-04-19T12:56:41.941Z</time></trkpt><trkpt lat="45.48813" lon="8.7104267"><ele>155.0</ele><time>2026-04-19T12:56:42.94Z</time></trkpt><trkpt lat="45.4880733" lon="8.71058"><ele>155.25</ele><time>2026-04-19T12:56:43.94Z</time></trkpt><trkpt lat="45.48803" lon="8.710745"><ele>155.5</ele><time>2026-04-19T12:56:44.941Z</time></trkpt><trkpt lat="45.487995" lon="8.71093"><ele>155.75</ele><time>2026-04-19T12:56:45.941Z</time></trkpt><trkpt lat="45.48797" lon="8.7111217"><ele>156.0</ele><time>2026-04-19T12:56:46.94Z</time></trkpt><trkpt lat="45.4879517" lon="8.711325"><ele>156.0</ele><time>2026-04-19T12:56:47.941Z</time></trkpt><trkpt lat="45.4879283" lon="8.71153"><ele>156.0</ele><time>2026-04-19T12:56:48.941Z</time></trkpt><trkpt lat="45.4879" lon="8.7117483"><ele>156.0</ele><time>2026-04-19T12:56:49.941Z</time></trkpt><trkpt lat="45.4878683" lon="8.7119767"><ele>156.66666666666666</ele><time>2026-04-19T12:56:50.94Z</time></trkpt><trkpt lat="45.4878467" lon="8.712205"><ele>157.33333333333331</ele><time>2026-04-19T12:56:51.941Z</time></trkpt><trkpt lat="45.4878333" lon="8.7124333"><ele>158.0</ele><time>2026-04-19T12:56:52.94Z</time></trkpt><trkpt lat="45.4878383" lon="8.7126667"><ele>157.66666666666666</ele><time>2026-04-19T12:56:53.941Z</time></trkpt><trkpt lat="45.4878367" lon="8.7129"><ele>157.33333333333334</ele><time>2026-04-19T12:56:54.941Z</time></trkpt><trkpt lat="45.487865" lon="8.7131283"><ele>157.0</ele><time>2026-04-19T12:56:55.94Z</time></trkpt><trkpt lat="45.48791" lon="8.713355"><ele>157.0</ele><time>2026-04-19T12:56:56.941Z</time></trkpt><trkpt lat="45.4879683" lon="8.71357"><ele>157.0</ele><time>2026-04-19T12:56:57.941Z</time></trkpt><trkpt lat="45.4880433" lon="8.71376"><ele>157.0</ele><time>2026-04-19T12:56:58.941Z</time></trkpt><trkpt lat="45.48814" lon="8.7139417"><ele>155.66666666666669</ele><time>2026-04-19T12:56:59.941Z</time></trkpt><trkpt lat="45.488255" lon="8.71409"><ele>154.33333333333334</ele><time>2026-04-19T12:57:00.941Z</time></trkpt><trkpt lat="45.488385" lon="8.714195"><ele>153.0</ele><time>2026-04-19T12:57:01.94Z</time></trkpt><trkpt lat="45.4885267" lon="8.714255"><ele>153.0</ele><time>2026-04-19T12:57:02.94Z</time></trkpt><trkpt lat="45.4886717" lon="8.71426"><ele>153.0</ele><time>2026-04-19T12:57:03.941Z</time></trkpt><trkpt lat="45.4888217" lon="8.7142283"><ele>153.0</ele><time>2026-04-19T12:57:04.94Z</time></trkpt><trkpt lat="45.48897" lon="8.714165"><ele>154.0</ele><time>2026-04-19T12:57:05.94Z</time></trkpt><trkpt lat="45.48911" lon="8.7140717"><ele>155.0</ele><time>2026-04-19T12:57:06.94Z</time></trkpt><trkpt lat="45.4892533" lon="8.713975"><ele>156.0</ele><time>2026-04-19T12:57:07.941Z</time></trkpt><trkpt lat="45.4894017" lon="8.713895"><ele>156.0</ele><time>2026-04-19T12:57:08.94Z</time></trkpt><trkpt lat="45.4895567" lon="8.7138483"><ele>156.0</ele><time>2026-04-19T12:57:09.94Z</time></trkpt><trkpt lat="45.4897217" lon="8.7138233"><ele>156.0</ele><time>2026-04-19T12:57:10.941Z</time></trkpt><trkpt lat="45.48989" lon="8.71382"><ele>156.33333333333334</ele><time>2026-04-19T12:57:11.941Z</time></trkpt><trkpt lat="45.4900583" lon="8.7138317"><ele>156.66666666666669</ele><time>2026-04-19T12:57:12.94Z</time></trkpt><trkpt lat="45.4902367" lon="8.7138583"><ele>157.0</ele><time>2026-04-19T12:57:13.941Z</time></trkpt><trkpt lat="45.4904033" lon="8.7139383"><ele>156.66666666666669</ele><time>2026-04-19T12:57:14.94Z</time></trkpt><trkpt lat="45.49056" lon="8.7140317"><ele>156.33333333333334</ele><time>2026-04-19T12:57:15.94Z</time></trkpt><trkpt lat="45.490705" lon="8.71413"><ele>156.0</ele><time>2026-04-19T12:57:16.94Z</time></trkpt><trkpt lat="45.4908517" lon="8.7142217"><ele>156.0</ele><time>2026-04-19T12:57:17.941Z</time></trkpt><trkpt lat="45.4909967" lon="8.7143167"><ele>156.0</ele><time>2026-04-19T12:57:18.94Z</time></trkpt><trkpt lat="45.49113" lon="8.7144083"><ele>156.0</ele><time>2026-04-19T12:57:19.94Z</time></trkpt><trkpt lat="45.4912533" lon="8.714515"><ele>156.0</ele><time>2026-04-19T12:57:20.941Z</time></trkpt><trkpt lat="45.4913783" lon="8.7146183"><ele>156.0</ele><time>2026-04-19T12:57:21.94Z</time></trkpt><trkpt lat="45.4915067" lon="8.7147367"><ele>156.0</ele><time>2026-04-19T12:57:22.941Z</time></trkpt><trkpt lat="45.4916217" lon="8.7148483"><ele>156.0</ele><time>2026-04-19T12:57:23.94Z</time></trkpt><trkpt lat="45.49173" lon="8.714955"><ele>156.0</ele><time>2026-04-19T12:57:24.941Z</time></trkpt><trkpt lat="45.491825" lon="8.7150583"><ele>156.0</ele><time>2026-04-19T12:57:25.94Z</time></trkpt><trkpt lat="45.4919133" lon="8.7151567"><ele>156.0</ele><time>2026-04-19T12:57:26.941Z</time></trkpt><trkpt lat="45.492" lon="8.7152517"><ele>156.0</ele><time>2026-04-19T12:57:27.941Z</time></trkpt><trkpt lat="45.492075" lon="8.7153383"><ele>156.0</ele><time>2026-04-19T12:57:28.941Z</time></trkpt><trkpt lat="45.492145" lon="8.7154183"><ele>155.83333333333334</ele><time>2026-04-19T12:57:29.941Z</time></trkpt><trkpt lat="45.4922" lon="8.7154833"><ele>155.66666666666666</ele><time>2026-04-19T12:57:30.941Z</time></trkpt><trkpt lat="45.49224" lon="8.7155933"><ele>155.5</ele><time>2026-04-19T12:57:32.941Z</time></trkpt><trkpt lat="45.492185" lon="8.71566"><ele>155.33333333333331</ele><time>2026-04-19T12:57:34.94Z</time></trkpt><trkpt lat="45.4921183" lon="8.7156683"><ele>155.16666666666666</ele><time>2026-04-19T12:57:35.94Z</time></trkpt><trkpt lat="45.492055" lon="8.715675"><ele>155.0</ele><time>2026-04-19T12:57:36.941Z</time></trkpt><trkpt lat="45.491975" lon="8.7157533"><ele>155.0</ele><time>2026-04-19T12:57:38.94Z</time></trkpt><trkpt lat="45.4919867" lon="8.715905"><ele>155.0</ele><time>2026-04-19T12:57:40.941Z</time></trkpt><trkpt lat="45.492025" lon="8.7159967"><ele>155.0</ele><time>2026-04-19T12:57:41.94Z</time></trkpt><trkpt lat="45.492085" lon="8.71611"><ele>155.0</ele><time>2026-04-19T12:57:42.94Z</time></trkpt><trkpt lat="45.492155" lon="8.71626"><ele>155.0</ele><time>2026-04-19T12:57:43.941Z</time></trkpt><trkpt lat="45.49225" lon="8.7164317"><ele>155.0</ele><time>2026-04-19T12:57:44.94Z</time></trkpt><trkpt lat="45.49233" lon="8.7165983"><ele>155.0</ele><time>2026-04-19T12:57:45.94Z</time></trkpt><trkpt lat="45.4924017" lon="8.71676"><ele>155.0</ele><time>2026-04-19T12:57:46.941Z</time></trkpt><trkpt lat="45.49247" lon="8.7169183"><ele>155.0</ele><time>2026-04-19T12:57:47.941Z</time></trkpt><trkpt lat="45.4925217" lon="8.71707"><ele>155.0</ele><time>2026-04-19T12:57:48.94Z</time></trkpt><trkpt lat="45.49258" lon="8.7172333"><ele>155.0</ele><time>2026-04-19T12:57:49.941Z</time></trkpt><trkpt lat="45.4926417" lon="8.717395"><ele>155.0</ele><time>2026-04-19T12:57:50.941Z</time></trkpt><trkpt lat="45.4926983" lon="8.7175333"><ele>155.0</ele><time>2026-04-19T12:57:51.941Z</time></trkpt><trkpt lat="45.4927483" lon="8.7176533"><ele>154.0</ele><time>2026-04-19T12:57:52.94Z</time></trkpt><trkpt lat="45.4927917" lon="8.7177533"><ele>153.0</ele><time>2026-04-19T12:57:53.941Z</time></trkpt><trkpt lat="45.49283" lon="8.7178267"><ele>152.0</ele><time>2026-04-19T12:57:54.94Z</time></trkpt><trkpt lat="45.4928633" lon="8.7179517"><ele>151.0</ele><time>2026-04-19T12:57:56.941Z</time></trkpt><trkpt lat="45.4927883" lon="8.7180517"><ele>150.0</ele><time>2026-04-19T12:57:58.941Z</time></trkpt><trkpt lat="45.492705" lon="8.7180917"><ele>149.0</ele><time>2026-04-19T12:57:59.94Z</time></trkpt><trkpt lat="45.4925883" lon="8.71812"><ele>149.0</ele><time>2026-04-19T12:58:00.941Z</time></trkpt><trkpt lat="45.49246" lon="8.7181417"><ele>149.0</ele><time>2026-04-19T12:58:01.939Z</time></trkpt><trkpt lat="45.4923233" lon="8.7181833"><ele>149.0</ele><time>2026-04-19T12:58:02.94Z</time></trkpt><trkpt lat="45.4921783" lon="8.7182517"><ele>149.0</ele><time>2026-04-19T12:58:03.94Z</time></trkpt><trkpt lat="45.49204" lon="8.7183183"><ele>149.75</ele><time>2026-04-19T12:58:04.939Z</time></trkpt><trkpt lat="45.491915" lon="8.718375"><ele>150.5</ele><time>2026-04-19T12:58:05.94Z</time></trkpt><trkpt lat="45.4918067" lon="8.71841"><ele>151.25</ele><time>2026-04-19T12:58:06.94Z</time></trkpt><trkpt lat="45.4916917" lon="8.7184417"><ele>152.0</ele><time>2026-04-19T12:58:07.94Z</time></trkpt><trkpt lat="45.4915767" lon="8.71848"><ele>152.0</ele><time>2026-04-19T12:58:08.94Z</time></trkpt><trkpt lat="45.49146" lon="8.718535"><ele>152.0</ele><time>2026-04-19T12:58:09.94Z</time></trkpt><trkpt lat="45.4913383" lon="8.7185867"><ele>152.0</ele><time>2026-04-19T12:58:10.939Z</time></trkpt><trkpt lat="45.4912317" lon="8.7186417"><ele>152.0</ele><time>2026-04-19T12:58:11.94Z</time></trkpt><trkpt lat="45.4911367" lon="8.7186867"><ele>152.16666666666666</ele><time>2026-04-19T12:58:12.94Z</time></trkpt><trkpt lat="45.49105" lon="8.7187183"><ele>152.33333333333331</ele><time>2026-04-19T12:58:13.94Z</time></trkpt><trkpt lat="45.4909817" lon="8.7187433"><ele>152.5</ele><time>2026-04-19T12:58:14.94Z</time></trkpt><trkpt lat="45.4908917" lon="8.7188517"><ele>152.66666666666666</ele><time>2026-04-19T12:58:16.939Z</time></trkpt><trkpt lat="45.4908817" lon="8.7189467"><ele>152.83333333333334</ele><time>2026-04-19T12:58:17.94Z</time></trkpt><trkpt lat="45.4908883" lon="8.71907"><ele>153.0</ele><time>2026-04-19T12:58:18.94Z</time></trkpt><trkpt lat="45.4909467" lon="8.719215"><ele>153.0</ele><time>2026-04-19T12:58:19.939Z</time></trkpt><trkpt lat="45.4910283" lon="8.7193567"><ele>153.0</ele><time>2026-04-19T12:58:20.94Z</time></trkpt><trkpt lat="45.4911083" lon="8.7194933"><ele>153.0</ele><time>2026-04-19T12:58:21.939Z</time></trkpt><trkpt lat="45.491185" lon="8.7196333"><ele>153.0</ele><time>2026-04-19T12:58:22.939Z</time></trkpt><trkpt lat="45.49126" lon="8.7197667"><ele>152.5</ele><time>2026-04-19T12:58:23.94Z</time></trkpt><trkpt lat="45.491345" lon="8.7199133"><ele>152.0</ele><time>2026-04-19T12:58:24.939Z</time></trkpt><trkpt lat="45.491425" lon="8.7200733"><ele>151.5</ele><time>2026-04-19T12:58:25.939Z</time></trkpt><trkpt lat="45.4915217" lon="8.72024"><ele>151.0</ele><time>2026-04-19T12:58:26.939Z</time></trkpt><trkpt lat="45.4916083" lon="8.7204133"><ele>151.0</ele><time>2026-04-19T12:58:27.94Z</time></trkpt><trkpt lat="45.491695" lon="8.7205883"><ele>151.0</ele><time>2026-04-19T12:58:28.94Z</time></trkpt><trkpt lat="45.4917983" lon="8.7207583"><ele>151.0</ele><time>2026-04-19T12:58:29.94Z</time></trkpt><trkpt lat="45.4918967" lon="8.7209283"><ele>149.66666666666669</ele><time>2026-04-19T12:58:30.939Z</time></trkpt><trkpt lat="45.491995" lon="8.7211017"><ele>148.33333333333334</ele><time>2026-04-19T12:58:31.94Z</time></trkpt><trkpt lat="45.4920983" lon="8.7212717"><ele>147.0</ele><time>2026-04-19T12:58:32.94Z</time></trkpt><trkpt lat="45.4921933" lon="8.7214417"><ele>147.0</ele><time>2026-04-19T12:58:33.939Z</time></trkpt><trkpt lat="45.492295" lon="8.7216117"><ele>147.0</ele><time>2026-04-19T12:58:34.94Z</time></trkpt><trkpt lat="45.4923817" lon="8.7217717"><ele>147.0</ele><time>2026-04-19T12:58:35.94Z</time></trkpt><trkpt lat="45.4924717" lon="8.7219267"><ele>147.0</ele><time>2026-04-19T12:58:36.939Z</time></trkpt><trkpt lat="45.4925567" lon="8.7220817"><ele>148.6</ele><time>2026-04-19T12:58:37.94Z</time></trkpt><trkpt lat="45.492635" lon="8.7222333"><ele>150.2</ele><time>2026-04-19T12:58:38.94Z</time></trkpt><trkpt lat="45.492705" lon="8.7223683"><ele>151.8</ele><time>2026-04-19T12:58:39.939Z</time></trkpt><trkpt lat="45.4927667" lon="8.7224917"><ele>153.4</ele><time>2026-04-19T12:58:40.939Z</time></trkpt><trkpt lat="45.49282" lon="8.7226"><ele>155.0</ele><time>2026-04-19T12:58:41.94Z</time></trkpt><trkpt lat="45.492865" lon="8.72271"><ele>155.4</ele><time>2026-04-19T12:58:42.939Z</time></trkpt><trkpt lat="45.492915" lon="8.7228133"><ele>155.8</ele><time>2026-04-19T12:58:43.94Z</time></trkpt><trkpt lat="45.492975" lon="8.722925"><ele>156.2</ele><time>2026-04-19T12:58:44.939Z</time></trkpt><trkpt lat="45.4930417" lon="8.7230617"><ele>156.6</ele><time>2026-04-19T12:58:45.939Z</time></trkpt><trkpt lat="45.4931233" lon="8.7232033"><ele>157.0</ele><time>2026-04-19T12:58:46.939Z</time></trkpt><trkpt lat="45.4932117" lon="8.7233633"><ele>156.25</ele><time>2026-04-19T12:58:47.94Z</time></trkpt><trkpt lat="45.4932967" lon="8.7235283"><ele>155.5</ele><time>2026-04-19T12:58:48.939Z</time></trkpt><trkpt lat="45.49338" lon="8.7237033"><ele>154.75</ele><time>2026-04-19T12:58:49.94Z</time></trkpt><trkpt lat="45.493465" lon="8.7238767"><ele>154.0</ele><time>2026-04-19T12:58:50.94Z</time></trkpt><trkpt lat="45.4935617" lon="8.7240333"><ele>154.0</ele><time>2026-04-19T12:58:51.94Z</time></trkpt><trkpt lat="45.4936583" lon="8.7241867"><ele>154.0</ele><time>2026-04-19T12:58:52.939Z</time></trkpt><trkpt lat="45.4937667" lon="8.72434"><ele>154.0</ele><time>2026-04-19T12:58:53.94Z</time></trkpt><trkpt lat="45.4938617" lon="8.7244933"><ele>154.0</ele><time>2026-04-19T12:58:54.94Z</time></trkpt><trkpt lat="45.49396" lon="8.7246333"><ele>153.75</ele><time>2026-04-19T12:58:55.939Z</time></trkpt><trkpt lat="45.4940517" lon="8.7247733"><ele>153.5</ele><time>2026-04-19T12:58:56.939Z</time></trkpt><trkpt lat="45.4941417" lon="8.7249367"><ele>153.25</ele><time>2026-04-19T12:58:57.94Z</time></trkpt><trkpt lat="45.49422" lon="8.7251083"><ele>153.0</ele><time>2026-04-19T12:58:58.94Z</time></trkpt><trkpt lat="45.4943067" lon="8.72527"><ele>153.5</ele><time>2026-04-19T12:58:59.94Z</time></trkpt><trkpt lat="45.4943983" lon="8.7254167"><ele>154.0</ele><time>2026-04-19T12:59:00.94Z</time></trkpt><trkpt lat="45.49448" lon="8.7255667"><ele>154.5</ele><time>2026-04-19T12:59:01.94Z</time></trkpt><trkpt lat="45.4945617" lon="8.72571"><ele>155.0</ele><time>2026-04-19T12:59:02.939Z</time></trkpt><trkpt lat="45.494635" lon="8.7258467"><ele>154.25</ele><time>2026-04-19T12:59:03.939Z</time></trkpt><trkpt lat="45.4947067" lon="8.7259833"><ele>153.5</ele><time>2026-04-19T12:59:04.94Z</time></trkpt><trkpt lat="45.4947833" lon="8.7261183"><ele>152.75</ele><time>2026-04-19T12:59:05.94Z</time></trkpt><trkpt lat="45.4948683" lon="8.7262567"><ele>152.0</ele><time>2026-04-19T12:59:06.939Z</time></trkpt><trkpt lat="45.4949417" lon="8.7264083"><ele>152.0</ele><time>2026-04-19T12:59:07.94Z</time></trkpt><trkpt lat="45.49502" lon="8.726545"><ele>152.0</ele><time>2026-04-19T12:59:08.939Z</time></trkpt><trkpt lat="45.495095" lon="8.7266733"><ele>152.0</ele><time>2026-04-19T12:59:09.939Z</time></trkpt><trkpt lat="45.495165" lon="8.7267967"><ele>152.0</ele><time>2026-04-19T12:59:10.94Z</time></trkpt><trkpt lat="45.4952317" lon="8.7268967"><ele>152.0</ele><time>2026-04-19T12:59:11.94Z</time></trkpt><trkpt lat="45.4952933" lon="8.7270033"><ele>152.4</ele><time>2026-04-19T12:59:12.939Z</time></trkpt><trkpt lat="45.4953583" lon="8.7271383"><ele>152.79999999999998</ele><time>2026-04-19T12:59:13.94Z</time></trkpt><trkpt lat="45.4954217" lon="8.727255"><ele>153.2</ele><time>2026-04-19T12:59:14.939Z</time></trkpt><trkpt lat="45.4954817" lon="8.7273483"><ele>153.6</ele><time>2026-04-19T12:59:15.939Z</time></trkpt><trkpt lat="45.4955217" lon="8.7274217"><ele>154.0</ele><time>2026-04-19T12:59:16.939Z</time></trkpt><trkpt lat="45.49559" lon="8.7275167"><ele>154.16666666666669</ele><time>2026-04-19T12:59:18.94Z</time></trkpt><trkpt lat="45.4956633" lon="8.7275233"><ele>154.33333333333334</ele><time>2026-04-19T12:59:21.939Z</time></trkpt><trkpt lat="45.49572" lon="8.7274583"><ele>154.5</ele><time>2026-04-19T12:59:23.94Z</time></trkpt><trkpt lat="45.4957833" lon="8.7273233"><ele>154.66666666666666</ele><time>2026-04-19T12:59:25.94Z</time></trkpt><trkpt lat="45.49583" lon="8.7272217"><ele>154.83333333333331</ele><time>2026-04-19T12:59:26.939Z</time></trkpt><trkpt lat="45.4958933" lon="8.7271183"><ele>155.0</ele><time>2026-04-19T12:59:27.94Z</time></trkpt><trkpt lat="45.4959583" lon="8.727"><ele>154.25</ele><time>2026-04-19T12:59:28.94Z</time></trkpt><trkpt lat="45.49603" lon="8.7268633"><ele>153.5</ele><time>2026-04-19T12:59:29.94Z</time></trkpt><trkpt lat="45.4960983" lon="8.7267183"><ele>152.75</ele><time>2026-04-19T12:59:30.94Z</time></trkpt><trkpt lat="45.496165" lon="8.7265767"><ele>152.0</ele><time>2026-04-19T12:59:31.94Z</time></trkpt><trkpt lat="45.4962417" lon="8.72643"><ele>152.0</ele><time>2026-04-19T12:59:32.94Z</time></trkpt><trkpt lat="45.49632" lon="8.726275"><ele>152.0</ele><time>2026-04-19T12:59:33.94Z</time></trkpt><trkpt lat="45.4964" lon="8.726115"><ele>152.0</ele><time>2026-04-19T12:59:34.939Z</time></trkpt><trkpt lat="45.4964783" lon="8.7259567"><ele>152.0</ele><time>2026-04-19T12:59:35.939Z</time></trkpt><trkpt lat="45.4965667" lon="8.7258017"><ele>152.0</ele><time>2026-04-19T12:59:36.94Z</time></trkpt><trkpt lat="45.4966417" lon="8.725645"><ele>152.0</ele><time>2026-04-19T12:59:37.94Z</time></trkpt><trkpt lat="45.49672" lon="8.7254967"><ele>152.0</ele><time>2026-04-19T12:59:38.94Z</time></trkpt><trkpt lat="45.496805" lon="8.7253333"><ele>152.0</ele><time>2026-04-19T12:59:39.939Z</time></trkpt><trkpt lat="45.4968817" lon="8.725175"><ele>151.0</ele><time>2026-04-19T12:59:40.94Z</time></trkpt><trkpt lat="45.4969667" lon="8.7250167"><ele>150.0</ele><time>2026-04-19T12:59:41.94Z</time></trkpt><trkpt lat="45.497045" lon="8.7248667"><ele>149.0</ele><time>2026-04-19T12:59:42.94Z</time></trkpt><trkpt lat="45.49712" lon="8.7247333"><ele>148.0</ele><time>2026-04-19T12:59:43.939Z</time></trkpt><trkpt lat="45.4971917" lon="8.7245833"><ele>149.0</ele><time>2026-04-19T12:59:44.939Z</time></trkpt><trkpt lat="45.497265" lon="8.7244317"><ele>150.0</ele><time>2026-04-19T12:59:45.939Z</time></trkpt><trkpt lat="45.4973417" lon="8.7242933"><ele>151.0</ele><time>2026-04-19T12:59:46.939Z</time></trkpt><trkpt lat="45.497425" lon="8.724135"><ele>152.0</ele><time>2026-04-19T12:59:47.94Z</time></trkpt><trkpt lat="45.4975" lon="8.7239917"><ele>152.0</ele><time>2026-04-19T12:59:48.939Z</time></trkpt><trkpt lat="45.4975633" lon="8.7238683"><ele>152.0</ele><time>2026-04-19T12:59:49.94Z</time></trkpt><trkpt lat="45.4976183" lon="8.72374"><ele>152.0</ele><time>2026-04-19T12:59:50.94Z</time></trkpt><trkpt lat="45.4976767" lon="8.7236117"><ele>152.0</ele><time>2026-04-19T12:59:51.94Z</time></trkpt><trkpt lat="45.497705" lon="8.7234783"><ele>152.0</ele><time>2026-04-19T12:59:52.939Z</time></trkpt><trkpt lat="45.4977117" lon="8.7233433"><ele>151.4</ele><time>2026-04-19T12:59:53.94Z</time></trkpt><trkpt lat="45.4976917" lon="8.7232183"><ele>150.79999999999998</ele><time>2026-04-19T12:59:54.939Z</time></trkpt><trkpt lat="45.4976717" lon="8.72311"><ele>150.2</ele><time>2026-04-19T12:59:55.94Z</time></trkpt><trkpt lat="45.49767" lon="8.7229717"><ele>149.6</ele><time>2026-04-19T12:59:57.94Z</time></trkpt><trkpt lat="45.4977967" lon="8.7228383"><ele>149.0</ele><time>2026-04-19T12:59:59.94Z</time></trkpt><trkpt lat="45.4979017" lon="8.7227433"><ele>151.5</ele><time>2026-04-19T13:00:00.94Z</time></trkpt><trkpt lat="45.49801" lon="8.7226433"><ele>154.0</ele><time>2026-04-19T13:00:01.939Z</time></trkpt><trkpt lat="45.4981217" lon="8.722545"><ele>156.5</ele><time>2026-04-19T13:00:02.939Z</time></trkpt><trkpt lat="45.49824" lon="8.7224333"><ele>159.0</ele><time>2026-04-19T13:00:03.94Z</time></trkpt><trkpt lat="45.4983467" lon="8.7223317"><ele>159.0</ele><time>2026-04-19T13:00:04.94Z</time></trkpt><trkpt lat="45.4984567" lon="8.722235"><ele>159.0</ele><time>2026-04-19T13:00:05.939Z</time></trkpt><trkpt lat="45.4985667" lon="8.7221183"><ele>159.0</ele><time>2026-04-19T13:00:06.94Z</time></trkpt><trkpt lat="45.4986833" lon="8.72202"><ele>159.0</ele><time>2026-04-19T13:00:07.94Z</time></trkpt><trkpt lat="45.4988033" lon="8.7219033"><ele>158.5</ele><time>2026-04-19T13:00:08.939Z</time></trkpt><trkpt lat="45.4989133" lon="8.721795"><ele>158.0</ele><time>2026-04-19T13:00:09.94Z</time></trkpt><trkpt lat="45.4990317" lon="8.7216717"><ele>157.5</ele><time>2026-04-19T13:00:10.94Z</time></trkpt><trkpt lat="45.499165" lon="8.7215467"><ele>157.0</ele><time>2026-04-19T13:00:11.94Z</time></trkpt><trkpt lat="45.4992983" lon="8.7214367"><ele>157.0</ele><time>2026-04-19T13:00:12.94Z</time></trkpt></trkseg></trk></gpx>